<?xml version="1.0" encoding="UTF-8"?>
<gpx version="1.1" creator="Apple Health Export" xmlns="http://www.topografix.com/GPX/1/1" xmlns:xsi="http://www.w3.org/2001/XMLSchema-instance" xsi:schemaLocation="http://www.topografix.com/GPX/1/1 http://www.topografix.com/GPX/1/1/gpx.xsd">
  <metadata>
    <time>2022-04-11T14:57:00Z</time>
  </metadata>
  <trk>
    <name>Route 2021-09-01 1:46pm</name>
    <trkseg>
      <trkpt lon="-3.152906" lat="52.981719"><ele>236.024567</ele><time>2021-09-01T09:09:36Z</time><extensions><speed>0.209439</speed><course>-1.000000</course><hAcc>3.094270</hAcc><vAcc>2.900219</vAcc></extensions></trkpt>
      <trkpt lon="-3.152909" lat="52.981719"><ele>235.977081</ele><time>2021-09-01T09:09:38Z</time><extensions><speed>0.209464</speed><course>-1.000000</course><hAcc>2.834910</hAcc><vAcc>2.682402</vAcc></extensions></trkpt>
      <trkpt lon="-3.152912" lat="52.981718"><ele>235.930420</ele><time>2021-09-01T09:09:38Z</time><extensions><speed>0.209452</speed><course>333.889435</course><hAcc>2.611102</hAcc><vAcc>2.487962</vAcc></extensions></trkpt>
      <trkpt lon="-3.152915" lat="52.981718"><ele>235.883499</ele><time>2021-09-01T09:09:39Z</time><extensions><speed>0.209403</speed><course>-1.000000</course><hAcc>2.415987</hAcc><vAcc>2.311863</vAcc></extensions></trkpt>
      <trkpt lon="-3.152918" lat="52.981717"><ele>235.836792</ele><time>2021-09-01T09:09:40Z</time><extensions><speed>0.209382</speed><course>-1.000000</course><hAcc>2.249520</hAcc><vAcc>2.155198</vAcc></extensions></trkpt>
      <trkpt lon="-3.152921" lat="52.981717"><ele>235.790405</ele><time>2021-09-01T09:09:41Z</time><extensions><speed>0.209256</speed><course>-1.000000</course><hAcc>2.108938</hAcc><vAcc>2.016936</vAcc></extensions></trkpt>
      <trkpt lon="-3.152924" lat="52.981716"><ele>235.744476</ele><time>2021-09-01T09:09:42Z</time><extensions><speed>0.208624</speed><course>-1.000000</course><hAcc>1.990720</hAcc><vAcc>1.895525</vAcc></extensions></trkpt>
      <trkpt lon="-3.152927" lat="52.981716"><ele>235.699158</ele><time>2021-09-01T09:09:43Z</time><extensions><speed>0.206882</speed><course>-1.000000</course><hAcc>1.890748</hAcc><vAcc>1.788903</vAcc></extensions></trkpt>
      <trkpt lon="-3.152930" lat="52.981716"><ele>235.654678</ele><time>2021-09-01T09:09:44Z</time><extensions><speed>0.203483</speed><course>-1.000000</course><hAcc>1.804741</hAcc><vAcc>1.694678</vAcc></extensions></trkpt>
      <trkpt lon="-3.152933" lat="52.981715"><ele>235.611191</ele><time>2021-09-01T09:09:46Z</time><extensions><speed>0.197836</speed><course>-1.000000</course><hAcc>1.728692</hAcc><vAcc>1.610303</vAcc></extensions></trkpt>
      <trkpt lon="-3.152936" lat="52.981715"><ele>235.569046</ele><time>2021-09-01T09:09:46Z</time><extensions><speed>0.189120</speed><course>-1.000000</course><hAcc>1.659540</hAcc><vAcc>1.533685</vAcc></extensions></trkpt>
      <trkpt lon="-3.152939" lat="52.981714"><ele>235.528381</ele><time>2021-09-01T09:09:47Z</time><extensions><speed>0.175899</speed><course>-1.000000</course><hAcc>1.594428</hAcc><vAcc>1.462457</vAcc></extensions></trkpt>
      <trkpt lon="-3.152941" lat="52.981714"><ele>235.489456</ele><time>2021-09-01T09:09:49Z</time><extensions><speed>0.156779</speed><course>-1.000000</course><hAcc>1.531305</hAcc><vAcc>1.394743</vAcc></extensions></trkpt>
      <trkpt lon="-3.152943" lat="52.981714"><ele>235.452606</ele><time>2021-09-01T09:09:50Z</time><extensions><speed>0.129898</speed><course>-1.000000</course><hAcc>1.468898</hAcc><vAcc>1.329157</vAcc></extensions></trkpt>
      <trkpt lon="-3.152945" lat="52.981713"><ele>235.418091</ele><time>2021-09-01T09:09:51Z</time><extensions><speed>0.093308</speed><course>184.559082</course><hAcc>1.406382</hAcc><vAcc>1.264538</vAcc></extensions></trkpt>
      <trkpt lon="-3.152946" lat="52.981713"><ele>235.386261</ele><time>2021-09-01T09:09:52Z</time><extensions><speed>0.048231</speed><course>-1.000000</course><hAcc>1.343656</hAcc><vAcc>1.200269</vAcc></extensions></trkpt>
      <trkpt lon="-3.152946" lat="52.981713"><ele>235.357697</ele><time>2021-09-01T09:09:53Z</time><extensions><speed>0.012623</speed><course>-1.000000</course><hAcc>1.281160</hAcc><vAcc>1.136204</vAcc></extensions></trkpt>
      <trkpt lon="-3.152946" lat="52.981713"><ele>235.333313</ele><time>2021-09-01T09:09:54Z</time><extensions><speed>0.060472</speed><course>-1.000000</course><hAcc>1.219631</hAcc><vAcc>1.072590</vAcc></extensions></trkpt>
      <trkpt lon="-3.152944" lat="52.981713"><ele>235.314255</ele><time>2021-09-01T09:09:55Z</time><extensions><speed>0.113896</speed><course>-1.000000</course><hAcc>1.160133</hAcc><vAcc>1.010094</vAcc></extensions></trkpt>
      <trkpt lon="-3.152942" lat="52.981713"><ele>235.301910</ele><time>2021-09-01T09:09:56Z</time><extensions><speed>0.163389</speed><course>53.307610</course><hAcc>1.104144</hAcc><vAcc>0.949864</vAcc></extensions></trkpt>
      <trkpt lon="-3.152940" lat="52.981713"><ele>235.297943</ele><time>2021-09-01T09:09:57Z</time><extensions><speed>0.203202</speed><course>-1.000000</course><hAcc>1.053317</hAcc><vAcc>0.893475</vAcc></extensions></trkpt>
      <trkpt lon="-3.152936" lat="52.981713"><ele>235.303879</ele><time>2021-09-01T09:09:58Z</time><extensions><speed>0.230642</speed><course>-1.000000</course><hAcc>1.009050</hAcc><vAcc>0.842575</vAcc></extensions></trkpt>
      <trkpt lon="-3.152933" lat="52.981714"><ele>235.320541</ele><time>2021-09-01T09:09:59Z</time><extensions><speed>0.246071</speed><course>-1.000000</course><hAcc>0.972083</hAcc><vAcc>0.798312</vAcc></extensions></trkpt>
      <trkpt lon="-3.152929" lat="52.981714"><ele>235.347824</ele><time>2021-09-01T09:10:00Z</time><extensions><speed>0.249967</speed><course>120.394302</course><hAcc>0.942407</hAcc><vAcc>0.761091</vAcc></extensions></trkpt>
      <trkpt lon="-3.152925" lat="52.981714"><ele>235.384811</ele><time>2021-09-01T09:10:01Z</time><extensions><speed>0.243582</speed><course>-1.000000</course><hAcc>0.919439</hAcc><vAcc>0.730681</vAcc></extensions></trkpt>
      <trkpt lon="-3.152922" lat="52.981714"><ele>235.430038</ele><time>2021-09-01T09:10:02Z</time><extensions><speed>0.228876</speed><course>-1.000000</course><hAcc>0.902230</hAcc><vAcc>0.706375</vAcc></extensions></trkpt>
      <trkpt lon="-3.152919" lat="52.981714"><ele>235.481598</ele><time>2021-09-01T09:10:03Z</time><extensions><speed>0.207821</speed><course>-1.000000</course><hAcc>0.889673</hAcc><vAcc>0.687183</vAcc></extensions></trkpt>
      <trkpt lon="-3.152916" lat="52.981714"><ele>235.537277</ele><time>2021-09-01T09:10:04Z</time><extensions><speed>0.182324</speed><course>-1.000000</course><hAcc>0.880670</hAcc><vAcc>0.672028</vAcc></extensions></trkpt>
      <trkpt lon="-3.152913" lat="52.981714"><ele>235.594727</ele><time>2021-09-01T09:10:05Z</time><extensions><speed>0.154350</speed><course>-1.000000</course><hAcc>0.874249</hAcc><vAcc>0.659904</vAcc></extensions></trkpt>
      <trkpt lon="-3.152911" lat="52.981714"><ele>235.651627</ele><time>2021-09-01T09:10:06Z</time><extensions><speed>0.125593</speed><course>-1.000000</course><hAcc>0.869622</hAcc><vAcc>0.649982</vAcc></extensions></trkpt>
      <trkpt lon="-3.152910" lat="52.981713"><ele>235.705811</ele><time>2021-09-01T09:10:07Z</time><extensions><speed>0.097883</speed><course>-1.000000</course><hAcc>0.866204</hAcc><vAcc>0.641645</vAcc></extensions></trkpt>
      <trkpt lon="-3.152908" lat="52.981713"><ele>235.755417</ele><time>2021-09-01T09:10:08Z</time><extensions><speed>0.073803</speed><course>-1.000000</course><hAcc>0.863587</hAcc><vAcc>0.634477</vAcc></extensions></trkpt>
      <trkpt lon="-3.152908" lat="52.981713"><ele>235.798874</ele><time>2021-09-01T09:10:09Z</time><extensions><speed>0.056826</speed><course>-1.000000</course><hAcc>0.861516</hAcc><vAcc>0.628204</vAcc></extensions></trkpt>
      <trkpt lon="-3.152907" lat="52.981712"><ele>235.834900</ele><time>2021-09-01T09:10:10Z</time><extensions><speed>0.050224</speed><course>-1.000000</course><hAcc>0.859845</hAcc><vAcc>0.622657</vAcc></extensions></trkpt>
      <trkpt lon="-3.152907" lat="52.981712"><ele>235.862549</ele><time>2021-09-01T09:10:11Z</time><extensions><speed>0.052845</speed><course>-1.000000</course><hAcc>0.858505</hAcc><vAcc>0.617716</vAcc></extensions></trkpt>
      <trkpt lon="-3.152908" lat="52.981711"><ele>235.881195</ele><time>2021-09-01T09:10:12Z</time><extensions><speed>0.059299</speed><course>-1.000000</course><hAcc>0.857473</hAcc><vAcc>0.613259</vAcc></extensions></trkpt>
      <trkpt lon="-3.152908" lat="52.981711"><ele>235.890640</ele><time>2021-09-01T09:10:13Z</time><extensions><speed>0.065199</speed><course>-1.000000</course><hAcc>0.856749</hAcc><vAcc>0.609139</vAcc></extensions></trkpt>
      <trkpt lon="-3.152909" lat="52.981710"><ele>235.891251</ele><time>2021-09-01T09:10:14Z</time><extensions><speed>0.068293</speed><course>-1.000000</course><hAcc>0.856339</hAcc><vAcc>0.605181</vAcc></extensions></trkpt>
      <trkpt lon="-3.152909" lat="52.981710"><ele>235.883942</ele><time>2021-09-01T09:10:15Z</time><extensions><speed>0.067574</speed><course>-1.000000</course><hAcc>0.856256</hAcc><vAcc>0.601215</vAcc></extensions></trkpt>
      <trkpt lon="-3.152910" lat="52.981710"><ele>235.870148</ele><time>2021-09-01T09:10:16Z</time><extensions><speed>0.062732</speed><course>-1.000000</course><hAcc>0.856517</hAcc><vAcc>0.597131</vAcc></extensions></trkpt>
      <trkpt lon="-3.152911" lat="52.981709"><ele>235.851486</ele><time>2021-09-01T09:10:17Z</time><extensions><speed>0.054343</speed><course>-1.000000</course><hAcc>0.857137</hAcc><vAcc>0.592911</vAcc></extensions></trkpt>
      <trkpt lon="-3.152912" lat="52.981709"><ele>235.829987</ele><time>2021-09-01T09:10:18Z</time><extensions><speed>0.044357</speed><course>-1.000000</course><hAcc>0.858110</hAcc><vAcc>0.588657</vAcc></extensions></trkpt>
      <trkpt lon="-3.152912" lat="52.981709"><ele>235.807831</ele><time>2021-09-01T09:10:19Z</time><extensions><speed>0.037041</speed><course>-1.000000</course><hAcc>0.859380</hAcc><vAcc>0.584568</vAcc></extensions></trkpt>
      <trkpt lon="-3.152913" lat="52.981709"><ele>235.787323</ele><time>2021-09-01T09:10:20Z</time><extensions><speed>0.038304</speed><course>116.725777</course><hAcc>0.860820</hAcc><vAcc>0.580893</vAcc></extensions></trkpt>
      <trkpt lon="-3.152913" lat="52.981710"><ele>235.770462</ele><time>2021-09-01T09:10:21Z</time><extensions><speed>0.048299</speed><course>116.725777</course><hAcc>0.862240</hAcc><vAcc>0.577893</vAcc></extensions></trkpt>
      <trkpt lon="-3.152913" lat="52.981710"><ele>235.758621</ele><time>2021-09-01T09:10:22Z</time><extensions><speed>0.061523</speed><course>116.725777</course><hAcc>0.863451</hAcc><vAcc>0.575844</vAcc></extensions></trkpt>
      <trkpt lon="-3.152913" lat="52.981711"><ele>235.752686</ele><time>2021-09-01T09:10:23Z</time><extensions><speed>0.074407</speed><course>116.725777</course><hAcc>0.864308</hAcc><vAcc>0.575033</vAcc></extensions></trkpt>
      <trkpt lon="-3.152913" lat="52.981712"><ele>235.753143</ele><time>2021-09-01T09:10:24Z</time><extensions><speed>0.085358</speed><course>116.725777</course><hAcc>0.864744</hAcc><vAcc>0.575725</vAcc></extensions></trkpt>
      <trkpt lon="-3.152912" lat="52.981712"><ele>235.760010</ele><time>2021-09-01T09:10:25Z</time><extensions><speed>0.092707</speed><course>116.725784</course><hAcc>0.864776</hAcc><vAcc>0.578121</vAcc></extensions></trkpt>
      <trkpt lon="-3.152912" lat="52.981713"><ele>235.772690</ele><time>2021-09-01T09:10:26Z</time><extensions><speed>0.094809</speed><course>116.725784</course><hAcc>0.864500</hAcc><vAcc>0.582317</vAcc></extensions></trkpt>
      <trkpt lon="-3.152912" lat="52.981714"><ele>235.790222</ele><time>2021-09-01T09:10:27Z</time><extensions><speed>0.091204</speed><course>116.725784</course><hAcc>0.864079</hAcc><vAcc>0.588260</vAcc></extensions></trkpt>
      <trkpt lon="-3.152911" lat="52.981715"><ele>235.811447</ele><time>2021-09-01T09:10:28Z</time><extensions><speed>0.082825</speed><course>116.725784</course><hAcc>0.863711</hAcc><vAcc>0.595735</vAcc></extensions></trkpt>
      <trkpt lon="-3.152910" lat="52.981715"><ele>235.835205</ele><time>2021-09-01T09:10:29Z</time><extensions><speed>0.071713</speed><course>116.725784</course><hAcc>0.863576</hAcc><vAcc>0.604377</vAcc></extensions></trkpt>
      <trkpt lon="-3.152910" lat="52.981716"><ele>235.860413</ele><time>2021-09-01T09:10:30Z</time><extensions><speed>0.060196</speed><course>116.725784</course><hAcc>0.863783</hAcc><vAcc>0.613676</vAcc></extensions></trkpt>
      <trkpt lon="-3.152910" lat="52.981716"><ele>235.886185</ele><time>2021-09-01T09:10:31Z</time><extensions><speed>0.050416</speed><course>116.725784</course><hAcc>0.864338</hAcc><vAcc>0.623018</vAcc></extensions></trkpt>
      <trkpt lon="-3.152910" lat="52.981717"><ele>235.911896</ele><time>2021-09-01T09:10:32Z</time><extensions><speed>0.045316</speed><course>116.725784</course><hAcc>0.865162</hAcc><vAcc>0.631801</vAcc></extensions></trkpt>
      <trkpt lon="-3.152910" lat="52.981717"><ele>235.937103</ele><time>2021-09-01T09:10:33Z</time><extensions><speed>0.049031</speed><course>116.725784</course><hAcc>0.866131</hAcc><vAcc>0.639536</vAcc></extensions></trkpt>
      <trkpt lon="-3.152910" lat="52.981718"><ele>235.961609</ele><time>2021-09-01T09:10:34Z</time><extensions><speed>0.063886</speed><course>116.725784</course><hAcc>0.867115</hAcc><vAcc>0.645887</vAcc></extensions></trkpt>
      <trkpt lon="-3.152910" lat="52.981718"><ele>235.985367</ele><time>2021-09-01T09:10:35Z</time><extensions><speed>0.089104</speed><course>116.725784</course><hAcc>0.867999</hAcc><vAcc>0.650685</vAcc></extensions></trkpt>
      <trkpt lon="-3.152911" lat="52.981719"><ele>236.008514</ele><time>2021-09-01T09:10:36Z</time><extensions><speed>0.123417</speed><course>116.725784</course><hAcc>0.868710</hAcc><vAcc>0.653953</vAcc></extensions></trkpt>
      <trkpt lon="-3.152913" lat="52.981720"><ele>236.031235</ele><time>2021-09-01T09:10:37Z</time><extensions><speed>0.165992</speed><course>116.725784</course><hAcc>0.869219</hAcc><vAcc>0.655886</vAcc></extensions></trkpt>
      <trkpt lon="-3.152915" lat="52.981721"><ele>236.053680</ele><time>2021-09-01T09:10:38Z</time><extensions><speed>0.215952</speed><course>116.725784</course><hAcc>0.869537</hAcc><vAcc>0.656789</vAcc></extensions></trkpt>
      <trkpt lon="-3.152917" lat="52.981723"><ele>236.075912</ele><time>2021-09-01T09:10:39Z</time><extensions><speed>0.271753</speed><course>116.725784</course><hAcc>0.869703</hAcc><vAcc>0.656986</vAcc></extensions></trkpt>
      <trkpt lon="-3.152920" lat="52.981725"><ele>236.097977</ele><time>2021-09-01T09:10:40Z</time><extensions><speed>0.331480</speed><course>116.725784</course><hAcc>0.869773</hAcc><vAcc>0.656802</vAcc></extensions></trkpt>
      <trkpt lon="-3.152924" lat="52.981727"><ele>236.119934</ele><time>2021-09-01T09:10:41Z</time><extensions><speed>0.393108</speed><course>116.725784</course><hAcc>0.869813</hAcc><vAcc>0.656541</vAcc></extensions></trkpt>
      <trkpt lon="-3.152929" lat="52.981730"><ele>236.141785</ele><time>2021-09-01T09:10:42Z</time><extensions><speed>0.454608</speed><course>116.725777</course><hAcc>0.869889</hAcc><vAcc>0.656472</vAcc></extensions></trkpt>
      <trkpt lon="-3.152934" lat="52.981733"><ele>236.163345</ele><time>2021-09-01T09:10:43Z</time><extensions><speed>0.514543</speed><course>116.725769</course><hAcc>0.870061</hAcc><vAcc>0.656821</vAcc></extensions></trkpt>
      <trkpt lon="-3.152940" lat="52.981736"><ele>236.184280</ele><time>2021-09-01T09:10:44Z</time><extensions><speed>0.572203</speed><course>116.725769</course><hAcc>0.870380</hAcc><vAcc>0.657772</vAcc></extensions></trkpt>
      <trkpt lon="-3.152946" lat="52.981740"><ele>236.204208</ele><time>2021-09-01T09:10:45Z</time><extensions><speed>0.627182</speed><course>116.725761</course><hAcc>0.870880</hAcc><vAcc>0.659442</vAcc></extensions></trkpt>
      <trkpt lon="-3.152954" lat="52.981743"><ele>236.222977</ele><time>2021-09-01T09:10:46Z</time><extensions><speed>0.679237</speed><course>116.725754</course><hAcc>0.871570</hAcc><vAcc>0.661848</vAcc></extensions></trkpt>
      <trkpt lon="-3.152962" lat="52.981748"><ele>236.240768</ele><time>2021-09-01T09:10:47Z</time><extensions><speed>0.728812</speed><course>116.725746</course><hAcc>0.872419</hAcc><vAcc>0.664869</vAcc></extensions></trkpt>
      <trkpt lon="-3.152970" lat="52.981752"><ele>236.257874</ele><time>2021-09-01T09:10:48Z</time><extensions><speed>0.776572</speed><course>116.725746</course><hAcc>0.873364</hAcc><vAcc>0.668254</vAcc></extensions></trkpt>
      <trkpt lon="-3.152979" lat="52.981757"><ele>236.274460</ele><time>2021-09-01T09:10:49Z</time><extensions><speed>0.822783</speed><course>116.725731</course><hAcc>0.874320</hAcc><vAcc>0.671693</vAcc></extensions></trkpt>
      <trkpt lon="-3.152988" lat="52.981762"><ele>236.290405</ele><time>2021-09-01T09:10:50Z</time><extensions><speed>0.867715</speed><course>116.725723</course><hAcc>0.875199</hAcc><vAcc>0.674880</vAcc></extensions></trkpt>
      <trkpt lon="-3.152998" lat="52.981767"><ele>236.305649</ele><time>2021-09-01T09:10:51Z</time><extensions><speed>0.911765</speed><course>116.725723</course><hAcc>0.875919</hAcc><vAcc>0.677539</vAcc></extensions></trkpt>
      <trkpt lon="-3.153008" lat="52.981773"><ele>236.320129</ele><time>2021-09-01T09:10:52Z</time><extensions><speed>0.954852</speed><course>116.725708</course><hAcc>0.876407</hAcc><vAcc>0.679432</vAcc></extensions></trkpt>
      <trkpt lon="-3.153019" lat="52.981779"><ele>236.333755</ele><time>2021-09-01T09:10:53Z</time><extensions><speed>0.996873</speed><course>116.725700</course><hAcc>0.876606</hAcc><vAcc>0.680346</vAcc></extensions></trkpt>
      <trkpt lon="-3.153030" lat="52.981785"><ele>236.346283</ele><time>2021-09-01T09:10:54Z</time><extensions><speed>1.038212</speed><course>116.725693</course><hAcc>0.876479</hAcc><vAcc>0.680089</vAcc></extensions></trkpt>
      <trkpt lon="-3.153041" lat="52.981792"><ele>236.357346</ele><time>2021-09-01T09:10:55Z</time><extensions><speed>1.078904</speed><course>116.725685</course><hAcc>0.876011</hAcc><vAcc>0.678481</vAcc></extensions></trkpt>
      <trkpt lon="-3.153053" lat="52.981799"><ele>236.366714</ele><time>2021-09-01T09:10:56Z</time><extensions><speed>1.118252</speed><course>116.725670</course><hAcc>0.875221</hAcc><vAcc>0.675355</vAcc></extensions></trkpt>
      <trkpt lon="-3.153065" lat="52.981806"><ele>236.374100</ele><time>2021-09-01T09:10:57Z</time><extensions><speed>1.155178</speed><course>116.725670</course><hAcc>0.874161</hAcc><vAcc>0.670571</vAcc></extensions></trkpt>
      <trkpt lon="-3.153077" lat="52.981814"><ele>236.379211</ele><time>2021-09-01T09:10:58Z</time><extensions><speed>1.187945</speed><course>116.725662</course><hAcc>0.872922</hAcc><vAcc>0.664045</vAcc></extensions></trkpt>
      <trkpt lon="-3.153089" lat="52.981821"><ele>236.381638</ele><time>2021-09-01T09:10:59Z</time><extensions><speed>1.213973</speed><course>316.510925</course><hAcc>0.871630</hAcc><vAcc>0.655788</vAcc></extensions></trkpt>
      <trkpt lon="-3.153102" lat="52.981829"><ele>236.380920</ele><time>2021-09-01T09:11:00Z</time><extensions><speed>1.231697</speed><course>325.771881</course><hAcc>0.870441</hAcc><vAcc>0.645962</vAcc></extensions></trkpt>
      <trkpt lon="-3.153115" lat="52.981837"><ele>236.376526</ele><time>2021-09-01T09:11:01Z</time><extensions><speed>1.241379</speed><course>329.412018</course><hAcc>0.869514</hAcc><vAcc>0.634932</vAcc></extensions></trkpt>
      <trkpt lon="-3.153129" lat="52.981845"><ele>236.367264</ele><time>2021-09-01T09:11:02Z</time><extensions><speed>1.244078</speed><course>328.807678</course><hAcc>0.868984</hAcc><vAcc>0.623292</vAcc></extensions></trkpt>
      <trkpt lon="-3.153142" lat="52.981852"><ele>236.351181</ele><time>2021-09-01T09:11:03Z</time><extensions><speed>1.241127</speed><course>328.238739</course><hAcc>0.868914</hAcc><vAcc>0.611833</vAcc></extensions></trkpt>
      <trkpt lon="-3.153157" lat="52.981859"><ele>236.325912</ele><time>2021-09-01T09:11:04Z</time><extensions><speed>1.233878</speed><course>328.754333</course><hAcc>0.869245</hAcc><vAcc>0.601393</vAcc></extensions></trkpt>
      <trkpt lon="-3.153171" lat="52.981866"><ele>236.288696</ele><time>2021-09-01T09:11:05Z</time><extensions><speed>1.223520</speed><course>321.291412</course><hAcc>0.869772</hAcc><vAcc>0.592653</vAcc></extensions></trkpt>
      <trkpt lon="-3.153186" lat="52.981872"><ele>236.235809</ele><time>2021-09-01T09:11:06Z</time><extensions><speed>1.210839</speed><course>315.163422</course><hAcc>0.870222</hAcc><vAcc>0.585994</vAcc></extensions></trkpt>
      <trkpt lon="-3.153201" lat="52.981878"><ele>236.163513</ele><time>2021-09-01T09:11:07Z</time><extensions><speed>1.196206</speed><course>320.356079</course><hAcc>0.870330</hAcc><vAcc>0.581465</vAcc></extensions></trkpt>
      <trkpt lon="-3.153216" lat="52.981884"><ele>236.069473</ele><time>2021-09-01T09:11:08Z</time><extensions><speed>1.180054</speed><course>314.759003</course><hAcc>0.869928</hAcc><vAcc>0.578832</vAcc></extensions></trkpt>
      <trkpt lon="-3.153231" lat="52.981889"><ele>235.952988</ele><time>2021-09-01T09:11:09Z</time><extensions><speed>1.163072</speed><course>306.430359</course><hAcc>0.869015</hAcc><vAcc>0.577682</vAcc></extensions></trkpt>
      <trkpt lon="-3.153247" lat="52.981893"><ele>235.815002</ele><time>2021-09-01T09:11:10Z</time><extensions><speed>1.146120</speed><course>312.642456</course><hAcc>0.867788</hAcc><vAcc>0.577482</vAcc></extensions></trkpt>
      <trkpt lon="-3.153262" lat="52.981898"><ele>235.657745</ele><time>2021-09-01T09:11:11Z</time><extensions><speed>1.129344</speed><course>309.329712</course><hAcc>0.866553</hAcc><vAcc>0.577637</vAcc></extensions></trkpt>
      <trkpt lon="-3.153277" lat="52.981902"><ele>235.484177</ele><time>2021-09-01T09:11:12Z</time><extensions><speed>1.112492</speed><course>306.517120</course><hAcc>0.865608</hAcc><vAcc>0.577615</vAcc></extensions></trkpt>
      <trkpt lon="-3.153292" lat="52.981906"><ele>235.297302</ele><time>2021-09-01T09:11:13Z</time><extensions><speed>1.095911</speed><course>302.169647</course><hAcc>0.865150</hAcc><vAcc>0.577073</vAcc></extensions></trkpt>
      <trkpt lon="-3.153307" lat="52.981910"><ele>235.099976</ele><time>2021-09-01T09:11:14Z</time><extensions><speed>1.080015</speed><course>299.953156</course><hAcc>0.865249</hAcc><vAcc>0.575911</vAcc></extensions></trkpt>
      <trkpt lon="-3.153321" lat="52.981914"><ele>234.895477</ele><time>2021-09-01T09:11:15Z</time><extensions><speed>1.065524</speed><course>299.473511</course><hAcc>0.865843</hAcc><vAcc>0.574247</vAcc></extensions></trkpt>
      <trkpt lon="-3.153335" lat="52.981919"><ele>234.687256</ele><time>2021-09-01T09:11:16Z</time><extensions><speed>1.053322</speed><course>298.103729</course><hAcc>0.866761</hAcc><vAcc>0.572353</vAcc></extensions></trkpt>
      <trkpt lon="-3.153349" lat="52.981923"><ele>234.478439</ele><time>2021-09-01T09:11:17Z</time><extensions><speed>1.044235</speed><course>294.101929</course><hAcc>0.867765</hAcc><vAcc>0.570604</vAcc></extensions></trkpt>
      <trkpt lon="-3.153363" lat="52.981928"><ele>234.272049</ele><time>2021-09-01T09:11:18Z</time><extensions><speed>1.038732</speed><course>298.669067</course><hAcc>0.868610</hAcc><vAcc>0.569409</vAcc></extensions></trkpt>
      <trkpt lon="-3.153376" lat="52.981932"><ele>234.070541</ele><time>2021-09-01T09:11:19Z</time><extensions><speed>1.036077</speed><course>297.460327</course><hAcc>0.869088</hAcc><vAcc>0.569156</vAcc></extensions></trkpt>
      <trkpt lon="-3.153389" lat="52.981937"><ele>233.874985</ele><time>2021-09-01T09:11:20Z</time><extensions><speed>1.035396</speed><course>300.643127</course><hAcc>0.869066</hAcc><vAcc>0.570145</vAcc></extensions></trkpt>
      <trkpt lon="-3.153402" lat="52.981943"><ele>233.686264</ele><time>2021-09-01T09:11:21Z</time><extensions><speed>1.036701</speed><course>300.762909</course><hAcc>0.868501</hAcc><vAcc>0.572537</vAcc></extensions></trkpt>
      <trkpt lon="-3.153414" lat="52.981948"><ele>233.505936</ele><time>2021-09-01T09:11:22Z</time><extensions><speed>1.039976</speed><course>306.221161</course><hAcc>0.867447</hAcc><vAcc>0.576328</vAcc></extensions></trkpt>
      <trkpt lon="-3.153426" lat="52.981954"><ele>233.335495</ele><time>2021-09-01T09:11:23Z</time><extensions><speed>1.044699</speed><course>311.753571</course><hAcc>0.866048</hAcc><vAcc>0.581318</vAcc></extensions></trkpt>
      <trkpt lon="-3.153438" lat="52.981960"><ele>233.175598</ele><time>2021-09-01T09:11:24Z</time><extensions><speed>1.050179</speed><course>314.039551</course><hAcc>0.864512</hAcc><vAcc>0.587098</vAcc></extensions></trkpt>
      <trkpt lon="-3.153450" lat="52.981967"><ele>233.026413</ele><time>2021-09-01T09:11:25Z</time><extensions><speed>1.056304</speed><course>316.125336</course><hAcc>0.863046</hAcc><vAcc>0.593078</vAcc></extensions></trkpt>
      <trkpt lon="-3.153461" lat="52.981973"><ele>232.888123</ele><time>2021-09-01T09:11:26Z</time><extensions><speed>1.063700</speed><course>313.054962</course><hAcc>0.861785</hAcc><vAcc>0.598587</vAcc></extensions></trkpt>
      <trkpt lon="-3.153472" lat="52.981980"><ele>232.760849</ele><time>2021-09-01T09:11:27Z</time><extensions><speed>1.072884</speed><course>309.718231</course><hAcc>0.860763</hAcc><vAcc>0.603004</vAcc></extensions></trkpt>
      <trkpt lon="-3.153484" lat="52.981987"><ele>232.644318</ele><time>2021-09-01T09:11:28Z</time><extensions><speed>1.083939</speed><course>315.993652</course><hAcc>0.859954</hAcc><vAcc>0.605863</vAcc></extensions></trkpt>
      <trkpt lon="-3.153495" lat="52.981994"><ele>232.537476</ele><time>2021-09-01T09:11:29Z</time><extensions><speed>1.096806</speed><course>314.639465</course><hAcc>0.859318</hAcc><vAcc>0.606921</vAcc></extensions></trkpt>
      <trkpt lon="-3.153505" lat="52.982001"><ele>232.438980</ele><time>2021-09-01T09:11:30Z</time><extensions><speed>1.111897</speed><course>314.699524</course><hAcc>0.858829</hAcc><vAcc>0.606201</vAcc></extensions></trkpt>
      <trkpt lon="-3.153516" lat="52.982009"><ele>232.347824</ele><time>2021-09-01T09:11:31Z</time><extensions><speed>1.129597</speed><course>315.537170</course><hAcc>0.858497</hAcc><vAcc>0.603991</vAcc></extensions></trkpt>
      <trkpt lon="-3.153527" lat="52.982017"><ele>232.263336</ele><time>2021-09-01T09:11:32Z</time><extensions><speed>1.149747</speed><course>315.384186</course><hAcc>0.858347</hAcc><vAcc>0.600778</vAcc></extensions></trkpt>
      <trkpt lon="-3.153538" lat="52.982025"><ele>232.185410</ele><time>2021-09-01T09:11:33Z</time><extensions><speed>1.171975</speed><course>316.068207</course><hAcc>0.858399</hAcc><vAcc>0.597167</vAcc></extensions></trkpt>
      <trkpt lon="-3.153548" lat="52.982034"><ele>232.114883</ele><time>2021-09-01T09:11:34Z</time><extensions><speed>1.195669</speed><course>319.526184</course><hAcc>0.858637</hAcc><vAcc>0.593786</vAcc></extensions></trkpt>
      <trkpt lon="-3.153559" lat="52.982042"><ele>232.051971</ele><time>2021-09-01T09:11:35Z</time><extensions><speed>1.220290</speed><course>322.032959</course><hAcc>0.859012</hAcc><vAcc>0.591212</vAcc></extensions></trkpt>
      <trkpt lon="-3.153570" lat="52.982051"><ele>231.995544</ele><time>2021-09-01T09:11:36Z</time><extensions><speed>1.245385</speed><course>326.209290</course><hAcc>0.859464</hAcc><vAcc>0.589931</vAcc></extensions></trkpt>
      <trkpt lon="-3.153582" lat="52.982060"><ele>231.944336</ele><time>2021-09-01T09:11:37Z</time><extensions><speed>1.270297</speed><course>324.142303</course><hAcc>0.859948</hAcc><vAcc>0.590333</vAcc></extensions></trkpt>
      <trkpt lon="-3.153593" lat="52.982069"><ele>231.897995</ele><time>2021-09-01T09:11:38Z</time><extensions><speed>1.293657</speed><course>332.193542</course><hAcc>0.860455</hAcc><vAcc>0.592695</vAcc></extensions></trkpt>
      <trkpt lon="-3.153605" lat="52.982079"><ele>231.856567</ele><time>2021-09-01T09:11:39Z</time><extensions><speed>1.313973</speed><course>329.558014</course><hAcc>0.861024</hAcc><vAcc>0.597154</vAcc></extensions></trkpt>
      <trkpt lon="-3.153616" lat="52.982088"><ele>231.819595</ele><time>2021-09-01T09:11:40Z</time><extensions><speed>1.330183</speed><course>323.309692</course><hAcc>0.861736</hAcc><vAcc>0.603658</vAcc></extensions></trkpt>
      <trkpt lon="-3.153628" lat="52.982098"><ele>231.786606</ele><time>2021-09-01T09:11:41Z</time><extensions><speed>1.340950</speed><course>319.992767</course><hAcc>0.862685</hAcc><vAcc>0.611919</vAcc></extensions></trkpt>
      <trkpt lon="-3.153641" lat="52.982107"><ele>231.757507</ele><time>2021-09-01T09:11:42Z</time><extensions><speed>1.344943</speed><course>322.539886</course><hAcc>0.863937</hAcc><vAcc>0.621395</vAcc></extensions></trkpt>
      <trkpt lon="-3.153653" lat="52.982117"><ele>231.732147</ele><time>2021-09-01T09:11:43Z</time><extensions><speed>1.342565</speed><course>317.532928</course><hAcc>0.865481</hAcc><vAcc>0.631394</vAcc></extensions></trkpt>
      <trkpt lon="-3.153666" lat="52.982126"><ele>231.710007</ele><time>2021-09-01T09:11:44Z</time><extensions><speed>1.335851</speed><course>314.725220</course><hAcc>0.867244</hAcc><vAcc>0.641275</vAcc></extensions></trkpt>
      <trkpt lon="-3.153678" lat="52.982136"><ele>231.690384</ele><time>2021-09-01T09:11:45Z</time><extensions><speed>1.326731</speed><course>325.463684</course><hAcc>0.869134</hAcc><vAcc>0.650561</vAcc></extensions></trkpt>
      <trkpt lon="-3.153691" lat="52.982145"><ele>231.672577</ele><time>2021-09-01T09:11:46Z</time><extensions><speed>1.316446</speed><course>326.490570</course><hAcc>0.871053</hAcc><vAcc>0.658959</vAcc></extensions></trkpt>
      <trkpt lon="-3.153703" lat="52.982154"><ele>231.655746</ele><time>2021-09-01T09:11:47Z</time><extensions><speed>1.304975</speed><course>316.111328</course><hAcc>0.872915</hAcc><vAcc>0.666323</vAcc></extensions></trkpt>
      <trkpt lon="-3.153716" lat="52.982162"><ele>231.638748</ele><time>2021-09-01T09:11:48Z</time><extensions><speed>1.291769</speed><course>316.470520</course><hAcc>0.874653</hAcc><vAcc>0.672621</vAcc></extensions></trkpt>
      <trkpt lon="-3.153729" lat="52.982171"><ele>231.620667</ele><time>2021-09-01T09:11:49Z</time><extensions><speed>1.276606</speed><course>317.921600</course><hAcc>0.876220</hAcc><vAcc>0.677903</vAcc></extensions></trkpt>
      <trkpt lon="-3.153742" lat="52.982179"><ele>231.600769</ele><time>2021-09-01T09:11:50Z</time><extensions><speed>1.259848</speed><course>317.925903</course><hAcc>0.877592</hAcc><vAcc>0.682268</vAcc></extensions></trkpt>
      <trkpt lon="-3.153756" lat="52.982187"><ele>231.577942</ele><time>2021-09-01T09:11:50Z</time><extensions><speed>1.241991</speed><course>316.840515</course><hAcc>0.878780</hAcc><vAcc>0.685842</vAcc></extensions></trkpt>
      <trkpt lon="-3.153769" lat="52.982195"><ele>231.550583</ele><time>2021-09-01T09:11:51Z</time><extensions><speed>1.223517</speed><course>321.987762</course><hAcc>0.879793</hAcc><vAcc>0.688751</vAcc></extensions></trkpt>
      <trkpt lon="-3.153782" lat="52.982202"><ele>231.517410</ele><time>2021-09-01T09:11:52Z</time><extensions><speed>1.205369</speed><course>314.291290</course><hAcc>0.880626</hAcc><vAcc>0.691088</vAcc></extensions></trkpt>
      <trkpt lon="-3.153795" lat="52.982209"><ele>231.477798</ele><time>2021-09-01T09:11:53Z</time><extensions><speed>1.188403</speed><course>311.665222</course><hAcc>0.881303</hAcc><vAcc>0.692954</vAcc></extensions></trkpt>
      <trkpt lon="-3.153809" lat="52.982216"><ele>231.431534</ele><time>2021-09-01T09:11:55Z</time><extensions><speed>1.173101</speed><course>315.645782</course><hAcc>0.881828</hAcc><vAcc>0.694422</vAcc></extensions></trkpt>
      <trkpt lon="-3.153822" lat="52.982223"><ele>231.378494</ele><time>2021-09-01T09:11:56Z</time><extensions><speed>1.159612</speed><course>312.390594</course><hAcc>0.882223</hAcc><vAcc>0.695561</vAcc></extensions></trkpt>
      <trkpt lon="-3.153835" lat="52.982229"><ele>231.318207</ele><time>2021-09-01T09:11:57Z</time><extensions><speed>1.148191</speed><course>315.968140</course><hAcc>0.882526</hAcc><vAcc>0.696441</vAcc></extensions></trkpt>
      <trkpt lon="-3.153849" lat="52.982236"><ele>231.250381</ele><time>2021-09-01T09:11:58Z</time><extensions><speed>1.139180</speed><course>305.843231</course><hAcc>0.882753</hAcc><vAcc>0.697106</vAcc></extensions></trkpt>
      <trkpt lon="-3.153862" lat="52.982242"><ele>231.175034</ele><time>2021-09-01T09:11:59Z</time><extensions><speed>1.132348</speed><course>307.428955</course><hAcc>0.882920</hAcc><vAcc>0.697593</vAcc></extensions></trkpt>
      <trkpt lon="-3.153876" lat="52.982248"><ele>231.092331</ele><time>2021-09-01T09:12:00Z</time><extensions><speed>1.127324</speed><course>303.591888</course><hAcc>0.883039</hAcc><vAcc>0.697932</vAcc></extensions></trkpt>
      <trkpt lon="-3.153889" lat="52.982254"><ele>231.002563</ele><time>2021-09-01T09:12:01Z</time><extensions><speed>1.124126</speed><course>302.311584</course><hAcc>0.883119</hAcc><vAcc>0.698148</vAcc></extensions></trkpt>
      <trkpt lon="-3.153903" lat="52.982260"><ele>230.906403</ele><time>2021-09-01T09:12:02Z</time><extensions><speed>1.123132</speed><course>296.010498</course><hAcc>0.883169</hAcc><vAcc>0.698266</vAcc></extensions></trkpt>
      <trkpt lon="-3.153916" lat="52.982266"><ele>230.804504</ele><time>2021-09-01T09:12:03Z</time><extensions><speed>1.124614</speed><course>298.597748</course><hAcc>0.883198</hAcc><vAcc>0.698308</vAcc></extensions></trkpt>
      <trkpt lon="-3.153930" lat="52.982272"><ele>230.697281</ele><time>2021-09-01T09:12:04Z</time><extensions><speed>1.128634</speed><course>307.419373</course><hAcc>0.883211</hAcc><vAcc>0.698301</vAcc></extensions></trkpt>
      <trkpt lon="-3.153943" lat="52.982278"><ele>230.584900</ele><time>2021-09-01T09:12:05Z</time><extensions><speed>1.135290</speed><course>311.127045</course><hAcc>0.883214</hAcc><vAcc>0.698267</vAcc></extensions></trkpt>
      <trkpt lon="-3.153957" lat="52.982284"><ele>230.467850</ele><time>2021-09-01T09:12:06Z</time><extensions><speed>1.144693</speed><course>308.779785</course><hAcc>0.883212</hAcc><vAcc>0.698226</vAcc></extensions></trkpt>
      <trkpt lon="-3.153971" lat="52.982290"><ele>230.347137</ele><time>2021-09-01T09:12:07Z</time><extensions><speed>1.156699</speed><course>310.817932</course><hAcc>0.883209</hAcc><vAcc>0.698193</vAcc></extensions></trkpt>
      <trkpt lon="-3.153985" lat="52.982296"><ele>230.223923</ele><time>2021-09-01T09:12:08Z</time><extensions><speed>1.170465</speed><course>313.903961</course><hAcc>0.883207</hAcc><vAcc>0.698175</vAcc></extensions></trkpt>
      <trkpt lon="-3.153999" lat="52.982303"><ele>230.099396</ele><time>2021-09-01T09:12:09Z</time><extensions><speed>1.185138</speed><course>312.113068</course><hAcc>0.883209</hAcc><vAcc>0.698178</vAcc></extensions></trkpt>
      <trkpt lon="-3.154013" lat="52.982309"><ele>229.974762</ele><time>2021-09-01T09:12:10Z</time><extensions><speed>1.200280</speed><course>298.693726</course><hAcc>0.883215</hAcc><vAcc>0.698201</vAcc></extensions></trkpt>
      <trkpt lon="-3.154027" lat="52.982316"><ele>229.850723</ele><time>2021-09-01T09:12:11Z</time><extensions><speed>1.215505</speed><course>304.126526</course><hAcc>0.883225</hAcc><vAcc>0.698241</vAcc></extensions></trkpt>
      <trkpt lon="-3.154042" lat="52.982322"><ele>229.727325</ele><time>2021-09-01T09:12:12Z</time><extensions><speed>1.230649</speed><course>307.202972</course><hAcc>0.883241</hAcc><vAcc>0.698294</vAcc></extensions></trkpt>
      <trkpt lon="-3.154057" lat="52.982329"><ele>229.604431</ele><time>2021-09-01T09:12:13Z</time><extensions><speed>1.245639</speed><course>306.849365</course><hAcc>0.883260</hAcc><vAcc>0.698357</vAcc></extensions></trkpt>
      <trkpt lon="-3.154072" lat="52.982336"><ele>229.481964</ele><time>2021-09-01T09:12:14Z</time><extensions><speed>1.260363</speed><course>311.228149</course><hAcc>0.883283</hAcc><vAcc>0.698430</vAcc></extensions></trkpt>
      <trkpt lon="-3.154087" lat="52.982343"><ele>229.359680</ele><time>2021-09-01T09:12:15Z</time><extensions><speed>1.274833</speed><course>314.984741</course><hAcc>0.883309</hAcc><vAcc>0.698515</vAcc></extensions></trkpt>
      <trkpt lon="-3.154102" lat="52.982350"><ele>229.237396</ele><time>2021-09-01T09:12:16Z</time><extensions><speed>1.288926</speed><course>312.149628</course><hAcc>0.883337</hAcc><vAcc>0.698608</vAcc></extensions></trkpt>
      <trkpt lon="-3.154117" lat="52.982357"><ele>229.115479</ele><time>2021-09-01T09:12:17Z</time><extensions><speed>1.302254</speed><course>303.811646</course><hAcc>0.883365</hAcc><vAcc>0.698703</vAcc></extensions></trkpt>
      <trkpt lon="-3.154132" lat="52.982364"><ele>228.994995</ele><time>2021-09-01T09:12:18Z</time><extensions><speed>1.314360</speed><course>306.939087</course><hAcc>0.883391</hAcc><vAcc>0.698793</vAcc></extensions></trkpt>
      <trkpt lon="-3.154148" lat="52.982371"><ele>228.877319</ele><time>2021-09-01T09:12:19Z</time><extensions><speed>1.324861</speed><course>305.149933</course><hAcc>0.883415</hAcc><vAcc>0.698876</vAcc></extensions></trkpt>
      <trkpt lon="-3.154163" lat="52.982379"><ele>228.763504</ele><time>2021-09-01T09:12:20Z</time><extensions><speed>1.333425</speed><course>307.460999</course><hAcc>0.883434</hAcc><vAcc>0.698948</vAcc></extensions></trkpt>
      <trkpt lon="-3.154179" lat="52.982386"><ele>228.654037</ele><time>2021-09-01T09:12:21Z</time><extensions><speed>1.339883</speed><course>310.556549</course><hAcc>0.883444</hAcc><vAcc>0.699003</vAcc></extensions></trkpt>
      <trkpt lon="-3.154194" lat="52.982394"><ele>228.549301</ele><time>2021-09-01T09:12:22Z</time><extensions><speed>1.344574</speed><course>316.643463</course><hAcc>0.883445</hAcc><vAcc>0.699032</vAcc></extensions></trkpt>
      <trkpt lon="-3.154210" lat="52.982401"><ele>228.449951</ele><time>2021-09-01T09:12:23Z</time><extensions><speed>1.347669</speed><course>310.111420</course><hAcc>0.883432</hAcc><vAcc>0.699025</vAcc></extensions></trkpt>
      <trkpt lon="-3.154225" lat="52.982409"><ele>228.356491</ele><time>2021-09-01T09:12:24Z</time><extensions><speed>1.349202</speed><course>309.394775</course><hAcc>0.883403</hAcc><vAcc>0.698973</vAcc></extensions></trkpt>
      <trkpt lon="-3.154240" lat="52.982417"><ele>228.268890</ele><time>2021-09-01T09:12:25Z</time><extensions><speed>1.349455</speed><course>312.734375</course><hAcc>0.883356</hAcc><vAcc>0.698866</vAcc></extensions></trkpt>
      <trkpt lon="-3.154256" lat="52.982425"><ele>228.186844</ele><time>2021-09-01T09:12:26Z</time><extensions><speed>1.348705</speed><course>307.110260</course><hAcc>0.883289</hAcc><vAcc>0.698689</vAcc></extensions></trkpt>
      <trkpt lon="-3.154271" lat="52.982433"><ele>228.110138</ele><time>2021-09-01T09:12:27Z</time><extensions><speed>1.347459</speed><course>304.794312</course><hAcc>0.883202</hAcc><vAcc>0.698431</vAcc></extensions></trkpt>
      <trkpt lon="-3.154286" lat="52.982441"><ele>228.039078</ele><time>2021-09-01T09:12:28Z</time><extensions><speed>1.346095</speed><course>309.669006</course><hAcc>0.883096</hAcc><vAcc>0.698087</vAcc></extensions></trkpt>
      <trkpt lon="-3.154301" lat="52.982449"><ele>227.974014</ele><time>2021-09-01T09:12:29Z</time><extensions><speed>1.344640</speed><course>309.747101</course><hAcc>0.882973</hAcc><vAcc>0.697659</vAcc></extensions></trkpt>
      <trkpt lon="-3.154315" lat="52.982457"><ele>227.914810</ele><time>2021-09-01T09:12:30Z</time><extensions><speed>1.343193</speed><course>308.451904</course><hAcc>0.882840</hAcc><vAcc>0.697165</vAcc></extensions></trkpt>
      <trkpt lon="-3.154330" lat="52.982465"><ele>227.860779</ele><time>2021-09-01T09:12:31Z</time><extensions><speed>1.341962</speed><course>313.674774</course><hAcc>0.882701</hAcc><vAcc>0.696636</vAcc></extensions></trkpt>
      <trkpt lon="-3.154345" lat="52.982474"><ele>227.810913</ele><time>2021-09-01T09:12:32Z</time><extensions><speed>1.340882</speed><course>310.174561</course><hAcc>0.882565</hAcc><vAcc>0.696112</vAcc></extensions></trkpt>
      <trkpt lon="-3.154359" lat="52.982482"><ele>227.764603</ele><time>2021-09-01T09:12:33Z</time><extensions><speed>1.339617</speed><course>312.894348</course><hAcc>0.882439</hAcc><vAcc>0.695633</vAcc></extensions></trkpt>
      <trkpt lon="-3.154374" lat="52.982490"><ele>227.721848</ele><time>2021-09-01T09:12:34Z</time><extensions><speed>1.337565</speed><course>309.740997</course><hAcc>0.882329</hAcc><vAcc>0.695234</vAcc></extensions></trkpt>
      <trkpt lon="-3.154388" lat="52.982499"><ele>227.682556</ele><time>2021-09-01T09:12:35Z</time><extensions><speed>1.334317</speed><course>309.271240</course><hAcc>0.882241</hAcc><vAcc>0.694931</vAcc></extensions></trkpt>
      <trkpt lon="-3.154402" lat="52.982507"><ele>227.646332</ele><time>2021-09-01T09:12:36Z</time><extensions><speed>1.330215</speed><course>309.840485</course><hAcc>0.882175</hAcc><vAcc>0.694730</vAcc></extensions></trkpt>
      <trkpt lon="-3.154416" lat="52.982515"><ele>227.612778</ele><time>2021-09-01T09:12:37Z</time><extensions><speed>1.325857</speed><course>308.054108</course><hAcc>0.882133</hAcc><vAcc>0.694624</vAcc></extensions></trkpt>
      <trkpt lon="-3.154430" lat="52.982524"><ele>227.581696</ele><time>2021-09-01T09:12:38Z</time><extensions><speed>1.321580</speed><course>306.226685</course><hAcc>0.882112</hAcc><vAcc>0.694603</vAcc></extensions></trkpt>
      <trkpt lon="-3.154444" lat="52.982532"><ele>227.553177</ele><time>2021-09-01T09:12:39Z</time><extensions><speed>1.317099</speed><course>316.211884</course><hAcc>0.882110</hAcc><vAcc>0.694650</vAcc></extensions></trkpt>
      <trkpt lon="-3.154458" lat="52.982541"><ele>227.527191</ele><time>2021-09-01T09:12:40Z</time><extensions><speed>1.312191</speed><course>312.798523</course><hAcc>0.882120</hAcc><vAcc>0.694741</vAcc></extensions></trkpt>
      <trkpt lon="-3.154471" lat="52.982549"><ele>227.503296</ele><time>2021-09-01T09:12:41Z</time><extensions><speed>1.307398</speed><course>314.823364</course><hAcc>0.882138</hAcc><vAcc>0.694852</vAcc></extensions></trkpt>
      <trkpt lon="-3.154485" lat="52.982557"><ele>227.480438</ele><time>2021-09-01T09:12:42Z</time><extensions><speed>1.303439</speed><course>317.560303</course><hAcc>0.882159</hAcc><vAcc>0.694962</vAcc></extensions></trkpt>
      <trkpt lon="-3.154499" lat="52.982566"><ele>227.457306</ele><time>2021-09-01T09:12:43Z</time><extensions><speed>1.300652</speed><course>313.870911</course><hAcc>0.882176</hAcc><vAcc>0.695056</vAcc></extensions></trkpt>
      <trkpt lon="-3.154512" lat="52.982574"><ele>227.432724</ele><time>2021-09-01T09:12:44Z</time><extensions><speed>1.299366</speed><course>320.858917</course><hAcc>0.882185</hAcc><vAcc>0.695119</vAcc></extensions></trkpt>
      <trkpt lon="-3.154526" lat="52.982582"><ele>227.405685</ele><time>2021-09-01T09:12:45Z</time><extensions><speed>1.299795</speed><course>322.110107</course><hAcc>0.882182</hAcc><vAcc>0.695132</vAcc></extensions></trkpt>
      <trkpt lon="-3.154540" lat="52.982590"><ele>227.375397</ele><time>2021-09-01T09:12:46Z</time><extensions><speed>1.301680</speed><course>322.258118</course><hAcc>0.882164</hAcc><vAcc>0.695081</vAcc></extensions></trkpt>
      <trkpt lon="-3.154554" lat="52.982599"><ele>227.341583</ele><time>2021-09-01T09:12:47Z</time><extensions><speed>1.304489</speed><course>323.751770</course><hAcc>0.882127</hAcc><vAcc>0.694958</vAcc></extensions></trkpt>
      <trkpt lon="-3.154568" lat="52.982607"><ele>227.304321</ele><time>2021-09-01T09:12:48Z</time><extensions><speed>1.307470</speed><course>311.017761</course><hAcc>0.882071</hAcc><vAcc>0.694767</vAcc></extensions></trkpt>
      <trkpt lon="-3.154582" lat="52.982615"><ele>227.263474</ele><time>2021-09-01T09:12:49Z</time><extensions><speed>1.309925</speed><course>303.134949</course><hAcc>0.881995</hAcc><vAcc>0.694514</vAcc></extensions></trkpt>
      <trkpt lon="-3.154596" lat="52.982623"><ele>227.218582</ele><time>2021-09-01T09:12:50Z</time><extensions><speed>1.311646</speed><course>305.266266</course><hAcc>0.881901</hAcc><vAcc>0.694207</vAcc></extensions></trkpt>
      <trkpt lon="-3.154611" lat="52.982631"><ele>227.169449</ele><time>2021-09-01T09:12:51Z</time><extensions><speed>1.312763</speed><course>306.244568</course><hAcc>0.881786</hAcc><vAcc>0.693851</vAcc></extensions></trkpt>
      <trkpt lon="-3.154625" lat="52.982639"><ele>227.116333</ele><time>2021-09-01T09:12:52Z</time><extensions><speed>1.313464</speed><course>311.028961</course><hAcc>0.881653</hAcc><vAcc>0.693444</vAcc></extensions></trkpt>
      <trkpt lon="-3.154640" lat="52.982647"><ele>227.059631</ele><time>2021-09-01T09:12:53Z</time><extensions><speed>1.314259</speed><course>304.990997</course><hAcc>0.881500</hAcc><vAcc>0.692979</vAcc></extensions></trkpt>
      <trkpt lon="-3.154654" lat="52.982655"><ele>227.000015</ele><time>2021-09-01T09:12:54Z</time><extensions><speed>1.315219</speed><course>305.619354</course><hAcc>0.881328</hAcc><vAcc>0.692449</vAcc></extensions></trkpt>
      <trkpt lon="-3.154669" lat="52.982662"><ele>226.938156</ele><time>2021-09-01T09:12:55Z</time><extensions><speed>1.315774</speed><course>319.038269</course><hAcc>0.881138</hAcc><vAcc>0.691847</vAcc></extensions></trkpt>
      <trkpt lon="-3.154683" lat="52.982670"><ele>226.874664</ele><time>2021-09-01T09:12:56Z</time><extensions><speed>1.315551</speed><course>314.772644</course><hAcc>0.880931</hAcc><vAcc>0.691175</vAcc></extensions></trkpt>
      <trkpt lon="-3.154697" lat="52.982678"><ele>226.810196</ele><time>2021-09-01T09:12:57Z</time><extensions><speed>1.314768</speed><course>314.865356</course><hAcc>0.880711</hAcc><vAcc>0.690449</vAcc></extensions></trkpt>
      <trkpt lon="-3.154712" lat="52.982686"><ele>226.745468</ele><time>2021-09-01T09:12:58Z</time><extensions><speed>1.313872</speed><course>315.584076</course><hAcc>0.880482</hAcc><vAcc>0.689693</vAcc></extensions></trkpt>
      <trkpt lon="-3.154726" lat="52.982695"><ele>226.680847</ele><time>2021-09-01T09:12:59Z</time><extensions><speed>1.312915</speed><course>318.301117</course><hAcc>0.880248</hAcc><vAcc>0.688925</vAcc></extensions></trkpt>
      <trkpt lon="-3.154740" lat="52.982703"><ele>226.616287</ele><time>2021-09-01T09:13:00Z</time><extensions><speed>1.311269</speed><course>308.957520</course><hAcc>0.880013</hAcc><vAcc>0.688159</vAcc></extensions></trkpt>
      <trkpt lon="-3.154755" lat="52.982711"><ele>226.551498</ele><time>2021-09-01T09:13:01Z</time><extensions><speed>1.308780</speed><course>309.679749</course><hAcc>0.879782</hAcc><vAcc>0.687406</vAcc></extensions></trkpt>
      <trkpt lon="-3.154769" lat="52.982719"><ele>226.486374</ele><time>2021-09-01T09:13:02Z</time><extensions><speed>1.306396</speed><course>315.508118</course><hAcc>0.879558</hAcc><vAcc>0.686676</vAcc></extensions></trkpt>
      <trkpt lon="-3.154783" lat="52.982727"><ele>226.421127</ele><time>2021-09-01T09:13:03Z</time><extensions><speed>1.304783</speed><course>315.740204</course><hAcc>0.879347</hAcc><vAcc>0.685984</vAcc></extensions></trkpt>
      <trkpt lon="-3.154797" lat="52.982735"><ele>226.356277</ele><time>2021-09-01T09:13:04Z</time><extensions><speed>1.304110</speed><course>310.654785</course><hAcc>0.879153</hAcc><vAcc>0.685343</vAcc></extensions></trkpt>
      <trkpt lon="-3.154811" lat="52.982743"><ele>226.292130</ele><time>2021-09-01T09:13:05Z</time><extensions><speed>1.304627</speed><course>314.784058</course><hAcc>0.878982</hAcc><vAcc>0.684771</vAcc></extensions></trkpt>
      <trkpt lon="-3.154825" lat="52.982751"><ele>226.228668</ele><time>2021-09-01T09:13:06Z</time><extensions><speed>1.306701</speed><course>306.836517</course><hAcc>0.878839</hAcc><vAcc>0.684287</vAcc></extensions></trkpt>
      <trkpt lon="-3.154839" lat="52.982759"><ele>226.165771</ele><time>2021-09-01T09:13:07Z</time><extensions><speed>1.309937</speed><course>319.014709</course><hAcc>0.878730</hAcc><vAcc>0.683908</vAcc></extensions></trkpt>
      <trkpt lon="-3.154853" lat="52.982768"><ele>226.103561</ele><time>2021-09-01T09:13:08Z</time><extensions><speed>1.313810</speed><course>316.668060</course><hAcc>0.878657</hAcc><vAcc>0.683650</vAcc></extensions></trkpt>
      <trkpt lon="-3.154867" lat="52.982776"><ele>226.042511</ele><time>2021-09-01T09:13:09Z</time><extensions><speed>1.318319</speed><course>317.381256</course><hAcc>0.878624</hAcc><vAcc>0.683526</vAcc></extensions></trkpt>
      <trkpt lon="-3.154881" lat="52.982784"><ele>225.982986</ele><time>2021-09-01T09:13:10Z</time><extensions><speed>1.323307</speed><course>315.522644</course><hAcc>0.878634</hAcc><vAcc>0.683546</vAcc></extensions></trkpt>
      <trkpt lon="-3.154896" lat="52.982792"><ele>225.924622</ele><time>2021-09-01T09:13:11Z</time><extensions><speed>1.328692</speed><course>313.748596</course><hAcc>0.878687</hAcc><vAcc>0.683720</vAcc></extensions></trkpt>
      <trkpt lon="-3.154910" lat="52.982800"><ele>225.866302</ele><time>2021-09-01T09:13:12Z</time><extensions><speed>1.334367</speed><course>311.298676</course><hAcc>0.878779</hAcc><vAcc>0.684041</vAcc></extensions></trkpt>
      <trkpt lon="-3.154925" lat="52.982808"><ele>225.806473</ele><time>2021-09-01T09:13:13Z</time><extensions><speed>1.340227</speed><course>307.453308</course><hAcc>0.878907</hAcc><vAcc>0.684495</vAcc></extensions></trkpt>
      <trkpt lon="-3.154940" lat="52.982816"><ele>225.743561</ele><time>2021-09-01T09:13:14Z</time><extensions><speed>1.345823</speed><course>308.937561</course><hAcc>0.879061</hAcc><vAcc>0.685052</vAcc></extensions></trkpt>
      <trkpt lon="-3.154955" lat="52.982824"><ele>225.676682</ele><time>2021-09-01T09:13:15Z</time><extensions><speed>1.350807</speed><course>304.505646</course><hAcc>0.879233</hAcc><vAcc>0.685674</vAcc></extensions></trkpt>
      <trkpt lon="-3.154970" lat="52.982833"><ele>225.605515</ele><time>2021-09-01T09:13:16Z</time><extensions><speed>1.355002</speed><course>299.094574</course><hAcc>0.879410</hAcc><vAcc>0.686320</vAcc></extensions></trkpt>
      <trkpt lon="-3.154984" lat="52.982841"><ele>225.529984</ele><time>2021-09-01T09:13:17Z</time><extensions><speed>1.358163</speed><course>310.704071</course><hAcc>0.879579</hAcc><vAcc>0.686945</vAcc></extensions></trkpt>
      <trkpt lon="-3.154999" lat="52.982849"><ele>225.450119</ele><time>2021-09-01T09:13:18Z</time><extensions><speed>1.360417</speed><course>308.713898</course><hAcc>0.879730</hAcc><vAcc>0.687506</vAcc></extensions></trkpt>
      <trkpt lon="-3.155014" lat="52.982857"><ele>225.365860</ele><time>2021-09-01T09:13:19Z</time><extensions><speed>1.362007</speed><course>315.990417</course><hAcc>0.879849</hAcc><vAcc>0.687966</vAcc></extensions></trkpt>
      <trkpt lon="-3.155029" lat="52.982866"><ele>225.277390</ele><time>2021-09-01T09:13:20Z</time><extensions><speed>1.363331</speed><course>316.941956</course><hAcc>0.879927</hAcc><vAcc>0.688289</vAcc></extensions></trkpt>
      <trkpt lon="-3.155043" lat="52.982874"><ele>225.185501</ele><time>2021-09-01T09:13:21Z</time><extensions><speed>1.364599</speed><course>326.025696</course><hAcc>0.879954</hAcc><vAcc>0.688441</vAcc></extensions></trkpt>
      <trkpt lon="-3.155058" lat="52.982883"><ele>225.091370</ele><time>2021-09-01T09:13:22Z</time><extensions><speed>1.365836</speed><course>316.997101</course><hAcc>0.879923</hAcc><vAcc>0.688389</vAcc></extensions></trkpt>
      <trkpt lon="-3.155072" lat="52.982892"><ele>224.995972</ele><time>2021-09-01T09:13:23Z</time><extensions><speed>1.367410</speed><course>307.396637</course><hAcc>0.879832</hAcc><vAcc>0.688112</vAcc></extensions></trkpt>
      <trkpt lon="-3.155087" lat="52.982900"><ele>224.899719</ele><time>2021-09-01T09:13:24Z</time><extensions><speed>1.369415</speed><course>307.245117</course><hAcc>0.879678</hAcc><vAcc>0.687607</vAcc></extensions></trkpt>
      <trkpt lon="-3.155101" lat="52.982909"><ele>224.802597</ele><time>2021-09-01T09:13:25Z</time><extensions><speed>1.371557</speed><course>302.943970</course><hAcc>0.879466</hAcc><vAcc>0.686887</vAcc></extensions></trkpt>
      <trkpt lon="-3.155115" lat="52.982918"><ele>224.704224</ele><time>2021-09-01T09:13:26Z</time><extensions><speed>1.373789</speed><course>310.986115</course><hAcc>0.879201</hAcc><vAcc>0.685980</vAcc></extensions></trkpt>
      <trkpt lon="-3.155129" lat="52.982927"><ele>224.604218</ele><time>2021-09-01T09:13:27Z</time><extensions><speed>1.376260</speed><course>317.229156</course><hAcc>0.878893</hAcc><vAcc>0.684923</vAcc></extensions></trkpt>
      <trkpt lon="-3.155142" lat="52.982937"><ele>224.502640</ele><time>2021-09-01T09:13:28Z</time><extensions><speed>1.379264</speed><course>310.287506</course><hAcc>0.878552</hAcc><vAcc>0.683762</vAcc></extensions></trkpt>
      <trkpt lon="-3.155156" lat="52.982946"><ele>224.400314</ele><time>2021-09-01T09:13:29Z</time><extensions><speed>1.382856</speed><course>314.657898</course><hAcc>0.878190</hAcc><vAcc>0.682540</vAcc></extensions></trkpt>
      <trkpt lon="-3.155170" lat="52.982955"><ele>224.298523</ele><time>2021-09-01T09:13:30Z</time><extensions><speed>1.386669</speed><course>316.163879</course><hAcc>0.877817</hAcc><vAcc>0.681295</vAcc></extensions></trkpt>
      <trkpt lon="-3.155183" lat="52.982965"><ele>224.198608</ele><time>2021-09-01T09:13:31Z</time><extensions><speed>1.390314</speed><course>315.280670</course><hAcc>0.877444</hAcc><vAcc>0.680063</vAcc></extensions></trkpt>
      <trkpt lon="-3.155196" lat="52.982974"><ele>224.101685</ele><time>2021-09-01T09:13:32Z</time><extensions><speed>1.393650</speed><course>323.358459</course><hAcc>0.877080</hAcc><vAcc>0.678875</vAcc></extensions></trkpt>
      <trkpt lon="-3.155210" lat="52.982984"><ele>224.008575</ele><time>2021-09-01T09:13:33Z</time><extensions><speed>1.396668</speed><course>323.478973</course><hAcc>0.876731</hAcc><vAcc>0.677755</vAcc></extensions></trkpt>
      <trkpt lon="-3.155223" lat="52.982994"><ele>223.919922</ele><time>2021-09-01T09:13:34Z</time><extensions><speed>1.399637</speed><course>327.884216</course><hAcc>0.876403</hAcc><vAcc>0.676718</vAcc></extensions></trkpt>
      <trkpt lon="-3.155236" lat="52.983003"><ele>223.836502</ele><time>2021-09-01T09:13:35Z</time><extensions><speed>1.403195</speed><course>318.187775</course><hAcc>0.876098</hAcc><vAcc>0.675766</vAcc></extensions></trkpt>
      <trkpt lon="-3.155250" lat="52.983013"><ele>223.759613</ele><time>2021-09-01T09:13:36Z</time><extensions><speed>1.407567</speed><course>318.936035</course><hAcc>0.875814</hAcc><vAcc>0.674893</vAcc></extensions></trkpt>
      <trkpt lon="-3.155263" lat="52.983023"><ele>223.691025</ele><time>2021-09-01T09:13:37Z</time><extensions><speed>1.412274</speed><course>326.780121</course><hAcc>0.875551</hAcc><vAcc>0.674086</vAcc></extensions></trkpt>
      <trkpt lon="-3.155276" lat="52.983033"><ele>223.632278</ele><time>2021-09-01T09:13:38Z</time><extensions><speed>1.416860</speed><course>314.218445</course><hAcc>0.875308</hAcc><vAcc>0.673335</vAcc></extensions></trkpt>
      <trkpt lon="-3.155289" lat="52.983043"><ele>223.584229</ele><time>2021-09-01T09:13:39Z</time><extensions><speed>1.420200</speed><course>317.554047</course><hAcc>0.875082</hAcc><vAcc>0.672633</vAcc></extensions></trkpt>
      <trkpt lon="-3.155303" lat="52.983053"><ele>223.547409</ele><time>2021-09-01T09:13:40Z</time><extensions><speed>1.420800</speed><course>317.225586</course><hAcc>0.874873</hAcc><vAcc>0.671978</vAcc></extensions></trkpt>
      <trkpt lon="-3.155316" lat="52.983063"><ele>223.522171</ele><time>2021-09-01T09:13:41Z</time><extensions><speed>1.418327</speed><course>318.371796</course><hAcc>0.874680</hAcc><vAcc>0.671370</vAcc></extensions></trkpt>
      <trkpt lon="-3.155328" lat="52.983073"><ele>223.508392</ele><time>2021-09-01T09:13:42Z</time><extensions><speed>1.412990</speed><course>319.534454</course><hAcc>0.874504</hAcc><vAcc>0.670814</vAcc></extensions></trkpt>
      <trkpt lon="-3.155341" lat="52.983083"><ele>223.505493</ele><time>2021-09-01T09:13:43Z</time><extensions><speed>1.405466</speed><course>319.948578</course><hAcc>0.874345</hAcc><vAcc>0.670311</vAcc></extensions></trkpt>
      <trkpt lon="-3.155353" lat="52.983093"><ele>223.512726</ele><time>2021-09-01T09:13:44Z</time><extensions><speed>1.396703</speed><course>326.867279</course><hAcc>0.874202</hAcc><vAcc>0.669861</vAcc></extensions></trkpt>
      <trkpt lon="-3.155366" lat="52.983103"><ele>223.529922</ele><time>2021-09-01T09:13:45Z</time><extensions><speed>1.387197</speed><course>319.995087</course><hAcc>0.874075</hAcc><vAcc>0.669462</vAcc></extensions></trkpt>
      <trkpt lon="-3.155377" lat="52.983113"><ele>223.557526</ele><time>2021-09-01T09:13:46Z</time><extensions><speed>1.377405</speed><course>323.754486</course><hAcc>0.873963</hAcc><vAcc>0.669117</vAcc></extensions></trkpt>
      <trkpt lon="-3.155389" lat="52.983123"><ele>223.595901</ele><time>2021-09-01T09:13:47Z</time><extensions><speed>1.367973</speed><course>327.994751</course><hAcc>0.873866</hAcc><vAcc>0.668828</vAcc></extensions></trkpt>
      <trkpt lon="-3.155401" lat="52.983134"><ele>223.644379</ele><time>2021-09-01T09:13:48Z</time><extensions><speed>1.359473</speed><course>338.740143</course><hAcc>0.873783</hAcc><vAcc>0.668591</vAcc></extensions></trkpt>
      <trkpt lon="-3.155412" lat="52.983143"><ele>223.700882</ele><time>2021-09-01T09:13:49Z</time><extensions><speed>1.352148</speed><course>336.648224</course><hAcc>0.873711</hAcc><vAcc>0.668400</vAcc></extensions></trkpt>
      <trkpt lon="-3.155424" lat="52.983153"><ele>223.762161</ele><time>2021-09-01T09:13:50Z</time><extensions><speed>1.346328</speed><course>335.818359</course><hAcc>0.873649</hAcc><vAcc>0.668244</vAcc></extensions></trkpt>
      <trkpt lon="-3.155436" lat="52.983163"><ele>223.824402</ele><time>2021-09-01T09:13:51Z</time><extensions><speed>1.342533</speed><course>332.183533</course><hAcc>0.873594</hAcc><vAcc>0.668114</vAcc></extensions></trkpt>
      <trkpt lon="-3.155448" lat="52.983173"><ele>223.883850</ele><time>2021-09-01T09:13:52Z</time><extensions><speed>1.341040</speed><course>329.123840</course><hAcc>0.873546</hAcc><vAcc>0.667995</vAcc></extensions></trkpt>
      <trkpt lon="-3.155460" lat="52.983182"><ele>223.937714</ele><time>2021-09-01T09:13:53Z</time><extensions><speed>1.341949</speed><course>331.386230</course><hAcc>0.873502</hAcc><vAcc>0.667873</vAcc></extensions></trkpt>
      <trkpt lon="-3.155472" lat="52.983192"><ele>223.984650</ele><time>2021-09-01T09:13:54Z</time><extensions><speed>1.344530</speed><course>327.161377</course><hAcc>0.873466</hAcc><vAcc>0.667745</vAcc></extensions></trkpt>
      <trkpt lon="-3.155485" lat="52.983201"><ele>224.024399</ele><time>2021-09-01T09:13:55Z</time><extensions><speed>1.347779</speed><course>327.868042</course><hAcc>0.873444</hAcc><vAcc>0.667627</vAcc></extensions></trkpt>
      <trkpt lon="-3.155498" lat="52.983210"><ele>224.056808</ele><time>2021-09-01T09:13:56Z</time><extensions><speed>1.351687</speed><course>323.627838</course><hAcc>0.873444</hAcc><vAcc>0.667553</vAcc></extensions></trkpt>
      <trkpt lon="-3.155512" lat="52.983219"><ele>224.081146</ele><time>2021-09-01T09:13:57Z</time><extensions><speed>1.356662</speed><course>324.612000</course><hAcc>0.873478</hAcc><vAcc>0.667568</vAcc></extensions></trkpt>
      <trkpt lon="-3.155526" lat="52.983228"><ele>224.096100</ele><time>2021-09-01T09:13:58Z</time><extensions><speed>1.362563</speed><course>314.250275</course><hAcc>0.873551</hAcc><vAcc>0.667711</vAcc></extensions></trkpt>
      <trkpt lon="-3.155540" lat="52.983237"><ele>224.099930</ele><time>2021-09-01T09:13:59Z</time><extensions><speed>1.368769</speed><course>324.325928</course><hAcc>0.873666</hAcc><vAcc>0.668013</vAcc></extensions></trkpt>
      <trkpt lon="-3.155554" lat="52.983246"><ele>224.091217</ele><time>2021-09-01T09:14:00Z</time><extensions><speed>1.374425</speed><course>323.620239</course><hAcc>0.873816</hAcc><vAcc>0.668489</vAcc></extensions></trkpt>
      <trkpt lon="-3.155569" lat="52.983254"><ele>224.069153</ele><time>2021-09-01T09:14:01Z</time><extensions><speed>1.379089</speed><course>318.647095</course><hAcc>0.873981</hAcc><vAcc>0.669139</vAcc></extensions></trkpt>
      <trkpt lon="-3.155584" lat="52.983263"><ele>224.033875</ele><time>2021-09-01T09:14:02Z</time><extensions><speed>1.383096</speed><course>325.356964</course><hAcc>0.874127</hAcc><vAcc>0.669942</vAcc></extensions></trkpt>
      <trkpt lon="-3.155598" lat="52.983272"><ele>223.986267</ele><time>2021-09-01T09:14:03Z</time><extensions><speed>1.386660</speed><course>319.826599</course><hAcc>0.874202</hAcc><vAcc>0.670840</vAcc></extensions></trkpt>
      <trkpt lon="-3.155613" lat="52.983280"><ele>223.927292</ele><time>2021-09-01T09:14:04Z</time><extensions><speed>1.389659</speed><course>314.735016</course><hAcc>0.874128</hAcc><vAcc>0.671731</vAcc></extensions></trkpt>
      <trkpt lon="-3.155628" lat="52.983289"><ele>223.857819</ele><time>2021-09-01T09:14:05Z</time><extensions><speed>1.391626</speed><course>309.478760</course><hAcc>0.873810</hAcc><vAcc>0.672480</vAcc></extensions></trkpt>
      <trkpt lon="-3.155643" lat="52.983297"><ele>223.778763</ele><time>2021-09-01T09:14:06Z</time><extensions><speed>1.392272</speed><course>319.543488</course><hAcc>0.873139</hAcc><vAcc>0.672936</vAcc></extensions></trkpt>
      <trkpt lon="-3.155659" lat="52.983306"><ele>223.691406</ele><time>2021-09-01T09:14:07Z</time><extensions><speed>1.392182</speed><course>324.087982</course><hAcc>0.872005</hAcc><vAcc>0.672955</vAcc></extensions></trkpt>
      <trkpt lon="-3.155674" lat="52.983315"><ele>223.597321</ele><time>2021-09-01T09:14:08Z</time><extensions><speed>1.392498</speed><course>317.628326</course><hAcc>0.870313</hAcc><vAcc>0.672420</vAcc></extensions></trkpt>
      <trkpt lon="-3.155688" lat="52.983323"><ele>223.498016</ele><time>2021-09-01T09:14:09Z</time><extensions><speed>1.394148</speed><course>311.843903</course><hAcc>0.868007</hAcc><vAcc>0.671269</vAcc></extensions></trkpt>
      <trkpt lon="-3.155703" lat="52.983332"><ele>223.394745</ele><time>2021-09-01T09:14:10Z</time><extensions><speed>1.397787</speed><course>320.026215</course><hAcc>0.865102</hAcc><vAcc>0.669512</vAcc></extensions></trkpt>
      <trkpt lon="-3.155718" lat="52.983341"><ele>223.288773</ele><time>2021-09-01T09:14:11Z</time><extensions><speed>1.404139</speed><course>320.448669</course><hAcc>0.861715</hAcc><vAcc>0.667265</vAcc></extensions></trkpt>
      <trkpt lon="-3.155733" lat="52.983350"><ele>223.181763</ele><time>2021-09-01T09:14:12Z</time><extensions><speed>1.413678</speed><course>324.626526</course><hAcc>0.858111</hAcc><vAcc>0.664764</vAcc></extensions></trkpt>
      <trkpt lon="-3.155747" lat="52.983359"><ele>223.075729</ele><time>2021-09-01T09:14:13Z</time><extensions><speed>1.426600</speed><course>326.167938</course><hAcc>0.854726</hAcc><vAcc>0.662386</vAcc></extensions></trkpt>
      <trkpt lon="-3.155762" lat="52.983369"><ele>222.972961</ele><time>2021-09-01T09:14:14Z</time><extensions><speed>1.442296</speed><course>325.390656</course><hAcc>0.852177</hAcc><vAcc>0.660636</vAcc></extensions></trkpt>
      <trkpt lon="-3.155776" lat="52.983379"><ele>222.875931</ele><time>2021-09-01T09:14:14Z</time><extensions><speed>1.459890</speed><course>314.974457</course><hAcc>0.851250</hAcc><vAcc>0.660140</vAcc></extensions></trkpt>
      <trkpt lon="-3.155776" lat="52.983379"><ele>222.875748</ele><time>2021-09-01T09:14:15Z</time><extensions><speed>1.459890</speed><course>325.724579</course><hAcc>0.851250</hAcc><vAcc>0.660140</vAcc></extensions></trkpt>
      <trkpt lon="-3.155790" lat="52.983389"><ele>222.784866</ele><time>2021-09-01T09:14:16Z</time><extensions><speed>1.468979</speed><course>318.034210</course><hAcc>0.852425</hAcc><vAcc>0.661278</vAcc></extensions></trkpt>
      <trkpt lon="-3.155804" lat="52.983399"><ele>222.698608</ele><time>2021-09-01T09:14:17Z</time><extensions><speed>1.459617</speed><course>313.475250</course><hAcc>0.855199</hAcc><vAcc>0.663684</vAcc></extensions></trkpt>
      <trkpt lon="-3.155817" lat="52.983409"><ele>222.614578</ele><time>2021-09-01T09:14:18Z</time><extensions><speed>1.432319</speed><course>321.089203</course><hAcc>0.858836</hAcc><vAcc>0.666794</vAcc></extensions></trkpt>
      <trkpt lon="-3.155830" lat="52.983419"><ele>222.531662</ele><time>2021-09-01T09:14:19Z</time><extensions><speed>1.386735</speed><course>329.810181</course><hAcc>0.862733</hAcc><vAcc>0.670142</vAcc></extensions></trkpt>
      <trkpt lon="-3.155842" lat="52.983429"><ele>222.449799</ele><time>2021-09-01T09:14:20Z</time><extensions><speed>1.322547</speed><course>327.314850</course><hAcc>0.866463</hAcc><vAcc>0.673395</vAcc></extensions></trkpt>
      <trkpt lon="-3.155854" lat="52.983438"><ele>222.369293</ele><time>2021-09-01T09:14:21Z</time><extensions><speed>1.240000</speed><course>321.503876</course><hAcc>0.869771</hAcc><vAcc>0.676351</vAcc></extensions></trkpt>
      <trkpt lon="-3.155864" lat="52.983447"><ele>222.290726</ele><time>2021-09-01T09:14:22Z</time><extensions><speed>1.140243</speed><course>323.534607</course><hAcc>0.872544</hAcc><vAcc>0.678926</vAcc></extensions></trkpt>
      <trkpt lon="-3.155874" lat="52.983454"><ele>222.215179</ele><time>2021-09-01T09:14:23Z</time><extensions><speed>1.024999</speed><course>325.158722</course><hAcc>0.874769</hAcc><vAcc>0.681119</vAcc></extensions></trkpt>
      <trkpt lon="-3.155882" lat="52.983461"><ele>222.144104</ele><time>2021-09-01T09:14:24Z</time><extensions><speed>0.896087</speed><course>329.447083</course><hAcc>0.876498</hAcc><vAcc>0.682992</vAcc></extensions></trkpt>
      <trkpt lon="-3.155890" lat="52.983467"><ele>222.079086</ele><time>2021-09-01T09:14:25Z</time><extensions><speed>0.755566</speed><course>331.191650</course><hAcc>0.877817</hAcc><vAcc>0.684642</vAcc></extensions></trkpt>
      <trkpt lon="-3.155896" lat="52.983472"><ele>222.021393</ele><time>2021-09-01T09:14:26Z</time><extensions><speed>0.606562</speed><course>334.557068</course><hAcc>0.878822</hAcc><vAcc>0.686166</vAcc></extensions></trkpt>
      <trkpt lon="-3.155902" lat="52.983475"><ele>221.971466</ele><time>2021-09-01T09:14:27Z</time><extensions><speed>0.453822</speed><course>336.690918</course><hAcc>0.879602</hAcc><vAcc>0.687650</vAcc></extensions></trkpt>
      <trkpt lon="-3.155906" lat="52.983478"><ele>221.928757</ele><time>2021-09-01T09:14:28Z</time><extensions><speed>0.304977</speed><course>337.183258</course><hAcc>0.880234</hAcc><vAcc>0.689153</vAcc></extensions></trkpt>
      <trkpt lon="-3.155909" lat="52.983479"><ele>221.892227</ele><time>2021-09-01T09:14:29Z</time><extensions><speed>0.176481</speed><course>318.997711</course><hAcc>0.880773</hAcc><vAcc>0.690699</vAcc></extensions></trkpt>
      <trkpt lon="-3.155911" lat="52.983479"><ele>221.860764</ele><time>2021-09-01T09:14:30Z</time><extensions><speed>0.121953</speed><course>315.791901</course><hAcc>0.881256</hAcc><vAcc>0.692270</vAcc></extensions></trkpt>
      <trkpt lon="-3.155912" lat="52.983478"><ele>221.833160</ele><time>2021-09-01T09:14:31Z</time><extensions><speed>0.179761</speed><course>315.791901</course><hAcc>0.881701</hAcc><vAcc>0.693814</vAcc></extensions></trkpt>
      <trkpt lon="-3.155912" lat="52.983476"><ele>221.808212</ele><time>2021-09-01T09:14:32Z</time><extensions><speed>0.261089</speed><course>315.791901</course><hAcc>0.882117</hAcc><vAcc>0.695274</vAcc></extensions></trkpt>
      <trkpt lon="-3.155911" lat="52.983473"><ele>221.784897</ele><time>2021-09-01T09:14:33Z</time><extensions><speed>0.326808</speed><course>315.791901</course><hAcc>0.882504</hAcc><vAcc>0.696605</vAcc></extensions></trkpt>
      <trkpt lon="-3.155910" lat="52.983470"><ele>221.762329</ele><time>2021-09-01T09:14:34Z</time><extensions><speed>0.367705</speed><course>315.791901</course><hAcc>0.882856</hAcc><vAcc>0.697776</vAcc></extensions></trkpt>
      <trkpt lon="-3.155909" lat="52.983467"><ele>221.739746</ele><time>2021-09-01T09:14:35Z</time><extensions><speed>0.381144</speed><course>315.791901</course><hAcc>0.883170</hAcc><vAcc>0.698769</vAcc></extensions></trkpt>
      <trkpt lon="-3.155907" lat="52.983464"><ele>221.716537</ele><time>2021-09-01T09:14:36Z</time><extensions><speed>0.367005</speed><course>315.791901</course><hAcc>0.883440</hAcc><vAcc>0.699582</vAcc></extensions></trkpt>
      <trkpt lon="-3.155905" lat="52.983461"><ele>221.692551</ele><time>2021-09-01T09:14:37Z</time><extensions><speed>0.327067</speed><course>315.791901</course><hAcc>0.883663</hAcc><vAcc>0.700221</vAcc></extensions></trkpt>
      <trkpt lon="-3.155904" lat="52.983458"><ele>221.668045</ele><time>2021-09-01T09:14:38Z</time><extensions><speed>0.264447</speed><course>315.791901</course><hAcc>0.883834</hAcc><vAcc>0.700697</vAcc></extensions></trkpt>
      <trkpt lon="-3.155902" lat="52.983456"><ele>221.643600</ele><time>2021-09-01T09:14:39Z</time><extensions><speed>0.182456</speed><course>315.791901</course><hAcc>0.883952</hAcc><vAcc>0.701020</vAcc></extensions></trkpt>
      <trkpt lon="-3.155902" lat="52.983455"><ele>221.619873</ele><time>2021-09-01T09:14:40Z</time><extensions><speed>0.084624</speed><course>315.791901</course><hAcc>0.884015</hAcc><vAcc>0.701196</vAcc></extensions></trkpt>
      <trkpt lon="-3.155902" lat="52.983455"><ele>221.597626</ele><time>2021-09-01T09:14:41Z</time><extensions><speed>0.031907</speed><course>315.791901</course><hAcc>0.884018</hAcc><vAcc>0.701222</vAcc></extensions></trkpt>
      <trkpt lon="-3.155903" lat="52.983455"><ele>221.577545</ele><time>2021-09-01T09:14:42Z</time><extensions><speed>0.150819</speed><course>315.791901</course><hAcc>0.883960</hAcc><vAcc>0.701088</vAcc></extensions></trkpt>
      <trkpt lon="-3.155904" lat="52.983457"><ele>221.560394</ele><time>2021-09-01T09:14:43Z</time><extensions><speed>0.279039</speed><course>315.791901</course><hAcc>0.883833</hAcc><vAcc>0.700775</vAcc></extensions></trkpt>
      <trkpt lon="-3.155907" lat="52.983460"><ele>221.546967</ele><time>2021-09-01T09:14:44Z</time><extensions><speed>0.411135</speed><course>315.791901</course><hAcc>0.883635</hAcc><vAcc>0.700252</vAcc></extensions></trkpt>
      <trkpt lon="-3.155910" lat="52.983464"><ele>221.537918</ele><time>2021-09-01T09:14:45Z</time><extensions><speed>0.543244</speed><course>324.368835</course><hAcc>0.883359</hAcc><vAcc>0.699482</vAcc></extensions></trkpt>
      <trkpt lon="-3.155914" lat="52.983468"><ele>221.533859</ele><time>2021-09-01T09:14:46Z</time><extensions><speed>0.671397</speed><course>336.936340</course><hAcc>0.883002</hAcc><vAcc>0.698428</vAcc></extensions></trkpt>
      <trkpt lon="-3.155920" lat="52.983474"><ele>221.535263</ele><time>2021-09-01T09:14:47Z</time><extensions><speed>0.792133</speed><course>334.067902</course><hAcc>0.882560</hAcc><vAcc>0.697070</vAcc></extensions></trkpt>
      <trkpt lon="-3.155926" lat="52.983481"><ele>221.542603</ele><time>2021-09-01T09:14:48Z</time><extensions><speed>0.902984</speed><course>335.500000</course><hAcc>0.882033</hAcc><vAcc>0.695408</vAcc></extensions></trkpt>
      <trkpt lon="-3.155932" lat="52.983488"><ele>221.556137</ele><time>2021-09-01T09:14:49Z</time><extensions><speed>1.002713</speed><course>331.822205</course><hAcc>0.881422</hAcc><vAcc>0.693459</vAcc></extensions></trkpt>
      <trkpt lon="-3.155940" lat="52.983497"><ele>221.575836</ele><time>2021-09-01T09:14:50Z</time><extensions><speed>1.090876</speed><course>332.566284</course><hAcc>0.880731</hAcc><vAcc>0.691247</vAcc></extensions></trkpt>
      <trkpt lon="-3.155948" lat="52.983506"><ele>221.601746</ele><time>2021-09-01T09:14:51Z</time><extensions><speed>1.167644</speed><course>322.442413</course><hAcc>0.879967</hAcc><vAcc>0.688799</vAcc></extensions></trkpt>
      <trkpt lon="-3.155956" lat="52.983515"><ele>221.634079</ele><time>2021-09-01T09:14:52Z</time><extensions><speed>1.232925</speed><course>328.923309</course><hAcc>0.879137</hAcc><vAcc>0.686140</vAcc></extensions></trkpt>
      <trkpt lon="-3.155965" lat="52.983525"><ele>221.673157</ele><time>2021-09-01T09:14:53Z</time><extensions><speed>1.286567</speed><course>332.979462</course><hAcc>0.878253</hAcc><vAcc>0.683300</vAcc></extensions></trkpt>
      <trkpt lon="-3.155974" lat="52.983535"><ele>221.719559</ele><time>2021-09-01T09:14:54Z</time><extensions><speed>1.329808</speed><course>326.583588</course><hAcc>0.877328</hAcc><vAcc>0.680315</vAcc></extensions></trkpt>
      <trkpt lon="-3.155984" lat="52.983546"><ele>221.773834</ele><time>2021-09-01T09:14:55Z</time><extensions><speed>1.363992</speed><course>333.004852</course><hAcc>0.876379</hAcc><vAcc>0.677231</vAcc></extensions></trkpt>
      <trkpt lon="-3.155993" lat="52.983557"><ele>221.835922</ele><time>2021-09-01T09:14:56Z</time><extensions><speed>1.389801</speed><course>328.891602</course><hAcc>0.875424</hAcc><vAcc>0.674102</vAcc></extensions></trkpt>
      <trkpt lon="-3.156003" lat="52.983568"><ele>221.904785</ele><time>2021-09-01T09:14:57Z</time><extensions><speed>1.408019</speed><course>329.156494</course><hAcc>0.874484</hAcc><vAcc>0.670996</vAcc></extensions></trkpt>
      <trkpt lon="-3.156014" lat="52.983579"><ele>221.978958</ele><time>2021-09-01T09:14:58Z</time><extensions><speed>1.419678</speed><course>329.450256</course><hAcc>0.873580</hAcc><vAcc>0.667987</vAcc></extensions></trkpt>
      <trkpt lon="-3.156024" lat="52.983590"><ele>222.057068</ele><time>2021-09-01T09:14:59Z</time><extensions><speed>1.426032</speed><course>329.886902</course><hAcc>0.872735</hAcc><vAcc>0.665151</vAcc></extensions></trkpt>
      <trkpt lon="-3.156035" lat="52.983601"><ele>222.137985</ele><time>2021-09-01T09:15:00Z</time><extensions><speed>1.427991</speed><course>332.708923</course><hAcc>0.871968</hAcc><vAcc>0.662561</vAcc></extensions></trkpt>
      <trkpt lon="-3.156046" lat="52.983612"><ele>222.220230</ele><time>2021-09-01T09:15:01Z</time><extensions><speed>1.426246</speed><course>337.086456</course><hAcc>0.871291</hAcc><vAcc>0.660271</vAcc></extensions></trkpt>
      <trkpt lon="-3.156057" lat="52.983623"><ele>222.301865</ele><time>2021-09-01T09:15:02Z</time><extensions><speed>1.421487</speed><course>335.947693</course><hAcc>0.870712</hAcc><vAcc>0.658314</vAcc></extensions></trkpt>
      <trkpt lon="-3.156068" lat="52.983634"><ele>222.381210</ele><time>2021-09-01T09:15:03Z</time><extensions><speed>1.414413</speed><course>332.293579</course><hAcc>0.870232</hAcc><vAcc>0.656707</vAcc></extensions></trkpt>
      <trkpt lon="-3.156080" lat="52.983644"><ele>222.456696</ele><time>2021-09-01T09:15:04Z</time><extensions><speed>1.405684</speed><course>330.673279</course><hAcc>0.869844</hAcc><vAcc>0.655438</vAcc></extensions></trkpt>
      <trkpt lon="-3.156092" lat="52.983655"><ele>222.526779</ele><time>2021-09-01T09:15:05Z</time><extensions><speed>1.395975</speed><course>325.868774</course><hAcc>0.869537</hAcc><vAcc>0.654463</vAcc></extensions></trkpt>
      <trkpt lon="-3.156104" lat="52.983665"><ele>222.590439</ele><time>2021-09-01T09:15:06Z</time><extensions><speed>1.386082</speed><course>320.652771</course><hAcc>0.869297</hAcc><vAcc>0.653699</vAcc></extensions></trkpt>
      <trkpt lon="-3.156116" lat="52.983675"><ele>222.647583</ele><time>2021-09-01T09:15:07Z</time><extensions><speed>1.376617</speed><course>317.759430</course><hAcc>0.869106</hAcc><vAcc>0.653027</vAcc></extensions></trkpt>
      <trkpt lon="-3.156127" lat="52.983685"><ele>222.698898</ele><time>2021-09-01T09:15:08Z</time><extensions><speed>1.367483</speed><course>312.631989</course><hAcc>0.868942</hAcc><vAcc>0.652306</vAcc></extensions></trkpt>
      <trkpt lon="-3.156139" lat="52.983695"><ele>222.745163</ele><time>2021-09-01T09:15:09Z</time><extensions><speed>1.358327</speed><course>318.114197</course><hAcc>0.868780</hAcc><vAcc>0.651381</vAcc></extensions></trkpt>
      <trkpt lon="-3.156151" lat="52.983705"><ele>222.787277</ele><time>2021-09-01T09:15:10Z</time><extensions><speed>1.348943</speed><course>324.507172</course><hAcc>0.868594</hAcc><vAcc>0.650103</vAcc></extensions></trkpt>
      <trkpt lon="-3.156162" lat="52.983715"><ele>222.826233</ele><time>2021-09-01T09:15:11Z</time><extensions><speed>1.339659</speed><course>327.082703</course><hAcc>0.868362</hAcc><vAcc>0.648342</vAcc></extensions></trkpt>
      <trkpt lon="-3.156173" lat="52.983725"><ele>222.862366</ele><time>2021-09-01T09:15:12Z</time><extensions><speed>1.331380</speed><course>329.958954</course><hAcc>0.868066</hAcc><vAcc>0.646008</vAcc></extensions></trkpt>
      <trkpt lon="-3.156184" lat="52.983735"><ele>222.895355</ele><time>2021-09-01T09:15:13Z</time><extensions><speed>1.324711</speed><course>328.035645</course><hAcc>0.867682</hAcc><vAcc>0.643050</vAcc></extensions></trkpt>
      <trkpt lon="-3.156196" lat="52.983745"><ele>222.925095</ele><time>2021-09-01T09:15:14Z</time><extensions><speed>1.319960</speed><course>327.514526</course><hAcc>0.867187</hAcc><vAcc>0.639459</vAcc></extensions></trkpt>
      <trkpt lon="-3.156207" lat="52.983754"><ele>222.952225</ele><time>2021-09-01T09:15:15Z</time><extensions><speed>1.316669</speed><course>320.027710</course><hAcc>0.866551</hAcc><vAcc>0.635273</vAcc></extensions></trkpt>
      <trkpt lon="-3.156218" lat="52.983764"><ele>222.977829</ele><time>2021-09-01T09:15:16Z</time><extensions><speed>1.314113</speed><course>323.596710</course><hAcc>0.865748</hAcc><vAcc>0.630584</vAcc></extensions></trkpt>
      <trkpt lon="-3.156229" lat="52.983774"><ele>223.002914</ele><time>2021-09-01T09:15:17Z</time><extensions><speed>1.312030</speed><course>326.277405</course><hAcc>0.864759</hAcc><vAcc>0.625544</vAcc></extensions></trkpt>
      <trkpt lon="-3.156241" lat="52.983783"><ele>223.027954</ele><time>2021-09-01T09:15:18Z</time><extensions><speed>1.310229</speed><course>327.083344</course><hAcc>0.863573</hAcc><vAcc>0.620359</vAcc></extensions></trkpt>
      <trkpt lon="-3.156253" lat="52.983793"><ele>223.053146</ele><time>2021-09-01T09:15:19Z</time><extensions><speed>1.308291</speed><course>330.723541</course><hAcc>0.862201</hAcc><vAcc>0.615261</vAcc></extensions></trkpt>
      <trkpt lon="-3.156265" lat="52.983802"><ele>223.079193</ele><time>2021-09-01T09:15:20Z</time><extensions><speed>1.305727</speed><course>328.902985</course><hAcc>0.860677</hAcc><vAcc>0.610465</vAcc></extensions></trkpt>
      <trkpt lon="-3.156277" lat="52.983811"><ele>223.106766</ele><time>2021-09-01T09:15:21Z</time><extensions><speed>1.302424</speed><course>325.540680</course><hAcc>0.859069</hAcc><vAcc>0.606150</vAcc></extensions></trkpt>
      <trkpt lon="-3.156289" lat="52.983820"><ele>223.135284</ele><time>2021-09-01T09:15:22Z</time><extensions><speed>1.298312</speed><course>326.969879</course><hAcc>0.857467</hAcc><vAcc>0.602445</vAcc></extensions></trkpt>
      <trkpt lon="-3.156302" lat="52.983829"><ele>223.163116</ele><time>2021-09-01T09:15:23Z</time><extensions><speed>1.293180</speed><course>320.316467</course><hAcc>0.855968</hAcc><vAcc>0.599430</vAcc></extensions></trkpt>
      <trkpt lon="-3.156315" lat="52.983837"><ele>223.188660</ele><time>2021-09-01T09:15:24Z</time><extensions><speed>1.286523</speed><course>319.871765</course><hAcc>0.854665</hAcc><vAcc>0.597165</vAcc></extensions></trkpt>
      <trkpt lon="-3.156328" lat="52.983846"><ele>223.211456</ele><time>2021-09-01T09:15:25Z</time><extensions><speed>1.277706</speed><course>316.990692</course><hAcc>0.853632</hAcc><vAcc>0.595714</vAcc></extensions></trkpt>
      <trkpt lon="-3.156341" lat="52.983854"><ele>223.231934</ele><time>2021-09-01T09:15:26Z</time><extensions><speed>1.266007</speed><course>317.272278</course><hAcc>0.852919</hAcc><vAcc>0.595144</vAcc></extensions></trkpt>
      <trkpt lon="-3.156354" lat="52.983862"><ele>223.250443</ele><time>2021-09-01T09:15:27Z</time><extensions><speed>1.250054</speed><course>317.305878</course><hAcc>0.852542</hAcc><vAcc>0.595514</vAcc></extensions></trkpt>
      <trkpt lon="-3.156366" lat="52.983870"><ele>223.267227</ele><time>2021-09-01T09:15:28Z</time><extensions><speed>1.228800</speed><course>319.626617</course><hAcc>0.852503</hAcc><vAcc>0.596848</vAcc></extensions></trkpt>
      <trkpt lon="-3.156379" lat="52.983878"><ele>223.283463</ele><time>2021-09-01T09:15:29Z</time><extensions><speed>1.202189</speed><course>316.946777</course><hAcc>0.852793</hAcc><vAcc>0.599125</vAcc></extensions></trkpt>
      <trkpt lon="-3.156392" lat="52.983886"><ele>223.300934</ele><time>2021-09-01T09:15:30Z</time><extensions><speed>1.170667</speed><course>316.848175</course><hAcc>0.853399</hAcc><vAcc>0.602270</vAcc></extensions></trkpt>
      <trkpt lon="-3.156404" lat="52.983893"><ele>223.320526</ele><time>2021-09-01T09:15:31Z</time><extensions><speed>1.134802</speed><course>306.129730</course><hAcc>0.854294</hAcc><vAcc>0.606177</vAcc></extensions></trkpt>
      <trkpt lon="-3.156415" lat="52.983900"><ele>223.342072</ele><time>2021-09-01T09:15:32Z</time><extensions><speed>1.094449</speed><course>311.287872</course><hAcc>0.855446</hAcc><vAcc>0.610737</vAcc></extensions></trkpt>
      <trkpt lon="-3.156427" lat="52.983907"><ele>223.365158</ele><time>2021-09-01T09:15:33Z</time><extensions><speed>1.050163</speed><course>316.150696</course><hAcc>0.856821</hAcc><vAcc>0.615839</vAcc></extensions></trkpt>
      <trkpt lon="-3.156437" lat="52.983914"><ele>223.389801</ele><time>2021-09-01T09:15:34Z</time><extensions><speed>1.004506</speed><course>319.589172</course><hAcc>0.858378</hAcc><vAcc>0.621352</vAcc></extensions></trkpt>
      <trkpt lon="-3.156447" lat="52.983920"><ele>223.416214</ele><time>2021-09-01T09:15:35Z</time><extensions><speed>0.961222</speed><course>317.826752</course><hAcc>0.860066</hAcc><vAcc>0.627104</vAcc></extensions></trkpt>
      <trkpt lon="-3.156457" lat="52.983926"><ele>223.444733</ele><time>2021-09-01T09:15:36Z</time><extensions><speed>0.924831</speed><course>316.582428</course><hAcc>0.861816</hAcc><vAcc>0.632857</vAcc></extensions></trkpt>
      <trkpt lon="-3.156467" lat="52.983932"><ele>223.475754</ele><time>2021-09-01T09:15:37Z</time><extensions><speed>0.900022</speed><course>322.533203</course><hAcc>0.863540</hAcc><vAcc>0.638299</vAcc></extensions></trkpt>
      <trkpt lon="-3.156476" lat="52.983938"><ele>223.509476</ele><time>2021-09-01T09:15:38Z</time><extensions><speed>0.890335</speed><course>322.533203</course><hAcc>0.865133</hAcc><vAcc>0.643080</vAcc></extensions></trkpt>
      <trkpt lon="-3.156485" lat="52.983944"><ele>223.545837</ele><time>2021-09-01T09:15:39Z</time><extensions><speed>0.897227</speed><course>322.533203</course><hAcc>0.866508</hAcc><vAcc>0.646932</vAcc></extensions></trkpt>
      <trkpt lon="-3.156494" lat="52.983949"><ele>223.584610</ele><time>2021-09-01T09:15:40Z</time><extensions><speed>0.920206</speed><course>322.533203</course><hAcc>0.867610</hAcc><vAcc>0.649753</vAcc></extensions></trkpt>
      <trkpt lon="-3.156504" lat="52.983956"><ele>223.625381</ele><time>2021-09-01T09:15:41Z</time><extensions><speed>0.956902</speed><course>322.533203</course><hAcc>0.868419</hAcc><vAcc>0.651605</vAcc></extensions></trkpt>
      <trkpt lon="-3.156514" lat="52.983962"><ele>223.667450</ele><time>2021-09-01T09:15:42Z</time><extensions><speed>1.003381</speed><course>310.635162</course><hAcc>0.868941</hAcc><vAcc>0.652662</vAcc></extensions></trkpt>
      <trkpt lon="-3.156524" lat="52.983969"><ele>223.709732</ele><time>2021-09-01T09:15:43Z</time><extensions><speed>1.054993</speed><course>317.610291</course><hAcc>0.869211</hAcc><vAcc>0.653130</vAcc></extensions></trkpt>
      <trkpt lon="-3.156535" lat="52.983976"><ele>223.751480</ele><time>2021-09-01T09:15:44Z</time><extensions><speed>1.107924</speed><course>306.125671</course><hAcc>0.869298</hAcc><vAcc>0.653222</vAcc></extensions></trkpt>
      <trkpt lon="-3.156547" lat="52.983983"><ele>223.792633</ele><time>2021-09-01T09:15:45Z</time><extensions><speed>1.159515</speed><course>318.134308</course><hAcc>0.869282</hAcc><vAcc>0.653146</vAcc></extensions></trkpt>
      <trkpt lon="-3.156559" lat="52.983991"><ele>223.833725</ele><time>2021-09-01T09:15:46Z</time><extensions><speed>1.207851</speed><course>310.926819</course><hAcc>0.869242</hAcc><vAcc>0.653098</vAcc></extensions></trkpt>
      <trkpt lon="-3.156571" lat="52.983999"><ele>223.875595</ele><time>2021-09-01T09:15:47Z</time><extensions><speed>1.252194</speed><course>312.939606</course><hAcc>0.869241</hAcc><vAcc>0.653246</vAcc></extensions></trkpt>
      <trkpt lon="-3.156584" lat="52.984008"><ele>223.919312</ele><time>2021-09-01T09:15:48Z</time><extensions><speed>1.291527</speed><course>305.606995</course><hAcc>0.869326</hAcc><vAcc>0.653709</vAcc></extensions></trkpt>
      <trkpt lon="-3.156597" lat="52.984017"><ele>223.965515</ele><time>2021-09-01T09:15:49Z</time><extensions><speed>1.324827</speed><course>302.541321</course><hAcc>0.869527</hAcc><vAcc>0.654556</vAcc></extensions></trkpt>
      <trkpt lon="-3.156610" lat="52.984026"><ele>224.014313</ele><time>2021-09-01T09:15:50Z</time><extensions><speed>1.352754</speed><course>303.802917</course><hAcc>0.869853</hAcc><vAcc>0.655805</vAcc></extensions></trkpt>
      <trkpt lon="-3.156623" lat="52.984035"><ele>224.065475</ele><time>2021-09-01T09:15:51Z</time><extensions><speed>1.376838</speed><course>300.395538</course><hAcc>0.870300</hAcc><vAcc>0.657429</vAcc></extensions></trkpt>
      <trkpt lon="-3.156637" lat="52.984044"><ele>224.118820</ele><time>2021-09-01T09:15:52Z</time><extensions><speed>1.398234</speed><course>303.076660</course><hAcc>0.870849</hAcc><vAcc>0.659362</vAcc></extensions></trkpt>
      <trkpt lon="-3.156650" lat="52.984054"><ele>224.174408</ele><time>2021-09-01T09:15:53Z</time><extensions><speed>1.417182</speed><course>301.521118</course><hAcc>0.871477</hAcc><vAcc>0.661515</vAcc></extensions></trkpt>
      <trkpt lon="-3.156663" lat="52.984064"><ele>224.232162</ele><time>2021-09-01T09:15:54Z</time><extensions><speed>1.433672</speed><course>315.953857</course><hAcc>0.872153</hAcc><vAcc>0.663793</vAcc></extensions></trkpt>
      <trkpt lon="-3.156677" lat="52.984074"><ele>224.291428</ele><time>2021-09-01T09:15:55Z</time><extensions><speed>1.447393</speed><course>321.613922</course><hAcc>0.872850</hAcc><vAcc>0.666104</vAcc></extensions></trkpt>
      <trkpt lon="-3.156690" lat="52.984084"><ele>224.351212</ele><time>2021-09-01T09:15:56Z</time><extensions><speed>1.457573</speed><course>320.530426</course><hAcc>0.873543</hAcc><vAcc>0.668371</vAcc></extensions></trkpt>
      <trkpt lon="-3.156704" lat="52.984095"><ele>224.410706</ele><time>2021-09-01T09:15:57Z</time><extensions><speed>1.463798</speed><course>319.105469</course><hAcc>0.874210</hAcc><vAcc>0.670531</vAcc></extensions></trkpt>
      <trkpt lon="-3.156717" lat="52.984105"><ele>224.469086</ele><time>2021-09-01T09:15:58Z</time><extensions><speed>1.466320</speed><course>320.005280</course><hAcc>0.874834</hAcc><vAcc>0.672537</vAcc></extensions></trkpt>
      <trkpt lon="-3.156731" lat="52.984115"><ele>224.525452</ele><time>2021-09-01T09:15:58Z</time><extensions><speed>1.465755</speed><course>320.540527</course><hAcc>0.875420</hAcc><vAcc>0.674368</vAcc></extensions></trkpt>
      <trkpt lon="-3.156744" lat="52.984126"><ele>224.578964</ele><time>2021-09-01T09:15:59Z</time><extensions><speed>1.462460</speed><course>316.635681</course><hAcc>0.875964</hAcc><vAcc>0.676013</vAcc></extensions></trkpt>
      <trkpt lon="-3.156758" lat="52.984136"><ele>224.628555</ele><time>2021-09-01T09:16:00Z</time><extensions><speed>1.457054</speed><course>319.322998</course><hAcc>0.876442</hAcc><vAcc>0.677454</vAcc></extensions></trkpt>
      <trkpt lon="-3.156771" lat="52.984146"><ele>224.673706</ele><time>2021-09-01T09:16:01Z</time><extensions><speed>1.450304</speed><course>319.244141</course><hAcc>0.876856</hAcc><vAcc>0.678697</vAcc></extensions></trkpt>
      <trkpt lon="-3.156785" lat="52.984156"><ele>224.714401</ele><time>2021-09-01T09:16:02Z</time><extensions><speed>1.442650</speed><course>315.425568</course><hAcc>0.877210</hAcc><vAcc>0.679753</vAcc></extensions></trkpt>
      <trkpt lon="-3.156798" lat="52.984166"><ele>224.750641</ele><time>2021-09-01T09:16:03Z</time><extensions><speed>1.433918</speed><course>318.059448</course><hAcc>0.877507</hAcc><vAcc>0.680634</vAcc></extensions></trkpt>
      <trkpt lon="-3.156812" lat="52.984176"><ele>224.782578</ele><time>2021-09-01T09:16:04Z</time><extensions><speed>1.423803</speed><course>318.243683</course><hAcc>0.877755</hAcc><vAcc>0.681360</vAcc></extensions></trkpt>
      <trkpt lon="-3.156825" lat="52.984186"><ele>224.810883</ele><time>2021-09-01T09:16:05Z</time><extensions><speed>1.412946</speed><course>319.840027</course><hAcc>0.877960</hAcc><vAcc>0.681948</vAcc></extensions></trkpt>
      <trkpt lon="-3.156839" lat="52.984196"><ele>224.836258</ele><time>2021-09-01T09:16:06Z</time><extensions><speed>1.402099</speed><course>320.630524</course><hAcc>0.878131</hAcc><vAcc>0.682423</vAcc></extensions></trkpt>
      <trkpt lon="-3.156853" lat="52.984205"><ele>224.859283</ele><time>2021-09-01T09:16:07Z</time><extensions><speed>1.391928</speed><course>318.435181</course><hAcc>0.878276</hAcc><vAcc>0.682812</vAcc></extensions></trkpt>
      <trkpt lon="-3.156866" lat="52.984215"><ele>224.880768</ele><time>2021-09-01T09:16:08Z</time><extensions><speed>1.383254</speed><course>313.959320</course><hAcc>0.878405</hAcc><vAcc>0.683152</vAcc></extensions></trkpt>
      <trkpt lon="-3.156880" lat="52.984224"><ele>224.902100</ele><time>2021-09-01T09:16:09Z</time><extensions><speed>1.376671</speed><course>314.005951</course><hAcc>0.878528</hAcc><vAcc>0.683477</vAcc></extensions></trkpt>
      <trkpt lon="-3.156894" lat="52.984233"><ele>224.924606</ele><time>2021-09-01T09:16:10Z</time><extensions><speed>1.372146</speed><course>315.776367</course><hAcc>0.878654</hAcc><vAcc>0.683824</vAcc></extensions></trkpt>
      <trkpt lon="-3.156907" lat="52.984242"><ele>224.948883</ele><time>2021-09-01T09:16:11Z</time><extensions><speed>1.368853</speed><course>317.643280</course><hAcc>0.878790</hAcc><vAcc>0.684222</vAcc></extensions></trkpt>
      <trkpt lon="-3.156921" lat="52.984251"><ele>224.974930</ele><time>2021-09-01T09:16:12Z</time><extensions><speed>1.365701</speed><course>316.187012</course><hAcc>0.878941</hAcc><vAcc>0.684690</vAcc></extensions></trkpt>
      <trkpt lon="-3.156935" lat="52.984260"><ele>225.002502</ele><time>2021-09-01T09:16:13Z</time><extensions><speed>1.361471</speed><course>313.238525</course><hAcc>0.879110</hAcc><vAcc>0.685233</vAcc></extensions></trkpt>
      <trkpt lon="-3.156949" lat="52.984269"><ele>225.031006</ele><time>2021-09-01T09:16:14Z</time><extensions><speed>1.355240</speed><course>309.102142</course><hAcc>0.879296</hAcc><vAcc>0.685841</vAcc></extensions></trkpt>
      <trkpt lon="-3.156962" lat="52.984278"><ele>225.059860</ele><time>2021-09-01T09:16:15Z</time><extensions><speed>1.346615</speed><course>313.839325</course><hAcc>0.879496</hAcc><vAcc>0.686498</vAcc></extensions></trkpt>
      <trkpt lon="-3.156976" lat="52.984287"><ele>225.088928</ele><time>2021-09-01T09:16:16Z</time><extensions><speed>1.335241</speed><course>315.040405</course><hAcc>0.879705</hAcc><vAcc>0.687184</vAcc></extensions></trkpt>
      <trkpt lon="-3.156989" lat="52.984296"><ele>225.118057</ele><time>2021-09-01T09:16:17Z</time><extensions><speed>1.320897</speed><course>315.010925</course><hAcc>0.879917</hAcc><vAcc>0.687885</vAcc></extensions></trkpt>
      <trkpt lon="-3.157002" lat="52.984304"><ele>225.146423</ele><time>2021-09-01T09:16:18Z</time><extensions><speed>1.303351</speed><course>312.357758</course><hAcc>0.880125</hAcc><vAcc>0.688587</vAcc></extensions></trkpt>
      <trkpt lon="-3.157015" lat="52.984313"><ele>225.173080</ele><time>2021-09-01T09:16:19Z</time><extensions><speed>1.282294</speed><course>316.888885</course><hAcc>0.880320</hAcc><vAcc>0.689274</vAcc></extensions></trkpt>
      <trkpt lon="-3.157027" lat="52.984322"><ele>225.197464</ele><time>2021-09-01T09:16:20Z</time><extensions><speed>1.258269</speed><course>320.096283</course><hAcc>0.880490</hAcc><vAcc>0.689916</vAcc></extensions></trkpt>
      <trkpt lon="-3.157039" lat="52.984330"><ele>225.219040</ele><time>2021-09-01T09:16:21Z</time><extensions><speed>1.232665</speed><course>330.452972</course><hAcc>0.880622</hAcc><vAcc>0.690466</vAcc></extensions></trkpt>
      <trkpt lon="-3.157051" lat="52.984339"><ele>225.237015</ele><time>2021-09-01T09:16:22Z</time><extensions><speed>1.206447</speed><course>325.892334</course><hAcc>0.880699</hAcc><vAcc>0.690869</vAcc></extensions></trkpt>
      <trkpt lon="-3.157062" lat="52.984347"><ele>225.250961</ele><time>2021-09-01T09:16:23Z</time><extensions><speed>1.180362</speed><course>323.150330</course><hAcc>0.880706</hAcc><vAcc>0.691066</vAcc></extensions></trkpt>
      <trkpt lon="-3.157073" lat="52.984355"><ele>225.261063</ele><time>2021-09-01T09:16:24Z</time><extensions><speed>1.155578</speed><course>318.355499</course><hAcc>0.880626</hAcc><vAcc>0.690993</vAcc></extensions></trkpt>
      <trkpt lon="-3.157083" lat="52.984364"><ele>225.267853</ele><time>2021-09-01T09:16:25Z</time><extensions><speed>1.133359</speed><course>319.900726</course><hAcc>0.880445</hAcc><vAcc>0.690584</vAcc></extensions></trkpt>
      <trkpt lon="-3.157092" lat="52.984372"><ele>225.271759</ele><time>2021-09-01T09:16:26Z</time><extensions><speed>1.114829</speed><course>327.705719</course><hAcc>0.880152</hAcc><vAcc>0.689784</vAcc></extensions></trkpt>
      <trkpt lon="-3.157102" lat="52.984380"><ele>225.273285</ele><time>2021-09-01T09:16:27Z</time><extensions><speed>1.100799</speed><course>325.864380</course><hAcc>0.879740</hAcc><vAcc>0.688546</vAcc></extensions></trkpt>
      <trkpt lon="-3.157111" lat="52.984388"><ele>225.273178</ele><time>2021-09-01T09:16:28Z</time><extensions><speed>1.092030</speed><course>316.016541</course><hAcc>0.879205</hAcc><vAcc>0.686857</vAcc></extensions></trkpt>
      <trkpt lon="-3.157119" lat="52.984397"><ele>225.272354</ele><time>2021-09-01T09:16:29Z</time><extensions><speed>1.089058</speed><course>317.886536</course><hAcc>0.878553</hAcc><vAcc>0.684738</vAcc></extensions></trkpt>
      <trkpt lon="-3.157127" lat="52.984405"><ele>225.271774</ele><time>2021-09-01T09:16:30Z</time><extensions><speed>1.091770</speed><course>327.267029</course><hAcc>0.877791</hAcc><vAcc>0.682241</vAcc></extensions></trkpt>
      <trkpt lon="-3.157135" lat="52.984414"><ele>225.272888</ele><time>2021-09-01T09:16:31Z</time><extensions><speed>1.099457</speed><course>326.251373</course><hAcc>0.876929</hAcc><vAcc>0.679436</vAcc></extensions></trkpt>
      <trkpt lon="-3.157143" lat="52.984422"><ele>225.277603</ele><time>2021-09-01T09:16:32Z</time><extensions><speed>1.111167</speed><course>330.160339</course><hAcc>0.875981</hAcc><vAcc>0.676383</vAcc></extensions></trkpt>
      <trkpt lon="-3.157151" lat="52.984431"><ele>225.287338</ele><time>2021-09-01T09:16:33Z</time><extensions><speed>1.126250</speed><course>329.350830</course><hAcc>0.874954</hAcc><vAcc>0.673120</vAcc></extensions></trkpt>
      <trkpt lon="-3.157159" lat="52.984440"><ele>225.302490</ele><time>2021-09-01T09:16:34Z</time><extensions><speed>1.144301</speed><course>328.046906</course><hAcc>0.873856</hAcc><vAcc>0.669663</vAcc></extensions></trkpt>
      <trkpt lon="-3.157166" lat="52.984450"><ele>225.322983</ele><time>2021-09-01T09:16:35Z</time><extensions><speed>1.165071</speed><course>328.036682</course><hAcc>0.872697</hAcc><vAcc>0.666022</vAcc></extensions></trkpt>
      <trkpt lon="-3.157174" lat="52.984459"><ele>225.348770</ele><time>2021-09-01T09:16:36Z</time><extensions><speed>1.188441</speed><course>328.321899</course><hAcc>0.871486</hAcc><vAcc>0.662214</vAcc></extensions></trkpt>
      <trkpt lon="-3.157182" lat="52.984469"><ele>225.380219</ele><time>2021-09-01T09:16:37Z</time><extensions><speed>1.214540</speed><course>326.366882</course><hAcc>0.870237</hAcc><vAcc>0.658270</vAcc></extensions></trkpt>
      <trkpt lon="-3.157189" lat="52.984479"><ele>225.417587</ele><time>2021-09-01T09:16:38Z</time><extensions><speed>1.243441</speed><course>331.362152</course><hAcc>0.868972</hAcc><vAcc>0.654250</vAcc></extensions></trkpt>
      <trkpt lon="-3.157197" lat="52.984489"><ele>225.460632</ele><time>2021-09-01T09:16:39Z</time><extensions><speed>1.274734</speed><course>329.394318</course><hAcc>0.867714</hAcc><vAcc>0.650236</vAcc></extensions></trkpt>
      <trkpt lon="-3.157206" lat="52.984500"><ele>225.508957</ele><time>2021-09-01T09:16:40Z</time><extensions><speed>1.307415</speed><course>332.464355</course><hAcc>0.866489</hAcc><vAcc>0.646316</vAcc></extensions></trkpt>
      <trkpt lon="-3.157214" lat="52.984510"><ele>225.562592</ele><time>2021-09-01T09:16:41Z</time><extensions><speed>1.340011</speed><course>335.973755</course><hAcc>0.865322</hAcc><vAcc>0.642570</vAcc></extensions></trkpt>
      <trkpt lon="-3.157223" lat="52.984521"><ele>225.621719</ele><time>2021-09-01T09:16:42Z</time><extensions><speed>1.370976</speed><course>334.588074</course><hAcc>0.864235</hAcc><vAcc>0.639072</vAcc></extensions></trkpt>
      <trkpt lon="-3.157232" lat="52.984533"><ele>225.685562</ele><time>2021-09-01T09:16:43Z</time><extensions><speed>1.399498</speed><course>337.558624</course><hAcc>0.863250</hAcc><vAcc>0.635897</vAcc></extensions></trkpt>
      <trkpt lon="-3.157241" lat="52.984544"><ele>225.752640</ele><time>2021-09-01T09:16:44Z</time><extensions><speed>1.425407</speed><course>337.377197</course><hAcc>0.862387</hAcc><vAcc>0.633113</vAcc></extensions></trkpt>
      <trkpt lon="-3.157251" lat="52.984555"><ele>225.821640</ele><time>2021-09-01T09:16:45Z</time><extensions><speed>1.447902</speed><course>334.236908</course><hAcc>0.861663</hAcc><vAcc>0.630779</vAcc></extensions></trkpt>
      <trkpt lon="-3.157262" lat="52.984567"><ele>225.891739</ele><time>2021-09-01T09:16:46Z</time><extensions><speed>1.466475</speed><course>333.116516</course><hAcc>0.861087</hAcc><vAcc>0.628924</vAcc></extensions></trkpt>
      <trkpt lon="-3.157272" lat="52.984578"><ele>225.962738</ele><time>2021-09-01T09:16:47Z</time><extensions><speed>1.481732</speed><course>331.193451</course><hAcc>0.860656</hAcc><vAcc>0.627543</vAcc></extensions></trkpt>
      <trkpt lon="-3.157283" lat="52.984590"><ele>226.034576</ele><time>2021-09-01T09:16:48Z</time><extensions><speed>1.494160</speed><course>327.071960</course><hAcc>0.860358</hAcc><vAcc>0.626595</vAcc></extensions></trkpt>
      <trkpt lon="-3.157295" lat="52.984602"><ele>226.106995</ele><time>2021-09-01T09:16:49Z</time><extensions><speed>1.504251</speed><course>323.969269</course><hAcc>0.860173</hAcc><vAcc>0.626014</vAcc></extensions></trkpt>
      <trkpt lon="-3.157306" lat="52.984613"><ele>226.179688</ele><time>2021-09-01T09:16:50Z</time><extensions><speed>1.512657</speed><course>325.035614</course><hAcc>0.860078</hAcc><vAcc>0.625722</vAcc></extensions></trkpt>
      <trkpt lon="-3.157318" lat="52.984625"><ele>226.252701</ele><time>2021-09-01T09:16:51Z</time><extensions><speed>1.519464</speed><course>325.080109</course><hAcc>0.860051</hAcc><vAcc>0.625645</vAcc></extensions></trkpt>
      <trkpt lon="-3.157331" lat="52.984636"><ele>226.326538</ele><time>2021-09-01T09:16:52Z</time><extensions><speed>1.524245</speed><course>320.596710</course><hAcc>0.860074</hAcc><vAcc>0.625727</vAcc></extensions></trkpt>
      <trkpt lon="-3.157343" lat="52.984648"><ele>226.401443</ele><time>2021-09-01T09:16:53Z</time><extensions><speed>1.526282</speed><course>325.164429</course><hAcc>0.860137</hAcc><vAcc>0.625935</vAcc></extensions></trkpt>
      <trkpt lon="-3.157355" lat="52.984659"><ele>226.476746</ele><time>2021-09-01T09:16:54Z</time><extensions><speed>1.525726</speed><course>323.691345</course><hAcc>0.860233</hAcc><vAcc>0.626247</vAcc></extensions></trkpt>
      <trkpt lon="-3.157368" lat="52.984671"><ele>226.551178</ele><time>2021-09-01T09:16:55Z</time><extensions><speed>1.523547</speed><course>332.829010</course><hAcc>0.860353</hAcc><vAcc>0.626635</vAcc></extensions></trkpt>
      <trkpt lon="-3.157381" lat="52.984682"><ele>226.623245</ele><time>2021-09-01T09:16:56Z</time><extensions><speed>1.520506</speed><course>333.287506</course><hAcc>0.860484</hAcc><vAcc>0.627060</vAcc></extensions></trkpt>
      <trkpt lon="-3.157394" lat="52.984693"><ele>226.691711</ele><time>2021-09-01T09:16:57Z</time><extensions><speed>1.517461</speed><course>320.664337</course><hAcc>0.860614</hAcc><vAcc>0.627482</vAcc></extensions></trkpt>
      <trkpt lon="-3.157408" lat="52.984704"><ele>226.755722</ele><time>2021-09-01T09:16:58Z</time><extensions><speed>1.515112</speed><course>319.581818</course><hAcc>0.860734</hAcc><vAcc>0.627872</vAcc></extensions></trkpt>
      <trkpt lon="-3.157421" lat="52.984715"><ele>226.814896</ele><time>2021-09-01T09:16:59Z</time><extensions><speed>1.514056</speed><course>320.113190</course><hAcc>0.860837</hAcc><vAcc>0.628214</vAcc></extensions></trkpt>
      <trkpt lon="-3.157435" lat="52.984725"><ele>226.869171</ele><time>2021-09-01T09:17:00Z</time><extensions><speed>1.514414</speed><course>325.625488</course><hAcc>0.860923</hAcc><vAcc>0.628506</vAcc></extensions></trkpt>
      <trkpt lon="-3.157449" lat="52.984736"><ele>226.918411</ele><time>2021-09-01T09:17:01Z</time><extensions><speed>1.515430</speed><course>320.008789</course><hAcc>0.860988</hAcc><vAcc>0.628738</vAcc></extensions></trkpt>
      <trkpt lon="-3.157464" lat="52.984747"><ele>226.962524</ele><time>2021-09-01T09:17:02Z</time><extensions><speed>1.517168</speed><course>318.909088</course><hAcc>0.861020</hAcc><vAcc>0.628868</vAcc></extensions></trkpt>
      <trkpt lon="-3.157478" lat="52.984757"><ele>227.001877</ele><time>2021-09-01T09:17:03Z</time><extensions><speed>1.520066</speed><course>323.298828</course><hAcc>0.860996</hAcc><vAcc>0.628821</vAcc></extensions></trkpt>
      <trkpt lon="-3.157493" lat="52.984767"><ele>227.037781</ele><time>2021-09-01T09:17:04Z</time><extensions><speed>1.523997</speed><course>319.843567</course><hAcc>0.860897</hAcc><vAcc>0.628531</vAcc></extensions></trkpt>
      <trkpt lon="-3.157508" lat="52.984777"><ele>227.071426</ele><time>2021-09-01T09:17:05Z</time><extensions><speed>1.528598</speed><course>314.311829</course><hAcc>0.860716</hAcc><vAcc>0.627969</vAcc></extensions></trkpt>
      <trkpt lon="-3.157524" lat="52.984788"><ele>227.102997</ele><time>2021-09-01T09:17:06Z</time><extensions><speed>1.532763</speed><course>319.089264</course><hAcc>0.860453</hAcc><vAcc>0.627142</vAcc></extensions></trkpt>
      <trkpt lon="-3.157540" lat="52.984798"><ele>227.131805</ele><time>2021-09-01T09:17:07Z</time><extensions><speed>1.535449</speed><course>322.114319</course><hAcc>0.860121</hAcc><vAcc>0.626088</vAcc></extensions></trkpt>
      <trkpt lon="-3.157556" lat="52.984807"><ele>227.156937</ele><time>2021-09-01T09:17:08Z</time><extensions><speed>1.535941</speed><course>313.771057</course><hAcc>0.859740</hAcc><vAcc>0.624874</vAcc></extensions></trkpt>
      <trkpt lon="-3.157572" lat="52.984817"><ele>227.177658</ele><time>2021-09-01T09:17:09Z</time><extensions><speed>1.533259</speed><course>306.383820</course><hAcc>0.859336</hAcc><vAcc>0.623585</vAcc></extensions></trkpt>
      <trkpt lon="-3.157588" lat="52.984827"><ele>227.193817</ele><time>2021-09-01T09:17:10Z</time><extensions><speed>1.526699</speed><course>308.594727</course><hAcc>0.858940</hAcc><vAcc>0.622309</vAcc></extensions></trkpt>
      <trkpt lon="-3.157604" lat="52.984836"><ele>227.205811</ele><time>2021-09-01T09:17:11Z</time><extensions><speed>1.516171</speed><course>313.438293</course><hAcc>0.858580</hAcc><vAcc>0.621127</vAcc></extensions></trkpt>
      <trkpt lon="-3.157620" lat="52.984846"><ele>227.214294</ele><time>2021-09-01T09:17:12Z</time><extensions><speed>1.501919</speed><course>315.261749</course><hAcc>0.858281</hAcc><vAcc>0.620103</vAcc></extensions></trkpt>
      <trkpt lon="-3.157637" lat="52.984855"><ele>227.219925</ele><time>2021-09-01T09:17:13Z</time><extensions><speed>1.484510</speed><course>314.962799</course><hAcc>0.858063</hAcc><vAcc>0.619267</vAcc></extensions></trkpt>
      <trkpt lon="-3.157653" lat="52.984864"><ele>227.223389</ele><time>2021-09-01T09:17:14Z</time><extensions><speed>1.464537</speed><course>311.864380</course><hAcc>0.857932</hAcc><vAcc>0.618602</vAcc></extensions></trkpt>
      <trkpt lon="-3.157669" lat="52.984873"><ele>227.225723</ele><time>2021-09-01T09:17:15Z</time><extensions><speed>1.443029</speed><course>305.555115</course><hAcc>0.857874</hAcc><vAcc>0.618011</vAcc></extensions></trkpt>
      <trkpt lon="-3.157684" lat="52.984881"><ele>227.228394</ele><time>2021-09-01T09:17:16Z</time><extensions><speed>1.421525</speed><course>309.414368</course><hAcc>0.857858</hAcc><vAcc>0.617339</vAcc></extensions></trkpt>
      <trkpt lon="-3.157700" lat="52.984890"><ele>227.233215</ele><time>2021-09-01T09:17:17Z</time><extensions><speed>1.401713</speed><course>312.426361</course><hAcc>0.857853</hAcc><vAcc>0.616436</vAcc></extensions></trkpt>
      <trkpt lon="-3.157715" lat="52.984899"><ele>227.242050</ele><time>2021-09-01T09:17:18Z</time><extensions><speed>1.385462</speed><course>315.779877</course><hAcc>0.857848</hAcc><vAcc>0.615215</vAcc></extensions></trkpt>
      <trkpt lon="-3.157730" lat="52.984907"><ele>227.256409</ele><time>2021-09-01T09:17:19Z</time><extensions><speed>1.373372</speed><course>309.393494</course><hAcc>0.857847</hAcc><vAcc>0.613686</vAcc></extensions></trkpt>
      <trkpt lon="-3.157745" lat="52.984916"><ele>227.277481</ele><time>2021-09-01T09:17:20Z</time><extensions><speed>1.365274</speed><course>315.161163</course><hAcc>0.857883</hAcc><vAcc>0.611997</vAcc></extensions></trkpt>
      <trkpt lon="-3.157759" lat="52.984924"><ele>227.305847</ele><time>2021-09-01T09:17:21Z</time><extensions><speed>1.360977</speed><course>313.978088</course><hAcc>0.858007</hAcc><vAcc>0.610431</vAcc></extensions></trkpt>
      <trkpt lon="-3.157774" lat="52.984933"><ele>227.340973</ele><time>2021-09-01T09:17:22Z</time><extensions><speed>1.359956</speed><course>310.683502</course><hAcc>0.858259</hAcc><vAcc>0.609332</vAcc></extensions></trkpt>
      <trkpt lon="-3.157788" lat="52.984942"><ele>227.381256</ele><time>2021-09-01T09:17:23Z</time><extensions><speed>1.361348</speed><course>311.301880</course><hAcc>0.858643</hAcc><vAcc>0.609004</vAcc></extensions></trkpt>
      <trkpt lon="-3.157801" lat="52.984951"><ele>227.425232</ele><time>2021-09-01T09:17:24Z</time><extensions><speed>1.364068</speed><course>311.208435</course><hAcc>0.859130</hAcc><vAcc>0.609647</vAcc></extensions></trkpt>
      <trkpt lon="-3.157815" lat="52.984960"><ele>227.472198</ele><time>2021-09-01T09:17:25Z</time><extensions><speed>1.367396</speed><course>309.569458</course><hAcc>0.859689</hAcc><vAcc>0.611373</vAcc></extensions></trkpt>
      <trkpt lon="-3.157828" lat="52.984969"><ele>227.521545</ele><time>2021-09-01T09:17:26Z</time><extensions><speed>1.370554</speed><course>310.187012</course><hAcc>0.860325</hAcc><vAcc>0.614230</vAcc></extensions></trkpt>
      <trkpt lon="-3.157841" lat="52.984979"><ele>227.572510</ele><time>2021-09-01T09:17:27Z</time><extensions><speed>1.372673</speed><course>310.459808</course><hAcc>0.861077</hAcc><vAcc>0.618202</vAcc></extensions></trkpt>
      <trkpt lon="-3.157853" lat="52.984989"><ele>227.624496</ele><time>2021-09-01T09:17:29Z</time><extensions><speed>1.373858</speed><course>310.191071</course><hAcc>0.861988</hAcc><vAcc>0.623171</vAcc></extensions></trkpt>
      <trkpt lon="-3.157866" lat="52.984998"><ele>227.677216</ele><time>2021-09-01T09:17:29Z</time><extensions><speed>1.374795</speed><course>313.202332</course><hAcc>0.863108</hAcc><vAcc>0.628919</vAcc></extensions></trkpt>
      <trkpt lon="-3.157878" lat="52.985008"><ele>227.731384</ele><time>2021-09-01T09:17:30Z</time><extensions><speed>1.375886</speed><course>317.375305</course><hAcc>0.864448</hAcc><vAcc>0.635186</vAcc></extensions></trkpt>
      <trkpt lon="-3.157890" lat="52.985019"><ele>227.787689</ele><time>2021-09-01T09:17:31Z</time><extensions><speed>1.377051</speed><course>320.965942</course><hAcc>0.865945</hAcc><vAcc>0.641654</vAcc></extensions></trkpt>
      <trkpt lon="-3.157901" lat="52.985029"><ele>227.846054</ele><time>2021-09-01T09:17:32Z</time><extensions><speed>1.377870</speed><course>318.335114</course><hAcc>0.867537</hAcc><vAcc>0.648061</vAcc></extensions></trkpt>
      <trkpt lon="-3.157913" lat="52.985039"><ele>227.905792</ele><time>2021-09-01T09:17:33Z</time><extensions><speed>1.377980</speed><course>322.780487</course><hAcc>0.869160</hAcc><vAcc>0.654200</vAcc></extensions></trkpt>
      <trkpt lon="-3.157924" lat="52.985049"><ele>227.966675</ele><time>2021-09-01T09:17:34Z</time><extensions><speed>1.377264</speed><course>321.324005</course><hAcc>0.870755</hAcc><vAcc>0.659920</vAcc></extensions></trkpt>
      <trkpt lon="-3.157935" lat="52.985060"><ele>228.029083</ele><time>2021-09-01T09:17:35Z</time><extensions><speed>1.375966</speed><course>322.516296</course><hAcc>0.872270</hAcc><vAcc>0.665120</vAcc></extensions></trkpt>
      <trkpt lon="-3.157947" lat="52.985070"><ele>228.093399</ele><time>2021-09-01T09:17:36Z</time><extensions><speed>1.374446</speed><course>319.995483</course><hAcc>0.873663</hAcc><vAcc>0.669732</vAcc></extensions></trkpt>
      <trkpt lon="-3.157958" lat="52.985080"><ele>228.160004</ele><time>2021-09-01T09:17:37Z</time><extensions><speed>1.373134</speed><course>324.182892</course><hAcc>0.874901</hAcc><vAcc>0.673711</vAcc></extensions></trkpt>
      <trkpt lon="-3.157969" lat="52.985091"><ele>228.229324</ele><time>2021-09-01T09:17:38Z</time><extensions><speed>1.372362</speed><course>328.616821</course><hAcc>0.875964</hAcc><vAcc>0.677038</vAcc></extensions></trkpt>
      <trkpt lon="-3.157980" lat="52.985101"><ele>228.301498</ele><time>2021-09-01T09:17:39Z</time><extensions><speed>1.372022</speed><course>324.016815</course><hAcc>0.876839</hAcc><vAcc>0.679716</vAcc></extensions></trkpt>
      <trkpt lon="-3.157991" lat="52.985111"><ele>228.376053</ele><time>2021-09-01T09:17:40Z</time><extensions><speed>1.371755</speed><course>329.825897</course><hAcc>0.877525</hAcc><vAcc>0.681766</vAcc></extensions></trkpt>
      <trkpt lon="-3.158002" lat="52.985122"><ele>228.452301</ele><time>2021-09-01T09:17:41Z</time><extensions><speed>1.371733</speed><course>327.868408</course><hAcc>0.878026</hAcc><vAcc>0.683213</vAcc></extensions></trkpt>
      <trkpt lon="-3.158014" lat="52.985132"><ele>228.529922</ele><time>2021-09-01T09:17:42Z</time><extensions><speed>1.372466</speed><course>336.001526</course><hAcc>0.878352</hAcc><vAcc>0.684091</vAcc></extensions></trkpt>
      <trkpt lon="-3.158025" lat="52.985142"><ele>228.608688</ele><time>2021-09-01T09:17:43Z</time><extensions><speed>1.373613</speed><course>319.189575</course><hAcc>0.878519</hAcc><vAcc>0.684444</vAcc></extensions></trkpt>
      <trkpt lon="-3.158036" lat="52.985153"><ele>228.688126</ele><time>2021-09-01T09:17:44Z</time><extensions><speed>1.374132</speed><course>314.045624</course><hAcc>0.878545</hAcc><vAcc>0.684329</vAcc></extensions></trkpt>
      <trkpt lon="-3.158046" lat="52.985163"><ele>228.767899</ele><time>2021-09-01T09:17:45Z</time><extensions><speed>1.373334</speed><course>316.798950</course><hAcc>0.878453</hAcc><vAcc>0.683820</vAcc></extensions></trkpt>
      <trkpt lon="-3.158057" lat="52.985174"><ele>228.848160</ele><time>2021-09-01T09:17:46Z</time><extensions><speed>1.371329</speed><course>316.381958</course><hAcc>0.878266</hAcc><vAcc>0.683007</vAcc></extensions></trkpt>
      <trkpt lon="-3.158068" lat="52.985184"><ele>228.929031</ele><time>2021-09-01T09:17:48Z</time><extensions><speed>1.367968</speed><course>324.109985</course><hAcc>0.877992</hAcc><vAcc>0.681975</vAcc></extensions></trkpt>
      <trkpt lon="-3.158078" lat="52.985195"><ele>229.010040</ele><time>2021-09-01T09:17:49Z</time><extensions><speed>1.363093</speed><course>319.248718</course><hAcc>0.877651</hAcc><vAcc>0.680816</vAcc></extensions></trkpt>
      <trkpt lon="-3.158088" lat="52.985205"><ele>229.091171</ele><time>2021-09-01T09:17:50Z</time><extensions><speed>1.357106</speed><course>322.755310</course><hAcc>0.877279</hAcc><vAcc>0.679607</vAcc></extensions></trkpt>
      <trkpt lon="-3.158098" lat="52.985216"><ele>229.172867</ele><time>2021-09-01T09:17:51Z</time><extensions><speed>1.350271</speed><course>326.625031</course><hAcc>0.876886</hAcc><vAcc>0.678385</vAcc></extensions></trkpt>
      <trkpt lon="-3.158108" lat="52.985226"><ele>229.255478</ele><time>2021-09-01T09:17:52Z</time><extensions><speed>1.342768</speed><course>328.024994</course><hAcc>0.876478</hAcc><vAcc>0.677151</vAcc></extensions></trkpt>
      <trkpt lon="-3.158118" lat="52.985237"><ele>229.338760</ele><time>2021-09-01T09:17:53Z</time><extensions><speed>1.334841</speed><course>332.378082</course><hAcc>0.876059</hAcc><vAcc>0.675873</vAcc></extensions></trkpt>
      <trkpt lon="-3.158127" lat="52.985247"><ele>229.422165</ele><time>2021-09-01T09:17:54Z</time><extensions><speed>1.326804</speed><course>332.526154</course><hAcc>0.875631</hAcc><vAcc>0.674499</vAcc></extensions></trkpt>
      <trkpt lon="-3.158137" lat="52.985258"><ele>229.505432</ele><time>2021-09-01T09:17:55Z</time><extensions><speed>1.318730</speed><course>335.486633</course><hAcc>0.875199</hAcc><vAcc>0.672965</vAcc></extensions></trkpt>
      <trkpt lon="-3.158146" lat="52.985268"><ele>229.588791</ele><time>2021-09-01T09:17:56Z</time><extensions><speed>1.310436</speed><course>336.016846</course><hAcc>0.874774</hAcc><vAcc>0.671220</vAcc></extensions></trkpt>
      <trkpt lon="-3.158156" lat="52.985278"><ele>229.672043</ele><time>2021-09-01T09:17:57Z</time><extensions><speed>1.302243</speed><course>334.888000</course><hAcc>0.874379</hAcc><vAcc>0.669233</vAcc></extensions></trkpt>
      <trkpt lon="-3.158165" lat="52.985289"><ele>229.754822</ele><time>2021-09-01T09:17:58Z</time><extensions><speed>1.295353</speed><course>333.393311</course><hAcc>0.874044</hAcc><vAcc>0.667008</vAcc></extensions></trkpt>
      <trkpt lon="-3.158174" lat="52.985299"><ele>229.837250</ele><time>2021-09-01T09:17:58Z</time><extensions><speed>1.290869</speed><course>318.935883</course><hAcc>0.873823</hAcc><vAcc>0.664590</vAcc></extensions></trkpt>
      <trkpt lon="-3.158183" lat="52.985309"><ele>229.919815</ele><time>2021-09-01T09:17:59Z</time><extensions><speed>1.289214</speed><course>311.891724</course><hAcc>0.873750</hAcc><vAcc>0.662025</vAcc></extensions></trkpt>
      <trkpt lon="-3.158191" lat="52.985320"><ele>230.002777</ele><time>2021-09-01T09:18:00Z</time><extensions><speed>1.290536</speed><course>312.578461</course><hAcc>0.873832</hAcc><vAcc>0.659362</vAcc></extensions></trkpt>
      <trkpt lon="-3.158199" lat="52.985330"><ele>230.086975</ele><time>2021-09-01T09:18:01Z</time><extensions><speed>1.294498</speed><course>320.602325</course><hAcc>0.874065</hAcc><vAcc>0.656659</vAcc></extensions></trkpt>
      <trkpt lon="-3.158207" lat="52.985341"><ele>230.173325</ele><time>2021-09-01T09:18:02Z</time><extensions><speed>1.300427</speed><course>323.639648</course><hAcc>0.874412</hAcc><vAcc>0.653961</vAcc></extensions></trkpt>
      <trkpt lon="-3.158215" lat="52.985352"><ele>230.262360</ele><time>2021-09-01T09:18:03Z</time><extensions><speed>1.307708</speed><course>325.641083</course><hAcc>0.874783</hAcc><vAcc>0.651301</vAcc></extensions></trkpt>
      <trkpt lon="-3.158222" lat="52.985363"><ele>230.354767</ele><time>2021-09-01T09:18:04Z</time><extensions><speed>1.316050</speed><course>324.286163</course><hAcc>0.875046</hAcc><vAcc>0.648695</vAcc></extensions></trkpt>
      <trkpt lon="-3.158229" lat="52.985374"><ele>230.451691</ele><time>2021-09-01T09:18:05Z</time><extensions><speed>1.325193</speed><course>330.884674</course><hAcc>0.875063</hAcc><vAcc>0.646144</vAcc></extensions></trkpt>
      <trkpt lon="-3.158236" lat="52.985385"><ele>230.554352</ele><time>2021-09-01T09:18:06Z</time><extensions><speed>1.334566</speed><course>342.591980</course><hAcc>0.874742</hAcc><vAcc>0.643648</vAcc></extensions></trkpt>
      <trkpt lon="-3.158242" lat="52.985396"><ele>230.663818</ele><time>2021-09-01T09:18:07Z</time><extensions><speed>1.343227</speed><course>340.473694</course><hAcc>0.874072</hAcc><vAcc>0.641218</vAcc></extensions></trkpt>
      <trkpt lon="-3.158249" lat="52.985408"><ele>230.780930</ele><time>2021-09-01T09:18:08Z</time><extensions><speed>1.350026</speed><course>337.459930</course><hAcc>0.873113</hAcc><vAcc>0.638896</vAcc></extensions></trkpt>
      <trkpt lon="-3.158255" lat="52.985419"><ele>230.906006</ele><time>2021-09-01T09:18:09Z</time><extensions><speed>1.354407</speed><course>334.977905</course><hAcc>0.871962</hAcc><vAcc>0.636762</vAcc></extensions></trkpt>
      <trkpt lon="-3.158262" lat="52.985431"><ele>231.038986</ele><time>2021-09-01T09:18:10Z</time><extensions><speed>1.356516</speed><course>334.909821</course><hAcc>0.870718</hAcc><vAcc>0.634926</vAcc></extensions></trkpt>
      <trkpt lon="-3.158269" lat="52.985442"><ele>231.179794</ele><time>2021-09-01T09:18:11Z</time><extensions><speed>1.356815</speed><course>335.401093</course><hAcc>0.869473</hAcc><vAcc>0.633514</vAcc></extensions></trkpt>
      <trkpt lon="-3.158276" lat="52.985454"><ele>231.328156</ele><time>2021-09-01T09:18:12Z</time><extensions><speed>1.355314</speed><course>335.416534</course><hAcc>0.868307</hAcc><vAcc>0.632647</vAcc></extensions></trkpt>
      <trkpt lon="-3.158283" lat="52.985465"><ele>231.482834</ele><time>2021-09-01T09:18:13Z</time><extensions><speed>1.352254</speed><course>333.502777</course><hAcc>0.867286</hAcc><vAcc>0.632410</vAcc></extensions></trkpt>
      <trkpt lon="-3.158290" lat="52.985476"><ele>231.641693</ele><time>2021-09-01T09:18:14Z</time><extensions><speed>1.348025</speed><course>334.704010</course><hAcc>0.866465</hAcc><vAcc>0.632834</vAcc></extensions></trkpt>
      <trkpt lon="-3.158297" lat="52.985488"><ele>231.802277</ele><time>2021-09-01T09:18:15Z</time><extensions><speed>1.343035</speed><course>336.400421</course><hAcc>0.865892</hAcc><vAcc>0.633896</vAcc></extensions></trkpt>
      <trkpt lon="-3.158305" lat="52.985499"><ele>231.962814</ele><time>2021-09-01T09:18:16Z</time><extensions><speed>1.338108</speed><course>347.265839</course><hAcc>0.865594</hAcc><vAcc>0.635525</vAcc></extensions></trkpt>
      <trkpt lon="-3.158313" lat="52.985510"><ele>232.122314</ele><time>2021-09-01T09:18:17Z</time><extensions><speed>1.333348</speed><course>344.062927</course><hAcc>0.865570</hAcc><vAcc>0.637623</vAcc></extensions></trkpt>
      <trkpt lon="-3.158321" lat="52.985521"><ele>232.279831</ele><time>2021-09-01T09:18:18Z</time><extensions><speed>1.328452</speed><course>337.032654</course><hAcc>0.865791</hAcc><vAcc>0.640068</vAcc></extensions></trkpt>
      <trkpt lon="-3.158329" lat="52.985531"><ele>232.433853</ele><time>2021-09-01T09:18:19Z</time><extensions><speed>1.322908</speed><course>338.548584</course><hAcc>0.866210</hAcc><vAcc>0.642723</vAcc></extensions></trkpt>
      <trkpt lon="-3.158338" lat="52.985542"><ele>232.582748</ele><time>2021-09-01T09:18:20Z</time><extensions><speed>1.316120</speed><course>340.790558</course><hAcc>0.866769</hAcc><vAcc>0.645447</vAcc></extensions></trkpt>
      <trkpt lon="-3.158348" lat="52.985552"><ele>232.725449</ele><time>2021-09-01T09:18:21Z</time><extensions><speed>1.307315</speed><course>331.528198</course><hAcc>0.867415</hAcc><vAcc>0.648124</vAcc></extensions></trkpt>
      <trkpt lon="-3.158357" lat="52.985563"><ele>232.860825</ele><time>2021-09-01T09:18:22Z</time><extensions><speed>1.295515</speed><course>326.705475</course><hAcc>0.868100</hAcc><vAcc>0.650678</vAcc></extensions></trkpt>
      <trkpt lon="-3.158367" lat="52.985573"><ele>232.987762</ele><time>2021-09-01T09:18:23Z</time><extensions><speed>1.280081</speed><course>334.332062</course><hAcc>0.868793</hAcc><vAcc>0.653068</vAcc></extensions></trkpt>
      <trkpt lon="-3.158376" lat="52.985582"><ele>233.105835</ele><time>2021-09-01T09:18:24Z</time><extensions><speed>1.260952</speed><course>321.684448</course><hAcc>0.869474</hAcc><vAcc>0.655295</vAcc></extensions></trkpt>
      <trkpt lon="-3.158386" lat="52.985592"><ele>233.215179</ele><time>2021-09-01T09:18:25Z</time><extensions><speed>1.238553</speed><course>319.446838</course><hAcc>0.870135</hAcc><vAcc>0.657386</vAcc></extensions></trkpt>
      <trkpt lon="-3.158396" lat="52.985601"><ele>233.315628</ele><time>2021-09-01T09:18:26Z</time><extensions><speed>1.213455</speed><course>327.299927</course><hAcc>0.870772</hAcc><vAcc>0.659373</vAcc></extensions></trkpt>
      <trkpt lon="-3.158406" lat="52.985610"><ele>233.406845</ele><time>2021-09-01T09:18:27Z</time><extensions><speed>1.186858</speed><course>327.362518</course><hAcc>0.871387</hAcc><vAcc>0.661287</vAcc></extensions></trkpt>
      <trkpt lon="-3.158416" lat="52.985619"><ele>233.488708</ele><time>2021-09-01T09:18:28Z</time><extensions><speed>1.160164</speed><course>320.449799</course><hAcc>0.871979</hAcc><vAcc>0.663143</vAcc></extensions></trkpt>
      <trkpt lon="-3.158425" lat="52.985627"><ele>233.561188</ele><time>2021-09-01T09:18:29Z</time><extensions><speed>1.134676</speed><course>323.666901</course><hAcc>0.872547</hAcc><vAcc>0.664937</vAcc></extensions></trkpt>
      <trkpt lon="-3.158435" lat="52.985636"><ele>233.624069</ele><time>2021-09-01T09:18:30Z</time><extensions><speed>1.111895</speed><course>325.310486</course><hAcc>0.873085</hAcc><vAcc>0.666651</vAcc></extensions></trkpt>
      <trkpt lon="-3.158445" lat="52.985644"><ele>233.677277</ele><time>2021-09-01T09:18:31Z</time><extensions><speed>1.092847</speed><course>323.024933</course><hAcc>0.873587</hAcc><vAcc>0.668254</vAcc></extensions></trkpt>
      <trkpt lon="-3.158454" lat="52.985652"><ele>233.721222</ele><time>2021-09-01T09:18:32Z</time><extensions><speed>1.078279</speed><course>321.641022</course><hAcc>0.874046</hAcc><vAcc>0.669721</vAcc></extensions></trkpt>
      <trkpt lon="-3.158464" lat="52.985659"><ele>233.756622</ele><time>2021-09-01T09:18:33Z</time><extensions><speed>1.068473</speed><course>323.471222</course><hAcc>0.874456</hAcc><vAcc>0.671032</vAcc></extensions></trkpt>
      <trkpt lon="-3.158473" lat="52.985667"><ele>233.784088</ele><time>2021-09-01T09:18:34Z</time><extensions><speed>1.063422</speed><course>324.875793</course><hAcc>0.874812</hAcc><vAcc>0.672179</vAcc></extensions></trkpt>
      <trkpt lon="-3.158482" lat="52.985675"><ele>233.804382</ele><time>2021-09-01T09:18:35Z</time><extensions><speed>1.062664</speed><course>318.989594</course><hAcc>0.875110</hAcc><vAcc>0.673155</vAcc></extensions></trkpt>
      <trkpt lon="-3.158491" lat="52.985683"><ele>233.818985</ele><time>2021-09-01T09:18:36Z</time><extensions><speed>1.064486</speed><course>325.887390</course><hAcc>0.875343</hAcc><vAcc>0.673941</vAcc></extensions></trkpt>
      <trkpt lon="-3.158501" lat="52.985690"><ele>233.830231</ele><time>2021-09-01T09:18:37Z</time><extensions><speed>1.067159</speed><course>320.176544</course><hAcc>0.875505</hAcc><vAcc>0.674505</vAcc></extensions></trkpt>
      <trkpt lon="-3.158510" lat="52.985698"><ele>233.840668</ele><time>2021-09-01T09:18:38Z</time><extensions><speed>1.069688</speed><course>316.970215</course><hAcc>0.875588</hAcc><vAcc>0.674811</vAcc></extensions></trkpt>
      <trkpt lon="-3.158518" lat="52.985706"><ele>233.852417</ele><time>2021-09-01T09:18:39Z</time><extensions><speed>1.071466</speed><course>317.579376</course><hAcc>0.875587</hAcc><vAcc>0.674835</vAcc></extensions></trkpt>
      <trkpt lon="-3.158527" lat="52.985714"><ele>233.867111</ele><time>2021-09-01T09:18:40Z</time><extensions><speed>1.072807</speed><course>318.426422</course><hAcc>0.875502</hAcc><vAcc>0.674568</vAcc></extensions></trkpt>
      <trkpt lon="-3.158535" lat="52.985723"><ele>233.886200</ele><time>2021-09-01T09:18:41Z</time><extensions><speed>1.074117</speed><course>326.252594</course><hAcc>0.875335</hAcc><vAcc>0.674010</vAcc></extensions></trkpt>
      <trkpt lon="-3.158543" lat="52.985731"><ele>233.910370</ele><time>2021-09-01T09:18:42Z</time><extensions><speed>1.075101</speed><course>323.145020</course><hAcc>0.875095</hAcc><vAcc>0.673183</vAcc></extensions></trkpt>
      <trkpt lon="-3.158551" lat="52.985740"><ele>233.939484</ele><time>2021-09-01T09:18:43Z</time><extensions><speed>1.075861</speed><course>325.683777</course><hAcc>0.874795</hAcc><vAcc>0.672134</vAcc></extensions></trkpt>
      <trkpt lon="-3.158558" lat="52.985748"><ele>233.973495</ele><time>2021-09-01T09:18:44Z</time><extensions><speed>1.076935</speed><course>328.591705</course><hAcc>0.874455</hAcc><vAcc>0.670935</vAcc></extensions></trkpt>
      <trkpt lon="-3.158566" lat="52.985757"><ele>234.012726</ele><time>2021-09-01T09:18:45Z</time><extensions><speed>1.079191</speed><course>330.002411</course><hAcc>0.874097</hAcc><vAcc>0.669670</vAcc></extensions></trkpt>
      <trkpt lon="-3.158572" lat="52.985766"><ele>234.057419</ele><time>2021-09-01T09:18:46Z</time><extensions><speed>1.083709</speed><course>336.475830</course><hAcc>0.873744</hAcc><vAcc>0.668422</vAcc></extensions></trkpt>
      <trkpt lon="-3.158579" lat="52.985774"><ele>234.107971</ele><time>2021-09-01T09:18:47Z</time><extensions><speed>1.091431</speed><course>344.051849</course><hAcc>0.873419</hAcc><vAcc>0.667264</vAcc></extensions></trkpt>
      <trkpt lon="-3.158586" lat="52.985783"><ele>234.164658</ele><time>2021-09-01T09:18:49Z</time><extensions><speed>1.103024</speed><course>336.407532</course><hAcc>0.873122</hAcc><vAcc>0.666243</vAcc></extensions></trkpt>
      <trkpt lon="-3.158593" lat="52.985793"><ele>234.227341</ele><time>2021-09-01T09:18:50Z</time><extensions><speed>1.118440</speed><course>333.640045</course><hAcc>0.872873</hAcc><vAcc>0.665420</vAcc></extensions></trkpt>
      <trkpt lon="-3.158599" lat="52.985802"><ele>234.296738</ele><time>2021-09-01T09:18:51Z</time><extensions><speed>1.136683</speed><course>342.498993</course><hAcc>0.872707</hAcc><vAcc>0.664862</vAcc></extensions></trkpt>
      <trkpt lon="-3.158607" lat="52.985811"><ele>234.373886</ele><time>2021-09-01T09:18:52Z</time><extensions><speed>1.156300</speed><course>346.370605</course><hAcc>0.872638</hAcc><vAcc>0.664620</vAcc></extensions></trkpt>
      <trkpt lon="-3.158614" lat="52.985821"><ele>234.459610</ele><time>2021-09-01T09:18:53Z</time><extensions><speed>1.176520</speed><course>342.144836</course><hAcc>0.872677</hAcc><vAcc>0.664734</vAcc></extensions></trkpt>
      <trkpt lon="-3.158622" lat="52.985830"><ele>234.554581</ele><time>2021-09-01T09:18:54Z</time><extensions><speed>1.197547</speed><course>335.813446</course><hAcc>0.872831</hAcc><vAcc>0.665236</vAcc></extensions></trkpt>
      <trkpt lon="-3.158630" lat="52.985840"><ele>234.659103</ele><time>2021-09-01T09:18:55Z</time><extensions><speed>1.219544</speed><course>332.699371</course><hAcc>0.873107</hAcc><vAcc>0.666149</vAcc></extensions></trkpt>
      <trkpt lon="-3.158638" lat="52.985850"><ele>234.772781</ele><time>2021-09-01T09:18:56Z</time><extensions><speed>1.242051</speed><course>329.959167</course><hAcc>0.873503</hAcc><vAcc>0.667486</vAcc></extensions></trkpt>
      <trkpt lon="-3.158647" lat="52.985860"><ele>234.894318</ele><time>2021-09-01T09:18:57Z</time><extensions><speed>1.264617</speed><course>328.573547</course><hAcc>0.874015</hAcc><vAcc>0.669234</vAcc></extensions></trkpt>
      <trkpt lon="-3.158656" lat="52.985870"><ele>235.021896</ele><time>2021-09-01T09:18:58Z</time><extensions><speed>1.286521</speed><course>326.699219</course><hAcc>0.874625</hAcc><vAcc>0.671334</vAcc></extensions></trkpt>
      <trkpt lon="-3.158666" lat="52.985880"><ele>235.153458</ele><time>2021-09-01T09:18:59Z</time><extensions><speed>1.306529</speed><course>323.768890</course><hAcc>0.875308</hAcc><vAcc>0.673681</vAcc></extensions></trkpt>
      <trkpt lon="-3.158676" lat="52.985890"><ele>235.286987</ele><time>2021-09-01T09:19:00Z</time><extensions><speed>1.324391</speed><course>323.826019</course><hAcc>0.876031</hAcc><vAcc>0.676139</vAcc></extensions></trkpt>
      <trkpt lon="-3.158687" lat="52.985900"><ele>235.420746</ele><time>2021-09-01T09:19:01Z</time><extensions><speed>1.340660</speed><course>332.271057</course><hAcc>0.876759</hAcc><vAcc>0.678577</vAcc></extensions></trkpt>
      <trkpt lon="-3.158698" lat="52.985910"><ele>235.552917</ele><time>2021-09-01T09:19:02Z</time><extensions><speed>1.355451</speed><course>333.951233</course><hAcc>0.877466</hAcc><vAcc>0.680890</vAcc></extensions></trkpt>
      <trkpt lon="-3.158709" lat="52.985920"><ele>235.681854</ele><time>2021-09-01T09:19:03Z</time><extensions><speed>1.368787</speed><course>329.776917</course><hAcc>0.878127</hAcc><vAcc>0.683004</vAcc></extensions></trkpt>
      <trkpt lon="-3.158720" lat="52.985931"><ele>235.806503</ele><time>2021-09-01T09:19:04Z</time><extensions><speed>1.380476</speed><course>319.463959</course><hAcc>0.878728</hAcc><vAcc>0.684877</vAcc></extensions></trkpt>
      <trkpt lon="-3.158732" lat="52.985941"><ele>235.926300</ele><time>2021-09-01T09:19:05Z</time><extensions><speed>1.390549</speed><course>318.313507</course><hAcc>0.879258</hAcc><vAcc>0.686489</vAcc></extensions></trkpt>
      <trkpt lon="-3.158745" lat="52.985951"><ele>236.040207</ele><time>2021-09-01T09:19:06Z</time><extensions><speed>1.399438</speed><course>318.491211</course><hAcc>0.879713</hAcc><vAcc>0.687841</vAcc></extensions></trkpt>
      <trkpt lon="-3.158758" lat="52.985961"><ele>236.146698</ele><time>2021-09-01T09:19:07Z</time><extensions><speed>1.407028</speed><course>324.025574</course><hAcc>0.880094</hAcc><vAcc>0.688955</vAcc></extensions></trkpt>
      <trkpt lon="-3.158771" lat="52.985971"><ele>236.244965</ele><time>2021-09-01T09:19:08Z</time><extensions><speed>1.413193</speed><course>330.489594</course><hAcc>0.880406</hAcc><vAcc>0.689856</vAcc></extensions></trkpt>
      <trkpt lon="-3.158784" lat="52.985980"><ele>236.335297</ele><time>2021-09-01T09:19:09Z</time><extensions><speed>1.417883</speed><course>319.490967</course><hAcc>0.880653</hAcc><vAcc>0.690569</vAcc></extensions></trkpt>
      <trkpt lon="-3.158798" lat="52.985990"><ele>236.418152</ele><time>2021-09-01T09:19:10Z</time><extensions><speed>1.421090</speed><course>318.785126</course><hAcc>0.880843</hAcc><vAcc>0.691113</vAcc></extensions></trkpt>
      <trkpt lon="-3.158812" lat="52.986000"><ele>236.493988</ele><time>2021-09-01T09:19:11Z</time><extensions><speed>1.423108</speed><course>319.524078</course><hAcc>0.880982</hAcc><vAcc>0.691505</vAcc></extensions></trkpt>
      <trkpt lon="-3.158826" lat="52.986009"><ele>236.563461</ele><time>2021-09-01T09:19:12Z</time><extensions><speed>1.423995</speed><course>320.200592</course><hAcc>0.881078</hAcc><vAcc>0.691760</vAcc></extensions></trkpt>
      <trkpt lon="-3.158841" lat="52.986018"><ele>236.627151</ele><time>2021-09-01T09:19:13Z</time><extensions><speed>1.423261</speed><course>316.905914</course><hAcc>0.881140</hAcc><vAcc>0.691895</vAcc></extensions></trkpt>
      <trkpt lon="-3.158855" lat="52.986028"><ele>236.685379</ele><time>2021-09-01T09:19:14Z</time><extensions><speed>1.420446</speed><course>304.890350</course><hAcc>0.881173</hAcc><vAcc>0.691939</vAcc></extensions></trkpt>
      <trkpt lon="-3.158870" lat="52.986037"><ele>236.738617</ele><time>2021-09-01T09:19:15Z</time><extensions><speed>1.415406</speed><course>307.400696</course><hAcc>0.881188</hAcc><vAcc>0.691924</vAcc></extensions></trkpt>
      <trkpt lon="-3.158885" lat="52.986046"><ele>236.787582</ele><time>2021-09-01T09:19:16Z</time><extensions><speed>1.408236</speed><course>312.802460</course><hAcc>0.881189</hAcc><vAcc>0.691882</vAcc></extensions></trkpt>
      <trkpt lon="-3.158899" lat="52.986055"><ele>236.832886</ele><time>2021-09-01T09:19:17Z</time><extensions><speed>1.399317</speed><course>316.368164</course><hAcc>0.881184</hAcc><vAcc>0.691842</vAcc></extensions></trkpt>
      <trkpt lon="-3.158914" lat="52.986064"><ele>236.874725</ele><time>2021-09-01T09:19:18Z</time><extensions><speed>1.388896</speed><course>316.320160</course><hAcc>0.881174</hAcc><vAcc>0.691812</vAcc></extensions></trkpt>
      <trkpt lon="-3.158929" lat="52.986073"><ele>236.913406</ele><time>2021-09-01T09:19:19Z</time><extensions><speed>1.377522</speed><course>316.450867</course><hAcc>0.881162</hAcc><vAcc>0.691792</vAcc></extensions></trkpt>
      <trkpt lon="-3.158943" lat="52.986081"><ele>236.949371</ele><time>2021-09-01T09:19:20Z</time><extensions><speed>1.366023</speed><course>319.349792</course><hAcc>0.881147</hAcc><vAcc>0.691767</vAcc></extensions></trkpt>
      <trkpt lon="-3.158957" lat="52.986090"><ele>236.982590</ele><time>2021-09-01T09:19:21Z</time><extensions><speed>1.355079</speed><course>313.071381</course><hAcc>0.881127</hAcc><vAcc>0.691728</vAcc></extensions></trkpt>
      <trkpt lon="-3.158972" lat="52.986098"><ele>237.012604</ele><time>2021-09-01T09:19:22Z</time><extensions><speed>1.345340</speed><course>306.006348</course><hAcc>0.881101</hAcc><vAcc>0.691666</vAcc></extensions></trkpt>
      <trkpt lon="-3.158986" lat="52.986107"><ele>237.039322</ele><time>2021-09-01T09:19:23Z</time><extensions><speed>1.337719</speed><course>311.452911</course><hAcc>0.881068</hAcc><vAcc>0.691574</vAcc></extensions></trkpt>
      <trkpt lon="-3.159000" lat="52.986116"><ele>237.062866</ele><time>2021-09-01T09:19:24Z</time><extensions><speed>1.332954</speed><course>310.591675</course><hAcc>0.881025</hAcc><vAcc>0.691446</vAcc></extensions></trkpt>
      <trkpt lon="-3.159014" lat="52.986124"><ele>237.083481</ele><time>2021-09-01T09:19:25Z</time><extensions><speed>1.331350</speed><course>316.620819</course><hAcc>0.880972</hAcc><vAcc>0.691282</vAcc></extensions></trkpt>
      <trkpt lon="-3.159027" lat="52.986133"><ele>237.101501</ele><time>2021-09-01T09:19:26Z</time><extensions><speed>1.332800</speed><course>320.076630</course><hAcc>0.880910</hAcc><vAcc>0.691081</vAcc></extensions></trkpt>
      <trkpt lon="-3.159041" lat="52.986141"><ele>237.117615</ele><time>2021-09-01T09:19:27Z</time><extensions><speed>1.336592</speed><course>314.990906</course><hAcc>0.880836</hAcc><vAcc>0.690847</vAcc></extensions></trkpt>
      <trkpt lon="-3.159056" lat="52.986150"><ele>237.132309</ele><time>2021-09-01T09:19:28Z</time><extensions><speed>1.341608</speed><course>313.547699</course><hAcc>0.880754</hAcc><vAcc>0.690585</vAcc></extensions></trkpt>
      <trkpt lon="-3.159070" lat="52.986158"><ele>237.145447</ele><time>2021-09-01T09:19:29Z</time><extensions><speed>1.346569</speed><course>312.795837</course><hAcc>0.880665</hAcc><vAcc>0.690295</vAcc></extensions></trkpt>
      <trkpt lon="-3.159084" lat="52.986167"><ele>237.156601</ele><time>2021-09-01T09:19:30Z</time><extensions><speed>1.350754</speed><course>316.185669</course><hAcc>0.880570</hAcc><vAcc>0.689982</vAcc></extensions></trkpt>
      <trkpt lon="-3.159098" lat="52.986175"><ele>237.165894</ele><time>2021-09-01T09:19:31Z</time><extensions><speed>1.353885</speed><course>317.614319</course><hAcc>0.880472</hAcc><vAcc>0.689647</vAcc></extensions></trkpt>
      <trkpt lon="-3.159113" lat="52.986184"><ele>237.173965</ele><time>2021-09-01T09:19:32Z</time><extensions><speed>1.355877</speed><course>316.517609</course><hAcc>0.880377</hAcc><vAcc>0.689303</vAcc></extensions></trkpt>
      <trkpt lon="-3.159127" lat="52.986192"><ele>237.181183</ele><time>2021-09-01T09:19:33Z</time><extensions><speed>1.356980</speed><course>310.556824</course><hAcc>0.880287</hAcc><vAcc>0.688968</vAcc></extensions></trkpt>
      <trkpt lon="-3.159142" lat="52.986201"><ele>237.187668</ele><time>2021-09-01T09:19:34Z</time><extensions><speed>1.357325</speed><course>304.635742</course><hAcc>0.880210</hAcc><vAcc>0.688673</vAcc></extensions></trkpt>
      <trkpt lon="-3.159156" lat="52.986209"><ele>237.194229</ele><time>2021-09-01T09:19:35Z</time><extensions><speed>1.356605</speed><course>315.495270</course><hAcc>0.880151</hAcc><vAcc>0.688445</vAcc></extensions></trkpt>
      <trkpt lon="-3.159170" lat="52.986218"><ele>237.202469</ele><time>2021-09-01T09:19:36Z</time><extensions><speed>1.354393</speed><course>313.552460</course><hAcc>0.880113</hAcc><vAcc>0.688303</vAcc></extensions></trkpt>
      <trkpt lon="-3.159184" lat="52.986227"><ele>237.213242</ele><time>2021-09-01T09:19:37Z</time><extensions><speed>1.350772</speed><course>313.420563</course><hAcc>0.880099</hAcc><vAcc>0.688255</vAcc></extensions></trkpt>
      <trkpt lon="-3.159198" lat="52.986235"><ele>237.226212</ele><time>2021-09-01T09:19:38Z</time><extensions><speed>1.346371</speed><course>317.431976</course><hAcc>0.880108</hAcc><vAcc>0.688298</vAcc></extensions></trkpt>
      <trkpt lon="-3.159212" lat="52.986244"><ele>237.240891</ele><time>2021-09-01T09:19:39Z</time><extensions><speed>1.341361</speed><course>314.662933</course><hAcc>0.880138</hAcc><vAcc>0.688419</vAcc></extensions></trkpt>
      <trkpt lon="-3.159226" lat="52.986253"><ele>237.257004</ele><time>2021-09-01T09:19:40Z</time><extensions><speed>1.335447</speed><course>316.217957</course><hAcc>0.880186</hAcc><vAcc>0.688604</vAcc></extensions></trkpt>
      <trkpt lon="-3.159240" lat="52.986261"><ele>237.274445</ele><time>2021-09-01T09:19:41Z</time><extensions><speed>1.328639</speed><course>314.471741</course><hAcc>0.880248</hAcc><vAcc>0.688837</vAcc></extensions></trkpt>
      <trkpt lon="-3.159253" lat="52.986270"><ele>237.293381</ele><time>2021-09-01T09:19:42Z</time><extensions><speed>1.321520</speed><course>317.281403</course><hAcc>0.880319</hAcc><vAcc>0.689104</vAcc></extensions></trkpt>
      <trkpt lon="-3.159266" lat="52.986279"><ele>237.314056</ele><time>2021-09-01T09:19:43Z</time><extensions><speed>1.314905</speed><course>311.230988</course><hAcc>0.880394</hAcc><vAcc>0.689388</vAcc></extensions></trkpt>
      <trkpt lon="-3.159279" lat="52.986288"><ele>237.335892</ele><time>2021-09-01T09:19:44Z</time><extensions><speed>1.309041</speed><course>311.227600</course><hAcc>0.880465</hAcc><vAcc>0.689667</vAcc></extensions></trkpt>
      <trkpt lon="-3.159291" lat="52.986297"><ele>237.357635</ele><time>2021-09-01T09:19:45Z</time><extensions><speed>1.303812</speed><course>310.576416</course><hAcc>0.880528</hAcc><vAcc>0.689919</vAcc></extensions></trkpt>
      <trkpt lon="-3.159304" lat="52.986306"><ele>237.378098</ele><time>2021-09-01T09:19:46Z</time><extensions><speed>1.299157</speed><course>313.656311</course><hAcc>0.880577</hAcc><vAcc>0.690120</vAcc></extensions></trkpt>
      <trkpt lon="-3.159316" lat="52.986315"><ele>237.396210</ele><time>2021-09-01T09:19:47Z</time><extensions><speed>1.294979</speed><course>319.881683</course><hAcc>0.880606</hAcc><vAcc>0.690247</vAcc></extensions></trkpt>
      <trkpt lon="-3.159328" lat="52.986324"><ele>237.411469</ele><time>2021-09-01T09:19:48Z</time><extensions><speed>1.291130</speed><course>322.545044</course><hAcc>0.880613</hAcc><vAcc>0.690284</vAcc></extensions></trkpt>
      <trkpt lon="-3.159340" lat="52.986333"><ele>237.423981</ele><time>2021-09-01T09:19:49Z</time><extensions><speed>1.287645</speed><course>315.377472</course><hAcc>0.880597</hAcc><vAcc>0.690224</vAcc></extensions></trkpt>
      <trkpt lon="-3.159351" lat="52.986342"><ele>237.433685</ele><time>2021-09-01T09:19:50Z</time><extensions><speed>1.284907</speed><course>321.220673</course><hAcc>0.880559</hAcc><vAcc>0.690069</vAcc></extensions></trkpt>
      <trkpt lon="-3.159363" lat="52.986352"><ele>237.440323</ele><time>2021-09-01T09:19:51Z</time><extensions><speed>1.283360</speed><course>319.716766</course><hAcc>0.880502</hAcc><vAcc>0.689835</vAcc></extensions></trkpt>
      <trkpt lon="-3.159374" lat="52.986361"><ele>237.443954</ele><time>2021-09-01T09:19:52Z</time><extensions><speed>1.283430</speed><course>323.703217</course><hAcc>0.880433</hAcc><vAcc>0.689548</vAcc></extensions></trkpt>
      <trkpt lon="-3.159386" lat="52.986370"><ele>237.444870</ele><time>2021-09-01T09:19:53Z</time><extensions><speed>1.285293</speed><course>322.763458</course><hAcc>0.880357</hAcc><vAcc>0.689238</vAcc></extensions></trkpt>
      <trkpt lon="-3.159398" lat="52.986379"><ele>237.443756</ele><time>2021-09-01T09:19:54Z</time><extensions><speed>1.289011</speed><course>321.396271</course><hAcc>0.880281</hAcc><vAcc>0.688938</vAcc></extensions></trkpt>
      <trkpt lon="-3.159409" lat="52.986388"><ele>237.441818</ele><time>2021-09-01T09:19:55Z</time><extensions><speed>1.294834</speed><course>324.253845</course><hAcc>0.880212</hAcc><vAcc>0.688679</vAcc></extensions></trkpt>
      <trkpt lon="-3.159421" lat="52.986398"><ele>237.440048</ele><time>2021-09-01T09:19:56Z</time><extensions><speed>1.302629</speed><course>322.941711</course><hAcc>0.880155</hAcc><vAcc>0.688481</vAcc></extensions></trkpt>
      <trkpt lon="-3.159433" lat="52.986407"><ele>237.439087</ele><time>2021-09-01T09:19:57Z</time><extensions><speed>1.311696</speed><course>324.827728</course><hAcc>0.880114</hAcc><vAcc>0.688352</vAcc></extensions></trkpt>
      <trkpt lon="-3.159446" lat="52.986416"><ele>237.439499</ele><time>2021-09-01T09:19:58Z</time><extensions><speed>1.321029</speed><course>323.315277</course><hAcc>0.880090</hAcc><vAcc>0.688290</vAcc></extensions></trkpt>
      <trkpt lon="-3.159458" lat="52.986425"><ele>237.441574</ele><time>2021-09-01T09:19:59Z</time><extensions><speed>1.329862</speed><course>316.049652</course><hAcc>0.880085</hAcc><vAcc>0.688291</vAcc></extensions></trkpt>
      <trkpt lon="-3.159471" lat="52.986435"><ele>237.445328</ele><time>2021-09-01T09:20:00Z</time><extensions><speed>1.337895</speed><course>321.640442</course><hAcc>0.880098</hAcc><vAcc>0.688350</vAcc></extensions></trkpt>
      <trkpt lon="-3.159483" lat="52.986444"><ele>237.450974</ele><time>2021-09-01T09:20:01Z</time><extensions><speed>1.345098</speed><course>318.527374</course><hAcc>0.880129</hAcc><vAcc>0.688459</vAcc></extensions></trkpt>
      <trkpt lon="-3.159496" lat="52.986453"><ele>237.458939</ele><time>2021-09-01T09:20:02Z</time><extensions><speed>1.351248</speed><course>327.209106</course><hAcc>0.880179</hAcc><vAcc>0.688610</vAcc></extensions></trkpt>
      <trkpt lon="-3.159509" lat="52.986463"><ele>237.469238</ele><time>2021-09-01T09:20:03Z</time><extensions><speed>1.355863</speed><course>321.431091</course><hAcc>0.880246</hAcc><vAcc>0.688806</vAcc></extensions></trkpt>
      <trkpt lon="-3.159521" lat="52.986472"><ele>237.481461</ele><time>2021-09-01T09:20:04Z</time><extensions><speed>1.358419</speed><course>309.255585</course><hAcc>0.880332</hAcc><vAcc>0.689057</vAcc></extensions></trkpt>
      <trkpt lon="-3.159534" lat="52.986482"><ele>237.495224</ele><time>2021-09-01T09:20:05Z</time><extensions><speed>1.358760</speed><course>316.262177</course><hAcc>0.880439</hAcc><vAcc>0.689380</vAcc></extensions></trkpt>
      <trkpt lon="-3.159546" lat="52.986492"><ele>237.509903</ele><time>2021-09-01T09:20:06Z</time><extensions><speed>1.357663</speed><course>318.486328</course><hAcc>0.880567</hAcc><vAcc>0.689780</vAcc></extensions></trkpt>
      <trkpt lon="-3.159557" lat="52.986502"><ele>237.524445</ele><time>2021-09-01T09:20:07Z</time><extensions><speed>1.355928</speed><course>323.918549</course><hAcc>0.880715</hAcc><vAcc>0.690254</vAcc></extensions></trkpt>
      <trkpt lon="-3.159569" lat="52.986512"><ele>237.538010</ele><time>2021-09-01T09:20:08Z</time><extensions><speed>1.353552</speed><course>326.771637</course><hAcc>0.880881</hAcc><vAcc>0.690794</vAcc></extensions></trkpt>
      <trkpt lon="-3.159580" lat="52.986522"><ele>237.550140</ele><time>2021-09-01T09:20:09Z</time><extensions><speed>1.350375</speed><course>322.066162</course><hAcc>0.881064</hAcc><vAcc>0.691392</vAcc></extensions></trkpt>
      <trkpt lon="-3.159590" lat="52.986532"><ele>237.560287</ele><time>2021-09-01T09:20:10Z</time><extensions><speed>1.346593</speed><course>315.897980</course><hAcc>0.881262</hAcc><vAcc>0.692038</vAcc></extensions></trkpt>
      <trkpt lon="-3.159599" lat="52.986543"><ele>237.568024</ele><time>2021-09-01T09:20:11Z</time><extensions><speed>1.342137</speed><course>320.677979</course><hAcc>0.881470</hAcc><vAcc>0.692724</vAcc></extensions></trkpt>
      <trkpt lon="-3.159608" lat="52.986554"><ele>237.573715</ele><time>2021-09-01T09:20:12Z</time><extensions><speed>1.337078</speed><course>328.194458</course><hAcc>0.881687</hAcc><vAcc>0.693439</vAcc></extensions></trkpt>
      <trkpt lon="-3.159617" lat="52.986565"><ele>237.577911</ele><time>2021-09-01T09:20:13Z</time><extensions><speed>1.332025</speed><course>342.191681</course><hAcc>0.881909</hAcc><vAcc>0.694172</vAcc></extensions></trkpt>
      <trkpt lon="-3.159624" lat="52.986576"><ele>237.581039</ele><time>2021-09-01T09:20:14Z</time><extensions><speed>1.327217</speed><course>338.973602</course><hAcc>0.882134</hAcc><vAcc>0.694910</vAcc></extensions></trkpt>
      <trkpt lon="-3.159632" lat="52.986587"><ele>237.583862</ele><time>2021-09-01T09:20:15Z</time><extensions><speed>1.322445</speed><course>338.845032</course><hAcc>0.882358</hAcc><vAcc>0.695641</vAcc></extensions></trkpt>
      <trkpt lon="-3.159638" lat="52.986598"><ele>237.587601</ele><time>2021-09-01T09:20:16Z</time><extensions><speed>1.317161</speed><course>343.294373</course><hAcc>0.882580</hAcc><vAcc>0.696355</vAcc></extensions></trkpt>
      <trkpt lon="-3.159644" lat="52.986609"><ele>237.593399</ele><time>2021-09-01T09:20:17Z</time><extensions><speed>1.310881</speed><course>345.380096</course><hAcc>0.882799</hAcc><vAcc>0.697045</vAcc></extensions></trkpt>
      <trkpt lon="-3.159650" lat="52.986620"><ele>237.602005</ele><time>2021-09-01T09:20:18Z</time><extensions><speed>1.304128</speed><course>336.417389</course><hAcc>0.883012</hAcc><vAcc>0.697706</vAcc></extensions></trkpt>
      <trkpt lon="-3.159655" lat="52.986632"><ele>237.614044</ele><time>2021-09-01T09:20:19Z</time><extensions><speed>1.297854</speed><course>349.627289</course><hAcc>0.883220</hAcc><vAcc>0.698341</vAcc></extensions></trkpt>
      <trkpt lon="-3.159660" lat="52.986643"><ele>237.630051</ele><time>2021-09-01T09:20:20Z</time><extensions><speed>1.292316</speed><course>333.102356</course><hAcc>0.883422</hAcc><vAcc>0.698962</vAcc></extensions></trkpt>
      <trkpt lon="-3.159664" lat="52.986654"><ele>237.650467</ele><time>2021-09-01T09:20:21Z</time><extensions><speed>1.287036</speed><course>345.486877</course><hAcc>0.883618</hAcc><vAcc>0.699584</vAcc></extensions></trkpt>
      <trkpt lon="-3.159669" lat="52.986665"><ele>237.675705</ele><time>2021-09-01T09:20:22Z</time><extensions><speed>1.281530</speed><course>343.184906</course><hAcc>0.883807</hAcc><vAcc>0.700215</vAcc></extensions></trkpt>
      <trkpt lon="-3.159673" lat="52.986677"><ele>237.706650</ele><time>2021-09-01T09:20:23Z</time><extensions><speed>1.275693</speed><course>342.239624</course><hAcc>0.883985</hAcc><vAcc>0.700851</vAcc></extensions></trkpt>
      <trkpt lon="-3.159677" lat="52.986688"><ele>237.744156</ele><time>2021-09-01T09:20:24Z</time><extensions><speed>1.269464</speed><course>352.331055</course><hAcc>0.884150</hAcc><vAcc>0.701474</vAcc></extensions></trkpt>
      <trkpt lon="-3.159681" lat="52.986699"><ele>237.788345</ele><time>2021-09-01T09:20:24Z</time><extensions><speed>1.263253</speed><course>352.560638</course><hAcc>0.884314</hAcc><vAcc>0.702069</vAcc></extensions></trkpt>
      <trkpt lon="-3.159685" lat="52.986710"><ele>237.838623</ele><time>2021-09-01T09:20:25Z</time><extensions><speed>1.257895</speed><course>349.901215</course><hAcc>0.884475</hAcc><vAcc>0.702606</vAcc></extensions></trkpt>
      <trkpt lon="-3.159689" lat="52.986721"><ele>237.894135</ele><time>2021-09-01T09:20:26Z</time><extensions><speed>1.254103</speed><course>347.225525</course><hAcc>0.884611</hAcc><vAcc>0.703048</vAcc></extensions></trkpt>
      <trkpt lon="-3.159693" lat="52.986732"><ele>237.954376</ele><time>2021-09-01T09:20:27Z</time><extensions><speed>1.252142</speed><course>342.525452</course><hAcc>0.884720</hAcc><vAcc>0.703383</vAcc></extensions></trkpt>
      <trkpt lon="-3.159697" lat="52.986743"><ele>238.019089</ele><time>2021-09-01T09:20:28Z</time><extensions><speed>1.251836</speed><course>344.186432</course><hAcc>0.884802</hAcc><vAcc>0.703609</vAcc></extensions></trkpt>
      <trkpt lon="-3.159701" lat="52.986754"><ele>238.087814</ele><time>2021-09-01T09:20:29Z</time><extensions><speed>1.253085</speed><course>344.723938</course><hAcc>0.884858</hAcc><vAcc>0.703733</vAcc></extensions></trkpt>
      <trkpt lon="-3.159705" lat="52.986765"><ele>238.159927</ele><time>2021-09-01T09:20:30Z</time><extensions><speed>1.255828</speed><course>335.783966</course><hAcc>0.884889</hAcc><vAcc>0.703768</vAcc></extensions></trkpt>
      <trkpt lon="-3.159710" lat="52.986776"><ele>238.235001</ele><time>2021-09-01T09:20:31Z</time><extensions><speed>1.259703</speed><course>346.047455</course><hAcc>0.884897</hAcc><vAcc>0.703736</vAcc></extensions></trkpt>
      <trkpt lon="-3.159714" lat="52.986787"><ele>238.312943</ele><time>2021-09-01T09:20:32Z</time><extensions><speed>1.264366</speed><course>348.227631</course><hAcc>0.884888</hAcc><vAcc>0.703654</vAcc></extensions></trkpt>
      <trkpt lon="-3.159719" lat="52.986798"><ele>238.393417</ele><time>2021-09-01T09:20:33Z</time><extensions><speed>1.269823</speed><course>346.562134</course><hAcc>0.884862</hAcc><vAcc>0.703538</vAcc></extensions></trkpt>
      <trkpt lon="-3.159724" lat="52.986809"><ele>238.475601</ele><time>2021-09-01T09:20:34Z</time><extensions><speed>1.276056</speed><course>340.164734</course><hAcc>0.884825</hAcc><vAcc>0.703397</vAcc></extensions></trkpt>
      <trkpt lon="-3.159729" lat="52.986820"><ele>238.558609</ele><time>2021-09-01T09:20:35Z</time><extensions><speed>1.282475</speed><course>340.903290</course><hAcc>0.884777</hAcc><vAcc>0.703237</vAcc></extensions></trkpt>
      <trkpt lon="-3.159735" lat="52.986831"><ele>238.641937</ele><time>2021-09-01T09:20:36Z</time><extensions><speed>1.288429</speed><course>337.951172</course><hAcc>0.884722</hAcc><vAcc>0.703062</vAcc></extensions></trkpt>
      <trkpt lon="-3.159741" lat="52.986842"><ele>238.725372</ele><time>2021-09-01T09:20:37Z</time><extensions><speed>1.293959</speed><course>343.976532</course><hAcc>0.884661</hAcc><vAcc>0.702872</vAcc></extensions></trkpt>
      <trkpt lon="-3.159747" lat="52.986853"><ele>238.808762</ele><time>2021-09-01T09:20:38Z</time><extensions><speed>1.299644</speed><course>344.587616</course><hAcc>0.884594</hAcc><vAcc>0.702666</vAcc></extensions></trkpt>
      <trkpt lon="-3.159754" lat="52.986864"><ele>238.891937</ele><time>2021-09-01T09:20:39Z</time><extensions><speed>1.305855</speed><course>341.405151</course><hAcc>0.884521</hAcc><vAcc>0.702441</vAcc></extensions></trkpt>
      <trkpt lon="-3.159761" lat="52.986875"><ele>238.974991</ele><time>2021-09-01T09:20:40Z</time><extensions><speed>1.312416</speed><course>339.649231</course><hAcc>0.884441</hAcc><vAcc>0.702194</vAcc></extensions></trkpt>
      <trkpt lon="-3.159769" lat="52.986886"><ele>239.058319</ele><time>2021-09-01T09:20:41Z</time><extensions><speed>1.318875</speed><course>334.810822</course><hAcc>0.884353</hAcc><vAcc>0.701923</vAcc></extensions></trkpt>
      <trkpt lon="-3.159777" lat="52.986897"><ele>239.142288</ele><time>2021-09-01T09:20:42Z</time><extensions><speed>1.324978</speed><course>330.628723</course><hAcc>0.884253</hAcc><vAcc>0.701623</vAcc></extensions></trkpt>
      <trkpt lon="-3.159785" lat="52.986908"><ele>239.227020</ele><time>2021-09-01T09:20:43Z</time><extensions><speed>1.330521</speed><course>326.820862</course><hAcc>0.884139</hAcc><vAcc>0.701289</vAcc></extensions></trkpt>
      <trkpt lon="-3.159794" lat="52.986918"><ele>239.312592</ele><time>2021-09-01T09:20:44Z</time><extensions><speed>1.335207</speed><course>329.993256</course><hAcc>0.884007</hAcc><vAcc>0.700909</vAcc></extensions></trkpt>
      <trkpt lon="-3.159803" lat="52.986929"><ele>239.399399</ele><time>2021-09-01T09:20:45Z</time><extensions><speed>1.338953</speed><course>333.108307</course><hAcc>0.883849</hAcc><vAcc>0.700466</vAcc></extensions></trkpt>
      <trkpt lon="-3.159812" lat="52.986940"><ele>239.488434</ele><time>2021-09-01T09:20:46Z</time><extensions><speed>1.342067</speed><course>328.264221</course><hAcc>0.883662</hAcc><vAcc>0.699939</vAcc></extensions></trkpt>
      <trkpt lon="-3.159822" lat="52.986950"><ele>239.580917</ele><time>2021-09-01T09:20:47Z</time><extensions><speed>1.345051</speed><course>336.747131</course><hAcc>0.883436</hAcc><vAcc>0.699304</vAcc></extensions></trkpt>
      <trkpt lon="-3.159832" lat="52.986961"><ele>239.677505</ele><time>2021-09-01T09:20:48Z</time><extensions><speed>1.348238</speed><course>330.065033</course><hAcc>0.883165</hAcc><vAcc>0.698534</vAcc></extensions></trkpt>
      <trkpt lon="-3.159842" lat="52.986971"><ele>239.778229</ele><time>2021-09-01T09:20:49Z</time><extensions><speed>1.352035</speed><course>317.215851</course><hAcc>0.882843</hAcc><vAcc>0.697599</vAcc></extensions></trkpt>
      <trkpt lon="-3.159852" lat="52.986982"><ele>239.883011</ele><time>2021-09-01T09:20:50Z</time><extensions><speed>1.357293</speed><course>321.035828</course><hAcc>0.882463</hAcc><vAcc>0.696471</vAcc></extensions></trkpt>
      <trkpt lon="-3.159863" lat="52.986992"><ele>239.992142</ele><time>2021-09-01T09:20:51Z</time><extensions><speed>1.364389</speed><course>319.935577</course><hAcc>0.882019</hAcc><vAcc>0.695128</vAcc></extensions></trkpt>
      <trkpt lon="-3.159874" lat="52.987002"><ele>240.106064</ele><time>2021-09-01T09:20:52Z</time><extensions><speed>1.372892</speed><course>325.102844</course><hAcc>0.881511</hAcc><vAcc>0.693560</vAcc></extensions></trkpt>
      <trkpt lon="-3.159885" lat="52.987013"><ele>240.224609</ele><time>2021-09-01T09:20:53Z</time><extensions><speed>1.382229</speed><course>327.812073</course><hAcc>0.880937</hAcc><vAcc>0.691766</vAcc></extensions></trkpt>
      <trkpt lon="-3.159896" lat="52.987023"><ele>240.347229</ele><time>2021-09-01T09:20:54Z</time><extensions><speed>1.391645</speed><course>320.427582</course><hAcc>0.880301</hAcc><vAcc>0.689756</vAcc></extensions></trkpt>
      <trkpt lon="-3.159908" lat="52.987034"><ele>240.473419</ele><time>2021-09-01T09:20:55Z</time><extensions><speed>1.399987</speed><course>321.194977</course><hAcc>0.879609</hAcc><vAcc>0.687552</vAcc></extensions></trkpt>
      <trkpt lon="-3.159919" lat="52.987044"><ele>240.602737</ele><time>2021-09-01T09:20:56Z</time><extensions><speed>1.406629</speed><course>318.963165</course><hAcc>0.878872</hAcc><vAcc>0.685186</vAcc></extensions></trkpt>
      <trkpt lon="-3.159931" lat="52.987055"><ele>240.734268</ele><time>2021-09-01T09:20:57Z</time><extensions><speed>1.411689</speed><course>318.221771</course><hAcc>0.878102</hAcc><vAcc>0.682696</vAcc></extensions></trkpt>
      <trkpt lon="-3.159943" lat="52.987065"><ele>240.866760</ele><time>2021-09-01T09:20:58Z</time><extensions><speed>1.415195</speed><course>325.110291</course><hAcc>0.877317</hAcc><vAcc>0.680125</vAcc></extensions></trkpt>
      <trkpt lon="-3.159955" lat="52.987076"><ele>240.999176</ele><time>2021-09-01T09:20:59Z</time><extensions><speed>1.417227</speed><course>325.968475</course><hAcc>0.876538</hAcc><vAcc>0.677539</vAcc></extensions></trkpt>
      <trkpt lon="-3.159967" lat="52.987086"><ele>241.130386</ele><time>2021-09-01T09:21:00Z</time><extensions><speed>1.418193</speed><course>319.629425</course><hAcc>0.875791</hAcc><vAcc>0.675026</vAcc></extensions></trkpt>
      <trkpt lon="-3.159979" lat="52.987096"><ele>241.258850</ele><time>2021-09-01T09:21:01Z</time><extensions><speed>1.418329</speed><course>319.103638</course><hAcc>0.875103</hAcc><vAcc>0.672694</vAcc></extensions></trkpt>
      <trkpt lon="-3.159991" lat="52.987107"><ele>241.383209</ele><time>2021-09-01T09:21:02Z</time><extensions><speed>1.417849</speed><course>314.591980</course><hAcc>0.874501</hAcc><vAcc>0.670654</vAcc></extensions></trkpt>
      <trkpt lon="-3.160004" lat="52.987117"><ele>241.502823</ele><time>2021-09-01T09:21:03Z</time><extensions><speed>1.416837</speed><course>315.007294</course><hAcc>0.874009</hAcc><vAcc>0.668992</vAcc></extensions></trkpt>
      <trkpt lon="-3.160016" lat="52.987128"><ele>241.617416</ele><time>2021-09-01T09:21:04Z</time><extensions><speed>1.414792</speed><course>322.287598</course><hAcc>0.873638</hAcc><vAcc>0.667761</vAcc></extensions></trkpt>
      <trkpt lon="-3.160028" lat="52.987138"><ele>241.726944</ele><time>2021-09-01T09:21:05Z</time><extensions><speed>1.411018</speed><course>320.536743</course><hAcc>0.873395</hAcc><vAcc>0.666979</vAcc></extensions></trkpt>
      <trkpt lon="-3.160040" lat="52.987148"><ele>241.831467</ele><time>2021-09-01T09:21:06Z</time><extensions><speed>1.405044</speed><course>317.691437</course><hAcc>0.873277</hAcc><vAcc>0.666635</vAcc></extensions></trkpt>
      <trkpt lon="-3.160052" lat="52.987158"><ele>241.931305</ele><time>2021-09-01T09:21:07Z</time><extensions><speed>1.397241</speed><course>319.879181</course><hAcc>0.873272</hAcc><vAcc>0.666686</vAcc></extensions></trkpt>
      <trkpt lon="-3.160064" lat="52.987169"><ele>242.027161</ele><time>2021-09-01T09:21:08Z</time><extensions><speed>1.387976</speed><course>320.065887</course><hAcc>0.873367</hAcc><vAcc>0.667072</vAcc></extensions></trkpt>
      <trkpt lon="-3.160076" lat="52.987179"><ele>242.119568</ele><time>2021-09-01T09:21:09Z</time><extensions><speed>1.377531</speed><course>321.533569</course><hAcc>0.873540</hAcc><vAcc>0.667717</vAcc></extensions></trkpt>
      <trkpt lon="-3.160088" lat="52.987189"><ele>242.208588</ele><time>2021-09-01T09:21:10Z</time><extensions><speed>1.366767</speed><course>324.813110</course><hAcc>0.873769</hAcc><vAcc>0.668538</vAcc></extensions></trkpt>
      <trkpt lon="-3.160099" lat="52.987199"><ele>242.293945</ele><time>2021-09-01T09:21:11Z</time><extensions><speed>1.356443</speed><course>329.013580</course><hAcc>0.874034</hAcc><vAcc>0.669460</vAcc></extensions></trkpt>
      <trkpt lon="-3.160110" lat="52.987209"><ele>242.375397</ele><time>2021-09-01T09:21:12Z</time><extensions><speed>1.346353</speed><course>324.901581</course><hAcc>0.874315</hAcc><vAcc>0.670416</vAcc></extensions></trkpt>
      <trkpt lon="-3.160121" lat="52.987219"><ele>242.453033</ele><time>2021-09-01T09:21:13Z</time><extensions><speed>1.335631</speed><course>318.603180</course><hAcc>0.874596</hAcc><vAcc>0.671352</vAcc></extensions></trkpt>
      <trkpt lon="-3.160132" lat="52.987229"><ele>242.527069</ele><time>2021-09-01T09:21:14Z</time><extensions><speed>1.323812</speed><course>314.278656</course><hAcc>0.874863</hAcc><vAcc>0.672225</vAcc></extensions></trkpt>
      <trkpt lon="-3.160143" lat="52.987239"><ele>242.597610</ele><time>2021-09-01T09:21:15Z</time><extensions><speed>1.311029</speed><course>319.463074</course><hAcc>0.875106</hAcc><vAcc>0.673000</vAcc></extensions></trkpt>
      <trkpt lon="-3.160153" lat="52.987249"><ele>242.665253</ele><time>2021-09-01T09:21:16Z</time><extensions><speed>1.297535</speed><course>323.368469</course><hAcc>0.875319</hAcc><vAcc>0.673657</vAcc></extensions></trkpt>
      <trkpt lon="-3.160163" lat="52.987259"><ele>242.731186</ele><time>2021-09-01T09:21:17Z</time><extensions><speed>1.283193</speed><course>324.877350</course><hAcc>0.875500</hAcc><vAcc>0.674191</vAcc></extensions></trkpt>
      <trkpt lon="-3.160173" lat="52.987269"><ele>242.796585</ele><time>2021-09-01T09:21:18Z</time><extensions><speed>1.267914</speed><course>328.239716</course><hAcc>0.875648</hAcc><vAcc>0.674616</vAcc></extensions></trkpt>
      <trkpt lon="-3.160183" lat="52.987279"><ele>242.862152</ele><time>2021-09-01T09:21:19Z</time><extensions><speed>1.252304</speed><course>325.680328</course><hAcc>0.875767</hAcc><vAcc>0.674951</vAcc></extensions></trkpt>
      <trkpt lon="-3.160192" lat="52.987288"><ele>242.928467</ele><time>2021-09-01T09:21:20Z</time><extensions><speed>1.237214</speed><course>329.865967</course><hAcc>0.875862</hAcc><vAcc>0.675218</vAcc></extensions></trkpt>
      <trkpt lon="-3.160202" lat="52.987298"><ele>242.996338</ele><time>2021-09-01T09:21:21Z</time><extensions><speed>1.223433</speed><course>328.590454</course><hAcc>0.875935</hAcc><vAcc>0.675435</vAcc></extensions></trkpt>
      <trkpt lon="-3.160211" lat="52.987307"><ele>243.066681</ele><time>2021-09-01T09:21:22Z</time><extensions><speed>1.211830</speed><course>328.102966</course><hAcc>0.875991</hAcc><vAcc>0.675611</vAcc></extensions></trkpt>
      <trkpt lon="-3.160220" lat="52.987316"><ele>243.140335</ele><time>2021-09-01T09:21:23Z</time><extensions><speed>1.203234</speed><course>314.592194</course><hAcc>0.876029</hAcc><vAcc>0.675748</vAcc></extensions></trkpt>
      <trkpt lon="-3.160230" lat="52.987325"><ele>243.218246</ele><time>2021-09-01T09:21:24Z</time><extensions><speed>1.197823</speed><course>318.557648</course><hAcc>0.876050</hAcc><vAcc>0.675838</vAcc></extensions></trkpt>
      <trkpt lon="-3.160239" lat="52.987335"><ele>243.301208</ele><time>2021-09-01T09:21:25Z</time><extensions><speed>1.195316</speed><course>323.922150</course><hAcc>0.876053</hAcc><vAcc>0.675869</vAcc></extensions></trkpt>
      <trkpt lon="-3.160248" lat="52.987344"><ele>243.389420</ele><time>2021-09-01T09:21:26Z</time><extensions><speed>1.195137</speed><course>321.145691</course><hAcc>0.876039</hAcc><vAcc>0.675831</vAcc></extensions></trkpt>
      <trkpt lon="-3.160257" lat="52.987353"><ele>243.482254</ele><time>2021-09-01T09:21:27Z</time><extensions><speed>1.196091</speed><course>322.786774</course><hAcc>0.876009</hAcc><vAcc>0.675722</vAcc></extensions></trkpt>
      <trkpt lon="-3.160266" lat="52.987362"><ele>243.579086</ele><time>2021-09-01T09:21:28Z</time><extensions><speed>1.196885</speed><course>326.716736</course><hAcc>0.875968</hAcc><vAcc>0.675554</vAcc></extensions></trkpt>
      <trkpt lon="-3.160275" lat="52.987372"><ele>243.679947</ele><time>2021-09-01T09:21:29Z</time><extensions><speed>1.197043</speed><course>329.036499</course><hAcc>0.875925</hAcc><vAcc>0.675354</vAcc></extensions></trkpt>
      <trkpt lon="-3.160284" lat="52.987381"><ele>243.785156</ele><time>2021-09-01T09:21:30Z</time><extensions><speed>1.196687</speed><course>334.350830</course><hAcc>0.875887</hAcc><vAcc>0.675166</vAcc></extensions></trkpt>
      <trkpt lon="-3.160293" lat="52.987390"><ele>243.894852</ele><time>2021-09-01T09:21:31Z</time><extensions><speed>1.195640</speed><course>328.154053</course><hAcc>0.875868</hAcc><vAcc>0.675038</vAcc></extensions></trkpt>
      <trkpt lon="-3.160302" lat="52.987400"><ele>244.009140</ele><time>2021-09-01T09:21:32Z</time><extensions><speed>1.193759</speed><course>334.753510</course><hAcc>0.875876</hAcc><vAcc>0.675015</vAcc></extensions></trkpt>
      <trkpt lon="-3.160311" lat="52.987409"><ele>244.128296</ele><time>2021-09-01T09:21:33Z</time><extensions><speed>1.190719</speed><course>331.588837</course><hAcc>0.875920</hAcc><vAcc>0.675125</vAcc></extensions></trkpt>
      <trkpt lon="-3.160320" lat="52.987418"><ele>244.252121</ele><time>2021-09-01T09:21:34Z</time><extensions><speed>1.186626</speed><course>334.240753</course><hAcc>0.876002</hAcc><vAcc>0.675383</vAcc></extensions></trkpt>
      <trkpt lon="-3.160329" lat="52.987427"><ele>244.379837</ele><time>2021-09-01T09:21:35Z</time><extensions><speed>1.182246</speed><course>338.277435</course><hAcc>0.876125</hAcc><vAcc>0.675783</vAcc></extensions></trkpt>
      <trkpt lon="-3.160338" lat="52.987436"><ele>244.510559</ele><time>2021-09-01T09:21:36Z</time><extensions><speed>1.178005</speed><course>328.841278</course><hAcc>0.876283</hAcc><vAcc>0.676310</vAcc></extensions></trkpt>
      <trkpt lon="-3.160347" lat="52.987445"><ele>244.643188</ele><time>2021-09-01T09:21:37Z</time><extensions><speed>1.174264</speed><course>323.726990</course><hAcc>0.876474</hAcc><vAcc>0.676943</vAcc></extensions></trkpt>
      <trkpt lon="-3.160356" lat="52.987454"><ele>244.776474</ele><time>2021-09-01T09:21:38Z</time><extensions><speed>1.171591</speed><course>317.846680</course><hAcc>0.876692</hAcc><vAcc>0.677666</vAcc></extensions></trkpt>
      <trkpt lon="-3.160366" lat="52.987463"><ele>244.909912</ele><time>2021-09-01T09:21:39Z</time><extensions><speed>1.170591</speed><course>319.877411</course><hAcc>0.876931</hAcc><vAcc>0.678461</vAcc></extensions></trkpt>
      <trkpt lon="-3.160375" lat="52.987472"><ele>245.043716</ele><time>2021-09-01T09:21:40Z</time><extensions><speed>1.171781</speed><course>318.901947</course><hAcc>0.877183</hAcc><vAcc>0.679302</vAcc></extensions></trkpt>
      <trkpt lon="-3.160384" lat="52.987481"><ele>245.178131</ele><time>2021-09-01T09:21:41Z</time><extensions><speed>1.175012</speed><course>320.825470</course><hAcc>0.877440</hAcc><vAcc>0.680158</vAcc></extensions></trkpt>
      <trkpt lon="-3.160393" lat="52.987490"><ele>245.312546</ele><time>2021-09-01T09:21:42Z</time><extensions><speed>1.179678</speed><course>331.940704</course><hAcc>0.877693</hAcc><vAcc>0.680999</vAcc></extensions></trkpt>
      <trkpt lon="-3.160403" lat="52.987499"><ele>245.445602</ele><time>2021-09-01T09:21:43Z</time><extensions><speed>1.185270</speed><course>329.732300</course><hAcc>0.877934</hAcc><vAcc>0.681797</vAcc></extensions></trkpt>
      <trkpt lon="-3.160412" lat="52.987508"><ele>245.576126</ele><time>2021-09-01T09:21:44Z</time><extensions><speed>1.191253</speed><course>330.480469</course><hAcc>0.878155</hAcc><vAcc>0.682534</vAcc></extensions></trkpt>
      <trkpt lon="-3.160421" lat="52.987517"><ele>245.703598</ele><time>2021-09-01T09:21:45Z</time><extensions><speed>1.197641</speed><course>327.453430</course><hAcc>0.878350</hAcc><vAcc>0.683193</vAcc></extensions></trkpt>
      <trkpt lon="-3.160431" lat="52.987526"><ele>245.827423</ele><time>2021-09-01T09:21:46Z</time><extensions><speed>1.205141</speed><course>332.608093</course><hAcc>0.878515</hAcc><vAcc>0.683751</vAcc></extensions></trkpt>
      <trkpt lon="-3.160440" lat="52.987536"><ele>245.946930</ele><time>2021-09-01T09:21:47Z</time><extensions><speed>1.213994</speed><course>330.647522</course><hAcc>0.878643</hAcc><vAcc>0.684183</vAcc></extensions></trkpt>
      <trkpt lon="-3.160450" lat="52.987545"><ele>246.062073</ele><time>2021-09-01T09:21:48Z</time><extensions><speed>1.223691</speed><course>325.179230</course><hAcc>0.878733</hAcc><vAcc>0.684471</vAcc></extensions></trkpt>
      <trkpt lon="-3.160460" lat="52.987554"><ele>246.173050</ele><time>2021-09-01T09:21:49Z</time><extensions><speed>1.233712</speed><course>323.492767</course><hAcc>0.878786</hAcc><vAcc>0.684606</vAcc></extensions></trkpt>
      <trkpt lon="-3.160470" lat="52.987564"><ele>246.279480</ele><time>2021-09-01T09:21:50Z</time><extensions><speed>1.243819</speed><course>319.068512</course><hAcc>0.878805</hAcc><vAcc>0.684599</vAcc></extensions></trkpt>
      <trkpt lon="-3.160479" lat="52.987573"><ele>246.380936</ele><time>2021-09-01T09:21:51Z</time><extensions><speed>1.253529</speed><course>318.607483</course><hAcc>0.878798</hAcc><vAcc>0.684476</vAcc></extensions></trkpt>
      <trkpt lon="-3.160489" lat="52.987583"><ele>246.477463</ele><time>2021-09-01T09:21:52Z</time><extensions><speed>1.262641</speed><course>331.980591</course><hAcc>0.878777</hAcc><vAcc>0.684282</vAcc></extensions></trkpt>
      <trkpt lon="-3.160499" lat="52.987592"><ele>246.569290</ele><time>2021-09-01T09:21:53Z</time><extensions><speed>1.271456</speed><course>339.684753</course><hAcc>0.878753</hAcc><vAcc>0.684068</vAcc></extensions></trkpt>
      <trkpt lon="-3.160509" lat="52.987602"><ele>246.656937</ele><time>2021-09-01T09:21:55Z</time><extensions><speed>1.280098</speed><course>332.990814</course><hAcc>0.878722</hAcc><vAcc>0.683879</vAcc></extensions></trkpt>
      <trkpt lon="-3.160519" lat="52.987612"><ele>246.740891</ele><time>2021-09-01T09:21:55Z</time><extensions><speed>1.288568</speed><course>322.191711</course><hAcc>0.878714</hAcc><vAcc>0.683777</vAcc></extensions></trkpt>
      <trkpt lon="-3.160529" lat="52.987622"><ele>246.822296</ele><time>2021-09-01T09:21:57Z</time><extensions><speed>1.296532</speed><course>322.481537</course><hAcc>0.878737</hAcc><vAcc>0.683797</vAcc></extensions></trkpt>
      <trkpt lon="-3.160540" lat="52.987632"><ele>246.901428</ele><time>2021-09-01T09:21:58Z</time><extensions><speed>1.303614</speed><course>324.494202</course><hAcc>0.878777</hAcc><vAcc>0.683949</vAcc></extensions></trkpt>
      <trkpt lon="-3.160550" lat="52.987642"><ele>246.978851</ele><time>2021-09-01T09:21:59Z</time><extensions><speed>1.309729</speed><course>326.900543</course><hAcc>0.878854</hAcc><vAcc>0.684248</vAcc></extensions></trkpt>
      <trkpt lon="-3.160560" lat="52.987652"><ele>247.055267</ele><time>2021-09-01T09:22:00Z</time><extensions><speed>1.314646</speed><course>327.108612</course><hAcc>0.878965</hAcc><vAcc>0.684681</vAcc></extensions></trkpt>
      <trkpt lon="-3.160570" lat="52.987662"><ele>247.131287</ele><time>2021-09-01T09:22:01Z</time><extensions><speed>1.318409</speed><course>326.961395</course><hAcc>0.879102</hAcc><vAcc>0.685219</vAcc></extensions></trkpt>
      <trkpt lon="-3.160580" lat="52.987672"><ele>247.207230</ele><time>2021-09-01T09:22:02Z</time><extensions><speed>1.321327</speed><course>328.725586</course><hAcc>0.879256</hAcc><vAcc>0.685816</vAcc></extensions></trkpt>
      <trkpt lon="-3.160590" lat="52.987683"><ele>247.283600</ele><time>2021-09-01T09:22:03Z</time><extensions><speed>1.323489</speed><course>324.538879</course><hAcc>0.879416</hAcc><vAcc>0.686425</vAcc></extensions></trkpt>
      <trkpt lon="-3.160599" lat="52.987693"><ele>247.361053</ele><time>2021-09-01T09:22:04Z</time><extensions><speed>1.324762</speed><course>322.792755</course><hAcc>0.879572</hAcc><vAcc>0.687006</vAcc></extensions></trkpt>
      <trkpt lon="-3.160609" lat="52.987703"><ele>247.439697</ele><time>2021-09-01T09:22:05Z</time><extensions><speed>1.324805</speed><course>321.878906</course><hAcc>0.879715</hAcc><vAcc>0.687528</vAcc></extensions></trkpt>
      <trkpt lon="-3.160619" lat="52.987714"><ele>247.519272</ele><time>2021-09-01T09:22:06Z</time><extensions><speed>1.323059</speed><course>332.119232</course><hAcc>0.879841</hAcc><vAcc>0.687964</vAcc></extensions></trkpt>
      <trkpt lon="-3.160629" lat="52.987724"><ele>247.599899</ele><time>2021-09-01T09:22:07Z</time><extensions><speed>1.319294</speed><course>333.921204</course><hAcc>0.879945</hAcc><vAcc>0.688291</vAcc></extensions></trkpt>
      <trkpt lon="-3.160639" lat="52.987734"><ele>247.682175</ele><time>2021-09-01T09:22:08Z</time><extensions><speed>1.314112</speed><course>333.199188</course><hAcc>0.880027</hAcc><vAcc>0.688505</vAcc></extensions></trkpt>
      <trkpt lon="-3.160648" lat="52.987744"><ele>247.766647</ele><time>2021-09-01T09:22:09Z</time><extensions><speed>1.308306</speed><course>332.370575</course><hAcc>0.880091</hAcc><vAcc>0.688623</vAcc></extensions></trkpt>
      <trkpt lon="-3.160658" lat="52.987754"><ele>247.853699</ele><time>2021-09-01T09:22:10Z</time><extensions><speed>1.302774</speed><course>324.975555</course><hAcc>0.880142</hAcc><vAcc>0.688686</vAcc></extensions></trkpt>
      <trkpt lon="-3.160668" lat="52.987764"><ele>247.943832</ele><time>2021-09-01T09:22:11Z</time><extensions><speed>1.297962</speed><course>335.518433</course><hAcc>0.880190</hAcc><vAcc>0.688749</vAcc></extensions></trkpt>
      <trkpt lon="-3.160679" lat="52.987774"><ele>248.037460</ele><time>2021-09-01T09:22:12Z</time><extensions><speed>1.293592</speed><course>325.564209</course><hAcc>0.880241</hAcc><vAcc>0.688858</vAcc></extensions></trkpt>
      <trkpt lon="-3.160689" lat="52.987784"><ele>248.134171</ele><time>2021-09-01T09:22:13Z</time><extensions><speed>1.289473</speed><course>328.563263</course><hAcc>0.880299</hAcc><vAcc>0.689039</vAcc></extensions></trkpt>
      <trkpt lon="-3.160699" lat="52.987794"><ele>248.233231</ele><time>2021-09-01T09:22:13Z</time><extensions><speed>1.285446</speed><course>326.994080</course><hAcc>0.880383</hAcc><vAcc>0.689312</vAcc></extensions></trkpt>
      <trkpt lon="-3.160710" lat="52.987803"><ele>248.334488</ele><time>2021-09-01T09:22:14Z</time><extensions><speed>1.281334</speed><course>318.473267</course><hAcc>0.880492</hAcc><vAcc>0.689666</vAcc></extensions></trkpt>
      <trkpt lon="-3.160721" lat="52.987813"><ele>248.437531</ele><time>2021-09-01T09:22:15Z</time><extensions><speed>1.277283</speed><course>311.042542</course><hAcc>0.880601</hAcc><vAcc>0.690062</vAcc></extensions></trkpt>
      <trkpt lon="-3.160731" lat="52.987822"><ele>248.542038</ele><time>2021-09-01T09:22:16Z</time><extensions><speed>1.272965</speed><course>305.538330</course><hAcc>0.880703</hAcc><vAcc>0.690462</vAcc></extensions></trkpt>
      <trkpt lon="-3.160742" lat="52.987832"><ele>248.647964</ele><time>2021-09-01T09:22:17Z</time><extensions><speed>1.267543</speed><course>315.153778</course><hAcc>0.880787</hAcc><vAcc>0.690817</vAcc></extensions></trkpt>
      <trkpt lon="-3.160753" lat="52.987841"><ele>248.755341</ele><time>2021-09-01T09:22:18Z</time><extensions><speed>1.260815</speed><course>316.503418</course><hAcc>0.880841</hAcc><vAcc>0.691080</vAcc></extensions></trkpt>
      <trkpt lon="-3.160764" lat="52.987850"><ele>248.863998</ele><time>2021-09-01T09:22:20Z</time><extensions><speed>1.253482</speed><course>335.833191</course><hAcc>0.880834</hAcc><vAcc>0.691189</vAcc></extensions></trkpt>
      <trkpt lon="-3.160775" lat="52.987859"><ele>248.973495</ele><time>2021-09-01T09:22:21Z</time><extensions><speed>1.245742</speed><course>327.010254</course><hAcc>0.880753</hAcc><vAcc>0.691103</vAcc></extensions></trkpt>
      <trkpt lon="-3.160786" lat="52.987868"><ele>249.084030</ele><time>2021-09-01T09:22:21Z</time><extensions><speed>1.237131</speed><course>325.252136</course><hAcc>0.880625</hAcc><vAcc>0.690811</vAcc></extensions></trkpt>
      <trkpt lon="-3.160797" lat="52.987877"><ele>249.196289</ele><time>2021-09-01T09:22:22Z</time><extensions><speed>1.227874</speed><course>322.968475</course><hAcc>0.880441</hAcc><vAcc>0.690287</vAcc></extensions></trkpt>
      <trkpt lon="-3.160808" lat="52.987886"><ele>249.310776</ele><time>2021-09-01T09:22:23Z</time><extensions><speed>1.218511</speed><course>323.501465</course><hAcc>0.880179</hAcc><vAcc>0.689497</vAcc></extensions></trkpt>
      <trkpt lon="-3.160819" lat="52.987894"><ele>249.428329</ele><time>2021-09-01T09:22:24Z</time><extensions><speed>1.209822</speed><course>321.425781</course><hAcc>0.879838</hAcc><vAcc>0.688434</vAcc></extensions></trkpt>
      <trkpt lon="-3.160830" lat="52.987903"><ele>249.549713</ele><time>2021-09-01T09:22:25Z</time><extensions><speed>1.202676</speed><course>320.251373</course><hAcc>0.879426</hAcc><vAcc>0.687106</vAcc></extensions></trkpt>
      <trkpt lon="-3.160842" lat="52.987911"><ele>249.675064</ele><time>2021-09-01T09:22:26Z</time><extensions><speed>1.197720</speed><course>324.252075</course><hAcc>0.878950</hAcc><vAcc>0.685537</vAcc></extensions></trkpt>
      <trkpt lon="-3.160854" lat="52.987919"><ele>249.803818</ele><time>2021-09-01T09:22:27Z</time><extensions><speed>1.195212</speed><course>324.152374</course><hAcc>0.878426</hAcc><vAcc>0.683767</vAcc></extensions></trkpt>
      <trkpt lon="-3.160866" lat="52.987927"><ele>249.935318</ele><time>2021-09-01T09:22:28Z</time><extensions><speed>1.194964</speed><course>325.481750</course><hAcc>0.877873</hAcc><vAcc>0.681864</vAcc></extensions></trkpt>
      <trkpt lon="-3.160879" lat="52.987934"><ele>250.068939</ele><time>2021-09-01T09:22:29Z</time><extensions><speed>1.196358</speed><course>319.205566</course><hAcc>0.877313</hAcc><vAcc>0.679920</vAcc></extensions></trkpt>
      <trkpt lon="-3.160892" lat="52.987942"><ele>250.204102</ele><time>2021-09-01T09:22:30Z</time><extensions><speed>1.198480</speed><course>318.376190</course><hAcc>0.876769</hAcc><vAcc>0.678041</vAcc></extensions></trkpt>
      <trkpt lon="-3.160905" lat="52.987949"><ele>250.339859</ele><time>2021-09-01T09:22:31Z</time><extensions><speed>1.200951</speed><course>314.977020</course><hAcc>0.876260</hAcc><vAcc>0.676323</vAcc></extensions></trkpt>
      <trkpt lon="-3.160918" lat="52.987956"><ele>250.474640</ele><time>2021-09-01T09:22:32Z</time><extensions><speed>1.203608</speed><course>311.302399</course><hAcc>0.875796</hAcc><vAcc>0.674816</vAcc></extensions></trkpt>
      <trkpt lon="-3.160932" lat="52.987963"><ele>250.606461</ele><time>2021-09-01T09:22:33Z</time><extensions><speed>1.206031</speed><course>310.834198</course><hAcc>0.875374</hAcc><vAcc>0.673513</vAcc></extensions></trkpt>
      <trkpt lon="-3.160946" lat="52.987970"><ele>250.733475</ele><time>2021-09-01T09:22:34Z</time><extensions><speed>1.208416</speed><course>309.925598</course><hAcc>0.874983</hAcc><vAcc>0.672364</vAcc></extensions></trkpt>
      <trkpt lon="-3.160960" lat="52.987977"><ele>250.854462</ele><time>2021-09-01T09:22:35Z</time><extensions><speed>1.211270</speed><course>306.104523</course><hAcc>0.874603</hAcc><vAcc>0.671293</vAcc></extensions></trkpt>
      <trkpt lon="-3.160973" lat="52.987984"><ele>250.969009</ele><time>2021-09-01T09:22:36Z</time><extensions><speed>1.214555</speed><course>306.130798</course><hAcc>0.874214</hAcc><vAcc>0.670215</vAcc></extensions></trkpt>
      <trkpt lon="-3.160987" lat="52.987991"><ele>251.077347</ele><time>2021-09-01T09:22:37Z</time><extensions><speed>1.218225</speed><course>309.163177</course><hAcc>0.873793</hAcc><vAcc>0.669043</vAcc></extensions></trkpt>
      <trkpt lon="-3.161001" lat="52.987998"><ele>251.179291</ele><time>2021-09-01T09:22:38Z</time><extensions><speed>1.222389</speed><course>311.638824</course><hAcc>0.873317</hAcc><vAcc>0.667695</vAcc></extensions></trkpt>
      <trkpt lon="-3.161015" lat="52.988005"><ele>251.274292</ele><time>2021-09-01T09:22:39Z</time><extensions><speed>1.227046</speed><course>306.319550</course><hAcc>0.872767</hAcc><vAcc>0.666099</vAcc></extensions></trkpt>
      <trkpt lon="-3.161029" lat="52.988012"><ele>251.362091</ele><time>2021-09-01T09:22:40Z</time><extensions><speed>1.231810</speed><course>309.448608</course><hAcc>0.872127</hAcc><vAcc>0.664197</vAcc></extensions></trkpt>
      <trkpt lon="-3.161043" lat="52.988020"><ele>251.443085</ele><time>2021-09-01T09:22:41Z</time><extensions><speed>1.236148</speed><course>307.055084</course><hAcc>0.871388</hAcc><vAcc>0.661951</vAcc></extensions></trkpt>
      <trkpt lon="-3.161057" lat="52.988027"><ele>251.518173</ele><time>2021-09-01T09:22:42Z</time><extensions><speed>1.239871</speed><course>309.609528</course><hAcc>0.870546</hAcc><vAcc>0.659346</vAcc></extensions></trkpt>
      <trkpt lon="-3.161070" lat="52.988035"><ele>251.588593</ele><time>2021-09-01T09:22:43Z</time><extensions><speed>1.242814</speed><course>304.747925</course><hAcc>0.869608</hAcc><vAcc>0.656401</vAcc></extensions></trkpt>
      <trkpt lon="-3.161084" lat="52.988042"><ele>251.655777</ele><time>2021-09-01T09:22:44Z</time><extensions><speed>1.244915</speed><course>298.413086</course><hAcc>0.868587</hAcc><vAcc>0.653167</vAcc></extensions></trkpt>
      <trkpt lon="-3.161097" lat="52.988050"><ele>251.721344</ele><time>2021-09-01T09:22:45Z</time><extensions><speed>1.246962</speed><course>304.495026</course><hAcc>0.867506</hAcc><vAcc>0.649720</vAcc></extensions></trkpt>
      <trkpt lon="-3.161110" lat="52.988058"><ele>251.786896</ele><time>2021-09-01T09:22:46Z</time><extensions><speed>1.250125</speed><course>308.805939</course><hAcc>0.866388</hAcc><vAcc>0.646143</vAcc></extensions></trkpt>
      <trkpt lon="-3.161123" lat="52.988066"><ele>251.853546</ele><time>2021-09-01T09:22:47Z</time><extensions><speed>1.254256</speed><course>311.789917</course><hAcc>0.865260</hAcc><vAcc>0.642523</vAcc></extensions></trkpt>
      <trkpt lon="-3.161136" lat="52.988075"><ele>251.921814</ele><time>2021-09-01T09:22:48Z</time><extensions><speed>1.258073</speed><course>310.886353</course><hAcc>0.864145</hAcc><vAcc>0.638944</vAcc></extensions></trkpt>
      <trkpt lon="-3.161148" lat="52.988083"><ele>251.991806</ele><time>2021-09-01T09:22:49Z</time><extensions><speed>1.260524</speed><course>314.533539</course><hAcc>0.863070</hAcc><vAcc>0.635491</vAcc></extensions></trkpt>
      <trkpt lon="-3.161161" lat="52.988091"><ele>252.063477</ele><time>2021-09-01T09:22:50Z</time><extensions><speed>1.261121</speed><course>315.680542</course><hAcc>0.862058</hAcc><vAcc>0.632247</vAcc></extensions></trkpt>
      <trkpt lon="-3.161173" lat="52.988100"><ele>252.136749</ele><time>2021-09-01T09:22:51Z</time><extensions><speed>1.259658</speed><course>318.090881</course><hAcc>0.861127</hAcc><vAcc>0.629274</vAcc></extensions></trkpt>
      <trkpt lon="-3.161185" lat="52.988109"><ele>252.211609</ele><time>2021-09-01T09:22:52Z</time><extensions><speed>1.256277</speed><course>322.434174</course><hAcc>0.860279</hAcc><vAcc>0.626585</vAcc></extensions></trkpt>
      <trkpt lon="-3.161197" lat="52.988117"><ele>252.287842</ele><time>2021-09-01T09:22:53Z</time><extensions><speed>1.251512</speed><course>326.481506</course><hAcc>0.859497</hAcc><vAcc>0.624129</vAcc></extensions></trkpt>
      <trkpt lon="-3.161209" lat="52.988126"><ele>252.364807</ele><time>2021-09-01T09:22:54Z</time><extensions><speed>1.245917</speed><course>309.522247</course><hAcc>0.858751</hAcc><vAcc>0.621803</vAcc></extensions></trkpt>
      <trkpt lon="-3.161221" lat="52.988134"><ele>252.441818</ele><time>2021-09-01T09:22:55Z</time><extensions><speed>1.239890</speed><course>317.105560</course><hAcc>0.858005</hAcc><vAcc>0.619491</vAcc></extensions></trkpt>
      <trkpt lon="-3.161233" lat="52.988143"><ele>252.518295</ele><time>2021-09-01T09:22:56Z</time><extensions><speed>1.234180</speed><course>325.631348</course><hAcc>0.857229</hAcc><vAcc>0.617087</vAcc></extensions></trkpt>
      <trkpt lon="-3.161245" lat="52.988151"><ele>252.593506</ele><time>2021-09-01T09:22:57Z</time><extensions><speed>1.229576</speed><course>323.961853</course><hAcc>0.856405</hAcc><vAcc>0.614519</vAcc></extensions></trkpt>
      <trkpt lon="-3.161257" lat="52.988160"><ele>252.666702</ele><time>2021-09-01T09:22:58Z</time><extensions><speed>1.226015</speed><course>321.394775</course><hAcc>0.855527</hAcc><vAcc>0.611761</vAcc></extensions></trkpt>
      <trkpt lon="-3.161269" lat="52.988168"><ele>252.737473</ele><time>2021-09-01T09:22:59Z</time><extensions><speed>1.223424</speed><course>321.108948</course><hAcc>0.854605</hAcc><vAcc>0.608827</vAcc></extensions></trkpt>
      <trkpt lon="-3.161281" lat="52.988176"><ele>252.806046</ele><time>2021-09-01T09:23:00Z</time><extensions><speed>1.221977</speed><course>321.170013</course><hAcc>0.853658</hAcc><vAcc>0.605755</vAcc></extensions></trkpt>
      <trkpt lon="-3.161293" lat="52.988184"><ele>252.873016</ele><time>2021-09-01T09:23:01Z</time><extensions><speed>1.221861</speed><course>306.176178</course><hAcc>0.852711</hAcc><vAcc>0.602595</vAcc></extensions></trkpt>
      <trkpt lon="-3.161305" lat="52.988193"><ele>252.938980</ele><time>2021-09-01T09:23:02Z</time><extensions><speed>1.223044</speed><course>315.376495</course><hAcc>0.851792</hAcc><vAcc>0.599409</vAcc></extensions></trkpt>
      <trkpt lon="-3.161317" lat="52.988201"><ele>253.004440</ele><time>2021-09-01T09:23:03Z</time><extensions><speed>1.224618</speed><course>318.757812</course><hAcc>0.850940</hAcc><vAcc>0.596272</vAcc></extensions></trkpt>
      <trkpt lon="-3.161329" lat="52.988209"><ele>253.069366</ele><time>2021-09-01T09:23:04Z</time><extensions><speed>1.225543</speed><course>302.990356</course><hAcc>0.850196</hAcc><vAcc>0.593277</vAcc></extensions></trkpt>
      <trkpt lon="-3.161341" lat="52.988217"><ele>253.133530</ele><time>2021-09-01T09:23:05Z</time><extensions><speed>1.224698</speed><course>313.317535</course><hAcc>0.849600</hAcc><vAcc>0.590511</vAcc></extensions></trkpt>
      <trkpt lon="-3.161353" lat="52.988226"><ele>253.197006</ele><time>2021-09-01T09:23:06Z</time><extensions><speed>1.221551</speed><course>312.441528</course><hAcc>0.849179</hAcc><vAcc>0.588035</vAcc></extensions></trkpt>
      <trkpt lon="-3.161365" lat="52.988234"><ele>253.260025</ele><time>2021-09-01T09:23:07Z</time><extensions><speed>1.216197</speed><course>316.780334</course><hAcc>0.848944</hAcc><vAcc>0.585880</vAcc></extensions></trkpt>
      <trkpt lon="-3.161377" lat="52.988242"><ele>253.323151</ele><time>2021-09-01T09:23:08Z</time><extensions><speed>1.208931</speed><course>316.095612</course><hAcc>0.848885</hAcc><vAcc>0.584048</vAcc></extensions></trkpt>
      <trkpt lon="-3.161389" lat="52.988250"><ele>253.387680</ele><time>2021-09-01T09:23:09Z</time><extensions><speed>1.200482</speed><course>314.234863</course><hAcc>0.848981</hAcc><vAcc>0.582552</vAcc></extensions></trkpt>
      <trkpt lon="-3.161400" lat="52.988258"><ele>253.455078</ele><time>2021-09-01T09:23:10Z</time><extensions><speed>1.191231</speed><course>308.545959</course><hAcc>0.849204</hAcc><vAcc>0.581447</vAcc></extensions></trkpt>
      <trkpt lon="-3.161412" lat="52.988266"><ele>253.526672</ele><time>2021-09-01T09:23:11Z</time><extensions><speed>1.181864</speed><course>317.115723</course><hAcc>0.849518</hAcc><vAcc>0.580828</vAcc></extensions></trkpt>
      <trkpt lon="-3.161423" lat="52.988274"><ele>253.603989</ele><time>2021-09-01T09:23:12Z</time><extensions><speed>1.173703</speed><course>324.999634</course><hAcc>0.849885</hAcc><vAcc>0.580809</vAcc></extensions></trkpt>
      <trkpt lon="-3.161435" lat="52.988282"><ele>253.688309</ele><time>2021-09-01T09:23:13Z</time><extensions><speed>1.167844</speed><course>317.924194</course><hAcc>0.850273</hAcc><vAcc>0.581489</vAcc></extensions></trkpt>
      <trkpt lon="-3.161446" lat="52.988290"><ele>253.780167</ele><time>2021-09-01T09:23:14Z</time><extensions><speed>1.164492</speed><course>315.987152</course><hAcc>0.850664</hAcc><vAcc>0.582932</vAcc></extensions></trkpt>
      <trkpt lon="-3.161457" lat="52.988298"><ele>253.879608</ele><time>2021-09-01T09:23:15Z</time><extensions><speed>1.163828</speed><course>314.734009</course><hAcc>0.851061</hAcc><vAcc>0.585137</vAcc></extensions></trkpt>
      <trkpt lon="-3.161469" lat="52.988306"><ele>253.986908</ele><time>2021-09-01T09:23:16Z</time><extensions><speed>1.166365</speed><course>317.632782</course><hAcc>0.851480</hAcc><vAcc>0.588004</vAcc></extensions></trkpt>
      <trkpt lon="-3.161480" lat="52.988314"><ele>254.102341</ele><time>2021-09-01T09:23:17Z</time><extensions><speed>1.171893</speed><course>301.352448</course><hAcc>0.851942</hAcc><vAcc>0.591328</vAcc></extensions></trkpt>
      <trkpt lon="-3.161491" lat="52.988322"><ele>254.226181</ele><time>2021-09-01T09:23:18Z</time><extensions><speed>1.178484</speed><course>311.835449</course><hAcc>0.852443</hAcc><vAcc>0.594830</vAcc></extensions></trkpt>
      <trkpt lon="-3.161502" lat="52.988331"><ele>254.358780</ele><time>2021-09-01T09:23:19Z</time><extensions><speed>1.183936</speed><course>314.400024</course><hAcc>0.852954</hAcc><vAcc>0.598228</vAcc></extensions></trkpt>
      <trkpt lon="-3.161514" lat="52.988339"><ele>254.500412</ele><time>2021-09-01T09:23:20Z</time><extensions><speed>1.187515</speed><course>314.080444</course><hAcc>0.853441</hAcc><vAcc>0.601300</vAcc></extensions></trkpt>
      <trkpt lon="-3.161525" lat="52.988347"><ele>254.650970</ele><time>2021-09-01T09:23:21Z</time><extensions><speed>1.189268</speed><course>307.602600</course><hAcc>0.853875</hAcc><vAcc>0.603912</vAcc></extensions></trkpt>
      <trkpt lon="-3.161536" lat="52.988355"><ele>254.809738</ele><time>2021-09-01T09:23:22Z</time><extensions><speed>1.189485</speed><course>311.268951</course><hAcc>0.854242</hAcc><vAcc>0.606025</vAcc></extensions></trkpt>
      <trkpt lon="-3.161547" lat="52.988364"><ele>254.975662</ele><time>2021-09-01T09:23:23Z</time><extensions><speed>1.188816</speed><course>316.568695</course><hAcc>0.854554</hAcc><vAcc>0.607715</vAcc></extensions></trkpt>
      <trkpt lon="-3.161558" lat="52.988372"><ele>255.147644</ele><time>2021-09-01T09:23:24Z</time><extensions><speed>1.188124</speed><course>324.849396</course><hAcc>0.854858</hAcc><vAcc>0.609176</vAcc></extensions></trkpt>
      <trkpt lon="-3.161569" lat="52.988380"><ele>255.324509</ele><time>2021-09-01T09:23:25Z</time><extensions><speed>1.187515</speed><course>318.929504</course><hAcc>0.855226</hAcc><vAcc>0.610690</vAcc></extensions></trkpt>
      <trkpt lon="-3.161580" lat="52.988389"><ele>255.504990</ele><time>2021-09-01T09:23:26Z</time><extensions><speed>1.186715</speed><course>315.514008</course><hAcc>0.855736</hAcc><vAcc>0.612548</vAcc></extensions></trkpt>
      <trkpt lon="-3.161591" lat="52.988397"><ele>255.687927</ele><time>2021-09-01T09:23:27Z</time><extensions><speed>1.185885</speed><course>309.432922</course><hAcc>0.856443</hAcc><vAcc>0.614959</vAcc></extensions></trkpt>
      <trkpt lon="-3.161602" lat="52.988406"><ele>255.872238</ele><time>2021-09-01T09:23:28Z</time><extensions><speed>1.184715</speed><course>306.068817</course><hAcc>0.857367</hAcc><vAcc>0.618002</vAcc></extensions></trkpt>
      <trkpt lon="-3.161612" lat="52.988414"><ele>256.057190</ele><time>2021-09-01T09:23:29Z</time><extensions><speed>1.182329</speed><course>319.983490</course><hAcc>0.858486</hAcc><vAcc>0.621616</vAcc></extensions></trkpt>
      <trkpt lon="-3.161623" lat="52.988422"><ele>256.242188</ele><time>2021-09-01T09:23:30Z</time><extensions><speed>1.178833</speed><course>315.606720</course><hAcc>0.859745</hAcc><vAcc>0.625633</vAcc></extensions></trkpt>
      <trkpt lon="-3.161634" lat="52.988431"><ele>256.426666</ele><time>2021-09-01T09:23:31Z</time><extensions><speed>1.175142</speed><course>317.784515</course><hAcc>0.861081</hAcc><vAcc>0.629854</vAcc></extensions></trkpt>
      <trkpt lon="-3.161644" lat="52.988439"><ele>256.609467</ele><time>2021-09-01T09:23:32Z</time><extensions><speed>1.171942</speed><course>313.524780</course><hAcc>0.862439</hAcc><vAcc>0.634111</vAcc></extensions></trkpt>
      <trkpt lon="-3.161655" lat="52.988448"><ele>256.788971</ele><time>2021-09-01T09:23:33Z</time><extensions><speed>1.169383</speed><course>310.903687</course><hAcc>0.863777</hAcc><vAcc>0.638277</vAcc></extensions></trkpt>
      <trkpt lon="-3.161666" lat="52.988456"><ele>256.963715</ele><time>2021-09-01T09:23:34Z</time><extensions><speed>1.167613</speed><course>315.823334</course><hAcc>0.865063</hAcc><vAcc>0.642256</vAcc></extensions></trkpt>
      <trkpt lon="-3.161676" lat="52.988464"><ele>257.132843</ele><time>2021-09-01T09:23:35Z</time><extensions><speed>1.166966</speed><course>318.320831</course><hAcc>0.866272</hAcc><vAcc>0.645976</vAcc></extensions></trkpt>
      <trkpt lon="-3.161687" lat="52.988473"><ele>257.295807</ele><time>2021-09-01T09:23:36Z</time><extensions><speed>1.167935</speed><course>306.579529</course><hAcc>0.867390</hAcc><vAcc>0.649390</vAcc></extensions></trkpt>
      <trkpt lon="-3.161697" lat="52.988481"><ele>257.452271</ele><time>2021-09-01T09:23:37Z</time><extensions><speed>1.170758</speed><course>308.750916</course><hAcc>0.868410</hAcc><vAcc>0.652484</vAcc></extensions></trkpt>
      <trkpt lon="-3.161708" lat="52.988489"><ele>257.602295</ele><time>2021-09-01T09:23:38Z</time><extensions><speed>1.174966</speed><course>310.705475</course><hAcc>0.869334</hAcc><vAcc>0.655279</vAcc></extensions></trkpt>
      <trkpt lon="-3.161719" lat="52.988498"><ele>257.746002</ele><time>2021-09-01T09:23:39Z</time><extensions><speed>1.179895</speed><course>309.681793</course><hAcc>0.870172</hAcc><vAcc>0.657817</vAcc></extensions></trkpt>
      <trkpt lon="-3.161729" lat="52.988506"><ele>257.883453</ele><time>2021-09-01T09:23:40Z</time><extensions><speed>1.184839</speed><course>322.348389</course><hAcc>0.870934</hAcc><vAcc>0.660144</vAcc></extensions></trkpt>
      <trkpt lon="-3.161740" lat="52.988514"><ele>258.014862</ele><time>2021-09-01T09:23:41Z</time><extensions><speed>1.189706</speed><course>326.702148</course><hAcc>0.871626</hAcc><vAcc>0.662286</vAcc></extensions></trkpt>
      <trkpt lon="-3.161751" lat="52.988523"><ele>258.140747</ele><time>2021-09-01T09:23:42Z</time><extensions><speed>1.194665</speed><course>331.813965</course><hAcc>0.872253</hAcc><vAcc>0.664248</vAcc></extensions></trkpt>
      <trkpt lon="-3.161763" lat="52.988531"><ele>258.261688</ele><time>2021-09-01T09:23:43Z</time><extensions><speed>1.199994</speed><course>329.095581</course><hAcc>0.872812</hAcc><vAcc>0.666021</vAcc></extensions></trkpt>
      <trkpt lon="-3.161774" lat="52.988539"><ele>258.378113</ele><time>2021-09-01T09:23:44Z</time><extensions><speed>1.205764</speed><course>317.013092</course><hAcc>0.873301</hAcc><vAcc>0.667585</vAcc></extensions></trkpt>
      <trkpt lon="-3.161786" lat="52.988548"><ele>258.490784</ele><time>2021-09-01T09:23:45Z</time><extensions><speed>1.211567</speed><course>304.237976</course><hAcc>0.873716</hAcc><vAcc>0.668921</vAcc></extensions></trkpt>
      <trkpt lon="-3.161798" lat="52.988556"><ele>258.600525</ele><time>2021-09-01T09:23:46Z</time><extensions><speed>1.217123</speed><course>306.732727</course><hAcc>0.874052</hAcc><vAcc>0.670003</vAcc></extensions></trkpt>
      <trkpt lon="-3.161810" lat="52.988564"><ele>258.708160</ele><time>2021-09-01T09:23:47Z</time><extensions><speed>1.222635</speed><course>314.620697</course><hAcc>0.874306</hAcc><vAcc>0.670808</vAcc></extensions></trkpt>
      <trkpt lon="-3.161822" lat="52.988572"><ele>258.814392</ele><time>2021-09-01T09:23:48Z</time><extensions><speed>1.228581</speed><course>308.721527</course><hAcc>0.874474</hAcc><vAcc>0.671325</vAcc></extensions></trkpt>
      <trkpt lon="-3.161835" lat="52.988580"><ele>258.919739</ele><time>2021-09-01T09:23:49Z</time><extensions><speed>1.234628</speed><course>324.142334</course><hAcc>0.874561</hAcc><vAcc>0.671559</vAcc></extensions></trkpt>
      <trkpt lon="-3.161847" lat="52.988588"><ele>259.024445</ele><time>2021-09-01T09:23:50Z</time><extensions><speed>1.240277</speed><course>320.497589</course><hAcc>0.874570</hAcc><vAcc>0.671535</vAcc></extensions></trkpt>
      <trkpt lon="-3.161860" lat="52.988597"><ele>259.128754</ele><time>2021-09-01T09:23:51Z</time><extensions><speed>1.245713</speed><course>317.760712</course><hAcc>0.874513</hAcc><vAcc>0.671287</vAcc></extensions></trkpt>
      <trkpt lon="-3.161873" lat="52.988605"><ele>259.233032</ele><time>2021-09-01T09:23:52Z</time><extensions><speed>1.251227</speed><course>320.404846</course><hAcc>0.874398</hAcc><vAcc>0.670853</vAcc></extensions></trkpt>
      <trkpt lon="-3.161886" lat="52.988613"><ele>259.337646</ele><time>2021-09-01T09:23:53Z</time><extensions><speed>1.256817</speed><course>325.015778</course><hAcc>0.874239</hAcc><vAcc>0.670273</vAcc></extensions></trkpt>
      <trkpt lon="-3.161899" lat="52.988621"><ele>259.442444</ele><time>2021-09-01T09:23:54Z</time><extensions><speed>1.262105</speed><course>317.077057</course><hAcc>0.874048</hAcc><vAcc>0.669591</vAcc></extensions></trkpt>
      <trkpt lon="-3.161912" lat="52.988629"><ele>259.547424</ele><time>2021-09-01T09:23:55Z</time><extensions><speed>1.266621</speed><course>311.682465</course><hAcc>0.873840</hAcc><vAcc>0.668858</vAcc></extensions></trkpt>
      <trkpt lon="-3.161925" lat="52.988637"><ele>259.653137</ele><time>2021-09-01T09:23:56Z</time><extensions><speed>1.270149</speed><course>306.448975</course><hAcc>0.873629</hAcc><vAcc>0.668129</vAcc></extensions></trkpt>
      <trkpt lon="-3.161938" lat="52.988646"><ele>259.760529</ele><time>2021-09-01T09:23:57Z</time><extensions><speed>1.272899</speed><course>313.316711</course><hAcc>0.873428</hAcc><vAcc>0.667452</vAcc></extensions></trkpt>
      <trkpt lon="-3.161951" lat="52.988654"><ele>259.869904</ele><time>2021-09-01T09:23:58Z</time><extensions><speed>1.275123</speed><course>315.373596</course><hAcc>0.873245</hAcc><vAcc>0.666856</vAcc></extensions></trkpt>
      <trkpt lon="-3.161964" lat="52.988663"><ele>259.981415</ele><time>2021-09-01T09:23:59Z</time><extensions><speed>1.277135</speed><course>312.668671</course><hAcc>0.873085</hAcc><vAcc>0.666354</vAcc></extensions></trkpt>
      <trkpt lon="-3.161976" lat="52.988671"><ele>260.095490</ele><time>2021-09-01T09:24:00Z</time><extensions><speed>1.279479</speed><course>309.354675</course><hAcc>0.872949</hAcc><vAcc>0.665940</vAcc></extensions></trkpt>
      <trkpt lon="-3.161989" lat="52.988680"><ele>260.212769</ele><time>2021-09-01T09:24:01Z</time><extensions><speed>1.282449</speed><course>313.043518</course><hAcc>0.872832</hAcc><vAcc>0.665597</vAcc></extensions></trkpt>
      <trkpt lon="-3.162001" lat="52.988689"><ele>260.333954</ele><time>2021-09-01T09:24:02Z</time><extensions><speed>1.286455</speed><course>317.199493</course><hAcc>0.872732</hAcc><vAcc>0.665302</vAcc></extensions></trkpt>
      <trkpt lon="-3.162013" lat="52.988698"><ele>260.459625</ele><time>2021-09-01T09:24:03Z</time><extensions><speed>1.291927</speed><course>310.331177</course><hAcc>0.872645</hAcc><vAcc>0.665040</vAcc></extensions></trkpt>
      <trkpt lon="-3.162025" lat="52.988707"><ele>260.590057</ele><time>2021-09-01T09:24:04Z</time><extensions><speed>1.298545</speed><course>317.756012</course><hAcc>0.872570</hAcc><vAcc>0.664807</vAcc></extensions></trkpt>
      <trkpt lon="-3.162037" lat="52.988716"><ele>260.725342</ele><time>2021-09-01T09:24:05Z</time><extensions><speed>1.305422</speed><course>318.781036</course><hAcc>0.872506</hAcc><vAcc>0.664603</vAcc></extensions></trkpt>
      <trkpt lon="-3.162049" lat="52.988725"><ele>260.865234</ele><time>2021-09-01T09:24:06Z</time><extensions><speed>1.311766</speed><course>314.656464</course><hAcc>0.872452</hAcc><vAcc>0.664429</vAcc></extensions></trkpt>
      <trkpt lon="-3.162060" lat="52.988735"><ele>261.009186</ele><time>2021-09-01T09:24:07Z</time><extensions><speed>1.317282</speed><course>319.512268</course><hAcc>0.872408</hAcc><vAcc>0.664278</vAcc></extensions></trkpt>
      <trkpt lon="-3.162072" lat="52.988744"><ele>261.156281</ele><time>2021-09-01T09:24:08Z</time><extensions><speed>1.321723</speed><course>322.101624</course><hAcc>0.872373</hAcc><vAcc>0.664146</vAcc></extensions></trkpt>
      <trkpt lon="-3.162084" lat="52.988754"><ele>261.305603</ele><time>2021-09-01T09:24:09Z</time><extensions><speed>1.324370</speed><course>318.612640</course><hAcc>0.872348</hAcc><vAcc>0.664032</vAcc></extensions></trkpt>
      <trkpt lon="-3.162095" lat="52.988764"><ele>261.456055</ele><time>2021-09-01T09:24:10Z</time><extensions><speed>1.324787</speed><course>318.709808</course><hAcc>0.872335</hAcc><vAcc>0.663948</vAcc></extensions></trkpt>
      <trkpt lon="-3.162107" lat="52.988773"><ele>261.606842</ele><time>2021-09-01T09:24:12Z</time><extensions><speed>1.323163</speed><course>309.168610</course><hAcc>0.872321</hAcc><vAcc>0.663899</vAcc></extensions></trkpt>
      <trkpt lon="-3.162118" lat="52.988783"><ele>261.756775</ele><time>2021-09-01T09:24:13Z</time><extensions><speed>1.319549</speed><course>318.520874</course><hAcc>0.872309</hAcc><vAcc>0.663902</vAcc></extensions></trkpt>
      <trkpt lon="-3.162130" lat="52.988793"><ele>261.905151</ele><time>2021-09-01T09:24:14Z</time><extensions><speed>1.313678</speed><course>322.226654</course><hAcc>0.872318</hAcc><vAcc>0.663970</vAcc></extensions></trkpt>
      <trkpt lon="-3.162141" lat="52.988802"><ele>262.050842</ele><time>2021-09-01T09:24:15Z</time><extensions><speed>1.305406</speed><course>319.023285</course><hAcc>0.872343</hAcc><vAcc>0.664091</vAcc></extensions></trkpt>
      <trkpt lon="-3.162152" lat="52.988812"><ele>262.193146</ele><time>2021-09-01T09:24:16Z</time><extensions><speed>1.294925</speed><course>325.928833</course><hAcc>0.872381</hAcc><vAcc>0.664245</vAcc></extensions></trkpt>
      <trkpt lon="-3.162164" lat="52.988821"><ele>262.332123</ele><time>2021-09-01T09:24:17Z</time><extensions><speed>1.282586</speed><course>330.973969</course><hAcc>0.872429</hAcc><vAcc>0.664421</vAcc></extensions></trkpt>
      <trkpt lon="-3.162175" lat="52.988830"><ele>262.467804</ele><time>2021-09-01T09:24:18Z</time><extensions><speed>1.268479</speed><course>325.462158</course><hAcc>0.872488</hAcc><vAcc>0.664623</vAcc></extensions></trkpt>
      <trkpt lon="-3.162187" lat="52.988839"><ele>262.599701</ele><time>2021-09-01T09:24:19Z</time><extensions><speed>1.252528</speed><course>319.000732</course><hAcc>0.872558</hAcc><vAcc>0.664867</vAcc></extensions></trkpt>
      <trkpt lon="-3.162199" lat="52.988848"><ele>262.726868</ele><time>2021-09-01T09:24:19Z</time><extensions><speed>1.235030</speed><course>324.049713</course><hAcc>0.872660</hAcc><vAcc>0.665175</vAcc></extensions></trkpt>
      <trkpt lon="-3.162210" lat="52.988856"><ele>262.849213</ele><time>2021-09-01T09:24:20Z</time><extensions><speed>1.216970</speed><course>322.275696</course><hAcc>0.872795</hAcc><vAcc>0.665556</vAcc></extensions></trkpt>
      <trkpt lon="-3.162222" lat="52.988864"><ele>262.966248</ele><time>2021-09-01T09:24:21Z</time><extensions><speed>1.199556</speed><course>319.519531</course><hAcc>0.872944</hAcc><vAcc>0.665997</vAcc></extensions></trkpt>
      <trkpt lon="-3.162234" lat="52.988872"><ele>263.077423</ele><time>2021-09-01T09:24:22Z</time><extensions><speed>1.183721</speed><course>317.980042</course><hAcc>0.873106</hAcc><vAcc>0.666501</vAcc></extensions></trkpt>
      <trkpt lon="-3.162246" lat="52.988880"><ele>263.182526</ele><time>2021-09-01T09:24:23Z</time><extensions><speed>1.170360</speed><course>318.102478</course><hAcc>0.873281</hAcc><vAcc>0.667068</vAcc></extensions></trkpt>
      <trkpt lon="-3.162258" lat="52.988888"><ele>263.281830</ele><time>2021-09-01T09:24:24Z</time><extensions><speed>1.160043</speed><course>303.135742</course><hAcc>0.873464</hAcc><vAcc>0.667689</vAcc></extensions></trkpt>
      <trkpt lon="-3.162269" lat="52.988895"><ele>263.375916</ele><time>2021-09-01T09:24:25Z</time><extensions><speed>1.152763</speed><course>309.585754</course><hAcc>0.873647</hAcc><vAcc>0.668339</vAcc></extensions></trkpt>
      <trkpt lon="-3.162281" lat="52.988903"><ele>263.465668</ele><time>2021-09-01T09:24:26Z</time><extensions><speed>1.148235</speed><course>312.043945</course><hAcc>0.873819</hAcc><vAcc>0.668973</vAcc></extensions></trkpt>
      <trkpt lon="-3.162293" lat="52.988910"><ele>263.551971</ele><time>2021-09-01T09:24:27Z</time><extensions><speed>1.146178</speed><course>296.473785</course><hAcc>0.873964</hAcc><vAcc>0.669526</vAcc></extensions></trkpt>
      <trkpt lon="-3.162305" lat="52.988918"><ele>263.635712</ele><time>2021-09-01T09:24:28Z</time><extensions><speed>1.145450</speed><course>304.000305</course><hAcc>0.874066</hAcc><vAcc>0.669928</vAcc></extensions></trkpt>
      <trkpt lon="-3.162317" lat="52.988925"><ele>263.718018</ele><time>2021-09-01T09:24:29Z</time><extensions><speed>1.144195</speed><course>310.101471</course><hAcc>0.874114</hAcc><vAcc>0.670125</vAcc></extensions></trkpt>
      <trkpt lon="-3.162328" lat="52.988932"><ele>263.799988</ele><time>2021-09-01T09:24:30Z</time><extensions><speed>1.141066</speed><course>314.593170</course><hAcc>0.874100</hAcc><vAcc>0.670087</vAcc></extensions></trkpt>
      <trkpt lon="-3.162340" lat="52.988940"><ele>263.882904</ele><time>2021-09-01T09:24:31Z</time><extensions><speed>1.135749</speed><course>319.388824</course><hAcc>0.874025</hAcc><vAcc>0.669814</vAcc></extensions></trkpt>
      <trkpt lon="-3.162351" lat="52.988947"><ele>263.967896</ele><time>2021-09-01T09:24:32Z</time><extensions><speed>1.128659</speed><course>321.438110</course><hAcc>0.873896</hAcc><vAcc>0.669334</vAcc></extensions></trkpt>
      <trkpt lon="-3.162362" lat="52.988955"><ele>264.055542</ele><time>2021-09-01T09:24:33Z</time><extensions><speed>1.120427</speed><course>328.475067</course><hAcc>0.873723</hAcc><vAcc>0.668692</vAcc></extensions></trkpt>
      <trkpt lon="-3.162373" lat="52.988962"><ele>264.146149</ele><time>2021-09-01T09:24:34Z</time><extensions><speed>1.111414</speed><course>323.126923</course><hAcc>0.873524</hAcc><vAcc>0.667952</vAcc></extensions></trkpt>
      <trkpt lon="-3.162384" lat="52.988970"><ele>264.239563</ele><time>2021-09-01T09:24:35Z</time><extensions><speed>1.101668</speed><course>317.031311</course><hAcc>0.873316</hAcc><vAcc>0.667190</vAcc></extensions></trkpt>
      <trkpt lon="-3.162395" lat="52.988977"><ele>264.335632</ele><time>2021-09-01T09:24:36Z</time><extensions><speed>1.091416</speed><course>312.376312</course><hAcc>0.873119</hAcc><vAcc>0.666486</vAcc></extensions></trkpt>
      <trkpt lon="-3.162405" lat="52.988985"><ele>264.434113</ele><time>2021-09-01T09:24:37Z</time><extensions><speed>1.080755</speed><course>318.822571</course><hAcc>0.872946</hAcc><vAcc>0.665895</vAcc></extensions></trkpt>
      <trkpt lon="-3.162416" lat="52.988992"><ele>264.534576</ele><time>2021-09-01T09:24:38Z</time><extensions><speed>1.069941</speed><course>319.617462</course><hAcc>0.872807</hAcc><vAcc>0.665448</vAcc></extensions></trkpt>
      <trkpt lon="-3.162425" lat="52.989000"><ele>264.636383</ele><time>2021-09-01T09:24:39Z</time><extensions><speed>1.059538</speed><course>313.608459</course><hAcc>0.872700</hAcc><vAcc>0.665138</vAcc></extensions></trkpt>
      <trkpt lon="-3.162435" lat="52.989007"><ele>264.738892</ele><time>2021-09-01T09:24:40Z</time><extensions><speed>1.050340</speed><course>304.402069</course><hAcc>0.872621</hAcc><vAcc>0.664936</vAcc></extensions></trkpt>
      <trkpt lon="-3.162444" lat="52.989015"><ele>264.841919</ele><time>2021-09-01T09:24:41Z</time><extensions><speed>1.043019</speed><course>313.372192</course><hAcc>0.872562</hAcc><vAcc>0.664804</vAcc></extensions></trkpt>
      <trkpt lon="-3.162453" lat="52.989023"><ele>264.945740</ele><time>2021-09-01T09:24:42Z</time><extensions><speed>1.037311</speed><course>314.449158</course><hAcc>0.872514</hAcc><vAcc>0.664703</vAcc></extensions></trkpt>
      <trkpt lon="-3.162461" lat="52.989031"><ele>265.050659</ele><time>2021-09-01T09:24:43Z</time><extensions><speed>1.033550</speed><course>316.455048</course><hAcc>0.872469</hAcc><vAcc>0.664594</vAcc></extensions></trkpt>
      <trkpt lon="-3.162469" lat="52.989038"><ele>265.156921</ele><time>2021-09-01T09:24:44Z</time><extensions><speed>1.032571</speed><course>322.827759</course><hAcc>0.872423</hAcc><vAcc>0.664455</vAcc></extensions></trkpt>
      <trkpt lon="-3.162477" lat="52.989046"><ele>265.264404</ele><time>2021-09-01T09:24:45Z</time><extensions><speed>1.034956</speed><course>335.256775</course><hAcc>0.872372</hAcc><vAcc>0.664279</vAcc></extensions></trkpt>
      <trkpt lon="-3.162485" lat="52.989054"><ele>265.372833</ele><time>2021-09-01T09:24:46Z</time><extensions><speed>1.040650</speed><course>334.470093</course><hAcc>0.872320</hAcc><vAcc>0.664082</vAcc></extensions></trkpt>
      <trkpt lon="-3.162493" lat="52.989062"><ele>265.481964</ele><time>2021-09-01T09:24:47Z</time><extensions><speed>1.049061</speed><course>329.142944</course><hAcc>0.872273</hAcc><vAcc>0.663896</vAcc></extensions></trkpt>
      <trkpt lon="-3.162501" lat="52.989071"><ele>265.591736</ele><time>2021-09-01T09:24:48Z</time><extensions><speed>1.059914</speed><course>330.236481</course><hAcc>0.872237</hAcc><vAcc>0.663750</vAcc></extensions></trkpt>
      <trkpt lon="-3.162509" lat="52.989079"><ele>265.702271</ele><time>2021-09-01T09:24:49Z</time><extensions><speed>1.073188</speed><course>327.126953</course><hAcc>0.872215</hAcc><vAcc>0.663670</vAcc></extensions></trkpt>
      <trkpt lon="-3.162518" lat="52.989087"><ele>265.813629</ele><time>2021-09-01T09:24:50Z</time><extensions><speed>1.088965</speed><course>324.196686</course><hAcc>0.872211</hAcc><vAcc>0.663664</vAcc></extensions></trkpt>
      <trkpt lon="-3.162527" lat="52.989095"><ele>265.925659</ele><time>2021-09-01T09:24:51Z</time><extensions><speed>1.106936</speed><course>323.671265</course><hAcc>0.872221</hAcc><vAcc>0.663721</vAcc></extensions></trkpt>
      <trkpt lon="-3.162535" lat="52.989104"><ele>266.037933</ele><time>2021-09-01T09:24:52Z</time><extensions><speed>1.126665</speed><course>327.262970</course><hAcc>0.872239</hAcc><vAcc>0.663815</vAcc></extensions></trkpt>
      <trkpt lon="-3.162545" lat="52.989112"><ele>266.149933</ele><time>2021-09-01T09:24:53Z</time><extensions><speed>1.147533</speed><course>327.549561</course><hAcc>0.872259</hAcc><vAcc>0.663914</vAcc></extensions></trkpt>
      <trkpt lon="-3.162554" lat="52.989121"><ele>266.261414</ele><time>2021-09-01T09:24:54Z</time><extensions><speed>1.168462</speed><course>319.078094</course><hAcc>0.872272</hAcc><vAcc>0.663991</vAcc></extensions></trkpt>
      <trkpt lon="-3.162564" lat="52.989130"><ele>266.372589</ele><time>2021-09-01T09:24:55Z</time><extensions><speed>1.188383</speed><course>327.008026</course><hAcc>0.872275</hAcc><vAcc>0.664024</vAcc></extensions></trkpt>
      <trkpt lon="-3.162575" lat="52.989139"><ele>266.484009</ele><time>2021-09-01T09:24:56Z</time><extensions><speed>1.206919</speed><course>328.155212</course><hAcc>0.872264</hAcc><vAcc>0.663999</vAcc></extensions></trkpt>
      <trkpt lon="-3.162585" lat="52.989147"><ele>266.596313</ele><time>2021-09-01T09:24:57Z</time><extensions><speed>1.224233</speed><course>325.350311</course><hAcc>0.872235</hAcc><vAcc>0.663907</vAcc></extensions></trkpt>
      <trkpt lon="-3.162596" lat="52.989156"><ele>266.709900</ele><time>2021-09-01T09:24:58Z</time><extensions><speed>1.240399</speed><course>322.145447</course><hAcc>0.872191</hAcc><vAcc>0.663748</vAcc></extensions></trkpt>
      <trkpt lon="-3.162608" lat="52.989165"><ele>266.825287</ele><time>2021-09-01T09:24:59Z</time><extensions><speed>1.255252</speed><course>312.279083</course><hAcc>0.872131</hAcc><vAcc>0.663531</vAcc></extensions></trkpt>
      <trkpt lon="-3.162619" lat="52.989174"><ele>266.943176</ele><time>2021-09-01T09:25:00Z</time><extensions><speed>1.268391</speed><course>313.047180</course><hAcc>0.872062</hAcc><vAcc>0.663276</vAcc></extensions></trkpt>
      <trkpt lon="-3.162631" lat="52.989183"><ele>267.064117</ele><time>2021-09-01T09:25:01Z</time><extensions><speed>1.279377</speed><course>316.630066</course><hAcc>0.871987</hAcc><vAcc>0.663010</vAcc></extensions></trkpt>
      <trkpt lon="-3.162643" lat="52.989192"><ele>267.188477</ele><time>2021-09-01T09:25:02Z</time><extensions><speed>1.288468</speed><course>322.903290</course><hAcc>0.871913</hAcc><vAcc>0.662763</vAcc></extensions></trkpt>
      <trkpt lon="-3.162655" lat="52.989201"><ele>267.316437</ele><time>2021-09-01T09:25:03Z</time><extensions><speed>1.296172</speed><course>317.613495</course><hAcc>0.871840</hAcc><vAcc>0.662551</vAcc></extensions></trkpt>
      <trkpt lon="-3.162667" lat="52.989210"><ele>267.448242</ele><time>2021-09-01T09:25:04Z</time><extensions><speed>1.302596</speed><course>317.406921</course><hAcc>0.871766</hAcc><vAcc>0.662365</vAcc></extensions></trkpt>
      <trkpt lon="-3.162679" lat="52.989219"><ele>267.584015</ele><time>2021-09-01T09:25:05Z</time><extensions><speed>1.308182</speed><course>309.276642</course><hAcc>0.871679</hAcc><vAcc>0.662171</vAcc></extensions></trkpt>
      <trkpt lon="-3.162692" lat="52.989228"><ele>267.723633</ele><time>2021-09-01T09:25:06Z</time><extensions><speed>1.313651</speed><course>302.809937</course><hAcc>0.871565</hAcc><vAcc>0.661913</vAcc></extensions></trkpt>
      <trkpt lon="-3.162704" lat="52.989238"><ele>267.866760</ele><time>2021-09-01T09:25:07Z</time><extensions><speed>1.319593</speed><course>314.849945</course><hAcc>0.871406</hAcc><vAcc>0.661519</vAcc></extensions></trkpt>
      <trkpt lon="-3.162716" lat="52.989247"><ele>268.013000</ele><time>2021-09-01T09:25:08Z</time><extensions><speed>1.326403</speed><course>316.032379</course><hAcc>0.871183</hAcc><vAcc>0.660918</vAcc></extensions></trkpt>
      <trkpt lon="-3.162729" lat="52.989256"><ele>268.162323</ele><time>2021-09-01T09:25:09Z</time><extensions><speed>1.334000</speed><course>320.107025</course><hAcc>0.870882</hAcc><vAcc>0.660043</vAcc></extensions></trkpt>
      <trkpt lon="-3.162741" lat="52.989265"><ele>268.315125</ele><time>2021-09-01T09:25:10Z</time><extensions><speed>1.342125</speed><course>319.827759</course><hAcc>0.870493</hAcc><vAcc>0.658861</vAcc></extensions></trkpt>
      <trkpt lon="-3.162754" lat="52.989275"><ele>268.471405</ele><time>2021-09-01T09:25:11Z</time><extensions><speed>1.350869</speed><course>317.291443</course><hAcc>0.870016</hAcc><vAcc>0.657371</vAcc></extensions></trkpt>
      <trkpt lon="-3.162767" lat="52.989284"><ele>268.630341</ele><time>2021-09-01T09:25:12Z</time><extensions><speed>1.360232</speed><course>316.565765</course><hAcc>0.869460</hAcc><vAcc>0.655605</vAcc></extensions></trkpt>
      <trkpt lon="-3.162780" lat="52.989294"><ele>268.790771</ele><time>2021-09-01T09:25:13Z</time><extensions><speed>1.369617</speed><course>317.082489</course><hAcc>0.868837</hAcc><vAcc>0.653613</vAcc></extensions></trkpt>
      <trkpt lon="-3.162793" lat="52.989303"><ele>268.951721</ele><time>2021-09-01T09:25:14Z</time><extensions><speed>1.378442</speed><course>321.237793</course><hAcc>0.868166</hAcc><vAcc>0.651453</vAcc></extensions></trkpt>
      <trkpt lon="-3.162806" lat="52.989313"><ele>269.112396</ele><time>2021-09-01T09:25:15Z</time><extensions><speed>1.385746</speed><course>320.387238</course><hAcc>0.867469</hAcc><vAcc>0.649195</vAcc></extensions></trkpt>
      <trkpt lon="-3.162819" lat="52.989323"><ele>269.272064</ele><time>2021-09-01T09:25:16Z</time><extensions><speed>1.389663</speed><course>318.741028</course><hAcc>0.866775</hAcc><vAcc>0.646931</vAcc></extensions></trkpt>
      <trkpt lon="-3.162832" lat="52.989332"><ele>269.429871</ele><time>2021-09-01T09:25:17Z</time><extensions><speed>1.388274</speed><course>315.727936</course><hAcc>0.866117</hAcc><vAcc>0.644772</vAcc></extensions></trkpt>
      <trkpt lon="-3.162846" lat="52.989342"><ele>269.585052</ele><time>2021-09-01T09:25:18Z</time><extensions><speed>1.379956</speed><course>317.296539</course><hAcc>0.865534</hAcc><vAcc>0.642849</vAcc></extensions></trkpt>
      <trkpt lon="-3.162859" lat="52.989351"><ele>269.736694</ele><time>2021-09-01T09:25:19Z</time><extensions><speed>1.363955</speed><course>313.502228</course><hAcc>0.865065</hAcc><vAcc>0.641296</vAcc></extensions></trkpt>
      <trkpt lon="-3.162872" lat="52.989360"><ele>269.883820</ele><time>2021-09-01T09:25:20Z</time><extensions><speed>1.339935</speed><course>312.228180</course><hAcc>0.864745</hAcc><vAcc>0.640228</vAcc></extensions></trkpt>
      <trkpt lon="-3.162885" lat="52.989369"><ele>270.025269</ele><time>2021-09-01T09:25:21Z</time><extensions><speed>1.307130</speed><course>312.650360</course><hAcc>0.864598</hAcc><vAcc>0.639728</vAcc></extensions></trkpt>
      <trkpt lon="-3.162898" lat="52.989378"><ele>270.160004</ele><time>2021-09-01T09:25:22Z</time><extensions><speed>1.265058</speed><course>311.625397</course><hAcc>0.864638</hAcc><vAcc>0.639844</vAcc></extensions></trkpt>
      <trkpt lon="-3.162910" lat="52.989386"><ele>270.287170</ele><time>2021-09-01T09:25:23Z</time><extensions><speed>1.213901</speed><course>315.749390</course><hAcc>0.864870</hAcc><vAcc>0.640586</vAcc></extensions></trkpt>
      <trkpt lon="-3.162922" lat="52.989394"><ele>270.406006</ele><time>2021-09-01T09:25:24Z</time><extensions><speed>1.153954</speed><course>314.449219</course><hAcc>0.865291</hAcc><vAcc>0.641946</vAcc></extensions></trkpt>
      <trkpt lon="-3.162933" lat="52.989401"><ele>270.515991</ele><time>2021-09-01T09:25:25Z</time><extensions><speed>1.085543</speed><course>311.108612</course><hAcc>0.865893</hAcc><vAcc>0.643899</vAcc></extensions></trkpt>
      <trkpt lon="-3.162944" lat="52.989408"><ele>270.616760</ele><time>2021-09-01T09:25:26Z</time><extensions><speed>1.009462</speed><course>320.153503</course><hAcc>0.866665</hAcc><vAcc>0.646409</vAcc></extensions></trkpt>
      <trkpt lon="-3.162954" lat="52.989414"><ele>270.707947</ele><time>2021-09-01T09:25:27Z</time><extensions><speed>0.927048</speed><course>323.888458</course><hAcc>0.867590</hAcc><vAcc>0.649433</vAcc></extensions></trkpt>
      <trkpt lon="-3.162963" lat="52.989420"><ele>270.789215</ele><time>2021-09-01T09:25:28Z</time><extensions><speed>0.840082</speed><course>319.318787</course><hAcc>0.868651</hAcc><vAcc>0.652921</vAcc></extensions></trkpt>
      <trkpt lon="-3.162972" lat="52.989425"><ele>270.860321</ele><time>2021-09-01T09:25:29Z</time><extensions><speed>0.750984</speed><course>319.011444</course><hAcc>0.869827</hAcc><vAcc>0.656822</vAcc></extensions></trkpt>
      <trkpt lon="-3.162980" lat="52.989429"><ele>270.921051</ele><time>2021-09-01T09:25:30Z</time><extensions><speed>0.662455</speed><course>317.439087</course><hAcc>0.871097</hAcc><vAcc>0.661083</vAcc></extensions></trkpt>
      <trkpt lon="-3.162987" lat="52.989433"><ele>270.971619</ele><time>2021-09-01T09:25:31Z</time><extensions><speed>0.577631</speed><course>321.202881</course><hAcc>0.872435</hAcc><vAcc>0.665630</vAcc></extensions></trkpt>
      <trkpt lon="-3.162993" lat="52.989436"><ele>271.012634</ele><time>2021-09-01T09:25:32Z</time><extensions><speed>0.500647</speed><course>311.468506</course><hAcc>0.873806</hAcc><vAcc>0.670351</vAcc></extensions></trkpt>
      <trkpt lon="-3.162998" lat="52.989438"><ele>271.045410</ele><time>2021-09-01T09:25:33Z</time><extensions><speed>0.435779</speed><course>244.738815</course><hAcc>0.875166</hAcc><vAcc>0.675073</vAcc></extensions></trkpt>
      <trkpt lon="-3.163003" lat="52.989441"><ele>271.071289</ele><time>2021-09-01T09:25:34Z</time><extensions><speed>0.386265</speed><course>244.738815</course><hAcc>0.876457</hAcc><vAcc>0.679560</vAcc></extensions></trkpt>
      <trkpt lon="-3.163008" lat="52.989443"><ele>271.091766</ele><time>2021-09-01T09:25:35Z</time><extensions><speed>0.354357</speed><course>244.738815</course><hAcc>0.877621</hAcc><vAcc>0.683558</vAcc></extensions></trkpt>
      <trkpt lon="-3.163011" lat="52.989445"><ele>271.108459</ele><time>2021-09-01T09:25:36Z</time><extensions><speed>0.341767</speed><course>229.832458</course><hAcc>0.878601</hAcc><vAcc>0.686851</vAcc></extensions></trkpt>
      <trkpt lon="-3.163015" lat="52.989447"><ele>271.123047</ele><time>2021-09-01T09:25:37Z</time><extensions><speed>0.349248</speed><course>221.166580</course><hAcc>0.879357</hAcc><vAcc>0.689285</vAcc></extensions></trkpt>
      <trkpt lon="-3.163018" lat="52.989450"><ele>271.136993</ele><time>2021-09-01T09:25:38Z</time><extensions><speed>0.375857</speed><course>221.166580</course><hAcc>0.879858</hAcc><vAcc>0.690776</vAcc></extensions></trkpt>
      <trkpt lon="-3.163022" lat="52.989453"><ele>271.151703</ele><time>2021-09-01T09:25:39Z</time><extensions><speed>0.419266</speed><course>221.166580</course><hAcc>0.880087</hAcc><vAcc>0.691304</vAcc></extensions></trkpt>
      <trkpt lon="-3.163026" lat="52.989456"><ele>271.168243</ele><time>2021-09-01T09:25:40Z</time><extensions><speed>0.476735</speed><course>221.166580</course><hAcc>0.880040</hAcc><vAcc>0.690899</vAcc></extensions></trkpt>
      <trkpt lon="-3.163030" lat="52.989460"><ele>271.187103</ele><time>2021-09-01T09:25:41Z</time><extensions><speed>0.545162</speed><course>221.166580</course><hAcc>0.879728</hAcc><vAcc>0.689630</vAcc></extensions></trkpt>
      <trkpt lon="-3.163035" lat="52.989464"><ele>271.208557</ele><time>2021-09-01T09:25:42Z</time><extensions><speed>0.621253</speed><course>221.166565</course><hAcc>0.879170</hAcc><vAcc>0.687592</vAcc></extensions></trkpt>
      <trkpt lon="-3.163040" lat="52.989469"><ele>271.232574</ele><time>2021-09-01T09:25:43Z</time><extensions><speed>0.702030</speed><course>221.166565</course><hAcc>0.878394</hAcc><vAcc>0.684889</vAcc></extensions></trkpt>
      <trkpt lon="-3.163046" lat="52.989475"><ele>271.259247</ele><time>2021-09-01T09:25:44Z</time><extensions><speed>0.784752</speed><course>221.166565</course><hAcc>0.877435</hAcc><vAcc>0.681631</vAcc></extensions></trkpt>
      <trkpt lon="-3.163053" lat="52.989481"><ele>271.287384</ele><time>2021-09-01T09:25:45Z</time><extensions><speed>0.866819</speed><course>-1.000000</course><hAcc>0.876325</hAcc><vAcc>0.677917</vAcc></extensions></trkpt>
      <trkpt lon="-3.163060" lat="52.989488"><ele>271.319061</ele><time>2021-09-01T09:25:46Z</time><extensions><speed>0.945562</speed><course>-1.000000</course><hAcc>0.875118</hAcc><vAcc>0.673898</vAcc></extensions></trkpt>
      <trkpt lon="-3.163069" lat="52.989495"><ele>271.354156</ele><time>2021-09-01T09:25:47Z</time><extensions><speed>1.019527</speed><course>-1.000000</course><hAcc>0.873854</hAcc><vAcc>0.669710</vAcc></extensions></trkpt>
      <trkpt lon="-3.163078" lat="52.989502"><ele>271.393372</ele><time>2021-09-01T09:25:48Z</time><extensions><speed>1.088423</speed><course>-1.000000</course><hAcc>0.872580</hAcc><vAcc>0.665498</vAcc></extensions></trkpt>
      <trkpt lon="-3.163088" lat="52.989511"><ele>271.436920</ele><time>2021-09-01T09:25:49Z</time><extensions><speed>1.151616</speed><course>-1.000000</course><hAcc>0.871340</hAcc><vAcc>0.661412</vAcc></extensions></trkpt>
      <trkpt lon="-3.163099" lat="52.989519"><ele>271.484711</ele><time>2021-09-01T09:25:50Z</time><extensions><speed>1.208556</speed><course>-1.000000</course><hAcc>0.870176</hAcc><vAcc>0.657584</vAcc></extensions></trkpt>
      <trkpt lon="-3.163110" lat="52.989527"><ele>271.536743</ele><time>2021-09-01T09:25:51Z</time><extensions><speed>1.259225</speed><course>-1.000000</course><hAcc>0.869122</hAcc><vAcc>0.654129</vAcc></extensions></trkpt>
      <trkpt lon="-3.163123" lat="52.989536"><ele>271.592621</ele><time>2021-09-01T09:25:52Z</time><extensions><speed>1.303323</speed><course>-1.000000</course><hAcc>0.868205</hAcc><vAcc>0.651135</vAcc></extensions></trkpt>
      <trkpt lon="-3.163136" lat="52.989545"><ele>271.651337</ele><time>2021-09-01T09:25:53Z</time><extensions><speed>1.340807</speed><course>-1.000000</course><hAcc>0.867445</hAcc><vAcc>0.648665</vAcc></extensions></trkpt>
      <trkpt lon="-3.163149" lat="52.989554"><ele>271.711578</ele><time>2021-09-01T09:25:54Z</time><extensions><speed>1.371933</speed><course>-1.000000</course><hAcc>0.866853</hAcc><vAcc>0.646753</vAcc></extensions></trkpt>
      <trkpt lon="-3.163163" lat="52.989563"><ele>271.772064</ele><time>2021-09-01T09:25:55Z</time><extensions><speed>1.397119</speed><course>-1.000000</course><hAcc>0.866431</hAcc><vAcc>0.645406</vAcc></extensions></trkpt>
      <trkpt lon="-3.163178" lat="52.989572"><ele>271.831573</ele><time>2021-09-01T09:25:56Z</time><extensions><speed>1.416816</speed><course>-1.000000</course><hAcc>0.866174</hAcc><vAcc>0.644607</vAcc></extensions></trkpt>
      <trkpt lon="-3.163193" lat="52.989581"><ele>271.888733</ele><time>2021-09-01T09:25:57Z</time><extensions><speed>1.431296</speed><course>-1.000000</course><hAcc>0.866068</hAcc><vAcc>0.644307</vAcc></extensions></trkpt>
      <trkpt lon="-3.163208" lat="52.989591"><ele>271.942291</ele><time>2021-09-01T09:25:58Z</time><extensions><speed>1.440977</speed><course>116.725777</course><hAcc>0.866092</hAcc><vAcc>0.644438</vAcc></extensions></trkpt>
      <trkpt lon="-3.163223" lat="52.989600"><ele>271.991547</ele><time>2021-09-01T09:25:59Z</time><extensions><speed>1.447342</speed><course>116.725777</course><hAcc>0.866218</hAcc><vAcc>0.644903</vAcc></extensions></trkpt>
      <trkpt lon="-3.163239" lat="52.989609"><ele>272.036652</ele><time>2021-09-01T09:26:00Z</time><extensions><speed>1.452040</speed><course>116.725777</course><hAcc>0.866412</hAcc><vAcc>0.645593</vAcc></extensions></trkpt>
      <trkpt lon="-3.163254" lat="52.989618"><ele>272.077667</ele><time>2021-09-01T09:26:01Z</time><extensions><speed>1.455675</speed><course>116.725777</course><hAcc>0.866642</hAcc><vAcc>0.646392</vAcc></extensions></trkpt>
      <trkpt lon="-3.163270" lat="52.989627"><ele>272.114960</ele><time>2021-09-01T09:26:02Z</time><extensions><speed>1.458581</speed><course>116.725777</course><hAcc>0.866876</hAcc><vAcc>0.647197</vAcc></extensions></trkpt>
      <trkpt lon="-3.163286" lat="52.989636"><ele>272.149414</ele><time>2021-09-01T09:26:03Z</time><extensions><speed>1.460923</speed><course>116.725784</course><hAcc>0.867087</hAcc><vAcc>0.647915</vAcc></extensions></trkpt>
      <trkpt lon="-3.163301" lat="52.989645"><ele>272.182343</ele><time>2021-09-01T09:26:04Z</time><extensions><speed>1.462293</speed><course>116.725784</course><hAcc>0.867252</hAcc><vAcc>0.648473</vAcc></extensions></trkpt>
      <trkpt lon="-3.163317" lat="52.989654"><ele>272.214935</ele><time>2021-09-01T09:26:05Z</time><extensions><speed>1.462423</speed><course>116.725784</course><hAcc>0.867356</hAcc><vAcc>0.648819</vAcc></extensions></trkpt>
      <trkpt lon="-3.163332" lat="52.989663"><ele>272.247894</ele><time>2021-09-01T09:26:06Z</time><extensions><speed>1.461968</speed><course>116.725784</course><hAcc>0.867392</hAcc><vAcc>0.648929</vAcc></extensions></trkpt>
      <trkpt lon="-3.163348" lat="52.989673"><ele>272.281647</ele><time>2021-09-01T09:26:07Z</time><extensions><speed>1.461451</speed><course>116.725784</course><hAcc>0.867358</hAcc><vAcc>0.648798</vAcc></extensions></trkpt>
      <trkpt lon="-3.163363" lat="52.989682"><ele>272.316589</ele><time>2021-09-01T09:26:08Z</time><extensions><speed>1.460740</speed><course>116.725784</course><hAcc>0.867261</hAcc><vAcc>0.648448</vAcc></extensions></trkpt>
      <trkpt lon="-3.163378" lat="52.989691"><ele>272.353363</ele><time>2021-09-01T09:26:09Z</time><extensions><speed>1.459190</speed><course>116.725784</course><hAcc>0.867116</hAcc><vAcc>0.647925</vAcc></extensions></trkpt>
      <trkpt lon="-3.163394" lat="52.989701"><ele>272.392517</ele><time>2021-09-01T09:26:10Z</time><extensions><speed>1.456398</speed><course>116.725784</course><hAcc>0.866943</hAcc><vAcc>0.647300</vAcc></extensions></trkpt>
      <trkpt lon="-3.163408" lat="52.989710"><ele>272.434509</ele><time>2021-09-01T09:26:11Z</time><extensions><speed>1.452662</speed><course>116.725784</course><hAcc>0.866770</hAcc><vAcc>0.646668</vAcc></extensions></trkpt>
      <trkpt lon="-3.163423" lat="52.989720"><ele>272.479736</ele><time>2021-09-01T09:26:12Z</time><extensions><speed>1.448386</speed><course>116.725784</course><hAcc>0.866625</hAcc><vAcc>0.646130</vAcc></extensions></trkpt>
      <trkpt lon="-3.163438" lat="52.989729"><ele>272.528625</ele><time>2021-09-01T09:26:13Z</time><extensions><speed>1.443954</speed><course>116.725784</course><hAcc>0.866534</hAcc><vAcc>0.645779</vAcc></extensions></trkpt>
      <trkpt lon="-3.163452" lat="52.989739"><ele>272.580994</ele><time>2021-09-01T09:26:14Z</time><extensions><speed>1.439613</speed><course>116.725784</course><hAcc>0.866516</hAcc><vAcc>0.645683</vAcc></extensions></trkpt>
      <trkpt lon="-3.163466" lat="52.989749"><ele>272.636017</ele><time>2021-09-01T09:26:15Z</time><extensions><speed>1.435526</speed><course>116.725784</course><hAcc>0.866583</hAcc><vAcc>0.645876</vAcc></extensions></trkpt>
      <trkpt lon="-3.163480" lat="52.989759"><ele>272.692474</ele><time>2021-09-01T09:26:16Z</time><extensions><speed>1.431931</speed><course>116.725784</course><hAcc>0.866734</hAcc><vAcc>0.646360</vAcc></extensions></trkpt>
      <trkpt lon="-3.163494" lat="52.989768"><ele>272.749451</ele><time>2021-09-01T09:26:18Z</time><extensions><speed>1.428817</speed><course>116.725784</course><hAcc>0.866942</hAcc><vAcc>0.647087</vAcc></extensions></trkpt>
      <trkpt lon="-3.163508" lat="52.989778"><ele>272.805817</ele><time>2021-09-01T09:26:19Z</time><extensions><speed>1.426267</speed><course>116.725784</course><hAcc>0.867185</hAcc><vAcc>0.647979</vAcc></extensions></trkpt>
      <trkpt lon="-3.163521" lat="52.989788"><ele>272.860748</ele><time>2021-09-01T09:26:20Z</time><extensions><speed>1.424926</speed><course>116.725784</course><hAcc>0.867452</hAcc><vAcc>0.648942</vAcc></extensions></trkpt>
      <trkpt lon="-3.163535" lat="52.989798"><ele>272.913635</ele><time>2021-09-01T09:26:21Z</time><extensions><speed>1.425252</speed><course>116.725777</course><hAcc>0.867709</hAcc><vAcc>0.649855</vAcc></extensions></trkpt>
      <trkpt lon="-3.163548" lat="52.989808"><ele>272.964081</ele><time>2021-09-01T09:26:22Z</time><extensions><speed>1.427389</speed><course>116.725769</course><hAcc>0.867924</hAcc><vAcc>0.650613</vAcc></extensions></trkpt>
      <trkpt lon="-3.163561" lat="52.989818"><ele>273.011719</ele><time>2021-09-01T09:26:23Z</time><extensions><speed>1.430967</speed><course>116.725769</course><hAcc>0.868077</hAcc><vAcc>0.651143</vAcc></extensions></trkpt>
      <trkpt lon="-3.163575" lat="52.989828"><ele>273.056305</ele><time>2021-09-01T09:26:24Z</time><extensions><speed>1.435177</speed><course>116.725761</course><hAcc>0.868151</hAcc><vAcc>0.651404</vAcc></extensions></trkpt>
      <trkpt lon="-3.163588" lat="52.989838"><ele>273.097656</ele><time>2021-09-01T09:26:25Z</time><extensions><speed>1.439616</speed><course>116.725754</course><hAcc>0.868140</hAcc><vAcc>0.651376</vAcc></extensions></trkpt>
      <trkpt lon="-3.163602" lat="52.989848"><ele>273.135498</ele><time>2021-09-01T09:26:26Z</time><extensions><speed>1.443905</speed><course>116.725746</course><hAcc>0.868040</hAcc><vAcc>0.651054</vAcc></extensions></trkpt>
      <trkpt lon="-3.163615" lat="52.989858"><ele>273.169250</ele><time>2021-09-01T09:26:27Z</time><extensions><speed>1.447544</speed><course>116.725746</course><hAcc>0.867854</hAcc><vAcc>0.650452</vAcc></extensions></trkpt>
      <trkpt lon="-3.163629" lat="52.989868"><ele>273.198425</ele><time>2021-09-01T09:26:28Z</time><extensions><speed>1.450365</speed><course>116.725731</course><hAcc>0.867593</hAcc><vAcc>0.649602</vAcc></extensions></trkpt>
      <trkpt lon="-3.163643" lat="52.989878"><ele>273.222595</ele><time>2021-09-01T09:26:29Z</time><extensions><speed>1.452263</speed><course>116.725723</course><hAcc>0.867268</hAcc><vAcc>0.648548</vAcc></extensions></trkpt>
      <trkpt lon="-3.163657" lat="52.989888"><ele>273.241211</ele><time>2021-09-01T09:26:30Z</time><extensions><speed>1.452995</speed><course>116.725723</course><hAcc>0.866897</hAcc><vAcc>0.647343</vAcc></extensions></trkpt>
      <trkpt lon="-3.163671" lat="52.989898"><ele>273.253662</ele><time>2021-09-01T09:26:31Z</time><extensions><speed>1.452523</speed><course>116.725708</course><hAcc>0.866498</hAcc><vAcc>0.646051</vAcc></extensions></trkpt>
      <trkpt lon="-3.163685" lat="52.989908"><ele>273.259460</ele><time>2021-09-01T09:26:32Z</time><extensions><speed>1.450672</speed><course>116.725700</course><hAcc>0.866095</hAcc><vAcc>0.644750</vAcc></extensions></trkpt>
      <trkpt lon="-3.163700" lat="52.989918"><ele>273.258698</ele><time>2021-09-01T09:26:33Z</time><extensions><speed>1.447110</speed><course>116.725693</course><hAcc>0.865712</hAcc><vAcc>0.643529</vAcc></extensions></trkpt>
      <trkpt lon="-3.163714" lat="52.989927"><ele>273.251404</ele><time>2021-09-01T09:26:33Z</time><extensions><speed>1.441738</speed><course>116.725685</course><hAcc>0.865391</hAcc><vAcc>0.642482</vAcc></extensions></trkpt>
      <trkpt lon="-3.163728" lat="52.989937"><ele>273.237732</ele><time>2021-09-01T09:26:34Z</time><extensions><speed>1.434596</speed><course>116.725670</course><hAcc>0.865150</hAcc><vAcc>0.641673</vAcc></extensions></trkpt>
      <trkpt lon="-3.163743" lat="52.989946"><ele>273.219238</ele><time>2021-09-01T09:26:35Z</time><extensions><speed>1.425311</speed><course>116.725670</course><hAcc>0.864978</hAcc><vAcc>0.641114</vAcc></extensions></trkpt>
      <trkpt lon="-3.163757" lat="52.989955"><ele>273.198151</ele><time>2021-09-01T09:26:36Z</time><extensions><speed>1.413620</speed><course>116.725662</course><hAcc>0.864870</hAcc><vAcc>0.640780</vAcc></extensions></trkpt>
      <trkpt lon="-3.163772" lat="52.989965"><ele>273.176697</ele><time>2021-09-01T09:26:37Z</time><extensions><speed>1.400120</speed><course>316.510925</course><hAcc>0.864809</hAcc><vAcc>0.640605</vAcc></extensions></trkpt>
      <trkpt lon="-3.163786" lat="52.989974"><ele>273.156891</ele><time>2021-09-01T09:26:38Z</time><extensions><speed>1.385515</speed><course>325.771881</course><hAcc>0.864775</hAcc><vAcc>0.640517</vAcc></extensions></trkpt>
      <trkpt lon="-3.163800" lat="52.989983"><ele>273.140320</ele><time>2021-09-01T09:26:39Z</time><extensions><speed>1.370377</speed><course>329.412018</course><hAcc>0.864755</hAcc><vAcc>0.640458</vAcc></extensions></trkpt>
      <trkpt lon="-3.163815" lat="52.989991"><ele>273.127533</ele><time>2021-09-01T09:26:40Z</time><extensions><speed>1.355267</speed><course>328.807678</course><hAcc>0.864740</hAcc><vAcc>0.640403</vAcc></extensions></trkpt>
      <trkpt lon="-3.163829" lat="52.990000"><ele>273.118378</ele><time>2021-09-01T09:26:41Z</time><extensions><speed>1.340923</speed><course>328.238739</course><hAcc>0.864731</hAcc><vAcc>0.640358</vAcc></extensions></trkpt>
      <trkpt lon="-3.163843" lat="52.990008"><ele>273.112122</ele><time>2021-09-01T09:26:42Z</time><extensions><speed>1.328205</speed><course>328.754333</course><hAcc>0.864733</hAcc><vAcc>0.640345</vAcc></extensions></trkpt>
      <trkpt lon="-3.163857" lat="52.990017"><ele>273.108398</ele><time>2021-09-01T09:26:43Z</time><extensions><speed>1.317880</speed><course>321.291412</course><hAcc>0.864752</hAcc><vAcc>0.640388</vAcc></extensions></trkpt>
      <trkpt lon="-3.163871" lat="52.990025"><ele>273.107239</ele><time>2021-09-01T09:26:44Z</time><extensions><speed>1.310409</speed><course>315.163422</course><hAcc>0.864790</hAcc><vAcc>0.640499</vAcc></extensions></trkpt>
      <trkpt lon="-3.163885" lat="52.990033"><ele>273.108704</ele><time>2021-09-01T09:26:45Z</time><extensions><speed>1.305749</speed><course>320.356079</course><hAcc>0.864843</hAcc><vAcc>0.640666</vAcc></extensions></trkpt>
      <trkpt lon="-3.163899" lat="52.990041"><ele>273.112427</ele><time>2021-09-01T09:26:46Z</time><extensions><speed>1.303695</speed><course>314.759003</course><hAcc>0.864909</hAcc><vAcc>0.640876</vAcc></extensions></trkpt>
      <trkpt lon="-3.163912" lat="52.990050"><ele>273.117950</ele><time>2021-09-01T09:26:47Z</time><extensions><speed>1.303830</speed><course>306.430359</course><hAcc>0.864981</hAcc><vAcc>0.641114</vAcc></extensions></trkpt>
      <trkpt lon="-3.163926" lat="52.990058"><ele>273.125000</ele><time>2021-09-01T09:26:48Z</time><extensions><speed>1.305317</speed><course>312.642456</course><hAcc>0.865058</hAcc><vAcc>0.641370</vAcc></extensions></trkpt>
      <trkpt lon="-3.163940" lat="52.990066"><ele>273.133179</ele><time>2021-09-01T09:26:49Z</time><extensions><speed>1.307138</speed><course>309.329712</course><hAcc>0.865133</hAcc><vAcc>0.641625</vAcc></extensions></trkpt>
      <trkpt lon="-3.163954" lat="52.990074"><ele>273.142120</ele><time>2021-09-01T09:26:50Z</time><extensions><speed>1.308828</speed><course>306.517120</course><hAcc>0.865199</hAcc><vAcc>0.641850</vAcc></extensions></trkpt>
      <trkpt lon="-3.163968" lat="52.990083"><ele>273.151733</ele><time>2021-09-01T09:26:51Z</time><extensions><speed>1.310507</speed><course>302.169647</course><hAcc>0.865246</hAcc><vAcc>0.642014</vAcc></extensions></trkpt>
      <trkpt lon="-3.163981" lat="52.990091"><ele>273.161896</ele><time>2021-09-01T09:26:52Z</time><extensions><speed>1.312410</speed><course>299.953156</course><hAcc>0.865270</hAcc><vAcc>0.642097</vAcc></extensions></trkpt>
      <trkpt lon="-3.163995" lat="52.990100"><ele>273.172272</ele><time>2021-09-01T09:26:53Z</time><extensions><speed>1.314827</speed><course>299.473511</course><hAcc>0.865269</hAcc><vAcc>0.642089</vAcc></extensions></trkpt>
      <trkpt lon="-3.164009" lat="52.990108"><ele>273.182800</ele><time>2021-09-01T09:26:54Z</time><extensions><speed>1.318491</speed><course>298.103729</course><hAcc>0.865243</hAcc><vAcc>0.641994</vAcc></extensions></trkpt>
      <trkpt lon="-3.164022" lat="52.990117"><ele>273.194336</ele><time>2021-09-01T09:26:55Z</time><extensions><speed>1.324025</speed><course>294.101929</course><hAcc>0.865198</hAcc><vAcc>0.641831</vAcc></extensions></trkpt>
      <trkpt lon="-3.164036" lat="52.990125"><ele>273.208405</ele><time>2021-09-01T09:26:56Z</time><extensions><speed>1.331303</speed><course>298.669067</course><hAcc>0.865144</hAcc><vAcc>0.641631</vAcc></extensions></trkpt>
      <trkpt lon="-3.164049" lat="52.990134"><ele>273.226501</ele><time>2021-09-01T09:26:57Z</time><extensions><speed>1.339953</speed><course>297.460327</course><hAcc>0.865091</hAcc><vAcc>0.641434</vAcc></extensions></trkpt>
      <trkpt lon="-3.164063" lat="52.990143"><ele>273.250153</ele><time>2021-09-01T09:26:58Z</time><extensions><speed>1.349223</speed><course>300.643127</course><hAcc>0.865054</hAcc><vAcc>0.641287</vAcc></extensions></trkpt>
      <trkpt lon="-3.164076" lat="52.990152"><ele>273.280579</ele><time>2021-09-01T09:26:59Z</time><extensions><speed>1.358028</speed><course>300.762909</course><hAcc>0.865043</hAcc><vAcc>0.641236</vAcc></extensions></trkpt>
      <trkpt lon="-3.164090" lat="52.990161"><ele>273.318329</ele><time>2021-09-01T09:27:00Z</time><extensions><speed>1.365762</speed><course>306.221161</course><hAcc>0.865071</hAcc><vAcc>0.641321</vAcc></extensions></trkpt>
      <trkpt lon="-3.164103" lat="52.990170"><ele>273.363220</ele><time>2021-09-01T09:27:01Z</time><extensions><speed>1.372300</speed><course>311.753571</course><hAcc>0.865143</hAcc><vAcc>0.641565</vAcc></extensions></trkpt>
      <trkpt lon="-3.164117" lat="52.990180"><ele>273.414612</ele><time>2021-09-01T09:27:02Z</time><extensions><speed>1.377356</speed><course>314.039551</course><hAcc>0.865255</hAcc><vAcc>0.641959</vAcc></extensions></trkpt>
      <trkpt lon="-3.164131" lat="52.990189"><ele>273.471466</ele><time>2021-09-01T09:27:03Z</time><extensions><speed>1.380792</speed><course>316.125336</course><hAcc>0.865396</hAcc><vAcc>0.642458</vAcc></extensions></trkpt>
      <trkpt lon="-3.164146" lat="52.990198"><ele>273.532440</ele><time>2021-09-01T09:27:04Z</time><extensions><speed>1.382892</speed><course>313.054962</course><hAcc>0.865544</hAcc><vAcc>0.642992</vAcc></extensions></trkpt>
      <trkpt lon="-3.164160" lat="52.990206"><ele>273.596100</ele><time>2021-09-01T09:27:05Z</time><extensions><speed>1.383838</speed><course>309.718231</course><hAcc>0.865676</hAcc><vAcc>0.643475</vAcc></extensions></trkpt>
      <trkpt lon="-3.164175" lat="52.990215"><ele>273.660858</ele><time>2021-09-01T09:27:06Z</time><extensions><speed>1.384061</speed><course>315.993652</course><hAcc>0.865769</hAcc><vAcc>0.643817</vAcc></extensions></trkpt>
      <trkpt lon="-3.164189" lat="52.990224"><ele>273.725067</ele><time>2021-09-01T09:27:07Z</time><extensions><speed>1.383752</speed><course>314.639465</course><hAcc>0.865802</hAcc><vAcc>0.643950</vAcc></extensions></trkpt>
      <trkpt lon="-3.164204" lat="52.990232"><ele>273.787170</ele><time>2021-09-01T09:27:08Z</time><extensions><speed>1.382430</speed><course>314.699524</course><hAcc>0.865765</hAcc><vAcc>0.643837</vAcc></extensions></trkpt>
      <trkpt lon="-3.164219" lat="52.990241"><ele>273.845978</ele><time>2021-09-01T09:27:09Z</time><extensions><speed>1.380231</speed><course>315.537170</course><hAcc>0.865658</hAcc><vAcc>0.643480</vAcc></extensions></trkpt>
      <trkpt lon="-3.164235" lat="52.990249"><ele>273.900818</ele><time>2021-09-01T09:27:10Z</time><extensions><speed>1.377295</speed><course>315.384186</course><hAcc>0.865488</hAcc><vAcc>0.642912</vAcc></extensions></trkpt>
      <trkpt lon="-3.164250" lat="52.990257"><ele>273.951050</ele><time>2021-09-01T09:27:11Z</time><extensions><speed>1.373828</speed><course>316.068207</course><hAcc>0.865264</hAcc><vAcc>0.642173</vAcc></extensions></trkpt>
      <trkpt lon="-3.164266" lat="52.990265"><ele>273.996155</ele><time>2021-09-01T09:27:12Z</time><extensions><speed>1.370230</speed><course>319.526184</course><hAcc>0.865000</hAcc><vAcc>0.641307</vAcc></extensions></trkpt>
      <trkpt lon="-3.164281" lat="52.990273"><ele>274.035431</ele><time>2021-09-01T09:27:13Z</time><extensions><speed>1.366588</speed><course>322.032959</course><hAcc>0.864706</hAcc><vAcc>0.640355</vAcc></extensions></trkpt>
      <trkpt lon="-3.164297" lat="52.990281"><ele>274.068115</ele><time>2021-09-01T09:27:14Z</time><extensions><speed>1.363056</speed><course>326.209290</course><hAcc>0.864389</hAcc><vAcc>0.639344</vAcc></extensions></trkpt>
      <trkpt lon="-3.164312" lat="52.990289"><ele>274.093536</ele><time>2021-09-01T09:27:15Z</time><extensions><speed>1.359470</speed><course>324.142303</course><hAcc>0.864054</hAcc><vAcc>0.638283</vAcc></extensions></trkpt>
      <trkpt lon="-3.164328" lat="52.990297"><ele>274.111389</ele><time>2021-09-01T09:27:16Z</time><extensions><speed>1.355404</speed><course>332.193542</course><hAcc>0.863704</hAcc><vAcc>0.637178</vAcc></extensions></trkpt>
      <trkpt lon="-3.164343" lat="52.990304"><ele>274.121460</ele><time>2021-09-01T09:27:17Z</time><extensions><speed>1.350645</speed><course>329.558014</course><hAcc>0.863339</hAcc><vAcc>0.636032</vAcc></extensions></trkpt>
      <trkpt lon="-3.164359" lat="52.990312"><ele>274.123932</ele><time>2021-09-01T09:27:18Z</time><extensions><speed>1.345351</speed><course>323.309692</course><hAcc>0.862960</hAcc><vAcc>0.634847</vAcc></extensions></trkpt>
      <trkpt lon="-3.164374" lat="52.990320"><ele>274.119720</ele><time>2021-09-01T09:27:19Z</time><extensions><speed>1.339956</speed><course>319.992767</course><hAcc>0.862568</hAcc><vAcc>0.633623</vAcc></extensions></trkpt>
      <trkpt lon="-3.164390" lat="52.990327"><ele>274.110229</ele><time>2021-09-01T09:27:20Z</time><extensions><speed>1.334523</speed><course>322.539886</course><hAcc>0.862162</hAcc><vAcc>0.632361</vAcc></extensions></trkpt>
      <trkpt lon="-3.164405" lat="52.990335"><ele>274.096741</ele><time>2021-09-01T09:27:21Z</time><extensions><speed>1.328730</speed><course>317.532928</course><hAcc>0.861740</hAcc><vAcc>0.631059</vAcc></extensions></trkpt>
      <trkpt lon="-3.164420" lat="52.990343"><ele>274.080597</ele><time>2021-09-01T09:27:22Z</time><extensions><speed>1.322720</speed><course>314.725220</course><hAcc>0.861298</hAcc><vAcc>0.629705</vAcc></extensions></trkpt>
      <trkpt lon="-3.164435" lat="52.990350"><ele>274.062714</ele><time>2021-09-01T09:27:23Z</time><extensions><speed>1.316753</speed><course>325.463684</course><hAcc>0.860829</hAcc><vAcc>0.628275</vAcc></extensions></trkpt>
      <trkpt lon="-3.164451" lat="52.990358"><ele>274.043335</ele><time>2021-09-01T09:27:24Z</time><extensions><speed>1.310720</speed><course>326.490570</course><hAcc>0.860320</hAcc><vAcc>0.626725</vAcc></extensions></trkpt>
      <trkpt lon="-3.164466" lat="52.990365"><ele>274.022186</ele><time>2021-09-01T09:27:25Z</time><extensions><speed>1.304903</speed><course>316.111328</course><hAcc>0.859758</hAcc><vAcc>0.625011</vAcc></extensions></trkpt>
      <trkpt lon="-3.164480" lat="52.990373"><ele>273.998627</ele><time>2021-09-01T09:27:26Z</time><extensions><speed>1.299931</speed><course>316.470520</course><hAcc>0.859138</hAcc><vAcc>0.623113</vAcc></extensions></trkpt>
      <trkpt lon="-3.164495" lat="52.990380"><ele>273.971588</ele><time>2021-09-01T09:27:27Z</time><extensions><speed>1.295625</speed><course>317.921600</course><hAcc>0.858465</hAcc><vAcc>0.621039</vAcc></extensions></trkpt>
      <trkpt lon="-3.164510" lat="52.990387"><ele>273.939819</ele><time>2021-09-01T09:27:28Z</time><extensions><speed>1.291227</speed><course>317.925903</course><hAcc>0.857758</hAcc><vAcc>0.618846</vAcc></extensions></trkpt>
      <trkpt lon="-3.164525" lat="52.990395"><ele>273.902374</ele><time>2021-09-01T09:27:29Z</time><extensions><speed>1.286289</speed><course>316.840515</course><hAcc>0.857052</hAcc><vAcc>0.616641</vAcc></extensions></trkpt>
      <trkpt lon="-3.164539" lat="52.990402"><ele>273.859070</ele><time>2021-09-01T09:27:30Z</time><extensions><speed>1.280577</speed><course>321.987762</course><hAcc>0.856394</hAcc><vAcc>0.614576</vAcc></extensions></trkpt>
      <trkpt lon="-3.164554" lat="52.990410"><ele>273.809875</ele><time>2021-09-01T09:27:31Z</time><extensions><speed>1.274210</speed><course>314.291290</course><hAcc>0.855845</hAcc><vAcc>0.612849</vAcc></extensions></trkpt>
      <trkpt lon="-3.164568" lat="52.990417"><ele>273.755035</ele><time>2021-09-01T09:27:32Z</time><extensions><speed>1.267565</speed><course>311.665222</course><hAcc>0.855474</hAcc><vAcc>0.611676</vAcc></extensions></trkpt>
      <trkpt lon="-3.164582" lat="52.990425"><ele>273.695251</ele><time>2021-09-01T09:27:33Z</time><extensions><speed>1.260633</speed><course>315.645782</course><hAcc>0.855337</hAcc><vAcc>0.611239</vAcc></extensions></trkpt>
      <trkpt lon="-3.164596" lat="52.990433"><ele>273.631714</ele><time>2021-09-01T09:27:34Z</time><extensions><speed>1.253545</speed><course>312.390594</course><hAcc>0.855457</hAcc><vAcc>0.611617</vAcc></extensions></trkpt>
      <trkpt lon="-3.164609" lat="52.990440"><ele>273.566010</ele><time>2021-09-01T09:27:35Z</time><extensions><speed>1.247106</speed><course>315.968140</course><hAcc>0.855823</hAcc><vAcc>0.612779</vAcc></extensions></trkpt>
      <trkpt lon="-3.164623" lat="52.990448"><ele>273.499542</ele><time>2021-09-01T09:27:36Z</time><extensions><speed>1.242207</speed><course>305.843231</course><hAcc>0.856403</hAcc><vAcc>0.614627</vAcc></extensions></trkpt>
      <trkpt lon="-3.164636" lat="52.990456"><ele>273.433380</ele><time>2021-09-01T09:27:37Z</time><extensions><speed>1.239111</speed><course>307.428955</course><hAcc>0.857159</hAcc><vAcc>0.617029</vAcc></extensions></trkpt>
      <trkpt lon="-3.164648" lat="52.990464"><ele>273.368378</ele><time>2021-09-01T09:27:38Z</time><extensions><speed>1.237503</speed><course>303.591888</course><hAcc>0.858042</hAcc><vAcc>0.619836</vAcc></extensions></trkpt>
      <trkpt lon="-3.164660" lat="52.990473"><ele>273.305450</ele><time>2021-09-01T09:27:39Z</time><extensions><speed>1.236857</speed><course>302.311584</course><hAcc>0.859003</hAcc><vAcc>0.622879</vAcc></extensions></trkpt>
      <trkpt lon="-3.164672" lat="52.990481"><ele>273.244904</ele><time>2021-09-01T09:27:40Z</time><extensions><speed>1.236548</speed><course>296.010498</course><hAcc>0.859990</hAcc><vAcc>0.625993</vAcc></extensions></trkpt>
      <trkpt lon="-3.164684" lat="52.990490"><ele>273.186493</ele><time>2021-09-01T09:27:41Z</time><extensions><speed>1.236453</speed><course>298.597748</course><hAcc>0.860958</hAcc><vAcc>0.629031</vAcc></extensions></trkpt>
      <trkpt lon="-3.164695" lat="52.990498"><ele>273.129791</ele><time>2021-09-01T09:27:42Z</time><extensions><speed>1.236755</speed><course>307.419373</course><hAcc>0.861872</hAcc><vAcc>0.631876</vAcc></extensions></trkpt>
      <trkpt lon="-3.164706" lat="52.990507"><ele>273.074890</ele><time>2021-09-01T09:27:43Z</time><extensions><speed>1.237664</speed><course>311.127045</course><hAcc>0.862705</hAcc><vAcc>0.634448</vAcc></extensions></trkpt>
      <trkpt lon="-3.164717" lat="52.990516"><ele>273.022461</ele><time>2021-09-01T09:27:44Z</time><extensions><speed>1.239284</speed><course>308.779785</course><hAcc>0.863445</hAcc><vAcc>0.636708</vAcc></extensions></trkpt>
      <trkpt lon="-3.164727" lat="52.990526"><ele>272.973083</ele><time>2021-09-01T09:27:45Z</time><extensions><speed>1.241582</speed><course>310.817932</course><hAcc>0.864088</hAcc><vAcc>0.638659</vAcc></extensions></trkpt>
      <trkpt lon="-3.164737" lat="52.990535"><ele>272.927155</ele><time>2021-09-01T09:27:46Z</time><extensions><speed>1.244709</speed><course>313.903961</course><hAcc>0.864645</hAcc><vAcc>0.640341</vAcc></extensions></trkpt>
      <trkpt lon="-3.164747" lat="52.990545"><ele>272.884979</ele><time>2021-09-01T09:27:47Z</time><extensions><speed>1.248418</speed><course>312.113068</course><hAcc>0.865128</hAcc><vAcc>0.641805</vAcc></extensions></trkpt>
      <trkpt lon="-3.164757" lat="52.990554"><ele>272.846985</ele><time>2021-09-01T09:27:48Z</time><extensions><speed>1.252089</speed><course>298.693726</course><hAcc>0.865550</hAcc><vAcc>0.643097</vAcc></extensions></trkpt>
      <trkpt lon="-3.164766" lat="52.990564"><ele>272.813293</ele><time>2021-09-01T09:27:49Z</time><extensions><speed>1.255532</speed><course>304.126526</course><hAcc>0.865919</hAcc><vAcc>0.644245</vAcc></extensions></trkpt>
      <trkpt lon="-3.164775" lat="52.990574"><ele>272.783722</ele><time>2021-09-01T09:27:50Z</time><extensions><speed>1.259161</speed><course>307.202972</course><hAcc>0.866238</hAcc><vAcc>0.645253</vAcc></extensions></trkpt>
      <trkpt lon="-3.164784" lat="52.990584"><ele>272.757965</ele><time>2021-09-01T09:27:51Z</time><extensions><speed>1.263183</speed><course>306.849365</course><hAcc>0.866505</hAcc><vAcc>0.646108</vAcc></extensions></trkpt>
      <trkpt lon="-3.164793" lat="52.990594"><ele>272.735840</ele><time>2021-09-01T09:27:52Z</time><extensions><speed>1.267371</speed><course>311.228149</course><hAcc>0.866716</hAcc><vAcc>0.646780</vAcc></extensions></trkpt>
      <trkpt lon="-3.164802" lat="52.990604"><ele>272.717010</ele><time>2021-09-01T09:27:53Z</time><extensions><speed>1.271804</speed><course>314.984741</course><hAcc>0.866868</hAcc><vAcc>0.647248</vAcc></extensions></trkpt>
      <trkpt lon="-3.164811" lat="52.990614"><ele>272.700867</ele><time>2021-09-01T09:27:54Z</time><extensions><speed>1.276430</speed><course>312.149628</course><hAcc>0.866964</hAcc><vAcc>0.647516</vAcc></extensions></trkpt>
      <trkpt lon="-3.164819" lat="52.990624"><ele>272.686432</ele><time>2021-09-01T09:27:55Z</time><extensions><speed>1.281060</speed><course>303.811646</course><hAcc>0.867017</hAcc><vAcc>0.647626</vAcc></extensions></trkpt>
      <trkpt lon="-3.164828" lat="52.990635"><ele>272.672516</ele><time>2021-09-01T09:27:56Z</time><extensions><speed>1.285897</speed><course>306.939087</course><hAcc>0.867046</hAcc><vAcc>0.647647</vAcc></extensions></trkpt>
      <trkpt lon="-3.164836" lat="52.990645"><ele>272.657959</ele><time>2021-09-01T09:27:57Z</time><extensions><speed>1.291085</speed><course>305.149933</course><hAcc>0.867073</hAcc><vAcc>0.647665</vAcc></extensions></trkpt>
      <trkpt lon="-3.164844" lat="52.990656"><ele>272.641388</ele><time>2021-09-01T09:27:58Z</time><extensions><speed>1.296601</speed><course>307.460999</course><hAcc>0.867122</hAcc><vAcc>0.647758</vAcc></extensions></trkpt>
      <trkpt lon="-3.164853" lat="52.990666"><ele>272.621826</ele><time>2021-09-01T09:27:59Z</time><extensions><speed>1.302753</speed><course>310.556549</course><hAcc>0.867209</hAcc><vAcc>0.647984</vAcc></extensions></trkpt>
      <trkpt lon="-3.164861" lat="52.990677"><ele>272.598999</ele><time>2021-09-01T09:28:00Z</time><extensions><speed>1.310118</speed><course>316.643463</course><hAcc>0.867345</hAcc><vAcc>0.648382</vAcc></extensions></trkpt>
      <trkpt lon="-3.164869" lat="52.990687"><ele>272.573151</ele><time>2021-09-01T09:28:01Z</time><extensions><speed>1.318713</speed><course>310.111420</course><hAcc>0.867541</hAcc><vAcc>0.648978</vAcc></extensions></trkpt>
      <trkpt lon="-3.164877" lat="52.990698"><ele>272.544525</ele><time>2021-09-01T09:28:02Z</time><extensions><speed>1.328084</speed><course>309.394775</course><hAcc>0.867801</hAcc><vAcc>0.649795</vAcc></extensions></trkpt>
      <trkpt lon="-3.164885" lat="52.990709"><ele>272.513458</ele><time>2021-09-01T09:28:03Z</time><extensions><speed>1.337651</speed><course>312.734375</course><hAcc>0.868129</hAcc><vAcc>0.650847</vAcc></extensions></trkpt>
      <trkpt lon="-3.164893" lat="52.990720"><ele>272.480316</ele><time>2021-09-01T09:28:04Z</time><extensions><speed>1.346375</speed><course>307.110260</course><hAcc>0.868526</hAcc><vAcc>0.652136</vAcc></extensions></trkpt>
      <trkpt lon="-3.164900" lat="52.990732"><ele>272.445190</ele><time>2021-09-01T09:28:05Z</time><extensions><speed>1.353280</speed><course>304.794312</course><hAcc>0.868985</hAcc><vAcc>0.653639</vAcc></extensions></trkpt>
      <trkpt lon="-3.164908" lat="52.990743"><ele>272.408386</ele><time>2021-09-01T09:28:06Z</time><extensions><speed>1.357479</speed><course>309.669006</course><hAcc>0.869490</hAcc><vAcc>0.655308</vAcc></extensions></trkpt>
      <trkpt lon="-3.164915" lat="52.990754"><ele>272.370819</ele><time>2021-09-01T09:28:07Z</time><extensions><speed>1.357756</speed><course>309.747101</course><hAcc>0.870022</hAcc><vAcc>0.657069</vAcc></extensions></trkpt>
      <trkpt lon="-3.164921" lat="52.990766"><ele>272.334167</ele><time>2021-09-01T09:28:08Z</time><extensions><speed>1.353282</speed><course>308.451904</course><hAcc>0.870558</hAcc><vAcc>0.658837</vAcc></extensions></trkpt>
      <trkpt lon="-3.164928" lat="52.990777"><ele>272.300720</ele><time>2021-09-01T09:28:09Z</time><extensions><speed>1.344112</speed><course>313.674774</course><hAcc>0.871074</hAcc><vAcc>0.660528</vAcc></extensions></trkpt>
      <trkpt lon="-3.164933" lat="52.990789"><ele>272.272614</ele><time>2021-09-01T09:28:10Z</time><extensions><speed>1.330682</speed><course>310.174561</course><hAcc>0.871550</hAcc><vAcc>0.662074</vAcc></extensions></trkpt>
      <trkpt lon="-3.164938" lat="52.990800"><ele>272.251678</ele><time>2021-09-01T09:28:11Z</time><extensions><speed>1.314703</speed><course>312.894348</course><hAcc>0.871968</hAcc><vAcc>0.663419</vAcc></extensions></trkpt>
      <trkpt lon="-3.164943" lat="52.990812"><ele>272.239136</ele><time>2021-09-01T09:28:12Z</time><extensions><speed>1.298480</speed><course>309.740997</course><hAcc>0.872314</hAcc><vAcc>0.664516</vAcc></extensions></trkpt>
      <trkpt lon="-3.164948" lat="52.990823"><ele>272.235443</ele><time>2021-09-01T09:28:13Z</time><extensions><speed>1.283501</speed><course>309.271240</course><hAcc>0.872580</hAcc><vAcc>0.665340</vAcc></extensions></trkpt>
      <trkpt lon="-3.164951" lat="52.990834"><ele>272.240631</ele><time>2021-09-01T09:28:14Z</time><extensions><speed>1.270702</speed><course>309.840485</course><hAcc>0.872761</hAcc><vAcc>0.665884</vAcc></extensions></trkpt>
      <trkpt lon="-3.164955" lat="52.990845"><ele>272.253998</ele><time>2021-09-01T09:28:15Z</time><extensions><speed>1.260458</speed><course>308.054108</course><hAcc>0.872856</hAcc><vAcc>0.666152</vAcc></extensions></trkpt>
      <trkpt lon="-3.164958" lat="52.990857"><ele>272.274200</ele><time>2021-09-01T09:28:16Z</time><extensions><speed>1.252787</speed><course>306.226685</course><hAcc>0.872866</hAcc><vAcc>0.666156</vAcc></extensions></trkpt>
      <trkpt lon="-3.164961" lat="52.990868"><ele>272.299988</ele><time>2021-09-01T09:28:17Z</time><extensions><speed>1.247309</speed><course>316.211884</course><hAcc>0.872793</hAcc><vAcc>0.665905</vAcc></extensions></trkpt>
      <trkpt lon="-3.164964" lat="52.990879"><ele>272.330505</ele><time>2021-09-01T09:28:18Z</time><extensions><speed>1.244275</speed><course>312.798523</course><hAcc>0.872639</hAcc><vAcc>0.665408</vAcc></extensions></trkpt>
      <trkpt lon="-3.164967" lat="52.990890"><ele>272.364777</ele><time>2021-09-01T09:28:19Z</time><extensions><speed>1.244376</speed><course>314.823364</course><hAcc>0.872406</hAcc><vAcc>0.664669</vAcc></extensions></trkpt>
      <trkpt lon="-3.164970" lat="52.990901"><ele>272.401367</ele><time>2021-09-01T09:28:20Z</time><extensions><speed>1.247868</speed><course>317.560303</course><hAcc>0.872099</hAcc><vAcc>0.663696</vAcc></extensions></trkpt>
      <trkpt lon="-3.164974" lat="52.990912"><ele>272.438232</ele><time>2021-09-01T09:28:21Z</time><extensions><speed>1.254771</speed><course>313.870911</course><hAcc>0.871720</hAcc><vAcc>0.662491</vAcc></extensions></trkpt>
      <trkpt lon="-3.164977" lat="52.990923"><ele>272.473114</ele><time>2021-09-01T09:28:22Z</time><extensions><speed>1.264670</speed><course>320.858917</course><hAcc>0.871275</hAcc><vAcc>0.661060</vAcc></extensions></trkpt>
      <trkpt lon="-3.164981" lat="52.990934"><ele>272.503998</ele><time>2021-09-01T09:28:24Z</time><extensions><speed>1.277094</speed><course>322.110107</course><hAcc>0.870749</hAcc><vAcc>0.659401</vAcc></extensions></trkpt>
      <trkpt lon="-3.164985" lat="52.990946"><ele>272.529480</ele><time>2021-09-01T09:28:25Z</time><extensions><speed>1.291764</speed><course>322.258118</course><hAcc>0.870154</hAcc><vAcc>0.657545</vAcc></extensions></trkpt>
      <trkpt lon="-3.164989" lat="52.990957"><ele>272.548279</ele><time>2021-09-01T09:28:26Z</time><extensions><speed>1.308217</speed><course>323.751770</course><hAcc>0.869518</hAcc><vAcc>0.655547</vAcc></extensions></trkpt>
      <trkpt lon="-3.164993" lat="52.990968"><ele>272.558899</ele><time>2021-09-01T09:28:27Z</time><extensions><speed>1.325635</speed><course>311.017761</course><hAcc>0.868856</hAcc><vAcc>0.653462</vAcc></extensions></trkpt>
      <trkpt lon="-3.164998" lat="52.990980"><ele>272.560699</ele><time>2021-09-01T09:28:28Z</time><extensions><speed>1.343466</speed><course>303.134949</course><hAcc>0.868180</hAcc><vAcc>0.651339</vAcc></extensions></trkpt>
      <trkpt lon="-3.165003" lat="52.990992"><ele>272.554016</ele><time>2021-09-01T09:28:29Z</time><extensions><speed>1.360998</speed><course>305.266266</course><hAcc>0.867501</hAcc><vAcc>0.649215</vAcc></extensions></trkpt>
      <trkpt lon="-3.165009" lat="52.991004"><ele>272.539948</ele><time>2021-09-01T09:28:30Z</time><extensions><speed>1.377766</speed><course>306.244568</course><hAcc>0.866823</hAcc><vAcc>0.647104</vAcc></extensions></trkpt>
      <trkpt lon="-3.165014" lat="52.991016"><ele>272.519592</ele><time>2021-09-01T09:28:31Z</time><extensions><speed>1.393971</speed><course>311.028961</course><hAcc>0.866149</hAcc><vAcc>0.645008</vAcc></extensions></trkpt>
      <trkpt lon="-3.165020" lat="52.991028"><ele>272.493622</ele><time>2021-09-01T09:28:31Z</time><extensions><speed>1.409667</speed><course>304.990997</course><hAcc>0.865507</hAcc><vAcc>0.642955</vAcc></extensions></trkpt>
      <trkpt lon="-3.165026" lat="52.991040"><ele>272.462463</ele><time>2021-09-01T09:28:32Z</time><extensions><speed>1.424902</speed><course>305.619354</course><hAcc>0.864908</hAcc><vAcc>0.640984</vAcc></extensions></trkpt>
      <trkpt lon="-3.165032" lat="52.991052"><ele>272.426544</ele><time>2021-09-01T09:28:34Z</time><extensions><speed>1.439818</speed><course>319.038269</course><hAcc>0.864339</hAcc><vAcc>0.639140</vAcc></extensions></trkpt>
      <trkpt lon="-3.165038" lat="52.991065"><ele>272.386627</ele><time>2021-09-01T09:28:35Z</time><extensions><speed>1.454353</speed><course>314.772644</course><hAcc>0.863824</hAcc><vAcc>0.637508</vAcc></extensions></trkpt>
      <trkpt lon="-3.165044" lat="52.991077"><ele>272.344452</ele><time>2021-09-01T09:28:36Z</time><extensions><speed>1.468555</speed><course>314.865356</course><hAcc>0.863407</hAcc><vAcc>0.636186</vAcc></extensions></trkpt>
      <trkpt lon="-3.165050" lat="52.991090"><ele>272.302460</ele><time>2021-09-01T09:28:37Z</time><extensions><speed>1.482334</speed><course>315.584076</course><hAcc>0.863107</hAcc><vAcc>0.635246</vAcc></extensions></trkpt>
      <trkpt lon="-3.165056" lat="52.991103"><ele>272.262665</ele><time>2021-09-01T09:28:37Z</time><extensions><speed>1.494531</speed><course>318.301117</course><hAcc>0.862954</hAcc><vAcc>0.634743</vAcc></extensions></trkpt>
      <trkpt lon="-3.165062" lat="52.991116"><ele>272.226807</ele><time>2021-09-01T09:28:38Z</time><extensions><speed>1.504298</speed><course>308.957520</course><hAcc>0.862946</hAcc><vAcc>0.634666</vAcc></extensions></trkpt>
      <trkpt lon="-3.165068" lat="52.991129"><ele>272.197083</ele><time>2021-09-01T09:28:40Z</time><extensions><speed>1.511505</speed><course>309.679749</course><hAcc>0.863033</hAcc><vAcc>0.634951</vAcc></extensions></trkpt>
      <trkpt lon="-3.165074" lat="52.991142"><ele>272.176025</ele><time>2021-09-01T09:28:41Z</time><extensions><speed>1.516627</speed><course>315.508118</course><hAcc>0.863202</hAcc><vAcc>0.635548</vAcc></extensions></trkpt>
      <trkpt lon="-3.165079" lat="52.991156"><ele>272.165619</ele><time>2021-09-01T09:28:41Z</time><extensions><speed>1.520654</speed><course>315.740204</course><hAcc>0.863476</hAcc><vAcc>0.636443</vAcc></extensions></trkpt>
      <trkpt lon="-3.165085" lat="52.991169"><ele>272.166840</ele><time>2021-09-01T09:28:42Z</time><extensions><speed>1.524223</speed><course>310.654785</course><hAcc>0.863845</hAcc><vAcc>0.637609</vAcc></extensions></trkpt>
      <trkpt lon="-3.165090" lat="52.991182"><ele>272.179565</ele><time>2021-09-01T09:28:43Z</time><extensions><speed>1.527141</speed><course>314.784058</course><hAcc>0.864280</hAcc><vAcc>0.639001</vAcc></extensions></trkpt>
      <trkpt lon="-3.165096" lat="52.991195"><ele>272.202972</ele><time>2021-09-01T09:28:44Z</time><extensions><speed>1.528735</speed><course>306.836517</course><hAcc>0.864769</hAcc><vAcc>0.640579</vAcc></extensions></trkpt>
      <trkpt lon="-3.165102" lat="52.991209"><ele>272.236115</ele><time>2021-09-01T09:28:45Z</time><extensions><speed>1.528397</speed><course>319.014709</course><hAcc>0.865294</hAcc><vAcc>0.642291</vAcc></extensions></trkpt>
      <trkpt lon="-3.165108" lat="52.991222"><ele>272.277435</ele><time>2021-09-01T09:28:46Z</time><extensions><speed>1.525817</speed><course>316.668060</course><hAcc>0.865835</hAcc><vAcc>0.644065</vAcc></extensions></trkpt>
      <trkpt lon="-3.165114" lat="52.991235"><ele>272.324677</ele><time>2021-09-01T09:28:47Z</time><extensions><speed>1.521166</speed><course>317.381256</course><hAcc>0.866368</hAcc><vAcc>0.645814</vAcc></extensions></trkpt>
      <trkpt lon="-3.165120" lat="52.991248"><ele>272.374817</ele><time>2021-09-01T09:28:48Z</time><extensions><speed>1.515368</speed><course>315.522644</course><hAcc>0.866865</hAcc><vAcc>0.647438</vAcc></extensions></trkpt>
      <trkpt lon="-3.165126" lat="52.991261"><ele>272.424530</ele><time>2021-09-01T09:28:49Z</time><extensions><speed>1.509781</speed><course>313.748596</course><hAcc>0.867300</hAcc><vAcc>0.648841</vAcc></extensions></trkpt>
      <trkpt lon="-3.165133" lat="52.991274"><ele>272.470215</ele><time>2021-09-01T09:28:50Z</time><extensions><speed>1.505323</speed><course>311.298676</course><hAcc>0.867656</hAcc><vAcc>0.649953</vAcc></extensions></trkpt>
      <trkpt lon="-3.165140" lat="52.991287"><ele>272.508484</ele><time>2021-09-01T09:28:51Z</time><extensions><speed>1.501907</speed><course>307.453308</course><hAcc>0.867924</hAcc><vAcc>0.650747</vAcc></extensions></trkpt>
      <trkpt lon="-3.165148" lat="52.991300"><ele>272.536469</ele><time>2021-09-01T09:28:52Z</time><extensions><speed>1.498382</speed><course>308.937561</course><hAcc>0.868109</hAcc><vAcc>0.651245</vAcc></extensions></trkpt>
      <trkpt lon="-3.165155" lat="52.991312"><ele>272.552216</ele><time>2021-09-01T09:28:53Z</time><extensions><speed>1.494037</speed><course>304.505646</course><hAcc>0.868231</hAcc><vAcc>0.651517</vAcc></extensions></trkpt>
      <trkpt lon="-3.165163" lat="52.991325"><ele>272.555328</ele><time>2021-09-01T09:28:54Z</time><extensions><speed>1.488946</speed><course>299.094574</course><hAcc>0.868312</hAcc><vAcc>0.651664</vAcc></extensions></trkpt>
      <trkpt lon="-3.165171" lat="52.991337"><ele>272.546417</ele><time>2021-09-01T09:28:55Z</time><extensions><speed>1.483450</speed><course>310.704071</course><hAcc>0.868381</hAcc><vAcc>0.651789</vAcc></extensions></trkpt>
      <trkpt lon="-3.165179" lat="52.991350"><ele>272.526459</ele><time>2021-09-01T09:28:56Z</time><extensions><speed>1.478159</speed><course>308.713898</course><hAcc>0.868460</hAcc><vAcc>0.651975</vAcc></extensions></trkpt>
      <trkpt lon="-3.165187" lat="52.991362"><ele>272.497009</ele><time>2021-09-01T09:28:57Z</time><extensions><speed>1.473478</speed><course>315.990417</course><hAcc>0.868561</hAcc><vAcc>0.652271</vAcc></extensions></trkpt>
      <trkpt lon="-3.165194" lat="52.991375"><ele>272.459961</ele><time>2021-09-01T09:28:58Z</time><extensions><speed>1.469249</speed><course>316.941956</course><hAcc>0.868694</hAcc><vAcc>0.652701</vAcc></extensions></trkpt>
      <trkpt lon="-3.165202" lat="52.991387"><ele>272.417633</ele><time>2021-09-01T09:28:59Z</time><extensions><speed>1.465161</speed><course>326.025696</course><hAcc>0.868857</hAcc><vAcc>0.653256</vAcc></extensions></trkpt>
      <trkpt lon="-3.165209" lat="52.991399"><ele>272.372009</ele><time>2021-09-01T09:29:00Z</time><extensions><speed>1.461254</speed><course>316.997101</course><hAcc>0.869042</hAcc><vAcc>0.653896</vAcc></extensions></trkpt>
      <trkpt lon="-3.165216" lat="52.991412"><ele>272.324493</ele><time>2021-09-01T09:29:01Z</time><extensions><speed>1.457465</speed><course>307.396637</course><hAcc>0.869234</hAcc><vAcc>0.654557</vAcc></extensions></trkpt>
      <trkpt lon="-3.165223" lat="52.991424"><ele>272.276001</ele><time>2021-09-01T09:29:02Z</time><extensions><speed>1.453956</speed><course>307.245117</course><hAcc>0.869419</hAcc><vAcc>0.655172</vAcc></extensions></trkpt>
      <trkpt lon="-3.165229" lat="52.991437"><ele>272.227631</ele><time>2021-09-01T09:29:03Z</time><extensions><speed>1.451225</speed><course>302.943970</course><hAcc>0.869584</hAcc><vAcc>0.655695</vAcc></extensions></trkpt>
      <trkpt lon="-3.165236" lat="52.991449"><ele>272.180939</ele><time>2021-09-01T09:29:04Z</time><extensions><speed>1.449440</speed><course>310.986115</course><hAcc>0.869727</hAcc><vAcc>0.656117</vAcc></extensions></trkpt>
      <trkpt lon="-3.165242" lat="52.991462"><ele>272.137817</ele><time>2021-09-01T09:29:05Z</time><extensions><speed>1.448623</speed><course>317.229156</course><hAcc>0.869852</hAcc><vAcc>0.656465</vAcc></extensions></trkpt>
      <trkpt lon="-3.165248" lat="52.991474"><ele>272.100403</ele><time>2021-09-01T09:29:06Z</time><extensions><speed>1.448531</speed><course>310.287506</course><hAcc>0.869968</hAcc><vAcc>0.656789</vAcc></extensions></trkpt>
      <trkpt lon="-3.165253" lat="52.991487"><ele>272.070892</ele><time>2021-09-01T09:29:07Z</time><extensions><speed>1.448846</speed><course>314.657898</course><hAcc>0.870088</hAcc><vAcc>0.657144</vAcc></extensions></trkpt>
      <trkpt lon="-3.165258" lat="52.991499"><ele>272.051086</ele><time>2021-09-01T09:29:08Z</time><extensions><speed>1.448977</speed><course>316.163879</course><hAcc>0.870215</hAcc><vAcc>0.657564</vAcc></extensions></trkpt>
      <trkpt lon="-3.165263" lat="52.991512"><ele>272.042175</ele><time>2021-09-01T09:29:09Z</time><extensions><speed>1.448315</speed><course>315.280670</course><hAcc>0.870349</hAcc><vAcc>0.658041</vAcc></extensions></trkpt>
      <trkpt lon="-3.165268" lat="52.991525"><ele>272.044891</ele><time>2021-09-01T09:29:10Z</time><extensions><speed>1.446580</speed><course>323.358459</course><hAcc>0.870478</hAcc><vAcc>0.658528</vAcc></extensions></trkpt>
      <trkpt lon="-3.165272" lat="52.991537"><ele>272.059723</ele><time>2021-09-01T09:29:11Z</time><extensions><speed>1.443330</speed><course>323.478973</course><hAcc>0.870583</hAcc><vAcc>0.658943</vAcc></extensions></trkpt>
      <trkpt lon="-3.165276" lat="52.991550"><ele>272.087006</ele><time>2021-09-01T09:29:12Z</time><extensions><speed>1.438141</speed><course>327.884216</course><hAcc>0.870646</hAcc><vAcc>0.659202</vAcc></extensions></trkpt>
      <trkpt lon="-3.165280" lat="52.991563"><ele>272.126770</ele><time>2021-09-01T09:29:13Z</time><extensions><speed>1.431072</speed><course>318.187775</course><hAcc>0.870653</hAcc><vAcc>0.659249</vAcc></extensions></trkpt>
      <trkpt lon="-3.165283" lat="52.991575"><ele>272.178650</ele><time>2021-09-01T09:29:14Z</time><extensions><speed>1.422970</speed><course>318.936035</course><hAcc>0.870602</hAcc><vAcc>0.659069</vAcc></extensions></trkpt>
      <trkpt lon="-3.165287" lat="52.991588"><ele>272.241577</ele><time>2021-09-01T09:29:15Z</time><extensions><speed>1.414891</speed><course>326.780121</course><hAcc>0.870501</hAcc><vAcc>0.658692</vAcc></extensions></trkpt>
      <trkpt lon="-3.165290" lat="52.991601"><ele>272.314178</ele><time>2021-09-01T09:29:16Z</time><extensions><speed>1.407237</speed><course>314.218445</course><hAcc>0.870361</hAcc><vAcc>0.658171</vAcc></extensions></trkpt>
      <trkpt lon="-3.165293" lat="52.991613"><ele>272.394562</ele><time>2021-09-01T09:29:17Z</time><extensions><speed>1.400145</speed><course>317.554047</course><hAcc>0.870200</hAcc><vAcc>0.657570</vAcc></extensions></trkpt>
      <trkpt lon="-3.165297" lat="52.991625"><ele>272.480530</ele><time>2021-09-01T09:29:18Z</time><extensions><speed>1.393881</speed><course>317.225586</course><hAcc>0.870039</hAcc><vAcc>0.656964</vAcc></extensions></trkpt>
      <trkpt lon="-3.165300" lat="52.991638"><ele>272.569946</ele><time>2021-09-01T09:29:19Z</time><extensions><speed>1.388741</speed><course>318.371796</course><hAcc>0.869900</hAcc><vAcc>0.656440</vAcc></extensions></trkpt>
      <trkpt lon="-3.165303" lat="52.991650"><ele>272.660858</ele><time>2021-09-01T09:29:20Z</time><extensions><speed>1.385382</speed><course>319.534454</course><hAcc>0.869804</hAcc><vAcc>0.656080</vAcc></extensions></trkpt>
      <trkpt lon="-3.165307" lat="52.991662"><ele>272.751404</ele><time>2021-09-01T09:29:21Z</time><extensions><speed>1.383952</speed><course>319.948578</course><hAcc>0.869765</hAcc><vAcc>0.655931</vAcc></extensions></trkpt>
      <trkpt lon="-3.165310" lat="52.991675"><ele>272.839844</ele><time>2021-09-01T09:29:22Z</time><extensions><speed>1.384428</speed><course>326.867279</course><hAcc>0.869786</hAcc><vAcc>0.656006</vAcc></extensions></trkpt>
      <trkpt lon="-3.165314" lat="52.991687"><ele>272.925079</ele><time>2021-09-01T09:29:23Z</time><extensions><speed>1.387342</speed><course>319.995087</course><hAcc>0.869864</hAcc><vAcc>0.656286</vAcc></extensions></trkpt>
      <trkpt lon="-3.165318" lat="52.991699"><ele>273.006500</ele><time>2021-09-01T09:29:24Z</time><extensions><speed>1.392232</speed><course>323.754486</course><hAcc>0.869992</hAcc><vAcc>0.656749</vAcc></extensions></trkpt>
      <trkpt lon="-3.165323" lat="52.991711"><ele>273.083405</ele><time>2021-09-01T09:29:25Z</time><extensions><speed>1.397840</speed><course>327.994751</course><hAcc>0.870160</hAcc><vAcc>0.657368</vAcc></extensions></trkpt>
      <trkpt lon="-3.165327" lat="52.991724"><ele>273.154999</ele><time>2021-09-01T09:29:26Z</time><extensions><speed>1.403337</speed><course>338.740143</course><hAcc>0.870355</hAcc><vAcc>0.658092</vAcc></extensions></trkpt>
      <trkpt lon="-3.165332" lat="52.991736"><ele>273.220947</ele><time>2021-09-01T09:29:27Z</time><extensions><speed>1.408002</speed><course>336.648224</course><hAcc>0.870556</hAcc><vAcc>0.658840</vAcc></extensions></trkpt>
      <trkpt lon="-3.165337" lat="52.991748"><ele>273.281342</ele><time>2021-09-01T09:29:28Z</time><extensions><speed>1.411120</speed><course>335.818359</course><hAcc>0.870735</hAcc><vAcc>0.659505</vAcc></extensions></trkpt>
      <trkpt lon="-3.165342" lat="52.991761"><ele>273.336304</ele><time>2021-09-01T09:29:29Z</time><extensions><speed>1.412381</speed><course>332.183533</course><hAcc>0.870866</hAcc><vAcc>0.659980</vAcc></extensions></trkpt>
      <trkpt lon="-3.165347" lat="52.991773"><ele>273.386292</ele><time>2021-09-01T09:29:30Z</time><extensions><speed>1.412004</speed><course>329.123840</course><hAcc>0.870929</hAcc><vAcc>0.660197</vAcc></extensions></trkpt>
      <trkpt lon="-3.165353" lat="52.991785"><ele>273.432068</ele><time>2021-09-01T09:29:31Z</time><extensions><speed>1.410567</speed><course>331.386230</course><hAcc>0.870917</hAcc><vAcc>0.660138</vAcc></extensions></trkpt>
      <trkpt lon="-3.165358" lat="52.991797"><ele>273.474518</ele><time>2021-09-01T09:29:32Z</time><extensions><speed>1.408269</speed><course>327.161377</course><hAcc>0.870831</hAcc><vAcc>0.659822</vAcc></extensions></trkpt>
      <trkpt lon="-3.165364" lat="52.991809"><ele>273.514435</ele><time>2021-09-01T09:29:33Z</time><extensions><speed>1.404864</speed><course>327.868042</course><hAcc>0.870673</hAcc><vAcc>0.659281</vAcc></extensions></trkpt>
      <trkpt lon="-3.165370" lat="52.991821"><ele>273.552704</ele><time>2021-09-01T09:29:34Z</time><extensions><speed>1.399872</speed><course>323.627838</course><hAcc>0.870451</hAcc><vAcc>0.658544</vAcc></extensions></trkpt>
      <trkpt lon="-3.165376" lat="52.991834"><ele>273.590210</ele><time>2021-09-01T09:29:35Z</time><extensions><speed>1.393070</speed><course>324.612000</course><hAcc>0.870168</hAcc><vAcc>0.657623</vAcc></extensions></trkpt>
      <trkpt lon="-3.165382" lat="52.991845"><ele>273.627625</ele><time>2021-09-01T09:29:36Z</time><extensions><speed>1.384753</speed><course>314.250275</course><hAcc>0.869827</hAcc><vAcc>0.656530</vAcc></extensions></trkpt>
      <trkpt lon="-3.165387" lat="52.991857"><ele>273.665283</ele><time>2021-09-01T09:29:37Z</time><extensions><speed>1.375224</speed><course>324.325928</course><hAcc>0.869433</hAcc><vAcc>0.655276</vAcc></extensions></trkpt>
      <trkpt lon="-3.165393" lat="52.991869"><ele>273.703094</ele><time>2021-09-01T09:29:38Z</time><extensions><speed>1.364760</speed><course>323.620239</course><hAcc>0.868995</hAcc><vAcc>0.653885</vAcc></extensions></trkpt>
      <trkpt lon="-3.165399" lat="52.991881"><ele>273.740662</ele><time>2021-09-01T09:29:39Z</time><extensions><speed>1.354036</speed><course>318.647095</course><hAcc>0.868520</hAcc><vAcc>0.652377</vAcc></extensions></trkpt>
      <trkpt lon="-3.165404" lat="52.991893"><ele>273.777191</ele><time>2021-09-01T09:29:40Z</time><extensions><speed>1.343944</speed><course>325.356964</course><hAcc>0.868018</hAcc><vAcc>0.650782</vAcc></extensions></trkpt>
      <trkpt lon="-3.165410" lat="52.991904"><ele>273.811829</ele><time>2021-09-01T09:29:41Z</time><extensions><speed>1.335366</speed><course>319.826599</course><hAcc>0.867501</hAcc><vAcc>0.649133</vAcc></extensions></trkpt>
      <trkpt lon="-3.165415" lat="52.991916"><ele>273.843842</ele><time>2021-09-01T09:29:42Z</time><extensions><speed>1.329038</speed><course>314.735016</course><hAcc>0.866983</hAcc><vAcc>0.647474</vAcc></extensions></trkpt>
      <trkpt lon="-3.165420" lat="52.991927"><ele>273.872559</ele><time>2021-09-01T09:29:43Z</time><extensions><speed>1.324922</speed><course>309.478760</course><hAcc>0.866478</hAcc><vAcc>0.645855</vAcc></extensions></trkpt>
      <trkpt lon="-3.165425" lat="52.991939"><ele>273.897308</ele><time>2021-09-01T09:29:44Z</time><extensions><speed>1.322817</speed><course>319.543488</course><hAcc>0.866005</hAcc><vAcc>0.644332</vAcc></extensions></trkpt>
      <trkpt lon="-3.165431" lat="52.991950"><ele>273.918243</ele><time>2021-09-01T09:29:45Z</time><extensions><speed>1.322780</speed><course>324.087982</course><hAcc>0.865582</hAcc><vAcc>0.642964</vAcc></extensions></trkpt>
      <trkpt lon="-3.165436" lat="52.991962"><ele>273.936371</ele><time>2021-09-01T09:29:46Z</time><extensions><speed>1.324338</speed><course>317.628326</course><hAcc>0.865226</hAcc><vAcc>0.641813</vAcc></extensions></trkpt>
      <trkpt lon="-3.165441" lat="52.991973"><ele>273.952911</ele><time>2021-09-01T09:29:47Z</time><extensions><speed>1.326368</speed><course>311.843903</course><hAcc>0.864955</hAcc><vAcc>0.640935</vAcc></extensions></trkpt>
      <trkpt lon="-3.165446" lat="52.991985"><ele>273.968567</ele><time>2021-09-01T09:29:48Z</time><extensions><speed>1.327774</speed><course>320.026215</course><hAcc>0.864780</hAcc><vAcc>0.640376</vAcc></extensions></trkpt>
      <trkpt lon="-3.165451" lat="52.991996"><ele>273.983215</ele><time>2021-09-01T09:29:49Z</time><extensions><speed>1.327901</speed><course>320.448669</course><hAcc>0.864711</hAcc><vAcc>0.640159</vAcc></extensions></trkpt>
      <trkpt lon="-3.165457" lat="52.992008"><ele>273.996582</ele><time>2021-09-01T09:29:50Z</time><extensions><speed>1.326868</speed><course>324.626526</course><hAcc>0.864744</hAcc><vAcc>0.640276</vAcc></extensions></trkpt>
      <trkpt lon="-3.165462" lat="52.992019"><ele>274.008453</ele><time>2021-09-01T09:29:51Z</time><extensions><speed>1.325064</speed><course>326.167938</course><hAcc>0.864867</hAcc><vAcc>0.640684</vAcc></extensions></trkpt>
      <trkpt lon="-3.165468" lat="52.992030"><ele>274.018555</ele><time>2021-09-01T09:29:52Z</time><extensions><speed>1.322466</speed><course>325.390656</course><hAcc>0.865067</hAcc><vAcc>0.641338</vAcc></extensions></trkpt>
      <trkpt lon="-3.165474" lat="52.992042"><ele>274.026794</ele><time>2021-09-01T09:29:53Z</time><extensions><speed>1.319000</speed><course>314.974457</course><hAcc>0.865336</hAcc><vAcc>0.642216</vAcc></extensions></trkpt>
      <trkpt lon="-3.165481" lat="52.992053"><ele>274.033478</ele><time>2021-09-01T09:29:54Z</time><extensions><speed>1.314822</speed><course>325.724579</course><hAcc>0.865668</hAcc><vAcc>0.643317</vAcc></extensions></trkpt>
      <trkpt lon="-3.165488" lat="52.992064"><ele>274.039703</ele><time>2021-09-01T09:29:55Z</time><extensions><speed>1.310438</speed><course>318.034210</course><hAcc>0.866056</hAcc><vAcc>0.644625</vAcc></extensions></trkpt>
      <trkpt lon="-3.165496" lat="52.992075"><ele>274.046692</ele><time>2021-09-01T09:29:56Z</time><extensions><speed>1.306931</speed><course>313.475250</course><hAcc>0.866470</hAcc><vAcc>0.646055</vAcc></extensions></trkpt>
      <trkpt lon="-3.165504" lat="52.992085"><ele>274.055054</ele><time>2021-09-01T09:29:57Z</time><extensions><speed>1.305420</speed><course>321.089203</course><hAcc>0.866870</hAcc><vAcc>0.647465</vAcc></extensions></trkpt>
      <trkpt lon="-3.165513" lat="52.992096"><ele>274.064972</ele><time>2021-09-01T09:29:58Z</time><extensions><speed>1.306373</speed><course>329.810181</course><hAcc>0.867207</hAcc><vAcc>0.648676</vAcc></extensions></trkpt>
      <trkpt lon="-3.165522" lat="52.992106"><ele>274.076447</ele><time>2021-09-01T09:29:59Z</time><extensions><speed>1.309695</speed><course>327.314850</course><hAcc>0.867433</hAcc><vAcc>0.649506</vAcc></extensions></trkpt>
      <trkpt lon="-3.165532" lat="52.992116"><ele>274.089233</ele><time>2021-09-01T09:30:00Z</time><extensions><speed>1.315167</speed><course>321.503876</course><hAcc>0.867510</hAcc><vAcc>0.649801</vAcc></extensions></trkpt>
      <trkpt lon="-3.165543" lat="52.992126"><ele>274.102875</ele><time>2021-09-01T09:30:01Z</time><extensions><speed>1.322372</speed><course>323.534607</course><hAcc>0.867422</hAcc><vAcc>0.649466</vAcc></extensions></trkpt>
      <trkpt lon="-3.165554" lat="52.992136"><ele>274.116760</ele><time>2021-09-01T09:30:02Z</time><extensions><speed>1.330703</speed><course>325.158722</course><hAcc>0.867172</hAcc><vAcc>0.648469</vAcc></extensions></trkpt>
      <trkpt lon="-3.165566" lat="52.992146"><ele>274.130463</ele><time>2021-09-01T09:30:03Z</time><extensions><speed>1.340026</speed><course>329.447083</course><hAcc>0.866791</hAcc><vAcc>0.646842</vAcc></extensions></trkpt>
      <trkpt lon="-3.165578" lat="52.992155"><ele>274.143646</ele><time>2021-09-01T09:30:04Z</time><extensions><speed>1.350144</speed><course>331.191650</course><hAcc>0.866331</hAcc><vAcc>0.644668</vAcc></extensions></trkpt>
      <trkpt lon="-3.165590" lat="52.992165"><ele>274.156128</ele><time>2021-09-01T09:30:05Z</time><extensions><speed>1.359796</speed><course>334.557068</course><hAcc>0.865866</hAcc><vAcc>0.642069</vAcc></extensions></trkpt>
      <trkpt lon="-3.165602" lat="52.992175"><ele>274.167328</ele><time>2021-09-01T09:30:06Z</time><extensions><speed>1.367633</speed><course>336.690918</course><hAcc>0.865490</hAcc><vAcc>0.639195</vAcc></extensions></trkpt>
      <trkpt lon="-3.165615" lat="52.992184"><ele>274.176849</ele><time>2021-09-01T09:30:07Z</time><extensions><speed>1.373486</speed><course>337.183258</course><hAcc>0.865308</hAcc><vAcc>0.636211</vAcc></extensions></trkpt>
      <trkpt lon="-3.165627" lat="52.992194"><ele>274.185272</ele><time>2021-09-01T09:30:08Z</time><extensions><speed>1.377937</speed><course>318.997711</course><hAcc>0.865426</hAcc><vAcc>0.633280</vAcc></extensions></trkpt>
      <trkpt lon="-3.165640" lat="52.992204"><ele>274.194000</ele><time>2021-09-01T09:30:09Z</time><extensions><speed>1.381612</speed><course>315.791901</course><hAcc>0.865940</hAcc><vAcc>0.630539</vAcc></extensions></trkpt>
      <trkpt lon="-3.165652" lat="52.992214"><ele>274.204895</ele><time>2021-09-01T09:30:10Z</time><extensions><speed>1.385199</speed><course>315.791901</course><hAcc>0.866917</hAcc><vAcc>0.628070</vAcc></extensions></trkpt>
      <trkpt lon="-3.165665" lat="52.992224"><ele>274.220184</ele><time>2021-09-01T09:30:11Z</time><extensions><speed>1.389216</speed><course>315.791901</course><hAcc>0.868374</hAcc><vAcc>0.625890</vAcc></extensions></trkpt>
      <trkpt lon="-3.165677" lat="52.992234"><ele>274.242188</ele><time>2021-09-01T09:30:12Z</time><extensions><speed>1.393965</speed><course>315.791901</course><hAcc>0.870274</hAcc><vAcc>0.623955</vAcc></extensions></trkpt>
      <trkpt lon="-3.165690" lat="52.992244"><ele>274.272583</ele><time>2021-09-01T09:30:13Z</time><extensions><speed>1.399812</speed><course>315.791901</course><hAcc>0.872531</hAcc><vAcc>0.622176</vAcc></extensions></trkpt>
      <trkpt lon="-3.165702" lat="52.992254"><ele>274.311951</ele><time>2021-09-01T09:30:14Z</time><extensions><speed>1.407121</speed><course>315.791901</course><hAcc>0.875032</hAcc><vAcc>0.620456</vAcc></extensions></trkpt>
      <trkpt lon="-3.165715" lat="52.992264"><ele>274.360077</ele><time>2021-09-01T09:30:15Z</time><extensions><speed>1.415964</speed><course>315.791901</course><hAcc>0.877668</hAcc><vAcc>0.618716</vAcc></extensions></trkpt>
      <trkpt lon="-3.165728" lat="52.992274"><ele>274.416565</ele><time>2021-09-01T09:30:16Z</time><extensions><speed>1.425986</speed><course>315.791901</course><hAcc>0.880334</hAcc><vAcc>0.616922</vAcc></extensions></trkpt>
      <trkpt lon="-3.165742" lat="52.992284"><ele>274.480957</ele><time>2021-09-01T09:30:17Z</time><extensions><speed>1.436663</speed><course>315.791901</course><hAcc>0.882916</hAcc><vAcc>0.615066</vAcc></extensions></trkpt>
      <trkpt lon="-3.165756" lat="52.992294"><ele>274.552277</ele><time>2021-09-01T09:30:18Z</time><extensions><speed>1.447138</speed><course>315.791901</course><hAcc>0.885267</hAcc><vAcc>0.613143</vAcc></extensions></trkpt>
      <trkpt lon="-3.165770" lat="52.992304"><ele>274.628082</ele><time>2021-09-01T09:30:19Z</time><extensions><speed>1.456400</speed><course>315.791901</course><hAcc>0.887217</hAcc><vAcc>0.611129</vAcc></extensions></trkpt>
      <trkpt lon="-3.165785" lat="52.992313"><ele>274.704895</ele><time>2021-09-01T09:30:20Z</time><extensions><speed>1.463763</speed><course>315.791901</course><hAcc>0.888591</hAcc><vAcc>0.608986</vAcc></extensions></trkpt>
      <trkpt lon="-3.165800" lat="52.992323"><ele>274.779083</ele><time>2021-09-01T09:30:21Z</time><extensions><speed>1.468785</speed><course>315.791901</course><hAcc>0.889251</hAcc><vAcc>0.606673</vAcc></extensions></trkpt>
      <trkpt lon="-3.165815" lat="52.992332"><ele>274.846985</ele><time>2021-09-01T09:30:22Z</time><extensions><speed>1.471614</speed><course>315.791901</course><hAcc>0.889128</hAcc><vAcc>0.604154</vAcc></extensions></trkpt>
      <trkpt lon="-3.165831" lat="52.992341"><ele>274.904938</ele><time>2021-09-01T09:30:23Z</time><extensions><speed>1.472454</speed><course>315.791901</course><hAcc>0.888263</hAcc><vAcc>0.601425</vAcc></extensions></trkpt>
      <trkpt lon="-3.165848" lat="52.992350"><ele>274.949738</ele><time>2021-09-01T09:30:24Z</time><extensions><speed>1.471408</speed><course>324.368835</course><hAcc>0.886843</hAcc><vAcc>0.598549</vAcc></extensions></trkpt>
      <trkpt lon="-3.165864" lat="52.992359"><ele>274.978882</ele><time>2021-09-01T09:30:25Z</time><extensions><speed>1.468808</speed><course>336.936340</course><hAcc>0.885187</hAcc><vAcc>0.595649</vAcc></extensions></trkpt>
      <trkpt lon="-3.165881" lat="52.992367"><ele>274.990387</ele><time>2021-09-01T09:30:26Z</time><extensions><speed>1.465272</speed><course>334.067902</course><hAcc>0.883659</hAcc><vAcc>0.592878</vAcc></extensions></trkpt>
      <trkpt lon="-3.165898" lat="52.992375"><ele>274.983032</ele><time>2021-09-01T09:30:27Z</time><extensions><speed>1.461896</speed><course>335.500000</course><hAcc>0.882566</hAcc><vAcc>0.590371</vAcc></extensions></trkpt>
      <trkpt lon="-3.165915" lat="52.992383"><ele>274.956238</ele><time>2021-09-01T09:30:28Z</time><extensions><speed>1.458777</speed><course>331.822205</course><hAcc>0.882071</hAcc><vAcc>0.588213</vAcc></extensions></trkpt>
      <trkpt lon="-3.165933" lat="52.992391"><ele>274.909576</ele><time>2021-09-01T09:30:30Z</time><extensions><speed>1.455562</speed><course>332.566284</course><hAcc>0.882165</hAcc><vAcc>0.586411</vAcc></extensions></trkpt>
      <trkpt lon="-3.165950" lat="52.992399"><ele>274.842773</ele><time>2021-09-01T09:30:31Z</time><extensions><speed>1.452471</speed><course>322.442413</course><hAcc>0.882730</hAcc><vAcc>0.584934</vAcc></extensions></trkpt>
      <trkpt lon="-3.165968" lat="52.992406"><ele>274.755707</ele><time>2021-09-01T09:30:32Z</time><extensions><speed>1.449304</speed><course>328.923309</course><hAcc>0.883562</hAcc><vAcc>0.583723</vAcc></extensions></trkpt>
      <trkpt lon="-3.165986" lat="52.992414"><ele>274.648895</ele><time>2021-09-01T09:30:33Z</time><extensions><speed>1.445178</speed><course>332.979462</course><hAcc>0.884393</hAcc><vAcc>0.582701</vAcc></extensions></trkpt>
      <trkpt lon="-3.166003" lat="52.992421"><ele>274.523376</ele><time>2021-09-01T09:30:34Z</time><extensions><speed>1.439074</speed><course>326.583588</course><hAcc>0.884948</hAcc><vAcc>0.581811</vAcc></extensions></trkpt>
      <trkpt lon="-3.166021" lat="52.992428"><ele>274.380463</ele><time>2021-09-01T09:30:35Z</time><extensions><speed>1.430626</speed><course>333.004852</course><hAcc>0.884986</hAcc><vAcc>0.581022</vAcc></extensions></trkpt>
      <trkpt lon="-3.166039" lat="52.992435"><ele>274.222229</ele><time>2021-09-01T09:30:36Z</time><extensions><speed>1.420245</speed><course>328.891602</course><hAcc>0.884314</hAcc><vAcc>0.580319</vAcc></extensions></trkpt>
      <trkpt lon="-3.166056" lat="52.992442"><ele>274.051910</ele><time>2021-09-01T09:30:37Z</time><extensions><speed>1.408712</speed><course>329.156494</course><hAcc>0.882827</hAcc><vAcc>0.579693</vAcc></extensions></trkpt>
      <trkpt lon="-3.166074" lat="52.992449"><ele>273.874237</ele><time>2021-09-01T09:30:38Z</time><extensions><speed>1.397016</speed><course>329.450256</course><hAcc>0.880539</hAcc><vAcc>0.579138</vAcc></extensions></trkpt>
      <trkpt lon="-3.166092" lat="52.992456"><ele>273.694611</ele><time>2021-09-01T09:30:39Z</time><extensions><speed>1.386089</speed><course>329.886902</course><hAcc>0.877597</hAcc><vAcc>0.578662</vAcc></extensions></trkpt>
      <trkpt lon="-3.166109" lat="52.992462"><ele>273.518280</ele><time>2021-09-01T09:30:39Z</time><extensions><speed>1.376695</speed><course>332.708923</course><hAcc>0.874259</hAcc><vAcc>0.578289</vAcc></extensions></trkpt>
      <trkpt lon="-3.166126" lat="52.992469"><ele>273.349152</ele><time>2021-09-01T09:30:40Z</time><extensions><speed>1.369866</speed><course>337.086456</course><hAcc>0.870770</hAcc><vAcc>0.578029</vAcc></extensions></trkpt>
      <trkpt lon="-3.166143" lat="52.992475"><ele>273.191193</ele><time>2021-09-01T09:30:41Z</time><extensions><speed>1.366202</speed><course>335.947693</course><hAcc>0.867339</hAcc><vAcc>0.577870</vAcc></extensions></trkpt>
      <trkpt lon="-3.166160" lat="52.992482"><ele>273.047424</ele><time>2021-09-01T09:30:42Z</time><extensions><speed>1.365047</speed><course>332.293579</course><hAcc>0.864152</hAcc><vAcc>0.577810</vAcc></extensions></trkpt>
      <trkpt lon="-3.166177" lat="52.992489"><ele>272.919800</ele><time>2021-09-01T09:30:43Z</time><extensions><speed>1.365221</speed><course>330.673279</course><hAcc>0.861346</hAcc><vAcc>0.577831</vAcc></extensions></trkpt>
      <trkpt lon="-3.166194" lat="52.992496"><ele>272.809570</ele><time>2021-09-01T09:30:44Z</time><extensions><speed>1.365957</speed><course>325.868774</course><hAcc>0.859007</hAcc><vAcc>0.577912</vAcc></extensions></trkpt>
      <trkpt lon="-3.166211" lat="52.992503"><ele>272.717529</ele><time>2021-09-01T09:30:45Z</time><extensions><speed>1.366630</speed><course>320.652771</course><hAcc>0.857178</hAcc><vAcc>0.578024</vAcc></extensions></trkpt>
      <trkpt lon="-3.166228" lat="52.992509"><ele>272.643982</ele><time>2021-09-01T09:30:46Z</time><extensions><speed>1.366716</speed><course>317.759430</course><hAcc>0.855852</hAcc><vAcc>0.578128</vAcc></extensions></trkpt>
      <trkpt lon="-3.166245" lat="52.992516"><ele>272.588531</ele><time>2021-09-01T09:30:47Z</time><extensions><speed>1.365523</speed><course>312.631989</course><hAcc>0.854984</hAcc><vAcc>0.578183</vAcc></extensions></trkpt>
      <trkpt lon="-3.166262" lat="52.992523"><ele>272.549957</ele><time>2021-09-01T09:30:48Z</time><extensions><speed>1.362101</speed><course>318.114197</course><hAcc>0.854497</hAcc><vAcc>0.578151</vAcc></extensions></trkpt>
      <trkpt lon="-3.166279" lat="52.992530"><ele>272.526642</ele><time>2021-09-01T09:30:49Z</time><extensions><speed>1.356080</speed><course>324.507172</course><hAcc>0.854288</hAcc><vAcc>0.578010</vAcc></extensions></trkpt>
      <trkpt lon="-3.166295" lat="52.992537"><ele>272.516266</ele><time>2021-09-01T09:30:50Z</time><extensions><speed>1.347627</speed><course>327.082703</course><hAcc>0.854244</hAcc><vAcc>0.577762</vAcc></extensions></trkpt>
      <trkpt lon="-3.166312" lat="52.992543"><ele>272.515778</ele><time>2021-09-01T09:30:51Z</time><extensions><speed>1.336991</speed><course>329.958954</course><hAcc>0.854256</hAcc><vAcc>0.577443</vAcc></extensions></trkpt>
      <trkpt lon="-3.166329" lat="52.992550"><ele>272.521454</ele><time>2021-09-01T09:30:52Z</time><extensions><speed>1.324089</speed><course>328.035645</course><hAcc>0.854241</hAcc><vAcc>0.577111</vAcc></extensions></trkpt>
      <trkpt lon="-3.166346" lat="52.992556"><ele>272.529755</ele><time>2021-09-01T09:30:53Z</time><extensions><speed>1.309141</speed><course>327.514526</course><hAcc>0.854144</hAcc><vAcc>0.576837</vAcc></extensions></trkpt>
      <trkpt lon="-3.166362" lat="52.992562"><ele>272.537872</ele><time>2021-09-01T09:30:54Z</time><extensions><speed>1.292990</speed><course>320.027710</course><hAcc>0.853949</hAcc><vAcc>0.576685</vAcc></extensions></trkpt>
      <trkpt lon="-3.166378" lat="52.992568"><ele>272.543640</ele><time>2021-09-01T09:30:55Z</time><extensions><speed>1.276659</speed><course>323.596710</course><hAcc>0.853667</hAcc><vAcc>0.576702</vAcc></extensions></trkpt>
      <trkpt lon="-3.166395" lat="52.992574"><ele>272.544708</ele><time>2021-09-01T09:30:56Z</time><extensions><speed>1.261082</speed><course>326.277405</course><hAcc>0.853323</hAcc><vAcc>0.576914</vAcc></extensions></trkpt>
      <trkpt lon="-3.166411" lat="52.992579"><ele>272.538391</ele><time>2021-09-01T09:30:57Z</time><extensions><speed>1.246621</speed><course>327.083344</course><hAcc>0.852949</hAcc><vAcc>0.577332</vAcc></extensions></trkpt>
      <trkpt lon="-3.166427" lat="52.992585"><ele>272.521912</ele><time>2021-09-01T09:30:58Z</time><extensions><speed>1.233111</speed><course>330.723541</course><hAcc>0.852566</hAcc><vAcc>0.577957</vAcc></extensions></trkpt>
      <trkpt lon="-3.166443" lat="52.992590"><ele>272.492981</ele><time>2021-09-01T09:30:59Z</time><extensions><speed>1.220634</speed><course>328.902985</course><hAcc>0.852185</hAcc><vAcc>0.578790</vAcc></extensions></trkpt>
      <trkpt lon="-3.166459" lat="52.992596"><ele>272.449860</ele><time>2021-09-01T09:31:00Z</time><extensions><speed>1.209265</speed><course>325.540680</course><hAcc>0.851810</hAcc><vAcc>0.579816</vAcc></extensions></trkpt>
      <trkpt lon="-3.166475" lat="52.992601"><ele>272.391418</ele><time>2021-09-01T09:31:01Z</time><extensions><speed>1.198991</speed><course>326.969879</course><hAcc>0.851455</hAcc><vAcc>0.580997</vAcc></extensions></trkpt>
      <trkpt lon="-3.166491" lat="52.992605"><ele>272.317139</ele><time>2021-09-01T09:31:02Z</time><extensions><speed>1.190004</speed><course>320.316467</course><hAcc>0.851143</hAcc><vAcc>0.582267</vAcc></extensions></trkpt>
      <trkpt lon="-3.166506" lat="52.992610"><ele>272.227112</ele><time>2021-09-01T09:31:03Z</time><extensions><speed>1.182305</speed><course>319.871765</course><hAcc>0.850908</hAcc><vAcc>0.583539</vAcc></extensions></trkpt>
      <trkpt lon="-3.166522" lat="52.992614"><ele>272.122009</ele><time>2021-09-01T09:31:04Z</time><extensions><speed>1.175911</speed><course>316.990692</course><hAcc>0.850782</hAcc><vAcc>0.584715</vAcc></extensions></trkpt>
      <trkpt lon="-3.166539" lat="52.992618"><ele>272.002686</ele><time>2021-09-01T09:31:05Z</time><extensions><speed>1.170721</speed><course>317.272278</course><hAcc>0.850789</hAcc><vAcc>0.585712</vAcc></extensions></trkpt>
      <trkpt lon="-3.166555" lat="52.992622"><ele>271.870392</ele><time>2021-09-01T09:31:06Z</time><extensions><speed>1.166237</speed><course>317.305878</course><hAcc>0.850936</hAcc><vAcc>0.586492</vAcc></extensions></trkpt>
      <trkpt lon="-3.166571" lat="52.992626"><ele>271.726746</ele><time>2021-09-01T09:31:07Z</time><extensions><speed>1.162232</speed><course>319.626617</course><hAcc>0.851221</hAcc><vAcc>0.587069</vAcc></extensions></trkpt>
      <trkpt lon="-3.166587" lat="52.992630"><ele>271.573486</ele><time>2021-09-01T09:31:08Z</time><extensions><speed>1.159065</speed><course>316.946777</course><hAcc>0.851626</hAcc><vAcc>0.587508</vAcc></extensions></trkpt>
      <trkpt lon="-3.166603" lat="52.992633"><ele>271.412018</ele><time>2021-09-01T09:31:09Z</time><extensions><speed>1.157269</speed><course>316.848175</course><hAcc>0.852118</hAcc><vAcc>0.587909</vAcc></extensions></trkpt>
      <trkpt lon="-3.166620" lat="52.992637"><ele>271.243591</ele><time>2021-09-01T09:31:10Z</time><extensions><speed>1.157476</speed><course>306.129730</course><hAcc>0.852652</hAcc><vAcc>0.588393</vAcc></extensions></trkpt>
      <trkpt lon="-3.166636" lat="52.992640"><ele>271.068970</ele><time>2021-09-01T09:31:11Z</time><extensions><speed>1.159869</speed><course>311.287872</course><hAcc>0.853181</hAcc><vAcc>0.589108</vAcc></extensions></trkpt>
      <trkpt lon="-3.166652" lat="52.992643"><ele>270.888733</ele><time>2021-09-01T09:31:12Z</time><extensions><speed>1.164061</speed><course>316.150696</course><hAcc>0.853677</hAcc><vAcc>0.590221</vAcc></extensions></trkpt>
      <trkpt lon="-3.166669" lat="52.992647"><ele>270.702881</ele><time>2021-09-01T09:31:13Z</time><extensions><speed>1.169667</speed><course>319.589172</course><hAcc>0.854132</hAcc><vAcc>0.591897</vAcc></extensions></trkpt>
      <trkpt lon="-3.166685" lat="52.992650"><ele>270.511200</ele><time>2021-09-01T09:31:14Z</time><extensions><speed>1.176642</speed><course>317.826752</course><hAcc>0.854565</hAcc><vAcc>0.594269</vAcc></extensions></trkpt>
      <trkpt lon="-3.166702" lat="52.992654"><ele>270.313995</ele><time>2021-09-01T09:31:15Z</time><extensions><speed>1.185305</speed><course>316.582428</course><hAcc>0.855024</hAcc><vAcc>0.597389</vAcc></extensions></trkpt>
      <trkpt lon="-3.166718" lat="52.992658"><ele>270.112549</ele><time>2021-09-01T09:31:16Z</time><extensions><speed>1.195855</speed><course>322.533203</course><hAcc>0.855564</hAcc><vAcc>0.601204</vAcc></extensions></trkpt>
      <trkpt lon="-3.166735" lat="52.992662"><ele>269.908966</ele><time>2021-09-01T09:31:17Z</time><extensions><speed>1.207853</speed><course>322.533203</course><hAcc>0.856229</hAcc><vAcc>0.605544</vAcc></extensions></trkpt>
      <trkpt lon="-3.166751" lat="52.992667"><ele>269.704834</ele><time>2021-09-01T09:31:18Z</time><extensions><speed>1.220908</speed><course>322.533203</course><hAcc>0.857019</hAcc><vAcc>0.610157</vAcc></extensions></trkpt>
      <trkpt lon="-3.166768" lat="52.992671"><ele>269.501404</ele><time>2021-09-01T09:31:19Z</time><extensions><speed>1.234844</speed><course>322.533203</course><hAcc>0.857895</hAcc><vAcc>0.614760</vAcc></extensions></trkpt>
      <trkpt lon="-3.166784" lat="52.992677"><ele>269.299683</ele><time>2021-09-01T09:31:20Z</time><extensions><speed>1.249469</speed><course>322.533203</course><hAcc>0.858802</hAcc><vAcc>0.619102</vAcc></extensions></trkpt>
      <trkpt lon="-3.166800" lat="52.992682"><ele>269.100555</ele><time>2021-09-01T09:31:21Z</time><extensions><speed>1.265266</speed><course>310.635162</course><hAcc>0.859682</hAcc><vAcc>0.622990</vAcc></extensions></trkpt>
      <trkpt lon="-3.166817" lat="52.992688"><ele>268.904938</ele><time>2021-09-01T09:31:22Z</time><extensions><speed>1.282964</speed><course>317.610291</course><hAcc>0.860485</hAcc><vAcc>0.626295</vAcc></extensions></trkpt>
      <trkpt lon="-3.166833" lat="52.992694"><ele>268.713928</ele><time>2021-09-01T09:31:23Z</time><extensions><speed>1.302824</speed><course>306.125671</course><hAcc>0.861177</hAcc><vAcc>0.628965</vAcc></extensions></trkpt>
      <trkpt lon="-3.166850" lat="52.992700"><ele>268.528839</ele><time>2021-09-01T09:31:24Z</time><extensions><speed>1.324545</speed><course>318.134308</course><hAcc>0.861742</hAcc><vAcc>0.631013</vAcc></extensions></trkpt>
      <trkpt lon="-3.166866" lat="52.992707"><ele>268.351196</ele><time>2021-09-01T09:31:25Z</time><extensions><speed>1.347558</speed><course>310.926819</course><hAcc>0.862180</hAcc><vAcc>0.632508</vAcc></extensions></trkpt>
      <trkpt lon="-3.166883" lat="52.992714"><ele>268.182190</ele><time>2021-09-01T09:31:26Z</time><extensions><speed>1.371184</speed><course>312.939606</course><hAcc>0.862506</hAcc><vAcc>0.633553</vAcc></extensions></trkpt>
      <trkpt lon="-3.166899" lat="52.992721"><ele>268.022491</ele><time>2021-09-01T09:31:27Z</time><extensions><speed>1.394604</speed><course>305.606995</course><hAcc>0.862745</hAcc><vAcc>0.634270</vAcc></extensions></trkpt>
      <trkpt lon="-3.166916" lat="52.992729"><ele>267.872772</ele><time>2021-09-01T09:31:28Z</time><extensions><speed>1.417039</speed><course>302.541321</course><hAcc>0.862921</hAcc><vAcc>0.634775</vAcc></extensions></trkpt>
      <trkpt lon="-3.166933" lat="52.992736"><ele>267.733704</ele><time>2021-09-01T09:31:29Z</time><extensions><speed>1.437275</speed><course>303.802917</course><hAcc>0.863058</hAcc><vAcc>0.635162</vAcc></extensions></trkpt>
      <trkpt lon="-3.166950" lat="52.992744"><ele>267.605316</ele><time>2021-09-01T09:31:30Z</time><extensions><speed>1.453604</speed><course>300.395538</course><hAcc>0.863167</hAcc><vAcc>0.635480</vAcc></extensions></trkpt>
      <trkpt lon="-3.166967" lat="52.992753"><ele>267.486816</ele><time>2021-09-01T09:31:31Z</time><extensions><speed>1.464605</speed><course>303.076660</course><hAcc>0.863250</hAcc><vAcc>0.635742</vAcc></extensions></trkpt>
      <trkpt lon="-3.166984" lat="52.992761"><ele>267.377167</ele><time>2021-09-01T09:31:32Z</time><extensions><speed>1.469143</speed><course>301.521118</course><hAcc>0.863306</hAcc><vAcc>0.635934</vAcc></extensions></trkpt>
      <trkpt lon="-3.167001" lat="52.992769"><ele>267.275238</ele><time>2021-09-01T09:31:33Z</time><extensions><speed>1.467104</speed><course>315.953857</course><hAcc>0.863324</hAcc><vAcc>0.636025</vAcc></extensions></trkpt>
      <trkpt lon="-3.167018" lat="52.992777"><ele>267.179840</ele><time>2021-09-01T09:31:34Z</time><extensions><speed>1.459236</speed><course>321.613922</course><hAcc>0.863294</hAcc><vAcc>0.635971</vAcc></extensions></trkpt>
      <trkpt lon="-3.167035" lat="52.992786"><ele>267.089783</ele><time>2021-09-01T09:31:35Z</time><extensions><speed>1.446624</speed><course>320.530426</course><hAcc>0.863202</hAcc><vAcc>0.635727</vAcc></extensions></trkpt>
      <trkpt lon="-3.167052" lat="52.992794"><ele>267.004120</ele><time>2021-09-01T09:31:36Z</time><extensions><speed>1.430737</speed><course>319.105469</course><hAcc>0.863038</hAcc><vAcc>0.635248</vAcc></extensions></trkpt>
      <trkpt lon="-3.167068" lat="52.992802"><ele>266.922089</ele><time>2021-09-01T09:31:37Z</time><extensions><speed>1.413060</speed><course>320.005280</course><hAcc>0.862792</hAcc><vAcc>0.634506</vAcc></extensions></trkpt>
      <trkpt lon="-3.167084" lat="52.992810"><ele>266.842682</ele><time>2021-09-01T09:31:38Z</time><extensions><speed>1.394577</speed><course>320.540527</course><hAcc>0.862464</hAcc><vAcc>0.633490</vAcc></extensions></trkpt>
      <trkpt lon="-3.167100" lat="52.992818"><ele>266.765137</ele><time>2021-09-01T09:31:39Z</time><extensions><speed>1.375778</speed><course>316.635681</course><hAcc>0.862059</hAcc><vAcc>0.632216</vAcc></extensions></trkpt>
      <trkpt lon="-3.167116" lat="52.992826"><ele>266.689240</ele><time>2021-09-01T09:31:40Z</time><extensions><speed>1.357468</speed><course>319.322998</course><hAcc>0.861589</hAcc><vAcc>0.630724</vAcc></extensions></trkpt>
      <trkpt lon="-3.167132" lat="52.992833"><ele>266.615265</ele><time>2021-09-01T09:31:41Z</time><extensions><speed>1.340889</speed><course>319.244141</course><hAcc>0.861073</hAcc><vAcc>0.629077</vAcc></extensions></trkpt>
      <trkpt lon="-3.167147" lat="52.992841"><ele>266.542786</ele><time>2021-09-01T09:31:42Z</time><extensions><speed>1.326846</speed><course>315.425568</course><hAcc>0.860535</hAcc><vAcc>0.627351</vAcc></extensions></trkpt>
      <trkpt lon="-3.167162" lat="52.992848"><ele>266.470917</ele><time>2021-09-01T09:31:43Z</time><extensions><speed>1.315321</speed><course>318.059448</course><hAcc>0.860000</hAcc><vAcc>0.625634</vAcc></extensions></trkpt>
      <trkpt lon="-3.167177" lat="52.992856"><ele>266.398438</ele><time>2021-09-01T09:31:44Z</time><extensions><speed>1.306485</speed><course>318.243683</course><hAcc>0.859493</hAcc><vAcc>0.624008</vAcc></extensions></trkpt>
      <trkpt lon="-3.167192" lat="52.992863"><ele>266.324097</ele><time>2021-09-01T09:31:45Z</time><extensions><speed>1.300149</speed><course>319.840027</course><hAcc>0.859031</hAcc><vAcc>0.622533</vAcc></extensions></trkpt>
      <trkpt lon="-3.167207" lat="52.992871"><ele>266.246765</ele><time>2021-09-01T09:31:46Z</time><extensions><speed>1.295091</speed><course>320.630524</course><hAcc>0.858620</hAcc><vAcc>0.621230</vAcc></extensions></trkpt>
      <trkpt lon="-3.167222" lat="52.992878"><ele>266.165497</ele><time>2021-09-01T09:31:47Z</time><extensions><speed>1.290463</speed><course>318.435181</course><hAcc>0.858252</hAcc><vAcc>0.620075</vAcc></extensions></trkpt>
      <trkpt lon="-3.167237" lat="52.992885"><ele>266.078979</ele><time>2021-09-01T09:31:48Z</time><extensions><speed>1.286304</speed><course>313.959320</course><hAcc>0.857910</hAcc><vAcc>0.619011</vAcc></extensions></trkpt>
      <trkpt lon="-3.167252" lat="52.992893"><ele>265.985535</ele><time>2021-09-01T09:31:49Z</time><extensions><speed>1.283029</speed><course>314.005951</course><hAcc>0.857571</hAcc><vAcc>0.617963</vAcc></extensions></trkpt>
      <trkpt lon="-3.167266" lat="52.992900"><ele>265.883118</ele><time>2021-09-01T09:31:50Z</time><extensions><speed>1.280999</speed><course>315.776367</course><hAcc>0.857215</hAcc><vAcc>0.616860</vAcc></extensions></trkpt>
      <trkpt lon="-3.167281" lat="52.992907"><ele>265.770447</ele><time>2021-09-01T09:31:51Z</time><extensions><speed>1.280289</speed><course>317.643280</course><hAcc>0.856824</hAcc><vAcc>0.615644</vAcc></extensions></trkpt>
      <trkpt lon="-3.167296" lat="52.992915"><ele>265.647003</ele><time>2021-09-01T09:31:52Z</time><extensions><speed>1.281255</speed><course>316.187012</course><hAcc>0.856387</hAcc><vAcc>0.614273</vAcc></extensions></trkpt>
      <trkpt lon="-3.167311" lat="52.992922"><ele>265.512421</ele><time>2021-09-01T09:31:53Z</time><extensions><speed>1.284402</speed><course>313.238525</course><hAcc>0.855897</hAcc><vAcc>0.612713</vAcc></extensions></trkpt>
      <trkpt lon="-3.167326" lat="52.992929"><ele>265.366211</ele><time>2021-09-01T09:31:54Z</time><extensions><speed>1.289743</speed><course>309.102142</course><hAcc>0.855346</hAcc><vAcc>0.610931</vAcc></extensions></trkpt>
      <trkpt lon="-3.167341" lat="52.992936"><ele>265.207916</ele><time>2021-09-01T09:31:55Z</time><extensions><speed>1.296362</speed><course>313.839325</course><hAcc>0.854733</hAcc><vAcc>0.608912</vAcc></extensions></trkpt>
      <trkpt lon="-3.167356" lat="52.992943"><ele>265.037903</ele><time>2021-09-01T09:31:56Z</time><extensions><speed>1.303050</speed><course>315.040405</course><hAcc>0.854066</hAcc><vAcc>0.606660</vAcc></extensions></trkpt>
      <trkpt lon="-3.167371" lat="52.992951"><ele>264.857544</ele><time>2021-09-01T09:31:57Z</time><extensions><speed>1.308938</speed><course>315.010925</course><hAcc>0.853357</hAcc><vAcc>0.604199</vAcc></extensions></trkpt>
      <trkpt lon="-3.167387" lat="52.992958"><ele>264.668701</ele><time>2021-09-01T09:31:58Z</time><extensions><speed>1.313246</speed><course>312.357758</course><hAcc>0.852620</hAcc><vAcc>0.601558</vAcc></extensions></trkpt>
      <trkpt lon="-3.167402" lat="52.992965"><ele>264.473145</ele><time>2021-09-01T09:31:59Z</time><extensions><speed>1.315471</speed><course>316.888885</course><hAcc>0.851871</hAcc><vAcc>0.598775</vAcc></extensions></trkpt>
      <trkpt lon="-3.167418" lat="52.992972"><ele>264.272430</ele><time>2021-09-01T09:32:00Z</time><extensions><speed>1.315648</speed><course>320.096283</course><hAcc>0.851133</hAcc><vAcc>0.595916</vAcc></extensions></trkpt>
      <trkpt lon="-3.167433" lat="52.992980"><ele>264.067810</ele><time>2021-09-01T09:32:01Z</time><extensions><speed>1.314704</speed><course>330.452972</course><hAcc>0.850433</hAcc><vAcc>0.593085</vAcc></extensions></trkpt>
      <trkpt lon="-3.167448" lat="52.992987"><ele>263.861053</ele><time>2021-09-01T09:32:02Z</time><extensions><speed>1.314222</speed><course>325.892334</course><hAcc>0.849803</hAcc><vAcc>0.590416</vAcc></extensions></trkpt>
      <trkpt lon="-3.167463" lat="52.992995"><ele>263.655090</ele><time>2021-09-01T09:32:03Z</time><extensions><speed>1.315505</speed><course>323.150330</course><hAcc>0.849265</hAcc><vAcc>0.588041</vAcc></extensions></trkpt>
      <trkpt lon="-3.167477" lat="52.993003"><ele>263.453339</ele><time>2021-09-01T09:32:04Z</time><extensions><speed>1.319249</speed><course>318.355499</course><hAcc>0.848827</hAcc><vAcc>0.586064</vAcc></extensions></trkpt>
      <trkpt lon="-3.167491" lat="52.993011"><ele>263.258881</ele><time>2021-09-01T09:32:05Z</time><extensions><speed>1.325559</speed><course>319.900726</course><hAcc>0.848487</hAcc><vAcc>0.584557</vAcc></extensions></trkpt>
      <trkpt lon="-3.167506" lat="52.993020"><ele>263.074738</ele><time>2021-09-01T09:32:06Z</time><extensions><speed>1.333988</speed><course>327.705719</course><hAcc>0.848237</hAcc><vAcc>0.583559</vAcc></extensions></trkpt>
      <trkpt lon="-3.167519" lat="52.993028"><ele>262.903687</ele><time>2021-09-01T09:32:07Z</time><extensions><speed>1.343189</speed><course>325.864380</course><hAcc>0.848071</hAcc><vAcc>0.583073</vAcc></extensions></trkpt>
      <trkpt lon="-3.167533" lat="52.993037"><ele>262.747864</ele><time>2021-09-01T09:32:08Z</time><extensions><speed>1.351261</speed><course>316.016541</course><hAcc>0.847985</hAcc><vAcc>0.583070</vAcc></extensions></trkpt>
      <trkpt lon="-3.167546" lat="52.993046"><ele>262.608398</ele><time>2021-09-01T09:32:09Z</time><extensions><speed>1.356525</speed><course>317.886536</course><hAcc>0.847971</hAcc><vAcc>0.583484</vAcc></extensions></trkpt>
      <trkpt lon="-3.167560" lat="52.993055"><ele>262.485382</ele><time>2021-09-01T09:32:10Z</time><extensions><speed>1.358282</speed><course>327.267029</course><hAcc>0.848023</hAcc><vAcc>0.584219</vAcc></extensions></trkpt>
      <trkpt lon="-3.167573" lat="52.993065"><ele>262.378326</ele><time>2021-09-01T09:32:11Z</time><extensions><speed>1.356965</speed><course>326.251373</course><hAcc>0.848124</hAcc><vAcc>0.585141</vAcc></extensions></trkpt>
      <trkpt lon="-3.167586" lat="52.993074"><ele>262.286224</ele><time>2021-09-01T09:32:12Z</time><extensions><speed>1.353159</speed><course>330.160339</course><hAcc>0.848251</hAcc><vAcc>0.586096</vAcc></extensions></trkpt>
      <trkpt lon="-3.167599" lat="52.993083"><ele>262.207520</ele><time>2021-09-01T09:32:13Z</time><extensions><speed>1.347556</speed><course>329.350830</course><hAcc>0.848373</hAcc><vAcc>0.586940</vAcc></extensions></trkpt>
      <trkpt lon="-3.167612" lat="52.993092"><ele>262.140411</ele><time>2021-09-01T09:32:14Z</time><extensions><speed>1.341434</speed><course>328.046906</course><hAcc>0.848469</hAcc><vAcc>0.587578</vAcc></extensions></trkpt>
      <trkpt lon="-3.167625" lat="52.993102"><ele>262.083466</ele><time>2021-09-01T09:32:15Z</time><extensions><speed>1.336388</speed><course>328.036682</course><hAcc>0.848531</hAcc><vAcc>0.587974</vAcc></extensions></trkpt>
      <trkpt lon="-3.167638" lat="52.993111"><ele>262.036072</ele><time>2021-09-01T09:32:16Z</time><extensions><speed>1.333580</speed><course>328.321899</course><hAcc>0.848564</hAcc><vAcc>0.588155</vAcc></extensions></trkpt>
      <trkpt lon="-3.167651" lat="52.993120"><ele>261.997467</ele><time>2021-09-01T09:32:17Z</time><extensions><speed>1.333704</speed><course>326.366882</course><hAcc>0.848588</hAcc><vAcc>0.588201</vAcc></extensions></trkpt>
      <trkpt lon="-3.167663" lat="52.993129"><ele>261.966583</ele><time>2021-09-01T09:32:18Z</time><extensions><speed>1.337360</speed><course>331.362152</course><hAcc>0.848637</hAcc><vAcc>0.588246</vAcc></extensions></trkpt>
      <trkpt lon="-3.167676" lat="52.993138"><ele>261.941589</ele><time>2021-09-01T09:32:19Z</time><extensions><speed>1.344713</speed><course>329.394318</course><hAcc>0.848751</hAcc><vAcc>0.588463</vAcc></extensions></trkpt>
      <trkpt lon="-3.167689" lat="52.993148"><ele>261.919861</ele><time>2021-09-01T09:32:20Z</time><extensions><speed>1.354619</speed><course>332.464355</course><hAcc>0.848968</hAcc><vAcc>0.589025</vAcc></extensions></trkpt>
      <trkpt lon="-3.167702" lat="52.993157"><ele>261.897949</ele><time>2021-09-01T09:32:21Z</time><extensions><speed>1.365739</speed><course>335.973755</course><hAcc>0.849312</hAcc><vAcc>0.590065</vAcc></extensions></trkpt>
      <trkpt lon="-3.167716" lat="52.993166"><ele>261.872314</ele><time>2021-09-01T09:32:22Z</time><extensions><speed>1.377332</speed><course>334.588074</course><hAcc>0.849787</hAcc><vAcc>0.591649</vAcc></extensions></trkpt>
      <trkpt lon="-3.167729" lat="52.993176"><ele>261.840240</ele><time>2021-09-01T09:32:23Z</time><extensions><speed>1.388477</speed><course>337.558624</course><hAcc>0.850390</hAcc><vAcc>0.593765</vAcc></extensions></trkpt>
      <trkpt lon="-3.167743" lat="52.993185"><ele>261.800232</ele><time>2021-09-01T09:32:24Z</time><extensions><speed>1.397708</speed><course>337.377197</course><hAcc>0.851107</hAcc><vAcc>0.596321</vAcc></extensions></trkpt>
      <trkpt lon="-3.167757" lat="52.993194"><ele>261.751831</ele><time>2021-09-01T09:32:25Z</time><extensions><speed>1.403785</speed><course>334.236908</course><hAcc>0.851906</hAcc><vAcc>0.599160</vAcc></extensions></trkpt>
      <trkpt lon="-3.167771" lat="52.993204"><ele>261.695038</ele><time>2021-09-01T09:32:26Z</time><extensions><speed>1.406982</speed><course>333.116516</course><hAcc>0.852740</hAcc><vAcc>0.602097</vAcc></extensions></trkpt>
      <trkpt lon="-3.167785" lat="52.993213"><ele>261.630707</ele><time>2021-09-01T09:32:27Z</time><extensions><speed>1.408614</speed><course>331.193451</course><hAcc>0.853555</hAcc><vAcc>0.604931</vAcc></extensions></trkpt>
      <trkpt lon="-3.167799" lat="52.993223"><ele>261.560608</ele><time>2021-09-01T09:32:28Z</time><extensions><speed>1.408924</speed><course>327.071960</course><hAcc>0.854293</hAcc><vAcc>0.607468</vAcc></extensions></trkpt>
      <trkpt lon="-3.167813" lat="52.993232"><ele>261.486877</ele><time>2021-09-01T09:32:29Z</time><extensions><speed>1.406925</speed><course>323.969269</course><hAcc>0.854903</hAcc><vAcc>0.609538</vAcc></extensions></trkpt>
      <trkpt lon="-3.167827" lat="52.993241"><ele>261.411377</ele><time>2021-09-01T09:32:30Z</time><extensions><speed>1.401980</speed><course>325.035614</course><hAcc>0.855349</hAcc><vAcc>0.611032</vAcc></extensions></trkpt>
      <trkpt lon="-3.167841" lat="52.993251"><ele>261.335938</ele><time>2021-09-01T09:32:31Z</time><extensions><speed>1.394130</speed><course>325.080109</course><hAcc>0.855618</hAcc><vAcc>0.611919</vAcc></extensions></trkpt>
      <trkpt lon="-3.167854" lat="52.993260"><ele>261.262909</ele><time>2021-09-01T09:32:32Z</time><extensions><speed>1.383761</speed><course>320.596710</course><hAcc>0.855722</hAcc><vAcc>0.612244</vAcc></extensions></trkpt>
      <trkpt lon="-3.167867" lat="52.993270"><ele>261.194916</ele><time>2021-09-01T09:32:33Z</time><extensions><speed>1.371535</speed><course>325.164429</course><hAcc>0.855696</hAcc><vAcc>0.612127</vAcc></extensions></trkpt>
      <trkpt lon="-3.167880" lat="52.993279"><ele>261.134521</ele><time>2021-09-01T09:32:34Z</time><extensions><speed>1.358330</speed><course>323.691345</course><hAcc>0.855589</hAcc><vAcc>0.611736</vAcc></extensions></trkpt>
      <trkpt lon="-3.167893" lat="52.993289"><ele>261.083832</ele><time>2021-09-01T09:32:36Z</time><extensions><speed>1.344887</speed><course>332.829010</course><hAcc>0.855441</hAcc><vAcc>0.611248</vAcc></extensions></trkpt>
      <trkpt lon="-3.167904" lat="52.993299"><ele>261.044220</ele><time>2021-09-01T09:32:37Z</time><extensions><speed>1.331961</speed><course>333.287506</course><hAcc>0.855304</hAcc><vAcc>0.610834</vAcc></extensions></trkpt>
      <trkpt lon="-3.167916" lat="52.993308"><ele>261.016083</ele><time>2021-09-01T09:32:38Z</time><extensions><speed>1.320017</speed><course>320.664337</course><hAcc>0.855233</hAcc><vAcc>0.610625</vAcc></extensions></trkpt>
      <trkpt lon="-3.167927" lat="52.993318"><ele>260.999176</ele><time>2021-09-01T09:32:39Z</time><extensions><speed>1.308810</speed><course>319.581818</course><hAcc>0.855242</hAcc><vAcc>0.610674</vAcc></extensions></trkpt>
      <trkpt lon="-3.167938" lat="52.993328"><ele>260.993134</ele><time>2021-09-01T09:32:40Z</time><extensions><speed>1.298405</speed><course>320.113190</course><hAcc>0.855328</hAcc><vAcc>0.610972</vAcc></extensions></trkpt>
      <trkpt lon="-3.167948" lat="52.993338"><ele>260.997681</ele><time>2021-09-01T09:32:41Z</time><extensions><speed>1.289082</speed><course>325.625488</course><hAcc>0.855472</hAcc><vAcc>0.611461</vAcc></extensions></trkpt>
      <trkpt lon="-3.167958" lat="52.993347"><ele>261.012543</ele><time>2021-09-01T09:32:42Z</time><extensions><speed>1.281325</speed><course>320.008789</course><hAcc>0.855648</hAcc><vAcc>0.612049</vAcc></extensions></trkpt>
      <trkpt lon="-3.167968" lat="52.993357"><ele>261.036987</ele><time>2021-09-01T09:32:43Z</time><extensions><speed>1.275157</speed><course>318.909088</course><hAcc>0.855825</hAcc><vAcc>0.612650</vAcc></extensions></trkpt>
      <trkpt lon="-3.167978" lat="52.993367"><ele>261.069702</ele><time>2021-09-01T09:32:43Z</time><extensions><speed>1.269624</speed><course>323.298828</course><hAcc>0.856011</hAcc><vAcc>0.613237</vAcc></extensions></trkpt>
      <trkpt lon="-3.167988" lat="52.993377"><ele>261.109192</ele><time>2021-09-01T09:32:44Z</time><extensions><speed>1.264460</speed><course>319.843567</course><hAcc>0.856211</hAcc><vAcc>0.613832</vAcc></extensions></trkpt>
      <trkpt lon="-3.167997" lat="52.993386"><ele>261.153778</ele><time>2021-09-01T09:32:45Z</time><extensions><speed>1.260448</speed><course>314.311829</course><hAcc>0.856423</hAcc><vAcc>0.614476</vAcc></extensions></trkpt>
      <trkpt lon="-3.168007" lat="52.993396"><ele>261.201843</ele><time>2021-09-01T09:32:46Z</time><extensions><speed>1.258123</speed><course>319.089264</course><hAcc>0.856665</hAcc><vAcc>0.615229</vAcc></extensions></trkpt>
      <trkpt lon="-3.168017" lat="52.993406"><ele>261.251953</ele><time>2021-09-01T09:32:47Z</time><extensions><speed>1.257448</speed><course>322.114319</course><hAcc>0.856949</hAcc><vAcc>0.616126</vAcc></extensions></trkpt>
      <trkpt lon="-3.168027" lat="52.993415"><ele>261.302704</ele><time>2021-09-01T09:32:48Z</time><extensions><speed>1.258981</speed><course>313.771057</course><hAcc>0.857271</hAcc><vAcc>0.617150</vAcc></extensions></trkpt>
      <trkpt lon="-3.168038" lat="52.993424"><ele>261.352844</ele><time>2021-09-01T09:32:49Z</time><extensions><speed>1.263361</speed><course>306.383820</course><hAcc>0.857606</hAcc><vAcc>0.618218</vAcc></extensions></trkpt>
      <trkpt lon="-3.168048" lat="52.993434"><ele>261.401337</ele><time>2021-09-01T09:32:50Z</time><extensions><speed>1.270880</speed><course>308.594727</course><hAcc>0.857921</hAcc><vAcc>0.619220</vAcc></extensions></trkpt>
      <trkpt lon="-3.168059" lat="52.993443"><ele>261.447266</ele><time>2021-09-01T09:32:51Z</time><extensions><speed>1.281494</speed><course>313.438293</course><hAcc>0.858187</hAcc><vAcc>0.620058</vAcc></extensions></trkpt>
      <trkpt lon="-3.168070" lat="52.993453"><ele>261.490295</ele><time>2021-09-01T09:32:52Z</time><extensions><speed>1.294561</speed><course>315.261749</course><hAcc>0.858387</hAcc><vAcc>0.620678</vAcc></extensions></trkpt>
      <trkpt lon="-3.168081" lat="52.993463"><ele>261.530334</ele><time>2021-09-01T09:32:53Z</time><extensions><speed>1.309257</speed><course>314.962799</course><hAcc>0.858518</hAcc><vAcc>0.621067</vAcc></extensions></trkpt>
      <trkpt lon="-3.168092" lat="52.993472"><ele>261.567413</ele><time>2021-09-01T09:32:54Z</time><extensions><speed>1.325217</speed><course>311.864380</course><hAcc>0.858594</hAcc><vAcc>0.621273</vAcc></extensions></trkpt>
      <trkpt lon="-3.168103" lat="52.993482"><ele>261.602020</ele><time>2021-09-01T09:32:55Z</time><extensions><speed>1.342577</speed><course>305.555115</course><hAcc>0.858646</hAcc><vAcc>0.621399</vAcc></extensions></trkpt>
      <trkpt lon="-3.168114" lat="52.993493"><ele>261.635010</ele><time>2021-09-01T09:32:56Z</time><extensions><speed>1.361769</speed><course>309.414368</course><hAcc>0.858717</hAcc><vAcc>0.621589</vAcc></extensions></trkpt>
      <trkpt lon="-3.168125" lat="52.993503"><ele>261.667236</ele><time>2021-09-01T09:32:57Z</time><extensions><speed>1.383043</speed><course>312.426361</course><hAcc>0.858854</hAcc><vAcc>0.622000</vAcc></extensions></trkpt>
      <trkpt lon="-3.168135" lat="52.993514"><ele>261.699829</ele><time>2021-09-01T09:32:58Z</time><extensions><speed>1.405877</speed><course>315.779877</course><hAcc>0.859097</hAcc><vAcc>0.622764</vAcc></extensions></trkpt>
      <trkpt lon="-3.168146" lat="52.993525"><ele>261.733765</ele><time>2021-09-01T09:32:59Z</time><extensions><speed>1.429481</speed><course>309.393494</course><hAcc>0.859470</hAcc><vAcc>0.623956</vAcc></extensions></trkpt>
      <trkpt lon="-3.168157" lat="52.993536"><ele>261.769592</ele><time>2021-09-01T09:33:00Z</time><extensions><speed>1.453268</speed><course>315.161163</course><hAcc>0.859978</hAcc><vAcc>0.625590</vAcc></extensions></trkpt>
      <trkpt lon="-3.168167" lat="52.993547"><ele>261.808014</ele><time>2021-09-01T09:33:01Z</time><extensions><speed>1.476737</speed><course>313.978088</course><hAcc>0.860609</hAcc><vAcc>0.627627</vAcc></extensions></trkpt>
      <trkpt lon="-3.168178" lat="52.993559"><ele>261.849396</ele><time>2021-09-01T09:33:02Z</time><extensions><speed>1.498935</speed><course>310.683502</course><hAcc>0.861339</hAcc><vAcc>0.629978</vAcc></extensions></trkpt>
      <trkpt lon="-3.168188" lat="52.993571"><ele>261.893463</ele><time>2021-09-01T09:33:03Z</time><extensions><speed>1.518645</speed><course>311.301880</course><hAcc>0.862135</hAcc><vAcc>0.632529</vAcc></extensions></trkpt>
      <trkpt lon="-3.168199" lat="52.993583"><ele>261.939697</ele><time>2021-09-01T09:33:04Z</time><extensions><speed>1.534858</speed><course>311.208435</course><hAcc>0.862959</hAcc><vAcc>0.635157</vAcc></extensions></trkpt>
      <trkpt lon="-3.168209" lat="52.993596"><ele>261.987823</ele><time>2021-09-01T09:33:05Z</time><extensions><speed>1.546728</speed><course>309.569458</course><hAcc>0.863781</hAcc><vAcc>0.637752</vAcc></extensions></trkpt>
      <trkpt lon="-3.168219" lat="52.993608"><ele>262.037750</ele><time>2021-09-01T09:33:06Z</time><extensions><speed>1.554164</speed><course>310.187012</course><hAcc>0.864573</hAcc><vAcc>0.640229</vAcc></extensions></trkpt>
      <trkpt lon="-3.168229" lat="52.993621"><ele>262.089722</ele><time>2021-09-01T09:33:07Z</time><extensions><speed>1.558134</speed><course>310.459808</course><hAcc>0.865319</hAcc><vAcc>0.642537</vAcc></extensions></trkpt>
      <trkpt lon="-3.168240" lat="52.993633"><ele>262.144012</ele><time>2021-09-01T09:33:08Z</time><extensions><speed>1.559614</speed><course>310.191071</course><hAcc>0.866011</hAcc><vAcc>0.644660</vAcc></extensions></trkpt>
      <trkpt lon="-3.168250" lat="52.993646"><ele>262.200745</ele><time>2021-09-01T09:33:09Z</time><extensions><speed>1.558964</speed><course>313.202332</course><hAcc>0.866651</hAcc><vAcc>0.646613</vAcc></extensions></trkpt>
      <trkpt lon="-3.168260" lat="52.993658"><ele>262.259644</ele><time>2021-09-01T09:33:10Z</time><extensions><speed>1.556125</speed><course>317.375305</course><hAcc>0.867244</hAcc><vAcc>0.648428</vAcc></extensions></trkpt>
      <trkpt lon="-3.168271" lat="52.993671"><ele>262.320099</ele><time>2021-09-01T09:33:11Z</time><extensions><speed>1.550983</speed><course>320.965942</course><hAcc>0.867796</hAcc><vAcc>0.650130</vAcc></extensions></trkpt>
      <trkpt lon="-3.168281" lat="52.993683"><ele>262.381714</ele><time>2021-09-01T09:33:12Z</time><extensions><speed>1.543906</speed><course>318.335114</course><hAcc>0.868308</hAcc><vAcc>0.651730</vAcc></extensions></trkpt>
      <trkpt lon="-3.168291" lat="52.993696"><ele>262.444092</ele><time>2021-09-01T09:33:13Z</time><extensions><speed>1.535670</speed><course>322.780487</course><hAcc>0.868777</hAcc><vAcc>0.653215</vAcc></extensions></trkpt>
      <trkpt lon="-3.168302" lat="52.993708"><ele>262.506439</ele><time>2021-09-01T09:33:14Z</time><extensions><speed>1.526556</speed><course>321.324005</course><hAcc>0.869195</hAcc><vAcc>0.654559</vAcc></extensions></trkpt>
      <trkpt lon="-3.168312" lat="52.993720"><ele>262.567719</ele><time>2021-09-01T09:33:15Z</time><extensions><speed>1.515985</speed><course>322.516296</course><hAcc>0.869551</hAcc><vAcc>0.655726</vAcc></extensions></trkpt>
      <trkpt lon="-3.168323" lat="52.993732"><ele>262.627106</ele><time>2021-09-01T09:33:16Z</time><extensions><speed>1.503743</speed><course>319.995483</course><hAcc>0.869833</hAcc><vAcc>0.656676</vAcc></extensions></trkpt>
      <trkpt lon="-3.168333" lat="52.993744"><ele>262.683899</ele><time>2021-09-01T09:33:17Z</time><extensions><speed>1.489923</speed><course>324.182892</course><hAcc>0.870030</hAcc><vAcc>0.657364</vAcc></extensions></trkpt>
      <trkpt lon="-3.168344" lat="52.993756"><ele>262.737122</ele><time>2021-09-01T09:33:18Z</time><extensions><speed>1.474585</speed><course>328.616821</course><hAcc>0.870126</hAcc><vAcc>0.657744</vAcc></extensions></trkpt>
      <trkpt lon="-3.168355" lat="52.993767"><ele>262.786011</ele><time>2021-09-01T09:33:19Z</time><extensions><speed>1.457993</speed><course>324.016815</course><hAcc>0.870110</hAcc><vAcc>0.657769</vAcc></extensions></trkpt>
      <trkpt lon="-3.168365" lat="52.993778"><ele>262.830231</ele><time>2021-09-01T09:33:20Z</time><extensions><speed>1.440883</speed><course>329.825897</course><hAcc>0.869973</hAcc><vAcc>0.657397</vAcc></extensions></trkpt>
      <trkpt lon="-3.168376" lat="52.993790"><ele>262.869965</ele><time>2021-09-01T09:33:21Z</time><extensions><speed>1.424268</speed><course>327.868408</course><hAcc>0.869710</hAcc><vAcc>0.656602</vAcc></extensions></trkpt>
      <trkpt lon="-3.168386" lat="52.993801"><ele>262.905273</ele><time>2021-09-01T09:33:22Z</time><extensions><speed>1.409051</speed><course>336.001526</course><hAcc>0.869324</hAcc><vAcc>0.655385</vAcc></extensions></trkpt>
      <trkpt lon="-3.168397" lat="52.993812"><ele>262.936005</ele><time>2021-09-01T09:33:23Z</time><extensions><speed>1.396014</speed><course>319.189575</course><hAcc>0.868830</hAcc><vAcc>0.653789</vAcc></extensions></trkpt>
      <trkpt lon="-3.168408" lat="52.993822"><ele>262.962128</ele><time>2021-09-01T09:33:24Z</time><extensions><speed>1.385450</speed><course>314.045624</course><hAcc>0.868252</hAcc><vAcc>0.651893</vAcc></extensions></trkpt>
      <trkpt lon="-3.168418" lat="52.993833"><ele>262.983673</ele><time>2021-09-01T09:33:25Z</time><extensions><speed>1.377279</speed><course>316.798950</course><hAcc>0.867624</hAcc><vAcc>0.649813</vAcc></extensions></trkpt>
      <trkpt lon="-3.168429" lat="52.993844"><ele>263.000610</ele><time>2021-09-01T09:33:26Z</time><extensions><speed>1.371356</speed><course>316.381958</course><hAcc>0.866985</hAcc><vAcc>0.647687</vAcc></extensions></trkpt>
      <trkpt lon="-3.168439" lat="52.993854"><ele>263.012909</ele><time>2021-09-01T09:33:27Z</time><extensions><speed>1.367648</speed><course>324.109985</course><hAcc>0.866379</hAcc><vAcc>0.645663</vAcc></extensions></trkpt>
      <trkpt lon="-3.168449" lat="52.993865"><ele>263.020691</ele><time>2021-09-01T09:33:28Z</time><extensions><speed>1.365848</speed><course>319.248718</course><hAcc>0.865848</hAcc><vAcc>0.643893</vAcc></extensions></trkpt>
      <trkpt lon="-3.168460" lat="52.993875"><ele>263.024567</ele><time>2021-09-01T09:33:29Z</time><extensions><speed>1.365371</speed><course>322.755310</course><hAcc>0.865432</hAcc><vAcc>0.642513</vAcc></extensions></trkpt>
      <trkpt lon="-3.168470" lat="52.993886"><ele>263.025604</ele><time>2021-09-01T09:33:30Z</time><extensions><speed>1.365500</speed><course>326.625031</course><hAcc>0.865156</hAcc><vAcc>0.641619</vAcc></extensions></trkpt>
      <trkpt lon="-3.168480" lat="52.993897"><ele>263.024750</ele><time>2021-09-01T09:33:31Z</time><extensions><speed>1.365180</speed><course>328.024994</course><hAcc>0.865029</hAcc><vAcc>0.641236</vAcc></extensions></trkpt>
      <trkpt lon="-3.168490" lat="52.993907"><ele>263.022339</ele><time>2021-09-01T09:33:32Z</time><extensions><speed>1.364255</speed><course>332.378082</course><hAcc>0.865035</hAcc><vAcc>0.641309</vAcc></extensions></trkpt>
      <trkpt lon="-3.168499" lat="52.993918"><ele>263.018677</ele><time>2021-09-01T09:33:33Z</time><extensions><speed>1.363967</speed><course>332.526154</course><hAcc>0.865141</hAcc><vAcc>0.641721</vAcc></extensions></trkpt>
      <trkpt lon="-3.168509" lat="52.993929"><ele>263.014282</ele><time>2021-09-01T09:33:34Z</time><extensions><speed>1.364804</speed><course>335.486633</course><hAcc>0.865306</hAcc><vAcc>0.642315</vAcc></extensions></trkpt>
      <trkpt lon="-3.168518" lat="52.993940"><ele>263.009735</ele><time>2021-09-01T09:33:35Z</time><extensions><speed>1.366311</speed><course>336.016846</course><hAcc>0.865486</hAcc><vAcc>0.642938</vAcc></extensions></trkpt>
      <trkpt lon="-3.168527" lat="52.993951"><ele>263.005524</ele><time>2021-09-01T09:33:36Z</time><extensions><speed>1.368042</speed><course>334.888000</course><hAcc>0.865649</hAcc><vAcc>0.643484</vAcc></extensions></trkpt>
      <trkpt lon="-3.168536" lat="52.993962"><ele>263.001923</ele><time>2021-09-01T09:33:37Z</time><extensions><speed>1.369353</speed><course>333.393311</course><hAcc>0.865776</hAcc><vAcc>0.643901</vAcc></extensions></trkpt>
      <trkpt lon="-3.168544" lat="52.993973"><ele>262.999207</ele><time>2021-09-01T09:33:38Z</time><extensions><speed>1.369648</speed><course>318.935883</course><hAcc>0.865860</hAcc><vAcc>0.644175</vAcc></extensions></trkpt>
      <trkpt lon="-3.168552" lat="52.993984"><ele>262.998138</ele><time>2021-09-01T09:33:39Z</time><extensions><speed>1.368443</speed><course>311.891724</course><hAcc>0.865894</hAcc><vAcc>0.644294</vAcc></extensions></trkpt>
      <trkpt lon="-3.168561" lat="52.993996"><ele>263.000488</ele><time>2021-09-01T09:33:40Z</time><extensions><speed>1.365530</speed><course>312.578461</course><hAcc>0.865872</hAcc><vAcc>0.644241</vAcc></extensions></trkpt>
      <trkpt lon="-3.168568" lat="52.994007"><ele>263.007904</ele><time>2021-09-01T09:33:41Z</time><extensions><speed>1.361168</speed><course>320.602325</course><hAcc>0.865787</hAcc><vAcc>0.643985</vAcc></extensions></trkpt>
      <trkpt lon="-3.168576" lat="52.994018"><ele>263.021332</ele><time>2021-09-01T09:33:42Z</time><extensions><speed>1.355732</speed><course>323.639648</course><hAcc>0.865632</hAcc><vAcc>0.643492</vAcc></extensions></trkpt>
      <trkpt lon="-3.168584" lat="52.994030"><ele>263.041321</ele><time>2021-09-01T09:33:43Z</time><extensions><speed>1.349457</speed><course>325.641083</course><hAcc>0.865407</hAcc><vAcc>0.642757</vAcc></extensions></trkpt>
      <trkpt lon="-3.168591" lat="52.994041"><ele>263.068359</ele><time>2021-09-01T09:33:44Z</time><extensions><speed>1.342212</speed><course>324.286163</course><hAcc>0.865128</hAcc><vAcc>0.641827</vAcc></extensions></trkpt>
      <trkpt lon="-3.168598" lat="52.994052"><ele>263.102905</ele><time>2021-09-01T09:33:45Z</time><extensions><speed>1.333993</speed><course>330.884674</course><hAcc>0.864820</hAcc><vAcc>0.640792</vAcc></extensions></trkpt>
      <trkpt lon="-3.168605" lat="52.994063"><ele>263.144928</ele><time>2021-09-01T09:33:46Z</time><extensions><speed>1.325360</speed><course>342.591980</course><hAcc>0.864513</hAcc><vAcc>0.639760</vAcc></extensions></trkpt>
      <trkpt lon="-3.168612" lat="52.994074"><ele>263.193451</ele><time>2021-09-01T09:33:47Z</time><extensions><speed>1.317012</speed><course>340.473694</course><hAcc>0.864233</hAcc><vAcc>0.638830</vAcc></extensions></trkpt>
      <trkpt lon="-3.168619" lat="52.994085"><ele>263.247223</ele><time>2021-09-01T09:33:48Z</time><extensions><speed>1.309397</speed><course>337.459930</course><hAcc>0.864003</hAcc><vAcc>0.638076</vAcc></extensions></trkpt>
      <trkpt lon="-3.168626" lat="52.994096"><ele>263.305084</ele><time>2021-09-01T09:33:49Z</time><extensions><speed>1.302767</speed><course>334.977905</course><hAcc>0.863830</hAcc><vAcc>0.637523</vAcc></extensions></trkpt>
      <trkpt lon="-3.168632" lat="52.994107"><ele>263.365540</ele><time>2021-09-01T09:33:50Z</time><extensions><speed>1.297536</speed><course>334.909821</course><hAcc>0.863707</hAcc><vAcc>0.637142</vAcc></extensions></trkpt>
      <trkpt lon="-3.168639" lat="52.994118"><ele>263.426941</ele><time>2021-09-01T09:33:51Z</time><extensions><speed>1.293923</speed><course>335.401093</course><hAcc>0.863618</hAcc><vAcc>0.636876</vAcc></extensions></trkpt>
      <trkpt lon="-3.168645" lat="52.994129"><ele>263.487457</ele><time>2021-09-01T09:33:52Z</time><extensions><speed>1.292260</speed><course>335.416534</course><hAcc>0.863551</hAcc><vAcc>0.636671</vAcc></extensions></trkpt>
      <trkpt lon="-3.168651" lat="52.994140"><ele>263.545288</ele><time>2021-09-01T09:33:53Z</time><extensions><speed>1.292925</speed><course>333.502777</course><hAcc>0.863498</hAcc><vAcc>0.636507</vAcc></extensions></trkpt>
      <trkpt lon="-3.168657" lat="52.994151"><ele>263.598541</ele><time>2021-09-01T09:33:54Z</time><extensions><speed>1.295909</speed><course>334.704010</course><hAcc>0.863459</hAcc><vAcc>0.636386</vAcc></extensions></trkpt>
      <trkpt lon="-3.168663" lat="52.994163"><ele>263.645111</ele><time>2021-09-01T09:33:55Z</time><extensions><speed>1.301154</speed><course>336.400421</course><hAcc>0.863433</hAcc><vAcc>0.636308</vAcc></extensions></trkpt>
      <trkpt lon="-3.168668" lat="52.994174"><ele>263.683167</ele><time>2021-09-01T09:33:56Z</time><extensions><speed>1.308775</speed><course>347.265839</course><hAcc>0.863416</hAcc><vAcc>0.636264</vAcc></extensions></trkpt>
      <trkpt lon="-3.168673" lat="52.994185"><ele>263.711609</ele><time>2021-09-01T09:33:57Z</time><extensions><speed>1.319187</speed><course>344.062927</course><hAcc>0.863402</hAcc><vAcc>0.636228</vAcc></extensions></trkpt>
      <trkpt lon="-3.168678" lat="52.994197"><ele>263.730133</ele><time>2021-09-01T09:33:58Z</time><extensions><speed>1.332758</speed><course>337.032654</course><hAcc>0.863381</hAcc><vAcc>0.636168</vAcc></extensions></trkpt>
      <trkpt lon="-3.168682" lat="52.994209"><ele>263.738525</ele><time>2021-09-01T09:33:59Z</time><extensions><speed>1.349252</speed><course>338.548584</course><hAcc>0.863348</hAcc><vAcc>0.636061</vAcc></extensions></trkpt>
      <trkpt lon="-3.168686" lat="52.994221"><ele>263.736755</ele><time>2021-09-01T09:34:00Z</time><extensions><speed>1.367845</speed><course>340.790558</course><hAcc>0.863303</hAcc><vAcc>0.635908</vAcc></extensions></trkpt>
      <trkpt lon="-3.168690" lat="52.994233"><ele>263.725250</ele><time>2021-09-01T09:34:01Z</time><extensions><speed>1.387137</speed><course>331.528198</course><hAcc>0.863253</hAcc><vAcc>0.635734</vAcc></extensions></trkpt>
      <trkpt lon="-3.168694" lat="52.994245"><ele>263.704620</ele><time>2021-09-01T09:34:02Z</time><extensions><speed>1.405609</speed><course>326.705475</course><hAcc>0.863210</hAcc><vAcc>0.635580</vAcc></extensions></trkpt>
      <trkpt lon="-3.168698" lat="52.994258"><ele>263.675629</ele><time>2021-09-01T09:34:03Z</time><extensions><speed>1.422165</speed><course>334.332062</course><hAcc>0.863188</hAcc><vAcc>0.635493</vAcc></extensions></trkpt>
      <trkpt lon="-3.168701" lat="52.994270"><ele>263.639069</ele><time>2021-09-01T09:34:04Z</time><extensions><speed>1.436200</speed><course>321.684448</course><hAcc>0.863201</hAcc><vAcc>0.635518</vAcc></extensions></trkpt>
      <trkpt lon="-3.168704" lat="52.994283"><ele>263.595917</ele><time>2021-09-01T09:34:05Z</time><extensions><speed>1.447775</speed><course>319.446838</course><hAcc>0.863256</hAcc><vAcc>0.635686</vAcc></extensions></trkpt>
      <trkpt lon="-3.168708" lat="52.994296"><ele>263.547791</ele><time>2021-09-01T09:34:06Z</time><extensions><speed>1.455989</speed><course>327.299927</course><hAcc>0.863356</hAcc><vAcc>0.635999</vAcc></extensions></trkpt>
      <trkpt lon="-3.168711" lat="52.994309"><ele>263.496826</ele><time>2021-09-01T09:34:07Z</time><extensions><speed>1.459452</speed><course>327.362518</course><hAcc>0.863502</hAcc><vAcc>0.636456</vAcc></extensions></trkpt>
      <trkpt lon="-3.168715" lat="52.994322"><ele>263.444977</ele><time>2021-09-01T09:34:08Z</time><extensions><speed>1.457911</speed><course>320.449799</course><hAcc>0.863695</hAcc><vAcc>0.637059</vAcc></extensions></trkpt>
      <trkpt lon="-3.168718" lat="52.994335"><ele>263.393585</ele><time>2021-09-01T09:34:09Z</time><extensions><speed>1.451638</speed><course>323.666901</course><hAcc>0.863939</hAcc><vAcc>0.637824</vAcc></extensions></trkpt>
      <trkpt lon="-3.168721" lat="52.994348"><ele>263.343811</ele><time>2021-09-01T09:34:10Z</time><extensions><speed>1.441298</speed><course>325.310486</course><hAcc>0.864247</hAcc><vAcc>0.638792</vAcc></extensions></trkpt>
      <trkpt lon="-3.168724" lat="52.994360"><ele>263.297241</ele><time>2021-09-01T09:34:11Z</time><extensions><speed>1.427867</speed><course>323.024933</course><hAcc>0.864630</hAcc><vAcc>0.640014</vAcc></extensions></trkpt>
      <trkpt lon="-3.168727" lat="52.994373"><ele>263.255554</ele><time>2021-09-01T09:34:12Z</time><extensions><speed>1.412585</speed><course>321.641022</course><hAcc>0.865097</hAcc><vAcc>0.641518</vAcc></extensions></trkpt>
      <trkpt lon="-3.168730" lat="52.994385"><ele>263.219788</ele><time>2021-09-01T09:34:13Z</time><extensions><speed>1.396868</speed><course>323.471222</course><hAcc>0.865646</hAcc><vAcc>0.643297</vAcc></extensions></trkpt>
      <trkpt lon="-3.168733" lat="52.994398"><ele>263.190033</ele><time>2021-09-01T09:34:14Z</time><extensions><speed>1.381761</speed><course>324.875793</course><hAcc>0.866263</hAcc><vAcc>0.645301</vAcc></extensions></trkpt>
      <trkpt lon="-3.168736" lat="52.994410"><ele>263.166168</ele><time>2021-09-01T09:34:15Z</time><extensions><speed>1.367752</speed><course>318.989594</course><hAcc>0.866926</hAcc><vAcc>0.647446</vAcc></extensions></trkpt>
      <trkpt lon="-3.168739" lat="52.994422"><ele>263.147888</ele><time>2021-09-01T09:34:16Z</time><extensions><speed>1.355158</speed><course>325.887390</course><hAcc>0.867609</hAcc><vAcc>0.649636</vAcc></extensions></trkpt>
      <trkpt lon="-3.168742" lat="52.994434"><ele>263.134705</ele><time>2021-09-01T09:34:17Z</time><extensions><speed>1.344568</speed><course>320.176544</course><hAcc>0.868290</hAcc><vAcc>0.651790</vAcc></extensions></trkpt>
      <trkpt lon="-3.168744" lat="52.994446"><ele>263.126068</ele><time>2021-09-01T09:34:18Z</time><extensions><speed>1.336895</speed><course>316.970215</course><hAcc>0.868954</hAcc><vAcc>0.653861</vAcc></extensions></trkpt>
      <trkpt lon="-3.168746" lat="52.994458"><ele>263.121979</ele><time>2021-09-01T09:34:19Z</time><extensions><speed>1.333001</speed><course>317.579376</course><hAcc>0.869595</hAcc><vAcc>0.655835</vAcc></extensions></trkpt>
      <trkpt lon="-3.168749" lat="52.994470"><ele>263.122498</ele><time>2021-09-01T09:34:20Z</time><extensions><speed>1.333012</speed><course>318.426422</course><hAcc>0.870216</hAcc><vAcc>0.657731</vAcc></extensions></trkpt>
      <trkpt lon="-3.168751" lat="52.994482"><ele>263.127563</ele><time>2021-09-01T09:34:21Z</time><extensions><speed>1.336181</speed><course>326.252594</course><hAcc>0.870820</hAcc><vAcc>0.659581</vAcc></extensions></trkpt>
      <trkpt lon="-3.168753" lat="52.994494"><ele>263.136749</ele><time>2021-09-01T09:34:22Z</time><extensions><speed>1.341290</speed><course>323.145020</course><hAcc>0.871413</hAcc><vAcc>0.661407</vAcc></extensions></trkpt>
      <trkpt lon="-3.168756" lat="52.994506"><ele>263.149902</ele><time>2021-09-01T09:34:23Z</time><extensions><speed>1.347292</speed><course>325.683777</course><hAcc>0.871998</hAcc><vAcc>0.663222</vAcc></extensions></trkpt>
      <trkpt lon="-3.168758" lat="52.994518"><ele>263.166962</ele><time>2021-09-01T09:34:24Z</time><extensions><speed>1.353644</speed><course>328.591705</course><hAcc>0.872574</hAcc><vAcc>0.665025</vAcc></extensions></trkpt>
      <trkpt lon="-3.168760" lat="52.994530"><ele>263.187622</ele><time>2021-09-01T09:34:25Z</time><extensions><speed>1.360593</speed><course>330.002411</course><hAcc>0.873138</hAcc><vAcc>0.666812</vAcc></extensions></trkpt>
      <trkpt lon="-3.168762" lat="52.994542"><ele>263.211304</ele><time>2021-09-01T09:34:26Z</time><extensions><speed>1.367931</speed><course>336.475830</course><hAcc>0.873687</hAcc><vAcc>0.668567</vAcc></extensions></trkpt>
      <trkpt lon="-3.168764" lat="52.994554"><ele>263.237610</ele><time>2021-09-01T09:34:27Z</time><extensions><speed>1.374762</speed><course>344.051849</course><hAcc>0.874212</hAcc><vAcc>0.670263</vAcc></extensions></trkpt>
      <trkpt lon="-3.168765" lat="52.994567"><ele>263.266174</ele><time>2021-09-01T09:34:28Z</time><extensions><speed>1.380596</speed><course>336.407532</course><hAcc>0.874702</hAcc><vAcc>0.671865</vAcc></extensions></trkpt>
      <trkpt lon="-3.168767" lat="52.994579"><ele>263.296631</ele><time>2021-09-01T09:34:29Z</time><extensions><speed>1.384893</speed><course>333.640045</course><hAcc>0.875145</hAcc><vAcc>0.673332</vAcc></extensions></trkpt>
      <trkpt lon="-3.168768" lat="52.994592"><ele>263.328400</ele><time>2021-09-01T09:34:30Z</time><extensions><speed>1.386934</speed><course>342.498993</course><hAcc>0.875527</hAcc><vAcc>0.674620</vAcc></extensions></trkpt>
      <trkpt lon="-3.168770" lat="52.994604"><ele>263.360901</ele><time>2021-09-01T09:34:31Z</time><extensions><speed>1.386143</speed><course>346.370605</course><hAcc>0.875833</hAcc><vAcc>0.675680</vAcc></extensions></trkpt>
      <trkpt lon="-3.168771" lat="52.994616"><ele>263.393707</ele><time>2021-09-01T09:34:32Z</time><extensions><speed>1.382633</speed><course>342.144836</course><hAcc>0.876048</hAcc><vAcc>0.676458</vAcc></extensions></trkpt>
      <trkpt lon="-3.168772" lat="52.994629"><ele>263.426086</ele><time>2021-09-01T09:34:33Z</time><extensions><speed>1.377141</speed><course>335.813446</course><hAcc>0.876157</hAcc><vAcc>0.676892</vAcc></extensions></trkpt>
      <trkpt lon="-3.168773" lat="52.994641"><ele>263.457153</ele><time>2021-09-01T09:34:34Z</time><extensions><speed>1.370369</speed><course>332.699371</course><hAcc>0.876146</hAcc><vAcc>0.676929</vAcc></extensions></trkpt>
      <trkpt lon="-3.168774" lat="52.994653"><ele>263.486481</ele><time>2021-09-01T09:34:35Z</time><extensions><speed>1.362677</speed><course>329.959167</course><hAcc>0.876008</hAcc><vAcc>0.676530</vAcc></extensions></trkpt>
      <trkpt lon="-3.168774" lat="52.994666"><ele>263.514313</ele><time>2021-09-01T09:34:36Z</time><extensions><speed>1.354372</speed><course>328.573547</course><hAcc>0.875739</hAcc><vAcc>0.675675</vAcc></extensions></trkpt>
      <trkpt lon="-3.168775" lat="52.994678"><ele>263.541382</ele><time>2021-09-01T09:34:37Z</time><extensions><speed>1.346149</speed><course>326.699219</course><hAcc>0.875341</hAcc><vAcc>0.674376</vAcc></extensions></trkpt>
      <trkpt lon="-3.168775" lat="52.994690"><ele>263.568268</ele><time>2021-09-01T09:34:38Z</time><extensions><speed>1.338967</speed><course>323.768890</course><hAcc>0.874827</hAcc><vAcc>0.672674</vAcc></extensions></trkpt>
      <trkpt lon="-3.168776" lat="52.994702"><ele>263.595093</ele><time>2021-09-01T09:34:39Z</time><extensions><speed>1.333836</speed><course>323.826019</course><hAcc>0.874211</hAcc><vAcc>0.670628</vAcc></extensions></trkpt>
      <trkpt lon="-3.168776" lat="52.994714"><ele>263.621643</ele><time>2021-09-01T09:34:40Z</time><extensions><speed>1.331902</speed><course>332.271057</course><hAcc>0.873516</hAcc><vAcc>0.668305</vAcc></extensions></trkpt>
      <trkpt lon="-3.168777" lat="52.994726"><ele>263.647308</ele><time>2021-09-01T09:34:42Z</time><extensions><speed>1.333933</speed><course>333.951233</course><hAcc>0.872747</hAcc><vAcc>0.665777</vAcc></extensions></trkpt>
      <trkpt lon="-3.168777" lat="52.994738"><ele>263.671356</ele><time>2021-09-01T09:34:43Z</time><extensions><speed>1.340085</speed><course>329.776917</course><hAcc>0.871939</hAcc><vAcc>0.663150</vAcc></extensions></trkpt>
      <trkpt lon="-3.168777" lat="52.994750"><ele>263.690460</ele><time>2021-09-01T09:34:44Z</time><extensions><speed>1.349813</speed><course>-1.000000</course><hAcc>0.871134</hAcc><vAcc>0.660529</vAcc></extensions></trkpt>
      <trkpt lon="-3.168777" lat="52.994762"><ele>263.710205</ele><time>2021-09-01T09:34:45Z</time><extensions><speed>1.364814</speed><course>-1.000000</course><hAcc>0.870371</hAcc><vAcc>0.658038</vAcc></extensions></trkpt>
      <trkpt lon="-3.168777" lat="52.994774"><ele>263.727448</ele><time>2021-09-01T09:34:46Z</time><extensions><speed>1.384420</speed><course>-1.000000</course><hAcc>0.869681</hAcc><vAcc>0.655789</vAcc></extensions></trkpt>
      <trkpt lon="-3.168777" lat="52.994787"><ele>263.742340</ele><time>2021-09-01T09:34:47Z</time><extensions><speed>1.407842</speed><course>-1.000000</course><hAcc>0.869092</hAcc><vAcc>0.653889</vAcc></extensions></trkpt>
      <trkpt lon="-3.168777" lat="52.994800"><ele>263.755188</ele><time>2021-09-01T09:34:47Z</time><extensions><speed>1.434043</speed><course>-1.000000</course><hAcc>0.868649</hAcc><vAcc>0.652449</vAcc></extensions></trkpt>
      <trkpt lon="-3.168776" lat="52.994813"><ele>263.766541</ele><time>2021-09-01T09:34:48Z</time><extensions><speed>1.461989</speed><course>-1.000000</course><hAcc>0.868373</hAcc><vAcc>0.651545</vAcc></extensions></trkpt>
      <trkpt lon="-3.168775" lat="52.994826"><ele>263.777069</ele><time>2021-09-01T09:34:49Z</time><extensions><speed>1.489110</speed><course>-1.000000</course><hAcc>0.868255</hAcc><vAcc>0.651203</vAcc></extensions></trkpt>
      <trkpt lon="-3.168774" lat="52.994839"><ele>263.787384</ele><time>2021-09-01T09:34:50Z</time><extensions><speed>1.512062</speed><course>-1.000000</course><hAcc>0.868287</hAcc><vAcc>0.651399</vAcc></extensions></trkpt>
      <trkpt lon="-3.168773" lat="52.994853"><ele>263.797913</ele><time>2021-09-01T09:34:51Z</time><extensions><speed>1.528681</speed><course>-1.000000</course><hAcc>0.868442</hAcc><vAcc>0.652030</vAcc></extensions></trkpt>
      <trkpt lon="-3.168772" lat="52.994867"><ele>263.809204</ele><time>2021-09-01T09:34:52Z</time><extensions><speed>1.537829</speed><course>-1.000000</course><hAcc>0.868674</hAcc><vAcc>0.652927</vAcc></extensions></trkpt>
      <trkpt lon="-3.168771" lat="52.994881"><ele>263.821777</ele><time>2021-09-01T09:34:53Z</time><extensions><speed>1.539587</speed><course>-1.000000</course><hAcc>0.868929</hAcc><vAcc>0.653892</vAcc></extensions></trkpt>
      <trkpt lon="-3.168769" lat="52.994894"><ele>263.835999</ele><time>2021-09-01T09:34:54Z</time><extensions><speed>1.535436</speed><course>-1.000000</course><hAcc>0.869158</hAcc><vAcc>0.654739</vAcc></extensions></trkpt>
      <trkpt lon="-3.168768" lat="52.994908"><ele>263.851593</ele><time>2021-09-01T09:34:55Z</time><extensions><speed>1.527489</speed><course>-1.000000</course><hAcc>0.869318</hAcc><vAcc>0.655327</vAcc></extensions></trkpt>
      <trkpt lon="-3.168767" lat="52.994922"><ele>263.867737</ele><time>2021-09-01T09:34:56Z</time><extensions><speed>1.517493</speed><course>116.725777</course><hAcc>0.869382</hAcc><vAcc>0.655563</vAcc></extensions></trkpt>
      <trkpt lon="-3.168766" lat="52.994935"><ele>263.883728</ele><time>2021-09-01T09:34:57Z</time><extensions><speed>1.506406</speed><course>116.725777</course><hAcc>0.869336</hAcc><vAcc>0.655402</vAcc></extensions></trkpt>
      <trkpt lon="-3.168765" lat="52.994949"><ele>263.899078</ele><time>2021-09-01T09:34:58Z</time><extensions><speed>1.495734</speed><course>116.725777</course><hAcc>0.869178</hAcc><vAcc>0.654844</vAcc></extensions></trkpt>
      <trkpt lon="-3.168765" lat="52.994962"><ele>263.913330</ele><time>2021-09-01T09:34:59Z</time><extensions><speed>1.486739</speed><course>116.725777</course><hAcc>0.868919</hAcc><vAcc>0.653937</vAcc></extensions></trkpt>
      <trkpt lon="-3.168764" lat="52.994976"><ele>263.925568</ele><time>2021-09-01T09:35:00Z</time><extensions><speed>1.479357</speed><course>116.725777</course><hAcc>0.868580</hAcc><vAcc>0.652760</vAcc></extensions></trkpt>
      <trkpt lon="-3.168764" lat="52.994989"><ele>263.934631</ele><time>2021-09-01T09:35:01Z</time><extensions><speed>1.473517</speed><course>116.725784</course><hAcc>0.868189</hAcc><vAcc>0.651412</vAcc></extensions></trkpt>
      <trkpt lon="-3.168764" lat="52.995002"><ele>263.939423</ele><time>2021-09-01T09:35:02Z</time><extensions><speed>1.469673</speed><course>116.725784</course><hAcc>0.867779</hAcc><vAcc>0.650010</vAcc></extensions></trkpt>
      <trkpt lon="-3.168763" lat="52.995015"><ele>263.939148</ele><time>2021-09-01T09:35:03Z</time><extensions><speed>1.468238</speed><course>116.725784</course><hAcc>0.867383</hAcc><vAcc>0.648663</vAcc></extensions></trkpt>
      <trkpt lon="-3.168763" lat="52.995028"><ele>263.933258</ele><time>2021-09-01T09:35:04Z</time><extensions><speed>1.469338</speed><course>116.725784</course><hAcc>0.867030</hAcc><vAcc>0.647465</vAcc></extensions></trkpt>
      <trkpt lon="-3.168763" lat="52.995042"><ele>263.921112</ele><time>2021-09-01T09:35:05Z</time><extensions><speed>1.472955</speed><course>116.725784</course><hAcc>0.866744</hAcc><vAcc>0.646494</vAcc></extensions></trkpt>
      <trkpt lon="-3.168763" lat="52.995055"><ele>263.902313</ele><time>2021-09-01T09:35:06Z</time><extensions><speed>1.478764</speed><course>116.725784</course><hAcc>0.866550</hAcc><vAcc>0.645830</vAcc></extensions></trkpt>
      <trkpt lon="-3.168762" lat="52.995068"><ele>263.876892</ele><time>2021-09-01T09:35:07Z</time><extensions><speed>1.486486</speed><course>116.725784</course><hAcc>0.866471</hAcc><vAcc>0.645541</vAcc></extensions></trkpt>
      <trkpt lon="-3.168762" lat="52.995082"><ele>263.845154</ele><time>2021-09-01T09:35:08Z</time><extensions><speed>1.495992</speed><course>116.725784</course><hAcc>0.866524</hAcc><vAcc>0.645691</vAcc></extensions></trkpt>
      <trkpt lon="-3.168761" lat="52.995095"><ele>263.807373</ele><time>2021-09-01T09:35:09Z</time><extensions><speed>1.506611</speed><course>116.725784</course><hAcc>0.866722</hAcc><vAcc>0.646325</vAcc></extensions></trkpt>
      <trkpt lon="-3.168760" lat="52.995109"><ele>263.763611</ele><time>2021-09-01T09:35:10Z</time><extensions><speed>1.517629</speed><course>116.725784</course><hAcc>0.867072</hAcc><vAcc>0.647460</vAcc></extensions></trkpt>
      <trkpt lon="-3.168759" lat="52.995122"><ele>263.714142</ele><time>2021-09-01T09:35:11Z</time><extensions><speed>1.528404</speed><course>116.725784</course><hAcc>0.867566</hAcc><vAcc>0.649082</vAcc></extensions></trkpt>
      <trkpt lon="-3.168758" lat="52.995136"><ele>263.659454</ele><time>2021-09-01T09:35:12Z</time><extensions><speed>1.538151</speed><course>116.725784</course><hAcc>0.868194</hAcc><vAcc>0.651150</vAcc></extensions></trkpt>
      <trkpt lon="-3.168756" lat="52.995150"><ele>263.600067</ele><time>2021-09-01T09:35:13Z</time><extensions><speed>1.546023</speed><course>116.725784</course><hAcc>0.868937</hAcc><vAcc>0.653609</vAcc></extensions></trkpt>
      <trkpt lon="-3.168755" lat="52.995164"><ele>263.536346</ele><time>2021-09-01T09:35:14Z</time><extensions><speed>1.550629</speed><course>116.725784</course><hAcc>0.869772</hAcc><vAcc>0.656381</vAcc></extensions></trkpt>
      <trkpt lon="-3.168753" lat="52.995178"><ele>263.468628</ele><time>2021-09-01T09:35:15Z</time><extensions><speed>1.550885</speed><course>116.725784</course><hAcc>0.870669</hAcc><vAcc>0.659370</vAcc></extensions></trkpt>
      <trkpt lon="-3.168751" lat="52.995192"><ele>263.397736</ele><time>2021-09-01T09:35:16Z</time><extensions><speed>1.546640</speed><course>116.725784</course><hAcc>0.871592</hAcc><vAcc>0.662449</vAcc></extensions></trkpt>
      <trkpt lon="-3.168749" lat="52.995205"><ele>263.324677</ele><time>2021-09-01T09:35:17Z</time><extensions><speed>1.538194</speed><course>116.725784</course><hAcc>0.872502</hAcc><vAcc>0.665478</vAcc></extensions></trkpt>
      <trkpt lon="-3.168746" lat="52.995219"><ele>263.249939</ele><time>2021-09-01T09:35:18Z</time><extensions><speed>1.526458</speed><course>116.725777</course><hAcc>0.873359</hAcc><vAcc>0.668317</vAcc></extensions></trkpt>
      <trkpt lon="-3.168744" lat="52.995233"><ele>263.173676</ele><time>2021-09-01T09:35:19Z</time><extensions><speed>1.512822</speed><course>116.725769</course><hAcc>0.874128</hAcc><vAcc>0.670839</vAcc></extensions></trkpt>
      <trkpt lon="-3.168742" lat="52.995246"><ele>263.095825</ele><time>2021-09-01T09:35:20Z</time><extensions><speed>1.498226</speed><course>116.725769</course><hAcc>0.874779</hAcc><vAcc>0.672944</vAcc></extensions></trkpt>
      <trkpt lon="-3.168740" lat="52.995260"><ele>263.016724</ele><time>2021-09-01T09:35:21Z</time><extensions><speed>1.483154</speed><course>116.725761</course><hAcc>0.875292</hAcc><vAcc>0.674564</vAcc></extensions></trkpt>
      <trkpt lon="-3.168739" lat="52.995273"><ele>262.936920</ele><time>2021-09-01T09:35:22Z</time><extensions><speed>1.467902</speed><course>116.725754</course><hAcc>0.875656</hAcc><vAcc>0.675668</vAcc></extensions></trkpt>
      <trkpt lon="-3.168737" lat="52.995286"><ele>262.857605</ele><time>2021-09-01T09:35:23Z</time><extensions><speed>1.452361</speed><course>116.725746</course><hAcc>0.875866</hAcc><vAcc>0.676254</vAcc></extensions></trkpt>
      <trkpt lon="-3.168736" lat="52.995299"><ele>262.780396</ele><time>2021-09-01T09:35:24Z</time><extensions><speed>1.437045</speed><course>116.725746</course><hAcc>0.875926</hAcc><vAcc>0.676346</vAcc></extensions></trkpt>
      <trkpt lon="-3.168734" lat="52.995312"><ele>262.706451</ele><time>2021-09-01T09:35:25Z</time><extensions><speed>1.423108</speed><course>116.725731</course><hAcc>0.875849</hAcc><vAcc>0.675987</vAcc></extensions></trkpt>
      <trkpt lon="-3.168733" lat="52.995324"><ele>262.636292</ele><time>2021-09-01T09:35:26Z</time><extensions><speed>1.411231</speed><course>116.725723</course><hAcc>0.875648</hAcc><vAcc>0.675237</vAcc></extensions></trkpt>
      <trkpt lon="-3.168731" lat="52.995337"><ele>262.570099</ele><time>2021-09-01T09:35:27Z</time><extensions><speed>1.401698</speed><course>116.725723</course><hAcc>0.875345</hAcc><vAcc>0.674161</vAcc></extensions></trkpt>
      <trkpt lon="-3.168730" lat="52.995349"><ele>262.507812</ele><time>2021-09-01T09:35:28Z</time><extensions><speed>1.394422</speed><course>116.725708</course><hAcc>0.874962</hAcc><vAcc>0.672832</vAcc></extensions></trkpt>
      <trkpt lon="-3.168728" lat="52.995362"><ele>262.449280</ele><time>2021-09-01T09:35:29Z</time><extensions><speed>1.389180</speed><course>116.725700</course><hAcc>0.874521</hAcc><vAcc>0.671319</vAcc></extensions></trkpt>
      <trkpt lon="-3.168726" lat="52.995374"><ele>262.394867</ele><time>2021-09-01T09:35:30Z</time><extensions><speed>1.385932</speed><course>116.725693</course><hAcc>0.874047</hAcc><vAcc>0.669696</vAcc></extensions></trkpt>
      <trkpt lon="-3.168725" lat="52.995387"><ele>262.345093</ele><time>2021-09-01T09:35:31Z</time><extensions><speed>1.384825</speed><course>116.725685</course><hAcc>0.873565</hAcc><vAcc>0.668047</vAcc></extensions></trkpt>
      <trkpt lon="-3.168722" lat="52.995399"><ele>262.300079</ele><time>2021-09-01T09:35:32Z</time><extensions><speed>1.386153</speed><course>116.725670</course><hAcc>0.873098</hAcc><vAcc>0.666461</vAcc></extensions></trkpt>
      <trkpt lon="-3.168720" lat="52.995411"><ele>262.259399</ele><time>2021-09-01T09:35:33Z</time><extensions><speed>1.389583</speed><course>116.725670</course><hAcc>0.872667</hAcc><vAcc>0.665008</vAcc></extensions></trkpt>
      <trkpt lon="-3.168717" lat="52.995424"><ele>262.222168</ele><time>2021-09-01T09:35:34Z</time><extensions><speed>1.394521</speed><course>116.725662</course><hAcc>0.872281</hAcc><vAcc>0.663736</vAcc></extensions></trkpt>
      <trkpt lon="-3.168714" lat="52.995436"><ele>262.187958</ele><time>2021-09-01T09:35:35Z</time><extensions><speed>1.400824</speed><course>316.510925</course><hAcc>0.871945</hAcc><vAcc>0.662673</vAcc></extensions></trkpt>
      <trkpt lon="-3.168711" lat="52.995449"><ele>262.156769</ele><time>2021-09-01T09:35:36Z</time><extensions><speed>1.408013</speed><course>325.771881</course><hAcc>0.871656</hAcc><vAcc>0.661823</vAcc></extensions></trkpt>
      <trkpt lon="-3.168707" lat="52.995461"><ele>262.128784</ele><time>2021-09-01T09:35:37Z</time><extensions><speed>1.415023</speed><course>329.412018</course><hAcc>0.871399</hAcc><vAcc>0.661144</vAcc></extensions></trkpt>
      <trkpt lon="-3.168703" lat="52.995474"><ele>262.104004</ele><time>2021-09-01T09:35:38Z</time><extensions><speed>1.421045</speed><course>328.807678</course><hAcc>0.871143</hAcc><vAcc>0.660540</vAcc></extensions></trkpt>
      <trkpt lon="-3.168699" lat="52.995486"><ele>262.082520</ele><time>2021-09-01T09:35:39Z</time><extensions><speed>1.425519</speed><course>328.238739</course><hAcc>0.870852</hAcc><vAcc>0.659868</vAcc></extensions></trkpt>
      <trkpt lon="-3.168694" lat="52.995499"><ele>262.064667</ele><time>2021-09-01T09:35:40Z</time><extensions><speed>1.427468</speed><course>328.754333</course><hAcc>0.870482</hAcc><vAcc>0.658955</vAcc></extensions></trkpt>
      <trkpt lon="-3.168690" lat="52.995511"><ele>262.050873</ele><time>2021-09-01T09:35:41Z</time><extensions><speed>1.426193</speed><course>321.291412</course><hAcc>0.869993</hAcc><vAcc>0.657609</vAcc></extensions></trkpt>
      <trkpt lon="-3.168685" lat="52.995524"><ele>262.041656</ele><time>2021-09-01T09:35:42Z</time><extensions><speed>1.422233</speed><course>315.163422</course><hAcc>0.869350</hAcc><vAcc>0.655630</vAcc></extensions></trkpt>
      <trkpt lon="-3.168680" lat="52.995536"><ele>262.037567</ele><time>2021-09-01T09:35:43Z</time><extensions><speed>1.416826</speed><course>320.356079</course><hAcc>0.868533</hAcc><vAcc>0.652832</vAcc></extensions></trkpt>
      <trkpt lon="-3.168674" lat="52.995548"><ele>262.038666</ele><time>2021-09-01T09:35:44Z</time><extensions><speed>1.410944</speed><course>314.759003</course><hAcc>0.867545</hAcc><vAcc>0.649088</vAcc></extensions></trkpt>
      <trkpt lon="-3.168669" lat="52.995561"><ele>262.044556</ele><time>2021-09-01T09:35:45Z</time><extensions><speed>1.404802</speed><course>306.430359</course><hAcc>0.866419</hAcc><vAcc>0.644337</vAcc></extensions></trkpt>
      <trkpt lon="-3.168663" lat="52.995573"><ele>262.054626</ele><time>2021-09-01T09:35:46Z</time><extensions><speed>1.398248</speed><course>312.642456</course><hAcc>0.865212</hAcc><vAcc>0.638597</vAcc></extensions></trkpt>
      <trkpt lon="-3.168658" lat="52.995585"><ele>262.068329</ele><time>2021-09-01T09:35:47Z</time><extensions><speed>1.391750</speed><course>309.329712</course><hAcc>0.864010</hAcc><vAcc>0.631978</vAcc></extensions></trkpt>
      <trkpt lon="-3.168652" lat="52.995597"><ele>262.085541</ele><time>2021-09-01T09:35:48Z</time><extensions><speed>1.386376</speed><course>306.517120</course><hAcc>0.862917</hAcc><vAcc>0.624702</vAcc></extensions></trkpt>
      <trkpt lon="-3.168646" lat="52.995609"><ele>262.106049</ele><time>2021-09-01T09:35:49Z</time><extensions><speed>1.382871</speed><course>302.169647</course><hAcc>0.862040</hAcc><vAcc>0.617095</vAcc></extensions></trkpt>
      <trkpt lon="-3.168641" lat="52.995621"><ele>262.129669</ele><time>2021-09-01T09:35:50Z</time><extensions><speed>1.381524</speed><course>299.953156</course><hAcc>0.861461</hAcc><vAcc>0.609543</vAcc></extensions></trkpt>
      <trkpt lon="-3.168635" lat="52.995633"><ele>262.156219</ele><time>2021-09-01T09:35:51Z</time><extensions><speed>1.382520</speed><course>299.473511</course><hAcc>0.861214</hAcc><vAcc>0.602434</vAcc></extensions></trkpt>
      <trkpt lon="-3.168629" lat="52.995645"><ele>262.185303</ele><time>2021-09-01T09:35:52Z</time><extensions><speed>1.385706</speed><course>298.103729</course><hAcc>0.861270</hAcc><vAcc>0.596119</vAcc></extensions></trkpt>
      <trkpt lon="-3.168624" lat="52.995657"><ele>262.216736</ele><time>2021-09-01T09:35:53Z</time><extensions><speed>1.390545</speed><course>294.101929</course><hAcc>0.861554</hAcc><vAcc>0.590879</vAcc></extensions></trkpt>
      <trkpt lon="-3.168618" lat="52.995669"><ele>262.250580</ele><time>2021-09-01T09:35:54Z</time><extensions><speed>1.396493</speed><course>298.669067</course><hAcc>0.861980</hAcc><vAcc>0.586933</vAcc></extensions></trkpt>
      <trkpt lon="-3.168612" lat="52.995681"><ele>262.287048</ele><time>2021-09-01T09:35:55Z</time><extensions><speed>1.403807</speed><course>297.460327</course><hAcc>0.862479</hAcc><vAcc>0.584442</vAcc></extensions></trkpt>
      <trkpt lon="-3.168607" lat="52.995693"><ele>262.326263</ele><time>2021-09-01T09:35:56Z</time><extensions><speed>1.413177</speed><course>300.643127</course><hAcc>0.863007</hAcc><vAcc>0.583511</vAcc></extensions></trkpt>
      <trkpt lon="-3.168601" lat="52.995705"><ele>262.368652</ele><time>2021-09-01T09:35:57Z</time><extensions><speed>1.425628</speed><course>300.762909</course><hAcc>0.863553</hAcc><vAcc>0.584170</vAcc></extensions></trkpt>
      <trkpt lon="-3.168595" lat="52.995718"><ele>262.414917</ele><time>2021-09-01T09:35:58Z</time><extensions><speed>1.441802</speed><course>306.221161</course><hAcc>0.864131</hAcc><vAcc>0.586367</vAcc></extensions></trkpt>
      <trkpt lon="-3.168590" lat="52.995730"><ele>262.465393</ele><time>2021-09-01T09:35:59Z</time><extensions><speed>1.459800</speed><course>311.753571</course><hAcc>0.864756</hAcc><vAcc>0.589971</vAcc></extensions></trkpt>
      <trkpt lon="-3.168584" lat="52.995743"><ele>262.519745</ele><time>2021-09-01T09:36:00Z</time><extensions><speed>1.477107</speed><course>314.039551</course><hAcc>0.865436</hAcc><vAcc>0.594766</vAcc></extensions></trkpt>
      <trkpt lon="-3.168578" lat="52.995756"><ele>262.577698</ele><time>2021-09-01T09:36:01Z</time><extensions><speed>1.492050</speed><course>316.125336</course><hAcc>0.866170</hAcc><vAcc>0.600464</vAcc></extensions></trkpt>
      <trkpt lon="-3.168572" lat="52.995769"><ele>262.639069</ele><time>2021-09-01T09:36:02Z</time><extensions><speed>1.503032</speed><course>313.054962</course><hAcc>0.866938</hAcc><vAcc>0.606712</vAcc></extensions></trkpt>
      <trkpt lon="-3.168566" lat="52.995782"><ele>262.703735</ele><time>2021-09-01T09:36:03Z</time><extensions><speed>1.509392</speed><course>309.718231</course><hAcc>0.867679</hAcc><vAcc>0.613141</vAcc></extensions></trkpt>
      <trkpt lon="-3.168561" lat="52.995795"><ele>262.771118</ele><time>2021-09-01T09:36:04Z</time><extensions><speed>1.511377</speed><course>315.993652</course><hAcc>0.868321</hAcc><vAcc>0.619445</vAcc></extensions></trkpt>
      <trkpt lon="-3.168555" lat="52.995808"><ele>262.840424</ele><time>2021-09-01T09:36:05Z</time><extensions><speed>1.509570</speed><course>314.639465</course><hAcc>0.868812</hAcc><vAcc>0.625409</vAcc></extensions></trkpt>
      <trkpt lon="-3.168550" lat="52.995821"><ele>262.910919</ele><time>2021-09-01T09:36:06Z</time><extensions><speed>1.504947</speed><course>314.699524</course><hAcc>0.869132</hAcc><vAcc>0.630883</vAcc></extensions></trkpt>
      <trkpt lon="-3.168544" lat="52.995834"><ele>262.982086</ele><time>2021-09-01T09:36:07Z</time><extensions><speed>1.498760</speed><course>315.537170</course><hAcc>0.869294</hAcc><vAcc>0.635761</vAcc></extensions></trkpt>
      <trkpt lon="-3.168539" lat="52.995847"><ele>263.053528</ele><time>2021-09-01T09:36:08Z</time><extensions><speed>1.492192</speed><course>315.384186</course><hAcc>0.869337</hAcc><vAcc>0.639974</vAcc></extensions></trkpt>
      <trkpt lon="-3.168534" lat="52.995860"><ele>263.124908</ele><time>2021-09-01T09:36:09Z</time><extensions><speed>1.486227</speed><course>316.068207</course><hAcc>0.869309</hAcc><vAcc>0.643482</vAcc></extensions></trkpt>
      <trkpt lon="-3.168528" lat="52.995873"><ele>263.195465</ele><time>2021-09-01T09:36:10Z</time><extensions><speed>1.481501</speed><course>319.526184</course><hAcc>0.869250</hAcc><vAcc>0.646269</vAcc></extensions></trkpt>
      <trkpt lon="-3.168523" lat="52.995886"><ele>263.264191</ele><time>2021-09-01T09:36:11Z</time><extensions><speed>1.477838</speed><course>322.032959</course><hAcc>0.869182</hAcc><vAcc>0.648337</vAcc></extensions></trkpt>
      <trkpt lon="-3.168519" lat="52.995899"><ele>263.329834</ele><time>2021-09-01T09:36:12Z</time><extensions><speed>1.474413</speed><course>326.209290</course><hAcc>0.869114</hAcc><vAcc>0.649707</vAcc></extensions></trkpt>
      <trkpt lon="-3.168514" lat="52.995912"><ele>263.391052</ele><time>2021-09-01T09:36:13Z</time><extensions><speed>1.470483</speed><course>324.142303</course><hAcc>0.869047</hAcc><vAcc>0.650417</vAcc></extensions></trkpt>
      <trkpt lon="-3.168510" lat="52.995925"><ele>263.446442</ele><time>2021-09-01T09:36:14Z</time><extensions><speed>1.467101</speed><course>332.193542</course><hAcc>0.868981</hAcc><vAcc>0.650543</vAcc></extensions></trkpt>
      <trkpt lon="-3.168506" lat="52.995938"><ele>263.494537</ele><time>2021-09-01T09:36:15Z</time><extensions><speed>1.466182</speed><course>329.558014</course><hAcc>0.868924</hAcc><vAcc>0.650213</vAcc></extensions></trkpt>
      <trkpt lon="-3.168502" lat="52.995951"><ele>263.534241</ele><time>2021-09-01T09:36:16Z</time><extensions><speed>1.468392</speed><course>323.309692</course><hAcc>0.868888</hAcc><vAcc>0.649614</vAcc></extensions></trkpt>
      <trkpt lon="-3.168499" lat="52.995964"><ele>263.564667</ele><time>2021-09-01T09:36:17Z</time><extensions><speed>1.473537</speed><course>319.992767</course><hAcc>0.868887</hAcc><vAcc>0.648958</vAcc></extensions></trkpt>
      <trkpt lon="-3.168497" lat="52.995977"><ele>263.584808</ele><time>2021-09-01T09:36:18Z</time><extensions><speed>1.480979</speed><course>322.539886</course><hAcc>0.868924</hAcc><vAcc>0.648448</vAcc></extensions></trkpt>
      <trkpt lon="-3.168494" lat="52.995991"><ele>263.593933</ele><time>2021-09-01T09:36:19Z</time><extensions><speed>1.489914</speed><course>317.532928</course><hAcc>0.868989</hAcc><vAcc>0.648241</vAcc></extensions></trkpt>
      <trkpt lon="-3.168492" lat="52.996004"><ele>263.592072</ele><time>2021-09-01T09:36:20Z</time><extensions><speed>1.499445</speed><course>314.725220</course><hAcc>0.869073</hAcc><vAcc>0.648448</vAcc></extensions></trkpt>
      <trkpt lon="-3.168491" lat="52.996018"><ele>263.579590</ele><time>2021-09-01T09:36:21Z</time><extensions><speed>1.508363</speed><course>325.463684</course><hAcc>0.869179</hAcc><vAcc>0.649125</vAcc></extensions></trkpt>
      <trkpt lon="-3.168489" lat="52.996031"><ele>263.556458</ele><time>2021-09-01T09:36:22Z</time><extensions><speed>1.515821</speed><course>326.490570</course><hAcc>0.869331</hAcc><vAcc>0.650279</vAcc></extensions></trkpt>
      <trkpt lon="-3.168488" lat="52.996045"><ele>263.522400</ele><time>2021-09-01T09:36:23Z</time><extensions><speed>1.521461</speed><course>316.111328</course><hAcc>0.869552</hAcc><vAcc>0.651852</vAcc></extensions></trkpt>
      <trkpt lon="-3.168487" lat="52.996058"><ele>263.477264</ele><time>2021-09-01T09:36:24Z</time><extensions><speed>1.524783</speed><course>316.470520</course><hAcc>0.869850</hAcc><vAcc>0.653722</vAcc></extensions></trkpt>
      <trkpt lon="-3.168485" lat="52.996072"><ele>263.421265</ele><time>2021-09-01T09:36:25Z</time><extensions><speed>1.525344</speed><course>317.921600</course><hAcc>0.870209</hAcc><vAcc>0.655728</vAcc></extensions></trkpt>
      <trkpt lon="-3.168484" lat="52.996086"><ele>263.355347</ele><time>2021-09-01T09:36:26Z</time><extensions><speed>1.523213</speed><course>317.925903</course><hAcc>0.870600</hAcc><vAcc>0.657697</vAcc></extensions></trkpt>
      <trkpt lon="-3.168483" lat="52.996099"><ele>263.281097</ele><time>2021-09-01T09:36:27Z</time><extensions><speed>1.519439</speed><course>316.840515</course><hAcc>0.870991</hAcc><vAcc>0.659487</vAcc></extensions></trkpt>
      <trkpt lon="-3.168482" lat="52.996113"><ele>263.200104</ele><time>2021-09-01T09:36:28Z</time><extensions><speed>1.515319</speed><course>321.987762</course><hAcc>0.871356</hAcc><vAcc>0.661003</vAcc></extensions></trkpt>
      <trkpt lon="-3.168481" lat="52.996127"><ele>263.113617</ele><time>2021-09-01T09:36:29Z</time><extensions><speed>1.511774</speed><course>314.291290</course><hAcc>0.871680</hAcc><vAcc>0.662217</vAcc></extensions></trkpt>
      <trkpt lon="-3.168480" lat="52.996140"><ele>263.022522</ele><time>2021-09-01T09:36:30Z</time><extensions><speed>1.509377</speed><course>311.665222</course><hAcc>0.871959</hAcc><vAcc>0.663162</vAcc></extensions></trkpt>
      <trkpt lon="-3.168478" lat="52.996154"><ele>262.927429</ele><time>2021-09-01T09:36:31Z</time><extensions><speed>1.508179</speed><course>315.645782</course><hAcc>0.872199</hAcc><vAcc>0.663906</vAcc></extensions></trkpt>
      <trkpt lon="-3.168477" lat="52.996167"><ele>262.828552</ele><time>2021-09-01T09:36:32Z</time><extensions><speed>1.507767</speed><course>312.390594</course><hAcc>0.872412</hAcc><vAcc>0.664522</vAcc></extensions></trkpt>
      <trkpt lon="-3.168476" lat="52.996181"><ele>262.725891</ele><time>2021-09-01T09:36:33Z</time><extensions><speed>1.507327</speed><course>315.968140</course><hAcc>0.872607</hAcc><vAcc>0.665071</vAcc></extensions></trkpt>
      <trkpt lon="-3.168474" lat="52.996194"><ele>262.619446</ele><time>2021-09-01T09:36:34Z</time><extensions><speed>1.506365</speed><course>305.843231</course><hAcc>0.872794</hAcc><vAcc>0.665591</vAcc></extensions></trkpt>
      <trkpt lon="-3.168473" lat="52.996208"><ele>262.509186</ele><time>2021-09-01T09:36:35Z</time><extensions><speed>1.504635</speed><course>307.428955</course><hAcc>0.872984</hAcc><vAcc>0.666119</vAcc></extensions></trkpt>
      <trkpt lon="-3.168471" lat="52.996221"><ele>262.395386</ele><time>2021-09-01T09:36:36Z</time><extensions><speed>1.501928</speed><course>303.591888</course><hAcc>0.873189</hAcc><vAcc>0.666696</vAcc></extensions></trkpt>
      <trkpt lon="-3.168469" lat="52.996235"><ele>262.278351</ele><time>2021-09-01T09:36:37Z</time><extensions><speed>1.497927</speed><course>302.311584</course><hAcc>0.873421</hAcc><vAcc>0.667369</vAcc></extensions></trkpt>
      <trkpt lon="-3.168468" lat="52.996248"><ele>262.158417</ele><time>2021-09-01T09:36:38Z</time><extensions><speed>1.492197</speed><course>296.010498</course><hAcc>0.873693</hAcc><vAcc>0.668183</vAcc></extensions></trkpt>
      <trkpt lon="-3.168466" lat="52.996261"><ele>262.036438</ele><time>2021-09-01T09:36:39Z</time><extensions><speed>1.484647</speed><course>298.597748</course><hAcc>0.874014</hAcc><vAcc>0.669169</vAcc></extensions></trkpt>
      <trkpt lon="-3.168464" lat="52.996275"><ele>261.913818</ele><time>2021-09-01T09:36:40Z</time><extensions><speed>1.475303</speed><course>307.419373</course><hAcc>0.874388</hAcc><vAcc>0.670348</vAcc></extensions></trkpt>
      <trkpt lon="-3.168463" lat="52.996288"><ele>261.791901</ele><time>2021-09-01T09:36:41Z</time><extensions><speed>1.464140</speed><course>311.127045</course><hAcc>0.874819</hAcc><vAcc>0.671731</vAcc></extensions></trkpt>
      <trkpt lon="-3.168461" lat="52.996301"><ele>261.671570</ele><time>2021-09-01T09:36:42Z</time><extensions><speed>1.451209</speed><course>308.779785</course><hAcc>0.875304</hAcc><vAcc>0.673309</vAcc></extensions></trkpt>
      <trkpt lon="-3.168459" lat="52.996314"><ele>261.553589</ele><time>2021-09-01T09:36:43Z</time><extensions><speed>1.437191</speed><course>310.817932</course><hAcc>0.875834</hAcc><vAcc>0.675047</vAcc></extensions></trkpt>
      <trkpt lon="-3.168458" lat="52.996327"><ele>261.438812</ele><time>2021-09-01T09:36:44Z</time><extensions><speed>1.422840</speed><course>313.903961</course><hAcc>0.876397</hAcc><vAcc>0.676892</vAcc></extensions></trkpt>
      <trkpt lon="-3.168456" lat="52.996339"><ele>261.328156</ele><time>2021-09-01T09:36:45Z</time><extensions><speed>1.408592</speed><course>312.113068</course><hAcc>0.876977</hAcc><vAcc>0.678788</vAcc></extensions></trkpt>
      <trkpt lon="-3.168454" lat="52.996352"><ele>261.222626</ele><time>2021-09-01T09:36:46Z</time><extensions><speed>1.395171</speed><course>298.693726</course><hAcc>0.877560</hAcc><vAcc>0.680683</vAcc></extensions></trkpt>
      <trkpt lon="-3.168452" lat="52.996364"><ele>261.123047</ele><time>2021-09-01T09:36:48Z</time><extensions><speed>1.383039</speed><course>304.126526</course><hAcc>0.878114</hAcc><vAcc>0.682519</vAcc></extensions></trkpt>
      <trkpt lon="-3.168450" lat="52.996377"><ele>261.030029</ele><time>2021-09-01T09:36:49Z</time><extensions><speed>1.372941</speed><course>307.202972</course><hAcc>0.878622</hAcc><vAcc>0.684243</vAcc></extensions></trkpt>
      <trkpt lon="-3.168448" lat="52.996389"><ele>260.943542</ele><time>2021-09-01T09:36:50Z</time><extensions><speed>1.365879</speed><course>306.849365</course><hAcc>0.879092</hAcc><vAcc>0.685823</vAcc></extensions></trkpt>
      <trkpt lon="-3.168446" lat="52.996401"><ele>260.863281</ele><time>2021-09-01T09:36:51Z</time><extensions><speed>1.361778</speed><course>311.228149</course><hAcc>0.879510</hAcc><vAcc>0.687218</vAcc></extensions></trkpt>
      <trkpt lon="-3.168444" lat="52.996413"><ele>260.788788</ele><time>2021-09-01T09:36:52Z</time><extensions><speed>1.359823</speed><course>314.984741</course><hAcc>0.879869</hAcc><vAcc>0.688395</vAcc></extensions></trkpt>
      <trkpt lon="-3.168442" lat="52.996425"><ele>260.719360</ele><time>2021-09-01T09:36:53Z</time><extensions><speed>1.359519</speed><course>312.149628</course><hAcc>0.880165</hAcc><vAcc>0.689336</vAcc></extensions></trkpt>
      <trkpt lon="-3.168440" lat="52.996438"><ele>260.654205</ele><time>2021-09-01T09:36:54Z</time><extensions><speed>1.360950</speed><course>303.811646</course><hAcc>0.880398</hAcc><vAcc>0.690039</vAcc></extensions></trkpt>
      <trkpt lon="-3.168438" lat="52.996450"><ele>260.592407</ele><time>2021-09-01T09:36:55Z</time><extensions><speed>1.363756</speed><course>306.939087</course><hAcc>0.880575</hAcc><vAcc>0.690518</vAcc></extensions></trkpt>
      <trkpt lon="-3.168436" lat="52.996462"><ele>260.533020</ele><time>2021-09-01T09:36:56Z</time><extensions><speed>1.366716</speed><course>305.149933</course><hAcc>0.880704</hAcc><vAcc>0.690808</vAcc></extensions></trkpt>
      <trkpt lon="-3.168435" lat="52.996474"><ele>260.475037</ele><time>2021-09-01T09:36:57Z</time><extensions><speed>1.368868</speed><course>307.460999</course><hAcc>0.880798</hAcc><vAcc>0.690964</vAcc></extensions></trkpt>
      <trkpt lon="-3.168434" lat="52.996487"><ele>260.417511</ele><time>2021-09-01T09:36:58Z</time><extensions><speed>1.370099</speed><course>310.556549</course><hAcc>0.880874</hAcc><vAcc>0.691059</vAcc></extensions></trkpt>
      <trkpt lon="-3.168434" lat="52.996499"><ele>260.359680</ele><time>2021-09-01T09:36:59Z</time><extensions><speed>1.370877</speed><course>316.643463</course><hAcc>0.880948</hAcc><vAcc>0.691173</vAcc></extensions></trkpt>
      <trkpt lon="-3.168434" lat="52.996511"><ele>260.301117</ele><time>2021-09-01T09:37:00Z</time><extensions><speed>1.372378</speed><course>310.111420</course><hAcc>0.881032</hAcc><vAcc>0.691365</vAcc></extensions></trkpt>
      <trkpt lon="-3.168434" lat="52.996523"><ele>260.241638</ele><time>2021-09-01T09:37:01Z</time><extensions><speed>1.375507</speed><course>309.394775</course><hAcc>0.881135</hAcc><vAcc>0.691652</vAcc></extensions></trkpt>
      <trkpt lon="-3.168436" lat="52.996536"><ele>260.180756</ele><time>2021-09-01T09:37:02Z</time><extensions><speed>1.380156</speed><course>312.734375</course><hAcc>0.881259</hAcc><vAcc>0.692036</vAcc></extensions></trkpt>
      <trkpt lon="-3.168437" lat="52.996548"><ele>260.117737</ele><time>2021-09-01T09:37:03Z</time><extensions><speed>1.385833</speed><course>307.110260</course><hAcc>0.881404</hAcc><vAcc>0.692511</vAcc></extensions></trkpt>
      <trkpt lon="-3.168439" lat="52.996561"><ele>260.051544</ele><time>2021-09-01T09:37:04Z</time><extensions><speed>1.392299</speed><course>304.794312</course><hAcc>0.881567</hAcc><vAcc>0.693063</vAcc></extensions></trkpt>
      <trkpt lon="-3.168441" lat="52.996573"><ele>259.981354</ele><time>2021-09-01T09:37:05Z</time><extensions><speed>1.399747</speed><course>309.669006</course><hAcc>0.881744</hAcc><vAcc>0.693670</vAcc></extensions></trkpt>
      <trkpt lon="-3.168443" lat="52.996586"><ele>259.906891</ele><time>2021-09-01T09:37:06Z</time><extensions><speed>1.408095</speed><course>309.747101</course><hAcc>0.881927</hAcc><vAcc>0.694304</vAcc></extensions></trkpt>
      <trkpt lon="-3.168445" lat="52.996598"><ele>259.828552</ele><time>2021-09-01T09:37:07Z</time><extensions><speed>1.417118</speed><course>308.451904</course><hAcc>0.882105</hAcc><vAcc>0.694932</vAcc></extensions></trkpt>
      <trkpt lon="-3.168447" lat="52.996611"><ele>259.746643</ele><time>2021-09-01T09:37:08Z</time><extensions><speed>1.426448</speed><course>313.674774</course><hAcc>0.882268</hAcc><vAcc>0.695522</vAcc></extensions></trkpt>
      <trkpt lon="-3.168448" lat="52.996624"><ele>259.661804</ele><time>2021-09-01T09:37:09Z</time><extensions><speed>1.435416</speed><course>310.174561</course><hAcc>0.882403</hAcc><vAcc>0.696039</vAcc></extensions></trkpt>
      <trkpt lon="-3.168450" lat="52.996637"><ele>259.574982</ele><time>2021-09-01T09:37:10Z</time><extensions><speed>1.443034</speed><course>312.894348</course><hAcc>0.882497</hAcc><vAcc>0.696445</vAcc></extensions></trkpt>
      <trkpt lon="-3.168451" lat="52.996650"><ele>259.487000</ele><time>2021-09-01T09:37:11Z</time><extensions><speed>1.448835</speed><course>309.740997</course><hAcc>0.882536</hAcc><vAcc>0.696694</vAcc></extensions></trkpt>
      <trkpt lon="-3.168452" lat="52.996663"><ele>259.398621</ele><time>2021-09-01T09:37:12Z</time><extensions><speed>1.452838</speed><course>309.271240</course><hAcc>0.882504</hAcc><vAcc>0.696736</vAcc></extensions></trkpt>
      <trkpt lon="-3.168453" lat="52.996676"><ele>259.310699</ele><time>2021-09-01T09:37:13Z</time><extensions><speed>1.454918</speed><course>309.840485</course><hAcc>0.882390</hAcc><vAcc>0.696523</vAcc></extensions></trkpt>
      <trkpt lon="-3.168453" lat="52.996689"><ele>259.223938</ele><time>2021-09-01T09:37:14Z</time><extensions><speed>1.455001</speed><course>308.054108</course><hAcc>0.882180</hAcc><vAcc>0.696011</vAcc></extensions></trkpt>
      <trkpt lon="-3.168453" lat="52.996702"><ele>259.138580</ele><time>2021-09-01T09:37:15Z</time><extensions><speed>1.453411</speed><course>306.226685</course><hAcc>0.881868</hAcc><vAcc>0.695161</vAcc></extensions></trkpt>
      <trkpt lon="-3.168452" lat="52.996715"><ele>259.054382</ele><time>2021-09-01T09:37:16Z</time><extensions><speed>1.450518</speed><course>316.211884</course><hAcc>0.881448</hAcc><vAcc>0.693943</vAcc></extensions></trkpt>
      <trkpt lon="-3.168452" lat="52.996728"><ele>258.970917</ele><time>2021-09-01T09:37:17Z</time><extensions><speed>1.446514</speed><course>312.798523</course><hAcc>0.880924</hAcc><vAcc>0.692349</vAcc></extensions></trkpt>
      <trkpt lon="-3.168450" lat="52.996741"><ele>258.888062</ele><time>2021-09-01T09:37:18Z</time><extensions><speed>1.441411</speed><course>314.823364</course><hAcc>0.880304</hAcc><vAcc>0.690400</vAcc></extensions></trkpt>
      <trkpt lon="-3.168449" lat="52.996754"><ele>258.805939</ele><time>2021-09-01T09:37:19Z</time><extensions><speed>1.434575</speed><course>317.560303</course><hAcc>0.879607</hAcc><vAcc>0.688152</vAcc></extensions></trkpt>
      <trkpt lon="-3.168447" lat="52.996767"><ele>258.724915</ele><time>2021-09-01T09:37:20Z</time><extensions><speed>1.425698</speed><course>313.870911</course><hAcc>0.878858</hAcc><vAcc>0.685683</vAcc></extensions></trkpt>
      <trkpt lon="-3.168445" lat="52.996779"><ele>258.645264</ele><time>2021-09-01T09:37:21Z</time><extensions><speed>1.415536</speed><course>320.858917</course><hAcc>0.878093</hAcc><vAcc>0.683092</vAcc></extensions></trkpt>
      <trkpt lon="-3.168443" lat="52.996792"><ele>258.567261</ele><time>2021-09-01T09:37:22Z</time><extensions><speed>1.405025</speed><course>322.110107</course><hAcc>0.877352</hAcc><vAcc>0.680507</vAcc></extensions></trkpt>
      <trkpt lon="-3.168441" lat="52.996805"><ele>258.491302</ele><time>2021-09-01T09:37:23Z</time><extensions><speed>1.394808</speed><course>322.258118</course><hAcc>0.876684</hAcc><vAcc>0.678110</vAcc></extensions></trkpt>
      <trkpt lon="-3.168438" lat="52.996817"><ele>258.417877</ele><time>2021-09-01T09:37:24Z</time><extensions><speed>1.385566</speed><course>323.751770</course><hAcc>0.876140</hAcc><vAcc>0.676125</vAcc></extensions></trkpt>
      <trkpt lon="-3.168435" lat="52.996829"><ele>258.347778</ele><time>2021-09-01T09:37:25Z</time><extensions><speed>1.377845</speed><course>311.017761</course><hAcc>0.875769</hAcc><vAcc>0.674762</vAcc></extensions></trkpt>
      <trkpt lon="-3.168432" lat="52.996841"><ele>258.281769</ele><time>2021-09-01T09:37:26Z</time><extensions><speed>1.371860</speed><course>303.134949</course><hAcc>0.875594</hAcc><vAcc>0.674142</vAcc></extensions></trkpt>
      <trkpt lon="-3.168429" lat="52.996854"><ele>258.220612</ele><time>2021-09-01T09:37:27Z</time><extensions><speed>1.366772</speed><course>305.266266</course><hAcc>0.875612</hAcc><vAcc>0.674252</vAcc></extensions></trkpt>
      <trkpt lon="-3.168425" lat="52.996866"><ele>258.165100</ele><time>2021-09-01T09:37:28Z</time><extensions><speed>1.361821</speed><course>306.244568</course><hAcc>0.875793</hAcc><vAcc>0.674970</vAcc></extensions></trkpt>
      <trkpt lon="-3.168421" lat="52.996878"><ele>258.116272</ele><time>2021-09-01T09:37:29Z</time><extensions><speed>1.357068</speed><course>311.028961</course><hAcc>0.876098</hAcc><vAcc>0.676120</vAcc></extensions></trkpt>
      <trkpt lon="-3.168417" lat="52.996889"><ele>258.075500</ele><time>2021-09-01T09:37:30Z</time><extensions><speed>1.352393</speed><course>304.990997</course><hAcc>0.876481</hAcc><vAcc>0.677515</vAcc></extensions></trkpt>
      <trkpt lon="-3.168412" lat="52.996901"><ele>258.044128</ele><time>2021-09-01T09:37:31Z</time><extensions><speed>1.347452</speed><course>305.619354</course><hAcc>0.876903</hAcc><vAcc>0.678988</vAcc></extensions></trkpt>
      <trkpt lon="-3.168407" lat="52.996913"><ele>258.022980</ele><time>2021-09-01T09:37:32Z</time><extensions><speed>1.342158</speed><course>319.038269</course><hAcc>0.877327</hAcc><vAcc>0.680406</vAcc></extensions></trkpt>
      <trkpt lon="-3.168402" lat="52.996925"><ele>258.012177</ele><time>2021-09-01T09:37:33Z</time><extensions><speed>1.337374</speed><course>314.772644</course><hAcc>0.877729</hAcc><vAcc>0.681681</vAcc></extensions></trkpt>
      <trkpt lon="-3.168397" lat="52.996936"><ele>258.010956</ele><time>2021-09-01T09:37:34Z</time><extensions><speed>1.334032</speed><course>314.865356</course><hAcc>0.878092</hAcc><vAcc>0.682770</vAcc></extensions></trkpt>
      <trkpt lon="-3.168392" lat="52.996948"><ele>258.017639</ele><time>2021-09-01T09:37:35Z</time><extensions><speed>1.332738</speed><course>315.584076</course><hAcc>0.878408</hAcc><vAcc>0.683666</vAcc></extensions></trkpt>
      <trkpt lon="-3.168386" lat="52.996959"><ele>258.029785</ele><time>2021-09-01T09:37:36Z</time><extensions><speed>1.334277</speed><course>318.301117</course><hAcc>0.878678</hAcc><vAcc>0.684389</vAcc></extensions></trkpt>
      <trkpt lon="-3.168381" lat="52.996971"><ele>258.044830</ele><time>2021-09-01T09:37:37Z</time><extensions><speed>1.339247</speed><course>308.957520</course><hAcc>0.878909</hAcc><vAcc>0.684980</vAcc></extensions></trkpt>
      <trkpt lon="-3.168375" lat="52.996982"><ele>258.060822</ele><time>2021-09-01T09:37:38Z</time><extensions><speed>1.348273</speed><course>309.679749</course><hAcc>0.879109</hAcc><vAcc>0.685481</vAcc></extensions></trkpt>
      <trkpt lon="-3.168369" lat="52.996994"><ele>258.076813</ele><time>2021-09-01T09:37:39Z</time><extensions><speed>1.361603</speed><course>315.508118</course><hAcc>0.879291</hAcc><vAcc>0.685943</vAcc></extensions></trkpt>
      <trkpt lon="-3.168363" lat="52.997006"><ele>258.092560</ele><time>2021-09-01T09:37:40Z</time><extensions><speed>1.378597</speed><course>315.740204</course><hAcc>0.879466</hAcc><vAcc>0.686413</vAcc></extensions></trkpt>
      <trkpt lon="-3.168357" lat="52.997018"><ele>258.108154</ele><time>2021-09-01T09:37:41Z</time><extensions><speed>1.397964</speed><course>310.654785</course><hAcc>0.879646</hAcc><vAcc>0.686929</vAcc></extensions></trkpt>
      <trkpt lon="-3.168351" lat="52.997030"><ele>258.123535</ele><time>2021-09-01T09:37:42Z</time><extensions><speed>1.417916</speed><course>314.784058</course><hAcc>0.879839</hAcc><vAcc>0.687516</vAcc></extensions></trkpt>
      <trkpt lon="-3.168344" lat="52.997042"><ele>258.138367</ele><time>2021-09-01T09:37:43Z</time><extensions><speed>1.436679</speed><course>306.836517</course><hAcc>0.880050</hAcc><vAcc>0.688187</vAcc></extensions></trkpt>
      <trkpt lon="-3.168338" lat="52.997054"><ele>258.152008</ele><time>2021-09-01T09:37:44Z</time><extensions><speed>1.452920</speed><course>319.014709</course><hAcc>0.880283</hAcc><vAcc>0.688951</vAcc></extensions></trkpt>
      <trkpt lon="-3.168331" lat="52.997067"><ele>258.163818</ele><time>2021-09-01T09:37:45Z</time><extensions><speed>1.466199</speed><course>316.668060</course><hAcc>0.880539</hAcc><vAcc>0.689801</vAcc></extensions></trkpt>
      <trkpt lon="-3.168325" lat="52.997079"><ele>258.173126</ele><time>2021-09-01T09:37:46Z</time><extensions><speed>1.476561</speed><course>317.381256</course><hAcc>0.880815</hAcc><vAcc>0.690719</vAcc></extensions></trkpt>
      <trkpt lon="-3.168318" lat="52.997092"><ele>258.179352</ele><time>2021-09-01T09:37:47Z</time><extensions><speed>1.483800</speed><course>315.522644</course><hAcc>0.881110</hAcc><vAcc>0.691689</vAcc></extensions></trkpt>
      <trkpt lon="-3.168312" lat="52.997105"><ele>258.181854</ele><time>2021-09-01T09:37:48Z</time><extensions><speed>1.487219</speed><course>313.748596</course><hAcc>0.881419</hAcc><vAcc>0.692699</vAcc></extensions></trkpt>
      <trkpt lon="-3.168305" lat="52.997118"><ele>258.180420</ele><time>2021-09-01T09:37:49Z</time><extensions><speed>1.486773</speed><course>311.298676</course><hAcc>0.881739</hAcc><vAcc>0.693732</vAcc></extensions></trkpt>
      <trkpt lon="-3.168299" lat="52.997130"><ele>258.175140</ele><time>2021-09-01T09:37:50Z</time><extensions><speed>1.483053</speed><course>307.453308</course><hAcc>0.882066</hAcc><vAcc>0.694773</vAcc></extensions></trkpt>
      <trkpt lon="-3.168293" lat="52.997143"><ele>258.166168</ele><time>2021-09-01T09:37:51Z</time><extensions><speed>1.476735</speed><course>308.937561</course><hAcc>0.882395</hAcc><vAcc>0.695814</vAcc></extensions></trkpt>
      <trkpt lon="-3.168286" lat="52.997156"><ele>258.153564</ele><time>2021-09-01T09:37:52Z</time><extensions><speed>1.468376</speed><course>304.505646</course><hAcc>0.882722</hAcc><vAcc>0.696858</vAcc></extensions></trkpt>
      <trkpt lon="-3.168281" lat="52.997169"><ele>258.137512</ele><time>2021-09-01T09:37:53Z</time><extensions><speed>1.458250</speed><course>299.094574</course><hAcc>0.883043</hAcc><vAcc>0.697902</vAcc></extensions></trkpt>
      <trkpt lon="-3.168275" lat="52.997181"><ele>258.118347</ele><time>2021-09-01T09:37:54Z</time><extensions><speed>1.446627</speed><course>310.704071</course><hAcc>0.883353</hAcc><vAcc>0.698932</vAcc></extensions></trkpt>
      <trkpt lon="-3.168269" lat="52.997194"><ele>258.096588</ele><time>2021-09-01T09:37:55Z</time><extensions><speed>1.433280</speed><course>308.713898</course><hAcc>0.883646</hAcc><vAcc>0.699925</vAcc></extensions></trkpt>
      <trkpt lon="-3.168264" lat="52.997206"><ele>258.072113</ele><time>2021-09-01T09:37:56Z</time><extensions><speed>1.418704</speed><course>315.990417</course><hAcc>0.883916</hAcc><vAcc>0.700851</vAcc></extensions></trkpt>
      <trkpt lon="-3.168259" lat="52.997219"><ele>258.044006</ele><time>2021-09-01T09:37:57Z</time><extensions><speed>1.403969</speed><course>316.941956</course><hAcc>0.884155</hAcc><vAcc>0.701675</vAcc></extensions></trkpt>
      <trkpt lon="-3.168255" lat="52.997231"><ele>258.011078</ele><time>2021-09-01T09:37:58Z</time><extensions><speed>1.390006</speed><course>326.025696</course><hAcc>0.884358</hAcc><vAcc>0.702369</vAcc></extensions></trkpt>
      <trkpt lon="-3.168251" lat="52.997243"><ele>257.972015</ele><time>2021-09-01T09:37:59Z</time><extensions><speed>1.377736</speed><course>316.997101</course><hAcc>0.884517</hAcc><vAcc>0.702911</vAcc></extensions></trkpt>
      <trkpt lon="-3.168247" lat="52.997255"><ele>257.926056</ele><time>2021-09-01T09:38:00Z</time><extensions><speed>1.367526</speed><course>307.396637</course><hAcc>0.884629</hAcc><vAcc>0.703287</vAcc></extensions></trkpt>
      <trkpt lon="-3.168244" lat="52.997267"><ele>257.873138</ele><time>2021-09-01T09:38:01Z</time><extensions><speed>1.359415</speed><course>307.245117</course><hAcc>0.884688</hAcc><vAcc>0.703487</vAcc></extensions></trkpt>
      <trkpt lon="-3.168240" lat="52.997279"><ele>257.813507</ele><time>2021-09-01T09:38:02Z</time><extensions><speed>1.353026</speed><course>302.943970</course><hAcc>0.884693</hAcc><vAcc>0.703508</vAcc></extensions></trkpt>
      <trkpt lon="-3.168237" lat="52.997291"><ele>257.747528</ele><time>2021-09-01T09:38:03Z</time><extensions><speed>1.347386</speed><course>310.986115</course><hAcc>0.884642</hAcc><vAcc>0.703349</vAcc></extensions></trkpt>
      <trkpt lon="-3.168234" lat="52.997303"><ele>257.675873</ele><time>2021-09-01T09:38:04Z</time><extensions><speed>1.342104</speed><course>317.229156</course><hAcc>0.884534</hAcc><vAcc>0.703007</vAcc></extensions></trkpt>
      <trkpt lon="-3.168232" lat="52.997315"><ele>257.599548</ele><time>2021-09-01T09:38:05Z</time><extensions><speed>1.337595</speed><course>310.287506</course><hAcc>0.884371</hAcc><vAcc>0.702481</vAcc></extensions></trkpt>
      <trkpt lon="-3.168229" lat="52.997327"><ele>257.519592</ele><time>2021-09-01T09:38:06Z</time><extensions><speed>1.334278</speed><course>314.657898</course><hAcc>0.884155</hAcc><vAcc>0.701776</vAcc></extensions></trkpt>
      <trkpt lon="-3.168226" lat="52.997339"><ele>257.436554</ele><time>2021-09-01T09:38:07Z</time><extensions><speed>1.332530</speed><course>316.163879</course><hAcc>0.883889</hAcc><vAcc>0.700902</vAcc></extensions></trkpt>
      <trkpt lon="-3.168224" lat="52.997351"><ele>257.350403</ele><time>2021-09-01T09:38:08Z</time><extensions><speed>1.332627</speed><course>315.280670</course><hAcc>0.883578</hAcc><vAcc>0.699878</vAcc></extensions></trkpt>
      <trkpt lon="-3.168221" lat="52.997363"><ele>257.260681</ele><time>2021-09-01T09:38:09Z</time><extensions><speed>1.334438</speed><course>323.358459</course><hAcc>0.883227</hAcc><vAcc>0.698724</vAcc></extensions></trkpt>
      <trkpt lon="-3.168218" lat="52.997374"><ele>257.167084</ele><time>2021-09-01T09:38:10Z</time><extensions><speed>1.337410</speed><course>323.478973</course><hAcc>0.882844</hAcc><vAcc>0.697464</vAcc></extensions></trkpt>
      <trkpt lon="-3.168215" lat="52.997386"><ele>257.069916</ele><time>2021-09-01T09:38:11Z</time><extensions><speed>1.341030</speed><course>327.884216</course><hAcc>0.882436</hAcc><vAcc>0.696124</vAcc></extensions></trkpt>
      <trkpt lon="-3.168212" lat="52.997398"><ele>256.969879</ele><time>2021-09-01T09:38:12Z</time><extensions><speed>1.345218</speed><course>318.187775</course><hAcc>0.882010</hAcc><vAcc>0.694730</vAcc></extensions></trkpt>
      <trkpt lon="-3.168208" lat="52.997410"><ele>256.867584</ele><time>2021-09-01T09:38:13Z</time><extensions><speed>1.350084</speed><course>318.936035</course><hAcc>0.881577</hAcc><vAcc>0.693307</vAcc></extensions></trkpt>
      <trkpt lon="-3.168205" lat="52.997422"><ele>256.763184</ele><time>2021-09-01T09:38:14Z</time><extensions><speed>1.355292</speed><course>326.780121</course><hAcc>0.881144</hAcc><vAcc>0.691880</vAcc></extensions></trkpt>
      <trkpt lon="-3.168201" lat="52.997434"><ele>256.656219</ele><time>2021-09-01T09:38:15Z</time><extensions><speed>1.360636</speed><course>314.218445</course><hAcc>0.880720</hAcc><vAcc>0.690474</vAcc></extensions></trkpt>
      <trkpt lon="-3.168197" lat="52.997446"><ele>256.546265</ele><time>2021-09-01T09:38:16Z</time><extensions><speed>1.366158</speed><course>317.554047</course><hAcc>0.880315</hAcc><vAcc>0.689117</vAcc></extensions></trkpt>
      <trkpt lon="-3.168193" lat="52.997458"><ele>256.433624</ele><time>2021-09-01T09:38:17Z</time><extensions><speed>1.371296</speed><course>317.225586</course><hAcc>0.879936</hAcc><vAcc>0.687840</vAcc></extensions></trkpt>
      <trkpt lon="-3.168189" lat="52.997470"><ele>256.319000</ele><time>2021-09-01T09:38:18Z</time><extensions><speed>1.375004</speed><course>318.371796</course><hAcc>0.879588</hAcc><vAcc>0.686679</vAcc></extensions></trkpt>
      <trkpt lon="-3.168184" lat="52.997482"><ele>256.202911</ele><time>2021-09-01T09:38:19Z</time><extensions><speed>1.376315</speed><course>319.534454</course><hAcc>0.879277</hAcc><vAcc>0.685668</vAcc></extensions></trkpt>
      <trkpt lon="-3.168179" lat="52.997494"><ele>256.086060</ele><time>2021-09-01T09:38:20Z</time><extensions><speed>1.374570</speed><course>319.948578</course><hAcc>0.879001</hAcc><vAcc>0.684822</vAcc></extensions></trkpt>
      <trkpt lon="-3.168174" lat="52.997506"><ele>255.969452</ele><time>2021-09-01T09:38:21Z</time><extensions><speed>1.369164</speed><course>326.867279</course><hAcc>0.878752</hAcc><vAcc>0.684122</vAcc></extensions></trkpt>
      <trkpt lon="-3.168169" lat="52.997518"><ele>255.854401</ele><time>2021-09-01T09:38:22Z</time><extensions><speed>1.359507</speed><course>319.995087</course><hAcc>0.878515</hAcc><vAcc>0.683512</vAcc></extensions></trkpt>
      <trkpt lon="-3.168163" lat="52.997530"><ele>255.742722</ele><time>2021-09-01T09:38:23Z</time><extensions><speed>1.345392</speed><course>323.754486</course><hAcc>0.878270</hAcc><vAcc>0.682912</vAcc></extensions></trkpt>
      <trkpt lon="-3.168157" lat="52.997541"><ele>255.636703</ele><time>2021-09-01T09:38:24Z</time><extensions><speed>1.326889</speed><course>327.994751</course><hAcc>0.877996</hAcc><vAcc>0.682232</vAcc></extensions></trkpt>
      <trkpt lon="-3.168152" lat="52.997552"><ele>255.538651</ele><time>2021-09-01T09:38:25Z</time><extensions><speed>1.304536</speed><course>338.740143</course><hAcc>0.877671</hAcc><vAcc>0.681384</vAcc></extensions></trkpt>
      <trkpt lon="-3.168146" lat="52.997564"><ele>255.450455</ele><time>2021-09-01T09:38:26Z</time><extensions><speed>1.279847</speed><course>336.648224</course><hAcc>0.877276</hAcc><vAcc>0.680287</vAcc></extensions></trkpt>
      <trkpt lon="-3.168140" lat="52.997574"><ele>255.373184</ele><time>2021-09-01T09:38:27Z</time><extensions><speed>1.254225</speed><course>335.818359</course><hAcc>0.876797</hAcc><vAcc>0.678867</vAcc></extensions></trkpt>
      <trkpt lon="-3.168134" lat="52.997585"><ele>255.306885</ele><time>2021-09-01T09:38:28Z</time><extensions><speed>1.228405</speed><course>332.183533</course><hAcc>0.876226</hAcc><vAcc>0.677074</vAcc></extensions></trkpt>
      <trkpt lon="-3.168128" lat="52.997595"><ele>255.250824</ele><time>2021-09-01T09:38:29Z</time><extensions><speed>1.203340</speed><course>329.123840</course><hAcc>0.875566</hAcc><vAcc>0.674880</vAcc></extensions></trkpt>
      <trkpt lon="-3.168122" lat="52.997605"><ele>255.204071</ele><time>2021-09-01T09:38:30Z</time><extensions><speed>1.180204</speed><course>331.386230</course><hAcc>0.874827</hAcc><vAcc>0.672266</vAcc></extensions></trkpt>
      <trkpt lon="-3.168117" lat="52.997615"><ele>255.165863</ele><time>2021-09-01T09:38:31Z</time><extensions><speed>1.159288</speed><course>327.161377</course><hAcc>0.874031</hAcc><vAcc>0.669212</vAcc></extensions></trkpt>
      <trkpt lon="-3.168111" lat="52.997625"><ele>255.135696</ele><time>2021-09-01T09:38:32Z</time><extensions><speed>1.140103</speed><course>327.868042</course><hAcc>0.873207</hAcc><vAcc>0.665699</vAcc></extensions></trkpt>
      <trkpt lon="-3.168105" lat="52.997635"><ele>255.113449</ele><time>2021-09-01T09:38:33Z</time><extensions><speed>1.122379</speed><course>323.627838</course><hAcc>0.872394</hAcc><vAcc>0.661712</vAcc></extensions></trkpt>
      <trkpt lon="-3.168100" lat="52.997644"><ele>255.099411</ele><time>2021-09-01T09:38:34Z</time><extensions><speed>1.106315</speed><course>324.612000</course><hAcc>0.871640</hAcc><vAcc>0.657249</vAcc></extensions></trkpt>
      <trkpt lon="-3.168094" lat="52.997653"><ele>255.093765</ele><time>2021-09-01T09:38:35Z</time><extensions><speed>1.093020</speed><course>314.250275</course><hAcc>0.870992</hAcc><vAcc>0.652322</vAcc></extensions></trkpt>
      <trkpt lon="-3.168088" lat="52.997662"><ele>255.096085</ele><time>2021-09-01T09:38:36Z</time><extensions><speed>1.083820</speed><course>324.325928</course><hAcc>0.870491</hAcc><vAcc>0.646961</vAcc></extensions></trkpt>
      <trkpt lon="-3.168082" lat="52.997672"><ele>255.105835</ele><time>2021-09-01T09:38:37Z</time><extensions><speed>1.079804</speed><course>323.620239</course><hAcc>0.870163</hAcc><vAcc>0.641243</vAcc></extensions></trkpt>
      <trkpt lon="-3.168076" lat="52.997681"><ele>255.122803</ele><time>2021-09-01T09:38:38Z</time><extensions><speed>1.081852</speed><course>318.647095</course><hAcc>0.870004</hAcc><vAcc>0.635307</vAcc></extensions></trkpt>
      <trkpt lon="-3.168070" lat="52.997690"><ele>255.146271</ele><time>2021-09-01T09:38:39Z</time><extensions><speed>1.089920</speed><course>325.356964</course><hAcc>0.869971</hAcc><vAcc>0.629348</vAcc></extensions></trkpt>
      <trkpt lon="-3.168064" lat="52.997699"><ele>255.174683</ele><time>2021-09-01T09:38:40Z</time><extensions><speed>1.103271</speed><course>319.826599</course><hAcc>0.869981</hAcc><vAcc>0.623593</vAcc></extensions></trkpt>
      <trkpt lon="-3.168058" lat="52.997708"><ele>255.206161</ele><time>2021-09-01T09:38:41Z</time><extensions><speed>1.121219</speed><course>314.735016</course><hAcc>0.869928</hAcc><vAcc>0.618281</vAcc></extensions></trkpt>
      <trkpt lon="-3.168051" lat="52.997717"><ele>255.238876</ele><time>2021-09-01T09:38:42Z</time><extensions><speed>1.143251</speed><course>309.478760</course><hAcc>0.869702</hAcc><vAcc>0.613650</vAcc></extensions></trkpt>
      <trkpt lon="-3.168044" lat="52.997727"><ele>255.271866</ele><time>2021-09-01T09:38:43Z</time><extensions><speed>1.168506</speed><course>319.543488</course><hAcc>0.869211</hAcc><vAcc>0.609917</vAcc></extensions></trkpt>
      <trkpt lon="-3.168038" lat="52.997737"><ele>255.304993</ele><time>2021-09-01T09:38:44Z</time><extensions><speed>1.195114</speed><course>324.087982</course><hAcc>0.868412</hAcc><vAcc>0.607256</vAcc></extensions></trkpt>
      <trkpt lon="-3.168031" lat="52.997747"><ele>255.338165</ele><time>2021-09-01T09:38:45Z</time><extensions><speed>1.221080</speed><course>317.628326</course><hAcc>0.867363</hAcc><vAcc>0.605776</vAcc></extensions></trkpt>
      <trkpt lon="-3.168024" lat="52.997757"><ele>255.370773</ele><time>2021-09-01T09:38:46Z</time><extensions><speed>1.245059</speed><course>311.843903</course><hAcc>0.866235</hAcc><vAcc>0.605523</vAcc></extensions></trkpt>
      <trkpt lon="-3.168017" lat="52.997767"><ele>255.401733</ele><time>2021-09-01T09:38:47Z</time><extensions><speed>1.265422</speed><course>320.026215</course><hAcc>0.865278</hAcc><vAcc>0.606465</vAcc></extensions></trkpt>
      <trkpt lon="-3.168010" lat="52.997778"><ele>255.429810</ele><time>2021-09-01T09:38:48Z</time><extensions><speed>1.280631</speed><course>320.448669</course><hAcc>0.864728</hAcc><vAcc>0.608483</vAcc></extensions></trkpt>
      <trkpt lon="-3.168003" lat="52.997789"><ele>255.454391</ele><time>2021-09-01T09:38:49Z</time><extensions><speed>1.290684</speed><course>324.626526</course><hAcc>0.864736</hAcc><vAcc>0.611358</vAcc></extensions></trkpt>
      <trkpt lon="-3.167997" lat="52.997800"><ele>255.475998</ele><time>2021-09-01T09:38:50Z</time><extensions><speed>1.296643</speed><course>326.167938</course><hAcc>0.865338</hAcc><vAcc>0.614771</vAcc></extensions></trkpt>
      <trkpt lon="-3.167991" lat="52.997811"><ele>255.495499</ele><time>2021-09-01T09:38:51Z</time><extensions><speed>1.299062</speed><course>325.390656</course><hAcc>0.866448</hAcc><vAcc>0.618300</vAcc></extensions></trkpt>
      <trkpt lon="-3.167984" lat="52.997822"><ele>255.513412</ele><time>2021-09-01T09:38:52Z</time><extensions><speed>1.298790</speed><course>314.974457</course><hAcc>0.867876</hAcc><vAcc>0.621459</vAcc></extensions></trkpt>
      <trkpt lon="-3.167978" lat="52.997833"><ele>255.529877</ele><time>2021-09-01T09:38:53Z</time><extensions><speed>1.297360</speed><course>325.724579</course><hAcc>0.869383</hAcc><vAcc>0.623814</vAcc></extensions></trkpt>
      <trkpt lon="-3.167972" lat="52.997844"><ele>255.544922</ele><time>2021-09-01T09:38:54Z</time><extensions><speed>1.295767</speed><course>318.034210</course><hAcc>0.870757</hAcc><vAcc>0.625085</vAcc></extensions></trkpt>
      <trkpt lon="-3.167966" lat="52.997855"><ele>255.558777</ele><time>2021-09-01T09:38:55Z</time><extensions><speed>1.295090</speed><course>313.475250</course><hAcc>0.871862</hAcc><vAcc>0.625183</vAcc></extensions></trkpt>
      <trkpt lon="-3.167960" lat="52.997866"><ele>255.571747</ele><time>2021-09-01T09:38:56Z</time><extensions><speed>1.296873</speed><course>321.089203</course><hAcc>0.872627</hAcc><vAcc>0.624196</vAcc></extensions></trkpt>
      <trkpt lon="-3.167953" lat="52.997877"><ele>255.583923</ele><time>2021-09-01T09:38:57Z</time><extensions><speed>1.302271</speed><course>329.810181</course><hAcc>0.873031</hAcc><vAcc>0.622341</vAcc></extensions></trkpt>
      <trkpt lon="-3.167947" lat="52.997888"><ele>255.594772</ele><time>2021-09-01T09:38:58Z</time><extensions><speed>1.311789</speed><course>327.314850</course><hAcc>0.873092</hAcc><vAcc>0.619924</vAcc></extensions></trkpt>
      <trkpt lon="-3.167940" lat="52.997899"><ele>255.603134</ele><time>2021-09-01T09:38:59Z</time><extensions><speed>1.326017</speed><course>321.503876</course><hAcc>0.872856</hAcc><vAcc>0.617275</vAcc></extensions></trkpt>
      <trkpt lon="-3.167933" lat="52.997911"><ele>255.608383</ele><time>2021-09-01T09:39:00Z</time><extensions><speed>1.345013</speed><course>323.534607</course><hAcc>0.872389</hAcc><vAcc>0.614696</vAcc></extensions></trkpt>
      <trkpt lon="-3.167926" lat="52.997922"><ele>255.610596</ele><time>2021-09-01T09:39:01Z</time><extensions><speed>1.367707</speed><course>325.158722</course><hAcc>0.871770</hAcc><vAcc>0.612439</vAcc></extensions></trkpt>
      <trkpt lon="-3.167919" lat="52.997934"><ele>255.609528</ele><time>2021-09-01T09:39:01Z</time><extensions><speed>1.393159</speed><course>329.447083</course><hAcc>0.871093</hAcc><vAcc>0.610719</vAcc></extensions></trkpt>
      <trkpt lon="-3.167912" lat="52.997946"><ele>255.604233</ele><time>2021-09-01T09:39:02Z</time><extensions><speed>1.421138</speed><course>331.191650</course><hAcc>0.870422</hAcc><vAcc>0.609681</vAcc></extensions></trkpt>
      <trkpt lon="-3.167904" lat="52.997958"><ele>255.593262</ele><time>2021-09-01T09:39:04Z</time><extensions><speed>1.450800</speed><course>334.557068</course><hAcc>0.869756</hAcc><vAcc>0.609386</vAcc></extensions></trkpt>
      <trkpt lon="-3.167897" lat="52.997970"><ele>255.575668</ele><time>2021-09-01T09:39:05Z</time><extensions><speed>1.480661</speed><course>336.690918</course><hAcc>0.869106</hAcc><vAcc>0.609842</vAcc></extensions></trkpt>
      <trkpt lon="-3.167889" lat="52.997982"><ele>255.551910</ele><time>2021-09-01T09:39:06Z</time><extensions><speed>1.509027</speed><course>337.183258</course><hAcc>0.868475</hAcc><vAcc>0.611007</vAcc></extensions></trkpt>
      <trkpt lon="-3.167880" lat="52.997995"><ele>255.523575</ele><time>2021-09-01T09:39:07Z</time><extensions><speed>1.533697</speed><course>318.997711</course><hAcc>0.867841</hAcc><vAcc>0.612776</vAcc></extensions></trkpt>
      <trkpt lon="-3.167872" lat="52.998008"><ele>255.491714</ele><time>2021-09-01T09:39:08Z</time><extensions><speed>1.553440</speed><course>315.791901</course><hAcc>0.867185</hAcc><vAcc>0.615000</vAcc></extensions></trkpt>
      <trkpt lon="-3.167863" lat="52.998021"><ele>255.456085</ele><time>2021-09-01T09:39:09Z</time><extensions><speed>1.568554</speed><course>315.791901</course><hAcc>0.866505</hAcc><vAcc>0.617508</vAcc></extensions></trkpt>
      <trkpt lon="-3.167853" lat="52.998034"><ele>255.415451</ele><time>2021-09-01T09:39:09Z</time><extensions><speed>1.579869</speed><course>315.791901</course><hAcc>0.865847</hAcc><vAcc>0.620148</vAcc></extensions></trkpt>
      <trkpt lon="-3.167844" lat="52.998047"><ele>255.367828</ele><time>2021-09-01T09:39:10Z</time><extensions><speed>1.588869</speed><course>315.791901</course><hAcc>0.865264</hAcc><vAcc>0.622794</vAcc></extensions></trkpt>
      <trkpt lon="-3.167834" lat="52.998060"><ele>255.311646</ele><time>2021-09-01T09:39:11Z</time><extensions><speed>1.597399</speed><course>315.791901</course><hAcc>0.864792</hAcc><vAcc>0.625354</vAcc></extensions></trkpt>
      <trkpt lon="-3.167824" lat="52.998073"><ele>255.246567</ele><time>2021-09-01T09:39:12Z</time><extensions><speed>1.607088</speed><course>315.791901</course><hAcc>0.864468</hAcc><vAcc>0.627802</vAcc></extensions></trkpt>
      <trkpt lon="-3.167814" lat="52.998086"><ele>255.173401</ele><time>2021-09-01T09:39:13Z</time><extensions><speed>1.618472</speed><course>315.791901</course><hAcc>0.864306</hAcc><vAcc>0.630154</vAcc></extensions></trkpt>
      <trkpt lon="-3.167803" lat="52.998099"><ele>255.092850</ele><time>2021-09-01T09:39:14Z</time><extensions><speed>1.630754</speed><course>315.791901</course><hAcc>0.864307</hAcc><vAcc>0.632455</vAcc></extensions></trkpt>
      <trkpt lon="-3.167792" lat="52.998112"><ele>255.005356</ele><time>2021-09-01T09:39:15Z</time><extensions><speed>1.642705</speed><course>315.791901</course><hAcc>0.864465</hAcc><vAcc>0.634767</vAcc></extensions></trkpt>
      <trkpt lon="-3.167781" lat="52.998126"><ele>254.911591</ele><time>2021-09-01T09:39:16Z</time><extensions><speed>1.652914</speed><course>315.791901</course><hAcc>0.864776</hAcc><vAcc>0.637154</vAcc></extensions></trkpt>
      <trkpt lon="-3.167770" lat="52.998139"><ele>254.812820</ele><time>2021-09-01T09:39:17Z</time><extensions><speed>1.660170</speed><course>315.791901</course><hAcc>0.865237</hAcc><vAcc>0.639665</vAcc></extensions></trkpt>
      <trkpt lon="-3.167760" lat="52.998153"><ele>254.710876</ele><time>2021-09-01T09:39:18Z</time><extensions><speed>1.663509</speed><course>315.791901</course><hAcc>0.865831</hAcc><vAcc>0.642323</vAcc></extensions></trkpt>
      <trkpt lon="-3.167749" lat="52.998166"><ele>254.607468</ele><time>2021-09-01T09:39:19Z</time><extensions><speed>1.663036</speed><course>315.791901</course><hAcc>0.866541</hAcc><vAcc>0.645124</vAcc></extensions></trkpt>
      <trkpt lon="-3.167739" lat="52.998180"><ele>254.503662</ele><time>2021-09-01T09:39:20Z</time><extensions><speed>1.659719</speed><course>315.791901</course><hAcc>0.867345</hAcc><vAcc>0.648064</vAcc></extensions></trkpt>
      <trkpt lon="-3.167729" lat="52.998193"><ele>254.399567</ele><time>2021-09-01T09:39:21Z</time><extensions><speed>1.654001</speed><course>315.791901</course><hAcc>0.868226</hAcc><vAcc>0.651132</vAcc></extensions></trkpt>
      <trkpt lon="-3.167719" lat="52.998207"><ele>254.294922</ele><time>2021-09-01T09:39:22Z</time><extensions><speed>1.646308</speed><course>324.368835</course><hAcc>0.869164</hAcc><vAcc>0.654313</vAcc></extensions></trkpt>
      <trkpt lon="-3.167709" lat="52.998220"><ele>254.189636</ele><time>2021-09-01T09:39:23Z</time><extensions><speed>1.637102</speed><course>336.936340</course><hAcc>0.870141</hAcc><vAcc>0.657568</vAcc></extensions></trkpt>
      <trkpt lon="-3.167700" lat="52.998234"><ele>254.083252</ele><time>2021-09-01T09:39:24Z</time><extensions><speed>1.626794</speed><course>334.067902</course><hAcc>0.871132</hAcc><vAcc>0.660839</vAcc></extensions></trkpt>
      <trkpt lon="-3.167690" lat="52.998247"><ele>253.974915</ele><time>2021-09-01T09:39:25Z</time><extensions><speed>1.616160</speed><course>335.500000</course><hAcc>0.872113</hAcc><vAcc>0.664052</vAcc></extensions></trkpt>
      <trkpt lon="-3.167681" lat="52.998261"><ele>253.863663</ele><time>2021-09-01T09:39:26Z</time><extensions><speed>1.605513</speed><course>331.822205</course><hAcc>0.873062</hAcc><vAcc>0.667124</vAcc></extensions></trkpt>
      <trkpt lon="-3.167672" lat="52.998274"><ele>253.748581</ele><time>2021-09-01T09:39:27Z</time><extensions><speed>1.594996</speed><course>332.566284</course><hAcc>0.873956</hAcc><vAcc>0.669980</vAcc></extensions></trkpt>
      <trkpt lon="-3.167664" lat="52.998287"><ele>253.628952</ele><time>2021-09-01T09:39:28Z</time><extensions><speed>1.584630</speed><course>322.442413</course><hAcc>0.874781</hAcc><vAcc>0.672567</vAcc></extensions></trkpt>
      <trkpt lon="-3.167655" lat="52.998300"><ele>253.504303</ele><time>2021-09-01T09:39:29Z</time><extensions><speed>1.574324</speed><course>328.923309</course><hAcc>0.875530</hAcc><vAcc>0.674864</vAcc></extensions></trkpt>
      <trkpt lon="-3.167646" lat="52.998313"><ele>253.374268</ele><time>2021-09-01T09:39:30Z</time><extensions><speed>1.564401</speed><course>332.979462</course><hAcc>0.876203</hAcc><vAcc>0.676877</vAcc></extensions></trkpt>
      <trkpt lon="-3.167637" lat="52.998326"><ele>253.238449</ele><time>2021-09-01T09:39:31Z</time><extensions><speed>1.555437</speed><course>326.583588</course><hAcc>0.876804</hAcc><vAcc>0.678639</vAcc></extensions></trkpt>
      <trkpt lon="-3.167628" lat="52.998339"><ele>253.096542</ele><time>2021-09-01T09:39:32Z</time><extensions><speed>1.547573</speed><course>333.004852</course><hAcc>0.877344</hAcc><vAcc>0.680199</vAcc></extensions></trkpt>
      <trkpt lon="-3.167619" lat="52.998352"><ele>252.948975</ele><time>2021-09-01T09:39:33Z</time><extensions><speed>1.540523</speed><course>328.891602</course><hAcc>0.877836</hAcc><vAcc>0.681621</vAcc></extensions></trkpt>
      <trkpt lon="-3.167610" lat="52.998365"><ele>252.796631</ele><time>2021-09-01T09:39:34Z</time><extensions><speed>1.533790</speed><course>329.156494</course><hAcc>0.878294</hAcc><vAcc>0.682970</vAcc></extensions></trkpt>
      <trkpt lon="-3.167601" lat="52.998377"><ele>252.640213</ele><time>2021-09-01T09:39:35Z</time><extensions><speed>1.526605</speed><course>329.450256</course><hAcc>0.878730</hAcc><vAcc>0.684294</vAcc></extensions></trkpt>
      <trkpt lon="-3.167592" lat="52.998390"><ele>252.480209</ele><time>2021-09-01T09:39:36Z</time><extensions><speed>1.519064</speed><course>329.886902</course><hAcc>0.879151</hAcc><vAcc>0.685614</vAcc></extensions></trkpt>
      <trkpt lon="-3.167583" lat="52.998402"><ele>252.317078</ele><time>2021-09-01T09:39:37Z</time><extensions><speed>1.511463</speed><course>332.708923</course><hAcc>0.879559</hAcc><vAcc>0.686926</vAcc></extensions></trkpt>
      <trkpt lon="-3.167574" lat="52.998415"><ele>252.151367</ele><time>2021-09-01T09:39:38Z</time><extensions><speed>1.503494</speed><course>337.086456</course><hAcc>0.879954</hAcc><vAcc>0.688214</vAcc></extensions></trkpt>
      <trkpt lon="-3.167564" lat="52.998427"><ele>251.983887</ele><time>2021-09-01T09:39:39Z</time><extensions><speed>1.494885</speed><course>335.947693</course><hAcc>0.880335</hAcc><vAcc>0.689461</vAcc></extensions></trkpt>
      <trkpt lon="-3.167555" lat="52.998439"><ele>251.816177</ele><time>2021-09-01T09:39:40Z</time><extensions><speed>1.485791</speed><course>332.293579</course><hAcc>0.880698</hAcc><vAcc>0.690647</vAcc></extensions></trkpt>
      <trkpt lon="-3.167546" lat="52.998451"><ele>251.650223</ele><time>2021-09-01T09:39:41Z</time><extensions><speed>1.476570</speed><course>330.673279</course><hAcc>0.881038</hAcc><vAcc>0.691753</vAcc></extensions></trkpt>
      <trkpt lon="-3.167536" lat="52.998463"><ele>251.487808</ele><time>2021-09-01T09:39:42Z</time><extensions><speed>1.467847</speed><course>325.868774</course><hAcc>0.881352</hAcc><vAcc>0.692765</vAcc></extensions></trkpt>
      <trkpt lon="-3.167527" lat="52.998475"><ele>251.330231</ele><time>2021-09-01T09:39:43Z</time><extensions><speed>1.460123</speed><course>320.652771</course><hAcc>0.881637</hAcc><vAcc>0.693673</vAcc></extensions></trkpt>
      <trkpt lon="-3.167518" lat="52.998487"><ele>251.178482</ele><time>2021-09-01T09:39:44Z</time><extensions><speed>1.453452</speed><course>317.759430</course><hAcc>0.881890</hAcc><vAcc>0.694472</vAcc></extensions></trkpt>
      <trkpt lon="-3.167508" lat="52.998499"><ele>251.033554</ele><time>2021-09-01T09:39:45Z</time><extensions><speed>1.448013</speed><course>312.631989</course><hAcc>0.882110</hAcc><vAcc>0.695161</vAcc></extensions></trkpt>
      <trkpt lon="-3.167499" lat="52.998510"><ele>250.896484</ele><time>2021-09-01T09:39:46Z</time><extensions><speed>1.443883</speed><course>318.114197</course><hAcc>0.882297</hAcc><vAcc>0.695741</vAcc></extensions></trkpt>
      <trkpt lon="-3.167490" lat="52.998522"><ele>250.767624</ele><time>2021-09-01T09:39:47Z</time><extensions><speed>1.440771</speed><course>324.507172</course><hAcc>0.882451</hAcc><vAcc>0.696212</vAcc></extensions></trkpt>
      <trkpt lon="-3.167481" lat="52.998534"><ele>250.646576</ele><time>2021-09-01T09:39:48Z</time><extensions><speed>1.438657</speed><course>327.082703</course><hAcc>0.882574</hAcc><vAcc>0.696578</vAcc></extensions></trkpt>
      <trkpt lon="-3.167471" lat="52.998545"><ele>250.532593</ele><time>2021-09-01T09:39:49Z</time><extensions><speed>1.437435</speed><course>329.958954</course><hAcc>0.882670</hAcc><vAcc>0.696841</vAcc></extensions></trkpt>
      <trkpt lon="-3.167462" lat="52.998557"><ele>250.425049</ele><time>2021-09-01T09:39:50Z</time><extensions><speed>1.436357</speed><course>328.035645</course><hAcc>0.882743</hAcc><vAcc>0.697016</vAcc></extensions></trkpt>
      <trkpt lon="-3.167452" lat="52.998568"><ele>250.323776</ele><time>2021-09-01T09:39:51Z</time><extensions><speed>1.433645</speed><course>327.514526</course><hAcc>0.882797</hAcc><vAcc>0.697123</vAcc></extensions></trkpt>
      <trkpt lon="-3.167442" lat="52.998580"><ele>250.229034</ele><time>2021-09-01T09:39:52Z</time><extensions><speed>1.427864</speed><course>320.027710</course><hAcc>0.882839</hAcc><vAcc>0.697188</vAcc></extensions></trkpt>
      <trkpt lon="-3.167432" lat="52.998591"><ele>250.141098</ele><time>2021-09-01T09:39:53Z</time><extensions><speed>1.418569</speed><course>323.596710</course><hAcc>0.882873</hAcc><vAcc>0.697240</vAcc></extensions></trkpt>
      <trkpt lon="-3.167422" lat="52.998602"><ele>250.059982</ele><time>2021-09-01T09:39:54Z</time><extensions><speed>1.405108</speed><course>326.277405</course><hAcc>0.882906</hAcc><vAcc>0.697302</vAcc></extensions></trkpt>
      <trkpt lon="-3.167412" lat="52.998613"><ele>249.985092</ele><time>2021-09-01T09:39:55Z</time><extensions><speed>1.386529</speed><course>327.083344</course><hAcc>0.882940</hAcc><vAcc>0.697392</vAcc></extensions></trkpt>
      <trkpt lon="-3.167402" lat="52.998624"><ele>249.915649</ele><time>2021-09-01T09:39:56Z</time><extensions><speed>1.361646</speed><course>330.723541</course><hAcc>0.882978</hAcc><vAcc>0.697516</vAcc></extensions></trkpt>
      <trkpt lon="-3.167392" lat="52.998634"><ele>249.851471</ele><time>2021-09-01T09:39:57Z</time><extensions><speed>1.330153</speed><course>328.902985</course><hAcc>0.883021</hAcc><vAcc>0.697672</vAcc></extensions></trkpt>
      <trkpt lon="-3.167382" lat="52.998645"><ele>249.792923</ele><time>2021-09-01T09:39:58Z</time><extensions><speed>1.292489</speed><course>325.540680</course><hAcc>0.883070</hAcc><vAcc>0.697849</vAcc></extensions></trkpt>
      <trkpt lon="-3.167372" lat="52.998654"><ele>249.739929</ele><time>2021-09-01T09:39:59Z</time><extensions><speed>1.249290</speed><course>326.969879</course><hAcc>0.883123</hAcc><vAcc>0.698039</vAcc></extensions></trkpt>
      <trkpt lon="-3.167362" lat="52.998664"><ele>249.692062</ele><time>2021-09-01T09:40:00Z</time><extensions><speed>1.201456</speed><course>320.316467</course><hAcc>0.883179</hAcc><vAcc>0.698234</vAcc></extensions></trkpt>
      <trkpt lon="-3.167353" lat="52.998672"><ele>249.648804</ele><time>2021-09-01T09:40:01Z</time><extensions><speed>1.150226</speed><course>319.871765</course><hAcc>0.883235</hAcc><vAcc>0.698431</vAcc></extensions></trkpt>
      <trkpt lon="-3.167343" lat="52.998681"><ele>249.609680</ele><time>2021-09-01T09:40:02Z</time><extensions><speed>1.096919</speed><course>316.990692</course><hAcc>0.883291</hAcc><vAcc>0.698628</vAcc></extensions></trkpt>
      <trkpt lon="-3.167334" lat="52.998689"><ele>249.574615</ele><time>2021-09-01T09:40:03Z</time><extensions><speed>1.042793</speed><course>317.272278</course><hAcc>0.883343</hAcc><vAcc>0.698816</vAcc></extensions></trkpt>
      <trkpt lon="-3.167326" lat="52.998696"><ele>249.543991</ele><time>2021-09-01T09:40:04Z</time><extensions><speed>0.989599</speed><course>317.305878</course><hAcc>0.883390</hAcc><vAcc>0.698983</vAcc></extensions></trkpt>
      <trkpt lon="-3.167317" lat="52.998703"><ele>249.518417</ele><time>2021-09-01T09:40:05Z</time><extensions><speed>0.939703</speed><course>319.626617</course><hAcc>0.883430</hAcc><vAcc>0.699118</vAcc></extensions></trkpt>
      <trkpt lon="-3.167309" lat="52.998710"><ele>249.498245</ele><time>2021-09-01T09:40:06Z</time><extensions><speed>0.896285</speed><course>316.946777</course><hAcc>0.883462</hAcc><vAcc>0.699214</vAcc></extensions></trkpt>
      <trkpt lon="-3.167301" lat="52.998716"><ele>249.483276</ele><time>2021-09-01T09:40:07Z</time><extensions><speed>0.863363</speed><course>316.848175</course><hAcc>0.883484</hAcc><vAcc>0.699271</vAcc></extensions></trkpt>
      <trkpt lon="-3.167293" lat="52.998722"><ele>249.472504</ele><time>2021-09-01T09:40:08Z</time><extensions><speed>0.844669</speed><course>306.129730</course><hAcc>0.883495</hAcc><vAcc>0.699292</vAcc></extensions></trkpt>
      <trkpt lon="-3.167286" lat="52.998728"><ele>249.464264</ele><time>2021-09-01T09:40:09Z</time><extensions><speed>0.842057</speed><course>311.287872</course><hAcc>0.883496</hAcc><vAcc>0.699288</vAcc></extensions></trkpt>
      <trkpt lon="-3.167278" lat="52.998734"><ele>249.456680</ele><time>2021-09-01T09:40:10Z</time><extensions><speed>0.855297</speed><course>316.150696</course><hAcc>0.883486</hAcc><vAcc>0.699267</vAcc></extensions></trkpt>
      <trkpt lon="-3.167270" lat="52.998740"><ele>249.447891</ele><time>2021-09-01T09:40:11Z</time><extensions><speed>0.882760</speed><course>319.589172</course><hAcc>0.883463</hAcc><vAcc>0.699227</vAcc></extensions></trkpt>
      <trkpt lon="-3.167262" lat="52.998747"><ele>249.436218</ele><time>2021-09-01T09:40:12Z</time><extensions><speed>0.921606</speed><course>317.826752</course><hAcc>0.883426</hAcc><vAcc>0.699152</vAcc></extensions></trkpt>
      <trkpt lon="-3.167253" lat="52.998753"><ele>249.420105</ele><time>2021-09-01T09:40:13Z</time><extensions><speed>0.967923</speed><course>316.582428</course><hAcc>0.883374</hAcc><vAcc>0.699023</vAcc></extensions></trkpt>
      <trkpt lon="-3.167244" lat="52.998760"><ele>249.398331</ele><time>2021-09-01T09:40:14Z</time><extensions><speed>1.017494</speed><course>322.533203</course><hAcc>0.883304</hAcc><vAcc>0.698825</vAcc></extensions></trkpt>
      <trkpt lon="-3.167235" lat="52.998768"><ele>249.370071</ele><time>2021-09-01T09:40:15Z</time><extensions><speed>1.067147</speed><course>322.533203</course><hAcc>0.883218</hAcc><vAcc>0.698551</vAcc></extensions></trkpt>
      <trkpt lon="-3.167225" lat="52.998776"><ele>249.334915</ele><time>2021-09-01T09:40:16Z</time><extensions><speed>1.114990</speed><course>322.533203</course><hAcc>0.883116</hAcc><vAcc>0.698204</vAcc></extensions></trkpt>
      <trkpt lon="-3.167214" lat="52.998784"><ele>249.292679</ele><time>2021-09-01T09:40:17Z</time><extensions><speed>1.159528</speed><course>322.533203</course><hAcc>0.883002</hAcc><vAcc>0.697796</vAcc></extensions></trkpt>
      <trkpt lon="-3.167204" lat="52.998792"><ele>249.243195</ele><time>2021-09-01T09:40:18Z</time><extensions><speed>1.199234</speed><course>322.533203</course><hAcc>0.882880</hAcc><vAcc>0.697349</vAcc></extensions></trkpt>
      <trkpt lon="-3.167192" lat="52.998801"><ele>249.186356</ele><time>2021-09-01T09:40:19Z</time><extensions><speed>1.232672</speed><course>310.635162</course><hAcc>0.882755</hAcc><vAcc>0.696889</vAcc></extensions></trkpt>
      <trkpt lon="-3.167181" lat="52.998810"><ele>249.122437</ele><time>2021-09-01T09:40:20Z</time><extensions><speed>1.258654</speed><course>317.610291</course><hAcc>0.882632</hAcc><vAcc>0.696443</vAcc></extensions></trkpt>
      <trkpt lon="-3.167169" lat="52.998818"><ele>249.052002</ele><time>2021-09-01T09:40:21Z</time><extensions><speed>1.276967</speed><course>306.125671</course><hAcc>0.882517</hAcc><vAcc>0.696032</vAcc></extensions></trkpt>
      <trkpt lon="-3.167157" lat="52.998827"><ele>248.975861</ele><time>2021-09-01T09:40:22Z</time><extensions><speed>1.287841</speed><course>318.134308</course><hAcc>0.882413</hAcc><vAcc>0.695669</vAcc></extensions></trkpt>
      <trkpt lon="-3.167145" lat="52.998836"><ele>248.894852</ele><time>2021-09-01T09:40:23Z</time><extensions><speed>1.291363</speed><course>310.926819</course><hAcc>0.882324</hAcc><vAcc>0.695365</vAcc></extensions></trkpt>
      <trkpt lon="-3.167132" lat="52.998845"><ele>248.809784</ele><time>2021-09-01T09:40:24Z</time><extensions><speed>1.287837</speed><course>312.939606</course><hAcc>0.882253</hAcc><vAcc>0.695131</vAcc></extensions></trkpt>
      <trkpt lon="-3.167120" lat="52.998854"><ele>248.722061</ele><time>2021-09-01T09:40:25Z</time><extensions><speed>1.277298</speed><course>305.606995</course><hAcc>0.882200</hAcc><vAcc>0.694973</vAcc></extensions></trkpt>
      <trkpt lon="-3.167107" lat="52.998862"><ele>248.633728</ele><time>2021-09-01T09:40:26Z</time><extensions><speed>1.259939</speed><course>302.541321</course><hAcc>0.882165</hAcc><vAcc>0.694890</vAcc></extensions></trkpt>
      <trkpt lon="-3.167095" lat="52.998871"><ele>248.546707</ele><time>2021-09-01T09:40:27Z</time><extensions><speed>1.236436</speed><course>303.802917</course><hAcc>0.882145</hAcc><vAcc>0.694868</vAcc></extensions></trkpt>
      <trkpt lon="-3.167082" lat="52.998879"><ele>248.462265</ele><time>2021-09-01T09:40:28Z</time><extensions><speed>1.207942</speed><course>300.395538</course><hAcc>0.882138</hAcc><vAcc>0.694890</vAcc></extensions></trkpt>
      <trkpt lon="-3.167070" lat="52.998886"><ele>248.380829</ele><time>2021-09-01T09:40:29Z</time><extensions><speed>1.175362</speed><course>303.076660</course><hAcc>0.882138</hAcc><vAcc>0.694934</vAcc></extensions></trkpt>
      <trkpt lon="-3.167058" lat="52.998894"><ele>248.302490</ele><time>2021-09-01T09:40:30Z</time><extensions><speed>1.139576</speed><course>301.521118</course><hAcc>0.882144</hAcc><vAcc>0.694984</vAcc></extensions></trkpt>
      <trkpt lon="-3.167046" lat="52.998901"><ele>248.227783</ele><time>2021-09-01T09:40:31Z</time><extensions><speed>1.102037</speed><course>315.953857</course><hAcc>0.882150</hAcc><vAcc>0.695027</vAcc></extensions></trkpt>
      <trkpt lon="-3.167035" lat="52.998908"><ele>248.157394</ele><time>2021-09-01T09:40:32Z</time><extensions><speed>1.063759</speed><course>321.613922</course><hAcc>0.882153</hAcc><vAcc>0.695053</vAcc></extensions></trkpt>
      <trkpt lon="-3.167024" lat="52.998915"><ele>248.091721</ele><time>2021-09-01T09:40:33Z</time><extensions><speed>1.025787</speed><course>320.530426</course><hAcc>0.882153</hAcc><vAcc>0.695055</vAcc></extensions></trkpt>
      <trkpt lon="-3.167014" lat="52.998921"><ele>248.030701</ele><time>2021-09-01T09:40:34Z</time><extensions><speed>0.989716</speed><course>319.105469</course><hAcc>0.882146</hAcc><vAcc>0.695031</vAcc></extensions></trkpt>
      <trkpt lon="-3.167004" lat="52.998928"><ele>247.974197</ele><time>2021-09-01T09:40:35Z</time><extensions><speed>0.957557</speed><course>320.005280</course><hAcc>0.882132</hAcc><vAcc>0.694980</vAcc></extensions></trkpt>
      <trkpt lon="-3.166994" lat="52.998934"><ele>247.922241</ele><time>2021-09-01T09:40:36Z</time><extensions><speed>0.931354</speed><course>320.540527</course><hAcc>0.882111</hAcc><vAcc>0.694906</vAcc></extensions></trkpt>
      <trkpt lon="-3.166985" lat="52.998940"><ele>247.874680</ele><time>2021-09-01T09:40:37Z</time><extensions><speed>0.912803</speed><course>316.635681</course><hAcc>0.882083</hAcc><vAcc>0.694816</vAcc></extensions></trkpt>
      <trkpt lon="-3.166976" lat="52.998946"><ele>247.830780</ele><time>2021-09-01T09:40:38Z</time><extensions><speed>0.903952</speed><course>319.322998</course><hAcc>0.882050</hAcc><vAcc>0.694713</vAcc></extensions></trkpt>
      <trkpt lon="-3.166968" lat="52.998952"><ele>247.789215</ele><time>2021-09-01T09:40:39Z</time><extensions><speed>0.906111</speed><course>319.244141</course><hAcc>0.882011</hAcc><vAcc>0.694596</vAcc></extensions></trkpt>
      <trkpt lon="-3.166959" lat="52.998959"><ele>247.748306</ele><time>2021-09-01T09:40:40Z</time><extensions><speed>0.918417</speed><course>315.425568</course><hAcc>0.881968</hAcc><vAcc>0.694464</vAcc></extensions></trkpt>
      <trkpt lon="-3.166951" lat="52.998966"><ele>247.706436</ele><time>2021-09-01T09:40:41Z</time><extensions><speed>0.939390</speed><course>318.059448</course><hAcc>0.881922</hAcc><vAcc>0.694315</vAcc></extensions></trkpt>
      <trkpt lon="-3.166943" lat="52.998972"><ele>247.662231</ele><time>2021-09-01T09:40:42Z</time><extensions><speed>0.967080</speed><course>318.243683</course><hAcc>0.881875</hAcc><vAcc>0.694151</vAcc></extensions></trkpt>
      <trkpt lon="-3.166934" lat="52.998980"><ele>247.614716</ele><time>2021-09-01T09:40:43Z</time><extensions><speed>0.999045</speed><course>319.840027</course><hAcc>0.881831</hAcc><vAcc>0.693979</vAcc></extensions></trkpt>
      <trkpt lon="-3.166926" lat="52.998987"><ele>247.563110</ele><time>2021-09-01T09:40:44Z</time><extensions><speed>1.033207</speed><course>320.630524</course><hAcc>0.881791</hAcc><vAcc>0.693812</vAcc></extensions></trkpt>
      <trkpt lon="-3.166917" lat="52.998995"><ele>247.506897</ele><time>2021-09-01T09:40:45Z</time><extensions><speed>1.067757</speed><course>318.435181</course><hAcc>0.881758</hAcc><vAcc>0.693668</vAcc></extensions></trkpt>
      <trkpt lon="-3.166908" lat="52.999003"><ele>247.446075</ele><time>2021-09-01T09:40:46Z</time><extensions><speed>1.101494</speed><course>313.959320</course><hAcc>0.881735</hAcc><vAcc>0.693567</vAcc></extensions></trkpt>
      <trkpt lon="-3.166899" lat="52.999012"><ele>247.380707</ele><time>2021-09-01T09:40:47Z</time><extensions><speed>1.133643</speed><course>314.005951</course><hAcc>0.881722</hAcc><vAcc>0.693518</vAcc></extensions></trkpt>
      <trkpt lon="-3.166890" lat="52.999020"><ele>247.310379</ele><time>2021-09-01T09:40:48Z</time><extensions><speed>1.163946</speed><course>315.776367</course><hAcc>0.881717</hAcc><vAcc>0.693519</vAcc></extensions></trkpt>
      <trkpt lon="-3.166881" lat="52.999029"><ele>247.234665</ele><time>2021-09-01T09:40:49Z</time><extensions><speed>1.192698</speed><course>317.643280</course><hAcc>0.881714</hAcc><vAcc>0.693555</vAcc></extensions></trkpt>
      <trkpt lon="-3.166871" lat="52.999039"><ele>247.153244</ele><time>2021-09-01T09:40:50Z</time><extensions><speed>1.220140</speed><course>316.187012</course><hAcc>0.881706</hAcc><vAcc>0.693605</vAcc></extensions></trkpt>
      <trkpt lon="-3.166862" lat="52.999048"><ele>247.065720</ele><time>2021-09-01T09:40:51Z</time><extensions><speed>1.246143</speed><course>313.238525</course><hAcc>0.881683</hAcc><vAcc>0.693634</vAcc></extensions></trkpt>
      <trkpt lon="-3.166852" lat="52.999058"><ele>246.971390</ele><time>2021-09-01T09:40:52Z</time><extensions><speed>1.270110</speed><course>309.102142</course><hAcc>0.881631</hAcc><vAcc>0.693602</vAcc></extensions></trkpt>
      <trkpt lon="-3.166842" lat="52.999068"><ele>246.869873</ele><time>2021-09-01T09:40:53Z</time><extensions><speed>1.291214</speed><course>313.839325</course><hAcc>0.881535</hAcc><vAcc>0.693457</vAcc></extensions></trkpt>
      <trkpt lon="-3.166832" lat="52.999077"><ele>246.761368</ele><time>2021-09-01T09:40:54Z</time><extensions><speed>1.308960</speed><course>315.040405</course><hAcc>0.881380</hAcc><vAcc>0.693139</vAcc></extensions></trkpt>
      <trkpt lon="-3.166821" lat="52.999088"><ele>246.646805</ele><time>2021-09-01T09:40:55Z</time><extensions><speed>1.322956</speed><course>315.010925</course><hAcc>0.881147</hAcc><vAcc>0.692579</vAcc></extensions></trkpt>
      <trkpt lon="-3.166811" lat="52.999098"><ele>246.527451</ele><time>2021-09-01T09:40:56Z</time><extensions><speed>1.332474</speed><course>312.357758</course><hAcc>0.880821</hAcc><vAcc>0.691711</vAcc></extensions></trkpt>
      <trkpt lon="-3.166800" lat="52.999108"><ele>246.404556</ele><time>2021-09-01T09:40:57Z</time><extensions><speed>1.336869</speed><course>316.888885</course><hAcc>0.880389</hAcc><vAcc>0.690477</vAcc></extensions></trkpt>
      <trkpt lon="-3.166789" lat="52.999118"><ele>246.279633</ele><time>2021-09-01T09:40:58Z</time><extensions><speed>1.336016</speed><course>320.096283</course><hAcc>0.879840</hAcc><vAcc>0.688830</vAcc></extensions></trkpt>
      <trkpt lon="-3.166778" lat="52.999127"><ele>246.154419</ele><time>2021-09-01T09:41:00Z</time><extensions><speed>1.330418</speed><course>330.452972</course><hAcc>0.879151</hAcc><vAcc>0.686727</vAcc></extensions></trkpt>
      <trkpt lon="-3.166766" lat="52.999137"><ele>246.030991</ele><time>2021-09-01T09:41:01Z</time><extensions><speed>1.321015</speed><course>325.892334</course><hAcc>0.878320</hAcc><vAcc>0.684170</vAcc></extensions></trkpt>
      <trkpt lon="-3.166755" lat="52.999147"><ele>245.910675</ele><time>2021-09-01T09:41:02Z</time><extensions><speed>1.308484</speed><course>323.150330</course><hAcc>0.877370</hAcc><vAcc>0.681187</vAcc></extensions></trkpt>
      <trkpt lon="-3.166743" lat="52.999156"><ele>245.794586</ele><time>2021-09-01T09:41:03Z</time><extensions><speed>1.293562</speed><course>318.355499</course><hAcc>0.876308</hAcc><vAcc>0.677822</vAcc></extensions></trkpt>
      <trkpt lon="-3.166731" lat="52.999165"><ele>245.683594</ele><time>2021-09-01T09:41:04Z</time><extensions><speed>1.277282</speed><course>319.900726</course><hAcc>0.875146</hAcc><vAcc>0.674128</vAcc></extensions></trkpt>
      <trkpt lon="-3.166719" lat="52.999174"><ele>245.578644</ele><time>2021-09-01T09:41:05Z</time><extensions><speed>1.260549</speed><course>327.705719</course><hAcc>0.873898</hAcc><vAcc>0.670157</vAcc></extensions></trkpt>
      <trkpt lon="-3.166707" lat="52.999183"><ele>245.480759</ele><time>2021-09-01T09:41:06Z</time><extensions><speed>1.244064</speed><course>325.864380</course><hAcc>0.872578</hAcc><vAcc>0.665957</vAcc></extensions></trkpt>
      <trkpt lon="-3.166695" lat="52.999191"><ele>245.390930</ele><time>2021-09-01T09:41:07Z</time><extensions><speed>1.228431</speed><course>316.016541</course><hAcc>0.871204</hAcc><vAcc>0.661581</vAcc></extensions></trkpt>
      <trkpt lon="-3.166683" lat="52.999199"><ele>245.310196</ele><time>2021-09-01T09:41:08Z</time><extensions><speed>1.214119</speed><course>317.886536</course><hAcc>0.869794</hAcc><vAcc>0.657096</vAcc></extensions></trkpt>
      <trkpt lon="-3.166670" lat="52.999207"><ele>245.239578</ele><time>2021-09-01T09:41:09Z</time><extensions><speed>1.201538</speed><course>327.267029</course><hAcc>0.868369</hAcc><vAcc>0.652569</vAcc></extensions></trkpt>
      <trkpt lon="-3.166658" lat="52.999214"><ele>245.180161</ele><time>2021-09-01T09:41:09Z</time><extensions><speed>1.190444</speed><course>326.251373</course><hAcc>0.866963</hAcc><vAcc>0.648075</vAcc></extensions></trkpt>
      <trkpt lon="-3.166645" lat="52.999222"><ele>245.132736</ele><time>2021-09-01T09:41:10Z</time><extensions><speed>1.179911</speed><course>330.160339</course><hAcc>0.865586</hAcc><vAcc>0.643645</vAcc></extensions></trkpt>
      <trkpt lon="-3.166632" lat="52.999229"><ele>245.097885</ele><time>2021-09-01T09:41:12Z</time><extensions><speed>1.169003</speed><course>329.350830</course><hAcc>0.864211</hAcc><vAcc>0.639278</vAcc></extensions></trkpt>
      <trkpt lon="-3.166619" lat="52.999236"><ele>245.075912</ele><time>2021-09-01T09:41:13Z</time><extensions><speed>1.156825</speed><course>328.046906</course><hAcc>0.862845</hAcc><vAcc>0.634998</vAcc></extensions></trkpt>
      <trkpt lon="-3.166606" lat="52.999243"><ele>245.066788</ele><time>2021-09-01T09:41:14Z</time><extensions><speed>1.142432</speed><course>328.036682</course><hAcc>0.861510</hAcc><vAcc>0.630823</vAcc></extensions></trkpt>
      <trkpt lon="-3.166593" lat="52.999249"><ele>245.070435</ele><time>2021-09-01T09:41:15Z</time><extensions><speed>1.124863</speed><course>328.321899</course><hAcc>0.860206</hAcc><vAcc>0.626757</vAcc></extensions></trkpt>
      <trkpt lon="-3.166581" lat="52.999256"><ele>245.086548</ele><time>2021-09-01T09:41:15Z</time><extensions><speed>1.103521</speed><course>326.366882</course><hAcc>0.858956</hAcc><vAcc>0.622821</vAcc></extensions></trkpt>
      <trkpt lon="-3.166568" lat="52.999262"><ele>245.114883</ele><time>2021-09-01T09:41:16Z</time><extensions><speed>1.078179</speed><course>331.362152</course><hAcc>0.857767</hAcc><vAcc>0.619029</vAcc></extensions></trkpt>
      <trkpt lon="-3.166555" lat="52.999267"><ele>245.155121</ele><time>2021-09-01T09:41:18Z</time><extensions><speed>1.048437</speed><course>329.394318</course><hAcc>0.856614</hAcc><vAcc>0.615393</vAcc></extensions></trkpt>
      <trkpt lon="-3.166543" lat="52.999273"><ele>245.206467</ele><time>2021-09-01T09:41:19Z</time><extensions><speed>1.013477</speed><course>332.464355</course><hAcc>0.855522</hAcc><vAcc>0.611976</vAcc></extensions></trkpt>
      <trkpt lon="-3.166531" lat="52.999278"><ele>245.267990</ele><time>2021-09-01T09:41:20Z</time><extensions><speed>0.972516</speed><course>335.973755</course><hAcc>0.854538</hAcc><vAcc>0.608885</vAcc></extensions></trkpt>
      <trkpt lon="-3.166519" lat="52.999283"><ele>245.338440</ele><time>2021-09-01T09:41:21Z</time><extensions><speed>0.925205</speed><course>334.588074</course><hAcc>0.853707</hAcc><vAcc>0.606258</vAcc></extensions></trkpt>
      <trkpt lon="-3.166508" lat="52.999287"><ele>245.416428</ele><time>2021-09-01T09:41:22Z</time><extensions><speed>0.871795</speed><course>337.558624</course><hAcc>0.853076</hAcc><vAcc>0.604243</vAcc></extensions></trkpt>
      <trkpt lon="-3.166497" lat="52.999291"><ele>245.500381</ele><time>2021-09-01T09:41:23Z</time><extensions><speed>0.813836</speed><course>337.377197</course><hAcc>0.852670</hAcc><vAcc>0.602927</vAcc></extensions></trkpt>
      <trkpt lon="-3.166487" lat="52.999295"><ele>245.588699</ele><time>2021-09-01T09:41:24Z</time><extensions><speed>0.753343</speed><course>334.236908</course><hAcc>0.852477</hAcc><vAcc>0.602280</vAcc></extensions></trkpt>
      <trkpt lon="-3.166478" lat="52.999299"><ele>245.679581</ele><time>2021-09-01T09:41:25Z</time><extensions><speed>0.692070</speed><course>333.116516</course><hAcc>0.852461</hAcc><vAcc>0.602191</vAcc></extensions></trkpt>
      <trkpt lon="-3.166470" lat="52.999302"><ele>245.771255</ele><time>2021-09-01T09:41:26Z</time><extensions><speed>0.632305</speed><course>331.193451</course><hAcc>0.852572</hAcc><vAcc>0.602517</vAcc></extensions></trkpt>
      <trkpt lon="-3.166462" lat="52.999304"><ele>245.862076</ele><time>2021-09-01T09:41:27Z</time><extensions><speed>0.577206</speed><course>327.071960</course><hAcc>0.852770</hAcc><vAcc>0.603133</vAcc></extensions></trkpt>
      <trkpt lon="-3.166455" lat="52.999307"><ele>245.950348</ele><time>2021-09-01T09:41:28Z</time><extensions><speed>0.529283</speed><course>323.969269</course><hAcc>0.853038</hAcc><vAcc>0.603984</vAcc></extensions></trkpt>
      <trkpt lon="-3.166448" lat="52.999309"><ele>246.034851</ele><time>2021-09-01T09:41:29Z</time><extensions><speed>0.489615</speed><course>325.035614</course><hAcc>0.853387</hAcc><vAcc>0.605105</vAcc></extensions></trkpt>
      <trkpt lon="-3.166442" lat="52.999311"><ele>246.114822</ele><time>2021-09-01T09:41:30Z</time><extensions><speed>0.458642</speed><course>325.080109</course><hAcc>0.853846</hAcc><vAcc>0.606593</vAcc></extensions></trkpt>
      <trkpt lon="-3.166437" lat="52.999314"><ele>246.189606</ele><time>2021-09-01T09:41:31Z</time><extensions><speed>0.436395</speed><course>320.596710</course><hAcc>0.854445</hAcc><vAcc>0.608530</vAcc></extensions></trkpt>
      <trkpt lon="-3.166431" lat="52.999316"><ele>246.258438</ele><time>2021-09-01T09:41:32Z</time><extensions><speed>0.422097</speed><course>325.164429</course><hAcc>0.855184</hAcc><vAcc>0.610908</vAcc></extensions></trkpt>
      <trkpt lon="-3.166426" lat="52.999318"><ele>246.320297</ele><time>2021-09-01T09:41:33Z</time><extensions><speed>0.414274</speed><course>323.691345</course><hAcc>0.856034</hAcc><vAcc>0.613629</vAcc></extensions></trkpt>
      <trkpt lon="-3.166422" lat="52.999321"><ele>246.374191</ele><time>2021-09-01T09:41:34Z</time><extensions><speed>0.410643</speed><course>332.829010</course><hAcc>0.856954</hAcc><vAcc>0.616555</vAcc></extensions></trkpt>
      <trkpt lon="-3.166418" lat="52.999323"><ele>246.419205</ele><time>2021-09-01T09:41:35Z</time><extensions><speed>0.408123</speed><course>333.287506</course><hAcc>0.857903</hAcc><vAcc>0.619551</vAcc></extensions></trkpt>
      <trkpt lon="-3.166414" lat="52.999326"><ele>246.454559</ele><time>2021-09-01T09:41:36Z</time><extensions><speed>0.403981</speed><course>320.664337</course><hAcc>0.858852</hAcc><vAcc>0.622534</vAcc></extensions></trkpt>
      <trkpt lon="-3.166410" lat="52.999329"><ele>246.479858</ele><time>2021-09-01T09:41:37Z</time><extensions><speed>0.396297</speed><course>319.581818</course><hAcc>0.859802</hAcc><vAcc>0.625521</vAcc></extensions></trkpt>
      <trkpt lon="-3.166407" lat="52.999332"><ele>246.495163</ele><time>2021-09-01T09:41:38Z</time><extensions><speed>0.383502</speed><course>320.113190</course><hAcc>0.860774</hAcc><vAcc>0.628605</vAcc></extensions></trkpt>
      <trkpt lon="-3.166403" lat="52.999334"><ele>246.500992</ele><time>2021-09-01T09:41:39Z</time><extensions><speed>0.364758</speed><course>325.625488</course><hAcc>0.861791</hAcc><vAcc>0.631872</vAcc></extensions></trkpt>
      <trkpt lon="-3.166401" lat="52.999337"><ele>246.498108</ele><time>2021-09-01T09:41:40Z</time><extensions><speed>0.340444</speed><course>320.008789</course><hAcc>0.862857</hAcc><vAcc>0.635341</vAcc></extensions></trkpt>
      <trkpt lon="-3.166398" lat="52.999340"><ele>246.487579</ele><time>2021-09-01T09:41:41Z</time><extensions><speed>0.311924</speed><course>318.909088</course><hAcc>0.863951</hAcc><vAcc>0.638945</vAcc></extensions></trkpt>
      <trkpt lon="-3.166396" lat="52.999342"><ele>246.471008</ele><time>2021-09-01T09:41:42Z</time><extensions><speed>0.281102</speed><course>323.298828</course><hAcc>0.865031</hAcc><vAcc>0.642528</vAcc></extensions></trkpt>
      <trkpt lon="-3.166394" lat="52.999344"><ele>246.450363</ele><time>2021-09-01T09:41:43Z</time><extensions><speed>0.249680</speed><course>319.843567</course><hAcc>0.866038</hAcc><vAcc>0.645878</vAcc></extensions></trkpt>
      <trkpt lon="-3.166392" lat="52.999346"><ele>246.427719</ele><time>2021-09-01T09:41:44Z</time><extensions><speed>0.219611</speed><course>314.311829</course><hAcc>0.866914</hAcc><vAcc>0.648787</vAcc></extensions></trkpt>
      <trkpt lon="-3.166390" lat="52.999347"><ele>246.405182</ele><time>2021-09-01T09:41:45Z</time><extensions><speed>0.193382</speed><course>319.089264</course><hAcc>0.867613</hAcc><vAcc>0.651086</vAcc></extensions></trkpt>
      <trkpt lon="-3.166388" lat="52.999348"><ele>246.384781</ele><time>2021-09-01T09:41:46Z</time><extensions><speed>0.173421</speed><course>322.114319</course><hAcc>0.868106</hAcc><vAcc>0.652669</vAcc></extensions></trkpt>
      <trkpt lon="-3.166386" lat="52.999349"><ele>246.368256</ele><time>2021-09-01T09:41:47Z</time><extensions><speed>0.161637</speed><course>313.771057</course><hAcc>0.868387</hAcc><vAcc>0.653508</vAcc></extensions></trkpt>
      <trkpt lon="-3.166384" lat="52.999350"><ele>246.356842</ele><time>2021-09-01T09:41:48Z</time><extensions><speed>0.158919</speed><course>306.383820</course><hAcc>0.868473</hAcc><vAcc>0.653652</vAcc></extensions></trkpt>
      <trkpt lon="-3.166382" lat="52.999350"><ele>246.351303</ele><time>2021-09-01T09:41:49Z</time><extensions><speed>0.164879</speed><course>308.594727</course><hAcc>0.868405</hAcc><vAcc>0.653231</vAcc></extensions></trkpt>
      <trkpt lon="-3.166379" lat="52.999351"><ele>246.352020</ele><time>2021-09-01T09:41:50Z</time><extensions><speed>0.178724</speed><course>313.438293</course><hAcc>0.868245</hAcc><vAcc>0.652469</vAcc></extensions></trkpt>
      <trkpt lon="-3.166377" lat="52.999351"><ele>246.359146</ele><time>2021-09-01T09:41:51Z</time><extensions><speed>0.200401</speed><course>315.261749</course><hAcc>0.868079</hAcc><vAcc>0.651673</vAcc></extensions></trkpt>
      <trkpt lon="-3.166374" lat="52.999352"><ele>246.372620</ele><time>2021-09-01T09:41:52Z</time><extensions><speed>0.230442</speed><course>314.962799</course><hAcc>0.867996</hAcc><vAcc>0.651173</vAcc></extensions></trkpt>
      <trkpt lon="-3.166370" lat="52.999353"><ele>246.392212</ele><time>2021-09-01T09:41:53Z</time><extensions><speed>0.269344</speed><course>311.864380</course><hAcc>0.868067</hAcc><vAcc>0.651228</vAcc></extensions></trkpt>
      <trkpt lon="-3.166366" lat="52.999354"><ele>246.417450</ele><time>2021-09-01T09:41:54Z</time><extensions><speed>0.317100</speed><course>305.555115</course><hAcc>0.868315</hAcc><vAcc>0.651932</vAcc></extensions></trkpt>
      <trkpt lon="-3.166361" lat="52.999355"><ele>246.447662</ele><time>2021-09-01T09:41:55Z</time><extensions><speed>0.373072</speed><course>309.414368</course><hAcc>0.868730</hAcc><vAcc>0.653244</vAcc></extensions></trkpt>
      <trkpt lon="-3.166355" lat="52.999356"><ele>246.482040</ele><time>2021-09-01T09:41:56Z</time><extensions><speed>0.436055</speed><course>312.426361</course><hAcc>0.869282</hAcc><vAcc>0.655060</vAcc></extensions></trkpt>
      <trkpt lon="-3.166349" lat="52.999358"><ele>246.519638</ele><time>2021-09-01T09:41:57Z</time><extensions><speed>0.504408</speed><course>315.779877</course><hAcc>0.869934</hAcc><vAcc>0.657232</vAcc></extensions></trkpt>
      <trkpt lon="-3.166342" lat="52.999360"><ele>246.559326</ele><time>2021-09-01T09:41:58Z</time><extensions><speed>0.576087</speed><course>309.393494</course><hAcc>0.870634</hAcc><vAcc>0.659570</vAcc></extensions></trkpt>
      <trkpt lon="-3.166334" lat="52.999362"><ele>246.599899</ele><time>2021-09-01T09:41:59Z</time><extensions><speed>0.648931</speed><course>315.161163</course><hAcc>0.871332</hAcc><vAcc>0.661878</vAcc></extensions></trkpt>
      <trkpt lon="-3.166324" lat="52.999365"><ele>246.640030</ele><time>2021-09-01T09:42:00Z</time><extensions><speed>0.721125</speed><course>313.978088</course><hAcc>0.871979</hAcc><vAcc>0.663986</vAcc></extensions></trkpt>
      <trkpt lon="-3.166314" lat="52.999368"><ele>246.678162</ele><time>2021-09-01T09:42:01Z</time><extensions><speed>0.791547</speed><course>310.683502</course><hAcc>0.872540</hAcc><vAcc>0.665770</vAcc></extensions></trkpt>
      <trkpt lon="-3.166304" lat="52.999372"><ele>246.712952</ele><time>2021-09-01T09:42:02Z</time><extensions><speed>0.859689</speed><course>311.301880</course><hAcc>0.872990</hAcc><vAcc>0.667153</vAcc></extensions></trkpt>
      <trkpt lon="-3.166292" lat="52.999375"><ele>246.743408</ele><time>2021-09-01T09:42:03Z</time><extensions><speed>0.925024</speed><course>311.208435</course><hAcc>0.873314</hAcc><vAcc>0.668099</vAcc></extensions></trkpt>
      <trkpt lon="-3.166280" lat="52.999380"><ele>246.769409</ele><time>2021-09-01T09:42:04Z</time><extensions><speed>0.986466</speed><course>309.569458</course><hAcc>0.873508</hAcc><vAcc>0.668607</vAcc></extensions></trkpt>
      <trkpt lon="-3.166267" lat="52.999384"><ele>246.791992</ele><time>2021-09-01T09:42:05Z</time><extensions><speed>1.043020</speed><course>310.187012</course><hAcc>0.873574</hAcc><vAcc>0.668701</vAcc></extensions></trkpt>
      <trkpt lon="-3.166253" lat="52.999389"><ele>246.812271</ele><time>2021-09-01T09:42:06Z</time><extensions><speed>1.093834</speed><course>310.459808</course><hAcc>0.873520</hAcc><vAcc>0.668422</vAcc></extensions></trkpt>
      <trkpt lon="-3.166238" lat="52.999394"><ele>246.830902</ele><time>2021-09-01T09:42:07Z</time><extensions><speed>1.138022</speed><course>310.191071</course><hAcc>0.873357</hAcc><vAcc>0.667813</vAcc></extensions></trkpt>
      <trkpt lon="-3.166224" lat="52.999399"><ele>246.848572</ele><time>2021-09-01T09:42:08Z</time><extensions><speed>1.175166</speed><course>313.202332</course><hAcc>0.873094</hAcc><vAcc>0.666914</vAcc></extensions></trkpt>
      <trkpt lon="-3.166208" lat="52.999405"><ele>246.866531</ele><time>2021-09-01T09:42:09Z</time><extensions><speed>1.205456</speed><course>317.375305</course><hAcc>0.872739</hAcc><vAcc>0.665756</vAcc></extensions></trkpt>
      <trkpt lon="-3.166193" lat="52.999410"><ele>246.886444</ele><time>2021-09-01T09:42:10Z</time><extensions><speed>1.229184</speed><course>320.965942</course><hAcc>0.872298</hAcc><vAcc>0.664356</vAcc></extensions></trkpt>
      <trkpt lon="-3.166177" lat="52.999416"><ele>246.909317</ele><time>2021-09-01T09:42:11Z</time><extensions><speed>1.245914</speed><course>318.335114</course><hAcc>0.871771</hAcc><vAcc>0.662719</vAcc></extensions></trkpt>
      <trkpt lon="-3.166161" lat="52.999422"><ele>246.935349</ele><time>2021-09-01T09:42:12Z</time><extensions><speed>1.255329</speed><course>322.780487</course><hAcc>0.871160</hAcc><vAcc>0.660841</vAcc></extensions></trkpt>
      <trkpt lon="-3.166145" lat="52.999428"><ele>246.965057</ele><time>2021-09-01T09:42:13Z</time><extensions><speed>1.257161</speed><course>321.324005</course><hAcc>0.870459</hAcc><vAcc>0.658704</vAcc></extensions></trkpt>
      <trkpt lon="-3.166129" lat="52.999433"><ele>246.999847</ele><time>2021-09-01T09:42:14Z</time><extensions><speed>1.251100</speed><course>322.516296</course><hAcc>0.869664</hAcc><vAcc>0.656278</vAcc></extensions></trkpt>
      <trkpt lon="-3.166113" lat="52.999439"><ele>247.041458</ele><time>2021-09-01T09:42:15Z</time><extensions><speed>1.237881</speed><course>319.995483</course><hAcc>0.868770</hAcc><vAcc>0.653522</vAcc></extensions></trkpt>
      <trkpt lon="-3.166097" lat="52.999445"><ele>247.090988</ele><time>2021-09-01T09:42:16Z</time><extensions><speed>1.219002</speed><course>324.182892</course><hAcc>0.867772</hAcc><vAcc>0.650394</vAcc></extensions></trkpt>
      <trkpt lon="-3.166081" lat="52.999450"><ele>247.149139</ele><time>2021-09-01T09:42:17Z</time><extensions><speed>1.196204</speed><course>328.616821</course><hAcc>0.866676</hAcc><vAcc>0.646850</vAcc></extensions></trkpt>
      <trkpt lon="-3.166066" lat="52.999455"><ele>247.216400</ele><time>2021-09-01T09:42:18Z</time><extensions><speed>1.171383</speed><course>324.016815</course><hAcc>0.865490</hAcc><vAcc>0.642853</vAcc></extensions></trkpt>
      <trkpt lon="-3.166051" lat="52.999460"><ele>247.293228</ele><time>2021-09-01T09:42:19Z</time><extensions><speed>1.146227</speed><course>329.825897</course><hAcc>0.864240</hAcc><vAcc>0.638385</vAcc></extensions></trkpt>
      <trkpt lon="-3.166036" lat="52.999466"><ele>247.379990</ele><time>2021-09-01T09:42:20Z</time><extensions><speed>1.122159</speed><course>327.868408</course><hAcc>0.862965</hAcc><vAcc>0.633458</vAcc></extensions></trkpt>
      <trkpt lon="-3.166022" lat="52.999471"><ele>247.476135</ele><time>2021-09-01T09:42:21Z</time><extensions><speed>1.100301</speed><course>336.001526</course><hAcc>0.861719</hAcc><vAcc>0.628114</vAcc></extensions></trkpt>
      <trkpt lon="-3.166008" lat="52.999476"><ele>247.580551</ele><time>2021-09-01T09:42:22Z</time><extensions><speed>1.081349</speed><course>319.189575</course><hAcc>0.860571</hAcc><vAcc>0.622436</vAcc></extensions></trkpt>
      <trkpt lon="-3.165995" lat="52.999481"><ele>247.692001</ele><time>2021-09-01T09:42:23Z</time><extensions><speed>1.065692</speed><course>314.045624</course><hAcc>0.859602</hAcc><vAcc>0.616561</vAcc></extensions></trkpt>
      <trkpt lon="-3.165981" lat="52.999486"><ele>247.809067</ele><time>2021-09-01T09:42:24Z</time><extensions><speed>1.053014</speed><course>316.798950</course><hAcc>0.858900</hAcc><vAcc>0.610692</vAcc></extensions></trkpt>
      <trkpt lon="-3.165968" lat="52.999491"><ele>247.930313</ele><time>2021-09-01T09:42:25Z</time><extensions><speed>1.043099</speed><course>316.381958</course><hAcc>0.858540</hAcc><vAcc>0.605061</vAcc></extensions></trkpt>
      <trkpt lon="-3.165955" lat="52.999496"><ele>248.054306</ele><time>2021-09-01T09:42:26Z</time><extensions><speed>1.036300</speed><course>324.109985</course><hAcc>0.858555</hAcc><vAcc>0.599880</vAcc></extensions></trkpt>
      <trkpt lon="-3.165943" lat="52.999502"><ele>248.179489</ele><time>2021-09-01T09:42:27Z</time><extensions><speed>1.032357</speed><course>319.248718</course><hAcc>0.858926</hAcc><vAcc>0.595305</vAcc></extensions></trkpt>
      <trkpt lon="-3.165931" lat="52.999507"><ele>248.304153</ele><time>2021-09-01T09:42:28Z</time><extensions><speed>1.030623</speed><course>322.755310</course><hAcc>0.859593</hAcc><vAcc>0.591412</vAcc></extensions></trkpt>
      <trkpt lon="-3.165919" lat="52.999513"><ele>248.426697</ele><time>2021-09-01T09:42:29Z</time><extensions><speed>1.030894</speed><course>326.625031</course><hAcc>0.860479</hAcc><vAcc>0.588202</vAcc></extensions></trkpt>
      <trkpt lon="-3.165907" lat="52.999519"><ele>248.546082</ele><time>2021-09-01T09:42:30Z</time><extensions><speed>1.032921</speed><course>328.024994</course><hAcc>0.861517</hAcc><vAcc>0.585623</vAcc></extensions></trkpt>
      <trkpt lon="-3.165895" lat="52.999525"><ele>248.661453</ele><time>2021-09-01T09:42:31Z</time><extensions><speed>1.036361</speed><course>332.378082</course><hAcc>0.862659</hAcc><vAcc>0.583587</vAcc></extensions></trkpt>
      <trkpt lon="-3.165884" lat="52.999531"><ele>248.771820</ele><time>2021-09-01T09:42:32Z</time><extensions><speed>1.040803</speed><course>332.526154</course><hAcc>0.863887</hAcc><vAcc>0.581989</vAcc></extensions></trkpt>
      <trkpt lon="-3.165872" lat="52.999538"><ele>248.875992</ele><time>2021-09-01T09:42:33Z</time><extensions><speed>1.045511</speed><course>335.486633</course><hAcc>0.865197</hAcc><vAcc>0.580718</vAcc></extensions></trkpt>
      <trkpt lon="-3.165861" lat="52.999544"><ele>248.972717</ele><time>2021-09-01T09:42:34Z</time><extensions><speed>1.050063</speed><course>336.016846</course><hAcc>0.866580</hAcc><vAcc>0.579677</vAcc></extensions></trkpt>
      <trkpt lon="-3.165849" lat="52.999550"><ele>249.060822</ele><time>2021-09-01T09:42:35Z</time><extensions><speed>1.054299</speed><course>334.888000</course><hAcc>0.868002</hAcc><vAcc>0.578789</vAcc></extensions></trkpt>
      <trkpt lon="-3.165838" lat="52.999557"><ele>249.139572</ele><time>2021-09-01T09:42:36Z</time><extensions><speed>1.058330</speed><course>333.393311</course><hAcc>0.869400</hAcc><vAcc>0.578004</vAcc></extensions></trkpt>
      <trkpt lon="-3.165826" lat="52.999563"><ele>249.209122</ele><time>2021-09-01T09:42:37Z</time><extensions><speed>1.062035</speed><course>318.935883</course><hAcc>0.870688</hAcc><vAcc>0.577294</vAcc></extensions></trkpt>
      <trkpt lon="-3.165814" lat="52.999570"><ele>249.271027</ele><time>2021-09-01T09:42:38Z</time><extensions><speed>1.065945</speed><course>311.891724</course><hAcc>0.871772</hAcc><vAcc>0.576655</vAcc></extensions></trkpt>
      <trkpt lon="-3.165802" lat="52.999576"><ele>249.327515</ele><time>2021-09-01T09:42:39Z</time><extensions><speed>1.071210</speed><course>312.578461</course><hAcc>0.872576</hAcc><vAcc>0.576102</vAcc></extensions></trkpt>
      <trkpt lon="-3.165790" lat="52.999582"><ele>249.380295</ele><time>2021-09-01T09:42:40Z</time><extensions><speed>1.078249</speed><course>320.602325</course><hAcc>0.873065</hAcc><vAcc>0.575666</vAcc></extensions></trkpt>
      <trkpt lon="-3.165777" lat="52.999588"><ele>249.430588</ele><time>2021-09-01T09:42:41Z</time><extensions><speed>1.086854</speed><course>323.639648</course><hAcc>0.873241</hAcc><vAcc>0.575374</vAcc></extensions></trkpt>
      <trkpt lon="-3.165765" lat="52.999595"><ele>249.479279</ele><time>2021-09-01T09:42:42Z</time><extensions><speed>1.096149</speed><course>325.641083</course><hAcc>0.873141</hAcc><vAcc>0.575250</vAcc></extensions></trkpt>
      <trkpt lon="-3.165752" lat="52.999601"><ele>249.527237</ele><time>2021-09-01T09:42:43Z</time><extensions><speed>1.105521</speed><course>324.286163</course><hAcc>0.872823</hAcc><vAcc>0.575310</vAcc></extensions></trkpt>
      <trkpt lon="-3.165739" lat="52.999607"><ele>249.575226</ele><time>2021-09-01T09:42:44Z</time><extensions><speed>1.114490</speed><course>330.884674</course><hAcc>0.872357</hAcc><vAcc>0.575553</vAcc></extensions></trkpt>
      <trkpt lon="-3.165726" lat="52.999613"><ele>249.623703</ele><time>2021-09-01T09:42:45Z</time><extensions><speed>1.121888</speed><course>342.591980</course><hAcc>0.871829</hAcc><vAcc>0.575949</vAcc></extensions></trkpt>
      <trkpt lon="-3.165713" lat="52.999619"><ele>249.673370</ele><time>2021-09-01T09:42:46Z</time><extensions><speed>1.127151</speed><course>340.473694</course><hAcc>0.871322</hAcc><vAcc>0.576442</vAcc></extensions></trkpt>
      <trkpt lon="-3.165699" lat="52.999625"><ele>249.725418</ele><time>2021-09-01T09:42:47Z</time><extensions><speed>1.130565</speed><course>337.459930</course><hAcc>0.870894</hAcc><vAcc>0.576969</vAcc></extensions></trkpt>
      <trkpt lon="-3.165686" lat="52.999631"><ele>249.781494</ele><time>2021-09-01T09:42:48Z</time><extensions><speed>1.132548</speed><course>334.977905</course><hAcc>0.870573</hAcc><vAcc>0.577480</vAcc></extensions></trkpt>
      <trkpt lon="-3.165672" lat="52.999637"><ele>249.843246</ele><time>2021-09-01T09:42:49Z</time><extensions><speed>1.133977</speed><course>334.909821</course><hAcc>0.870352</hAcc><vAcc>0.577943</vAcc></extensions></trkpt>
      <trkpt lon="-3.165658" lat="52.999643"><ele>249.911407</ele><time>2021-09-01T09:42:50Z</time><extensions><speed>1.136224</speed><course>335.401093</course><hAcc>0.870204</hAcc><vAcc>0.578341</vAcc></extensions></trkpt>
      <trkpt lon="-3.165644" lat="52.999649"><ele>249.985962</ele><time>2021-09-01T09:42:51Z</time><extensions><speed>1.139815</speed><course>335.416534</course><hAcc>0.870089</hAcc><vAcc>0.578679</vAcc></extensions></trkpt>
      <trkpt lon="-3.165629" lat="52.999654"><ele>250.067307</ele><time>2021-09-01T09:42:52Z</time><extensions><speed>1.144201</speed><course>333.502777</course><hAcc>0.869960</hAcc><vAcc>0.578981</vAcc></extensions></trkpt>
      <trkpt lon="-3.165615" lat="52.999659"><ele>250.155716</ele><time>2021-09-01T09:42:53Z</time><extensions><speed>1.148994</speed><course>334.704010</course><hAcc>0.869775</hAcc><vAcc>0.579286</vAcc></extensions></trkpt>
      <trkpt lon="-3.165600" lat="52.999665"><ele>250.250580</ele><time>2021-09-01T09:42:54Z</time><extensions><speed>1.154244</speed><course>336.400421</course><hAcc>0.869517</hAcc><vAcc>0.579629</vAcc></extensions></trkpt>
      <trkpt lon="-3.165585" lat="52.999670"><ele>250.350235</ele><time>2021-09-01T09:42:55Z</time><extensions><speed>1.159711</speed><course>347.265839</course><hAcc>0.869203</hAcc><vAcc>0.580023</vAcc></extensions></trkpt>
      <trkpt lon="-3.165570" lat="52.999675"><ele>250.452957</ele><time>2021-09-01T09:42:56Z</time><extensions><speed>1.165077</speed><course>344.062927</course><hAcc>0.868888</hAcc><vAcc>0.580453</vAcc></extensions></trkpt>
      <trkpt lon="-3.165555" lat="52.999680"><ele>250.557632</ele><time>2021-09-01T09:42:57Z</time><extensions><speed>1.170161</speed><course>337.032654</course><hAcc>0.868642</hAcc><vAcc>0.580895</vAcc></extensions></trkpt>
      <trkpt lon="-3.165540" lat="52.999685"><ele>250.663467</ele><time>2021-09-01T09:42:58Z</time><extensions><speed>1.174074</speed><course>338.548584</course><hAcc>0.868532</hAcc><vAcc>0.581329</vAcc></extensions></trkpt>
      <trkpt lon="-3.165524" lat="52.999690"><ele>250.769409</ele><time>2021-09-01T09:42:59Z</time><extensions><speed>1.175889</speed><course>340.790558</course><hAcc>0.868594</hAcc><vAcc>0.581741</vAcc></extensions></trkpt>
      <trkpt lon="-3.165509" lat="52.999695"><ele>250.874298</ele><time>2021-09-01T09:43:00Z</time><extensions><speed>1.175014</speed><course>331.528198</course><hAcc>0.868838</hAcc><vAcc>0.582123</vAcc></extensions></trkpt>
      <trkpt lon="-3.165493" lat="52.999700"><ele>250.976791</ele><time>2021-09-01T09:43:01Z</time><extensions><speed>1.171580</speed><course>326.705475</course><hAcc>0.869239</hAcc><vAcc>0.582470</vAcc></extensions></trkpt>
      <trkpt lon="-3.165478" lat="52.999705"><ele>251.075272</ele><time>2021-09-01T09:43:02Z</time><extensions><speed>1.166276</speed><course>334.332062</course><hAcc>0.869747</hAcc><vAcc>0.582768</vAcc></extensions></trkpt>
      <trkpt lon="-3.165462" lat="52.999710"><ele>251.168198</ele><time>2021-09-01T09:43:03Z</time><extensions><speed>1.160055</speed><course>321.684448</course><hAcc>0.870292</hAcc><vAcc>0.583001</vAcc></extensions></trkpt>
      <trkpt lon="-3.165447" lat="52.999714"><ele>251.254578</ele><time>2021-09-01T09:43:04Z</time><extensions><speed>1.153935</speed><course>319.446838</course><hAcc>0.870814</hAcc><vAcc>0.583162</vAcc></extensions></trkpt>
      <trkpt lon="-3.165432" lat="52.999719"><ele>251.334503</ele><time>2021-09-01T09:43:05Z</time><extensions><speed>1.148076</speed><course>327.299927</course><hAcc>0.871259</hAcc><vAcc>0.583261</vAcc></extensions></trkpt>
      <trkpt lon="-3.165416" lat="52.999723"><ele>251.409256</ele><time>2021-09-01T09:43:06Z</time><extensions><speed>1.142163</speed><course>327.362518</course><hAcc>0.871596</hAcc><vAcc>0.583317</vAcc></extensions></trkpt>
      <trkpt lon="-3.165401" lat="52.999727"><ele>251.480103</ele><time>2021-09-01T09:43:07Z</time><extensions><speed>1.136272</speed><course>320.449799</course><hAcc>0.871808</hAcc><vAcc>0.583346</vAcc></extensions></trkpt>
      <trkpt lon="-3.165385" lat="52.999731"><ele>251.548401</ele><time>2021-09-01T09:43:08Z</time><extensions><speed>1.130992</speed><course>323.666901</course><hAcc>0.871895</hAcc><vAcc>0.583360</vAcc></extensions></trkpt>
      <trkpt lon="-3.165370" lat="52.999735"><ele>251.616211</ele><time>2021-09-01T09:43:09Z</time><extensions><speed>1.127069</speed><course>325.310486</course><hAcc>0.871873</hAcc><vAcc>0.583368</vAcc></extensions></trkpt>
      <trkpt lon="-3.165354" lat="52.999739"><ele>251.685303</ele><time>2021-09-01T09:43:10Z</time><extensions><speed>1.125258</speed><course>323.024933</course><hAcc>0.871764</hAcc><vAcc>0.583369</vAcc></extensions></trkpt>
      <trkpt lon="-3.165338" lat="52.999742"><ele>251.756699</ele><time>2021-09-01T09:43:11Z</time><extensions><speed>1.126075</speed><course>321.641022</course><hAcc>0.871592</hAcc><vAcc>0.583359</vAcc></extensions></trkpt>
      <trkpt lon="-3.165322" lat="52.999745"><ele>251.831207</ele><time>2021-09-01T09:43:12Z</time><extensions><speed>1.129694</speed><course>323.471222</course><hAcc>0.871374</hAcc><vAcc>0.583330</vAcc></extensions></trkpt>
      <trkpt lon="-3.165305" lat="52.999747"><ele>251.909470</ele><time>2021-09-01T09:43:13Z</time><extensions><speed>1.135840</speed><course>324.875793</course><hAcc>0.871114</hAcc><vAcc>0.583281</vAcc></extensions></trkpt>
      <trkpt lon="-3.165289" lat="52.999749"><ele>251.992035</ele><time>2021-09-01T09:43:14Z</time><extensions><speed>1.144473</speed><course>318.989594</course><hAcc>0.870801</hAcc><vAcc>0.583239</vAcc></extensions></trkpt>
      <trkpt lon="-3.165272" lat="52.999751"><ele>252.079208</ele><time>2021-09-01T09:43:15Z</time><extensions><speed>1.155820</speed><course>325.887390</course><hAcc>0.870401</hAcc><vAcc>0.583260</vAcc></extensions></trkpt>
      <trkpt lon="-3.165255" lat="52.999753"><ele>252.171066</ele><time>2021-09-01T09:43:15Z</time><extensions><speed>1.169463</speed><course>320.176544</course><hAcc>0.869881</hAcc><vAcc>0.583456</vAcc></extensions></trkpt>
      <trkpt lon="-3.165238" lat="52.999754"><ele>252.268066</ele><time>2021-09-01T09:43:16Z</time><extensions><speed>1.184095</speed><course>316.970215</course><hAcc>0.869184</hAcc><vAcc>0.583952</vAcc></extensions></trkpt>
      <trkpt lon="-3.165220" lat="52.999755"><ele>252.370163</ele><time>2021-09-01T09:43:17Z</time><extensions><speed>1.197771</speed><course>317.579376</course><hAcc>0.868262</hAcc><vAcc>0.584877</vAcc></extensions></trkpt>
      <trkpt lon="-3.165202" lat="52.999756"><ele>252.477158</ele><time>2021-09-01T09:43:18Z</time><extensions><speed>1.209111</speed><course>318.426422</course><hAcc>0.867120</hAcc><vAcc>0.586378</vAcc></extensions></trkpt>
      <trkpt lon="-3.165184" lat="52.999756"><ele>252.588333</ele><time>2021-09-01T09:43:19Z</time><extensions><speed>1.217463</speed><course>326.252594</course><hAcc>0.865803</hAcc><vAcc>0.588597</vAcc></extensions></trkpt>
      <trkpt lon="-3.165166" lat="52.999756"><ele>252.703018</ele><time>2021-09-01T09:43:20Z</time><extensions><speed>1.222260</speed><course>323.145020</course><hAcc>0.864408</hAcc><vAcc>0.591635</vAcc></extensions></trkpt>
      <trkpt lon="-3.165148" lat="52.999756"><ele>252.821365</ele><time>2021-09-01T09:43:21Z</time><extensions><speed>1.222739</speed><course>325.683777</course><hAcc>0.863088</hAcc><vAcc>0.595531</vAcc></extensions></trkpt>
      <trkpt lon="-3.165129" lat="52.999756"><ele>252.943878</ele><time>2021-09-01T09:43:22Z</time><extensions><speed>1.219047</speed><course>328.591705</course><hAcc>0.862018</hAcc><vAcc>0.600247</vAcc></extensions></trkpt>
      <trkpt lon="-3.165111" lat="52.999756"><ele>253.071182</ele><time>2021-09-01T09:43:23Z</time><extensions><speed>1.211813</speed><course>330.002411</course><hAcc>0.861341</hAcc><vAcc>0.605677</vAcc></extensions></trkpt>
      <trkpt lon="-3.165093" lat="52.999755"><ele>253.203506</ele><time>2021-09-01T09:43:24Z</time><extensions><speed>1.201305</speed><course>336.475830</course><hAcc>0.861129</hAcc><vAcc>0.611639</vAcc></extensions></trkpt>
      <trkpt lon="-3.165075" lat="52.999755"><ele>253.340714</ele><time>2021-09-01T09:43:25Z</time><extensions><speed>1.188256</speed><course>344.051849</course><hAcc>0.861368</hAcc><vAcc>0.617871</vAcc></extensions></trkpt>
      <trkpt lon="-3.165058" lat="52.999755"><ele>253.482712</ele><time>2021-09-01T09:43:26Z</time><extensions><speed>1.174357</speed><course>336.407532</course><hAcc>0.861984</hAcc><vAcc>0.624082</vAcc></extensions></trkpt>
      <trkpt lon="-3.165040" lat="52.999755"><ele>253.629410</ele><time>2021-09-01T09:43:27Z</time><extensions><speed>1.161464</speed><course>333.640045</course><hAcc>0.862867</hAcc><vAcc>0.630004</vAcc></extensions></trkpt>
      <trkpt lon="-3.165023" lat="52.999755"><ele>253.780838</ele><time>2021-09-01T09:43:28Z</time><extensions><speed>1.150239</speed><course>342.498993</course><hAcc>0.863902</hAcc><vAcc>0.635431</vAcc></extensions></trkpt>
      <trkpt lon="-3.165006" lat="52.999755"><ele>253.936874</ele><time>2021-09-01T09:43:29Z</time><extensions><speed>1.140536</speed><course>346.370605</course><hAcc>0.864988</hAcc><vAcc>0.640236</vAcc></extensions></trkpt>
      <trkpt lon="-3.164989" lat="52.999756"><ele>254.097153</ele><time>2021-09-01T09:43:30Z</time><extensions><speed>1.132052</speed><course>342.144836</course><hAcc>0.866048</hAcc><vAcc>0.644372</vAcc></extensions></trkpt>
      <trkpt lon="-3.164973" lat="52.999756"><ele>254.261047</ele><time>2021-09-01T09:43:31Z</time><extensions><speed>1.124370</speed><course>335.813446</course><hAcc>0.867031</hAcc><vAcc>0.647854</vAcc></extensions></trkpt>
      <trkpt lon="-3.164956" lat="52.999757"><ele>254.427612</ele><time>2021-09-01T09:43:32Z</time><extensions><speed>1.117381</speed><course>332.699371</course><hAcc>0.867908</hAcc><vAcc>0.650741</vAcc></extensions></trkpt>
      <trkpt lon="-3.164939" lat="52.999758"><ele>254.596039</ele><time>2021-09-01T09:43:33Z</time><extensions><speed>1.111123</speed><course>329.959167</course><hAcc>0.868670</hAcc><vAcc>0.653112</vAcc></extensions></trkpt>
      <trkpt lon="-3.164923" lat="52.999758"><ele>254.766159</ele><time>2021-09-01T09:43:34Z</time><extensions><speed>1.105290</speed><course>328.573547</course><hAcc>0.869317</hAcc><vAcc>0.655051</vAcc></extensions></trkpt>
      <trkpt lon="-3.164907" lat="52.999759"><ele>254.938278</ele><time>2021-09-01T09:43:35Z</time><extensions><speed>1.099583</speed><course>326.699219</course><hAcc>0.869859</hAcc><vAcc>0.656639</vAcc></extensions></trkpt>
      <trkpt lon="-3.164890" lat="52.999760"><ele>255.112808</ele><time>2021-09-01T09:43:36Z</time><extensions><speed>1.093965</speed><course>323.768890</course><hAcc>0.870311</hAcc><vAcc>0.657950</vAcc></extensions></trkpt>
      <trkpt lon="-3.164874" lat="52.999761"><ele>255.289871</ele><time>2021-09-01T09:43:37Z</time><extensions><speed>1.088614</speed><course>323.826019</course><hAcc>0.870690</hAcc><vAcc>0.659046</vAcc></extensions></trkpt>
      <trkpt lon="-3.164858" lat="52.999762"><ele>255.469360</ele><time>2021-09-01T09:43:38Z</time><extensions><speed>1.084260</speed><course>332.271057</course><hAcc>0.871011</hAcc><vAcc>0.659981</vAcc></extensions></trkpt>
      <trkpt lon="-3.164842" lat="52.999762"><ele>255.651428</ele><time>2021-09-01T09:43:39Z</time><extensions><speed>1.081595</speed><course>333.951233</course><hAcc>0.871291</hAcc><vAcc>0.660807</vAcc></extensions></trkpt>
      <trkpt lon="-3.164826" lat="52.999763"><ele>255.836197</ele><time>2021-09-01T09:43:40Z</time><extensions><speed>1.080809</speed><course>329.776917</course><hAcc>0.871551</hAcc><vAcc>0.661582</vAcc></extensions></trkpt>
      <trkpt lon="-3.164810" lat="52.999764"><ele>256.023682</ele><time>2021-09-01T09:43:41Z</time><extensions><speed>1.081957</speed><course>319.463959</course><hAcc>0.871808</hAcc><vAcc>0.662363</vAcc></extensions></trkpt>
      <trkpt lon="-3.164794" lat="52.999764"><ele>256.213776</ele><time>2021-09-01T09:43:42Z</time><extensions><speed>1.084451</speed><course>318.313507</course><hAcc>0.872082</hAcc><vAcc>0.663189</vAcc></extensions></trkpt>
      <trkpt lon="-3.164777" lat="52.999765"><ele>256.406006</ele><time>2021-09-01T09:43:43Z</time><extensions><speed>1.087860</speed><course>318.491211</course><hAcc>0.872389</hAcc><vAcc>0.664081</vAcc></extensions></trkpt>
      <trkpt lon="-3.164761" lat="52.999765"><ele>256.600098</ele><time>2021-09-01T09:43:44Z</time><extensions><speed>1.092084</speed><course>324.025574</course><hAcc>0.872746</hAcc><vAcc>0.665047</vAcc></extensions></trkpt>
      <trkpt lon="-3.164745" lat="52.999766"><ele>256.795807</ele><time>2021-09-01T09:43:45Z</time><extensions><speed>1.096355</speed><course>330.489594</course><hAcc>0.873174</hAcc><vAcc>0.666097</vAcc></extensions></trkpt>
      <trkpt lon="-3.164729" lat="52.999766"><ele>256.992798</ele><time>2021-09-01T09:43:46Z</time><extensions><speed>1.100272</speed><course>319.490967</course><hAcc>0.873705</hAcc><vAcc>0.667257</vAcc></extensions></trkpt>
      <trkpt lon="-3.164712" lat="52.999767"><ele>257.190765</ele><time>2021-09-01T09:43:47Z</time><extensions><speed>1.104166</speed><course>318.785126</course><hAcc>0.874378</hAcc><vAcc>0.668572</vAcc></extensions></trkpt>
      <trkpt lon="-3.164696" lat="52.999767"><ele>257.389740</ele><time>2021-09-01T09:43:48Z</time><extensions><speed>1.108848</speed><course>319.524078</course><hAcc>0.875241</hAcc><vAcc>0.670094</vAcc></extensions></trkpt>
      <trkpt lon="-3.164679" lat="52.999768"><ele>257.589722</ele><time>2021-09-01T09:43:49Z</time><extensions><speed>1.114905</speed><course>320.200592</course><hAcc>0.876339</hAcc><vAcc>0.671866</vAcc></extensions></trkpt>
      <trkpt lon="-3.164663" lat="52.999768"><ele>257.790527</ele><time>2021-09-01T09:43:50Z</time><extensions><speed>1.121408</speed><course>316.905914</course><hAcc>0.877717</hAcc><vAcc>0.673917</vAcc></extensions></trkpt>
      <trkpt lon="-3.164646" lat="52.999768"><ele>257.992004</ele><time>2021-09-01T09:43:51Z</time><extensions><speed>1.126318</speed><course>304.890350</course><hAcc>0.879404</hAcc><vAcc>0.676242</vAcc></extensions></trkpt>
      <trkpt lon="-3.164629" lat="52.999769"><ele>258.194244</ele><time>2021-09-01T09:43:52Z</time><extensions><speed>1.128316</speed><course>307.400696</course><hAcc>0.881402</hAcc><vAcc>0.678799</vAcc></extensions></trkpt>
      <trkpt lon="-3.164612" lat="52.999769"><ele>258.397217</ele><time>2021-09-01T09:43:53Z</time><extensions><speed>1.127523</speed><course>312.802460</course><hAcc>0.883677</hAcc><vAcc>0.681497</vAcc></extensions></trkpt>
      <trkpt lon="-3.164595" lat="52.999769"><ele>258.600464</ele><time>2021-09-01T09:43:54Z</time><extensions><speed>1.124615</speed><course>316.368164</course><hAcc>0.886143</hAcc><vAcc>0.684198</vAcc></extensions></trkpt>
      <trkpt lon="-3.164579" lat="52.999770"><ele>258.803253</ele><time>2021-09-01T09:43:55Z</time><extensions><speed>1.120072</speed><course>316.320160</course><hAcc>0.888659</hAcc><vAcc>0.686725</vAcc></extensions></trkpt>
      <trkpt lon="-3.164562" lat="52.999770"><ele>259.004639</ele><time>2021-09-01T09:43:56Z</time><extensions><speed>1.113265</speed><course>316.450867</course><hAcc>0.891026</hAcc><vAcc>0.688882</vAcc></extensions></trkpt>
      <trkpt lon="-3.164546" lat="52.999770"><ele>259.203613</ele><time>2021-09-01T09:43:57Z</time><extensions><speed>1.103484</speed><course>319.349792</course><hAcc>0.893012</hAcc><vAcc>0.690489</vAcc></extensions></trkpt>
      <trkpt lon="-3.164529" lat="52.999770"><ele>259.399628</ele><time>2021-09-01T09:43:58Z</time><extensions><speed>1.090862</speed><course>313.071381</course><hAcc>0.894401</hAcc><vAcc>0.691435</vAcc></extensions></trkpt>
      <trkpt lon="-3.164513" lat="52.999771"><ele>259.592285</ele><time>2021-09-01T09:43:59Z</time><extensions><speed>1.075669</speed><course>306.006348</course><hAcc>0.895096</hAcc><vAcc>0.691769</vAcc></extensions></trkpt>
      <trkpt lon="-3.164497" lat="52.999771"><ele>259.780762</ele><time>2021-09-01T09:44:00Z</time><extensions><speed>1.057820</speed><course>311.452911</course><hAcc>0.895282</hAcc><vAcc>0.691822</vAcc></extensions></trkpt>
      <trkpt lon="-3.164482" lat="52.999772"><ele>259.964874</ele><time>2021-09-01T09:44:01Z</time><extensions><speed>1.036889</speed><course>310.591675</course><hAcc>0.895689</hAcc><vAcc>0.692406</vAcc></extensions></trkpt>
      <trkpt lon="-3.164466" lat="52.999772"><ele>260.144958</ele><time>2021-09-01T09:44:02Z</time><extensions><speed>1.012982</speed><course>316.620819</course><hAcc>0.897963</hAcc><vAcc>0.695055</vAcc></extensions></trkpt>
      <trkpt lon="-3.164452" lat="52.999773"><ele>260.321228</ele><time>2021-09-01T09:44:03Z</time><extensions><speed>0.986841</speed><course>320.076630</course><hAcc>0.905122</hAcc><vAcc>0.702313</vAcc></extensions></trkpt>
      <trkpt lon="-3.164437" lat="52.999773"><ele>260.493561</ele><time>2021-09-01T09:44:04Z</time><extensions><speed>0.959990</speed><course>314.990906</course><hAcc>0.922006</hAcc><vAcc>0.717944</vAcc></extensions></trkpt>
      <trkpt lon="-3.164423" lat="52.999774"><ele>260.662201</ele><time>2021-09-01T09:44:05Z</time><extensions><speed>0.934284</speed><course>313.547699</course><hAcc>0.955439</hAcc><vAcc>0.746900</vAcc></extensions></trkpt>
      <trkpt lon="-3.164416" lat="52.999772"><ele>260.610382</ele><time>2021-09-01T09:44:06Z</time><extensions><speed>0.425346</speed><course>-1.000000</course><hAcc>0.918040</hAcc><vAcc>0.713375</vAcc></extensions></trkpt>
      <trkpt lon="-3.164410" lat="52.999772"><ele>260.724609</ele><time>2021-09-01T09:44:07Z</time><extensions><speed>0.375566</speed><course>-1.000000</course><hAcc>0.899559</hAcc><vAcc>0.694093</vAcc></extensions></trkpt>
      <trkpt lon="-3.164405" lat="52.999772"><ele>260.829285</ele><time>2021-09-01T09:44:08Z</time><extensions><speed>0.321607</speed><course>-1.000000</course><hAcc>0.891914</hAcc><vAcc>0.683901</vAcc></extensions></trkpt>
      <trkpt lon="-3.164400" lat="52.999772"><ele>260.924255</ele><time>2021-09-01T09:44:09Z</time><extensions><speed>0.266338</speed><course>-1.000000</course><hAcc>0.889583</hAcc><vAcc>0.678586</vAcc></extensions></trkpt>
      <trkpt lon="-3.164397" lat="52.999772"><ele>261.009491</ele><time>2021-09-01T09:44:10Z</time><extensions><speed>0.213219</speed><course>-1.000000</course><hAcc>0.889123</hAcc><vAcc>0.675301</vAcc></extensions></trkpt>
      <trkpt lon="-3.164394" lat="52.999771"><ele>261.085236</ele><time>2021-09-01T09:44:11Z</time><extensions><speed>0.164862</speed><course>-1.000000</course><hAcc>0.888686</hAcc><vAcc>0.672372</vAcc></extensions></trkpt>
      <trkpt lon="-3.164392" lat="52.999771"><ele>261.151947</ele><time>2021-09-01T09:44:12Z</time><extensions><speed>0.122615</speed><course>-1.000000</course><hAcc>0.887489</hAcc><vAcc>0.668995</vAcc></extensions></trkpt>
      <trkpt lon="-3.164390" lat="52.999771"><ele>261.210297</ele><time>2021-09-01T09:44:13Z</time><extensions><speed>0.086634</speed><course>-1.000000</course><hAcc>0.885385</hAcc><vAcc>0.664948</vAcc></extensions></trkpt>
      <trkpt lon="-3.164389" lat="52.999770"><ele>261.260956</ele><time>2021-09-01T09:44:14Z</time><extensions><speed>0.056018</speed><course>-1.000000</course><hAcc>0.882554</hAcc><vAcc>0.660341</vAcc></extensions></trkpt>
      <trkpt lon="-3.164389" lat="52.999770"><ele>261.304718</ele><time>2021-09-01T09:44:15Z</time><extensions><speed>0.030974</speed><course>184.559082</course><hAcc>0.879303</hAcc><vAcc>0.655443</vAcc></extensions></trkpt>
      <trkpt lon="-3.164388" lat="52.999770"><ele>261.342468</ele><time>2021-09-01T09:44:16Z</time><extensions><speed>0.024836</speed><course>-1.000000</course><hAcc>0.875949</hAcc><vAcc>0.650566</vAcc></extensions></trkpt>
      <trkpt lon="-3.164388" lat="52.999771"><ele>261.375000</ele><time>2021-09-01T09:44:17Z</time><extensions><speed>0.049224</speed><course>-1.000000</course><hAcc>0.872748</hAcc><vAcc>0.645983</vAcc></extensions></trkpt>
      <trkpt lon="-3.164388" lat="52.999771"><ele>261.403107</ele><time>2021-09-01T09:44:18Z</time><extensions><speed>0.086407</speed><course>-1.000000</course><hAcc>0.869874</hAcc><vAcc>0.641875</vAcc></extensions></trkpt>
      <trkpt lon="-3.164388" lat="52.999772"><ele>261.427307</ele><time>2021-09-01T09:44:19Z</time><extensions><speed>0.132705</speed><course>-1.000000</course><hAcc>0.867407</hAcc><vAcc>0.638307</vAcc></extensions></trkpt>
      <trkpt lon="-3.164387" lat="52.999774"><ele>261.448273</ele><time>2021-09-01T09:44:20Z</time><extensions><speed>0.187927</speed><course>53.307610</course><hAcc>0.865353</hAcc><vAcc>0.635224</vAcc></extensions></trkpt>
      <trkpt lon="-3.164387" lat="52.999776"><ele>261.466492</ele><time>2021-09-01T09:44:21Z</time><extensions><speed>0.251734</speed><course>-1.000000</course><hAcc>0.863654</hAcc><vAcc>0.632476</vAcc></extensions></trkpt>
      <trkpt lon="-3.164386" lat="52.999778"><ele>261.482147</ele><time>2021-09-01T09:44:22Z</time><extensions><speed>0.323381</speed><course>-1.000000</course><hAcc>0.862226</hAcc><vAcc>0.629868</vAcc></extensions></trkpt>
      <trkpt lon="-3.164385" lat="52.999781"><ele>261.495178</ele><time>2021-09-01T09:44:23Z</time><extensions><speed>0.401280</speed><course>-1.000000</course><hAcc>0.860989</hAcc><vAcc>0.627261</vAcc></extensions></trkpt>
      <trkpt lon="-3.164383" lat="52.999785"><ele>261.505096</ele><time>2021-09-01T09:44:24Z</time><extensions><speed>0.482873</speed><course>120.394302</course><hAcc>0.859890</hAcc><vAcc>0.624621</vAcc></extensions></trkpt>
      <trkpt lon="-3.164380" lat="52.999790"><ele>261.511230</ele><time>2021-09-01T09:44:25Z</time><extensions><speed>0.565115</speed><course>-1.000000</course><hAcc>0.858901</hAcc><vAcc>0.621989</vAcc></extensions></trkpt>
      <trkpt lon="-3.164377" lat="52.999795"><ele>261.512787</ele><time>2021-09-01T09:44:26Z</time><extensions><speed>0.644981</speed><course>-1.000000</course><hAcc>0.858008</hAcc><vAcc>0.619430</vAcc></extensions></trkpt>
      <trkpt lon="-3.164373" lat="52.999800"><ele>261.509583</ele><time>2021-09-01T09:44:27Z</time><extensions><speed>0.720821</speed><course>-1.000000</course><hAcc>0.857199</hAcc><vAcc>0.616995</vAcc></extensions></trkpt>
      <trkpt lon="-3.164368" lat="52.999807"><ele>261.502289</ele><time>2021-09-01T09:44:28Z</time><extensions><speed>0.792315</speed><course>-1.000000</course><hAcc>0.856468</hAcc><vAcc>0.614718</vAcc></extensions></trkpt>
      <trkpt lon="-3.164363" lat="52.999813"><ele>261.491455</ele><time>2021-09-01T09:44:29Z</time><extensions><speed>0.859383</speed><course>-1.000000</course><hAcc>0.855818</hAcc><vAcc>0.612645</vAcc></extensions></trkpt>
      <trkpt lon="-3.164356" lat="52.999820"><ele>261.477661</ele><time>2021-09-01T09:44:30Z</time><extensions><speed>0.922249</speed><course>-1.000000</course><hAcc>0.855271</hAcc><vAcc>0.610860</vAcc></extensions></trkpt>
      <trkpt lon="-3.164348" lat="52.999827"><ele>261.462524</ele><time>2021-09-01T09:44:31Z</time><extensions><speed>0.981009</speed><course>-1.000000</course><hAcc>0.854853</hAcc><vAcc>0.609446</vAcc></extensions></trkpt>
      <trkpt lon="-3.164339" lat="52.999834"><ele>261.448212</ele><time>2021-09-01T09:44:32Z</time><extensions><speed>1.034678</speed><course>-1.000000</course><hAcc>0.854572</hAcc><vAcc>0.608414</vAcc></extensions></trkpt>
      <trkpt lon="-3.164329" lat="52.999842"><ele>261.436249</ele><time>2021-09-01T09:44:33Z</time><extensions><speed>1.082276</speed><course>-1.000000</course><hAcc>0.854411</hAcc><vAcc>0.607674</vAcc></extensions></trkpt>
      <trkpt lon="-3.164318" lat="52.999849"><ele>261.427155</ele><time>2021-09-01T09:44:34Z</time><extensions><speed>1.123124</speed><course>-1.000000</course><hAcc>0.854336</hAcc><vAcc>0.607073</vAcc></extensions></trkpt>
      <trkpt lon="-3.164307" lat="52.999857"><ele>261.421509</ele><time>2021-09-01T09:44:35Z</time><extensions><speed>1.155966</speed><course>-1.000000</course><hAcc>0.854318</hAcc><vAcc>0.606446</vAcc></extensions></trkpt>
      <trkpt lon="-3.164295" lat="52.999864"><ele>261.419952</ele><time>2021-09-01T09:44:36Z</time><extensions><speed>1.179839</speed><course>-1.000000</course><hAcc>0.854342</hAcc><vAcc>0.605660</vAcc></extensions></trkpt>
      <trkpt lon="-3.164282" lat="52.999872"><ele>261.422424</ele><time>2021-09-01T09:44:37Z</time><extensions><speed>1.194221</speed><course>-1.000000</course><hAcc>0.854410</hAcc><vAcc>0.604631</vAcc></extensions></trkpt>
      <trkpt lon="-3.164269" lat="52.999879"><ele>261.428375</ele><time>2021-09-01T09:44:38Z</time><extensions><speed>1.198161</speed><course>-1.000000</course><hAcc>0.854540</hAcc><vAcc>0.603321</vAcc></extensions></trkpt>
      <trkpt lon="-3.164256" lat="52.999886"><ele>261.437469</ele><time>2021-09-01T09:44:39Z</time><extensions><speed>1.190895</speed><course>-1.000000</course><hAcc>0.854761</hAcc><vAcc>0.601746</vAcc></extensions></trkpt>
      <trkpt lon="-3.164243" lat="52.999893"><ele>261.449249</ele><time>2021-09-01T09:44:40Z</time><extensions><speed>1.172413</speed><course>-1.000000</course><hAcc>0.855108</hAcc><vAcc>0.599980</vAcc></extensions></trkpt>
      <trkpt lon="-3.164230" lat="52.999900"><ele>261.462158</ele><time>2021-09-01T09:44:41Z</time><extensions><speed>1.143219</speed><course>-1.000000</course><hAcc>0.855610</hAcc><vAcc>0.598143</vAcc></extensions></trkpt>
      <trkpt lon="-3.164217" lat="52.999907"><ele>261.473969</ele><time>2021-09-01T09:44:42Z</time><extensions><speed>1.103846</speed><course>-1.000000</course><hAcc>0.856265</hAcc><vAcc>0.596364</vAcc></extensions></trkpt>
      <trkpt lon="-3.164206" lat="52.999914"><ele>261.482758</ele><time>2021-09-01T09:44:43Z</time><extensions><speed>1.054667</speed><course>-1.000000</course><hAcc>0.857032</hAcc><vAcc>0.594735</vAcc></extensions></trkpt>
      <trkpt lon="-3.164195" lat="52.999920"><ele>261.487427</ele><time>2021-09-01T09:44:44Z</time><extensions><speed>0.996446</speed><course>116.725777</course><hAcc>0.857831</hAcc><vAcc>0.593301</vAcc></extensions></trkpt>
      <trkpt lon="-3.164185" lat="52.999926"><ele>261.487793</ele><time>2021-09-01T09:44:45Z</time><extensions><speed>0.930774</speed><course>116.725777</course><hAcc>0.858560</hAcc><vAcc>0.592067</vAcc></extensions></trkpt>
      <trkpt lon="-3.164176" lat="52.999932"><ele>261.483734</ele><time>2021-09-01T09:44:46Z</time><extensions><speed>0.860125</speed><course>116.725777</course><hAcc>0.859114</hAcc><vAcc>0.591024</vAcc></extensions></trkpt>
      <trkpt lon="-3.164169" lat="52.999938"><ele>261.474182</ele><time>2021-09-01T09:44:47Z</time><extensions><speed>0.787308</speed><course>116.725777</course><hAcc>0.859408</hAcc><vAcc>0.590162</vAcc></extensions></trkpt>
      <trkpt lon="-3.164162" lat="52.999944"><ele>261.457733</ele><time>2021-09-01T09:44:48Z</time><extensions><speed>0.715052</speed><course>116.725777</course><hAcc>0.859385</hAcc><vAcc>0.589477</vAcc></extensions></trkpt>
      <trkpt lon="-3.164157" lat="52.999949"><ele>261.434326</ele><time>2021-09-01T09:44:49Z</time><extensions><speed>0.645727</speed><course>116.725784</course><hAcc>0.859020</hAcc><vAcc>0.588971</vAcc></extensions></trkpt>
      <trkpt lon="-3.164153" lat="52.999954"><ele>261.405304</ele><time>2021-09-01T09:44:50Z</time><extensions><speed>0.581743</speed><course>116.725784</course><hAcc>0.858325</hAcc><vAcc>0.588646</vAcc></extensions></trkpt>
      <trkpt lon="-3.164151" lat="52.999959"><ele>261.372101</ele><time>2021-09-01T09:44:51Z</time><extensions><speed>0.524646</speed><course>116.725784</course><hAcc>0.857356</hAcc><vAcc>0.588487</vAcc></extensions></trkpt>
      <trkpt lon="-3.164149" lat="52.999963"><ele>261.335266</ele><time>2021-09-01T09:44:52Z</time><extensions><speed>0.473821</speed><course>116.725784</course><hAcc>0.856206</hAcc><vAcc>0.588456</vAcc></extensions></trkpt>
      <trkpt lon="-3.164149" lat="52.999967"><ele>261.294800</ele><time>2021-09-01T09:44:53Z</time><extensions><speed>0.428587</speed><course>116.725784</course><hAcc>0.854997</hAcc><vAcc>0.588492</vAcc></extensions></trkpt>
      <trkpt lon="-3.164149" lat="52.999971"><ele>261.250397</ele><time>2021-09-01T09:44:54Z</time><extensions><speed>0.389518</speed><course>116.725784</course><hAcc>0.853848</hAcc><vAcc>0.588521</vAcc></extensions></trkpt>
      <trkpt lon="-3.164149" lat="52.999974"><ele>261.201813</ele><time>2021-09-01T09:44:55Z</time><extensions><speed>0.357858</speed><course>116.725784</course><hAcc>0.852850</hAcc><vAcc>0.588489</vAcc></extensions></trkpt>
      <trkpt lon="-3.164150" lat="52.999977"><ele>261.149048</ele><time>2021-09-01T09:44:56Z</time><extensions><speed>0.335187</speed><course>116.725784</course><hAcc>0.852059</hAcc><vAcc>0.588388</vAcc></extensions></trkpt>
      <trkpt lon="-3.164152" lat="52.999980"><ele>261.092438</ele><time>2021-09-01T09:44:57Z</time><extensions><speed>0.322255</speed><course>116.725784</course><hAcc>0.851506</hAcc><vAcc>0.588256</vAcc></extensions></trkpt>
      <trkpt lon="-3.164154" lat="52.999983"><ele>261.032532</ele><time>2021-09-01T09:44:58Z</time><extensions><speed>0.318366</speed><course>116.725784</course><hAcc>0.851197</hAcc><vAcc>0.588165</vAcc></extensions></trkpt>
      <trkpt lon="-3.164156" lat="52.999985"><ele>260.969971</ele><time>2021-09-01T09:44:59Z</time><extensions><speed>0.321456</speed><course>116.725784</course><hAcc>0.851120</hAcc><vAcc>0.588202</vAcc></extensions></trkpt>
      <trkpt lon="-3.164159" lat="52.999987"><ele>260.905060</ele><time>2021-09-01T09:45:00Z</time><extensions><speed>0.328645</speed><course>116.725784</course><hAcc>0.851242</hAcc><vAcc>0.588429</vAcc></extensions></trkpt>
      <trkpt lon="-3.164162" lat="52.999990"><ele>260.837524</ele><time>2021-09-01T09:45:01Z</time><extensions><speed>0.336935</speed><course>116.725784</course><hAcc>0.851516</hAcc><vAcc>0.588841</vAcc></extensions></trkpt>
      <trkpt lon="-3.164165" lat="52.999992"><ele>260.767212</ele><time>2021-09-01T09:45:02Z</time><extensions><speed>0.343935</speed><course>116.725784</course><hAcc>0.851901</hAcc><vAcc>0.589317</vAcc></extensions></trkpt>
      <trkpt lon="-3.164168" lat="52.999995"><ele>260.694244</ele><time>2021-09-01T09:45:03Z</time><extensions><speed>0.348403</speed><course>116.725784</course><hAcc>0.852374</hAcc><vAcc>0.589628</vAcc></extensions></trkpt>
      <trkpt lon="-3.164172" lat="52.999997"><ele>260.619232</ele><time>2021-09-01T09:45:04Z</time><extensions><speed>0.350185</speed><course>116.725784</course><hAcc>0.852942</hAcc><vAcc>0.589559</vAcc></extensions></trkpt>
      <trkpt lon="-3.164175" lat="53.000000"><ele>260.543213</ele><time>2021-09-01T09:45:05Z</time><extensions><speed>0.350214</speed><course>116.725784</course><hAcc>0.853654</hAcc><vAcc>0.589037</vAcc></extensions></trkpt>
      <trkpt lon="-3.164177" lat="53.000002"><ele>260.467529</ele><time>2021-09-01T09:45:06Z</time><extensions><speed>0.350063</speed><course>116.725777</course><hAcc>0.854612</hAcc><vAcc>0.588139</vAcc></extensions></trkpt>
      <trkpt lon="-3.164180" lat="53.000005"><ele>260.393829</ele><time>2021-09-01T09:45:07Z</time><extensions><speed>0.351897</speed><course>116.725769</course><hAcc>0.855953</hAcc><vAcc>0.587023</vAcc></extensions></trkpt>
      <trkpt lon="-3.164182" lat="53.000008"><ele>260.323700</ele><time>2021-09-01T09:45:08Z</time><extensions><speed>0.358415</speed><course>116.725769</course><hAcc>0.857837</hAcc><vAcc>0.585858</vAcc></extensions></trkpt>
      <trkpt lon="-3.164184" lat="53.000011"><ele>260.258728</ele><time>2021-09-01T09:45:09Z</time><extensions><speed>0.371798</speed><course>116.725761</course><hAcc>0.860461</hAcc><vAcc>0.584795</vAcc></extensions></trkpt>
      <trkpt lon="-3.164185" lat="53.000015"><ele>260.200562</ele><time>2021-09-01T09:45:10Z</time><extensions><speed>0.393858</speed><course>116.725754</course><hAcc>0.864084</hAcc><vAcc>0.583983</vAcc></extensions></trkpt>
      <trkpt lon="-3.164186" lat="53.000018"><ele>260.150879</ele><time>2021-09-01T09:45:12Z</time><extensions><speed>0.426482</speed><course>116.725746</course><hAcc>0.869035</hAcc><vAcc>0.583572</vAcc></extensions></trkpt>
      <trkpt lon="-3.164186" lat="53.000022"><ele>260.111725</ele><time>2021-09-01T09:45:13Z</time><extensions><speed>0.470280</speed><course>116.725746</course><hAcc>0.875752</hAcc><vAcc>0.583755</vAcc></extensions></trkpt>
      <trkpt lon="-3.164185" lat="53.000027"><ele>260.085052</ele><time>2021-09-01T09:45:14Z</time><extensions><speed>0.523825</speed><course>116.725731</course><hAcc>0.884793</hAcc><vAcc>0.584799</vAcc></extensions></trkpt>
      <trkpt lon="-3.164184" lat="53.000032"><ele>260.072601</ele><time>2021-09-01T09:45:15Z</time><extensions><speed>0.584520</speed><course>116.725723</course><hAcc>0.896735</hAcc><vAcc>0.587061</vAcc></extensions></trkpt>
      <trkpt lon="-3.164182" lat="53.000037"><ele>260.075867</ele><time>2021-09-01T09:45:16Z</time><extensions><speed>0.649023</speed><course>116.725723</course><hAcc>0.912112</hAcc><vAcc>0.590993</vAcc></extensions></trkpt>
      <trkpt lon="-3.164180" lat="53.000043"><ele>260.096191</ele><time>2021-09-01T09:45:17Z</time><extensions><speed>0.713358</speed><course>116.725708</course><hAcc>0.931329</hAcc><vAcc>0.597076</vAcc></extensions></trkpt>
      <trkpt lon="-3.164178" lat="53.000050"><ele>260.134186</ele><time>2021-09-01T09:45:18Z</time><extensions><speed>0.774131</speed><course>116.725700</course><hAcc>0.954570</hAcc><vAcc>0.605703</vAcc></extensions></trkpt>
      <trkpt lon="-3.164175" lat="53.000057"><ele>260.189484</ele><time>2021-09-01T09:45:19Z</time><extensions><speed>0.828210</speed><course>116.725693</course><hAcc>0.981705</hAcc><vAcc>0.617042</vAcc></extensions></trkpt>
      <trkpt lon="-3.164172" lat="53.000064"><ele>260.260559</ele><time>2021-09-01T09:45:20Z</time><extensions><speed>0.872578</speed><course>116.725685</course><hAcc>1.012283</hAcc><vAcc>0.630955</vAcc></extensions></trkpt>
      <trkpt lon="-3.164169" lat="53.000072"><ele>260.344849</ele><time>2021-09-01T09:45:21Z</time><extensions><speed>0.905371</speed><course>116.725670</course><hAcc>1.045673</hAcc><vAcc>0.647089</vAcc></extensions></trkpt>
      <trkpt lon="-3.164167" lat="53.000080"><ele>260.438995</ele><time>2021-09-01T09:45:22Z</time><extensions><speed>0.925958</speed><course>116.725670</course><hAcc>1.081243</hAcc><vAcc>0.665047</vAcc></extensions></trkpt>
      <trkpt lon="-3.164164" lat="53.000088"><ele>260.539185</ele><time>2021-09-01T09:45:23Z</time><extensions><speed>0.934862</speed><course>116.725662</course><hAcc>1.118457</hAcc><vAcc>0.684483</vAcc></extensions></trkpt>
      <trkpt lon="-3.164162" lat="53.000096"><ele>260.641632</ele><time>2021-09-01T09:45:24Z</time><extensions><speed>0.933800</speed><course>316.510925</course><hAcc>1.156885</hAcc><vAcc>0.705126</vAcc></extensions></trkpt>
      <trkpt lon="-3.164161" lat="53.000105"><ele>260.742737</ele><time>2021-09-01T09:45:25Z</time><extensions><speed>0.925557</speed><course>325.771881</course><hAcc>1.196169</hAcc><vAcc>0.726762</vAcc></extensions></trkpt>
      <trkpt lon="-3.164160" lat="53.000113"><ele>260.839630</ele><time>2021-09-01T09:45:26Z</time><extensions><speed>0.913495</speed><course>329.412018</course><hAcc>1.235977</hAcc><vAcc>0.749201</vAcc></extensions></trkpt>
      <trkpt lon="-3.164160" lat="53.000121"><ele>260.930359</ele><time>2021-09-01T09:45:27Z</time><extensions><speed>0.900301</speed><course>328.807678</course><hAcc>1.275936</hAcc><vAcc>0.772228</vAcc></extensions></trkpt>
      <trkpt lon="-3.164160" lat="53.000129"><ele>261.013641</ele><time>2021-09-01T09:45:28Z</time><extensions><speed>0.887918</speed><course>328.238739</course><hAcc>1.315592</hAcc><vAcc>0.795559</vAcc></extensions></trkpt>
      <trkpt lon="-3.164161" lat="53.000137"><ele>261.088531</ele><time>2021-09-01T09:45:29Z</time><extensions><speed>0.877612</speed><course>328.754333</course><hAcc>1.354391</hAcc><vAcc>0.818827</vAcc></extensions></trkpt>
      <trkpt lon="-3.164163" lat="53.000145"><ele>261.154205</ele><time>2021-09-01T09:45:29Z</time><extensions><speed>0.870075</speed><course>321.291412</course><hAcc>1.391675</hAcc><vAcc>0.841571</vAcc></extensions></trkpt>
      <trkpt lon="-3.164165" lat="53.000153"><ele>261.210236</ele><time>2021-09-01T09:45:30Z</time><extensions><speed>0.865805</speed><course>315.163422</course><hAcc>1.426825</hAcc><vAcc>0.863338</vAcc></extensions></trkpt>
      <trkpt lon="-3.164168" lat="53.000160"><ele>261.256134</ele><time>2021-09-01T09:45:31Z</time><extensions><speed>0.864963</speed><course>320.356079</course><hAcc>1.459101</hAcc><vAcc>0.883584</vAcc></extensions></trkpt>
      <trkpt lon="-3.164171" lat="53.000168"><ele>261.291748</ele><time>2021-09-01T09:45:32Z</time><extensions><speed>0.867422</speed><course>314.759003</course><hAcc>1.487873</hAcc><vAcc>0.901838</vAcc></extensions></trkpt>
      <trkpt lon="-3.164175" lat="53.000175"><ele>261.316986</ele><time>2021-09-01T09:45:33Z</time><extensions><speed>0.873001</speed><course>306.430359</course><hAcc>1.512584</hAcc><vAcc>0.917676</vAcc></extensions></trkpt>
      <trkpt lon="-3.164180" lat="53.000182"><ele>261.332001</ele><time>2021-09-01T09:45:34Z</time><extensions><speed>0.881682</speed><course>312.642456</course><hAcc>1.532741</hAcc><vAcc>0.930709</vAcc></extensions></trkpt>
      <trkpt lon="-3.164185" lat="53.000190"><ele>261.337097</ele><time>2021-09-01T09:45:35Z</time><extensions><speed>0.893742</speed><course>309.329712</course><hAcc>1.547917</hAcc><vAcc>0.940578</vAcc></extensions></trkpt>
      <trkpt lon="-3.164191" lat="53.000197"><ele>261.332794</ele><time>2021-09-01T09:45:36Z</time><extensions><speed>0.909198</speed><course>306.517120</course><hAcc>1.557793</hAcc><vAcc>0.946992</vAcc></extensions></trkpt>
      <trkpt lon="-3.164197" lat="53.000204"><ele>261.319855</ele><time>2021-09-01T09:45:37Z</time><extensions><speed>0.927911</speed><course>302.169647</course><hAcc>1.562177</hAcc><vAcc>0.949744</vAcc></extensions></trkpt>
      <trkpt lon="-3.164204" lat="53.000212"><ele>261.299438</ele><time>2021-09-01T09:45:38Z</time><extensions><speed>0.949879</speed><course>299.953156</course><hAcc>1.561025</hAcc><vAcc>0.948732</vAcc></extensions></trkpt>
      <trkpt lon="-3.164212" lat="53.000219"><ele>261.272797</ele><time>2021-09-01T09:45:39Z</time><extensions><speed>0.975082</speed><course>299.473511</course><hAcc>1.554475</hAcc><vAcc>0.943992</vAcc></extensions></trkpt>
      <trkpt lon="-3.164219" lat="53.000227"><ele>261.241394</ele><time>2021-09-01T09:45:40Z</time><extensions><speed>1.003442</speed><course>298.103729</course><hAcc>1.542897</hAcc><vAcc>0.935745</vAcc></extensions></trkpt>
      <trkpt lon="-3.164227" lat="53.000234"><ele>261.206757</ele><time>2021-09-01T09:45:41Z</time><extensions><speed>1.034493</speed><course>294.101929</course><hAcc>1.526924</hAcc><vAcc>0.924433</vAcc></extensions></trkpt>
      <trkpt lon="-3.164236" lat="53.000242"><ele>261.170380</ele><time>2021-09-01T09:45:42Z</time><extensions><speed>1.067591</speed><course>298.669067</course><hAcc>1.507444</hAcc><vAcc>0.910711</vAcc></extensions></trkpt>
      <trkpt lon="-3.164245" lat="53.000250"><ele>261.133820</ele><time>2021-09-01T09:45:43Z</time><extensions><speed>1.102534</speed><course>297.460327</course><hAcc>1.485520</hAcc><vAcc>0.895383</vAcc></extensions></trkpt>
      <trkpt lon="-3.164254" lat="53.000259"><ele>261.098785</ele><time>2021-09-01T09:45:44Z</time><extensions><speed>1.139491</speed><course>300.643127</course><hAcc>1.462288</hAcc><vAcc>0.879317</vAcc></extensions></trkpt>
      <trkpt lon="-3.164263" lat="53.000268"><ele>261.067230</ele><time>2021-09-01T09:45:45Z</time><extensions><speed>1.178360</speed><course>300.762909</course><hAcc>1.438854</hAcc><vAcc>0.863359</vAcc></extensions></trkpt>
      <trkpt lon="-3.164273" lat="53.000277"><ele>261.041107</ele><time>2021-09-01T09:45:46Z</time><extensions><speed>1.218627</speed><course>306.221161</course><hAcc>1.416237</hAcc><vAcc>0.848288</vAcc></extensions></trkpt>
      <trkpt lon="-3.164283" lat="53.000286"><ele>261.022156</ele><time>2021-09-01T09:45:47Z</time><extensions><speed>1.259203</speed><course>311.753571</course><hAcc>1.395319</hAcc><vAcc>0.834789</vAcc></extensions></trkpt>
      <trkpt lon="-3.164292" lat="53.000296"><ele>261.011902</ele><time>2021-09-01T09:45:48Z</time><extensions><speed>1.298862</speed><course>314.039551</course><hAcc>1.376760</hAcc><vAcc>0.823372</vAcc></extensions></trkpt>
      <trkpt lon="-3.164302" lat="53.000306"><ele>261.011536</ele><time>2021-09-01T09:45:49Z</time><extensions><speed>1.336574</speed><course>316.125336</course><hAcc>1.360881</hAcc><vAcc>0.814278</vAcc></extensions></trkpt>
      <trkpt lon="-3.164312" lat="53.000317"><ele>261.021881</ele><time>2021-09-01T09:45:50Z</time><extensions><speed>1.371329</speed><course>313.054962</course><hAcc>1.347582</hAcc><vAcc>0.807407</vAcc></extensions></trkpt>
      <trkpt lon="-3.164322" lat="53.000328"><ele>261.043457</ele><time>2021-09-01T09:45:51Z</time><extensions><speed>1.402422</speed><course>309.718231</course><hAcc>1.336361</hAcc><vAcc>0.802324</vAcc></extensions></trkpt>
      <trkpt lon="-3.164332" lat="53.000339"><ele>261.076416</ele><time>2021-09-01T09:45:52Z</time><extensions><speed>1.429381</speed><course>315.993652</course><hAcc>1.326414</hAcc><vAcc>0.798349</vAcc></extensions></trkpt>
      <trkpt lon="-3.164341" lat="53.000351"><ele>261.120697</ele><time>2021-09-01T09:45:53Z</time><extensions><speed>1.451875</speed><course>314.639465</course><hAcc>1.316777</hAcc><vAcc>0.794673</vAcc></extensions></trkpt>
      <trkpt lon="-3.164351" lat="53.000363"><ele>261.176056</ele><time>2021-09-01T09:45:54Z</time><extensions><speed>1.470004</speed><course>314.699524</course><hAcc>1.306496</hAcc><vAcc>0.790508</vAcc></extensions></trkpt>
      <trkpt lon="-3.164360" lat="53.000375"><ele>261.242249</ele><time>2021-09-01T09:45:55Z</time><extensions><speed>1.484090</speed><course>315.537170</course><hAcc>1.294766</hAcc><vAcc>0.785198</vAcc></extensions></trkpt>
      <trkpt lon="-3.164370" lat="53.000387"><ele>261.318939</ele><time>2021-09-01T09:45:56Z</time><extensions><speed>1.494540</speed><course>315.384186</course><hAcc>1.281029</hAcc><vAcc>0.778297</vAcc></extensions></trkpt>
      <trkpt lon="-3.164379" lat="53.000399"><ele>261.405853</ele><time>2021-09-01T09:45:57Z</time><extensions><speed>1.501549</speed><course>316.068207</course><hAcc>1.265036</hAcc><vAcc>0.769613</vAcc></extensions></trkpt>
      <trkpt lon="-3.164388" lat="53.000411"><ele>261.502502</ele><time>2021-09-01T09:45:58Z</time><extensions><speed>1.504636</speed><course>319.526184</course><hAcc>1.246896</hAcc><vAcc>0.759249</vAcc></extensions></trkpt>
      <trkpt lon="-3.164397" lat="53.000424"><ele>261.608307</ele><time>2021-09-01T09:45:59Z</time><extensions><speed>1.503740</speed><course>322.032959</course><hAcc>1.227043</hAcc><vAcc>0.747560</vAcc></extensions></trkpt>
      <trkpt lon="-3.164406" lat="53.000436"><ele>261.722534</ele><time>2021-09-01T09:46:00Z</time><extensions><speed>1.499721</speed><course>326.209290</course><hAcc>1.206091</hAcc><vAcc>0.735035</vAcc></extensions></trkpt>
      <trkpt lon="-3.164414" lat="53.000448"><ele>261.844269</ele><time>2021-09-01T09:46:01Z</time><extensions><speed>1.492893</speed><course>324.142303</course><hAcc>1.184684</hAcc><vAcc>0.722164</vAcc></extensions></trkpt>
      <trkpt lon="-3.164423" lat="53.000461"><ele>261.972015</ele><time>2021-09-01T09:46:02Z</time><extensions><speed>1.482877</speed><course>332.193542</course><hAcc>1.163425</hAcc><vAcc>0.709393</vAcc></extensions></trkpt>
      <trkpt lon="-3.164431" lat="53.000473"><ele>262.104431</ele><time>2021-09-01T09:46:03Z</time><extensions><speed>1.469578</speed><course>329.558014</course><hAcc>1.142836</hAcc><vAcc>0.697099</vAcc></extensions></trkpt>
      <trkpt lon="-3.164439" lat="53.000485"><ele>262.240631</ele><time>2021-09-01T09:46:04Z</time><extensions><speed>1.452784</speed><course>323.309692</course><hAcc>1.123303</hAcc><vAcc>0.685560</vAcc></extensions></trkpt>
      <trkpt lon="-3.164447" lat="53.000497"><ele>262.380005</ele><time>2021-09-01T09:46:05Z</time><extensions><speed>1.432164</speed><course>319.992767</course><hAcc>1.105026</hAcc><vAcc>0.674915</vAcc></extensions></trkpt>
      <trkpt lon="-3.164455" lat="53.000509"><ele>262.521973</ele><time>2021-09-01T09:46:06Z</time><extensions><speed>1.407833</speed><course>322.539886</course><hAcc>1.088013</hAcc><vAcc>0.665163</vAcc></extensions></trkpt>
      <trkpt lon="-3.164462" lat="53.000521"><ele>262.665863</ele><time>2021-09-01T09:46:07Z</time><extensions><speed>1.380304</speed><course>317.532928</course><hAcc>1.072121</hAcc><vAcc>0.656198</vAcc></extensions></trkpt>
      <trkpt lon="-3.164469" lat="53.000532"><ele>262.810791</ele><time>2021-09-01T09:46:08Z</time><extensions><speed>1.350040</speed><course>314.725220</course><hAcc>1.057109</hAcc><vAcc>0.647842</vAcc></extensions></trkpt>
      <trkpt lon="-3.164476" lat="53.000544"><ele>262.955566</ele><time>2021-09-01T09:46:09Z</time><extensions><speed>1.317361</speed><course>325.463684</course><hAcc>1.042669</hAcc><vAcc>0.639863</vAcc></extensions></trkpt>
      <trkpt lon="-3.164482" lat="53.000555"><ele>263.098755</ele><time>2021-09-01T09:46:10Z</time><extensions><speed>1.282280</speed><course>326.490570</course><hAcc>1.028474</hAcc><vAcc>0.632003</vAcc></extensions></trkpt>
      <trkpt lon="-3.164489" lat="53.000565"><ele>263.238525</ele><time>2021-09-01T09:46:11Z</time><extensions><speed>1.244115</speed><course>316.111328</course><hAcc>1.014282</hAcc><vAcc>0.624062</vAcc></extensions></trkpt>
      <trkpt lon="-3.164495" lat="53.000576"><ele>263.372498</ele><time>2021-09-01T09:46:12Z</time><extensions><speed>1.202688</speed><course>316.470520</course><hAcc>1.000048</hAcc><vAcc>0.615994</vAcc></extensions></trkpt>
      <trkpt lon="-3.164500" lat="53.000586"><ele>263.498383</ele><time>2021-09-01T09:46:13Z</time><extensions><speed>1.159883</speed><course>317.921600</course><hAcc>0.985947</hAcc><vAcc>0.607924</vAcc></extensions></trkpt>
      <trkpt lon="-3.164506" lat="53.000595"><ele>263.614716</ele><time>2021-09-01T09:46:14Z</time><extensions><speed>1.118719</speed><course>317.925903</course><hAcc>0.972305</hAcc><vAcc>0.600090</vAcc></extensions></trkpt>
      <trkpt lon="-3.164511" lat="53.000605"><ele>263.720490</ele><time>2021-09-01T09:46:15Z</time><extensions><speed>1.081421</speed><course>316.840515</course><hAcc>0.959540</hAcc><vAcc>0.592808</vAcc></extensions></trkpt>
      <trkpt lon="-3.164516" lat="53.000614"><ele>263.815186</ele><time>2021-09-01T09:46:16Z</time><extensions><speed>1.049766</speed><course>321.987762</course><hAcc>0.948120</hAcc><vAcc>0.586432</vAcc></extensions></trkpt>
      <trkpt lon="-3.164520" lat="53.000623"><ele>263.899323</ele><time>2021-09-01T09:46:17Z</time><extensions><speed>1.025866</speed><course>314.291290</course><hAcc>0.938454</hAcc><vAcc>0.581269</vAcc></extensions></trkpt>
      <trkpt lon="-3.164524" lat="53.000632"><ele>263.974976</ele><time>2021-09-01T09:46:18Z</time><extensions><speed>1.011071</speed><course>311.665222</course><hAcc>0.930778</hAcc><vAcc>0.577491</vAcc></extensions></trkpt>
      <trkpt lon="-3.164527" lat="53.000641"><ele>264.044922</ele><time>2021-09-01T09:46:19Z</time><extensions><speed>1.005501</speed><course>315.645782</course><hAcc>0.925131</hAcc><vAcc>0.575115</vAcc></extensions></trkpt>
      <trkpt lon="-3.164530" lat="53.000649"><ele>264.112213</ele><time>2021-09-01T09:46:20Z</time><extensions><speed>1.008491</speed><course>312.390594</course><hAcc>0.921393</hAcc><vAcc>0.574050</vAcc></extensions></trkpt>
      <trkpt lon="-3.164533" lat="53.000658"><ele>264.180176</ele><time>2021-09-01T09:46:21Z</time><extensions><speed>1.019023</speed><course>315.968140</course><hAcc>0.919328</hAcc><vAcc>0.574140</vAcc></extensions></trkpt>
      <trkpt lon="-3.164535" lat="53.000668"><ele>264.252197</ele><time>2021-09-01T09:46:22Z</time><extensions><speed>1.036053</speed><course>305.843231</course><hAcc>0.918612</hAcc><vAcc>0.575198</vAcc></extensions></trkpt>
      <trkpt lon="-3.164536" lat="53.000677"><ele>264.331177</ele><time>2021-09-01T09:46:23Z</time><extensions><speed>1.058419</speed><course>307.428955</course><hAcc>0.918890</hAcc><vAcc>0.577021</vAcc></extensions></trkpt>
      <trkpt lon="-3.164537" lat="53.000687"><ele>264.419586</ele><time>2021-09-01T09:46:24Z</time><extensions><speed>1.084552</speed><course>303.591888</course><hAcc>0.919817</hAcc><vAcc>0.579398</vAcc></extensions></trkpt>
      <trkpt lon="-3.164537" lat="53.000696"><ele>264.519745</ele><time>2021-09-01T09:46:25Z</time><extensions><speed>1.112062</speed><course>302.311584</course><hAcc>0.921090</hAcc><vAcc>0.582149</vAcc></extensions></trkpt>
      <trkpt lon="-3.164538" lat="53.000707"><ele>264.633423</ele><time>2021-09-01T09:46:26Z</time><extensions><speed>1.137457</speed><course>296.010498</course><hAcc>0.922456</hAcc><vAcc>0.585141</vAcc></extensions></trkpt>
      <trkpt lon="-3.164537" lat="53.000717"><ele>264.760895</ele><time>2021-09-01T09:46:27Z</time><extensions><speed>1.156657</speed><course>298.597748</course><hAcc>0.923729</hAcc><vAcc>0.588275</vAcc></extensions></trkpt>
      <trkpt lon="-3.164537" lat="53.000727"><ele>264.901093</ele><time>2021-09-01T09:46:28Z</time><extensions><speed>1.166012</speed><course>307.419373</course><hAcc>0.924813</hAcc><vAcc>0.591461</vAcc></extensions></trkpt>
      <trkpt lon="-3.164537" lat="53.000738"><ele>265.052002</ele><time>2021-09-01T09:46:29Z</time><extensions><speed>1.163680</speed><course>311.127045</course><hAcc>0.925690</hAcc><vAcc>0.594624</vAcc></extensions></trkpt>
      <trkpt lon="-3.164537" lat="53.000748"><ele>265.211639</ele><time>2021-09-01T09:46:30Z</time><extensions><speed>1.150109</speed><course>308.779785</course><hAcc>0.926377</hAcc><vAcc>0.597697</vAcc></extensions></trkpt>
      <trkpt lon="-3.164537" lat="53.000758"><ele>265.377716</ele><time>2021-09-01T09:46:31Z</time><extensions><speed>1.127466</speed><course>310.817932</course><hAcc>0.926892</hAcc><vAcc>0.600616</vAcc></extensions></trkpt>
      <trkpt lon="-3.164537" lat="53.000768"><ele>265.547363</ele><time>2021-09-01T09:46:32Z</time><extensions><speed>1.098876</speed><course>313.903961</course><hAcc>0.927240</hAcc><vAcc>0.603310</vAcc></extensions></trkpt>
      <trkpt lon="-3.164538" lat="53.000778"><ele>265.717865</ele><time>2021-09-01T09:46:33Z</time><extensions><speed>1.067067</speed><course>312.113068</course><hAcc>0.927428</hAcc><vAcc>0.605705</vAcc></extensions></trkpt>
      <trkpt lon="-3.164539" lat="53.000788"><ele>265.886780</ele><time>2021-09-01T09:46:34Z</time><extensions><speed>1.033905</speed><course>298.693726</course><hAcc>0.927497</hAcc><vAcc>0.607747</vAcc></extensions></trkpt>
      <trkpt lon="-3.164540" lat="53.000797"><ele>266.051544</ele><time>2021-09-01T09:46:35Z</time><extensions><speed>1.001193</speed><course>304.126526</course><hAcc>0.927525</hAcc><vAcc>0.609414</vAcc></extensions></trkpt>
      <trkpt lon="-3.164541" lat="53.000805"><ele>266.210052</ele><time>2021-09-01T09:46:36Z</time><extensions><speed>0.970511</speed><course>307.202972</course><hAcc>0.927624</hAcc><vAcc>0.610726</vAcc></extensions></trkpt>
      <trkpt lon="-3.164543" lat="53.000814"><ele>266.360657</ele><time>2021-09-01T09:46:37Z</time><extensions><speed>0.942846</speed><course>306.849365</course><hAcc>0.927912</hAcc><vAcc>0.611719</vAcc></extensions></trkpt>
      <trkpt lon="-3.164546" lat="53.000822"><ele>266.502075</ele><time>2021-09-01T09:46:38Z</time><extensions><speed>0.919321</speed><course>311.228149</course><hAcc>0.928489</hAcc><vAcc>0.612426</vAcc></extensions></trkpt>
      <trkpt lon="-3.164548" lat="53.000830"><ele>266.633728</ele><time>2021-09-01T09:46:39Z</time><extensions><speed>0.900659</speed><course>314.984741</course><hAcc>0.929408</hAcc><vAcc>0.612880</vAcc></extensions></trkpt>
      <trkpt lon="-3.164551" lat="53.000838"><ele>266.755371</ele><time>2021-09-01T09:46:40Z</time><extensions><speed>0.887339</speed><course>312.149628</course><hAcc>0.930658</hAcc><vAcc>0.613097</vAcc></extensions></trkpt>
      <trkpt lon="-3.164554" lat="53.000846"><ele>266.867462</ele><time>2021-09-01T09:46:41Z</time><extensions><speed>0.880486</speed><course>303.811646</course><hAcc>0.932188</hAcc><vAcc>0.613070</vAcc></extensions></trkpt>
      <trkpt lon="-3.164557" lat="53.000854"><ele>266.971008</ele><time>2021-09-01T09:46:42Z</time><extensions><speed>0.881797</speed><course>306.939087</course><hAcc>0.933949</hAcc><vAcc>0.612778</vAcc></extensions></trkpt>
      <trkpt lon="-3.164561" lat="53.000861"><ele>267.067261</ele><time>2021-09-01T09:46:43Z</time><extensions><speed>0.892476</speed><course>305.149933</course><hAcc>0.935917</hAcc><vAcc>0.612212</vAcc></extensions></trkpt>
      <trkpt lon="-3.164565" lat="53.000869"><ele>267.157745</ele><time>2021-09-01T09:46:44Z</time><extensions><speed>0.912484</speed><course>307.460999</course><hAcc>0.938078</hAcc><vAcc>0.611389</vAcc></extensions></trkpt>
      <trkpt lon="-3.164569" lat="53.000877"><ele>267.244202</ele><time>2021-09-01T09:46:45Z</time><extensions><speed>0.941073</speed><course>310.556549</course><hAcc>0.940416</hAcc><vAcc>0.610357</vAcc></extensions></trkpt>
      <trkpt lon="-3.164573" lat="53.000885"><ele>267.328308</ele><time>2021-09-01T09:46:46Z</time><extensions><speed>0.977090</speed><course>316.643463</course><hAcc>0.942905</hAcc><vAcc>0.609195</vAcc></extensions></trkpt>
      <trkpt lon="-3.164578" lat="53.000894"><ele>267.411438</ele><time>2021-09-01T09:46:47Z</time><extensions><speed>1.018712</speed><course>310.111420</course><hAcc>0.945506</hAcc><vAcc>0.607998</vAcc></extensions></trkpt>
      <trkpt lon="-3.164583" lat="53.000902"><ele>267.494629</ele><time>2021-09-01T09:46:48Z</time><extensions><speed>1.063555</speed><course>309.394775</course><hAcc>0.948157</hAcc><vAcc>0.606871</vAcc></extensions></trkpt>
      <trkpt lon="-3.164588" lat="53.000912"><ele>267.578674</ele><time>2021-09-01T09:46:49Z</time><extensions><speed>1.109015</speed><course>312.734375</course><hAcc>0.950756</hAcc><vAcc>0.605908</vAcc></extensions></trkpt>
      <trkpt lon="-3.164594" lat="53.000921"><ele>267.663666</ele><time>2021-09-01T09:46:50Z</time><extensions><speed>1.152431</speed><course>307.110260</course><hAcc>0.953192</hAcc><vAcc>0.605175</vAcc></extensions></trkpt>
      <trkpt lon="-3.164600" lat="53.000931"><ele>267.749054</ele><time>2021-09-01T09:46:51Z</time><extensions><speed>1.191633</speed><course>304.794312</course><hAcc>0.955385</hAcc><vAcc>0.604691</vAcc></extensions></trkpt>
      <trkpt lon="-3.164606" lat="53.000941"><ele>267.833740</ele><time>2021-09-01T09:46:52Z</time><extensions><speed>1.225528</speed><course>309.669006</course><hAcc>0.957302</hAcc><vAcc>0.604429</vAcc></extensions></trkpt>
      <trkpt lon="-3.164613" lat="53.000952"><ele>267.916016</ele><time>2021-09-01T09:46:53Z</time><extensions><speed>1.254731</speed><course>309.747101</course><hAcc>0.958924</hAcc><vAcc>0.604346</vAcc></extensions></trkpt>
      <trkpt lon="-3.164620" lat="53.000962"><ele>267.993835</ele><time>2021-09-01T09:46:54Z</time><extensions><speed>1.280484</speed><course>308.451904</course><hAcc>0.960241</hAcc><vAcc>0.604394</vAcc></extensions></trkpt>
      <trkpt lon="-3.164627" lat="53.000973"><ele>268.065582</ele><time>2021-09-01T09:46:55Z</time><extensions><speed>1.303494</speed><course>313.674774</course><hAcc>0.961273</hAcc><vAcc>0.604518</vAcc></extensions></trkpt>
      <trkpt lon="-3.164634" lat="53.000984"><ele>268.130066</ele><time>2021-09-01T09:46:56Z</time><extensions><speed>1.324098</speed><course>310.174561</course><hAcc>0.962066</hAcc><vAcc>0.604661</vAcc></extensions></trkpt>
      <trkpt lon="-3.164642" lat="53.000995"><ele>268.186768</ele><time>2021-09-01T09:46:57Z</time><extensions><speed>1.342713</speed><course>312.894348</course><hAcc>0.962645</hAcc><vAcc>0.604771</vAcc></extensions></trkpt>
      <trkpt lon="-3.164651" lat="53.001006"><ele>268.235596</ele><time>2021-09-01T09:46:58Z</time><extensions><speed>1.359747</speed><course>309.740997</course><hAcc>0.962966</hAcc><vAcc>0.604807</vAcc></extensions></trkpt>
      <trkpt lon="-3.164659" lat="53.001017"><ele>268.276855</ele><time>2021-09-01T09:46:59Z</time><extensions><speed>1.375314</speed><course>309.271240</course><hAcc>0.962920</hAcc><vAcc>0.604744</vAcc></extensions></trkpt>
      <trkpt lon="-3.164668" lat="53.001029"><ele>268.311371</ele><time>2021-09-01T09:47:00Z</time><extensions><speed>1.389028</speed><course>309.840485</course><hAcc>0.962351</hAcc><vAcc>0.604579</vAcc></extensions></trkpt>
      <trkpt lon="-3.164676" lat="53.001040"><ele>268.340515</ele><time>2021-09-01T09:47:01Z</time><extensions><speed>1.400269</speed><course>308.054108</course><hAcc>0.961087</hAcc><vAcc>0.604335</vAcc></extensions></trkpt>
      <trkpt lon="-3.164685" lat="53.001051"><ele>268.365753</ele><time>2021-09-01T09:47:02Z</time><extensions><speed>1.409163</speed><course>306.226685</course><hAcc>0.958962</hAcc><vAcc>0.604048</vAcc></extensions></trkpt>
      <trkpt lon="-3.164694" lat="53.001063"><ele>268.388824</ele><time>2021-09-01T09:47:03Z</time><extensions><speed>1.416375</speed><course>316.211884</course><hAcc>0.955846</hAcc><vAcc>0.603761</vAcc></extensions></trkpt>
      <trkpt lon="-3.164702" lat="53.001075"><ele>268.411926</ele><time>2021-09-01T09:47:04Z</time><extensions><speed>1.422537</speed><course>312.798523</course><hAcc>0.951656</hAcc><vAcc>0.603526</vAcc></extensions></trkpt>
      <trkpt lon="-3.164710" lat="53.001086"><ele>268.437103</ele><time>2021-09-01T09:47:05Z</time><extensions><speed>1.427801</speed><course>314.823364</course><hAcc>0.946384</hAcc><vAcc>0.603410</vAcc></extensions></trkpt>
      <trkpt lon="-3.164719" lat="53.001098"><ele>268.465912</ele><time>2021-09-01T09:47:06Z</time><extensions><speed>1.432078</speed><course>317.560303</course><hAcc>0.940094</hAcc><vAcc>0.603489</vAcc></extensions></trkpt>
      <trkpt lon="-3.164727" lat="53.001110"><ele>268.499359</ele><time>2021-09-01T09:47:07Z</time><extensions><speed>1.435056</speed><course>313.870911</course><hAcc>0.932920</hAcc><vAcc>0.603842</vAcc></extensions></trkpt>
      <trkpt lon="-3.164734" lat="53.001122"><ele>268.538544</ele><time>2021-09-01T09:47:08Z</time><extensions><speed>1.436410</speed><course>320.858917</course><hAcc>0.925064</hAcc><vAcc>0.604545</vAcc></extensions></trkpt>
      <trkpt lon="-3.164742" lat="53.001134"><ele>268.584656</ele><time>2021-09-01T09:47:09Z</time><extensions><speed>1.435958</speed><course>322.110107</course><hAcc>0.916807</hAcc><vAcc>0.605655</vAcc></extensions></trkpt>
      <trkpt lon="-3.164750" lat="53.001146"><ele>268.638245</ele><time>2021-09-01T09:47:10Z</time><extensions><speed>1.433357</speed><course>322.258118</course><hAcc>0.908489</hAcc><vAcc>0.607202</vAcc></extensions></trkpt>
      <trkpt lon="-3.164757" lat="53.001158"><ele>268.699158</ele><time>2021-09-01T09:47:11Z</time><extensions><speed>1.428192</speed><course>323.751770</course><hAcc>0.900467</hAcc><vAcc>0.609182</vAcc></extensions></trkpt>
      <trkpt lon="-3.164764" lat="53.001170"><ele>268.767365</ele><time>2021-09-01T09:47:12Z</time><extensions><speed>1.420076</speed><course>311.017761</course><hAcc>0.893058</hAcc><vAcc>0.611545</vAcc></extensions></trkpt>
      <trkpt lon="-3.164771" lat="53.001182"><ele>268.842926</ele><time>2021-09-01T09:47:13Z</time><extensions><speed>1.408746</speed><course>303.134949</course><hAcc>0.886490</hAcc><vAcc>0.614208</vAcc></extensions></trkpt>
      <trkpt lon="-3.164778" lat="53.001194"><ele>268.925903</ele><time>2021-09-01T09:47:14Z</time><extensions><speed>1.393875</speed><course>305.266266</course><hAcc>0.880890</hAcc><vAcc>0.617068</vAcc></extensions></trkpt>
      <trkpt lon="-3.164785" lat="53.001206"><ele>269.015961</ele><time>2021-09-01T09:47:15Z</time><extensions><speed>1.375055</speed><course>306.244568</course><hAcc>0.876304</hAcc><vAcc>0.620022</vAcc></extensions></trkpt>
      <trkpt lon="-3.164791" lat="53.001218"><ele>269.112244</ele><time>2021-09-01T09:47:16Z</time><extensions><speed>1.352242</speed><course>311.028961</course><hAcc>0.872702</hAcc><vAcc>0.622970</vAcc></extensions></trkpt>
      <trkpt lon="-3.164798" lat="53.001229"><ele>269.213715</ele><time>2021-09-01T09:47:18Z</time><extensions><speed>1.325988</speed><course>304.990997</course><hAcc>0.869981</hAcc><vAcc>0.625830</vAcc></extensions></trkpt>
      <trkpt lon="-3.164803" lat="53.001240"><ele>269.318695</ele><time>2021-09-01T09:47:19Z</time><extensions><speed>1.297229</speed><course>305.619354</course><hAcc>0.868022</hAcc><vAcc>0.628551</vAcc></extensions></trkpt>
      <trkpt lon="-3.164809" lat="53.001251"><ele>269.425842</ele><time>2021-09-01T09:47:20Z</time><extensions><speed>1.266213</speed><course>319.038269</course><hAcc>0.866700</hAcc><vAcc>0.631112</vAcc></extensions></trkpt>
      <trkpt lon="-3.164814" lat="53.001262"><ele>269.534058</ele><time>2021-09-01T09:47:21Z</time><extensions><speed>1.233854</speed><course>314.772644</course><hAcc>0.865877</hAcc><vAcc>0.633471</vAcc></extensions></trkpt>
      <trkpt lon="-3.164819" lat="53.001273"><ele>269.642761</ele><time>2021-09-01T09:47:22Z</time><extensions><speed>1.201684</speed><course>314.865356</course><hAcc>0.865423</hAcc><vAcc>0.635592</vAcc></extensions></trkpt>
      <trkpt lon="-3.164824" lat="53.001283"><ele>269.751678</ele><time>2021-09-01T09:47:23Z</time><extensions><speed>1.170989</speed><course>315.584076</course><hAcc>0.865225</hAcc><vAcc>0.637441</vAcc></extensions></trkpt>
      <trkpt lon="-3.164828" lat="53.001293"><ele>269.860565</ele><time>2021-09-01T09:47:24Z</time><extensions><speed>1.142813</speed><course>318.301117</course><hAcc>0.865185</hAcc><vAcc>0.638990</vAcc></extensions></trkpt>
      <trkpt lon="-3.164832" lat="53.001303"><ele>269.969330</ele><time>2021-09-01T09:47:25Z</time><extensions><speed>1.117201</speed><course>308.957520</course><hAcc>0.865224</hAcc><vAcc>0.640213</vAcc></extensions></trkpt>
      <trkpt lon="-3.164835" lat="53.001313"><ele>270.078003</ele><time>2021-09-01T09:47:25Z</time><extensions><speed>1.094000</speed><course>309.679749</course><hAcc>0.865301</hAcc><vAcc>0.641114</vAcc></extensions></trkpt>
      <trkpt lon="-3.164838" lat="53.001322"><ele>270.186676</ele><time>2021-09-01T09:47:26Z</time><extensions><speed>1.073012</speed><course>315.508118</course><hAcc>0.865382</hAcc><vAcc>0.641715</vAcc></extensions></trkpt>
      <trkpt lon="-3.164841" lat="53.001332"><ele>270.294983</ele><time>2021-09-01T09:47:27Z</time><extensions><speed>1.054135</speed><course>315.740204</course><hAcc>0.865435</hAcc><vAcc>0.642062</vAcc></extensions></trkpt>
      <trkpt lon="-3.164844" lat="53.001341"><ele>270.402374</ele><time>2021-09-01T09:47:28Z</time><extensions><speed>1.037805</speed><course>310.654785</course><hAcc>0.865464</hAcc><vAcc>0.642239</vAcc></extensions></trkpt>
      <trkpt lon="-3.164846" lat="53.001350"><ele>270.508026</ele><time>2021-09-01T09:47:29Z</time><extensions><speed>1.024424</speed><course>314.784058</course><hAcc>0.865481</hAcc><vAcc>0.642335</vAcc></extensions></trkpt>
      <trkpt lon="-3.164848" lat="53.001359"><ele>270.610870</ele><time>2021-09-01T09:47:30Z</time><extensions><speed>1.014032</speed><course>306.836517</course><hAcc>0.865497</hAcc><vAcc>0.642419</vAcc></extensions></trkpt>
      <trkpt lon="-3.164851" lat="53.001368"><ele>270.709747</ele><time>2021-09-01T09:47:31Z</time><extensions><speed>1.006765</speed><course>319.014709</course><hAcc>0.865517</hAcc><vAcc>0.642521</vAcc></extensions></trkpt>
      <trkpt lon="-3.164852" lat="53.001377"><ele>270.803436</ele><time>2021-09-01T09:47:32Z</time><extensions><speed>1.002946</speed><course>316.668060</course><hAcc>0.865537</hAcc><vAcc>0.642634</vAcc></extensions></trkpt>
      <trkpt lon="-3.164854" lat="53.001386"><ele>270.890594</ele><time>2021-09-01T09:47:33Z</time><extensions><speed>1.003170</speed><course>317.381256</course><hAcc>0.865549</hAcc><vAcc>0.642728</vAcc></extensions></trkpt>
      <trkpt lon="-3.164856" lat="53.001395"><ele>270.969849</ele><time>2021-09-01T09:47:34Z</time><extensions><speed>1.007954</speed><course>315.522644</course><hAcc>0.865541</hAcc><vAcc>0.642754</vAcc></extensions></trkpt>
      <trkpt lon="-3.164858" lat="53.001404"><ele>271.039459</ele><time>2021-09-01T09:47:36Z</time><extensions><speed>1.017721</speed><course>313.748596</course><hAcc>0.865478</hAcc><vAcc>0.642641</vAcc></extensions></trkpt>
      <trkpt lon="-3.164860" lat="53.001413"><ele>271.097473</ele><time>2021-09-01T09:47:37Z</time><extensions><speed>1.032196</speed><course>311.298676</course><hAcc>0.865345</hAcc><vAcc>0.642332</vAcc></extensions></trkpt>
      <trkpt lon="-3.164863" lat="53.001422"><ele>271.142670</ele><time>2021-09-01T09:47:38Z</time><extensions><speed>1.050328</speed><course>307.453308</course><hAcc>0.865146</hAcc><vAcc>0.641794</vAcc></extensions></trkpt>
      <trkpt lon="-3.164865" lat="53.001432"><ele>271.174164</ele><time>2021-09-01T09:47:39Z</time><extensions><speed>1.070825</speed><course>308.937561</course><hAcc>0.864873</hAcc><vAcc>0.641000</vAcc></extensions></trkpt>
      <trkpt lon="-3.164868" lat="53.001441"><ele>271.191681</ele><time>2021-09-01T09:47:40Z</time><extensions><speed>1.092506</speed><course>304.505646</course><hAcc>0.864522</hAcc><vAcc>0.639941</vAcc></extensions></trkpt>
      <trkpt lon="-3.164871" lat="53.001451"><ele>271.195343</ele><time>2021-09-01T09:47:41Z</time><extensions><speed>1.114316</speed><course>299.094574</course><hAcc>0.864095</hAcc><vAcc>0.638626</vAcc></extensions></trkpt>
      <trkpt lon="-3.164875" lat="53.001461"><ele>271.185669</ele><time>2021-09-01T09:47:42Z</time><extensions><speed>1.135095</speed><course>310.704071</course><hAcc>0.863598</hAcc><vAcc>0.637084</vAcc></extensions></trkpt>
      <trkpt lon="-3.164878" lat="53.001471"><ele>271.163849</ele><time>2021-09-01T09:47:43Z</time><extensions><speed>1.153937</speed><course>308.713898</course><hAcc>0.863043</hAcc><vAcc>0.635358</vAcc></extensions></trkpt>
      <trkpt lon="-3.164882" lat="53.001481"><ele>271.131836</ele><time>2021-09-01T09:47:44Z</time><extensions><speed>1.170232</speed><course>315.990417</course><hAcc>0.862438</hAcc><vAcc>0.633481</vAcc></extensions></trkpt>
      <trkpt lon="-3.164886" lat="53.001491"><ele>271.092133</ele><time>2021-09-01T09:47:45Z</time><extensions><speed>1.183386</speed><course>316.941956</course><hAcc>0.861788</hAcc><vAcc>0.631463</vAcc></extensions></trkpt>
      <trkpt lon="-3.164890" lat="53.001502"><ele>271.047394</ele><time>2021-09-01T09:47:46Z</time><extensions><speed>1.193348</speed><course>326.025696</course><hAcc>0.861092</hAcc><vAcc>0.629296</vAcc></extensions></trkpt>
      <trkpt lon="-3.164894" lat="53.001512"><ele>271.000122</ele><time>2021-09-01T09:47:47Z</time><extensions><speed>1.200255</speed><course>316.997101</course><hAcc>0.860355</hAcc><vAcc>0.626985</vAcc></extensions></trkpt>
      <trkpt lon="-3.164898" lat="53.001523"><ele>270.952850</ele><time>2021-09-01T09:47:48Z</time><extensions><speed>1.204066</speed><course>307.396637</course><hAcc>0.859592</hAcc><vAcc>0.624581</vAcc></extensions></trkpt>
      <trkpt lon="-3.164902" lat="53.001533"><ele>270.908295</ele><time>2021-09-01T09:47:49Z</time><extensions><speed>1.204806</speed><course>307.245117</course><hAcc>0.858833</hAcc><vAcc>0.622170</vAcc></extensions></trkpt>
      <trkpt lon="-3.164906" lat="53.001544"><ele>270.868927</ele><time>2021-09-01T09:47:50Z</time><extensions><speed>1.202747</speed><course>302.943970</course><hAcc>0.858111</hAcc><vAcc>0.619865</vAcc></extensions></trkpt>
      <trkpt lon="-3.164909" lat="53.001555"><ele>270.836761</ele><time>2021-09-01T09:47:51Z</time><extensions><speed>1.198840</speed><course>310.986115</course><hAcc>0.857463</hAcc><vAcc>0.617788</vAcc></extensions></trkpt>
      <trkpt lon="-3.164913" lat="53.001565"><ele>270.813873</ele><time>2021-09-01T09:47:52Z</time><extensions><speed>1.194647</speed><course>317.229156</course><hAcc>0.856921</hAcc><vAcc>0.616042</vAcc></extensions></trkpt>
      <trkpt lon="-3.164916" lat="53.001576"><ele>270.802246</ele><time>2021-09-01T09:47:53Z</time><extensions><speed>1.192075</speed><course>310.287506</course><hAcc>0.856498</hAcc><vAcc>0.614677</vAcc></extensions></trkpt>
      <trkpt lon="-3.164920" lat="53.001586"><ele>270.803650</ele><time>2021-09-01T09:47:54Z</time><extensions><speed>1.191808</speed><course>314.657898</course><hAcc>0.856188</hAcc><vAcc>0.613674</vAcc></extensions></trkpt>
      <trkpt lon="-3.164923" lat="53.001597"><ele>270.819611</ele><time>2021-09-01T09:47:55Z</time><extensions><speed>1.193755</speed><course>316.163879</course><hAcc>0.855971</hAcc><vAcc>0.612969</vAcc></extensions></trkpt>
      <trkpt lon="-3.164926" lat="53.001607"><ele>270.851410</ele><time>2021-09-01T09:47:56Z</time><extensions><speed>1.198274</speed><course>315.280670</course><hAcc>0.855829</hAcc><vAcc>0.612502</vAcc></extensions></trkpt>
      <trkpt lon="-3.164929" lat="53.001618"><ele>270.899780</ele><time>2021-09-01T09:47:57Z</time><extensions><speed>1.205097</speed><course>323.358459</course><hAcc>0.855753</hAcc><vAcc>0.612249</vAcc></extensions></trkpt>
      <trkpt lon="-3.164932" lat="53.001629"><ele>270.964966</ele><time>2021-09-01T09:47:58Z</time><extensions><speed>1.212590</speed><course>323.478973</course><hAcc>0.855745</hAcc><vAcc>0.612216</vAcc></extensions></trkpt>
      <trkpt lon="-3.164935" lat="53.001639"><ele>271.046844</ele><time>2021-09-01T09:47:59Z</time><extensions><speed>1.218525</speed><course>327.884216</course><hAcc>0.855811</hAcc><vAcc>0.612420</vAcc></extensions></trkpt>
      <trkpt lon="-3.164938" lat="53.001650"><ele>271.144897</ele><time>2021-09-01T09:48:00Z</time><extensions><speed>1.221669</speed><course>318.187775</course><hAcc>0.855953</hAcc><vAcc>0.612866</vAcc></extensions></trkpt>
      <trkpt lon="-3.164941" lat="53.001661"><ele>271.258301</ele><time>2021-09-01T09:48:01Z</time><extensions><speed>1.221904</speed><course>318.936035</course><hAcc>0.856168</hAcc><vAcc>0.613548</vAcc></extensions></trkpt>
      <trkpt lon="-3.164943" lat="53.001672"><ele>271.386414</ele><time>2021-09-01T09:48:02Z</time><extensions><speed>1.219422</speed><course>326.780121</course><hAcc>0.856455</hAcc><vAcc>0.614467</vAcc></extensions></trkpt>
      <trkpt lon="-3.164945" lat="53.001683"><ele>271.528503</ele><time>2021-09-01T09:48:03Z</time><extensions><speed>1.214483</speed><course>314.218445</course><hAcc>0.856819</hAcc><vAcc>0.615632</vAcc></extensions></trkpt>
      <trkpt lon="-3.164948" lat="53.001694"><ele>271.683655</ele><time>2021-09-01T09:48:04Z</time><extensions><speed>1.207780</speed><course>317.554047</course><hAcc>0.857264</hAcc><vAcc>0.617059</vAcc></extensions></trkpt>
      <trkpt lon="-3.164949" lat="53.001704"><ele>271.850861</ele><time>2021-09-01T09:48:05Z</time><extensions><speed>1.200164</speed><course>317.225586</course><hAcc>0.857797</hAcc><vAcc>0.618772</vAcc></extensions></trkpt>
      <trkpt lon="-3.164951" lat="53.001715"><ele>272.029236</ele><time>2021-09-01T09:48:06Z</time><extensions><speed>1.192103</speed><course>318.371796</course><hAcc>0.858427</hAcc><vAcc>0.620797</vAcc></extensions></trkpt>
      <trkpt lon="-3.164953" lat="53.001726"><ele>272.217896</ele><time>2021-09-01T09:48:07Z</time><extensions><speed>1.182996</speed><course>319.534454</course><hAcc>0.859162</hAcc><vAcc>0.623158</vAcc></extensions></trkpt>
      <trkpt lon="-3.164954" lat="53.001736"><ele>272.415710</ele><time>2021-09-01T09:48:08Z</time><extensions><speed>1.171700</speed><course>319.948578</course><hAcc>0.859997</hAcc><vAcc>0.625840</vAcc></extensions></trkpt>
      <trkpt lon="-3.164955" lat="53.001747"><ele>272.621338</ele><time>2021-09-01T09:48:09Z</time><extensions><speed>1.157765</speed><course>326.867279</course><hAcc>0.860910</hAcc><vAcc>0.628768</vAcc></extensions></trkpt>
      <trkpt lon="-3.164956" lat="53.001757"><ele>272.833344</ele><time>2021-09-01T09:48:10Z</time><extensions><speed>1.141223</speed><course>319.995087</course><hAcc>0.861872</hAcc><vAcc>0.631844</vAcc></extensions></trkpt>
      <trkpt lon="-3.164957" lat="53.001767"><ele>273.050079</ele><time>2021-09-01T09:48:11Z</time><extensions><speed>1.122566</speed><course>323.754486</course><hAcc>0.862856</hAcc><vAcc>0.634984</vAcc></extensions></trkpt>
      <trkpt lon="-3.164958" lat="53.001777"><ele>273.269836</ele><time>2021-09-01T09:48:12Z</time><extensions><speed>1.102730</speed><course>327.994751</course><hAcc>0.863838</hAcc><vAcc>0.638114</vAcc></extensions></trkpt>
      <trkpt lon="-3.164959" lat="53.001787"><ele>273.490753</ele><time>2021-09-01T09:48:13Z</time><extensions><speed>1.082814</speed><course>338.740143</course><hAcc>0.864795</hAcc><vAcc>0.641155</vAcc></extensions></trkpt>
      <trkpt lon="-3.164960" lat="53.001797"><ele>273.710876</ele><time>2021-09-01T09:48:14Z</time><extensions><speed>1.064403</speed><course>336.648224</course><hAcc>0.865698</hAcc><vAcc>0.644011</vAcc></extensions></trkpt>
      <trkpt lon="-3.164961" lat="53.001806"><ele>273.928040</ele><time>2021-09-01T09:48:15Z</time><extensions><speed>1.049116</speed><course>335.818359</course><hAcc>0.866522</hAcc><vAcc>0.646595</vAcc></extensions></trkpt>
      <trkpt lon="-3.164963" lat="53.001815"><ele>274.140045</ele><time>2021-09-01T09:48:16Z</time><extensions><speed>1.037867</speed><course>332.183533</course><hAcc>0.867247</hAcc><vAcc>0.648842</vAcc></extensions></trkpt>
      <trkpt lon="-3.164964" lat="53.001825"><ele>274.345154</ele><time>2021-09-01T09:48:17Z</time><extensions><speed>1.030018</speed><course>329.123840</course><hAcc>0.867864</hAcc><vAcc>0.650721</vAcc></extensions></trkpt>
      <trkpt lon="-3.164965" lat="53.001834"><ele>274.542633</ele><time>2021-09-01T09:48:18Z</time><extensions><speed>1.024242</speed><course>331.386230</course><hAcc>0.868370</hAcc><vAcc>0.652234</vAcc></extensions></trkpt>
      <trkpt lon="-3.164967" lat="53.001843"><ele>274.732391</ele><time>2021-09-01T09:48:19Z</time><extensions><speed>1.019813</speed><course>327.161377</course><hAcc>0.868773</hAcc><vAcc>0.653413</vAcc></extensions></trkpt>
      <trkpt lon="-3.164969" lat="53.001852"><ele>274.914642</ele><time>2021-09-01T09:48:20Z</time><extensions><speed>1.016680</speed><course>327.868042</course><hAcc>0.869082</hAcc><vAcc>0.654303</vAcc></extensions></trkpt>
      <trkpt lon="-3.164971" lat="53.001861"><ele>275.089600</ele><time>2021-09-01T09:48:21Z</time><extensions><speed>1.015767</speed><course>323.627838</course><hAcc>0.869308</hAcc><vAcc>0.654945</vAcc></extensions></trkpt>
      <trkpt lon="-3.164973" lat="53.001870"><ele>275.257080</ele><time>2021-09-01T09:48:22Z</time><extensions><speed>1.018373</speed><course>324.612000</course><hAcc>0.869459</hAcc><vAcc>0.655372</vAcc></extensions></trkpt>
      <trkpt lon="-3.164975" lat="53.001879"><ele>275.416656</ele><time>2021-09-01T09:48:23Z</time><extensions><speed>1.025543</speed><course>314.250275</course><hAcc>0.869544</hAcc><vAcc>0.655609</vAcc></extensions></trkpt>
      <trkpt lon="-3.164977" lat="53.001888"><ele>275.567871</ele><time>2021-09-01T09:48:24Z</time><extensions><speed>1.037032</speed><course>324.325928</course><hAcc>0.869569</hAcc><vAcc>0.655672</vAcc></extensions></trkpt>
      <trkpt lon="-3.164979" lat="53.001898"><ele>275.710510</ele><time>2021-09-01T09:48:25Z</time><extensions><speed>1.051880</speed><course>323.620239</course><hAcc>0.869535</hAcc><vAcc>0.655565</vAcc></extensions></trkpt>
      <trkpt lon="-3.164982" lat="53.001907"><ele>275.844910</ele><time>2021-09-01T09:48:26Z</time><extensions><speed>1.069640</speed><course>318.647095</course><hAcc>0.869447</hAcc><vAcc>0.655288</vAcc></extensions></trkpt>
      <trkpt lon="-3.164985" lat="53.001917"><ele>275.972046</ele><time>2021-09-01T09:48:27Z</time><extensions><speed>1.089567</speed><course>325.356964</course><hAcc>0.869304</hAcc><vAcc>0.654840</vAcc></extensions></trkpt>
      <trkpt lon="-3.164988" lat="53.001926"><ele>276.093109</ele><time>2021-09-01T09:48:28Z</time><extensions><speed>1.110191</speed><course>319.826599</course><hAcc>0.869114</hAcc><vAcc>0.654228</vAcc></extensions></trkpt>
      <trkpt lon="-3.164991" lat="53.001936"><ele>276.209381</ele><time>2021-09-01T09:48:29Z</time><extensions><speed>1.130126</speed><course>314.735016</course><hAcc>0.868883</hAcc><vAcc>0.653470</vAcc></extensions></trkpt>
      <trkpt lon="-3.164994" lat="53.001946"><ele>276.322296</ele><time>2021-09-01T09:48:30Z</time><extensions><speed>1.149394</speed><course>309.478760</course><hAcc>0.868622</hAcc><vAcc>0.652586</vAcc></extensions></trkpt>
      <trkpt lon="-3.164996" lat="53.001957"><ele>276.433441</ele><time>2021-09-01T09:48:31Z</time><extensions><speed>1.169342</speed><course>319.543488</course><hAcc>0.868345</hAcc><vAcc>0.651600</vAcc></extensions></trkpt>
      <trkpt lon="-3.164999" lat="53.001967"><ele>276.544647</ele><time>2021-09-01T09:48:32Z</time><extensions><speed>1.190410</speed><course>324.087982</course><hAcc>0.868069</hAcc><vAcc>0.650543</vAcc></extensions></trkpt>
      <trkpt lon="-3.165002" lat="53.001978"><ele>276.657593</ele><time>2021-09-01T09:48:33Z</time><extensions><speed>1.211819</speed><course>317.628326</course><hAcc>0.867817</hAcc><vAcc>0.649448</vAcc></extensions></trkpt>
      <trkpt lon="-3.165005" lat="53.001989"><ele>276.773682</ele><time>2021-09-01T09:48:34Z</time><extensions><speed>1.232661</speed><course>311.843903</course><hAcc>0.867611</hAcc><vAcc>0.648343</vAcc></extensions></trkpt>
      <trkpt lon="-3.165007" lat="53.002000"><ele>276.893982</ele><time>2021-09-01T09:48:35Z</time><extensions><speed>1.251852</speed><course>320.026215</course><hAcc>0.867474</hAcc><vAcc>0.647243</vAcc></extensions></trkpt>
      <trkpt lon="-3.165009" lat="53.002011"><ele>277.019043</ele><time>2021-09-01T09:48:36Z</time><extensions><speed>1.268420</speed><course>320.448669</course><hAcc>0.867427</hAcc><vAcc>0.646146</vAcc></extensions></trkpt>
      <trkpt lon="-3.165011" lat="53.002022"><ele>277.149200</ele><time>2021-09-01T09:48:37Z</time><extensions><speed>1.282030</speed><course>324.626526</course><hAcc>0.867487</hAcc><vAcc>0.645034</vAcc></extensions></trkpt>
      <trkpt lon="-3.165013" lat="53.002034"><ele>277.284393</ele><time>2021-09-01T09:48:38Z</time><extensions><speed>1.293073</speed><course>326.167938</course><hAcc>0.867663</hAcc><vAcc>0.643890</vAcc></extensions></trkpt>
      <trkpt lon="-3.165015" lat="53.002045"><ele>277.424866</ele><time>2021-09-01T09:48:39Z</time><extensions><speed>1.302120</speed><course>325.390656</course><hAcc>0.867959</hAcc><vAcc>0.642698</vAcc></extensions></trkpt>
      <trkpt lon="-3.165016" lat="53.002057"><ele>277.570953</ele><time>2021-09-01T09:48:40Z</time><extensions><speed>1.309476</speed><course>314.974457</course><hAcc>0.868365</hAcc><vAcc>0.641468</vAcc></extensions></trkpt>
      <trkpt lon="-3.165018" lat="53.002069"><ele>277.723053</ele><time>2021-09-01T09:48:41Z</time><extensions><speed>1.315813</speed><course>325.724579</course><hAcc>0.868858</hAcc><vAcc>0.640239</vAcc></extensions></trkpt>
      <trkpt lon="-3.165019" lat="53.002081"><ele>277.881348</ele><time>2021-09-01T09:48:42Z</time><extensions><speed>1.321999</speed><course>318.034210</course><hAcc>0.869395</hAcc><vAcc>0.639063</vAcc></extensions></trkpt>
      <trkpt lon="-3.165020" lat="53.002093"><ele>278.045959</ele><time>2021-09-01T09:48:43Z</time><extensions><speed>1.327865</speed><course>313.475250</course><hAcc>0.869925</hAcc><vAcc>0.637989</vAcc></extensions></trkpt>
      <trkpt lon="-3.165021" lat="53.002105"><ele>278.217072</ele><time>2021-09-01T09:48:44Z</time><extensions><speed>1.332714</speed><course>321.089203</course><hAcc>0.870404</hAcc><vAcc>0.637054</vAcc></extensions></trkpt>
      <trkpt lon="-3.165021" lat="53.002117"><ele>278.394592</ele><time>2021-09-01T09:48:45Z</time><extensions><speed>1.336002</speed><course>329.810181</course><hAcc>0.870800</hAcc><vAcc>0.636272</vAcc></extensions></trkpt>
      <trkpt lon="-3.165022" lat="53.002129"><ele>278.578339</ele><time>2021-09-01T09:48:46Z</time><extensions><speed>1.337248</speed><course>327.314850</course><hAcc>0.871100</hAcc><vAcc>0.635638</vAcc></extensions></trkpt>
      <trkpt lon="-3.165023" lat="53.002141"><ele>278.768188</ele><time>2021-09-01T09:48:47Z</time><extensions><speed>1.336171</speed><course>321.503876</course><hAcc>0.871306</hAcc><vAcc>0.635125</vAcc></extensions></trkpt>
      <trkpt lon="-3.165023" lat="53.002153"><ele>278.964325</ele><time>2021-09-01T09:48:48Z</time><extensions><speed>1.332791</speed><course>323.534607</course><hAcc>0.871435</hAcc><vAcc>0.634688</vAcc></extensions></trkpt>
      <trkpt lon="-3.165024" lat="53.002165"><ele>279.167053</ele><time>2021-09-01T09:48:49Z</time><extensions><speed>1.327528</speed><course>325.158722</course><hAcc>0.871517</hAcc><vAcc>0.634277</vAcc></extensions></trkpt>
      <trkpt lon="-3.165024" lat="53.002176"><ele>279.375824</ele><time>2021-09-01T09:48:50Z</time><extensions><speed>1.320628</speed><course>329.447083</course><hAcc>0.871592</hAcc><vAcc>0.633848</vAcc></extensions></trkpt>
      <trkpt lon="-3.165024" lat="53.002188"><ele>279.589325</ele><time>2021-09-01T09:48:51Z</time><extensions><speed>1.311630</speed><course>331.191650</course><hAcc>0.871696</hAcc><vAcc>0.633373</vAcc></extensions></trkpt>
      <trkpt lon="-3.165025" lat="53.002200"><ele>279.805878</ele><time>2021-09-01T09:48:52Z</time><extensions><speed>1.300157</speed><course>334.557068</course><hAcc>0.871862</hAcc><vAcc>0.632837</vAcc></extensions></trkpt>
      <trkpt lon="-3.165025" lat="53.002212"><ele>280.023865</ele><time>2021-09-01T09:48:53Z</time><extensions><speed>1.286371</speed><course>336.690918</course><hAcc>0.872107</hAcc><vAcc>0.632241</vAcc></extensions></trkpt>
      <trkpt lon="-3.165025" lat="53.002223"><ele>280.242340</ele><time>2021-09-01T09:48:54Z</time><extensions><speed>1.270232</speed><course>337.183258</course><hAcc>0.872446</hAcc><vAcc>0.631598</vAcc></extensions></trkpt>
      <trkpt lon="-3.165025" lat="53.002234"><ele>280.460602</ele><time>2021-09-01T09:48:55Z</time><extensions><speed>1.251709</speed><course>318.997711</course><hAcc>0.872889</hAcc><vAcc>0.630927</vAcc></extensions></trkpt>
      <trkpt lon="-3.165024" lat="53.002246"><ele>280.677795</ele><time>2021-09-01T09:48:56Z</time><extensions><speed>1.231028</speed><course>315.791901</course><hAcc>0.873448</hAcc><vAcc>0.630241</vAcc></extensions></trkpt>
      <trkpt lon="-3.165024" lat="53.002257"><ele>280.893158</ele><time>2021-09-01T09:48:57Z</time><extensions><speed>1.208335</speed><course>315.791901</course><hAcc>0.874128</hAcc><vAcc>0.629555</vAcc></extensions></trkpt>
      <trkpt lon="-3.165024" lat="53.002267"><ele>281.105927</ele><time>2021-09-01T09:48:58Z</time><extensions><speed>1.183710</speed><course>315.791901</course><hAcc>0.874922</hAcc><vAcc>0.628885</vAcc></extensions></trkpt>
      <trkpt lon="-3.165024" lat="53.002278"><ele>281.315277</ele><time>2021-09-01T09:48:59Z</time><extensions><speed>1.157948</speed><course>315.791901</course><hAcc>0.875800</hAcc><vAcc>0.628260</vAcc></extensions></trkpt>
      <trkpt lon="-3.165024" lat="53.002288"><ele>281.520630</ele><time>2021-09-01T09:49:00Z</time><extensions><speed>1.132035</speed><course>315.791901</course><hAcc>0.876711</hAcc><vAcc>0.627722</vAcc></extensions></trkpt>
      <trkpt lon="-3.165024" lat="53.002298"><ele>281.721619</ele><time>2021-09-01T09:49:01Z</time><extensions><speed>1.106942</speed><course>315.791901</course><hAcc>0.877586</hAcc><vAcc>0.627322</vAcc></extensions></trkpt>
      <trkpt lon="-3.165024" lat="53.002308"><ele>281.918213</ele><time>2021-09-01T09:49:02Z</time><extensions><speed>1.083834</speed><course>315.791901</course><hAcc>0.878354</hAcc><vAcc>0.627129</vAcc></extensions></trkpt>
      <trkpt lon="-3.165024" lat="53.002318"><ele>282.110229</ele><time>2021-09-01T09:49:03Z</time><extensions><speed>1.063949</speed><course>315.791901</course><hAcc>0.878948</hAcc><vAcc>0.627217</vAcc></extensions></trkpt>
      <trkpt lon="-3.165024" lat="53.002327"><ele>282.297028</ele><time>2021-09-01T09:49:04Z</time><extensions><speed>1.048624</speed><course>315.791901</course><hAcc>0.879320</hAcc><vAcc>0.627643</vAcc></extensions></trkpt>
      <trkpt lon="-3.165025" lat="53.002336"><ele>282.478027</ele><time>2021-09-01T09:49:05Z</time><extensions><speed>1.039031</speed><course>315.791901</course><hAcc>0.879447</hAcc><vAcc>0.628425</vAcc></extensions></trkpt>
      <trkpt lon="-3.165026" lat="53.002346"><ele>282.652405</ele><time>2021-09-01T09:49:06Z</time><extensions><speed>1.036510</speed><course>315.791901</course><hAcc>0.879332</hAcc><vAcc>0.629541</vAcc></extensions></trkpt>
      <trkpt lon="-3.165026" lat="53.002355"><ele>282.818970</ele><time>2021-09-01T09:49:07Z</time><extensions><speed>1.041534</speed><course>315.791901</course><hAcc>0.878993</hAcc><vAcc>0.630930</vAcc></extensions></trkpt>
      <trkpt lon="-3.165027" lat="53.002365"><ele>282.977295</ele><time>2021-09-01T09:49:08Z</time><extensions><speed>1.053674</speed><course>315.791901</course><hAcc>0.878462</hAcc><vAcc>0.632517</vAcc></extensions></trkpt>
      <trkpt lon="-3.165028" lat="53.002374"><ele>283.127747</ele><time>2021-09-01T09:49:09Z</time><extensions><speed>1.071513</speed><course>315.791901</course><hAcc>0.877781</hAcc><vAcc>0.634226</vAcc></extensions></trkpt>
      <trkpt lon="-3.165030" lat="53.002384"><ele>283.271484</ele><time>2021-09-01T09:49:10Z</time><extensions><speed>1.092268</speed><course>315.791901</course><hAcc>0.876999</hAcc><vAcc>0.635995</vAcc></extensions></trkpt>
      <trkpt lon="-3.165031" lat="53.002394"><ele>283.410095</ele><time>2021-09-01T09:49:11Z</time><extensions><speed>1.113062</speed><course>324.368835</course><hAcc>0.876176</hAcc><vAcc>0.637778</vAcc></extensions></trkpt>
      <trkpt lon="-3.165032" lat="53.002404"><ele>283.545197</ele><time>2021-09-01T09:49:12Z</time><extensions><speed>1.131359</speed><course>336.936340</course><hAcc>0.875371</hAcc><vAcc>0.639530</vAcc></extensions></trkpt>
      <trkpt lon="-3.165034" lat="53.002414"><ele>283.678284</ele><time>2021-09-01T09:49:13Z</time><extensions><speed>1.144988</speed><course>334.067902</course><hAcc>0.874640</hAcc><vAcc>0.641200</vAcc></extensions></trkpt>
      <trkpt lon="-3.165035" lat="53.002424"><ele>283.811218</ele><time>2021-09-01T09:49:14Z</time><extensions><speed>1.153247</speed><course>335.500000</course><hAcc>0.874027</hAcc><vAcc>0.642736</vAcc></extensions></trkpt>
      <trkpt lon="-3.165037" lat="53.002434"><ele>283.945770</ele><time>2021-09-01T09:49:15Z</time><extensions><speed>1.156527</speed><course>331.822205</course><hAcc>0.873560</hAcc><vAcc>0.644099</vAcc></extensions></trkpt>
      <trkpt lon="-3.165038" lat="53.002445"><ele>284.083069</ele><time>2021-09-01T09:49:16Z</time><extensions><speed>1.155198</speed><course>332.566284</course><hAcc>0.873252</hAcc><vAcc>0.645269</vAcc></extensions></trkpt>
      <trkpt lon="-3.165039" lat="53.002455"><ele>284.223816</ele><time>2021-09-01T09:49:17Z</time><extensions><speed>1.149871</speed><course>322.442413</course><hAcc>0.873102</hAcc><vAcc>0.646254</vAcc></extensions></trkpt>
      <trkpt lon="-3.165040" lat="53.002465"><ele>284.368195</ele><time>2021-09-01T09:49:18Z</time><extensions><speed>1.141390</speed><course>328.923309</course><hAcc>0.873083</hAcc><vAcc>0.647082</vAcc></extensions></trkpt>
      <trkpt lon="-3.165041" lat="53.002476"><ele>284.515808</ele><time>2021-09-01T09:49:19Z</time><extensions><speed>1.130456</speed><course>332.979462</course><hAcc>0.873146</hAcc><vAcc>0.647796</vAcc></extensions></trkpt>
      <trkpt lon="-3.165041" lat="53.002486"><ele>284.665833</ele><time>2021-09-01T09:49:20Z</time><extensions><speed>1.117440</speed><course>326.583588</course><hAcc>0.873229</hAcc><vAcc>0.648442</vAcc></extensions></trkpt>
      <trkpt lon="-3.165041" lat="53.002496"><ele>284.817352</ele><time>2021-09-01T09:49:21Z</time><extensions><speed>1.102661</speed><course>333.004852</course><hAcc>0.873267</hAcc><vAcc>0.649073</vAcc></extensions></trkpt>
      <trkpt lon="-3.165040" lat="53.002506"><ele>284.969727</ele><time>2021-09-01T09:49:22Z</time><extensions><speed>1.086752</speed><course>328.891602</course><hAcc>0.873213</hAcc><vAcc>0.649739</vAcc></extensions></trkpt>
      <trkpt lon="-3.165038" lat="53.002515"><ele>285.122772</ele><time>2021-09-01T09:49:23Z</time><extensions><speed>1.070538</speed><course>329.156494</course><hAcc>0.873049</hAcc><vAcc>0.650486</vAcc></extensions></trkpt>
      <trkpt lon="-3.165036" lat="53.002525"><ele>285.277100</ele><time>2021-09-01T09:49:24Z</time><extensions><speed>1.054522</speed><course>329.450256</course><hAcc>0.872787</hAcc><vAcc>0.651352</vAcc></extensions></trkpt>
      <trkpt lon="-3.165033" lat="53.002534"><ele>285.433716</ele><time>2021-09-01T09:49:25Z</time><extensions><speed>1.039048</speed><course>329.886902</course><hAcc>0.872467</hAcc><vAcc>0.652358</vAcc></extensions></trkpt>
      <trkpt lon="-3.165030" lat="53.002543"><ele>285.593597</ele><time>2021-09-01T09:49:26Z</time><extensions><speed>1.024679</speed><course>332.708923</course><hAcc>0.872144</hAcc><vAcc>0.653511</vAcc></extensions></trkpt>
      <trkpt lon="-3.165025" lat="53.002552"><ele>285.757355</ele><time>2021-09-01T09:49:27Z</time><extensions><speed>1.011729</speed><course>337.086456</course><hAcc>0.871871</hAcc><vAcc>0.654800</vAcc></extensions></trkpt>
      <trkpt lon="-3.165020" lat="53.002560"><ele>285.925415</ele><time>2021-09-01T09:49:28Z</time><extensions><speed>0.999174</speed><course>335.947693</course><hAcc>0.871689</hAcc><vAcc>0.656206</vAcc></extensions></trkpt>
      <trkpt lon="-3.165015" lat="53.002568"><ele>286.098602</ele><time>2021-09-01T09:49:29Z</time><extensions><speed>0.985713</speed><course>332.293579</course><hAcc>0.871616</hAcc><vAcc>0.657692</vAcc></extensions></trkpt>
      <trkpt lon="-3.165009" lat="53.002576"><ele>286.277954</ele><time>2021-09-01T09:49:30Z</time><extensions><speed>0.970739</speed><course>330.673279</course><hAcc>0.871647</hAcc><vAcc>0.659197</vAcc></extensions></trkpt>
      <trkpt lon="-3.165003" lat="53.002584"><ele>286.464478</ele><time>2021-09-01T09:49:31Z</time><extensions><speed>0.953855</speed><course>325.868774</course><hAcc>0.871759</hAcc><vAcc>0.660642</vAcc></extensions></trkpt>
      <trkpt lon="-3.164996" lat="53.002592"><ele>286.658691</ele><time>2021-09-01T09:49:32Z</time><extensions><speed>0.935498</speed><course>320.652771</course><hAcc>0.871919</hAcc><vAcc>0.661948</vAcc></extensions></trkpt>
      <trkpt lon="-3.164990" lat="53.002599"><ele>286.860168</ele><time>2021-09-01T09:49:33Z</time><extensions><speed>0.916307</speed><course>317.759430</course><hAcc>0.872096</hAcc><vAcc>0.663050</vAcc></extensions></trkpt>
      <trkpt lon="-3.164984" lat="53.002606"><ele>287.067719</ele><time>2021-09-01T09:49:34Z</time><extensions><speed>0.896202</speed><course>312.631989</course><hAcc>0.872262</hAcc><vAcc>0.663912</vAcc></extensions></trkpt>
      <trkpt lon="-3.164978" lat="53.002614"><ele>287.279846</ele><time>2021-09-01T09:49:35Z</time><extensions><speed>0.875150</speed><course>318.114197</course><hAcc>0.872400</hAcc><vAcc>0.664528</vAcc></extensions></trkpt>
      <trkpt lon="-3.164972" lat="53.002621"><ele>287.494781</ele><time>2021-09-01T09:49:36Z</time><extensions><speed>0.853844</speed><course>324.507172</course><hAcc>0.872499</hAcc><vAcc>0.664918</vAcc></extensions></trkpt>
      <trkpt lon="-3.164967" lat="53.002627"><ele>287.710480</ele><time>2021-09-01T09:49:37Z</time><extensions><speed>0.834112</speed><course>327.082703</course><hAcc>0.872557</hAcc><vAcc>0.665116</vAcc></extensions></trkpt>
      <trkpt lon="-3.164962" lat="53.002634"><ele>287.924591</ele><time>2021-09-01T09:49:38Z</time><extensions><speed>0.818824</speed><course>329.958954</course><hAcc>0.872576</hAcc><vAcc>0.665163</vAcc></extensions></trkpt>
      <trkpt lon="-3.164958" lat="53.002641"><ele>288.134460</ele><time>2021-09-01T09:49:39Z</time><extensions><speed>0.810686</speed><course>328.035645</course><hAcc>0.872561</hAcc><vAcc>0.665102</vAcc></extensions></trkpt>
      <trkpt lon="-3.164954" lat="53.002648"><ele>288.337067</ele><time>2021-09-01T09:49:39Z</time><extensions><speed>0.811665</speed><course>327.514526</course><hAcc>0.872539</hAcc><vAcc>0.664984</vAcc></extensions></trkpt>
      <trkpt lon="-3.164951" lat="53.002655"><ele>288.530151</ele><time>2021-09-01T09:49:40Z</time><extensions><speed>0.823092</speed><course>320.027710</course><hAcc>0.872518</hAcc><vAcc>0.664837</vAcc></extensions></trkpt>
      <trkpt lon="-3.164948" lat="53.002662"><ele>288.711365</ele><time>2021-09-01T09:49:41Z</time><extensions><speed>0.844329</speed><course>323.596710</course><hAcc>0.872489</hAcc><vAcc>0.664673</vAcc></extensions></trkpt>
      <trkpt lon="-3.164945" lat="53.002670"><ele>288.879486</ele><time>2021-09-01T09:49:42Z</time><extensions><speed>0.872573</speed><course>326.277405</course><hAcc>0.872462</hAcc><vAcc>0.664522</vAcc></extensions></trkpt>
      <trkpt lon="-3.164942" lat="53.002678"><ele>289.034302</ele><time>2021-09-01T09:49:43Z</time><extensions><speed>0.904274</speed><course>327.083344</course><hAcc>0.872449</hAcc><vAcc>0.664423</vAcc></extensions></trkpt>
      <trkpt lon="-3.164939" lat="53.002686"><ele>289.176575</ele><time>2021-09-01T09:49:44Z</time><extensions><speed>0.936326</speed><course>330.723541</course><hAcc>0.872461</hAcc><vAcc>0.664418</vAcc></extensions></trkpt>
      <trkpt lon="-3.164937" lat="53.002694"><ele>289.307831</ele><time>2021-09-01T09:49:45Z</time><extensions><speed>0.967069</speed><course>328.902985</course><hAcc>0.872509</hAcc><vAcc>0.664544</vAcc></extensions></trkpt>
      <trkpt lon="-3.164934" lat="53.002703"><ele>289.429749</ele><time>2021-09-01T09:49:46Z</time><extensions><speed>0.996085</speed><course>325.540680</course><hAcc>0.872600</hAcc><vAcc>0.664827</vAcc></extensions></trkpt>
      <trkpt lon="-3.164931" lat="53.002712"><ele>289.543854</ele><time>2021-09-01T09:49:47Z</time><extensions><speed>1.023244</speed><course>326.969879</course><hAcc>0.872734</hAcc><vAcc>0.665276</vAcc></extensions></trkpt>
      <trkpt lon="-3.164928" lat="53.002721"><ele>289.651093</ele><time>2021-09-01T09:49:48Z</time><extensions><speed>1.048471</speed><course>320.316467</course><hAcc>0.872910</hAcc><vAcc>0.665884</vAcc></extensions></trkpt>
      <trkpt lon="-3.164926" lat="53.002730"><ele>289.751953</ele><time>2021-09-01T09:49:49Z</time><extensions><speed>1.071367</speed><course>319.871765</course><hAcc>0.873120</hAcc><vAcc>0.666615</vAcc></extensions></trkpt>
      <trkpt lon="-3.164923" lat="53.002740"><ele>289.846619</ele><time>2021-09-01T09:49:50Z</time><extensions><speed>1.091080</speed><course>316.990692</course><hAcc>0.873351</hAcc><vAcc>0.667415</vAcc></extensions></trkpt>
      <trkpt lon="-3.164921" lat="53.002750"><ele>289.935333</ele><time>2021-09-01T09:49:51Z</time><extensions><speed>1.107242</speed><course>317.272278</course><hAcc>0.873587</hAcc><vAcc>0.668220</vAcc></extensions></trkpt>
      <trkpt lon="-3.164918" lat="53.002760"><ele>290.018829</ele><time>2021-09-01T09:49:52Z</time><extensions><speed>1.120536</speed><course>317.305878</course><hAcc>0.873816</hAcc><vAcc>0.668982</vAcc></extensions></trkpt>
      <trkpt lon="-3.164916" lat="53.002770"><ele>290.097931</ele><time>2021-09-01T09:49:53Z</time><extensions><speed>1.132006</speed><course>319.626617</course><hAcc>0.874029</hAcc><vAcc>0.669667</vAcc></extensions></trkpt>
      <trkpt lon="-3.164914" lat="53.002780"><ele>290.173157</ele><time>2021-09-01T09:49:54Z</time><extensions><speed>1.142487</speed><course>316.946777</course><hAcc>0.874220</hAcc><vAcc>0.670259</vAcc></extensions></trkpt>
      <trkpt lon="-3.164913" lat="53.002790"><ele>290.244720</ele><time>2021-09-01T09:49:55Z</time><extensions><speed>1.152683</speed><course>316.848175</course><hAcc>0.874389</hAcc><vAcc>0.670764</vAcc></extensions></trkpt>
      <trkpt lon="-3.164911" lat="53.002800"><ele>290.312927</ele><time>2021-09-01T09:49:56Z</time><extensions><speed>1.162985</speed><course>306.129730</course><hAcc>0.874537</hAcc><vAcc>0.671197</vAcc></extensions></trkpt>
      <trkpt lon="-3.164911" lat="53.002811"><ele>290.377808</ele><time>2021-09-01T09:49:57Z</time><extensions><speed>1.173584</speed><course>311.287872</course><hAcc>0.874668</hAcc><vAcc>0.671581</vAcc></extensions></trkpt>
      <trkpt lon="-3.164910" lat="53.002821"><ele>290.438812</ele><time>2021-09-01T09:49:58Z</time><extensions><speed>1.184463</speed><course>316.150696</course><hAcc>0.874787</hAcc><vAcc>0.671931</vAcc></extensions></trkpt>
      <trkpt lon="-3.164910" lat="53.002832"><ele>290.495544</ele><time>2021-09-01T09:49:59Z</time><extensions><speed>1.195361</speed><course>319.589172</course><hAcc>0.874896</hAcc><vAcc>0.672254</vAcc></extensions></trkpt>
      <trkpt lon="-3.164910" lat="53.002843"><ele>290.547729</ele><time>2021-09-01T09:50:00Z</time><extensions><speed>1.205628</speed><course>317.826752</course><hAcc>0.874998</hAcc><vAcc>0.672552</vAcc></extensions></trkpt>
      <trkpt lon="-3.164911" lat="53.002854"><ele>290.595612</ele><time>2021-09-01T09:50:01Z</time><extensions><speed>1.214281</speed><course>316.582428</course><hAcc>0.875095</hAcc><vAcc>0.672828</vAcc></extensions></trkpt>
      <trkpt lon="-3.164912" lat="53.002865"><ele>290.639709</ele><time>2021-09-01T09:50:02Z</time><extensions><speed>1.220827</speed><course>322.533203</course><hAcc>0.875193</hAcc><vAcc>0.673102</vAcc></extensions></trkpt>
      <trkpt lon="-3.164912" lat="53.002876"><ele>290.680939</ele><time>2021-09-01T09:50:03Z</time><extensions><speed>1.225573</speed><course>322.533203</course><hAcc>0.875298</hAcc><vAcc>0.673404</vAcc></extensions></trkpt>
      <trkpt lon="-3.164913" lat="53.002887"><ele>290.720520</ele><time>2021-09-01T09:50:04Z</time><extensions><speed>1.228937</speed><course>322.533203</course><hAcc>0.875417</hAcc><vAcc>0.673766</vAcc></extensions></trkpt>
      <trkpt lon="-3.164914" lat="53.002898"><ele>290.759949</ele><time>2021-09-01T09:50:05Z</time><extensions><speed>1.231421</speed><course>322.533203</course><hAcc>0.875552</hAcc><vAcc>0.674201</vAcc></extensions></trkpt>
      <trkpt lon="-3.164914" lat="53.002909"><ele>290.800873</ele><time>2021-09-01T09:50:06Z</time><extensions><speed>1.233792</speed><course>322.533203</course><hAcc>0.875702</hAcc><vAcc>0.674702</vAcc></extensions></trkpt>
      <trkpt lon="-3.164914" lat="53.002920"><ele>290.844879</ele><time>2021-09-01T09:50:07Z</time><extensions><speed>1.237316</speed><course>310.635162</course><hAcc>0.875862</hAcc><vAcc>0.675247</vAcc></extensions></trkpt>
      <trkpt lon="-3.164914" lat="53.002931"><ele>290.893494</ele><time>2021-09-01T09:50:08Z</time><extensions><speed>1.243190</speed><course>317.610291</course><hAcc>0.876029</hAcc><vAcc>0.675803</vAcc></extensions></trkpt>
      <trkpt lon="-3.164913" lat="53.002942"><ele>290.947601</ele><time>2021-09-01T09:50:09Z</time><extensions><speed>1.251801</speed><course>306.125671</course><hAcc>0.876196</hAcc><vAcc>0.676346</vAcc></extensions></trkpt>
      <trkpt lon="-3.164912" lat="53.002954"><ele>291.007538</ele><time>2021-09-01T09:50:10Z</time><extensions><speed>1.262868</speed><course>318.134308</course><hAcc>0.876359</hAcc><vAcc>0.676860</vAcc></extensions></trkpt>
      <trkpt lon="-3.164910" lat="53.002965"><ele>291.073364</ele><time>2021-09-01T09:50:11Z</time><extensions><speed>1.275939</speed><course>310.926819</course><hAcc>0.876518</hAcc><vAcc>0.677345</vAcc></extensions></trkpt>
      <trkpt lon="-3.164908" lat="53.002976"><ele>291.144806</ele><time>2021-09-01T09:50:12Z</time><extensions><speed>1.290477</speed><course>312.939606</course><hAcc>0.876673</hAcc><vAcc>0.677808</vAcc></extensions></trkpt>
      <trkpt lon="-3.164906" lat="53.002988"><ele>291.221130</ele><time>2021-09-01T09:50:13Z</time><extensions><speed>1.305345</speed><course>305.606995</course><hAcc>0.876823</hAcc><vAcc>0.678264</vAcc></extensions></trkpt>
      <trkpt lon="-3.164904" lat="53.003000"><ele>291.301666</ele><time>2021-09-01T09:50:14Z</time><extensions><speed>1.319115</speed><course>302.541321</course><hAcc>0.876969</hAcc><vAcc>0.678719</vAcc></extensions></trkpt>
      <trkpt lon="-3.164902" lat="53.003012"><ele>291.385803</ele><time>2021-09-01T09:50:15Z</time><extensions><speed>1.330228</speed><course>303.802917</course><hAcc>0.877110</hAcc><vAcc>0.679170</vAcc></extensions></trkpt>
      <trkpt lon="-3.164899" lat="53.003023"><ele>291.472992</ele><time>2021-09-01T09:50:16Z</time><extensions><speed>1.336986</speed><course>300.395538</course><hAcc>0.877240</hAcc><vAcc>0.679605</vAcc></extensions></trkpt>
      <trkpt lon="-3.164897" lat="53.003035"><ele>291.562378</ele><time>2021-09-01T09:50:17Z</time><extensions><speed>1.338133</speed><course>303.076660</course><hAcc>0.877356</hAcc><vAcc>0.680007</vAcc></extensions></trkpt>
      <trkpt lon="-3.164896" lat="53.003047"><ele>291.652893</ele><time>2021-09-01T09:50:18Z</time><extensions><speed>1.333143</speed><course>301.521118</course><hAcc>0.877452</hAcc><vAcc>0.680357</vAcc></extensions></trkpt>
      <trkpt lon="-3.164894" lat="53.003059"><ele>291.743439</ele><time>2021-09-01T09:50:19Z</time><extensions><speed>1.321647</speed><course>315.953857</course><hAcc>0.877522</hAcc><vAcc>0.680633</vAcc></extensions></trkpt>
      <trkpt lon="-3.164893" lat="53.003071"><ele>291.833130</ele><time>2021-09-01T09:50:20Z</time><extensions><speed>1.303344</speed><course>321.613922</course><hAcc>0.877560</hAcc><vAcc>0.680816</vAcc></extensions></trkpt>
      <trkpt lon="-3.164892" lat="53.003083"><ele>291.921265</ele><time>2021-09-01T09:50:21Z</time><extensions><speed>1.278164</speed><course>320.530426</course><hAcc>0.877561</hAcc><vAcc>0.680883</vAcc></extensions></trkpt>
      <trkpt lon="-3.164892" lat="53.003094"><ele>292.007080</ele><time>2021-09-01T09:50:22Z</time><extensions><speed>1.246326</speed><course>319.105469</course><hAcc>0.877521</hAcc><vAcc>0.680812</vAcc></extensions></trkpt>
      <trkpt lon="-3.164892" lat="53.003105"><ele>292.089813</ele><time>2021-09-01T09:50:23Z</time><extensions><speed>1.208512</speed><course>320.005280</course><hAcc>0.877437</hAcc><vAcc>0.680582</vAcc></extensions></trkpt>
      <trkpt lon="-3.164892" lat="53.003116"><ele>292.168823</ele><time>2021-09-01T09:50:24Z</time><extensions><speed>1.165149</speed><course>320.540527</course><hAcc>0.877311</hAcc><vAcc>0.680180</vAcc></extensions></trkpt>
      <trkpt lon="-3.164893" lat="53.003126"><ele>292.243561</ele><time>2021-09-01T09:50:25Z</time><extensions><speed>1.116686</speed><course>316.635681</course><hAcc>0.877148</hAcc><vAcc>0.679610</vAcc></extensions></trkpt>
      <trkpt lon="-3.164894" lat="53.003136"><ele>292.313263</ele><time>2021-09-01T09:50:26Z</time><extensions><speed>1.064106</speed><course>319.322998</course><hAcc>0.876960</hAcc><vAcc>0.678909</vAcc></extensions></trkpt>
      <trkpt lon="-3.164895" lat="53.003145"><ele>292.376953</ele><time>2021-09-01T09:50:27Z</time><extensions><speed>1.008481</speed><course>319.244141</course><hAcc>0.876764</hAcc><vAcc>0.678143</vAcc></extensions></trkpt>
      <trkpt lon="-3.164896" lat="53.003154"><ele>292.433838</ele><time>2021-09-01T09:50:28Z</time><extensions><speed>0.951205</speed><course>315.425568</course><hAcc>0.876580</hAcc><vAcc>0.677405</vAcc></extensions></trkpt>
      <trkpt lon="-3.164897" lat="53.003162"><ele>292.483124</ele><time>2021-09-01T09:50:29Z</time><extensions><speed>0.894307</speed><course>318.059448</course><hAcc>0.876429</hAcc><vAcc>0.676788</vAcc></extensions></trkpt>
      <trkpt lon="-3.164899" lat="53.003170"><ele>292.524017</ele><time>2021-09-01T09:50:30Z</time><extensions><speed>0.840062</speed><course>318.243683</course><hAcc>0.876329</hAcc><vAcc>0.676372</vAcc></extensions></trkpt>
      <trkpt lon="-3.164900" lat="53.003177"><ele>292.555634</ele><time>2021-09-01T09:50:31Z</time><extensions><speed>0.789819</speed><course>319.840027</course><hAcc>0.876292</hAcc><vAcc>0.676206</vAcc></extensions></trkpt>
      <trkpt lon="-3.164902" lat="53.003184"><ele>292.577576</ele><time>2021-09-01T09:50:32Z</time><extensions><speed>0.744181</speed><course>320.630524</course><hAcc>0.876324</hAcc><vAcc>0.676313</vAcc></extensions></trkpt>
      <trkpt lon="-3.164904" lat="53.003190"><ele>292.589996</ele><time>2021-09-01T09:50:33Z</time><extensions><speed>0.704243</speed><course>318.435181</course><hAcc>0.876422</hAcc><vAcc>0.676685</vAcc></extensions></trkpt>
      <trkpt lon="-3.164906" lat="53.003196"><ele>292.593231</ele><time>2021-09-01T09:50:34Z</time><extensions><speed>0.671460</speed><course>313.959320</course><hAcc>0.876577</hAcc><vAcc>0.677287</vAcc></extensions></trkpt>
      <trkpt lon="-3.164908" lat="53.003202"><ele>292.587982</ele><time>2021-09-01T09:50:35Z</time><extensions><speed>0.647694</speed><course>314.005951</course><hAcc>0.876777</hAcc><vAcc>0.678061</vAcc></extensions></trkpt>
      <trkpt lon="-3.164911" lat="53.003208"><ele>292.575012</ele><time>2021-09-01T09:50:36Z</time><extensions><speed>0.635080</speed><course>315.776367</course><hAcc>0.877002</hAcc><vAcc>0.678937</vAcc></extensions></trkpt>
      <trkpt lon="-3.164913" lat="53.003213"><ele>292.555023</ele><time>2021-09-01T09:50:37Z</time><extensions><speed>0.634464</speed><course>317.643280</course><hAcc>0.877234</hAcc><vAcc>0.679828</vAcc></extensions></trkpt>
      <trkpt lon="-3.164916" lat="53.003219"><ele>292.528717</ele><time>2021-09-01T09:50:38Z</time><extensions><speed>0.645136</speed><course>316.187012</course><hAcc>0.877449</hAcc><vAcc>0.680641</vAcc></extensions></trkpt>
      <trkpt lon="-3.164918" lat="53.003224"><ele>292.497009</ele><time>2021-09-01T09:50:39Z</time><extensions><speed>0.665589</speed><course>313.238525</course><hAcc>0.877632</hAcc><vAcc>0.681297</vAcc></extensions></trkpt>
      <trkpt lon="-3.164921" lat="53.003230"><ele>292.461090</ele><time>2021-09-01T09:50:40Z</time><extensions><speed>0.693894</speed><course>309.102142</course><hAcc>0.877768</hAcc><vAcc>0.681747</vAcc></extensions></trkpt>
      <trkpt lon="-3.164923" lat="53.003236"><ele>292.422333</ele><time>2021-09-01T09:50:41Z</time><extensions><speed>0.727632</speed><course>313.839325</course><hAcc>0.877853</hAcc><vAcc>0.681975</vAcc></extensions></trkpt>
      <trkpt lon="-3.164926" lat="53.003243"><ele>292.382141</ele><time>2021-09-01T09:50:42Z</time><extensions><speed>0.764246</speed><course>315.040405</course><hAcc>0.877886</hAcc><vAcc>0.681998</vAcc></extensions></trkpt>
      <trkpt lon="-3.164928" lat="53.003250"><ele>292.342102</ele><time>2021-09-01T09:50:43Z</time><extensions><speed>0.801880</speed><course>315.010925</course><hAcc>0.877874</hAcc><vAcc>0.681850</vAcc></extensions></trkpt>
      <trkpt lon="-3.164930" lat="53.003257"><ele>292.303955</ele><time>2021-09-01T09:50:44Z</time><extensions><speed>0.839839</speed><course>312.357758</course><hAcc>0.877826</hAcc><vAcc>0.681579</vAcc></extensions></trkpt>
      <trkpt lon="-3.164931" lat="53.003265"><ele>292.269653</ele><time>2021-09-01T09:50:45Z</time><extensions><speed>0.878182</speed><course>316.888885</course><hAcc>0.877753</hAcc><vAcc>0.681238</vAcc></extensions></trkpt>
      <trkpt lon="-3.164932" lat="53.003273"><ele>292.240997</ele><time>2021-09-01T09:50:46Z</time><extensions><speed>0.917162</speed><course>320.096283</course><hAcc>0.877666</hAcc><vAcc>0.680876</vAcc></extensions></trkpt>
      <trkpt lon="-3.164933" lat="53.003281"><ele>292.219543</ele><time>2021-09-01T09:50:47Z</time><extensions><speed>0.956647</speed><course>330.452972</course><hAcc>0.877577</hAcc><vAcc>0.680542</vAcc></extensions></trkpt>
      <trkpt lon="-3.164933" lat="53.003290"><ele>292.206848</ele><time>2021-09-01T09:50:48Z</time><extensions><speed>0.995575</speed><course>325.892334</course><hAcc>0.877494</hAcc><vAcc>0.680265</vAcc></extensions></trkpt>
      <trkpt lon="-3.164933" lat="53.003299"><ele>292.204315</ele><time>2021-09-01T09:50:49Z</time><extensions><speed>1.032711</speed><course>323.150330</course><hAcc>0.877419</hAcc><vAcc>0.680049</vAcc></extensions></trkpt>
      <trkpt lon="-3.164932" lat="53.003309"><ele>292.212952</ele><time>2021-09-01T09:50:50Z</time><extensions><speed>1.067439</speed><course>318.355499</course><hAcc>0.877354</hAcc><vAcc>0.679880</vAcc></extensions></trkpt>
      <trkpt lon="-3.164931" lat="53.003318"><ele>292.233246</ele><time>2021-09-01T09:50:51Z</time><extensions><speed>1.099607</speed><course>319.900726</course><hAcc>0.877296</hAcc><vAcc>0.679734</vAcc></extensions></trkpt>
      <trkpt lon="-3.164929" lat="53.003328"><ele>292.265320</ele><time>2021-09-01T09:50:52Z</time><extensions><speed>1.129279</speed><course>327.705719</course><hAcc>0.877244</hAcc><vAcc>0.679589</vAcc></extensions></trkpt>
      <trkpt lon="-3.164926" lat="53.003338"><ele>292.308899</ele><time>2021-09-01T09:50:53Z</time><extensions><speed>1.156639</speed><course>325.864380</course><hAcc>0.877196</hAcc><vAcc>0.679437</vAcc></extensions></trkpt>
      <trkpt lon="-3.164923" lat="53.003349"><ele>292.363617</ele><time>2021-09-01T09:50:54Z</time><extensions><speed>1.181755</speed><course>316.016541</course><hAcc>0.877153</hAcc><vAcc>0.679281</vAcc></extensions></trkpt>
      <trkpt lon="-3.164919" lat="53.003359"><ele>292.428802</ele><time>2021-09-01T09:50:55Z</time><extensions><speed>1.204292</speed><course>317.886536</course><hAcc>0.877118</hAcc><vAcc>0.679138</vAcc></extensions></trkpt>
      <trkpt lon="-3.164914" lat="53.003370"><ele>292.503754</ele><time>2021-09-01T09:50:56Z</time><extensions><speed>1.224066</speed><course>327.267029</course><hAcc>0.877095</hAcc><vAcc>0.679027</vAcc></extensions></trkpt>
      <trkpt lon="-3.164909" lat="53.003380"><ele>292.587799</ele><time>2021-09-01T09:50:57Z</time><extensions><speed>1.240751</speed><course>326.251373</course><hAcc>0.877088</hAcc><vAcc>0.678971</vAcc></extensions></trkpt>
      <trkpt lon="-3.164904" lat="53.003391"><ele>292.680084</ele><time>2021-09-01T09:50:58Z</time><extensions><speed>1.253606</speed><course>330.160339</course><hAcc>0.877098</hAcc><vAcc>0.678988</vAcc></extensions></trkpt>
      <trkpt lon="-3.164898" lat="53.003402"><ele>292.779510</ele><time>2021-09-01T09:50:59Z</time><extensions><speed>1.262264</speed><course>329.350830</course><hAcc>0.877126</hAcc><vAcc>0.679082</vAcc></extensions></trkpt>
      <trkpt lon="-3.164892" lat="53.003413"><ele>292.884888</ele><time>2021-09-01T09:51:00Z</time><extensions><speed>1.267088</speed><course>328.046906</course><hAcc>0.877172</hAcc><vAcc>0.679247</vAcc></extensions></trkpt>
      <trkpt lon="-3.164886" lat="53.003423"><ele>292.995056</ele><time>2021-09-01T09:51:01Z</time><extensions><speed>1.268922</speed><course>328.036682</course><hAcc>0.877232</hAcc><vAcc>0.679468</vAcc></extensions></trkpt>
      <trkpt lon="-3.164880" lat="53.003434"><ele>293.108521</ele><time>2021-09-01T09:51:02Z</time><extensions><speed>1.268625</speed><course>328.321899</course><hAcc>0.877303</hAcc><vAcc>0.679726</vAcc></extensions></trkpt>
      <trkpt lon="-3.164874" lat="53.003445"><ele>293.223572</ele><time>2021-09-01T09:51:03Z</time><extensions><speed>1.266960</speed><course>326.366882</course><hAcc>0.877381</hAcc><vAcc>0.680005</vAcc></extensions></trkpt>
      <trkpt lon="-3.164869" lat="53.003456"><ele>293.338409</ele><time>2021-09-01T09:51:04Z</time><extensions><speed>1.264840</speed><course>331.362152</course><hAcc>0.877463</hAcc><vAcc>0.680291</vAcc></extensions></trkpt>
      <trkpt lon="-3.164863" lat="53.003467"><ele>293.451538</ele><time>2021-09-01T09:51:05Z</time><extensions><speed>1.263601</speed><course>329.394318</course><hAcc>0.877546</hAcc><vAcc>0.680573</vAcc></extensions></trkpt>
      <trkpt lon="-3.164859" lat="53.003478"><ele>293.561432</ele><time>2021-09-01T09:51:06Z</time><extensions><speed>1.264252</speed><course>332.464355</course><hAcc>0.877629</hAcc><vAcc>0.680844</vAcc></extensions></trkpt>
      <trkpt lon="-3.164855" lat="53.003489"><ele>293.666473</ele><time>2021-09-01T09:51:07Z</time><extensions><speed>1.267030</speed><course>335.973755</course><hAcc>0.877712</hAcc><vAcc>0.681098</vAcc></extensions></trkpt>
      <trkpt lon="-3.164851" lat="53.003500"><ele>293.765137</ele><time>2021-09-01T09:51:08Z</time><extensions><speed>1.271980</speed><course>334.588074</course><hAcc>0.877797</hAcc><vAcc>0.681334</vAcc></extensions></trkpt>
      <trkpt lon="-3.164848" lat="53.003511"><ele>293.855499</ele><time>2021-09-01T09:51:09Z</time><extensions><speed>1.279119</speed><course>337.558624</course><hAcc>0.877889</hAcc><vAcc>0.681568</vAcc></extensions></trkpt>
      <trkpt lon="-3.164845" lat="53.003523"><ele>293.935608</ele><time>2021-09-01T09:51:10Z</time><extensions><speed>1.288175</speed><course>337.377197</course><hAcc>0.877994</hAcc><vAcc>0.681827</vAcc></extensions></trkpt>
      <trkpt lon="-3.164843" lat="53.003534"><ele>294.003754</ele><time>2021-09-01T09:51:11Z</time><extensions><speed>1.298700</speed><course>334.236908</course><hAcc>0.878119</hAcc><vAcc>0.682149</vAcc></extensions></trkpt>
      <trkpt lon="-3.164842" lat="53.003546"><ele>294.058777</ele><time>2021-09-01T09:51:12Z</time><extensions><speed>1.309611</speed><course>333.116516</course><hAcc>0.878274</hAcc><vAcc>0.682577</vAcc></extensions></trkpt>
      <trkpt lon="-3.164840" lat="53.003558"><ele>294.100281</ele><time>2021-09-01T09:51:13Z</time><extensions><speed>1.319504</speed><course>331.193451</course><hAcc>0.878465</hAcc><vAcc>0.683143</vAcc></extensions></trkpt>
      <trkpt lon="-3.164839" lat="53.003570"><ele>294.128754</ele><time>2021-09-01T09:51:14Z</time><extensions><speed>1.327290</speed><course>327.071960</course><hAcc>0.878694</hAcc><vAcc>0.683868</vAcc></extensions></trkpt>
      <trkpt lon="-3.164839" lat="53.003582"><ele>294.145233</ele><time>2021-09-01T09:51:15Z</time><extensions><speed>1.332195</speed><course>323.969269</course><hAcc>0.878963</hAcc><vAcc>0.684756</vAcc></extensions></trkpt>
      <trkpt lon="-3.164838" lat="53.003594"><ele>294.150787</ele><time>2021-09-01T09:51:16Z</time><extensions><speed>1.334018</speed><course>325.035614</course><hAcc>0.879267</hAcc><vAcc>0.685792</vAcc></extensions></trkpt>
      <trkpt lon="-3.164838" lat="53.003606"><ele>294.146667</ele><time>2021-09-01T09:51:17Z</time><extensions><speed>1.332984</speed><course>325.080109</course><hAcc>0.879598</hAcc><vAcc>0.686938</vAcc></extensions></trkpt>
      <trkpt lon="-3.164837" lat="53.003618"><ele>294.134460</ele><time>2021-09-01T09:51:18Z</time><extensions><speed>1.329273</speed><course>320.596710</course><hAcc>0.879943</hAcc><vAcc>0.688143</vAcc></extensions></trkpt>
      <trkpt lon="-3.164836" lat="53.003629"><ele>294.116364</ele><time>2021-09-01T09:51:19Z</time><extensions><speed>1.322949</speed><course>325.164429</course><hAcc>0.880290</hAcc><vAcc>0.689352</vAcc></extensions></trkpt>
      <trkpt lon="-3.164835" lat="53.003641"><ele>294.094879</ele><time>2021-09-01T09:51:20Z</time><extensions><speed>1.314710</speed><course>323.691345</course><hAcc>0.880627</hAcc><vAcc>0.690513</vAcc></extensions></trkpt>
      <trkpt lon="-3.164833" lat="53.003653"><ele>294.072388</ele><time>2021-09-01T09:51:21Z</time><extensions><speed>1.305361</speed><course>332.829010</course><hAcc>0.880942</hAcc><vAcc>0.691581</vAcc></extensions></trkpt>
      <trkpt lon="-3.164831" lat="53.003665"><ele>294.050842</ele><time>2021-09-01T09:51:22Z</time><extensions><speed>1.295168</speed><course>333.287506</course><hAcc>0.881224</hAcc><vAcc>0.692518</vAcc></extensions></trkpt>
      <trkpt lon="-3.164829" lat="53.003676"><ele>294.031799</ele><time>2021-09-01T09:51:23Z</time><extensions><speed>1.284320</speed><course>320.664337</course><hAcc>0.881467</hAcc><vAcc>0.693296</vAcc></extensions></trkpt>
      <trkpt lon="-3.164826" lat="53.003687"><ele>294.016449</ele><time>2021-09-01T09:51:24Z</time><extensions><speed>1.273033</speed><course>319.581818</course><hAcc>0.881666</hAcc><vAcc>0.693901</vAcc></extensions></trkpt>
      <trkpt lon="-3.164822" lat="53.003699"><ele>294.005798</ele><time>2021-09-01T09:51:25Z</time><extensions><speed>1.261132</speed><course>320.113190</course><hAcc>0.881820</hAcc><vAcc>0.694333</vAcc></extensions></trkpt>
      <trkpt lon="-3.164818" lat="53.003710"><ele>294.000916</ele><time>2021-09-01T09:51:26Z</time><extensions><speed>1.247898</speed><course>325.625488</course><hAcc>0.881932</hAcc><vAcc>0.694604</vAcc></extensions></trkpt>
      <trkpt lon="-3.164814" lat="53.003720"><ele>294.003052</ele><time>2021-09-01T09:51:27Z</time><extensions><speed>1.232830</speed><course>320.008789</course><hAcc>0.882003</hAcc><vAcc>0.694735</vAcc></extensions></trkpt>
      <trkpt lon="-3.164809" lat="53.003731"><ele>294.013397</ele><time>2021-09-01T09:51:28Z</time><extensions><speed>1.215757</speed><course>318.909088</course><hAcc>0.882042</hAcc><vAcc>0.694751</vAcc></extensions></trkpt>
      <trkpt lon="-3.164804" lat="53.003741"><ele>294.032532</ele><time>2021-09-01T09:51:30Z</time><extensions><speed>1.196922</speed><course>323.298828</course><hAcc>0.882034</hAcc><vAcc>0.694667</vAcc></extensions></trkpt>
      <trkpt lon="-3.164798" lat="53.003752"><ele>294.060333</ele><time>2021-09-01T09:51:31Z</time><extensions><speed>1.177210</speed><course>319.843567</course><hAcc>0.881985</hAcc><vAcc>0.694507</vAcc></extensions></trkpt>
      <trkpt lon="-3.164793" lat="53.003762"><ele>294.096283</ele><time>2021-09-01T09:51:32Z</time><extensions><speed>1.157517</speed><course>314.311829</course><hAcc>0.881919</hAcc><vAcc>0.694305</vAcc></extensions></trkpt>
      <trkpt lon="-3.164787" lat="53.003771"><ele>294.139526</ele><time>2021-09-01T09:51:33Z</time><extensions><speed>1.139109</speed><course>319.089264</course><hAcc>0.881836</hAcc><vAcc>0.694075</vAcc></extensions></trkpt>
      <trkpt lon="-3.164781" lat="53.003781"><ele>294.188965</ele><time>2021-09-01T09:51:34Z</time><extensions><speed>1.122955</speed><course>322.114319</course><hAcc>0.881740</hAcc><vAcc>0.693817</vAcc></extensions></trkpt>
      <trkpt lon="-3.164775" lat="53.003790"><ele>294.243927</ele><time>2021-09-01T09:51:35Z</time><extensions><speed>1.108987</speed><course>313.771057</course><hAcc>0.881630</hAcc><vAcc>0.693517</vAcc></extensions></trkpt>
      <trkpt lon="-3.164769" lat="53.003799"><ele>294.304047</ele><time>2021-09-01T09:51:36Z</time><extensions><speed>1.096629</speed><course>306.383820</course><hAcc>0.881505</hAcc><vAcc>0.693159</vAcc></extensions></trkpt>
      <trkpt lon="-3.164763" lat="53.003808"><ele>294.368927</ele><time>2021-09-01T09:51:37Z</time><extensions><speed>1.085004</speed><course>308.594727</course><hAcc>0.881366</hAcc><vAcc>0.692737</vAcc></extensions></trkpt>
      <trkpt lon="-3.164756" lat="53.003817"><ele>294.438171</ele><time>2021-09-01T09:51:38Z</time><extensions><speed>1.073534</speed><course>313.438293</course><hAcc>0.881214</hAcc><vAcc>0.692260</vAcc></extensions></trkpt>
      <trkpt lon="-3.164750" lat="53.003826"><ele>294.511414</ele><time>2021-09-01T09:51:39Z</time><extensions><speed>1.062327</speed><course>315.261749</course><hAcc>0.881049</hAcc><vAcc>0.691746</vAcc></extensions></trkpt>
      <trkpt lon="-3.164744" lat="53.003835"><ele>294.588135</ele><time>2021-09-01T09:51:39Z</time><extensions><speed>1.051676</speed><course>314.962799</course><hAcc>0.880894</hAcc><vAcc>0.691229</vAcc></extensions></trkpt>
      <trkpt lon="-3.164737" lat="53.003843"><ele>294.668304</ele><time>2021-09-01T09:51:40Z</time><extensions><speed>1.042235</speed><course>311.864380</course><hAcc>0.880749</hAcc><vAcc>0.690723</vAcc></extensions></trkpt>
      <trkpt lon="-3.164730" lat="53.003852"><ele>294.752045</ele><time>2021-09-01T09:51:41Z</time><extensions><speed>1.035023</speed><course>305.555115</course><hAcc>0.880599</hAcc><vAcc>0.690222</vAcc></extensions></trkpt>
      <trkpt lon="-3.164724" lat="53.003860"><ele>294.839447</ele><time>2021-09-01T09:51:42Z</time><extensions><speed>1.030528</speed><course>309.414368</course><hAcc>0.880446</hAcc><vAcc>0.689726</vAcc></extensions></trkpt>
      <trkpt lon="-3.164717" lat="53.003869"><ele>294.929962</ele><time>2021-09-01T09:51:43Z</time><extensions><speed>1.028910</speed><course>312.426361</course><hAcc>0.880293</hAcc><vAcc>0.689228</vAcc></extensions></trkpt>
      <trkpt lon="-3.164711" lat="53.003877"><ele>295.022583</ele><time>2021-09-01T09:51:44Z</time><extensions><speed>1.030095</speed><course>315.779877</course><hAcc>0.880140</hAcc><vAcc>0.688725</vAcc></extensions></trkpt>
      <trkpt lon="-3.164704" lat="53.003885"><ele>295.116241</ele><time>2021-09-01T09:51:45Z</time><extensions><speed>1.033582</speed><course>309.393494</course><hAcc>0.879991</hAcc><vAcc>0.688219</vAcc></extensions></trkpt>
      <trkpt lon="-3.164698" lat="53.003894"><ele>295.210297</ele><time>2021-09-01T09:51:46Z</time><extensions><speed>1.038562</speed><course>315.161163</course><hAcc>0.879850</hAcc><vAcc>0.687727</vAcc></extensions></trkpt>
      <trkpt lon="-3.164692" lat="53.003902"><ele>295.304504</ele><time>2021-09-01T09:51:47Z</time><extensions><speed>1.044155</speed><course>313.978088</course><hAcc>0.879721</hAcc><vAcc>0.687270</vAcc></extensions></trkpt>
      <trkpt lon="-3.164686" lat="53.003911"><ele>295.399017</ele><time>2021-09-01T09:51:48Z</time><extensions><speed>1.050056</speed><course>310.683502</course><hAcc>0.879607</hAcc><vAcc>0.686874</vAcc></extensions></trkpt>
      <trkpt lon="-3.164681" lat="53.003920"><ele>295.494324</ele><time>2021-09-01T09:51:49Z</time><extensions><speed>1.056990</speed><course>311.301880</course><hAcc>0.879510</hAcc><vAcc>0.686554</vAcc></extensions></trkpt>
      <trkpt lon="-3.164675" lat="53.003929"><ele>295.590942</ele><time>2021-09-01T09:51:50Z</time><extensions><speed>1.065612</speed><course>311.208435</course><hAcc>0.879432</hAcc><vAcc>0.686319</vAcc></extensions></trkpt>
      <trkpt lon="-3.164670" lat="53.003938"><ele>295.689056</ele><time>2021-09-01T09:51:51Z</time><extensions><speed>1.076028</speed><course>309.569458</course><hAcc>0.879371</hAcc><vAcc>0.686162</vAcc></extensions></trkpt>
      <trkpt lon="-3.164665" lat="53.003947"><ele>295.788605</ele><time>2021-09-01T09:51:52Z</time><extensions><speed>1.087961</speed><course>310.187012</course><hAcc>0.879322</hAcc><vAcc>0.686062</vAcc></extensions></trkpt>
      <trkpt lon="-3.164660" lat="53.003957"><ele>295.889099</ele><time>2021-09-01T09:51:53Z</time><extensions><speed>1.100984</speed><course>310.459808</course><hAcc>0.879280</hAcc><vAcc>0.685992</vAcc></extensions></trkpt>
      <trkpt lon="-3.164655" lat="53.003966"><ele>295.989227</ele><time>2021-09-01T09:51:54Z</time><extensions><speed>1.114822</speed><course>310.191071</course><hAcc>0.879239</hAcc><vAcc>0.685918</vAcc></extensions></trkpt>
      <trkpt lon="-3.164651" lat="53.003976"><ele>296.086823</ele><time>2021-09-01T09:51:55Z</time><extensions><speed>1.129106</speed><course>313.202332</course><hAcc>0.879196</hAcc><vAcc>0.685816</vAcc></extensions></trkpt>
      <trkpt lon="-3.164647" lat="53.003986"><ele>296.179626</ele><time>2021-09-01T09:51:56Z</time><extensions><speed>1.143444</speed><course>317.375305</course><hAcc>0.879145</hAcc><vAcc>0.685667</vAcc></extensions></trkpt>
      <trkpt lon="-3.164643" lat="53.003996"><ele>296.265594</ele><time>2021-09-01T09:51:57Z</time><extensions><speed>1.157319</speed><course>320.965942</course><hAcc>0.879086</hAcc><vAcc>0.685465</vAcc></extensions></trkpt>
      <trkpt lon="-3.164639" lat="53.004006"><ele>296.342957</ele><time>2021-09-01T09:51:58Z</time><extensions><speed>1.170340</speed><course>318.335114</course><hAcc>0.879019</hAcc><vAcc>0.685219</vAcc></extensions></trkpt>
      <trkpt lon="-3.164635" lat="53.004016"><ele>296.410278</ele><time>2021-09-01T09:51:59Z</time><extensions><speed>1.182048</speed><course>322.780487</course><hAcc>0.878947</hAcc><vAcc>0.684947</vAcc></extensions></trkpt>
      <trkpt lon="-3.164632" lat="53.004027"><ele>296.466278</ele><time>2021-09-01T09:52:00Z</time><extensions><speed>1.192017</speed><course>321.324005</course><hAcc>0.878874</hAcc><vAcc>0.684673</vAcc></extensions></trkpt>
      <trkpt lon="-3.164629" lat="53.004037"><ele>296.509766</ele><time>2021-09-01T09:52:01Z</time><extensions><speed>1.200380</speed><course>322.516296</course><hAcc>0.878802</hAcc><vAcc>0.684418</vAcc></extensions></trkpt>
      <trkpt lon="-3.164626" lat="53.004048"><ele>296.539734</ele><time>2021-09-01T09:52:02Z</time><extensions><speed>1.207027</speed><course>319.995483</course><hAcc>0.878736</hAcc><vAcc>0.684194</vAcc></extensions></trkpt>
      <trkpt lon="-3.164623" lat="53.004059"><ele>296.555359</ele><time>2021-09-01T09:52:03Z</time><extensions><speed>1.211569</speed><course>324.182892</course><hAcc>0.878675</hAcc><vAcc>0.684005</vAcc></extensions></trkpt>
      <trkpt lon="-3.164620" lat="53.004070"><ele>296.556396</ele><time>2021-09-01T09:52:04Z</time><extensions><speed>1.213950</speed><course>328.616821</course><hAcc>0.878620</hAcc><vAcc>0.683846</vAcc></extensions></trkpt>
      <trkpt lon="-3.164618" lat="53.004080"><ele>296.543060</ele><time>2021-09-01T09:52:05Z</time><extensions><speed>1.213937</speed><course>324.016815</course><hAcc>0.878571</hAcc><vAcc>0.683711</vAcc></extensions></trkpt>
      <trkpt lon="-3.164615" lat="53.004091"><ele>296.515442</ele><time>2021-09-01T09:52:06Z</time><extensions><speed>1.211456</speed><course>329.825897</course><hAcc>0.878527</hAcc><vAcc>0.683594</vAcc></extensions></trkpt>
      <trkpt lon="-3.164613" lat="53.004102"><ele>296.473755</ele><time>2021-09-01T09:52:07Z</time><extensions><speed>1.207043</speed><course>327.868408</course><hAcc>0.878487</hAcc><vAcc>0.683487</vAcc></extensions></trkpt>
      <trkpt lon="-3.164611" lat="53.004113"><ele>296.418488</ele><time>2021-09-01T09:52:08Z</time><extensions><speed>1.200968</speed><course>336.001526</course><hAcc>0.878450</hAcc><vAcc>0.683380</vAcc></extensions></trkpt>
      <trkpt lon="-3.164609" lat="53.004123"><ele>296.350769</ele><time>2021-09-01T09:52:09Z</time><extensions><speed>1.193019</speed><course>319.189575</course><hAcc>0.878417</hAcc><vAcc>0.683269</vAcc></extensions></trkpt>
      <trkpt lon="-3.164607" lat="53.004134"><ele>296.272308</ele><time>2021-09-01T09:52:10Z</time><extensions><speed>1.182864</speed><course>314.045624</course><hAcc>0.878388</hAcc><vAcc>0.683159</vAcc></extensions></trkpt>
      <trkpt lon="-3.164605" lat="53.004145"><ele>296.185211</ele><time>2021-09-01T09:52:11Z</time><extensions><speed>1.170999</speed><course>316.798950</course><hAcc>0.878369</hAcc><vAcc>0.683067</vAcc></extensions></trkpt>
      <trkpt lon="-3.164603" lat="53.004155"><ele>296.091400</ele><time>2021-09-01T09:52:12Z</time><extensions><speed>1.158665</speed><course>316.381958</course><hAcc>0.878362</hAcc><vAcc>0.683011</vAcc></extensions></trkpt>
      <trkpt lon="-3.164601" lat="53.004165"><ele>295.992493</ele><time>2021-09-01T09:52:13Z</time><extensions><speed>1.147015</speed><course>324.109985</course><hAcc>0.878372</hAcc><vAcc>0.683010</vAcc></extensions></trkpt>
      <trkpt lon="-3.164599" lat="53.004175"><ele>295.889862</ele><time>2021-09-01T09:52:14Z</time><extensions><speed>1.137161</speed><course>319.248718</course><hAcc>0.878405</hAcc><vAcc>0.683076</vAcc></extensions></trkpt>
      <trkpt lon="-3.164596" lat="53.004186"><ele>295.784546</ele><time>2021-09-01T09:52:15Z</time><extensions><speed>1.129539</speed><course>322.755310</course><hAcc>0.878463</hAcc><vAcc>0.683225</vAcc></extensions></trkpt>
      <trkpt lon="-3.164594" lat="53.004196"><ele>295.677521</ele><time>2021-09-01T09:52:16Z</time><extensions><speed>1.123895</speed><course>326.625031</course><hAcc>0.878551</hAcc><vAcc>0.683471</vAcc></extensions></trkpt>
      <trkpt lon="-3.164592" lat="53.004206"><ele>295.569916</ele><time>2021-09-01T09:52:17Z</time><extensions><speed>1.119587</speed><course>328.024994</course><hAcc>0.878672</hAcc><vAcc>0.683832</vAcc></extensions></trkpt>
      <trkpt lon="-3.164589" lat="53.004215"><ele>295.462891</ele><time>2021-09-01T09:52:18Z</time><extensions><speed>1.115823</speed><course>332.378082</course><hAcc>0.878827</hAcc><vAcc>0.684319</vAcc></extensions></trkpt>
      <trkpt lon="-3.164587" lat="53.004225"><ele>295.357361</ele><time>2021-09-01T09:52:19Z</time><extensions><speed>1.111830</speed><course>332.526154</course><hAcc>0.879017</hAcc><vAcc>0.684936</vAcc></extensions></trkpt>
      <trkpt lon="-3.164584" lat="53.004235"><ele>295.253601</ele><time>2021-09-01T09:52:20Z</time><extensions><speed>1.107217</speed><course>335.486633</course><hAcc>0.879238</hAcc><vAcc>0.685677</vAcc></extensions></trkpt>
      <trkpt lon="-3.164582" lat="53.004245"><ele>295.151733</ele><time>2021-09-01T09:52:21Z</time><extensions><speed>1.102166</speed><course>336.016846</course><hAcc>0.879484</hAcc><vAcc>0.686524</vAcc></extensions></trkpt>
      <trkpt lon="-3.164579" lat="53.004255"><ele>295.051819</ele><time>2021-09-01T09:52:22Z</time><extensions><speed>1.097052</speed><course>334.888000</course><hAcc>0.879749</hAcc><vAcc>0.687449</vAcc></extensions></trkpt>
      <trkpt lon="-3.164576" lat="53.004264"><ele>294.953949</ele><time>2021-09-01T09:52:23Z</time><extensions><speed>1.092292</speed><course>333.393311</course><hAcc>0.880021</hAcc><vAcc>0.688408</vAcc></extensions></trkpt>
      <trkpt lon="-3.164574" lat="53.004274"><ele>294.858032</ele><time>2021-09-01T09:52:24Z</time><extensions><speed>1.088483</speed><course>318.935883</course><hAcc>0.880290</hAcc><vAcc>0.689357</vAcc></extensions></trkpt>
      <trkpt lon="-3.164571" lat="53.004284"><ele>294.763672</ele><time>2021-09-01T09:52:25Z</time><extensions><speed>1.086350</speed><course>311.891724</course><hAcc>0.880544</hAcc><vAcc>0.690250</vAcc></extensions></trkpt>
      <trkpt lon="-3.164568" lat="53.004293"><ele>294.670441</ele><time>2021-09-01T09:52:26Z</time><extensions><speed>1.086227</speed><course>312.578461</course><hAcc>0.880774</hAcc><vAcc>0.691044</vAcc></extensions></trkpt>
      <trkpt lon="-3.164565" lat="53.004303"><ele>294.577911</ele><time>2021-09-01T09:52:27Z</time><extensions><speed>1.088282</speed><course>320.602325</course><hAcc>0.880971</hAcc><vAcc>0.691704</vAcc></extensions></trkpt>
      <trkpt lon="-3.164563" lat="53.004313"><ele>294.485748</ele><time>2021-09-01T09:52:28Z</time><extensions><speed>1.092708</speed><course>323.639648</course><hAcc>0.881129</hAcc><vAcc>0.692207</vAcc></extensions></trkpt>
      <trkpt lon="-3.164559" lat="53.004322"><ele>294.393402</ele><time>2021-09-01T09:52:29Z</time><extensions><speed>1.099423</speed><course>325.641083</course><hAcc>0.881247</hAcc><vAcc>0.692546</vAcc></extensions></trkpt>
      <trkpt lon="-3.164556" lat="53.004332"><ele>294.300537</ele><time>2021-09-01T09:52:30Z</time><extensions><speed>1.108288</speed><course>324.286163</course><hAcc>0.881325</hAcc><vAcc>0.692731</vAcc></extensions></trkpt>
      <trkpt lon="-3.164553" lat="53.004342"><ele>294.206940</ele><time>2021-09-01T09:52:31Z</time><extensions><speed>1.119293</speed><course>330.884674</course><hAcc>0.881364</hAcc><vAcc>0.692783</vAcc></extensions></trkpt>
      <trkpt lon="-3.164549" lat="53.004352"><ele>294.112610</ele><time>2021-09-01T09:52:32Z</time><extensions><speed>1.132363</speed><course>342.591980</course><hAcc>0.881371</hAcc><vAcc>0.692734</vAcc></extensions></trkpt>
      <trkpt lon="-3.164545" lat="53.004362"><ele>294.017334</ele><time>2021-09-01T09:52:33Z</time><extensions><speed>1.147368</speed><course>340.473694</course><hAcc>0.881349</hAcc><vAcc>0.692611</vAcc></extensions></trkpt>
      <trkpt lon="-3.164541" lat="53.004372"><ele>293.921326</ele><time>2021-09-01T09:52:34Z</time><extensions><speed>1.163803</speed><course>337.459930</course><hAcc>0.881303</hAcc><vAcc>0.692436</vAcc></extensions></trkpt>
      <trkpt lon="-3.164537" lat="53.004382"><ele>293.825043</ele><time>2021-09-01T09:52:35Z</time><extensions><speed>1.180613</speed><course>334.977905</course><hAcc>0.881237</hAcc><vAcc>0.692219</vAcc></extensions></trkpt>
      <trkpt lon="-3.164532" lat="53.004392"><ele>293.728699</ele><time>2021-09-01T09:52:36Z</time><extensions><speed>1.196966</speed><course>334.909821</course><hAcc>0.881156</hAcc><vAcc>0.691964</vAcc></extensions></trkpt>
      <trkpt lon="-3.164527" lat="53.004403"><ele>293.632355</ele><time>2021-09-01T09:52:37Z</time><extensions><speed>1.212431</speed><course>335.401093</course><hAcc>0.881061</hAcc><vAcc>0.691672</vAcc></extensions></trkpt>
      <trkpt lon="-3.164522" lat="53.004413"><ele>293.536102</ele><time>2021-09-01T09:52:38Z</time><extensions><speed>1.226431</speed><course>335.416534</course><hAcc>0.880956</hAcc><vAcc>0.691343</vAcc></extensions></trkpt>
      <trkpt lon="-3.164516" lat="53.004424"><ele>293.440002</ele><time>2021-09-01T09:52:39Z</time><extensions><speed>1.238070</speed><course>333.502777</course><hAcc>0.880845</hAcc><vAcc>0.690981</vAcc></extensions></trkpt>
      <trkpt lon="-3.164511" lat="53.004434"><ele>293.344025</ele><time>2021-09-01T09:52:40Z</time><extensions><speed>1.247067</speed><course>334.704010</course><hAcc>0.880732</hAcc><vAcc>0.690594</vAcc></extensions></trkpt>
      <trkpt lon="-3.164505" lat="53.004445"><ele>293.247620</ele><time>2021-09-01T09:52:41Z</time><extensions><speed>1.253582</speed><course>336.400421</course><hAcc>0.880623</hAcc><vAcc>0.690198</vAcc></extensions></trkpt>
      <trkpt lon="-3.164499" lat="53.004456"><ele>293.149933</ele><time>2021-09-01T09:52:42Z</time><extensions><speed>1.257829</speed><course>347.265839</course><hAcc>0.880524</hAcc><vAcc>0.689818</vAcc></extensions></trkpt>
      <trkpt lon="-3.164494" lat="53.004467"><ele>293.050446</ele><time>2021-09-01T09:52:43Z</time><extensions><speed>1.260074</speed><course>344.062927</course><hAcc>0.880443</hAcc><vAcc>0.689488</vAcc></extensions></trkpt>
      <trkpt lon="-3.164488" lat="53.004477"><ele>292.949371</ele><time>2021-09-01T09:52:44Z</time><extensions><speed>1.260654</speed><course>337.032654</course><hAcc>0.880386</hAcc><vAcc>0.689245</vAcc></extensions></trkpt>
      <trkpt lon="-3.164482" lat="53.004488"><ele>292.847595</ele><time>2021-09-01T09:52:45Z</time><extensions><speed>1.260465</speed><course>338.548584</course><hAcc>0.880360</hAcc><vAcc>0.689121</vAcc></extensions></trkpt>
      <trkpt lon="-3.164477" lat="53.004499"><ele>292.746063</ele><time>2021-09-01T09:52:46Z</time><extensions><speed>1.260268</speed><course>340.790558</course><hAcc>0.880369</hAcc><vAcc>0.689132</vAcc></extensions></trkpt>
      <trkpt lon="-3.164472" lat="53.004510"><ele>292.645538</ele><time>2021-09-01T09:52:47Z</time><extensions><speed>1.260313</speed><course>331.528198</course><hAcc>0.880412</hAcc><vAcc>0.689283</vAcc></extensions></trkpt>
      <trkpt lon="-3.164466" lat="53.004521"><ele>292.546600</ele><time>2021-09-01T09:52:48Z</time><extensions><speed>1.260319</speed><course>326.705475</course><hAcc>0.880488</hAcc><vAcc>0.689567</vAcc></extensions></trkpt>
      <trkpt lon="-3.164461" lat="53.004532"><ele>292.449829</ele><time>2021-09-01T09:52:49Z</time><extensions><speed>1.259843</speed><course>334.332062</course><hAcc>0.880594</hAcc><vAcc>0.689968</vAcc></extensions></trkpt>
      <trkpt lon="-3.164455" lat="53.004542"><ele>292.355652</ele><time>2021-09-01T09:52:50Z</time><extensions><speed>1.259327</speed><course>321.684448</course><hAcc>0.880724</hAcc><vAcc>0.690459</vAcc></extensions></trkpt>
      <trkpt lon="-3.164450" lat="53.004553"><ele>292.264008</ele><time>2021-09-01T09:52:51Z</time><extensions><speed>1.259462</speed><course>319.446838</course><hAcc>0.880870</hAcc><vAcc>0.691001</vAcc></extensions></trkpt>
      <trkpt lon="-3.164445" lat="53.004564"><ele>292.174896</ele><time>2021-09-01T09:52:52Z</time><extensions><speed>1.260369</speed><course>327.299927</course><hAcc>0.881022</hAcc><vAcc>0.691552</vAcc></extensions></trkpt>
      <trkpt lon="-3.164439" lat="53.004575"><ele>292.088745</ele><time>2021-09-01T09:52:53Z</time><extensions><speed>1.261717</speed><course>327.362518</course><hAcc>0.881174</hAcc><vAcc>0.692076</vAcc></extensions></trkpt>
      <trkpt lon="-3.164434" lat="53.004586"><ele>292.006073</ele><time>2021-09-01T09:52:54Z</time><extensions><speed>1.262617</speed><course>320.449799</course><hAcc>0.881319</hAcc><vAcc>0.692553</vAcc></extensions></trkpt>
      <trkpt lon="-3.164428" lat="53.004597"><ele>291.927094</ele><time>2021-09-01T09:52:55Z</time><extensions><speed>1.262900</speed><course>323.666901</course><hAcc>0.881452</hAcc><vAcc>0.692975</vAcc></extensions></trkpt>
      <trkpt lon="-3.164422" lat="53.004607"><ele>291.851349</ele><time>2021-09-01T09:52:56Z</time><extensions><speed>1.262743</speed><course>325.310486</course><hAcc>0.881570</hAcc><vAcc>0.693340</vAcc></extensions></trkpt>
      <trkpt lon="-3.164416" lat="53.004618"><ele>291.778015</ele><time>2021-09-01T09:52:57Z</time><extensions><speed>1.262050</speed><course>323.024933</course><hAcc>0.881670</hAcc><vAcc>0.693648</vAcc></extensions></trkpt>
      <trkpt lon="-3.164410" lat="53.004629"><ele>291.706360</ele><time>2021-09-01T09:52:58Z</time><extensions><speed>1.260949</speed><course>321.641022</course><hAcc>0.881752</hAcc><vAcc>0.693898</vAcc></extensions></trkpt>
      <trkpt lon="-3.164404" lat="53.004640"><ele>291.635803</ele><time>2021-09-01T09:52:59Z</time><extensions><speed>1.259292</speed><course>323.471222</course><hAcc>0.881814</hAcc><vAcc>0.694091</vAcc></extensions></trkpt>
      <trkpt lon="-3.164398" lat="53.004650"><ele>291.565674</ele><time>2021-09-01T09:53:00Z</time><extensions><speed>1.256447</speed><course>324.875793</course><hAcc>0.881856</hAcc><vAcc>0.694226</vAcc></extensions></trkpt>
      <trkpt lon="-3.164392" lat="53.004661"><ele>291.495178</ele><time>2021-09-01T09:53:01Z</time><extensions><speed>1.252029</speed><course>318.989594</course><hAcc>0.881879</hAcc><vAcc>0.694303</vAcc></extensions></trkpt>
      <trkpt lon="-3.164386" lat="53.004672"><ele>291.423584</ele><time>2021-09-01T09:53:02Z</time><extensions><speed>1.246633</speed><course>325.887390</course><hAcc>0.881883</hAcc><vAcc>0.694319</vAcc></extensions></trkpt>
      <trkpt lon="-3.164380" lat="53.004682"><ele>291.350037</ele><time>2021-09-01T09:53:03Z</time><extensions><speed>1.240982</speed><course>320.176544</course><hAcc>0.881869</hAcc><vAcc>0.694271</vAcc></extensions></trkpt>
      <trkpt lon="-3.164374" lat="53.004693"><ele>291.273621</ele><time>2021-09-01T09:53:04Z</time><extensions><speed>1.235461</speed><course>316.970215</course><hAcc>0.881839</hAcc><vAcc>0.694160</vAcc></extensions></trkpt>
      <trkpt lon="-3.164368" lat="53.004703"><ele>291.193420</ele><time>2021-09-01T09:53:05Z</time><extensions><speed>1.230036</speed><course>317.579376</course><hAcc>0.881794</hAcc><vAcc>0.693997</vAcc></extensions></trkpt>
      <trkpt lon="-3.164361" lat="53.004713"><ele>291.109253</ele><time>2021-09-01T09:53:06Z</time><extensions><speed>1.224754</speed><course>318.426422</course><hAcc>0.881740</hAcc><vAcc>0.693794</vAcc></extensions></trkpt>
      <trkpt lon="-3.164355" lat="53.004724"><ele>291.022003</ele><time>2021-09-01T09:53:07Z</time><extensions><speed>1.220482</speed><course>326.252594</course><hAcc>0.881679</hAcc><vAcc>0.693567</vAcc></extensions></trkpt>
      <trkpt lon="-3.164349" lat="53.004734"><ele>290.933075</ele><time>2021-09-01T09:53:08Z</time><extensions><speed>1.217772</speed><course>323.145020</course><hAcc>0.881616</hAcc><vAcc>0.693331</vAcc></extensions></trkpt>
      <trkpt lon="-3.164343" lat="53.004744"><ele>290.843811</ele><time>2021-09-01T09:53:09Z</time><extensions><speed>1.216624</speed><course>325.683777</course><hAcc>0.881554</hAcc><vAcc>0.693099</vAcc></extensions></trkpt>
      <trkpt lon="-3.164337" lat="53.004755"><ele>290.755096</ele><time>2021-09-01T09:53:10Z</time><extensions><speed>1.216867</speed><course>328.591705</course><hAcc>0.881497</hAcc><vAcc>0.692884</vAcc></extensions></trkpt>
      <trkpt lon="-3.164331" lat="53.004765"><ele>290.667145</ele><time>2021-09-01T09:53:11Z</time><extensions><speed>1.218073</speed><course>330.002411</course><hAcc>0.881450</hAcc><vAcc>0.692705</vAcc></extensions></trkpt>
      <trkpt lon="-3.164324" lat="53.004775"><ele>290.579895</ele><time>2021-09-01T09:53:12Z</time><extensions><speed>1.219366</speed><course>336.475830</course><hAcc>0.881415</hAcc><vAcc>0.692577</vAcc></extensions></trkpt>
      <trkpt lon="-3.164318" lat="53.004785"><ele>290.493286</ele><time>2021-09-01T09:53:13Z</time><extensions><speed>1.219612</speed><course>344.051849</course><hAcc>0.881394</hAcc><vAcc>0.692511</vAcc></extensions></trkpt>
      <trkpt lon="-3.164311" lat="53.004796"><ele>290.407257</ele><time>2021-09-01T09:53:14Z</time><extensions><speed>1.218719</speed><course>336.407532</course><hAcc>0.881389</hAcc><vAcc>0.692506</vAcc></extensions></trkpt>
      <trkpt lon="-3.164305" lat="53.004806"><ele>290.321869</ele><time>2021-09-01T09:53:15Z</time><extensions><speed>1.217264</speed><course>333.640045</course><hAcc>0.881398</hAcc><vAcc>0.692556</vAcc></extensions></trkpt>
      <trkpt lon="-3.164298" lat="53.004816"><ele>290.237366</ele><time>2021-09-01T09:53:16Z</time><extensions><speed>1.215744</speed><course>342.498993</course><hAcc>0.881421</hAcc><vAcc>0.692652</vAcc></extensions></trkpt>
      <trkpt lon="-3.164291" lat="53.004826"><ele>290.153992</ele><time>2021-09-01T09:53:17Z</time><extensions><speed>1.214285</speed><course>346.370605</course><hAcc>0.881455</hAcc><vAcc>0.692786</vAcc></extensions></trkpt>
      <trkpt lon="-3.164283" lat="53.004836"><ele>290.072021</ele><time>2021-09-01T09:53:18Z</time><extensions><speed>1.212545</speed><course>342.144836</course><hAcc>0.881499</hAcc><vAcc>0.692947</vAcc></extensions></trkpt>
      <trkpt lon="-3.164276" lat="53.004846"><ele>289.991486</ele><time>2021-09-01T09:53:19Z</time><extensions><speed>1.210742</speed><course>335.813446</course><hAcc>0.881550</hAcc><vAcc>0.693124</vAcc></extensions></trkpt>
      <trkpt lon="-3.164269" lat="53.004856"><ele>289.912018</ele><time>2021-09-01T09:53:20Z</time><extensions><speed>1.209368</speed><course>332.699371</course><hAcc>0.881607</hAcc><vAcc>0.693308</vAcc></extensions></trkpt>
      <trkpt lon="-3.164261" lat="53.004866"><ele>289.833191</ele><time>2021-09-01T09:53:21Z</time><extensions><speed>1.208584</speed><course>329.959167</course><hAcc>0.881668</hAcc><vAcc>0.693496</vAcc></extensions></trkpt>
      <trkpt lon="-3.164253" lat="53.004875"><ele>289.754395</ele><time>2021-09-01T09:53:22Z</time><extensions><speed>1.208420</speed><course>328.573547</course><hAcc>0.881733</hAcc><vAcc>0.693689</vAcc></extensions></trkpt>
      <trkpt lon="-3.164246" lat="53.004885"><ele>289.675293</ele><time>2021-09-01T09:53:23Z</time><extensions><speed>1.208892</speed><course>326.699219</course><hAcc>0.881801</hAcc><vAcc>0.693892</vAcc></extensions></trkpt>
      <trkpt lon="-3.164238" lat="53.004895"><ele>289.596039</ele><time>2021-09-01T09:53:24Z</time><extensions><speed>1.210002</speed><course>323.768890</course><hAcc>0.881873</hAcc><vAcc>0.694110</vAcc></extensions></trkpt>
      <trkpt lon="-3.164230" lat="53.004905"><ele>289.516937</ele><time>2021-09-01T09:53:25Z</time><extensions><speed>1.211778</speed><course>323.826019</course><hAcc>0.881948</hAcc><vAcc>0.694346</vAcc></extensions></trkpt>
      <trkpt lon="-3.164222" lat="53.004915"><ele>289.437958</ele><time>2021-09-01T09:53:26Z</time><extensions><speed>1.214702</speed><course>332.271057</course><hAcc>0.882025</hAcc><vAcc>0.694598</vAcc></extensions></trkpt>
      <trkpt lon="-3.164215" lat="53.004925"><ele>289.359009</ele><time>2021-09-01T09:53:27Z</time><extensions><speed>1.218874</speed><course>333.951233</course><hAcc>0.882104</hAcc><vAcc>0.694861</vAcc></extensions></trkpt>
      <trkpt lon="-3.164207" lat="53.004935"><ele>289.279846</ele><time>2021-09-01T09:53:28Z</time><extensions><speed>1.223769</speed><course>329.776917</course><hAcc>0.882181</hAcc><vAcc>0.695121</vAcc></extensions></trkpt>
      <trkpt lon="-3.164199" lat="53.004945"><ele>289.200043</ele><time>2021-09-01T09:53:29Z</time><extensions><speed>1.228619</speed><course>319.463959</course><hAcc>0.882255</hAcc><vAcc>0.695369</vAcc></extensions></trkpt>
      <trkpt lon="-3.164192" lat="53.004955"><ele>289.118896</ele><time>2021-09-01T09:53:30Z</time><extensions><speed>1.232611</speed><course>318.313507</course><hAcc>0.882323</hAcc><vAcc>0.695597</vAcc></extensions></trkpt>
      <trkpt lon="-3.164184" lat="53.004965"><ele>289.035522</ele><time>2021-09-01T09:53:31Z</time><extensions><speed>1.235131</speed><course>318.491211</course><hAcc>0.882385</hAcc><vAcc>0.695802</vAcc></extensions></trkpt>
      <trkpt lon="-3.164177" lat="53.004975"><ele>288.949188</ele><time>2021-09-01T09:53:32Z</time><extensions><speed>1.235604</speed><course>324.025574</course><hAcc>0.882439</hAcc><vAcc>0.695977</vAcc></extensions></trkpt>
      <trkpt lon="-3.164169" lat="53.004985"><ele>288.859283</ele><time>2021-09-01T09:53:33Z</time><extensions><speed>1.233279</speed><course>330.489594</course><hAcc>0.882482</hAcc><vAcc>0.696111</vAcc></extensions></trkpt>
      <trkpt lon="-3.164161" lat="53.004995"><ele>288.765289</ele><time>2021-09-01T09:53:34Z</time><extensions><speed>1.227606</speed><course>319.490967</course><hAcc>0.882515</hAcc><vAcc>0.696197</vAcc></extensions></trkpt>
      <trkpt lon="-3.164154" lat="53.005005"><ele>288.666687</ele><time>2021-09-01T09:53:36Z</time><extensions><speed>1.218703</speed><course>318.785126</course><hAcc>0.882518</hAcc><vAcc>0.696215</vAcc></extensions></trkpt>
      <trkpt lon="-3.164146" lat="53.005015"><ele>288.563416</ele><time>2021-09-01T09:53:37Z</time><extensions><speed>1.207192</speed><course>319.524078</course><hAcc>0.882492</hAcc><vAcc>0.696163</vAcc></extensions></trkpt>
      <trkpt lon="-3.164139" lat="53.005025"><ele>288.455658</ele><time>2021-09-01T09:53:38Z</time><extensions><speed>1.193817</speed><course>320.200592</course><hAcc>0.882454</hAcc><vAcc>0.696056</vAcc></extensions></trkpt>
      <trkpt lon="-3.164131" lat="53.005034"><ele>288.343842</ele><time>2021-09-01T09:53:39Z</time><extensions><speed>1.179315</speed><course>316.905914</course><hAcc>0.882405</hAcc><vAcc>0.695900</vAcc></extensions></trkpt>
      <trkpt lon="-3.164124" lat="53.005044"><ele>288.228424</ele><time>2021-09-01T09:53:40Z</time><extensions><speed>1.164378</speed><course>304.890350</course><hAcc>0.882346</hAcc><vAcc>0.695711</vAcc></extensions></trkpt>
      <trkpt lon="-3.164117" lat="53.005053"><ele>288.109833</ele><time>2021-09-01T09:53:41Z</time><extensions><speed>1.149768</speed><course>307.400696</course><hAcc>0.882278</hAcc><vAcc>0.695504</vAcc></extensions></trkpt>
      <trkpt lon="-3.164110" lat="53.005063"><ele>287.988464</ele><time>2021-09-01T09:53:42Z</time><extensions><speed>1.136237</speed><course>312.802460</course><hAcc>0.882202</hAcc><vAcc>0.695287</vAcc></extensions></trkpt>
      <trkpt lon="-3.164103" lat="53.005072"><ele>287.864685</ele><time>2021-09-01T09:53:43Z</time><extensions><speed>1.124411</speed><course>316.368164</course><hAcc>0.882118</hAcc><vAcc>0.695065</vAcc></extensions></trkpt>
      <trkpt lon="-3.164096" lat="53.005081"><ele>287.739014</ele><time>2021-09-01T09:53:43Z</time><extensions><speed>1.115013</speed><course>316.320160</course><hAcc>0.882044</hAcc><vAcc>0.694845</vAcc></extensions></trkpt>
      <trkpt lon="-3.164088" lat="53.005090"><ele>287.611755</ele><time>2021-09-01T09:53:44Z</time><extensions><speed>1.108561</speed><course>316.450867</course><hAcc>0.881982</hAcc><vAcc>0.694622</vAcc></extensions></trkpt>
      <trkpt lon="-3.164081" lat="53.005099"><ele>287.483459</ele><time>2021-09-01T09:53:45Z</time><extensions><speed>1.105325</speed><course>319.349792</course><hAcc>0.881913</hAcc><vAcc>0.694379</vAcc></extensions></trkpt>
      <trkpt lon="-3.164074" lat="53.005108"><ele>287.354279</ele><time>2021-09-01T09:53:46Z</time><extensions><speed>1.105196</speed><course>313.071381</course><hAcc>0.881840</hAcc><vAcc>0.694121</vAcc></extensions></trkpt>
      <trkpt lon="-3.164067" lat="53.005117"><ele>287.224304</ele><time>2021-09-01T09:53:47Z</time><extensions><speed>1.107744</speed><course>306.006348</course><hAcc>0.881763</hAcc><vAcc>0.693855</vAcc></extensions></trkpt>
      <trkpt lon="-3.164060" lat="53.005126"><ele>287.093658</ele><time>2021-09-01T09:53:48Z</time><extensions><speed>1.112705</speed><course>311.452911</course><hAcc>0.881686</hAcc><vAcc>0.693585</vAcc></extensions></trkpt>
      <trkpt lon="-3.164053" lat="53.005135"><ele>286.962128</ele><time>2021-09-01T09:53:49Z</time><extensions><speed>1.119630</speed><course>310.591675</course><hAcc>0.881609</hAcc><vAcc>0.693317</vAcc></extensions></trkpt>
      <trkpt lon="-3.164046" lat="53.005144"><ele>286.829346</ele><time>2021-09-01T09:53:50Z</time><extensions><speed>1.127751</speed><course>316.620819</course><hAcc>0.881533</hAcc><vAcc>0.693056</vAcc></extensions></trkpt>
      <trkpt lon="-3.164039" lat="53.005153"><ele>286.694489</ele><time>2021-09-01T09:53:51Z</time><extensions><speed>1.136692</speed><course>320.076630</course><hAcc>0.881458</hAcc><vAcc>0.692809</vAcc></extensions></trkpt>
      <trkpt lon="-3.164032" lat="53.005163"><ele>286.556488</ele><time>2021-09-01T09:53:52Z</time><extensions><speed>1.146041</speed><course>314.990906</course><hAcc>0.881385</hAcc><vAcc>0.692579</vAcc></extensions></trkpt>
      <trkpt lon="-3.164025" lat="53.005172"><ele>286.414581</ele><time>2021-09-01T09:53:53Z</time><extensions><speed>1.155363</speed><course>313.547699</course><hAcc>0.881312</hAcc><vAcc>0.692365</vAcc></extensions></trkpt>
      <trkpt lon="-3.164018" lat="53.005182"><ele>286.268280</ele><time>2021-09-01T09:53:54Z</time><extensions><speed>1.164278</speed><course>312.795837</course><hAcc>0.881239</hAcc><vAcc>0.692158</vAcc></extensions></trkpt>
      <trkpt lon="-3.164011" lat="53.005191"><ele>286.117523</ele><time>2021-09-01T09:53:55Z</time><extensions><speed>1.172523</speed><course>316.185669</course><hAcc>0.881161</hAcc><vAcc>0.691947</vAcc></extensions></trkpt>
      <trkpt lon="-3.164004" lat="53.005201"><ele>285.962341</ele><time>2021-09-01T09:53:56Z</time><extensions><speed>1.180111</speed><course>317.614319</course><hAcc>0.881077</hAcc><vAcc>0.691719</vAcc></extensions></trkpt>
      <trkpt lon="-3.163997" lat="53.005211"><ele>285.803131</ele><time>2021-09-01T09:53:57Z</time><extensions><speed>1.186905</speed><course>316.517609</course><hAcc>0.880983</hAcc><vAcc>0.691463</vAcc></extensions></trkpt>
      <trkpt lon="-3.163990" lat="53.005221"><ele>285.640625</ele><time>2021-09-01T09:53:58Z</time><extensions><speed>1.192661</speed><course>310.556824</course><hAcc>0.880879</hAcc><vAcc>0.691165</vAcc></extensions></trkpt>
      <trkpt lon="-3.163983" lat="53.005231"><ele>285.475769</ele><time>2021-09-01T09:53:59Z</time><extensions><speed>1.197137</speed><course>304.635742</course><hAcc>0.880763</hAcc><vAcc>0.690812</vAcc></extensions></trkpt>
      <trkpt lon="-3.163976" lat="53.005241"><ele>285.309723</ele><time>2021-09-01T09:54:00Z</time><extensions><speed>1.200337</speed><course>315.495270</course><hAcc>0.880635</hAcc><vAcc>0.690398</vAcc></extensions></trkpt>
      <trkpt lon="-3.163969" lat="53.005251"><ele>285.143433</ele><time>2021-09-01T09:54:01Z</time><extensions><speed>1.202214</speed><course>313.552460</course><hAcc>0.880498</hAcc><vAcc>0.689929</vAcc></extensions></trkpt>
      <trkpt lon="-3.163962" lat="53.005260"><ele>284.977386</ele><time>2021-09-01T09:54:02Z</time><extensions><speed>1.202561</speed><course>313.420563</course><hAcc>0.880358</hAcc><vAcc>0.689425</vAcc></extensions></trkpt>
      <trkpt lon="-3.163955" lat="53.005270"><ele>284.811646</ele><time>2021-09-01T09:54:03Z</time><extensions><speed>1.201533</speed><course>317.431976</course><hAcc>0.880222</hAcc><vAcc>0.688917</vAcc></extensions></trkpt>
      <trkpt lon="-3.163949" lat="53.005280"><ele>284.645996</ele><time>2021-09-01T09:54:04Z</time><extensions><speed>1.199429</speed><course>314.662933</course><hAcc>0.880096</hAcc><vAcc>0.688443</vAcc></extensions></trkpt>
      <trkpt lon="-3.163942" lat="53.005290"><ele>284.480713</ele><time>2021-09-01T09:54:05Z</time><extensions><speed>1.196134</speed><course>316.217957</course><hAcc>0.879990</hAcc><vAcc>0.688036</vAcc></extensions></trkpt>
      <trkpt lon="-3.163935" lat="53.005300"><ele>284.316498</ele><time>2021-09-01T09:54:06Z</time><extensions><speed>1.191556</speed><course>314.471741</course><hAcc>0.879910</hAcc><vAcc>0.687729</vAcc></extensions></trkpt>
      <trkpt lon="-3.163927" lat="53.005310"><ele>284.153748</ele><time>2021-09-01T09:54:07Z</time><extensions><speed>1.186165</speed><course>317.281403</course><hAcc>0.879861</hAcc><vAcc>0.687544</vAcc></extensions></trkpt>
      <trkpt lon="-3.163920" lat="53.005320"><ele>283.992737</ele><time>2021-09-01T09:54:08Z</time><extensions><speed>1.180234</speed><course>311.230988</course><hAcc>0.879847</hAcc><vAcc>0.687493</vAcc></extensions></trkpt>
      <trkpt lon="-3.163913" lat="53.005329"><ele>283.833801</ele><time>2021-09-01T09:54:09Z</time><extensions><speed>1.173654</speed><course>311.227600</course><hAcc>0.879867</hAcc><vAcc>0.687581</vAcc></extensions></trkpt>
      <trkpt lon="-3.163905" lat="53.005339"><ele>283.677460</ele><time>2021-09-01T09:54:10Z</time><extensions><speed>1.166796</speed><course>310.576416</course><hAcc>0.879920</hAcc><vAcc>0.687797</vAcc></extensions></trkpt>
      <trkpt lon="-3.163898" lat="53.005348"><ele>283.524231</ele><time>2021-09-01T09:54:11Z</time><extensions><speed>1.160218</speed><course>313.656311</course><hAcc>0.880000</hAcc><vAcc>0.688117</vAcc></extensions></trkpt>
      <trkpt lon="-3.163890" lat="53.005357"><ele>283.374512</ele><time>2021-09-01T09:54:12Z</time><extensions><speed>1.154658</speed><course>319.881683</course><hAcc>0.880100</hAcc><vAcc>0.688513</vAcc></extensions></trkpt>
      <trkpt lon="-3.163882" lat="53.005366"><ele>283.228546</ele><time>2021-09-01T09:54:13Z</time><extensions><speed>1.151478</speed><course>322.545044</course><hAcc>0.880211</hAcc><vAcc>0.688948</vAcc></extensions></trkpt>
      <trkpt lon="-3.163873" lat="53.005376"><ele>283.086884</ele><time>2021-09-01T09:54:14Z</time><extensions><speed>1.151734</speed><course>315.377472</course><hAcc>0.880323</hAcc><vAcc>0.689383</vAcc></extensions></trkpt>
      <trkpt lon="-3.163865" lat="53.005385"><ele>282.950256</ele><time>2021-09-01T09:54:15Z</time><extensions><speed>1.155681</speed><course>321.220673</course><hAcc>0.880428</hAcc><vAcc>0.689777</vAcc></extensions></trkpt>
      <trkpt lon="-3.163856" lat="53.005393"><ele>282.819397</ele><time>2021-09-01T09:54:16Z</time><extensions><speed>1.163116</speed><course>319.716766</course><hAcc>0.880517</hAcc><vAcc>0.690100</vAcc></extensions></trkpt>
      <trkpt lon="-3.163847" lat="53.005402"><ele>282.695038</ele><time>2021-09-01T09:54:17Z</time><extensions><speed>1.173518</speed><course>323.703217</course><hAcc>0.880585</hAcc><vAcc>0.690330</vAcc></extensions></trkpt>
      <trkpt lon="-3.163838" lat="53.005411"><ele>282.577728</ele><time>2021-09-01T09:54:18Z</time><extensions><speed>1.186348</speed><course>322.763458</course><hAcc>0.880628</hAcc><vAcc>0.690459</vAcc></extensions></trkpt>
      <trkpt lon="-3.163828" lat="53.005420"><ele>282.467804</ele><time>2021-09-01T09:54:19Z</time><extensions><speed>1.201308</speed><course>321.396271</course><hAcc>0.880644</hAcc><vAcc>0.690487</vAcc></extensions></trkpt>
      <trkpt lon="-3.163818" lat="53.005430"><ele>282.365326</ele><time>2021-09-01T09:54:20Z</time><extensions><speed>1.218161</speed><course>324.253845</course><hAcc>0.880633</hAcc><vAcc>0.690425</vAcc></extensions></trkpt>
      <trkpt lon="-3.163808" lat="53.005439"><ele>282.270050</ele><time>2021-09-01T09:54:21Z</time><extensions><speed>1.235963</speed><course>322.941711</course><hAcc>0.880596</hAcc><vAcc>0.690284</vAcc></extensions></trkpt>
      <trkpt lon="-3.163798" lat="53.005448"><ele>282.181580</ele><time>2021-09-01T09:54:22Z</time><extensions><speed>1.253503</speed><course>324.827728</course><hAcc>0.880536</hAcc><vAcc>0.690076</vAcc></extensions></trkpt>
      <trkpt lon="-3.163787" lat="53.005457"><ele>282.099426</ele><time>2021-09-01T09:54:23Z</time><extensions><speed>1.269710</speed><course>323.315277</course><hAcc>0.880456</hAcc><vAcc>0.689815</vAcc></extensions></trkpt>
      <trkpt lon="-3.163777" lat="53.005467"><ele>282.023010</ele><time>2021-09-01T09:54:24Z</time><extensions><speed>1.283096</speed><course>316.049652</course><hAcc>0.880358</hAcc><vAcc>0.689505</vAcc></extensions></trkpt>
      <trkpt lon="-3.163766" lat="53.005476"><ele>281.951630</ele><time>2021-09-01T09:54:25Z</time><extensions><speed>1.293145</speed><course>321.640442</course><hAcc>0.880246</hAcc><vAcc>0.689147</vAcc></extensions></trkpt>
      <trkpt lon="-3.163755" lat="53.005486"><ele>281.884644</ele><time>2021-09-01T09:54:26Z</time><extensions><speed>1.300425</speed><course>318.527374</course><hAcc>0.880123</hAcc><vAcc>0.688739</vAcc></extensions></trkpt>
      <trkpt lon="-3.163744" lat="53.005496"><ele>281.821320</ele><time>2021-09-01T09:54:27Z</time><extensions><speed>1.305337</speed><course>327.209106</course><hAcc>0.879994</hAcc><vAcc>0.688291</vAcc></extensions></trkpt>
      <trkpt lon="-3.163732" lat="53.005505"><ele>281.761108</ele><time>2021-09-01T09:54:28Z</time><extensions><speed>1.307931</speed><course>321.431091</course><hAcc>0.879864</hAcc><vAcc>0.687821</vAcc></extensions></trkpt>
      <trkpt lon="-3.163721" lat="53.005515"><ele>281.703674</ele><time>2021-09-01T09:54:29Z</time><extensions><speed>1.308286</speed><course>309.255585</course><hAcc>0.879742</hAcc><vAcc>0.687367</vAcc></extensions></trkpt>
      <trkpt lon="-3.163710" lat="53.005525"><ele>281.648621</ele><time>2021-09-01T09:54:30Z</time><extensions><speed>1.306771</speed><course>316.262177</course><hAcc>0.879634</hAcc><vAcc>0.686967</vAcc></extensions></trkpt>
      <trkpt lon="-3.163699" lat="53.005534"><ele>281.595245</ele><time>2021-09-01T09:54:31Z</time><extensions><speed>1.303376</speed><course>318.486328</course><hAcc>0.879547</hAcc><vAcc>0.686657</vAcc></extensions></trkpt>
      <trkpt lon="-3.163688" lat="53.005544"><ele>281.542664</ele><time>2021-09-01T09:54:32Z</time><extensions><speed>1.298451</speed><course>323.918549</course><hAcc>0.879484</hAcc><vAcc>0.686455</vAcc></extensions></trkpt>
      <trkpt lon="-3.163677" lat="53.005554"><ele>281.490112</ele><time>2021-09-01T09:54:33Z</time><extensions><speed>1.293485</speed><course>326.771637</course><hAcc>0.879446</hAcc><vAcc>0.686365</vAcc></extensions></trkpt>
      <trkpt lon="-3.163667" lat="53.005563"><ele>281.437042</ele><time>2021-09-01T09:54:34Z</time><extensions><speed>1.290409</speed><course>322.066162</course><hAcc>0.879431</hAcc><vAcc>0.686372</vAcc></extensions></trkpt>
      <trkpt lon="-3.163657" lat="53.005573"><ele>281.382751</ele><time>2021-09-01T09:54:35Z</time><extensions><speed>1.290809</speed><course>315.897980</course><hAcc>0.879434</hAcc><vAcc>0.686443</vAcc></extensions></trkpt>
      <trkpt lon="-3.163646" lat="53.005583"><ele>281.326385</ele><time>2021-09-01T09:54:36Z</time><extensions><speed>1.294849</speed><course>320.677979</course><hAcc>0.879449</hAcc><vAcc>0.686541</vAcc></extensions></trkpt>
      <trkpt lon="-3.163636" lat="53.005593"><ele>281.266937</ele><time>2021-09-01T09:54:37Z</time><extensions><speed>1.300946</speed><course>328.194458</course><hAcc>0.879470</hAcc><vAcc>0.686637</vAcc></extensions></trkpt>
      <trkpt lon="-3.163626" lat="53.005603"><ele>281.203400</ele><time>2021-09-01T09:54:38Z</time><extensions><speed>1.306933</speed><course>342.191681</course><hAcc>0.879493</hAcc><vAcc>0.686713</vAcc></extensions></trkpt>
      <trkpt lon="-3.163616" lat="53.005613"><ele>281.134827</ele><time>2021-09-01T09:54:39Z</time><extensions><speed>1.311477</speed><course>338.973602</course><hAcc>0.879515</hAcc><vAcc>0.686768</vAcc></extensions></trkpt>
      <trkpt lon="-3.163606" lat="53.005623"><ele>281.060577</ele><time>2021-09-01T09:54:40Z</time><extensions><speed>1.314410</speed><course>338.845032</course><hAcc>0.879533</hAcc><vAcc>0.686809</vAcc></extensions></trkpt>
      <trkpt lon="-3.163595" lat="53.005633"><ele>280.980560</ele><time>2021-09-01T09:54:41Z</time><extensions><speed>1.315665</speed><course>343.294373</course><hAcc>0.879545</hAcc><vAcc>0.686847</vAcc></extensions></trkpt>
      <trkpt lon="-3.163585" lat="53.005643"><ele>280.894989</ele><time>2021-09-01T09:54:42Z</time><extensions><speed>1.315205</speed><course>345.380096</course><hAcc>0.879547</hAcc><vAcc>0.686884</vAcc></extensions></trkpt>
      <trkpt lon="-3.163575" lat="53.005653"><ele>280.804291</ele><time>2021-09-01T09:54:43Z</time><extensions><speed>1.313255</speed><course>336.417389</course><hAcc>0.879534</hAcc><vAcc>0.686906</vAcc></extensions></trkpt>
      <trkpt lon="-3.163564" lat="53.005663"><ele>280.709473</ele><time>2021-09-01T09:54:44Z</time><extensions><speed>1.309749</speed><course>349.627289</course><hAcc>0.879498</hAcc><vAcc>0.686879</vAcc></extensions></trkpt>
      <trkpt lon="-3.163554" lat="53.005673"><ele>280.611908</ele><time>2021-09-01T09:54:45Z</time><extensions><speed>1.304007</speed><course>333.102356</course><hAcc>0.879429</hAcc><vAcc>0.686760</vAcc></extensions></trkpt>
      <trkpt lon="-3.163543" lat="53.005683"><ele>280.513031</ele><time>2021-09-01T09:54:46Z</time><extensions><speed>1.295452</speed><course>345.486877</course><hAcc>0.879318</hAcc><vAcc>0.686505</vAcc></extensions></trkpt>
      <trkpt lon="-3.163533" lat="53.005692"><ele>280.414734</ele><time>2021-09-01T09:54:47Z</time><extensions><speed>1.284797</speed><course>343.184906</course><hAcc>0.879157</hAcc><vAcc>0.686075</vAcc></extensions></trkpt>
      <trkpt lon="-3.163522" lat="53.005702"><ele>280.318909</ele><time>2021-09-01T09:54:48Z</time><extensions><speed>1.272703</speed><course>342.239624</course><hAcc>0.878943</hAcc><vAcc>0.685443</vAcc></extensions></trkpt>
      <trkpt lon="-3.163512" lat="53.005711"><ele>280.227142</ele><time>2021-09-01T09:54:49Z</time><extensions><speed>1.259002</speed><course>352.331055</course><hAcc>0.878673</hAcc><vAcc>0.684599</vAcc></extensions></trkpt>
      <trkpt lon="-3.163501" lat="53.005721"><ele>280.140106</ele><time>2021-09-01T09:54:50Z</time><extensions><speed>1.243909</speed><course>352.560638</course><hAcc>0.878350</hAcc><vAcc>0.683549</vAcc></extensions></trkpt>
      <trkpt lon="-3.163490" lat="53.005730"><ele>280.057556</ele><time>2021-09-01T09:54:51Z</time><extensions><speed>1.228142</speed><course>349.901215</course><hAcc>0.877979</hAcc><vAcc>0.682317</vAcc></extensions></trkpt>
      <trkpt lon="-3.163480" lat="53.005739"><ele>279.978760</ele><time>2021-09-01T09:54:52Z</time><extensions><speed>1.212309</speed><course>347.225525</course><hAcc>0.877572</hAcc><vAcc>0.680942</vAcc></extensions></trkpt>
      <trkpt lon="-3.163469" lat="53.005747"><ele>279.903046</ele><time>2021-09-01T09:54:53Z</time><extensions><speed>1.196446</speed><course>342.525452</course><hAcc>0.877140</hAcc><vAcc>0.679476</vAcc></extensions></trkpt>
      <trkpt lon="-3.163459" lat="53.005756"><ele>279.829712</ele><time>2021-09-01T09:54:54Z</time><extensions><speed>1.181075</speed><course>344.186432</course><hAcc>0.876697</hAcc><vAcc>0.677974</vAcc></extensions></trkpt>
      <trkpt lon="-3.163448" lat="53.005764"><ele>279.757996</ele><time>2021-09-01T09:54:55Z</time><extensions><speed>1.167557</speed><course>344.723938</course><hAcc>0.876257</hAcc><vAcc>0.676491</vAcc></extensions></trkpt>
      <trkpt lon="-3.163438" lat="53.005773"><ele>279.687286</ele><time>2021-09-01T09:54:56Z</time><extensions><speed>1.157062</speed><course>335.783966</course><hAcc>0.875831</hAcc><vAcc>0.675078</vAcc></extensions></trkpt>
      <trkpt lon="-3.163427" lat="53.005781"><ele>279.617462</ele><time>2021-09-01T09:54:57Z</time><extensions><speed>1.150017</speed><course>346.047455</course><hAcc>0.875427</hAcc><vAcc>0.673766</vAcc></extensions></trkpt>
      <trkpt lon="-3.163417" lat="53.005789"><ele>279.548584</ele><time>2021-09-01T09:54:58Z</time><extensions><speed>1.145732</speed><course>348.227631</course><hAcc>0.875047</hAcc><vAcc>0.672572</vAcc></extensions></trkpt>
      <trkpt lon="-3.163407" lat="53.005797"><ele>279.480713</ele><time>2021-09-01T09:54:59Z</time><extensions><speed>1.142870</speed><course>346.562134</course><hAcc>0.874689</hAcc><vAcc>0.671486</vAcc></extensions></trkpt>
      <trkpt lon="-3.163396" lat="53.005806"><ele>279.413605</ele><time>2021-09-01T09:55:00Z</time><extensions><speed>1.140486</speed><course>340.164734</course><hAcc>0.874344</hAcc><vAcc>0.670474</vAcc></extensions></trkpt>
      <trkpt lon="-3.163386" lat="53.005814"><ele>279.346710</ele><time>2021-09-01T09:55:01Z</time><extensions><speed>1.138356</speed><course>340.903290</course><hAcc>0.873995</hAcc><vAcc>0.669477</vAcc></extensions></trkpt>
      <trkpt lon="-3.163376" lat="53.005822"><ele>279.279510</ele><time>2021-09-01T09:55:02Z</time><extensions><speed>1.136874</speed><course>337.951172</course><hAcc>0.873624</hAcc><vAcc>0.668424</vAcc></extensions></trkpt>
      <trkpt lon="-3.163366" lat="53.005830"><ele>279.212402</ele><time>2021-09-01T09:55:03Z</time><extensions><speed>1.136537</speed><course>343.976532</course><hAcc>0.873212</hAcc><vAcc>0.667242</vAcc></extensions></trkpt>
      <trkpt lon="-3.163356" lat="53.005838"><ele>279.146210</ele><time>2021-09-01T09:55:04Z</time><extensions><speed>1.137072</speed><course>344.587616</course><hAcc>0.872739</hAcc><vAcc>0.665861</vAcc></extensions></trkpt>
      <trkpt lon="-3.163346" lat="53.005846"><ele>279.082092</ele><time>2021-09-01T09:55:05Z</time><extensions><speed>1.138020</speed><course>341.405151</course><hAcc>0.872189</hAcc><vAcc>0.664220</vAcc></extensions></trkpt>
      <trkpt lon="-3.163336" lat="53.005855"><ele>279.021515</ele><time>2021-09-01T09:55:06Z</time><extensions><speed>1.138987</speed><course>339.649231</course><hAcc>0.871548</hAcc><vAcc>0.662272</vAcc></extensions></trkpt>
      <trkpt lon="-3.163326" lat="53.005863"><ele>278.965637</ele><time>2021-09-01T09:55:07Z</time><extensions><speed>1.139425</speed><course>334.810822</course><hAcc>0.870809</hAcc><vAcc>0.659989</vAcc></extensions></trkpt>
      <trkpt lon="-3.163316" lat="53.005871"><ele>278.915192</ele><time>2021-09-01T09:55:08Z</time><extensions><speed>1.138829</speed><course>330.628723</course><hAcc>0.869969</hAcc><vAcc>0.657363</vAcc></extensions></trkpt>
      <trkpt lon="-3.163306" lat="53.005880"><ele>278.870667</ele><time>2021-09-01T09:55:09Z</time><extensions><speed>1.137020</speed><course>326.820862</course><hAcc>0.869033</hAcc><vAcc>0.654407</vAcc></extensions></trkpt>
      <trkpt lon="-3.163296" lat="53.005888"><ele>278.831848</ele><time>2021-09-01T09:55:10Z</time><extensions><speed>1.134765</speed><course>329.993256</course><hAcc>0.868013</hAcc><vAcc>0.651162</vAcc></extensions></trkpt>
      <trkpt lon="-3.163286" lat="53.005896"><ele>278.797607</ele><time>2021-09-01T09:55:11Z</time><extensions><speed>1.133161</speed><course>333.108307</course><hAcc>0.866931</hAcc><vAcc>0.647691</vAcc></extensions></trkpt>
      <trkpt lon="-3.163276" lat="53.005904"><ele>278.766052</ele><time>2021-09-01T09:55:12Z</time><extensions><speed>1.132978</speed><course>328.264221</course><hAcc>0.865816</hAcc><vAcc>0.644076</vAcc></extensions></trkpt>
      <trkpt lon="-3.163265" lat="53.005912"><ele>278.735199</ele><time>2021-09-01T09:55:13Z</time><extensions><speed>1.134529</speed><course>336.747131</course><hAcc>0.864705</hAcc><vAcc>0.640411</vAcc></extensions></trkpt>
      <trkpt lon="-3.163255" lat="53.005920"><ele>278.703186</ele><time>2021-09-01T09:55:14Z</time><extensions><speed>1.137482</speed><course>330.065033</course><hAcc>0.863639</hAcc><vAcc>0.636782</vAcc></extensions></trkpt>
      <trkpt lon="-3.163244" lat="53.005928"><ele>278.668335</ele><time>2021-09-01T09:55:15Z</time><extensions><speed>1.141515</speed><course>317.215851</course><hAcc>0.862664</hAcc><vAcc>0.633251</vAcc></extensions></trkpt>
      <trkpt lon="-3.163233" lat="53.005936"><ele>278.629456</ele><time>2021-09-01T09:55:16Z</time><extensions><speed>1.146926</speed><course>321.035828</course><hAcc>0.861826</hAcc><vAcc>0.629843</vAcc></extensions></trkpt>
      <trkpt lon="-3.163222" lat="53.005944"><ele>278.585907</ele><time>2021-09-01T09:55:17Z</time><extensions><speed>1.154205</speed><course>319.935577</course><hAcc>0.861181</hAcc><vAcc>0.626553</vAcc></extensions></trkpt>
      <trkpt lon="-3.163211" lat="53.005952"><ele>278.537537</ele><time>2021-09-01T09:55:18Z</time><extensions><speed>1.163048</speed><course>325.102844</course><hAcc>0.860795</hAcc><vAcc>0.623355</vAcc></extensions></trkpt>
      <trkpt lon="-3.163199" lat="53.005960"><ele>278.484650</ele><time>2021-09-01T09:55:19Z</time><extensions><speed>1.172845</speed><course>327.812073</course><hAcc>0.860748</hAcc><vAcc>0.620225</vAcc></extensions></trkpt>
      <trkpt lon="-3.163188" lat="53.005968"><ele>278.427399</ele><time>2021-09-01T09:55:20Z</time><extensions><speed>1.183270</speed><course>320.427582</course><hAcc>0.861141</hAcc><vAcc>0.617155</vAcc></extensions></trkpt>
      <trkpt lon="-3.163176" lat="53.005975"><ele>278.366272</ele><time>2021-09-01T09:55:21Z</time><extensions><speed>1.193769</speed><course>321.194977</course><hAcc>0.862080</hAcc><vAcc>0.614169</vAcc></extensions></trkpt>
      <trkpt lon="-3.163164" lat="53.005983"><ele>278.301880</ele><time>2021-09-01T09:55:22Z</time><extensions><speed>1.204157</speed><course>318.963165</course><hAcc>0.863669</hAcc><vAcc>0.611320</vAcc></extensions></trkpt>
      <trkpt lon="-3.163151" lat="53.005991"><ele>278.234680</ele><time>2021-09-01T09:55:23Z</time><extensions><speed>1.214829</speed><course>318.221771</course><hAcc>0.865980</hAcc><vAcc>0.608675</vAcc></extensions></trkpt>
      <trkpt lon="-3.163139" lat="53.005999"><ele>278.164764</ele><time>2021-09-01T09:55:24Z</time><extensions><speed>1.226013</speed><course>325.110291</course><hAcc>0.869019</hAcc><vAcc>0.606282</vAcc></extensions></trkpt>
      <trkpt lon="-3.163126" lat="53.006007"><ele>278.092682</ele><time>2021-09-01T09:55:25Z</time><extensions><speed>1.237959</speed><course>325.968475</course><hAcc>0.872703</hAcc><vAcc>0.604155</vAcc></extensions></trkpt>
      <trkpt lon="-3.163114" lat="53.006016"><ele>278.019653</ele><time>2021-09-01T09:55:26Z</time><extensions><speed>1.250718</speed><course>319.629425</course><hAcc>0.876870</hAcc><vAcc>0.602267</vAcc></extensions></trkpt>
      <trkpt lon="-3.163101" lat="53.006024"><ele>277.947601</ele><time>2021-09-01T09:55:27Z</time><extensions><speed>1.263928</speed><course>319.103638</course><hAcc>0.881312</hAcc><vAcc>0.600566</vAcc></extensions></trkpt>
      <trkpt lon="-3.163088" lat="53.006032"><ele>277.878296</ele><time>2021-09-01T09:55:28Z</time><extensions><speed>1.277353</speed><course>314.591980</course><hAcc>0.885803</hAcc><vAcc>0.598997</vAcc></extensions></trkpt>
      <trkpt lon="-3.163074" lat="53.006040"><ele>277.812714</ele><time>2021-09-01T09:55:29Z</time><extensions><speed>1.291187</speed><course>315.007294</course><hAcc>0.890131</hAcc><vAcc>0.597520</vAcc></extensions></trkpt>
      <trkpt lon="-3.163060" lat="53.006048"><ele>277.751404</ele><time>2021-09-01T09:55:30Z</time><extensions><speed>1.306246</speed><course>322.287598</course><hAcc>0.894116</hAcc><vAcc>0.596115</vAcc></extensions></trkpt>
      <trkpt lon="-3.163047" lat="53.006057"><ele>277.694611</ele><time>2021-09-01T09:55:31Z</time><extensions><speed>1.323465</speed><course>320.536743</course><hAcc>0.897640</hAcc><vAcc>0.594784</vAcc></extensions></trkpt>
      <trkpt lon="-3.163032" lat="53.006065"><ele>277.642670</ele><time>2021-09-01T09:55:32Z</time><extensions><speed>1.343187</speed><course>317.691437</course><hAcc>0.900664</hAcc><vAcc>0.593548</vAcc></extensions></trkpt>
      <trkpt lon="-3.163018" lat="53.006074"><ele>277.596649</ele><time>2021-09-01T09:55:33Z</time><extensions><speed>1.364377</speed><course>319.879181</course><hAcc>0.903231</hAcc><vAcc>0.592445</vAcc></extensions></trkpt>
      <trkpt lon="-3.163004" lat="53.006082"><ele>277.557587</ele><time>2021-09-01T09:55:34Z</time><extensions><speed>1.385269</speed><course>320.065887</course><hAcc>0.905437</hAcc><vAcc>0.591516</vAcc></extensions></trkpt>
      <trkpt lon="-3.162989" lat="53.006091"><ele>277.526215</ele><time>2021-09-01T09:55:35Z</time><extensions><speed>1.404643</speed><course>321.533569</course><hAcc>0.907383</hAcc><vAcc>0.590788</vAcc></extensions></trkpt>
      <trkpt lon="-3.162974" lat="53.006100"><ele>277.502869</ele><time>2021-09-01T09:55:36Z</time><extensions><speed>1.421458</speed><course>324.813110</course><hAcc>0.909150</hAcc><vAcc>0.590267</vAcc></extensions></trkpt>
      <trkpt lon="-3.162959" lat="53.006109"><ele>277.487701</ele><time>2021-09-01T09:55:37Z</time><extensions><speed>1.434142</speed><course>329.013580</course><hAcc>0.910801</hAcc><vAcc>0.589939</vAcc></extensions></trkpt>
      <trkpt lon="-3.162944" lat="53.006119"><ele>277.480988</ele><time>2021-09-01T09:55:38Z</time><extensions><speed>1.441705</speed><course>324.901581</course><hAcc>0.912408</hAcc><vAcc>0.589773</vAcc></extensions></trkpt>
      <trkpt lon="-3.162930" lat="53.006128"><ele>277.483337</ele><time>2021-09-01T09:55:39Z</time><extensions><speed>1.444055</speed><course>318.603180</course><hAcc>0.914052</hAcc><vAcc>0.589719</vAcc></extensions></trkpt>
      <trkpt lon="-3.162915" lat="53.006138"><ele>277.494873</ele><time>2021-09-01T09:55:40Z</time><extensions><speed>1.441509</speed><course>314.278656</course><hAcc>0.915817</hAcc><vAcc>0.589723</vAcc></extensions></trkpt>
      <trkpt lon="-3.162901" lat="53.006147"><ele>277.515076</ele><time>2021-09-01T09:55:42Z</time><extensions><speed>1.434867</speed><course>319.463074</course><hAcc>0.917791</hAcc><vAcc>0.589722</vAcc></extensions></trkpt>
      <trkpt lon="-3.162887" lat="53.006157"><ele>277.542938</ele><time>2021-09-01T09:55:43Z</time><extensions><speed>1.425343</speed><course>323.368469</course><hAcc>0.920093</hAcc><vAcc>0.589698</vAcc></extensions></trkpt>
      <trkpt lon="-3.162873" lat="53.006167"><ele>277.577271</ele><time>2021-09-01T09:55:44Z</time><extensions><speed>1.413974</speed><course>324.877350</course><hAcc>0.922875</hAcc><vAcc>0.589682</vAcc></extensions></trkpt>
      <trkpt lon="-3.162860" lat="53.006177"><ele>277.617096</ele><time>2021-09-01T09:55:45Z</time><extensions><speed>1.400928</speed><course>328.239716</course><hAcc>0.926264</hAcc><vAcc>0.589733</vAcc></extensions></trkpt>
      <trkpt lon="-3.162848" lat="53.006187"><ele>277.661255</ele><time>2021-09-01T09:55:46Z</time><extensions><speed>1.386025</speed><course>325.680328</course><hAcc>0.930369</hAcc><vAcc>0.589954</vAcc></extensions></trkpt>
      <trkpt lon="-3.162836" lat="53.006197"><ele>277.708618</ele><time>2021-09-01T09:55:47Z</time><extensions><speed>1.369689</speed><course>329.865967</course><hAcc>0.935285</hAcc><vAcc>0.590489</vAcc></extensions></trkpt>
      <trkpt lon="-3.162824" lat="53.006207"><ele>277.758057</ele><time>2021-09-01T09:55:47Z</time><extensions><speed>1.352145</speed><course>328.590454</course><hAcc>0.941107</hAcc><vAcc>0.591529</vAcc></extensions></trkpt>
      <trkpt lon="-3.162812" lat="53.006217"><ele>277.808289</ele><time>2021-09-01T09:55:48Z</time><extensions><speed>1.332895</speed><course>328.102966</course><hAcc>0.947906</hAcc><vAcc>0.593257</vAcc></extensions></trkpt>
      <trkpt lon="-3.162801" lat="53.006226"><ele>277.857544</ele><time>2021-09-01T09:55:49Z</time><extensions><speed>1.311369</speed><course>314.592194</course><hAcc>0.955680</hAcc><vAcc>0.595801</vAcc></extensions></trkpt>
      <trkpt lon="-3.162790" lat="53.006236"><ele>277.904083</ele><time>2021-09-01T09:55:50Z</time><extensions><speed>1.286942</speed><course>318.557648</course><hAcc>0.964423</hAcc><vAcc>0.599232</vAcc></extensions></trkpt>
      <trkpt lon="-3.162779" lat="53.006245"><ele>277.946106</ele><time>2021-09-01T09:55:51Z</time><extensions><speed>1.260543</speed><course>323.922150</course><hAcc>0.974100</hAcc><vAcc>0.603550</vAcc></extensions></trkpt>
      <trkpt lon="-3.162769" lat="53.006255"><ele>277.981812</ele><time>2021-09-01T09:55:52Z</time><extensions><speed>1.233606</speed><course>321.145691</course><hAcc>0.984636</hAcc><vAcc>0.608700</vAcc></extensions></trkpt>
      <trkpt lon="-3.162757" lat="53.006263"><ele>278.009552</ele><time>2021-09-01T09:55:53Z</time><extensions><speed>1.206998</speed><course>322.786774</course><hAcc>0.995900</hAcc><vAcc>0.614572</vAcc></extensions></trkpt>
      <trkpt lon="-3.162746" lat="53.006272"><ele>278.027985</ele><time>2021-09-01T09:55:54Z</time><extensions><speed>1.181493</speed><course>326.716736</course><hAcc>1.007680</hAcc><vAcc>0.621001</vAcc></extensions></trkpt>
      <trkpt lon="-3.162735" lat="53.006279"><ele>278.036438</ele><time>2021-09-01T09:55:55Z</time><extensions><speed>1.157766</speed><course>329.036499</course><hAcc>1.019675</hAcc><vAcc>0.627760</vAcc></extensions></trkpt>
      <trkpt lon="-3.162723" lat="53.006287"><ele>278.034485</ele><time>2021-09-01T09:55:56Z</time><extensions><speed>1.136702</speed><course>334.350830</course><hAcc>1.031486</hAcc><vAcc>0.634565</vAcc></extensions></trkpt>
      <trkpt lon="-3.162710" lat="53.006294"><ele>278.021606</ele><time>2021-09-01T09:55:58Z</time><extensions><speed>1.119450</speed><course>328.154053</course><hAcc>1.042640</hAcc><vAcc>0.641087</vAcc></extensions></trkpt>
      <trkpt lon="-3.162698" lat="53.006300"><ele>277.997467</ele><time>2021-09-01T09:55:59Z</time><extensions><speed>1.106995</speed><course>334.753510</course><hAcc>1.052620</hAcc><vAcc>0.646979</vAcc></extensions></trkpt>
      <trkpt lon="-3.162685" lat="53.006306"><ele>277.961823</ele><time>2021-09-01T09:56:00Z</time><extensions><speed>1.099253</speed><course>331.588837</course><hAcc>1.060980</hAcc><vAcc>0.651941</vAcc></extensions></trkpt>
      <trkpt lon="-3.162671" lat="53.006312"><ele>277.914581</ele><time>2021-09-01T09:56:01Z</time><extensions><speed>1.095645</speed><course>334.240753</course><hAcc>1.067308</hAcc><vAcc>0.655697</vAcc></extensions></trkpt>
      <trkpt lon="-3.162657" lat="53.006317"><ele>277.855927</ele><time>2021-09-01T09:56:02Z</time><extensions><speed>1.095458</speed><course>338.277435</course><hAcc>1.071299</hAcc><vAcc>0.658039</vAcc></extensions></trkpt>
      <trkpt lon="-3.162643" lat="53.006322"><ele>277.786743</ele><time>2021-09-01T09:56:03Z</time><extensions><speed>1.097778</speed><course>328.841278</course><hAcc>1.072776</hAcc><vAcc>0.658838</vAcc></extensions></trkpt>
      <trkpt lon="-3.162629" lat="53.006327"><ele>277.708527</ele><time>2021-09-01T09:56:04Z</time><extensions><speed>1.101675</speed><course>323.726990</course><hAcc>1.071684</hAcc><vAcc>0.658039</vAcc></extensions></trkpt>
      <trkpt lon="-3.162615" lat="53.006332"><ele>277.623138</ele><time>2021-09-01T09:56:05Z</time><extensions><speed>1.106283</speed><course>317.846680</course><hAcc>1.068085</hAcc><vAcc>0.655656</vAcc></extensions></trkpt>
      <trkpt lon="-3.162600" lat="53.006337"><ele>277.532104</ele><time>2021-09-01T09:56:06Z</time><extensions><speed>1.111077</speed><course>319.877411</course><hAcc>1.062166</hAcc><vAcc>0.651789</vAcc></extensions></trkpt>
      <trkpt lon="-3.162586" lat="53.006342"><ele>277.436676</ele><time>2021-09-01T09:56:07Z</time><extensions><speed>1.116167</speed><course>318.901947</course><hAcc>1.054257</hAcc><vAcc>0.646653</vAcc></extensions></trkpt>
      <trkpt lon="-3.162572" lat="53.006347"><ele>277.338379</ele><time>2021-09-01T09:56:08Z</time><extensions><speed>1.122002</speed><course>320.825470</course><hAcc>1.044818</hAcc><vAcc>0.640568</vAcc></extensions></trkpt>
      <trkpt lon="-3.162558" lat="53.006352"><ele>277.238861</ele><time>2021-09-01T09:56:09Z</time><extensions><speed>1.128851</speed><course>331.940704</course><hAcc>1.034400</hAcc><vAcc>0.633915</vAcc></extensions></trkpt>
      <trkpt lon="-3.162544" lat="53.006358"><ele>277.139679</ele><time>2021-09-01T09:56:10Z</time><extensions><speed>1.136305</speed><course>329.732300</course><hAcc>1.023586</hAcc><vAcc>0.627093</vAcc></extensions></trkpt>
      <trkpt lon="-3.162530" lat="53.006364"><ele>277.041962</ele><time>2021-09-01T09:56:11Z</time><extensions><speed>1.143247</speed><course>330.480469</course><hAcc>1.012960</hAcc><vAcc>0.620492</vAcc></extensions></trkpt>
      <trkpt lon="-3.162517" lat="53.006371"><ele>276.946198</ele><time>2021-09-01T09:56:12Z</time><extensions><speed>1.148190</speed><course>327.453430</course><hAcc>1.003083</hAcc><vAcc>0.614482</vAcc></extensions></trkpt>
      <trkpt lon="-3.162504" lat="53.006378"><ele>276.852386</ele><time>2021-09-01T09:56:13Z</time><extensions><speed>1.149882</speed><course>332.608093</course><hAcc>0.994456</hAcc><vAcc>0.609388</vAcc></extensions></trkpt>
      <trkpt lon="-3.162492" lat="53.006385"><ele>276.760284</ele><time>2021-09-01T09:56:14Z</time><extensions><speed>1.148167</speed><course>330.647522</course><hAcc>0.987476</hAcc><vAcc>0.605460</vAcc></extensions></trkpt>
      <trkpt lon="-3.162480" lat="53.006392"><ele>276.670044</ele><time>2021-09-01T09:56:15Z</time><extensions><speed>1.143968</speed><course>325.179230</course><hAcc>0.982392</hAcc><vAcc>0.602846</vAcc></extensions></trkpt>
      <trkpt lon="-3.162469" lat="53.006400"><ele>276.581848</ele><time>2021-09-01T09:56:16Z</time><extensions><speed>1.138468</speed><course>323.492767</course><hAcc>0.979293</hAcc><vAcc>0.601573</vAcc></extensions></trkpt>
      <trkpt lon="-3.162458" lat="53.006408"><ele>276.495392</ele><time>2021-09-01T09:56:17Z</time><extensions><speed>1.132558</speed><course>319.068512</course><hAcc>0.978089</hAcc><vAcc>0.601539</vAcc></extensions></trkpt>
      <trkpt lon="-3.162448" lat="53.006416"><ele>276.410065</ele><time>2021-09-01T09:56:18Z</time><extensions><speed>1.127233</speed><course>318.607483</course><hAcc>0.978511</hAcc><vAcc>0.602514</vAcc></extensions></trkpt>
      <trkpt lon="-3.162439" lat="53.006424"><ele>276.325317</ele><time>2021-09-01T09:56:19Z</time><extensions><speed>1.124017</speed><course>331.980591</course><hAcc>0.980131</hAcc><vAcc>0.604173</vAcc></extensions></trkpt>
      <trkpt lon="-3.162430" lat="53.006433"><ele>276.241089</ele><time>2021-09-01T09:56:20Z</time><extensions><speed>1.123908</speed><course>339.684753</course><hAcc>0.982426</hAcc><vAcc>0.606142</vAcc></extensions></trkpt>
      <trkpt lon="-3.162422" lat="53.006442"><ele>276.157745</ele><time>2021-09-01T09:56:21Z</time><extensions><speed>1.127037</speed><course>332.990814</course><hAcc>0.984851</hAcc><vAcc>0.608049</vAcc></extensions></trkpt>
      <trkpt lon="-3.162414" lat="53.006451"><ele>276.075348</ele><time>2021-09-01T09:56:22Z</time><extensions><speed>1.132997</speed><course>322.191711</course><hAcc>0.986919</hAcc><vAcc>0.609575</vAcc></extensions></trkpt>
      <trkpt lon="-3.162408" lat="53.006460"><ele>275.993561</ele><time>2021-09-01T09:56:23Z</time><extensions><speed>1.140964</speed><course>322.481537</course><hAcc>0.988274</hAcc><vAcc>0.610503</vAcc></extensions></trkpt>
      <trkpt lon="-3.162402" lat="53.006470"><ele>275.911743</ele><time>2021-09-01T09:56:24Z</time><extensions><speed>1.149507</speed><course>324.494202</course><hAcc>0.988725</hAcc><vAcc>0.610739</vAcc></extensions></trkpt>
      <trkpt lon="-3.162396" lat="53.006480"><ele>275.829010</ele><time>2021-09-01T09:56:25Z</time><extensions><speed>1.157111</speed><course>326.900543</course><hAcc>0.988227</hAcc><vAcc>0.610291</vAcc></extensions></trkpt>
      <trkpt lon="-3.162392" lat="53.006490"><ele>275.744659</ele><time>2021-09-01T09:56:26Z</time><extensions><speed>1.163410</speed><course>327.108612</course><hAcc>0.986854</hAcc><vAcc>0.609239</vAcc></extensions></trkpt>
      <trkpt lon="-3.162388" lat="53.006500"><ele>275.658630</ele><time>2021-09-01T09:56:27Z</time><extensions><speed>1.168565</speed><course>326.961395</course><hAcc>0.984790</hAcc><vAcc>0.607726</vAcc></extensions></trkpt>
      <trkpt lon="-3.162384" lat="53.006510"><ele>275.571716</ele><time>2021-09-01T09:56:28Z</time><extensions><speed>1.173297</speed><course>328.725586</course><hAcc>0.982317</hAcc><vAcc>0.605954</vAcc></extensions></trkpt>
      <trkpt lon="-3.162382" lat="53.006521"><ele>275.485046</ele><time>2021-09-01T09:56:29Z</time><extensions><speed>1.178156</speed><course>324.538879</course><hAcc>0.979780</hAcc><vAcc>0.604161</vAcc></extensions></trkpt>
      <trkpt lon="-3.162379" lat="53.006531"><ele>275.398987</ele><time>2021-09-01T09:56:30Z</time><extensions><speed>1.183337</speed><course>322.792755</course><hAcc>0.977529</hAcc><vAcc>0.602573</vAcc></extensions></trkpt>
      <trkpt lon="-3.162378" lat="53.006542"><ele>275.313354</ele><time>2021-09-01T09:56:31Z</time><extensions><speed>1.189429</speed><course>321.878906</course><hAcc>0.975857</hAcc><vAcc>0.601371</vAcc></extensions></trkpt>
      <trkpt lon="-3.162377" lat="53.006553"><ele>275.227661</ele><time>2021-09-01T09:56:32Z</time><extensions><speed>1.196267</speed><course>332.119232</course><hAcc>0.974967</hAcc><vAcc>0.600678</vAcc></extensions></trkpt>
      <trkpt lon="-3.162376" lat="53.006563"><ele>275.140869</ele><time>2021-09-01T09:56:33Z</time><extensions><speed>1.202892</speed><course>333.921204</course><hAcc>0.974971</hAcc><vAcc>0.600568</vAcc></extensions></trkpt>
      <trkpt lon="-3.162376" lat="53.006574"><ele>275.051483</ele><time>2021-09-01T09:56:34Z</time><extensions><speed>1.209121</speed><course>333.199188</course><hAcc>0.975867</hAcc><vAcc>0.601057</vAcc></extensions></trkpt>
      <trkpt lon="-3.162376" lat="53.006585"><ele>274.958344</ele><time>2021-09-01T09:56:35Z</time><extensions><speed>1.215887</speed><course>332.370575</course><hAcc>0.977518</hAcc><vAcc>0.602077</vAcc></extensions></trkpt>
      <trkpt lon="-3.162377" lat="53.006596"><ele>274.860168</ele><time>2021-09-01T09:56:36Z</time><extensions><speed>1.223076</speed><course>324.975555</course><hAcc>0.979660</hAcc><vAcc>0.603470</vAcc></extensions></trkpt>
      <trkpt lon="-3.162378" lat="53.006607"><ele>274.755493</ele><time>2021-09-01T09:56:37Z</time><extensions><speed>1.229561</speed><course>335.518433</course><hAcc>0.981939</hAcc><vAcc>0.605014</vAcc></extensions></trkpt>
      <trkpt lon="-3.162380" lat="53.006618"><ele>274.643616</ele><time>2021-09-01T09:56:38Z</time><extensions><speed>1.235188</speed><course>325.564209</course><hAcc>0.983973</hAcc><vAcc>0.606464</vAcc></extensions></trkpt>
      <trkpt lon="-3.162382" lat="53.006629"><ele>274.525360</ele><time>2021-09-01T09:56:39Z</time><extensions><speed>1.240298</speed><course>328.563263</course><hAcc>0.985403</hAcc><vAcc>0.607590</vAcc></extensions></trkpt>
      <trkpt lon="-3.162384" lat="53.006640"><ele>274.402405</ele><time>2021-09-01T09:56:40Z</time><extensions><speed>1.244985</speed><course>326.994080</course><hAcc>0.985927</hAcc><vAcc>0.608194</vAcc></extensions></trkpt>
      <trkpt lon="-3.162387" lat="53.006651"><ele>274.275879</ele><time>2021-09-01T09:56:41Z</time><extensions><speed>1.249128</speed><course>318.473267</course><hAcc>0.985355</hAcc><vAcc>0.608147</vAcc></extensions></trkpt>
      <trkpt lon="-3.162389" lat="53.006662"><ele>274.146240</ele><time>2021-09-01T09:56:42Z</time><extensions><speed>1.253084</speed><course>311.042542</course><hAcc>0.983648</hAcc><vAcc>0.607422</vAcc></extensions></trkpt>
      <trkpt lon="-3.162392" lat="53.006674"><ele>274.013550</ele><time>2021-09-01T09:56:43Z</time><extensions><speed>1.257491</speed><course>305.538330</course><hAcc>0.980932</hAcc><vAcc>0.606104</vAcc></extensions></trkpt>
      <trkpt lon="-3.162396" lat="53.006685"><ele>273.878021</ele><time>2021-09-01T09:56:44Z</time><extensions><speed>1.262800</speed><course>315.153778</course><hAcc>0.977454</hAcc><vAcc>0.604343</vAcc></extensions></trkpt>
      <trkpt lon="-3.162399" lat="53.006696"><ele>273.740204</ele><time>2021-09-01T09:56:45Z</time><extensions><speed>1.269857</speed><course>316.503418</course><hAcc>0.973521</hAcc><vAcc>0.602308</vAcc></extensions></trkpt>
      <trkpt lon="-3.162403" lat="53.006707"><ele>273.600677</ele><time>2021-09-01T09:56:46Z</time><extensions><speed>1.279522</speed><course>335.833191</course><hAcc>0.969461</hAcc><vAcc>0.600167</vAcc></extensions></trkpt>
      <trkpt lon="-3.162408" lat="53.006718"><ele>273.460541</ele><time>2021-09-01T09:56:47Z</time><extensions><speed>1.292606</speed><course>327.010254</course><hAcc>0.965602</hAcc><vAcc>0.598078</vAcc></extensions></trkpt>
      <trkpt lon="-3.162412" lat="53.006730"><ele>273.321625</ele><time>2021-09-01T09:56:48Z</time><extensions><speed>1.309246</speed><course>325.252136</course><hAcc>0.962266</hAcc><vAcc>0.596192</vAcc></extensions></trkpt>
      <trkpt lon="-3.162417" lat="53.006741"><ele>273.185150</ele><time>2021-09-01T09:56:49Z</time><extensions><speed>1.328124</speed><course>322.968475</course><hAcc>0.959754</hAcc><vAcc>0.594651</vAcc></extensions></trkpt>
      <trkpt lon="-3.162423" lat="53.006753"><ele>273.050903</ele><time>2021-09-01T09:56:50Z</time><extensions><speed>1.346921</speed><course>323.501465</course><hAcc>0.958319</hAcc><vAcc>0.593587</vAcc></extensions></trkpt>
      <trkpt lon="-3.162429" lat="53.006764"><ele>272.917664</ele><time>2021-09-01T09:56:51Z</time><extensions><speed>1.363433</speed><course>321.425781</course><hAcc>0.958156</hAcc><vAcc>0.593126</vAcc></extensions></trkpt>
      <trkpt lon="-3.162435" lat="53.006776"><ele>272.784576</ele><time>2021-09-01T09:56:52Z</time><extensions><speed>1.376566</speed><course>320.251373</course><hAcc>0.959432</hAcc><vAcc>0.593400</vAcc></extensions></trkpt>
      <trkpt lon="-3.162441" lat="53.006788"><ele>272.651794</ele><time>2021-09-01T09:56:53Z</time><extensions><speed>1.385631</speed><course>324.252075</course><hAcc>0.962295</hAcc><vAcc>0.594549</vAcc></extensions></trkpt>
      <trkpt lon="-3.162448" lat="53.006800"><ele>272.519592</ele><time>2021-09-01T09:56:54Z</time><extensions><speed>1.390532</speed><course>324.152374</course><hAcc>0.966837</hAcc><vAcc>0.596683</vAcc></extensions></trkpt>
      <trkpt lon="-3.162456" lat="53.006811"><ele>272.387665</ele><time>2021-09-01T09:56:55Z</time><extensions><speed>1.392032</speed><course>325.481750</course><hAcc>0.973040</hAcc><vAcc>0.599843</vAcc></extensions></trkpt>
      <trkpt lon="-3.162463" lat="53.006823"><ele>272.255554</ele><time>2021-09-01T09:56:56Z</time><extensions><speed>1.390902</speed><course>319.205566</course><hAcc>0.980753</hAcc><vAcc>0.603976</vAcc></extensions></trkpt>
      <trkpt lon="-3.162470" lat="53.006835"><ele>272.123047</ele><time>2021-09-01T09:56:57Z</time><extensions><speed>1.388071</speed><course>318.376190</course><hAcc>0.989693</hAcc><vAcc>0.608932</vAcc></extensions></trkpt>
      <trkpt lon="-3.162478" lat="53.006846"><ele>271.990173</ele><time>2021-09-01T09:56:58Z</time><extensions><speed>1.384668</speed><course>314.977020</course><hAcc>0.999441</hAcc><vAcc>0.614462</vAcc></extensions></trkpt>
      <trkpt lon="-3.162485" lat="53.006858"><ele>271.857178</ele><time>2021-09-01T09:56:59Z</time><extensions><speed>1.382082</speed><course>311.302399</course><hAcc>1.009488</hAcc><vAcc>0.620242</vAcc></extensions></trkpt>
      <trkpt lon="-3.162493" lat="53.006869"><ele>271.724884</ele><time>2021-09-01T09:57:00Z</time><extensions><speed>1.381769</speed><course>310.834198</course><hAcc>1.019279</hAcc><vAcc>0.625925</vAcc></extensions></trkpt>
      <trkpt lon="-3.162500" lat="53.006881"><ele>271.594269</ele><time>2021-09-01T09:57:01Z</time><extensions><speed>1.384173</speed><course>309.925598</course><hAcc>1.028275</hAcc><vAcc>0.631167</vAcc></extensions></trkpt>
      <trkpt lon="-3.162507" lat="53.006893"><ele>271.466003</ele><time>2021-09-01T09:57:02Z</time><extensions><speed>1.387962</speed><course>306.104523</course><hAcc>1.036000</hAcc><vAcc>0.635670</vAcc></extensions></trkpt>
      <trkpt lon="-3.162514" lat="53.006904"><ele>271.340912</ele><time>2021-09-01T09:57:03Z</time><extensions><speed>1.391489</speed><course>306.130798</course><hAcc>1.042086</hAcc><vAcc>0.639209</vAcc></extensions></trkpt>
      <trkpt lon="-3.162521" lat="53.006916"><ele>271.220093</ele><time>2021-09-01T09:57:04Z</time><extensions><speed>1.394222</speed><course>309.163177</course><hAcc>1.046289</hAcc><vAcc>0.641642</vAcc></extensions></trkpt>
      <trkpt lon="-3.162528" lat="53.006928"><ele>271.105255</ele><time>2021-09-01T09:57:05Z</time><extensions><speed>1.395663</speed><course>311.638824</course><hAcc>1.048502</hAcc><vAcc>0.642915</vAcc></extensions></trkpt>
      <trkpt lon="-3.162534" lat="53.006940"><ele>270.998291</ele><time>2021-09-01T09:57:06Z</time><extensions><speed>1.394933</speed><course>306.319550</course><hAcc>1.048747</hAcc><vAcc>0.643056</vAcc></extensions></trkpt>
      <trkpt lon="-3.162540" lat="53.006952"><ele>270.901154</ele><time>2021-09-01T09:57:07Z</time><extensions><speed>1.391326</speed><course>309.448608</course><hAcc>1.047162</hAcc><vAcc>0.642157</vAcc></extensions></trkpt>
      <trkpt lon="-3.162545" lat="53.006964"><ele>270.815735</ele><time>2021-09-01T09:57:08Z</time><extensions><speed>1.384202</speed><course>307.055084</course><hAcc>1.043980</hAcc><vAcc>0.640356</vAcc></extensions></trkpt>
      <trkpt lon="-3.162550" lat="53.006976"><ele>270.743866</ele><time>2021-09-01T09:57:09Z</time><extensions><speed>1.373221</speed><course>309.609528</course><hAcc>1.039491</hAcc><vAcc>0.637809</vAcc></extensions></trkpt>
      <trkpt lon="-3.162555" lat="53.006988"><ele>270.687408</ele><time>2021-09-01T09:57:10Z</time><extensions><speed>1.358029</speed><course>304.747925</course><hAcc>1.034021</hAcc><vAcc>0.634685</vAcc></extensions></trkpt>
      <trkpt lon="-3.162559" lat="53.007000"><ele>270.647919</ele><time>2021-09-01T09:57:11Z</time><extensions><speed>1.337807</speed><course>298.413086</course><hAcc>1.027898</hAcc><vAcc>0.631157</vAcc></extensions></trkpt>
      <trkpt lon="-3.162563" lat="53.007012"><ele>270.625610</ele><time>2021-09-01T09:57:12Z</time><extensions><speed>1.311780</speed><course>304.495026</course><hAcc>1.021433</hAcc><vAcc>0.627397</vAcc></extensions></trkpt>
      <trkpt lon="-3.162567" lat="53.007023"><ele>270.619171</ele><time>2021-09-01T09:57:13Z</time><extensions><speed>1.279843</speed><course>308.805939</course><hAcc>1.014907</hAcc><vAcc>0.623573</vAcc></extensions></trkpt>
      <trkpt lon="-3.162570" lat="53.007034"><ele>270.626587</ele><time>2021-09-01T09:57:14Z</time><extensions><speed>1.242753</speed><course>311.789917</course><hAcc>1.008572</hAcc><vAcc>0.619843</vAcc></extensions></trkpt>
      <trkpt lon="-3.162572" lat="53.007045"><ele>270.645813</ele><time>2021-09-01T09:57:15Z</time><extensions><speed>1.202153</speed><course>310.886353</course><hAcc>1.002636</hAcc><vAcc>0.616345</vAcc></extensions></trkpt>
      <trkpt lon="-3.162575" lat="53.007056"><ele>270.674988</ele><time>2021-09-01T09:57:16Z</time><extensions><speed>1.160616</speed><course>314.533539</course><hAcc>0.997235</hAcc><vAcc>0.613169</vAcc></extensions></trkpt>
      <trkpt lon="-3.162577" lat="53.007066"><ele>270.712524</ele><time>2021-09-01T09:57:17Z</time><extensions><speed>1.121165</speed><course>315.680542</course><hAcc>0.992430</hAcc><vAcc>0.610356</vAcc></extensions></trkpt>
      <trkpt lon="-3.162580" lat="53.007076"><ele>270.757538</ele><time>2021-09-01T09:57:18Z</time><extensions><speed>1.086672</speed><course>318.090881</course><hAcc>0.988221</hAcc><vAcc>0.607901</vAcc></extensions></trkpt>
      <trkpt lon="-3.162582" lat="53.007085"><ele>270.809753</ele><time>2021-09-01T09:57:19Z</time><extensions><speed>1.058910</speed><course>322.434174</course><hAcc>0.984569</hAcc><vAcc>0.605778</vAcc></extensions></trkpt>
      <trkpt lon="-3.162584" lat="53.007094"><ele>270.869537</ele><time>2021-09-01T09:57:20Z</time><extensions><speed>1.037342</speed><course>326.481506</course><hAcc>0.981416</hAcc><vAcc>0.603939</vAcc></extensions></trkpt>
      <trkpt lon="-3.162587" lat="53.007104"><ele>270.936890</ele><time>2021-09-01T09:57:21Z</time><extensions><speed>1.019606</speed><course>309.522247</course><hAcc>0.978694</hAcc><vAcc>0.602329</vAcc></extensions></trkpt>
      <trkpt lon="-3.162589" lat="53.007113"><ele>271.011139</ele><time>2021-09-01T09:57:22Z</time><extensions><speed>1.002935</speed><course>317.105560</course><hAcc>0.976358</hAcc><vAcc>0.600914</vAcc></extensions></trkpt>
      <trkpt lon="-3.162591" lat="53.007121"><ele>271.090668</ele><time>2021-09-01T09:57:23Z</time><extensions><speed>0.985024</speed><course>325.631348</course><hAcc>0.974404</hAcc><vAcc>0.599710</vAcc></extensions></trkpt>
      <trkpt lon="-3.162594" lat="53.007130"><ele>271.173218</ele><time>2021-09-01T09:57:24Z</time><extensions><speed>0.964518</speed><course>323.961853</course><hAcc>0.972856</hAcc><vAcc>0.598759</vAcc></extensions></trkpt>
      <trkpt lon="-3.162597" lat="53.007138"><ele>271.256165</ele><time>2021-09-01T09:57:25Z</time><extensions><speed>0.941295</speed><course>321.394775</course><hAcc>0.971732</hAcc><vAcc>0.598103</vAcc></extensions></trkpt>
      <trkpt lon="-3.162600" lat="53.007146"><ele>271.336945</ele><time>2021-09-01T09:57:26Z</time><extensions><speed>0.915941</speed><course>321.108948</course><hAcc>0.971022</hAcc><vAcc>0.597767</vAcc></extensions></trkpt>
      <trkpt lon="-3.162604" lat="53.007154"><ele>271.413177</ele><time>2021-09-01T09:57:27Z</time><extensions><speed>0.888779</speed><course>321.170013</course><hAcc>0.970690</hAcc><vAcc>0.597755</vAcc></extensions></trkpt>
      <trkpt lon="-3.162608" lat="53.007162"><ele>271.482941</ele><time>2021-09-01T09:57:28Z</time><extensions><speed>0.859568</speed><course>306.176178</course><hAcc>0.970657</hAcc><vAcc>0.598036</vAcc></extensions></trkpt>
      <trkpt lon="-3.162611" lat="53.007169"><ele>271.544556</ele><time>2021-09-01T09:57:29Z</time><extensions><speed>0.828025</speed><course>315.376495</course><hAcc>0.970783</hAcc><vAcc>0.598531</vAcc></extensions></trkpt>
      <trkpt lon="-3.162615" lat="53.007176"><ele>271.596558</ele><time>2021-09-01T09:57:30Z</time><extensions><speed>0.793935</speed><course>318.757812</course><hAcc>0.970875</hAcc><vAcc>0.599125</vAcc></extensions></trkpt>
      <trkpt lon="-3.162620" lat="53.007182"><ele>271.637695</ele><time>2021-09-01T09:57:31Z</time><extensions><speed>0.756900</speed><course>302.990356</course><hAcc>0.970708</hAcc><vAcc>0.599682</vAcc></extensions></trkpt>
      <trkpt lon="-3.162624" lat="53.007188"><ele>271.666870</ele><time>2021-09-01T09:57:32Z</time><extensions><speed>0.716238</speed><course>313.317535</course><hAcc>0.970049</hAcc><vAcc>0.600066</vAcc></extensions></trkpt>
      <trkpt lon="-3.162629" lat="53.007194"><ele>271.683411</ele><time>2021-09-01T09:57:33Z</time><extensions><speed>0.671101</speed><course>312.441528</course><hAcc>0.968670</hAcc><vAcc>0.600141</vAcc></extensions></trkpt>
      <trkpt lon="-3.162633" lat="53.007199"><ele>271.687042</ele><time>2021-09-01T09:57:34Z</time><extensions><speed>0.621434</speed><course>316.780334</course><hAcc>0.966353</hAcc><vAcc>0.599774</vAcc></extensions></trkpt>
      <trkpt lon="-3.162638" lat="53.007204"><ele>271.677917</ele><time>2021-09-01T09:57:35Z</time><extensions><speed>0.567812</speed><course>316.095612</course><hAcc>0.962893</hAcc><vAcc>0.598846</vAcc></extensions></trkpt>
      <trkpt lon="-3.162642" lat="53.007208"><ele>271.656342</ele><time>2021-09-01T09:57:36Z</time><extensions><speed>0.511313</speed><course>314.234863</course><hAcc>0.958126</hAcc><vAcc>0.597290</vAcc></extensions></trkpt>
      <trkpt lon="-3.162646" lat="53.007211"><ele>271.623077</ele><time>2021-09-01T09:57:37Z</time><extensions><speed>0.453506</speed><course>308.545959</course><hAcc>0.951963</hAcc><vAcc>0.595134</vAcc></extensions></trkpt>
      <trkpt lon="-3.162650" lat="53.007214"><ele>271.579376</ele><time>2021-09-01T09:57:38Z</time><extensions><speed>0.395905</speed><course>317.115723</course><hAcc>0.944431</hAcc><vAcc>0.592533</vAcc></extensions></trkpt>
      <trkpt lon="-3.162654" lat="53.007217"><ele>271.527039</ele><time>2021-09-01T09:57:39Z</time><extensions><speed>0.340373</speed><course>324.999634</course><hAcc>0.935708</hAcc><vAcc>0.589800</vAcc></extensions></trkpt>
      <trkpt lon="-3.162658" lat="53.007218"><ele>271.468079</ele><time>2021-09-01T09:57:40Z</time><extensions><speed>0.289190</speed><course>317.924194</course><hAcc>0.926129</hAcc><vAcc>0.587398</vAcc></extensions></trkpt>
      <trkpt lon="-3.162661" lat="53.007220"><ele>271.404755</ele><time>2021-09-01T09:57:41Z</time><extensions><speed>0.244563</speed><course>315.987152</course><hAcc>0.916155</hAcc><vAcc>0.585908</vAcc></extensions></trkpt>
      <trkpt lon="-3.162664" lat="53.007220"><ele>271.339111</ele><time>2021-09-01T09:57:42Z</time><extensions><speed>0.208008</speed><course>314.734009</course><hAcc>0.906331</hAcc><vAcc>0.585963</vAcc></extensions></trkpt>
      <trkpt lon="-3.162667" lat="53.007221"><ele>271.273102</ele><time>2021-09-01T09:57:43Z</time><extensions><speed>0.180461</speed><course>317.632782</course><hAcc>0.897204</hAcc><vAcc>0.588144</vAcc></extensions></trkpt>
      <trkpt lon="-3.162670" lat="53.007221"><ele>271.208527</ele><time>2021-09-01T09:57:44Z</time><extensions><speed>0.162358</speed><course>301.352448</course><hAcc>0.889245</hAcc><vAcc>0.592834</vAcc></extensions></trkpt>
      <trkpt lon="-3.162672" lat="53.007220"><ele>271.146942</ele><time>2021-09-01T09:57:45Z</time><extensions><speed>0.151982</speed><course>311.835449</course><hAcc>0.882800</hAcc><vAcc>0.600098</vAcc></extensions></trkpt>
      <trkpt lon="-3.162674" lat="53.007220"><ele>271.089722</ele><time>2021-09-01T09:57:46Z</time><extensions><speed>0.145001</speed><course>314.400024</course><hAcc>0.878086</hAcc><vAcc>0.609624</vAcc></extensions></trkpt>
      <trkpt lon="-3.162676" lat="53.007219"><ele>271.037811</ele><time>2021-09-01T09:57:47Z</time><extensions><speed>0.138043</speed><course>314.080444</course><hAcc>0.875164</hAcc><vAcc>0.620758</vAcc></extensions></trkpt>
      <trkpt lon="-3.162677" lat="53.007218"><ele>270.991669</ele><time>2021-09-01T09:57:48Z</time><extensions><speed>0.130211</speed><course>307.602600</course><hAcc>0.873935</hAcc><vAcc>0.632697</vAcc></extensions></trkpt>
      <trkpt lon="-3.162678" lat="53.007217"><ele>270.951263</ele><time>2021-09-01T09:57:49Z</time><extensions><speed>0.121341</speed><course>311.268951</course><hAcc>0.874181</hAcc><vAcc>0.644706</vAcc></extensions></trkpt>
      <trkpt lon="-3.162679" lat="53.007216"><ele>270.916412</ele><time>2021-09-01T09:57:50Z</time><extensions><speed>0.111628</speed><course>316.568695</course><hAcc>0.875628</hAcc><vAcc>0.656223</vAcc></extensions></trkpt>
      <trkpt lon="-3.162680" lat="53.007216"><ele>270.886780</ele><time>2021-09-01T09:57:51Z</time><extensions><speed>0.101397</speed><course>324.849396</course><hAcc>0.877989</hAcc><vAcc>0.666835</vAcc></extensions></trkpt>
      <trkpt lon="-3.162680" lat="53.007215"><ele>270.861938</ele><time>2021-09-01T09:57:52Z</time><extensions><speed>0.090977</speed><course>318.929504</course><hAcc>0.880987</hAcc><vAcc>0.676264</vAcc></extensions></trkpt>
      <trkpt lon="-3.162681" lat="53.007214"><ele>270.841400</ele><time>2021-09-01T09:57:53Z</time><extensions><speed>0.080641</speed><course>315.514008</course><hAcc>0.884366</hAcc><vAcc>0.684376</vAcc></extensions></trkpt>
      <trkpt lon="-3.162681" lat="53.007213"><ele>270.824707</ele><time>2021-09-01T09:57:54Z</time><extensions><speed>0.070621</speed><course>309.432922</course><hAcc>0.887894</hAcc><vAcc>0.691153</vAcc></extensions></trkpt>
      <trkpt lon="-3.162681" lat="53.007213"><ele>270.811371</ele><time>2021-09-01T09:57:55Z</time><extensions><speed>0.061114</speed><course>306.068817</course><hAcc>0.891346</hAcc><vAcc>0.696653</vAcc></extensions></trkpt>
      <trkpt lon="-3.162681" lat="53.007212"><ele>270.800964</ele><time>2021-09-01T09:57:56Z</time><extensions><speed>0.052272</speed><course>319.983490</course><hAcc>0.894506</hAcc><vAcc>0.700974</vAcc></extensions></trkpt>
      <trkpt lon="-3.162681" lat="53.007212"><ele>270.793060</ele><time>2021-09-01T09:57:57Z</time><extensions><speed>0.044204</speed><course>315.606720</course><hAcc>0.897168</hAcc><vAcc>0.704256</vAcc></extensions></trkpt>
      <trkpt lon="-3.162681" lat="53.007211"><ele>270.787231</ele><time>2021-09-01T09:57:58Z</time><extensions><speed>0.036988</speed><course>317.784515</course><hAcc>0.899181</hAcc><vAcc>0.706707</vAcc></extensions></trkpt>
      <trkpt lon="-3.162681" lat="53.007211"><ele>270.783173</ele><time>2021-09-01T09:57:59Z</time><extensions><speed>0.030666</speed><course>313.524780</course><hAcc>0.900533</hAcc><vAcc>0.708675</vAcc></extensions></trkpt>
      <trkpt lon="-3.162681" lat="53.007211"><ele>270.780518</ele><time>2021-09-01T09:57:59Z</time><extensions><speed>0.025260</speed><course>310.903687</course><hAcc>0.901533</hAcc><vAcc>0.710794</vAcc></extensions></trkpt>
      <trkpt lon="-3.162681" lat="53.007211"><ele>270.778992</ele><time>2021-09-01T09:58:00Z</time><extensions><speed>0.020737</speed><course>315.823334</course><hAcc>0.903026</hAcc><vAcc>0.714171</vAcc></extensions></trkpt>
      <trkpt lon="-3.162681" lat="53.007211"><ele>270.778351</ele><time>2021-09-01T09:58:01Z</time><extensions><speed>0.017071</speed><course>318.320831</course><hAcc>0.906747</hAcc><vAcc>0.720617</vAcc></extensions></trkpt>
      <trkpt lon="-3.162680" lat="53.007211"><ele>270.778412</ele><time>2021-09-01T09:58:02Z</time><extensions><speed>0.014205</speed><course>306.579529</course><hAcc>0.915795</hAcc><vAcc>0.732920</vAcc></extensions></trkpt>
      <trkpt lon="-3.162680" lat="53.007210"><ele>270.778961</ele><time>2021-09-01T09:58:03Z</time><extensions><speed>0.012056</speed><course>308.750916</course><hAcc>0.935016</hAcc><vAcc>0.754942</vAcc></extensions></trkpt>
      <trkpt lon="-3.162680" lat="53.007210"><ele>270.779846</ele><time>2021-09-01T09:58:04Z</time><extensions><speed>0.010518</speed><course>310.705475</course><hAcc>0.971124</hAcc><vAcc>0.791465</vAcc></extensions></trkpt>
      <trkpt lon="-3.162680" lat="53.007211"><ele>270.807617</ele><time>2021-09-01T09:58:05Z</time><extensions><speed>0.000000</speed><course>-1.000000</course><hAcc>0.932707</hAcc><vAcc>0.756013</vAcc></extensions></trkpt>
      <trkpt lon="-3.162680" lat="53.007211"><ele>270.807617</ele><time>2021-09-01T09:58:06Z</time><extensions><speed>0.000000</speed><course>-1.000000</course><hAcc>0.914910</hAcc><vAcc>0.739174</vAcc></extensions></trkpt>
      <trkpt lon="-3.162680" lat="53.007211"><ele>270.807617</ele><time>2021-09-01T09:58:07Z</time><extensions><speed>0.000000</speed><course>-1.000000</course><hAcc>0.908411</hAcc><vAcc>0.732374</vAcc></extensions></trkpt>
      <trkpt lon="-3.162680" lat="53.007211"><ele>270.807617</ele><time>2021-09-01T09:58:08Z</time><extensions><speed>0.000000</speed><course>-1.000000</course><hAcc>0.907714</hAcc><vAcc>0.731300</vAcc></extensions></trkpt>
      <trkpt lon="-3.162680" lat="53.007211"><ele>270.807617</ele><time>2021-09-01T09:58:09Z</time><extensions><speed>0.000000</speed><course>-1.000000</course><hAcc>0.909364</hAcc><vAcc>0.732966</vAcc></extensions></trkpt>
      <trkpt lon="-3.162680" lat="53.007211"><ele>270.807617</ele><time>2021-09-01T09:58:10Z</time><extensions><speed>0.000000</speed><course>-1.000000</course><hAcc>0.911473</hAcc><vAcc>0.735526</vAcc></extensions></trkpt>
      <trkpt lon="-3.162680" lat="53.007211"><ele>270.807617</ele><time>2021-09-01T09:58:11Z</time><extensions><speed>0.000000</speed><course>-1.000000</course><hAcc>0.913194</hAcc><vAcc>0.737977</vAcc></extensions></trkpt>
      <trkpt lon="-3.162680" lat="53.007211"><ele>270.807617</ele><time>2021-09-01T09:58:12Z</time><extensions><speed>0.000000</speed><course>-1.000000</course><hAcc>0.914292</hAcc><vAcc>0.739866</vAcc></extensions></trkpt>
      <trkpt lon="-3.162680" lat="53.007211"><ele>270.807617</ele><time>2021-09-01T09:58:13Z</time><extensions><speed>0.000000</speed><course>-1.000000</course><hAcc>0.914837</hAcc><vAcc>0.741056</vAcc></extensions></trkpt>
      <trkpt lon="-3.162680" lat="53.007211"><ele>270.807617</ele><time>2021-09-01T09:58:14Z</time><extensions><speed>0.000000</speed><course>184.559082</course><hAcc>0.914990</hAcc><vAcc>0.741562</vAcc></extensions></trkpt>
      <trkpt lon="-3.162680" lat="53.007211"><ele>270.807617</ele><time>2021-09-01T09:58:15Z</time><extensions><speed>0.000000</speed><course>-1.000000</course><hAcc>0.914890</hAcc><vAcc>0.741448</vAcc></extensions></trkpt>
      <trkpt lon="-3.162680" lat="53.007211"><ele>270.807617</ele><time>2021-09-01T09:58:16Z</time><extensions><speed>0.000000</speed><course>-1.000000</course><hAcc>0.914592</hAcc><vAcc>0.740775</vAcc></extensions></trkpt>
      <trkpt lon="-3.162680" lat="53.007211"><ele>270.807617</ele><time>2021-09-01T09:58:17Z</time><extensions><speed>0.000000</speed><course>-1.000000</course><hAcc>0.914066</hAcc><vAcc>0.739596</vAcc></extensions></trkpt>
      <trkpt lon="-3.162680" lat="53.007211"><ele>270.807617</ele><time>2021-09-01T09:58:18Z</time><extensions><speed>0.000000</speed><course>-1.000000</course><hAcc>0.913244</hAcc><vAcc>0.738006</vAcc></extensions></trkpt>
      <trkpt lon="-3.162680" lat="53.007211"><ele>270.807617</ele><time>2021-09-01T09:58:19Z</time><extensions><speed>0.000000</speed><course>53.307610</course><hAcc>0.912137</hAcc><vAcc>0.736230</vAcc></extensions></trkpt>
      <trkpt lon="-3.162680" lat="53.007211"><ele>270.807617</ele><time>2021-09-01T09:58:20Z</time><extensions><speed>0.000000</speed><course>-1.000000</course><hAcc>0.911007</hAcc><vAcc>0.734775</vAcc></extensions></trkpt>
      <trkpt lon="-3.162680" lat="53.007211"><ele>270.807617</ele><time>2021-09-01T09:58:21Z</time><extensions><speed>0.000000</speed><course>-1.000000</course><hAcc>0.910646</hAcc><vAcc>0.734635</vAcc></extensions></trkpt>
      <trkpt lon="-3.162680" lat="53.007211"><ele>270.807617</ele><time>2021-09-01T09:58:22Z</time><extensions><speed>0.000000</speed><course>-1.000000</course><hAcc>0.912747</hAcc><vAcc>0.737537</vAcc></extensions></trkpt>
      <trkpt lon="-3.162680" lat="53.007211"><ele>270.807617</ele><time>2021-09-01T09:58:23Z</time><extensions><speed>0.000000</speed><course>120.394302</course><hAcc>0.920348</hAcc><vAcc>0.746199</vAcc></extensions></trkpt>
      <trkpt lon="-3.162680" lat="53.007211"><ele>270.807617</ele><time>2021-09-01T09:58:24Z</time><extensions><speed>0.000000</speed><course>-1.000000</course><hAcc>0.938253</hAcc><vAcc>0.764473</vAcc></extensions></trkpt>
      <trkpt lon="-3.162680" lat="53.007211"><ele>270.807617</ele><time>2021-09-01T09:58:25Z</time><extensions><speed>0.000000</speed><course>-1.000000</course><hAcc>0.973158</hAcc><vAcc>0.797230</vAcc></extensions></trkpt>
      <trkpt lon="-3.162680" lat="53.007210"><ele>270.800873</ele><time>2021-09-01T09:58:26Z</time><extensions><speed>0.030869</speed><course>-1.000000</course><hAcc>0.935368</hAcc><vAcc>0.762817</vAcc></extensions></trkpt>
      <trkpt lon="-3.162680" lat="53.007210"><ele>270.802795</ele><time>2021-09-01T09:58:27Z</time><extensions><speed>0.032869</speed><course>-1.000000</course><hAcc>0.915947</hAcc><vAcc>0.741750</vAcc></extensions></trkpt>
      <trkpt lon="-3.162680" lat="53.007210"><ele>270.805298</ele><time>2021-09-01T09:58:28Z</time><extensions><speed>0.035152</speed><course>-1.000000</course><hAcc>0.907901</hAcc><vAcc>0.731363</vAcc></extensions></trkpt>
      <trkpt lon="-3.162679" lat="53.007210"><ele>270.808472</ele><time>2021-09-01T09:58:29Z</time><extensions><speed>0.037579</speed><course>-1.000000</course><hAcc>0.905726</hAcc><vAcc>0.727351</vAcc></extensions></trkpt>
      <trkpt lon="-3.162679" lat="53.007209"><ele>270.812408</ele><time>2021-09-01T09:58:30Z</time><extensions><speed>0.039960</speed><course>-1.000000</course><hAcc>0.905927</hAcc><vAcc>0.726637</vAcc></extensions></trkpt>
      <trkpt lon="-3.162679" lat="53.007209"><ele>270.817139</ele><time>2021-09-01T09:58:31Z</time><extensions><speed>0.042047</speed><course>-1.000000</course><hAcc>0.906564</hAcc><vAcc>0.727260</vAcc></extensions></trkpt>
      <trkpt lon="-3.162679" lat="53.007209"><ele>270.822754</ele><time>2021-09-01T09:58:32Z</time><extensions><speed>0.043531</speed><course>-1.000000</course><hAcc>0.906756</hAcc><vAcc>0.728118</vAcc></extensions></trkpt>
      <trkpt lon="-3.162678" lat="53.007208"><ele>270.829163</ele><time>2021-09-01T09:58:33Z</time><extensions><speed>0.044042</speed><course>-1.000000</course><hAcc>0.906260</hAcc><vAcc>0.728701</vAcc></extensions></trkpt>
      <trkpt lon="-3.162678" lat="53.007208"><ele>270.836304</ele><time>2021-09-01T09:58:34Z</time><extensions><speed>0.043153</speed><course>-1.000000</course><hAcc>0.905178</hAcc><vAcc>0.728876</vAcc></extensions></trkpt>
      <trkpt lon="-3.162678" lat="53.007208"><ele>270.843994</ele><time>2021-09-01T09:58:35Z</time><extensions><speed>0.040399</speed><course>184.559082</course><hAcc>0.903763</hAcc><vAcc>0.728715</vAcc></extensions></trkpt>
      <trkpt lon="-3.162677" lat="53.007207"><ele>270.851959</ele><time>2021-09-01T09:58:36Z</time><extensions><speed>0.035343</speed><course>-1.000000</course><hAcc>0.902302</hAcc><vAcc>0.728385</vAcc></extensions></trkpt>
      <trkpt lon="-3.162677" lat="53.007207"><ele>270.859833</ele><time>2021-09-01T09:58:37Z</time><extensions><speed>0.027830</speed><course>-1.000000</course><hAcc>0.901049</hAcc><vAcc>0.728067</vAcc></extensions></trkpt>
      <trkpt lon="-3.162677" lat="53.007207"><ele>270.867126</ele><time>2021-09-01T09:58:38Z</time><extensions><speed>0.019398</speed><course>-1.000000</course><hAcc>0.900200</hAcc><vAcc>0.727911</vAcc></extensions></trkpt>
      <trkpt lon="-3.162676" lat="53.007207"><ele>270.873169</ele><time>2021-09-01T09:58:39Z</time><extensions><speed>0.019776</speed><course>-1.000000</course><hAcc>0.899873</hAcc><vAcc>0.728013</vAcc></extensions></trkpt>
      <trkpt lon="-3.162676" lat="53.007207"><ele>270.877197</ele><time>2021-09-01T09:58:40Z</time><extensions><speed>0.037424</speed><course>53.307610</course><hAcc>0.900113</hAcc><vAcc>0.728399</vAcc></extensions></trkpt>
      <trkpt lon="-3.162676" lat="53.007208"><ele>270.878265</ele><time>2021-09-01T09:58:41Z</time><extensions><speed>0.065732</speed><course>-1.000000</course><hAcc>0.900889</hAcc><vAcc>0.729030</vAcc></extensions></trkpt>
      <trkpt lon="-3.162676" lat="53.007209"><ele>270.875275</ele><time>2021-09-01T09:58:42Z</time><extensions><speed>0.102451</speed><course>-1.000000</course><hAcc>0.902095</hAcc><vAcc>0.729804</vAcc></extensions></trkpt>
      <trkpt lon="-3.162677" lat="53.007210"><ele>270.867035</ele><time>2021-09-01T09:58:43Z</time><extensions><speed>0.147593</speed><course>-1.000000</course><hAcc>0.903556</hAcc><vAcc>0.730566</vAcc></extensions></trkpt>
      <trkpt lon="-3.162678" lat="53.007211"><ele>270.852112</ele><time>2021-09-01T09:58:44Z</time><extensions><speed>0.201500</speed><course>120.394302</course><hAcc>0.905040</hAcc><vAcc>0.731129</vAcc></extensions></trkpt>
      <trkpt lon="-3.162679" lat="53.007213"><ele>270.829102</ele><time>2021-09-01T09:58:45Z</time><extensions><speed>0.264409</speed><course>-1.000000</course><hAcc>0.906285</hAcc><vAcc>0.731307</vAcc></extensions></trkpt>
      <trkpt lon="-3.162681" lat="53.007215"><ele>270.796509</ele><time>2021-09-01T09:58:46Z</time><extensions><speed>0.336278</speed><course>-1.000000</course><hAcc>0.907057</hAcc><vAcc>0.730974</vAcc></extensions></trkpt>
      <trkpt lon="-3.162684" lat="53.007218"><ele>270.752808</ele><time>2021-09-01T09:58:47Z</time><extensions><speed>0.416644</speed><course>-1.000000</course><hAcc>0.907247</hAcc><vAcc>0.730160</vAcc></extensions></trkpt>
      <trkpt lon="-3.162687" lat="53.007222"><ele>270.696625</ele><time>2021-09-01T09:58:48Z</time><extensions><speed>0.504480</speed><course>-1.000000</course><hAcc>0.907043</hAcc><vAcc>0.729190</vAcc></extensions></trkpt>
      <trkpt lon="-3.162692" lat="53.007226"><ele>270.626831</ele><time>2021-09-01T09:58:49Z</time><extensions><speed>0.598052</speed><course>-1.000000</course><hAcc>0.907185</hAcc><vAcc>0.728883</vAcc></extensions></trkpt>
      <trkpt lon="-3.162697" lat="53.007231"><ele>270.542633</ele><time>2021-09-01T09:58:50Z</time><extensions><speed>0.694739</speed><course>-1.000000</course><hAcc>0.909327</hAcc><vAcc>0.730804</vAcc></extensions></trkpt>
      <trkpt lon="-3.162703" lat="53.007237"><ele>270.443726</ele><time>2021-09-01T09:58:51Z</time><extensions><speed>0.790858</speed><course>-1.000000</course><hAcc>0.916491</hAcc><vAcc>0.737525</vAcc></extensions></trkpt>
      <trkpt lon="-3.162709" lat="53.007243"><ele>270.330536</ele><time>2021-09-01T09:58:52Z</time><extensions><speed>0.881477</speed><course>-1.000000</course><hAcc>0.933490</hAcc><vAcc>0.752813</vAcc></extensions></trkpt>
      <trkpt lon="-3.162717" lat="53.007250"><ele>270.204529</ele><time>2021-09-01T09:58:53Z</time><extensions><speed>0.960233</speed><course>-1.000000</course><hAcc>0.967094</hAcc><vAcc>0.781570</vAcc></extensions></trkpt>
      <trkpt lon="-3.162729" lat="53.007261"><ele>270.084900</ele><time>2021-09-01T09:58:54Z</time><extensions><speed>1.528117</speed><course>-1.000000</course><hAcc>0.929204</hAcc><vAcc>0.745934</vAcc></extensions></trkpt>
      <trkpt lon="-3.162740" lat="53.007273"><ele>270.024628</ele><time>2021-09-01T09:58:55Z</time><extensions><speed>1.507393</speed><course>-1.000000</course><hAcc>0.908189</hAcc><vAcc>0.719889</vAcc></extensions></trkpt>
      <trkpt lon="-3.162750" lat="53.007285"><ele>269.979309</ele><time>2021-09-01T09:58:56Z</time><extensions><speed>1.477543</speed><course>-1.000000</course><hAcc>0.898249</hAcc><vAcc>0.703570</vAcc></extensions></trkpt>
      <trkpt lon="-3.162761" lat="53.007297"><ele>269.951752</ele><time>2021-09-01T09:58:57Z</time><extensions><speed>1.442087</speed><course>-1.000000</course><hAcc>0.893902</hAcc><vAcc>0.692755</vAcc></extensions></trkpt>
      <trkpt lon="-3.162770" lat="53.007308"><ele>269.943756</ele><time>2021-09-01T09:58:58Z</time><extensions><speed>1.403356</speed><course>-1.000000</course><hAcc>0.891678</hAcc><vAcc>0.684440</vAcc></extensions></trkpt>
      <trkpt lon="-3.162779" lat="53.007319"><ele>269.956299</ele><time>2021-09-01T09:58:59Z</time><extensions><speed>1.362473</speed><course>-1.000000</course><hAcc>0.889679</hAcc><vAcc>0.676720</vAcc></extensions></trkpt>
      <trkpt lon="-3.162788" lat="53.007330"><ele>269.989471</ele><time>2021-09-01T09:59:00Z</time><extensions><speed>1.320428</speed><course>-1.000000</course><hAcc>0.887078</hAcc><vAcc>0.668552</vAcc></extensions></trkpt>
      <trkpt lon="-3.162795" lat="53.007341"><ele>270.042450</ele><time>2021-09-01T09:59:01Z</time><extensions><speed>1.278125</speed><course>-1.000000</course><hAcc>0.883717</hAcc><vAcc>0.659512</vAcc></extensions></trkpt>
      <trkpt lon="-3.162802" lat="53.007351"><ele>270.113678</ele><time>2021-09-01T09:59:02Z</time><extensions><speed>1.236162</speed><course>-1.000000</course><hAcc>0.879805</hAcc><vAcc>0.649593</vAcc></extensions></trkpt>
      <trkpt lon="-3.162809" lat="53.007361"><ele>270.201355</ele><time>2021-09-01T09:59:03Z</time><extensions><speed>1.195121</speed><course>184.559082</course><hAcc>0.875726</hAcc><vAcc>0.639051</vAcc></extensions></trkpt>
      <trkpt lon="-3.162815" lat="53.007371"><ele>270.303864</ele><time>2021-09-01T09:59:04Z</time><extensions><speed>1.155134</speed><course>-1.000000</course><hAcc>0.871912</hAcc><vAcc>0.628280</vAcc></extensions></trkpt>
      <trkpt lon="-3.162820" lat="53.007381"><ele>270.419769</ele><time>2021-09-01T09:59:05Z</time><extensions><speed>1.115571</speed><course>-1.000000</course><hAcc>0.868759</hAcc><vAcc>0.617700</vAcc></extensions></trkpt>
      <trkpt lon="-3.162825" lat="53.007390"><ele>270.547699</ele><time>2021-09-01T09:59:06Z</time><extensions><speed>1.075552</speed><course>-1.000000</course><hAcc>0.866581</hAcc><vAcc>0.607693</vAcc></extensions></trkpt>
      <trkpt lon="-3.162830" lat="53.007400"><ele>270.686584</ele><time>2021-09-01T09:59:07Z</time><extensions><speed>1.034890</speed><course>-1.000000</course><hAcc>0.865590</hAcc><vAcc>0.598571</vAcc></extensions></trkpt>
      <trkpt lon="-3.162834" lat="53.007408"><ele>270.835297</ele><time>2021-09-01T09:59:08Z</time><extensions><speed>0.994832</speed><course>53.307610</course><hAcc>0.865883</hAcc><vAcc>0.590561</vAcc></extensions></trkpt>
      <trkpt lon="-3.162838" lat="53.007417"><ele>270.992523</ele><time>2021-09-01T09:59:09Z</time><extensions><speed>0.957186</speed><course>-1.000000</course><hAcc>0.867457</hAcc><vAcc>0.583798</vAcc></extensions></trkpt>
      <trkpt lon="-3.162841" lat="53.007425"><ele>271.156464</ele><time>2021-09-01T09:59:10Z</time><extensions><speed>0.922995</speed><course>-1.000000</course><hAcc>0.870251</hAcc><vAcc>0.578347</vAcc></extensions></trkpt>
      <trkpt lon="-3.162845" lat="53.007433"><ele>271.324799</ele><time>2021-09-01T09:59:11Z</time><extensions><speed>0.892667</speed><course>-1.000000</course><hAcc>0.874181</hAcc><vAcc>0.574238</vAcc></extensions></trkpt>
      <trkpt lon="-3.162849" lat="53.007440"><ele>271.494354</ele><time>2021-09-01T09:59:12Z</time><extensions><speed>0.866453</speed><course>120.394302</course><hAcc>0.879170</hAcc><vAcc>0.571481</vAcc></extensions></trkpt>
      <trkpt lon="-3.162852" lat="53.007448"><ele>271.661255</ele><time>2021-09-01T09:59:13Z</time><extensions><speed>0.845103</speed><course>-1.000000</course><hAcc>0.885150</hAcc><vAcc>0.570070</vAcc></extensions></trkpt>
      <trkpt lon="-3.162856" lat="53.007455"><ele>271.821686</ele><time>2021-09-01T09:59:14Z</time><extensions><speed>0.829874</speed><course>-1.000000</course><hAcc>0.892049</hAcc><vAcc>0.569969</vAcc></extensions></trkpt>
      <trkpt lon="-3.162861" lat="53.007462"><ele>271.972076</ele><time>2021-09-01T09:59:15Z</time><extensions><speed>0.822423</speed><course>-1.000000</course><hAcc>0.899769</hAcc><vAcc>0.571089</vAcc></extensions></trkpt>
      <trkpt lon="-3.162866" lat="53.007469"><ele>272.109436</ele><time>2021-09-01T09:59:16Z</time><extensions><speed>0.825197</speed><course>-1.000000</course><hAcc>0.908167</hAcc><vAcc>0.573274</vAcc></extensions></trkpt>
      <trkpt lon="-3.162871" lat="53.007475"><ele>272.231781</ele><time>2021-09-01T09:59:17Z</time><extensions><speed>0.839343</speed><course>-1.000000</course><hAcc>0.917060</hAcc><vAcc>0.576308</vAcc></extensions></trkpt>
      <trkpt lon="-3.162877" lat="53.007482"><ele>272.338257</ele><time>2021-09-01T09:59:18Z</time><extensions><speed>0.863358</speed><course>-1.000000</course><hAcc>0.926219</hAcc><vAcc>0.579930</vAcc></extensions></trkpt>
      <trkpt lon="-3.162883" lat="53.007489"><ele>272.428436</ele><time>2021-09-01T09:59:19Z</time><extensions><speed>0.894426</speed><course>-1.000000</course><hAcc>0.935411</hAcc><vAcc>0.583877</vAcc></extensions></trkpt>
      <trkpt lon="-3.162890" lat="53.007496"><ele>272.502045</ele><time>2021-09-01T09:59:20Z</time><extensions><speed>0.929731</speed><course>-1.000000</course><hAcc>0.944465</hAcc><vAcc>0.587949</vAcc></extensions></trkpt>
      <trkpt lon="-3.162898" lat="53.007503"><ele>272.558990</ele><time>2021-09-01T09:59:21Z</time><extensions><speed>0.967435</speed><course>-1.000000</course><hAcc>0.953299</hAcc><vAcc>0.592033</vAcc></extensions></trkpt>
      <trkpt lon="-3.162906" lat="53.007511"><ele>272.599884</ele><time>2021-09-01T09:59:22Z</time><extensions><speed>1.006340</speed><course>-1.000000</course><hAcc>0.961916</hAcc><vAcc>0.596103</vAcc></extensions></trkpt>
      <trkpt lon="-3.162915" lat="53.007518"><ele>272.625824</ele><time>2021-09-01T09:59:23Z</time><extensions><speed>1.045508</speed><course>-1.000000</course><hAcc>0.970359</hAcc><vAcc>0.600170</vAcc></extensions></trkpt>
      <trkpt lon="-3.162924" lat="53.007526"><ele>272.638275</ele><time>2021-09-01T09:59:24Z</time><extensions><speed>1.084025</speed><course>-1.000000</course><hAcc>0.978660</hAcc><vAcc>0.604252</vAcc></extensions></trkpt>
      <trkpt lon="-3.162933" lat="53.007534"><ele>272.638977</ele><time>2021-09-01T09:59:25Z</time><extensions><speed>1.121406</speed><course>-1.000000</course><hAcc>0.986832</hAcc><vAcc>0.608357</vAcc></extensions></trkpt>
      <trkpt lon="-3.162943" lat="53.007542"><ele>272.630371</ele><time>2021-09-01T09:59:26Z</time><extensions><speed>1.157784</speed><course>-1.000000</course><hAcc>0.994870</hAcc><vAcc>0.612488</vAcc></extensions></trkpt>
      <trkpt lon="-3.162954" lat="53.007551"><ele>272.615204</ele><time>2021-09-01T09:59:27Z</time><extensions><speed>1.193895</speed><course>-1.000000</course><hAcc>1.002756</hAcc><vAcc>0.616652</vAcc></extensions></trkpt>
      <trkpt lon="-3.162964" lat="53.007560"><ele>272.596405</ele><time>2021-09-01T09:59:28Z</time><extensions><speed>1.230551</speed><course>-1.000000</course><hAcc>1.010450</hAcc><vAcc>0.620841</vAcc></extensions></trkpt>
      <trkpt lon="-3.162975" lat="53.007569"><ele>272.576782</ele><time>2021-09-01T09:59:29Z</time><extensions><speed>1.267729</speed><course>-1.000000</course><hAcc>1.017868</hAcc><vAcc>0.625020</vAcc></extensions></trkpt>
      <trkpt lon="-3.162986" lat="53.007578"><ele>272.558868</ele><time>2021-09-01T09:59:30Z</time><extensions><speed>1.305620</speed><course>-1.000000</course><hAcc>1.024868</hAcc><vAcc>0.629110</vAcc></extensions></trkpt>
      <trkpt lon="-3.162997" lat="53.007588"><ele>272.544952</ele><time>2021-09-01T09:59:31Z</time><extensions><speed>1.344079</speed><course>-1.000000</course><hAcc>1.031236</hAcc><vAcc>0.632971</vAcc></extensions></trkpt>
      <trkpt lon="-3.163007" lat="53.007599"><ele>272.536774</ele><time>2021-09-01T09:59:32Z</time><extensions><speed>1.382031</speed><course>116.725777</course><hAcc>1.036685</hAcc><vAcc>0.636400</vAcc></extensions></trkpt>
      <trkpt lon="-3.163018" lat="53.007609"><ele>272.535431</ele><time>2021-09-01T09:59:33Z</time><extensions><speed>1.417957</speed><course>116.725777</course><hAcc>1.040899</hAcc><vAcc>0.639166</vAcc></extensions></trkpt>
      <trkpt lon="-3.163029" lat="53.007621"><ele>272.541473</ele><time>2021-09-01T09:59:34Z</time><extensions><speed>1.449613</speed><course>116.725777</course><hAcc>1.043597</hAcc><vAcc>0.641060</vAcc></extensions></trkpt>
      <trkpt lon="-3.163040" lat="53.007632"><ele>272.555054</ele><time>2021-09-01T09:59:35Z</time><extensions><speed>1.474648</speed><course>116.725777</course><hAcc>1.044587</hAcc><vAcc>0.641937</vAcc></extensions></trkpt>
      <trkpt lon="-3.163050" lat="53.007644"><ele>272.576202</ele><time>2021-09-01T09:59:36Z</time><extensions><speed>1.490874</speed><course>116.725777</course><hAcc>1.043805</hAcc><vAcc>0.641756</vAcc></extensions></trkpt>
      <trkpt lon="-3.163060" lat="53.007656"><ele>272.604767</ele><time>2021-09-01T09:59:37Z</time><extensions><speed>1.496734</speed><course>116.725784</course><hAcc>1.041332</hAcc><vAcc>0.640588</vAcc></extensions></trkpt>
      <trkpt lon="-3.163069" lat="53.007668"><ele>272.640625</ele><time>2021-09-01T09:59:38Z</time><extensions><speed>1.491586</speed><course>116.725784</course><hAcc>1.037360</hAcc><vAcc>0.638590</vAcc></extensions></trkpt>
      <trkpt lon="-3.163078" lat="53.007680"><ele>272.683472</ele><time>2021-09-01T09:59:39Z</time><extensions><speed>1.475776</speed><course>116.725784</course><hAcc>1.032136</hAcc><vAcc>0.635955</vAcc></extensions></trkpt>
      <trkpt lon="-3.163086" lat="53.007693"><ele>272.732727</ele><time>2021-09-01T09:59:40Z</time><extensions><speed>1.450628</speed><course>116.725784</course><hAcc>1.025904</hAcc><vAcc>0.632874</vAcc></extensions></trkpt>
      <trkpt lon="-3.163093" lat="53.007705"><ele>272.787445</ele><time>2021-09-01T09:59:41Z</time><extensions><speed>1.417805</speed><course>116.725784</course><hAcc>1.018868</hAcc><vAcc>0.629500</vAcc></extensions></trkpt>
      <trkpt lon="-3.163100" lat="53.007716"><ele>272.846558</ele><time>2021-09-01T09:59:42Z</time><extensions><speed>1.379176</speed><course>116.725784</course><hAcc>1.011179</hAcc><vAcc>0.625950</vAcc></extensions></trkpt>
      <trkpt lon="-3.163106" lat="53.007728"><ele>272.908661</ele><time>2021-09-01T09:59:43Z</time><extensions><speed>1.336791</speed><course>116.725784</course><hAcc>1.002951</hAcc><vAcc>0.622320</vAcc></extensions></trkpt>
      <trkpt lon="-3.163111" lat="53.007740"><ele>272.972443</ele><time>2021-09-01T09:59:44Z</time><extensions><speed>1.293233</speed><course>116.725784</course><hAcc>0.994273</hAcc><vAcc>0.618719</vAcc></extensions></trkpt>
      <trkpt lon="-3.163116" lat="53.007751"><ele>273.037384</ele><time>2021-09-01T09:59:45Z</time><extensions><speed>1.251276</speed><course>116.725784</course><hAcc>0.985222</hAcc><vAcc>0.615275</vAcc></extensions></trkpt>
      <trkpt lon="-3.163119" lat="53.007761"><ele>273.103638</ele><time>2021-09-01T09:59:46Z</time><extensions><speed>1.212915</speed><course>116.725784</course><hAcc>0.975894</hAcc><vAcc>0.612149</vAcc></extensions></trkpt>
      <trkpt lon="-3.163122" lat="53.007772"><ele>273.171631</ele><time>2021-09-01T09:59:47Z</time><extensions><speed>1.179472</speed><course>116.725784</course><hAcc>0.966431</hAcc><vAcc>0.609538</vAcc></extensions></trkpt>
      <trkpt lon="-3.163124" lat="53.007782"><ele>273.241791</ele><time>2021-09-01T09:59:48Z</time><extensions><speed>1.151440</speed><course>116.725784</course><hAcc>0.957032</hAcc><vAcc>0.607654</vAcc></extensions></trkpt>
      <trkpt lon="-3.163126" lat="53.007793"><ele>273.314270</ele><time>2021-09-01T09:59:49Z</time><extensions><speed>1.128348</speed><course>116.725784</course><hAcc>0.947903</hAcc><vAcc>0.606656</vAcc></extensions></trkpt>
      <trkpt lon="-3.163126" lat="53.007803"><ele>273.388977</ele><time>2021-09-01T09:59:50Z</time><extensions><speed>1.108754</speed><course>116.725784</course><hAcc>0.939198</hAcc><vAcc>0.606590</vAcc></extensions></trkpt>
      <trkpt lon="-3.163126" lat="53.007813"><ele>273.465393</ele><time>2021-09-01T09:59:51Z</time><extensions><speed>1.091060</speed><course>116.725784</course><hAcc>0.930978</hAcc><vAcc>0.607388</vAcc></extensions></trkpt>
      <trkpt lon="-3.163126" lat="53.007822"><ele>273.542450</ele><time>2021-09-01T09:59:52Z</time><extensions><speed>1.074880</speed><course>116.725784</course><hAcc>0.923231</hAcc><vAcc>0.608915</vAcc></extensions></trkpt>
      <trkpt lon="-3.163126" lat="53.007832"><ele>273.619263</ele><time>2021-09-01T09:59:54Z</time><extensions><speed>1.060938</speed><course>116.725784</course><hAcc>0.915893</hAcc><vAcc>0.611003</vAcc></extensions></trkpt>
      <trkpt lon="-3.163125" lat="53.007841"><ele>273.694855</ele><time>2021-09-01T09:59:55Z</time><extensions><speed>1.049525</speed><course>116.725777</course><hAcc>0.908958</hAcc><vAcc>0.613489</vAcc></extensions></trkpt>
      <trkpt lon="-3.163124" lat="53.007851"><ele>273.768768</ele><time>2021-09-01T09:59:56Z</time><extensions><speed>1.040430</speed><course>116.725769</course><hAcc>0.902450</hAcc><vAcc>0.616220</vAcc></extensions></trkpt>
      <trkpt lon="-3.163124" lat="53.007860"><ele>273.840637</ele><time>2021-09-01T09:59:57Z</time><extensions><speed>1.033789</speed><course>116.725769</course><hAcc>0.896404</hAcc><vAcc>0.619012</vAcc></extensions></trkpt>
      <trkpt lon="-3.163123" lat="53.007869"><ele>273.910156</ele><time>2021-09-01T09:59:58Z</time><extensions><speed>1.030061</speed><course>116.725761</course><hAcc>0.890849</hAcc><vAcc>0.621685</vAcc></extensions></trkpt>
      <trkpt lon="-3.163124" lat="53.007879"><ele>273.976807</ele><time>2021-09-01T09:59:59Z</time><extensions><speed>1.029601</speed><course>116.725754</course><hAcc>0.885795</hAcc><vAcc>0.624077</vAcc></extensions></trkpt>
      <trkpt lon="-3.163125" lat="53.007888"><ele>274.039642</ele><time>2021-09-01T10:00:00Z</time><extensions><speed>1.032159</speed><course>116.725746</course><hAcc>0.881236</hAcc><vAcc>0.626058</vAcc></extensions></trkpt>
      <trkpt lon="-3.163126" lat="53.007897"><ele>274.097595</ele><time>2021-09-01T10:00:01Z</time><extensions><speed>1.037619</speed><course>116.725746</course><hAcc>0.877157</hAcc><vAcc>0.627554</vAcc></extensions></trkpt>
      <trkpt lon="-3.163129" lat="53.007906"><ele>274.149597</ele><time>2021-09-01T10:00:01Z</time><extensions><speed>1.045426</speed><course>116.725731</course><hAcc>0.873576</hAcc><vAcc>0.628572</vAcc></extensions></trkpt>
      <trkpt lon="-3.163131" lat="53.007916"><ele>274.195190</ele><time>2021-09-01T10:00:02Z</time><extensions><speed>1.054700</speed><course>116.725723</course><hAcc>0.870497</hAcc><vAcc>0.629148</vAcc></extensions></trkpt>
      <trkpt lon="-3.163135" lat="53.007925"><ele>274.234406</ele><time>2021-09-01T10:00:03Z</time><extensions><speed>1.064906</speed><course>116.725723</course><hAcc>0.867899</hAcc><vAcc>0.629290</vAcc></extensions></trkpt>
      <trkpt lon="-3.163139" lat="53.007934"><ele>274.268005</ele><time>2021-09-01T10:00:04Z</time><extensions><speed>1.075635</speed><course>116.725708</course><hAcc>0.865734</hAcc><vAcc>0.628990</vAcc></extensions></trkpt>
      <trkpt lon="-3.163143" lat="53.007944"><ele>274.296783</ele><time>2021-09-01T10:00:05Z</time><extensions><speed>1.086574</speed><course>116.725700</course><hAcc>0.863917</hAcc><vAcc>0.628205</vAcc></extensions></trkpt>
      <trkpt lon="-3.163148" lat="53.007953"><ele>274.321350</ele><time>2021-09-01T10:00:06Z</time><extensions><speed>1.097566</speed><course>116.725693</course><hAcc>0.862350</hAcc><vAcc>0.626879</vAcc></extensions></trkpt>
      <trkpt lon="-3.163153" lat="53.007962"><ele>274.341949</ele><time>2021-09-01T10:00:07Z</time><extensions><speed>1.108168</speed><course>116.725685</course><hAcc>0.860942</hAcc><vAcc>0.624984</vAcc></extensions></trkpt>
      <trkpt lon="-3.163159" lat="53.007972"><ele>274.358582</ele><time>2021-09-01T10:00:08Z</time><extensions><speed>1.117646</speed><course>116.725670</course><hAcc>0.859631</hAcc><vAcc>0.622560</vAcc></extensions></trkpt>
      <trkpt lon="-3.163165" lat="53.007981"><ele>274.371155</ele><time>2021-09-01T10:00:09Z</time><extensions><speed>1.125560</speed><course>116.725670</course><hAcc>0.858400</hAcc><vAcc>0.619757</vAcc></extensions></trkpt>
      <trkpt lon="-3.163171" lat="53.007991"><ele>274.379974</ele><time>2021-09-01T10:00:10Z</time><extensions><speed>1.132047</speed><course>116.725662</course><hAcc>0.857281</hAcc><vAcc>0.616851</vAcc></extensions></trkpt>
      <trkpt lon="-3.163177" lat="53.008000"><ele>274.385742</ele><time>2021-09-01T10:00:11Z</time><extensions><speed>1.137663</speed><course>316.510925</course><hAcc>0.856339</hAcc><vAcc>0.614204</vAcc></extensions></trkpt>
      <trkpt lon="-3.163184" lat="53.008010"><ele>274.389374</ele><time>2021-09-01T10:00:12Z</time><extensions><speed>1.143296</speed><course>325.771881</course><hAcc>0.855652</hAcc><vAcc>0.612169</vAcc></extensions></trkpt>
      <trkpt lon="-3.163190" lat="53.008019"><ele>274.391998</ele><time>2021-09-01T10:00:13Z</time><extensions><speed>1.149153</speed><course>329.412018</course><hAcc>0.855268</hAcc><vAcc>0.610989</vAcc></extensions></trkpt>
      <trkpt lon="-3.163196" lat="53.008029"><ele>274.395203</ele><time>2021-09-01T10:00:14Z</time><extensions><speed>1.155459</speed><course>328.807678</course><hAcc>0.855200</hAcc><vAcc>0.610757</vAcc></extensions></trkpt>
      <trkpt lon="-3.163201" lat="53.008039"><ele>274.401367</ele><time>2021-09-01T10:00:15Z</time><extensions><speed>1.162997</speed><course>328.238739</course><hAcc>0.855422</hAcc><vAcc>0.611428</vAcc></extensions></trkpt>
      <trkpt lon="-3.163206" lat="53.008049"><ele>274.412933</ele><time>2021-09-01T10:00:16Z</time><extensions><speed>1.171996</speed><course>328.754333</course><hAcc>0.855885</hAcc><vAcc>0.612865</vAcc></extensions></trkpt>
      <trkpt lon="-3.163211" lat="53.008059"><ele>274.431732</ele><time>2021-09-01T10:00:17Z</time><extensions><speed>1.181491</speed><course>321.291412</course><hAcc>0.856527</hAcc><vAcc>0.614875</vAcc></extensions></trkpt>
      <trkpt lon="-3.163215" lat="53.008069"><ele>274.459381</ele><time>2021-09-01T10:00:18Z</time><extensions><speed>1.189967</speed><course>315.163422</course><hAcc>0.857285</hAcc><vAcc>0.617256</vAcc></extensions></trkpt>
      <trkpt lon="-3.163219" lat="53.008080"><ele>274.497345</ele><time>2021-09-01T10:00:19Z</time><extensions><speed>1.196137</speed><course>320.356079</course><hAcc>0.858104</hAcc><vAcc>0.619831</vAcc></extensions></trkpt>
      <trkpt lon="-3.163222" lat="53.008090"><ele>274.546692</ele><time>2021-09-01T10:00:20Z</time><extensions><speed>1.198943</speed><course>314.759003</course><hAcc>0.858943</hAcc><vAcc>0.622462</vAcc></extensions></trkpt>
      <trkpt lon="-3.163225" lat="53.008101"><ele>274.608093</ele><time>2021-09-01T10:00:21Z</time><extensions><speed>1.197508</speed><course>306.430359</course><hAcc>0.859771</hAcc><vAcc>0.625056</vAcc></extensions></trkpt>
      <trkpt lon="-3.163227" lat="53.008112"><ele>274.681396</ele><time>2021-09-01T10:00:22Z</time><extensions><speed>1.191410</speed><course>312.642456</course><hAcc>0.860575</hAcc><vAcc>0.627566</vAcc></extensions></trkpt>
      <trkpt lon="-3.163229" lat="53.008122"><ele>274.765930</ele><time>2021-09-01T10:00:23Z</time><extensions><speed>1.180655</speed><course>309.329712</course><hAcc>0.861349</hAcc><vAcc>0.629978</vAcc></extensions></trkpt>
      <trkpt lon="-3.163230" lat="53.008133"><ele>274.860901</ele><time>2021-09-01T10:00:24Z</time><extensions><speed>1.165911</speed><course>306.517120</course><hAcc>0.862094</hAcc><vAcc>0.632301</vAcc></extensions></trkpt>
      <trkpt lon="-3.163231" lat="53.008143"><ele>274.965454</ele><time>2021-09-01T10:00:25Z</time><extensions><speed>1.148716</speed><course>302.169647</course><hAcc>0.862819</hAcc><vAcc>0.634567</vAcc></extensions></trkpt>
      <trkpt lon="-3.163232" lat="53.008153"><ele>275.078583</ele><time>2021-09-01T10:00:26Z</time><extensions><speed>1.130429</speed><course>299.953156</course><hAcc>0.863535</hAcc><vAcc>0.636819</vAcc></extensions></trkpt>
      <trkpt lon="-3.163232" lat="53.008163"><ele>275.199097</ele><time>2021-09-01T10:00:27Z</time><extensions><speed>1.112109</speed><course>299.473511</course><hAcc>0.864253</hAcc><vAcc>0.639091</vAcc></extensions></trkpt>
      <trkpt lon="-3.163232" lat="53.008173"><ele>275.325867</ele><time>2021-09-01T10:00:28Z</time><extensions><speed>1.094034</speed><course>298.103729</course><hAcc>0.864974</hAcc><vAcc>0.641388</vAcc></extensions></trkpt>
      <trkpt lon="-3.163231" lat="53.008183"><ele>275.458008</ele><time>2021-09-01T10:00:29Z</time><extensions><speed>1.075231</speed><course>294.101929</course><hAcc>0.865689</hAcc><vAcc>0.643670</vAcc></extensions></trkpt>
      <trkpt lon="-3.163230" lat="53.008193"><ele>275.595337</ele><time>2021-09-01T10:00:30Z</time><extensions><speed>1.054702</speed><course>298.669067</course><hAcc>0.866381</hAcc><vAcc>0.645873</vAcc></extensions></trkpt>
      <trkpt lon="-3.163229" lat="53.008202"><ele>275.737976</ele><time>2021-09-01T10:00:31Z</time><extensions><speed>1.032218</speed><course>297.460327</course><hAcc>0.867035</hAcc><vAcc>0.647944</vAcc></extensions></trkpt>
      <trkpt lon="-3.163227" lat="53.008211"><ele>275.886017</ele><time>2021-09-01T10:00:32Z</time><extensions><speed>1.007621</speed><course>300.643127</course><hAcc>0.867638</hAcc><vAcc>0.649842</vAcc></extensions></trkpt>
      <trkpt lon="-3.163225" lat="53.008220"><ele>276.039490</ele><time>2021-09-01T10:00:33Z</time><extensions><speed>0.981083</speed><course>300.762909</course><hAcc>0.868183</hAcc><vAcc>0.651542</vAcc></extensions></trkpt>
      <trkpt lon="-3.163223" lat="53.008229"><ele>276.197937</ele><time>2021-09-01T10:00:34Z</time><extensions><speed>0.953214</speed><course>306.221161</course><hAcc>0.868663</hAcc><vAcc>0.653028</vAcc></extensions></trkpt>
      <trkpt lon="-3.163221" lat="53.008237"><ele>276.360291</ele><time>2021-09-01T10:00:35Z</time><extensions><speed>0.924836</speed><course>311.753571</course><hAcc>0.869076</hAcc><vAcc>0.654298</vAcc></extensions></trkpt>
      <trkpt lon="-3.163219" lat="53.008245"><ele>276.524872</ele><time>2021-09-01T10:00:36Z</time><extensions><speed>0.897009</speed><course>314.039551</course><hAcc>0.869421</hAcc><vAcc>0.655359</vAcc></extensions></trkpt>
      <trkpt lon="-3.163217" lat="53.008253"><ele>276.689240</ele><time>2021-09-01T10:00:37Z</time><extensions><speed>0.871398</speed><course>316.125336</course><hAcc>0.869700</hAcc><vAcc>0.656220</vAcc></extensions></trkpt>
      <trkpt lon="-3.163216" lat="53.008261"><ele>276.850555</ele><time>2021-09-01T10:00:38Z</time><extensions><speed>0.849380</speed><course>313.054962</course><hAcc>0.869913</hAcc><vAcc>0.656888</vAcc></extensions></trkpt>
      <trkpt lon="-3.163215" lat="53.008268"><ele>277.006317</ele><time>2021-09-01T10:00:39Z</time><extensions><speed>0.830888</speed><course>309.718231</course><hAcc>0.870060</hAcc><vAcc>0.657360</vAcc></extensions></trkpt>
      <trkpt lon="-3.163214" lat="53.008276"><ele>277.154602</ele><time>2021-09-01T10:00:40Z</time><extensions><speed>0.815523</speed><course>315.993652</course><hAcc>0.870137</hAcc><vAcc>0.657624</vAcc></extensions></trkpt>
      <trkpt lon="-3.163213" lat="53.008283"><ele>277.294067</ele><time>2021-09-01T10:00:41Z</time><extensions><speed>0.803322</speed><course>314.639465</course><hAcc>0.870141</hAcc><vAcc>0.657664</vAcc></extensions></trkpt>
      <trkpt lon="-3.163213" lat="53.008290"><ele>277.423828</ele><time>2021-09-01T10:00:42Z</time><extensions><speed>0.794617</speed><course>314.699524</course><hAcc>0.870073</hAcc><vAcc>0.657472</vAcc></extensions></trkpt>
      <trkpt lon="-3.163213" lat="53.008297"><ele>277.543549</ele><time>2021-09-01T10:00:43Z</time><extensions><speed>0.789613</speed><course>315.537170</course><hAcc>0.869932</hAcc><vAcc>0.657041</vAcc></extensions></trkpt>
      <trkpt lon="-3.163213" lat="53.008304"><ele>277.653412</ele><time>2021-09-01T10:00:44Z</time><extensions><speed>0.787865</speed><course>315.384186</course><hAcc>0.869724</hAcc><vAcc>0.656374</vAcc></extensions></trkpt>
      <trkpt lon="-3.163213" lat="53.008311"><ele>277.754303</ele><time>2021-09-01T10:00:45Z</time><extensions><speed>0.788469</speed><course>316.068207</course><hAcc>0.869456</hAcc><vAcc>0.655489</vAcc></extensions></trkpt>
      <trkpt lon="-3.163213" lat="53.008318"><ele>277.847656</ele><time>2021-09-01T10:00:46Z</time><extensions><speed>0.790616</speed><course>319.526184</course><hAcc>0.869147</hAcc><vAcc>0.654442</vAcc></extensions></trkpt>
      <trkpt lon="-3.163214" lat="53.008325"><ele>277.935455</ele><time>2021-09-01T10:00:47Z</time><extensions><speed>0.793339</speed><course>322.032959</course><hAcc>0.868822</hAcc><vAcc>0.653320</vAcc></extensions></trkpt>
      <trkpt lon="-3.163214" lat="53.008333"><ele>278.019928</ele><time>2021-09-01T10:00:48Z</time><extensions><speed>0.795627</speed><course>326.209290</course><hAcc>0.868512</hAcc><vAcc>0.652234</vAcc></extensions></trkpt>
      <trkpt lon="-3.163213" lat="53.008340"><ele>278.102783</ele><time>2021-09-01T10:00:49Z</time><extensions><speed>0.797136</speed><course>324.142303</course><hAcc>0.868250</hAcc><vAcc>0.651303</vAcc></extensions></trkpt>
      <trkpt lon="-3.163213" lat="53.008347"><ele>278.185120</ele><time>2021-09-01T10:00:50Z</time><extensions><speed>0.798132</speed><course>332.193542</course><hAcc>0.868065</hAcc><vAcc>0.650638</vAcc></extensions></trkpt>
      <trkpt lon="-3.163212" lat="53.008354"><ele>278.267761</ele><time>2021-09-01T10:00:51Z</time><extensions><speed>0.798630</speed><course>329.558014</course><hAcc>0.867980</hAcc><vAcc>0.650321</vAcc></extensions></trkpt>
      <trkpt lon="-3.163210" lat="53.008361"><ele>278.351593</ele><time>2021-09-01T10:00:52Z</time><extensions><speed>0.798852</speed><course>323.309692</course><hAcc>0.868005</hAcc><vAcc>0.650392</vAcc></extensions></trkpt>
      <trkpt lon="-3.163209" lat="53.008368"><ele>278.437195</ele><time>2021-09-01T10:00:53Z</time><extensions><speed>0.799803</speed><course>319.992767</course><hAcc>0.868138</hAcc><vAcc>0.650847</vAcc></extensions></trkpt>
      <trkpt lon="-3.163207" lat="53.008375"><ele>278.525482</ele><time>2021-09-01T10:00:54Z</time><extensions><speed>0.801776</speed><course>322.539886</course><hAcc>0.868369</hAcc><vAcc>0.651649</vAcc></extensions></trkpt>
      <trkpt lon="-3.163204" lat="53.008382"><ele>278.617035</ele><time>2021-09-01T10:00:55Z</time><extensions><speed>0.804187</speed><course>317.532928</course><hAcc>0.868676</hAcc><vAcc>0.652728</vAcc></extensions></trkpt>
      <trkpt lon="-3.163202" lat="53.008390"><ele>278.711731</ele><time>2021-09-01T10:00:56Z</time><extensions><speed>0.806707</speed><course>314.725220</course><hAcc>0.869028</hAcc><vAcc>0.653976</vAcc></extensions></trkpt>
      <trkpt lon="-3.163199" lat="53.008397"><ele>278.808472</ele><time>2021-09-01T10:00:57Z</time><extensions><speed>0.809248</speed><course>325.463684</course><hAcc>0.869389</hAcc><vAcc>0.655267</vAcc></extensions></trkpt>
      <trkpt lon="-3.163197" lat="53.008404"><ele>278.905579</ele><time>2021-09-01T10:00:58Z</time><extensions><speed>0.812069</speed><course>326.490570</course><hAcc>0.869718</hAcc><vAcc>0.656465</vAcc></extensions></trkpt>
      <trkpt lon="-3.163195" lat="53.008411"><ele>279.000885</ele><time>2021-09-01T10:00:59Z</time><extensions><speed>0.816274</speed><course>316.111328</course><hAcc>0.869978</hAcc><vAcc>0.657438</vAcc></extensions></trkpt>
      <trkpt lon="-3.163193" lat="53.008418"><ele>279.091858</ele><time>2021-09-01T10:01:00Z</time><extensions><speed>0.823005</speed><course>316.470520</course><hAcc>0.870135</hAcc><vAcc>0.658069</vAcc></extensions></trkpt>
      <trkpt lon="-3.163192" lat="53.008426"><ele>279.176239</ele><time>2021-09-01T10:01:01Z</time><extensions><speed>0.832906</speed><course>317.921600</course><hAcc>0.870160</hAcc><vAcc>0.658252</vAcc></extensions></trkpt>
      <trkpt lon="-3.163192" lat="53.008433"><ele>279.252228</ele><time>2021-09-01T10:01:02Z</time><extensions><speed>0.846427</speed><course>317.925903</course><hAcc>0.870035</hAcc><vAcc>0.657914</vAcc></extensions></trkpt>
      <trkpt lon="-3.163192" lat="53.008441"><ele>279.318329</ele><time>2021-09-01T10:01:03Z</time><extensions><speed>0.863749</speed><course>316.840515</course><hAcc>0.869754</hAcc><vAcc>0.657030</vAcc></extensions></trkpt>
      <trkpt lon="-3.163193" lat="53.008449"><ele>279.373810</ele><time>2021-09-01T10:01:04Z</time><extensions><speed>0.884278</speed><course>321.987762</course><hAcc>0.869326</hAcc><vAcc>0.655632</vAcc></extensions></trkpt>
      <trkpt lon="-3.163195" lat="53.008457"><ele>279.418701</ele><time>2021-09-01T10:01:05Z</time><extensions><speed>0.906782</speed><course>314.291290</course><hAcc>0.868774</hAcc><vAcc>0.653803</vAcc></extensions></trkpt>
      <trkpt lon="-3.163198" lat="53.008465"><ele>279.454041</ele><time>2021-09-01T10:01:06Z</time><extensions><speed>0.929253</speed><course>311.665222</course><hAcc>0.868134</hAcc><vAcc>0.651663</vAcc></extensions></trkpt>
      <trkpt lon="-3.163202" lat="53.008473"><ele>279.481781</ele><time>2021-09-01T10:01:07Z</time><extensions><speed>0.949724</speed><course>315.645782</course><hAcc>0.867449</hAcc><vAcc>0.649360</vAcc></extensions></trkpt>
      <trkpt lon="-3.163206" lat="53.008481"><ele>279.504272</ele><time>2021-09-01T10:01:08Z</time><extensions><speed>0.967020</speed><course>312.390594</course><hAcc>0.866770</hAcc><vAcc>0.647066</vAcc></extensions></trkpt>
      <trkpt lon="-3.163211" lat="53.008489"><ele>279.524017</ele><time>2021-09-01T10:01:09Z</time><extensions><speed>0.980495</speed><course>315.968140</course><hAcc>0.866153</hAcc><vAcc>0.644973</vAcc></extensions></trkpt>
      <trkpt lon="-3.163216" lat="53.008498"><ele>279.543945</ele><time>2021-09-01T10:01:10Z</time><extensions><speed>0.989820</speed><course>305.843231</course><hAcc>0.865655</hAcc><vAcc>0.643273</vAcc></extensions></trkpt>
      <trkpt lon="-3.163222" lat="53.008506"><ele>279.566895</ele><time>2021-09-01T10:01:11Z</time><extensions><speed>0.994712</speed><course>307.428955</course><hAcc>0.865325</hAcc><vAcc>0.642139</vAcc></extensions></trkpt>
      <trkpt lon="-3.163227" lat="53.008514"><ele>279.594788</ele><time>2021-09-01T10:01:12Z</time><extensions><speed>0.995299</speed><course>303.591888</course><hAcc>0.865196</hAcc><vAcc>0.641688</vAcc></extensions></trkpt>
      <trkpt lon="-3.163232" lat="53.008523"><ele>279.628754</ele><time>2021-09-01T10:01:13Z</time><extensions><speed>0.991710</speed><course>302.311584</course><hAcc>0.865283</hAcc><vAcc>0.641960</vAcc></extensions></trkpt>
      <trkpt lon="-3.163237" lat="53.008531"><ele>279.669739</ele><time>2021-09-01T10:01:14Z</time><extensions><speed>0.984469</speed><course>296.010498</course><hAcc>0.865579</hAcc><vAcc>0.642934</vAcc></extensions></trkpt>
      <trkpt lon="-3.163242" lat="53.008539"><ele>279.718384</ele><time>2021-09-01T10:01:15Z</time><extensions><speed>0.974965</speed><course>298.597748</course><hAcc>0.866065</hAcc><vAcc>0.644538</vAcc></extensions></trkpt>
      <trkpt lon="-3.163246" lat="53.008548"><ele>279.774872</ele><time>2021-09-01T10:01:16Z</time><extensions><speed>0.965033</speed><course>307.419373</course><hAcc>0.866709</hAcc><vAcc>0.646661</vAcc></extensions></trkpt>
      <trkpt lon="-3.163249" lat="53.008556"><ele>279.838806</ele><time>2021-09-01T10:01:17Z</time><extensions><speed>0.956231</speed><course>311.127045</course><hAcc>0.867476</hAcc><vAcc>0.649180</vAcc></extensions></trkpt>
      <trkpt lon="-3.163252" lat="53.008564"><ele>279.909149</ele><time>2021-09-01T10:01:18Z</time><extensions><speed>0.949062</speed><course>308.779785</course><hAcc>0.868331</hAcc><vAcc>0.651973</vAcc></extensions></trkpt>
      <trkpt lon="-3.163254" lat="53.008573"><ele>279.984833</ele><time>2021-09-01T10:01:19Z</time><extensions><speed>0.943888</speed><course>310.817932</course><hAcc>0.869237</hAcc><vAcc>0.654922</vAcc></extensions></trkpt>
      <trkpt lon="-3.163255" lat="53.008581"><ele>280.064789</ele><time>2021-09-01T10:01:20Z</time><extensions><speed>0.941043</speed><course>313.903961</course><hAcc>0.870161</hAcc><vAcc>0.657912</vAcc></extensions></trkpt>
      <trkpt lon="-3.163256" lat="53.008590"><ele>280.148376</ele><time>2021-09-01T10:01:21Z</time><extensions><speed>0.940459</speed><course>312.113068</course><hAcc>0.871071</hAcc><vAcc>0.660845</vAcc></extensions></trkpt>
      <trkpt lon="-3.163257" lat="53.008598"><ele>280.235168</ele><time>2021-09-01T10:01:22Z</time><extensions><speed>0.941703</speed><course>298.693726</course><hAcc>0.871943</hAcc><vAcc>0.663632</vAcc></extensions></trkpt>
      <trkpt lon="-3.163257" lat="53.008607"><ele>280.325165</ele><time>2021-09-01T10:01:23Z</time><extensions><speed>0.943667</speed><course>304.126526</course><hAcc>0.872753</hAcc><vAcc>0.666200</vAcc></extensions></trkpt>
      <trkpt lon="-3.163256" lat="53.008615"><ele>280.418640</ele><time>2021-09-01T10:01:24Z</time><extensions><speed>0.945193</speed><course>307.202972</course><hAcc>0.873484</hAcc><vAcc>0.668491</vAcc></extensions></trkpt>
      <trkpt lon="-3.163255" lat="53.008624"><ele>280.516144</ele><time>2021-09-01T10:01:25Z</time><extensions><speed>0.945454</speed><course>306.849365</course><hAcc>0.874128</hAcc><vAcc>0.670480</vAcc></extensions></trkpt>
      <trkpt lon="-3.163253" lat="53.008632"><ele>280.618652</ele><time>2021-09-01T10:01:26Z</time><extensions><speed>0.944275</speed><course>311.228149</course><hAcc>0.874680</hAcc><vAcc>0.672166</vAcc></extensions></trkpt>
      <trkpt lon="-3.163251" lat="53.008640"><ele>280.727356</ele><time>2021-09-01T10:01:27Z</time><extensions><speed>0.941935</speed><course>314.984741</course><hAcc>0.875143</hAcc><vAcc>0.673561</vAcc></extensions></trkpt>
      <trkpt lon="-3.163248" lat="53.008649"><ele>280.843567</ele><time>2021-09-01T10:01:28Z</time><extensions><speed>0.939017</speed><course>312.149628</course><hAcc>0.875519</hAcc><vAcc>0.674680</vAcc></extensions></trkpt>
      <trkpt lon="-3.163245" lat="53.008657"><ele>280.968719</ele><time>2021-09-01T10:01:29Z</time><extensions><speed>0.936626</speed><course>303.811646</course><hAcc>0.875816</hAcc><vAcc>0.675544</vAcc></extensions></trkpt>
      <trkpt lon="-3.163241" lat="53.008665"><ele>281.104431</ele><time>2021-09-01T10:01:30Z</time><extensions><speed>0.936085</speed><course>306.939087</course><hAcc>0.876042</hAcc><vAcc>0.676181</vAcc></extensions></trkpt>
      <trkpt lon="-3.163237" lat="53.008673"><ele>281.251709</ele><time>2021-09-01T10:01:31Z</time><extensions><speed>0.938045</speed><course>305.149933</course><hAcc>0.876208</hAcc><vAcc>0.676625</vAcc></extensions></trkpt>
      <trkpt lon="-3.163232" lat="53.008681"><ele>281.410919</ele><time>2021-09-01T10:01:32Z</time><extensions><speed>0.942076</speed><course>307.460999</course><hAcc>0.876322</hAcc><vAcc>0.676909</vAcc></extensions></trkpt>
      <trkpt lon="-3.163228" lat="53.008689"><ele>281.582001</ele><time>2021-09-01T10:01:33Z</time><extensions><speed>0.947365</speed><course>310.556549</course><hAcc>0.876396</hAcc><vAcc>0.677069</vAcc></extensions></trkpt>
      <trkpt lon="-3.163223" lat="53.008697"><ele>281.764526</ele><time>2021-09-01T10:01:34Z</time><extensions><speed>0.953531</speed><course>316.643463</course><hAcc>0.876441</hAcc><vAcc>0.677144</vAcc></extensions></trkpt>
      <trkpt lon="-3.163218" lat="53.008705"><ele>281.957245</ele><time>2021-09-01T10:01:35Z</time><extensions><speed>0.960654</speed><course>310.111420</course><hAcc>0.876464</hAcc><vAcc>0.677171</vAcc></extensions></trkpt>
      <trkpt lon="-3.163212" lat="53.008713"><ele>282.158722</ele><time>2021-09-01T10:01:36Z</time><extensions><speed>0.969045</speed><course>309.394775</course><hAcc>0.876473</hAcc><vAcc>0.677174</vAcc></extensions></trkpt>
      <trkpt lon="-3.163207" lat="53.008721"><ele>282.367249</ele><time>2021-09-01T10:01:37Z</time><extensions><speed>0.978755</speed><course>312.734375</course><hAcc>0.876469</hAcc><vAcc>0.677169</vAcc></extensions></trkpt>
      <trkpt lon="-3.163202" lat="53.008730"><ele>282.581177</ele><time>2021-09-01T10:01:38Z</time><extensions><speed>0.989167</speed><course>307.110260</course><hAcc>0.876453</hAcc><vAcc>0.677155</vAcc></extensions></trkpt>
      <trkpt lon="-3.163196" lat="53.008738"><ele>282.799011</ele><time>2021-09-01T10:01:39Z</time><extensions><speed>0.999247</speed><course>304.794312</course><hAcc>0.876419</hAcc><vAcc>0.677116</vAcc></extensions></trkpt>
      <trkpt lon="-3.163191" lat="53.008746"><ele>283.019531</ele><time>2021-09-01T10:01:40Z</time><extensions><speed>1.008054</speed><course>309.669006</course><hAcc>0.876359</hAcc><vAcc>0.677021</vAcc></extensions></trkpt>
      <trkpt lon="-3.163186" lat="53.008755"><ele>283.241425</ele><time>2021-09-01T10:01:41Z</time><extensions><speed>1.015110</speed><course>309.747101</course><hAcc>0.876264</hAcc><vAcc>0.676827</vAcc></extensions></trkpt>
      <trkpt lon="-3.163181" lat="53.008763"><ele>283.463196</ele><time>2021-09-01T10:01:42Z</time><extensions><speed>1.020737</speed><course>308.451904</course><hAcc>0.876123</hAcc><vAcc>0.676486</vAcc></extensions></trkpt>
      <trkpt lon="-3.163176" lat="53.008772"><ele>283.683319</ele><time>2021-09-01T10:01:43Z</time><extensions><speed>1.025671</speed><course>313.674774</course><hAcc>0.875929</hAcc><vAcc>0.675953</vAcc></extensions></trkpt>
      <trkpt lon="-3.163172" lat="53.008781"><ele>283.900269</ele><time>2021-09-01T10:01:44Z</time><extensions><speed>1.030002</speed><course>310.174561</course><hAcc>0.875676</hAcc><vAcc>0.675200</vAcc></extensions></trkpt>
      <trkpt lon="-3.163167" lat="53.008790"><ele>284.113098</ele><time>2021-09-01T10:01:45Z</time><extensions><speed>1.033497</speed><course>312.894348</course><hAcc>0.875367</hAcc><vAcc>0.674219</vAcc></extensions></trkpt>
      <trkpt lon="-3.163163" lat="53.008799"><ele>284.321320</ele><time>2021-09-01T10:01:46Z</time><extensions><speed>1.036142</speed><course>309.740997</course><hAcc>0.875010</hAcc><vAcc>0.673031</vAcc></extensions></trkpt>
      <trkpt lon="-3.163159" lat="53.008808"><ele>284.524872</ele><time>2021-09-01T10:01:47Z</time><extensions><speed>1.037883</speed><course>309.271240</course><hAcc>0.874622</hAcc><vAcc>0.671694</vAcc></extensions></trkpt>
      <trkpt lon="-3.163155" lat="53.008817"><ele>284.724152</ele><time>2021-09-01T10:01:48Z</time><extensions><speed>1.038765</speed><course>309.840485</course><hAcc>0.874226</hAcc><vAcc>0.670300</vAcc></extensions></trkpt>
      <trkpt lon="-3.163150" lat="53.008826"><ele>284.920135</ele><time>2021-09-01T10:01:49Z</time><extensions><speed>1.039059</speed><course>308.054108</course><hAcc>0.873851</hAcc><vAcc>0.668955</vAcc></extensions></trkpt>
      <trkpt lon="-3.163146" lat="53.008835"><ele>285.114319</ele><time>2021-09-01T10:01:50Z</time><extensions><speed>1.039210</speed><course>306.226685</course><hAcc>0.873525</hAcc><vAcc>0.667769</vAcc></extensions></trkpt>
      <trkpt lon="-3.163141" lat="53.008844"><ele>285.308380</ele><time>2021-09-01T10:01:51Z</time><extensions><speed>1.039725</speed><course>316.211884</course><hAcc>0.873278</hAcc><vAcc>0.666849</vAcc></extensions></trkpt>
      <trkpt lon="-3.163136" lat="53.008852"><ele>285.503510</ele><time>2021-09-01T10:01:52Z</time><extensions><speed>1.041029</speed><course>312.798523</course><hAcc>0.873136</hAcc><vAcc>0.666300</vAcc></extensions></trkpt>
      <trkpt lon="-3.163131" lat="53.008861"><ele>285.700592</ele><time>2021-09-01T10:01:53Z</time><extensions><speed>1.043376</speed><course>314.823364</course><hAcc>0.873121</hAcc><vAcc>0.666204</vAcc></extensions></trkpt>
      <trkpt lon="-3.163126" lat="53.008870"><ele>285.899994</ele><time>2021-09-01T10:01:54Z</time><extensions><speed>1.046694</speed><course>317.560303</course><hAcc>0.873243</hAcc><vAcc>0.666607</vAcc></extensions></trkpt>
      <trkpt lon="-3.163120" lat="53.008879"><ele>286.101379</ele><time>2021-09-01T10:01:55Z</time><extensions><speed>1.050839</speed><course>313.870911</course><hAcc>0.873502</hAcc><vAcc>0.667503</vAcc></extensions></trkpt>
      <trkpt lon="-3.163113" lat="53.008887"><ele>286.304016</ele><time>2021-09-01T10:01:56Z</time><extensions><speed>1.055707</speed><course>320.858917</course><hAcc>0.873884</hAcc><vAcc>0.668831</vAcc></extensions></trkpt>
      <trkpt lon="-3.163107" lat="53.008896"><ele>286.507019</ele><time>2021-09-01T10:01:57Z</time><extensions><speed>1.060992</speed><course>322.110107</course><hAcc>0.874363</hAcc><vAcc>0.670487</vAcc></extensions></trkpt>
      <trkpt lon="-3.163099" lat="53.008905"><ele>286.709503</ele><time>2021-09-01T10:01:58Z</time><extensions><speed>1.065867</speed><course>322.258118</course><hAcc>0.874910</hAcc><vAcc>0.672351</vAcc></extensions></trkpt>
      <trkpt lon="-3.163092" lat="53.008913"><ele>286.910889</ele><time>2021-09-01T10:02:00Z</time><extensions><speed>1.068851</speed><course>323.751770</course><hAcc>0.875477</hAcc><vAcc>0.674286</vAcc></extensions></trkpt>
      <trkpt lon="-3.163085" lat="53.008922"><ele>287.109985</ele><time>2021-09-01T10:02:01Z</time><extensions><speed>1.068620</speed><course>311.017761</course><hAcc>0.876033</hAcc><vAcc>0.676180</vAcc></extensions></trkpt>
      <trkpt lon="-3.163077" lat="53.008930"><ele>287.306427</ele><time>2021-09-01T10:02:02Z</time><extensions><speed>1.065076</speed><course>303.134949</course><hAcc>0.876572</hAcc><vAcc>0.677966</vAcc></extensions></trkpt>
      <trkpt lon="-3.163070" lat="53.008938"><ele>287.499725</ele><time>2021-09-01T10:02:03Z</time><extensions><speed>1.058371</speed><course>305.266266</course><hAcc>0.877076</hAcc><vAcc>0.679595</vAcc></extensions></trkpt>
      <trkpt lon="-3.163062" lat="53.008947"><ele>287.689240</ele><time>2021-09-01T10:02:04Z</time><extensions><speed>1.048044</speed><course>306.244568</course><hAcc>0.877534</hAcc><vAcc>0.681044</vAcc></extensions></trkpt>
      <trkpt lon="-3.163055" lat="53.008955"><ele>287.874390</ele><time>2021-09-01T10:02:05Z</time><extensions><speed>1.033801</speed><course>311.028961</course><hAcc>0.877939</hAcc><vAcc>0.682310</vAcc></extensions></trkpt>
      <trkpt lon="-3.163048" lat="53.008963"><ele>288.054504</ele><time>2021-09-01T10:02:05Z</time><extensions><speed>1.016353</speed><course>304.990997</course><hAcc>0.878308</hAcc><vAcc>0.683417</vAcc></extensions></trkpt>
      <trkpt lon="-3.163041" lat="53.008971"><ele>288.229492</ele><time>2021-09-01T10:02:06Z</time><extensions><speed>0.996897</speed><course>305.619354</course><hAcc>0.878644</hAcc><vAcc>0.684380</vAcc></extensions></trkpt>
      <trkpt lon="-3.163035" lat="53.008979"><ele>288.398499</ele><time>2021-09-01T10:02:07Z</time><extensions><speed>0.976809</speed><course>319.038269</course><hAcc>0.878932</hAcc><vAcc>0.685207</vAcc></extensions></trkpt>
      <trkpt lon="-3.163029" lat="53.008987"><ele>288.560883</ele><time>2021-09-01T10:02:08Z</time><extensions><speed>0.957349</speed><course>314.772644</course><hAcc>0.879180</hAcc><vAcc>0.685918</vAcc></extensions></trkpt>
      <trkpt lon="-3.163023" lat="53.008995"><ele>288.716187</ele><time>2021-09-01T10:02:09Z</time><extensions><speed>0.938803</speed><course>314.865356</course><hAcc>0.879395</hAcc><vAcc>0.686537</vAcc></extensions></trkpt>
      <trkpt lon="-3.163018" lat="53.009003"><ele>288.864441</ele><time>2021-09-01T10:02:10Z</time><extensions><speed>0.921060</speed><course>315.584076</course><hAcc>0.879585</hAcc><vAcc>0.687082</vAcc></extensions></trkpt>
      <trkpt lon="-3.163013" lat="53.009010"><ele>289.006287</ele><time>2021-09-01T10:02:11Z</time><extensions><speed>0.904456</speed><course>318.301117</course><hAcc>0.879756</hAcc><vAcc>0.687571</vAcc></extensions></trkpt>
      <trkpt lon="-3.163008" lat="53.009018"><ele>289.142395</ele><time>2021-09-01T10:02:12Z</time><extensions><speed>0.890040</speed><course>308.957520</course><hAcc>0.879915</hAcc><vAcc>0.688022</vAcc></extensions></trkpt>
      <trkpt lon="-3.163003" lat="53.009025"><ele>289.273346</ele><time>2021-09-01T10:02:13Z</time><extensions><speed>0.878951</speed><course>309.679749</course><hAcc>0.880070</hAcc><vAcc>0.688453</vAcc></extensions></trkpt>
      <trkpt lon="-3.162998" lat="53.009032"><ele>289.399475</ele><time>2021-09-01T10:02:14Z</time><extensions><speed>0.871770</speed><course>315.508118</course><hAcc>0.880227</hAcc><vAcc>0.688889</vAcc></extensions></trkpt>
      <trkpt lon="-3.162993" lat="53.009040"><ele>289.521149</ele><time>2021-09-01T10:02:16Z</time><extensions><speed>0.868866</speed><course>315.740204</course><hAcc>0.880374</hAcc><vAcc>0.689344</vAcc></extensions></trkpt>
      <trkpt lon="-3.162989" lat="53.009047"><ele>289.638367</ele><time>2021-09-01T10:02:17Z</time><extensions><speed>0.870370</speed><course>310.654785</course><hAcc>0.880513</hAcc><vAcc>0.689836</vAcc></extensions></trkpt>
      <trkpt lon="-3.162984" lat="53.009054"><ele>289.751343</ele><time>2021-09-01T10:02:17Z</time><extensions><speed>0.875245</speed><course>314.784058</course><hAcc>0.880682</hAcc><vAcc>0.690399</vAcc></extensions></trkpt>
      <trkpt lon="-3.162979" lat="53.009062"><ele>289.860168</ele><time>2021-09-01T10:02:18Z</time><extensions><speed>0.882169</speed><course>306.836517</course><hAcc>0.880882</hAcc><vAcc>0.691032</vAcc></extensions></trkpt>
      <trkpt lon="-3.162975" lat="53.009069"><ele>289.964203</ele><time>2021-09-01T10:02:19Z</time><extensions><speed>0.891207</speed><course>319.014709</course><hAcc>0.881091</hAcc><vAcc>0.691711</vAcc></extensions></trkpt>
      <trkpt lon="-3.162970" lat="53.009077"><ele>290.062744</ele><time>2021-09-01T10:02:20Z</time><extensions><speed>0.903047</speed><course>316.668060</course><hAcc>0.881308</hAcc><vAcc>0.692418</vAcc></extensions></trkpt>
      <trkpt lon="-3.162965" lat="53.009084"><ele>290.154938</ele><time>2021-09-01T10:02:21Z</time><extensions><speed>0.917831</speed><course>317.381256</course><hAcc>0.881529</hAcc><vAcc>0.693139</vAcc></extensions></trkpt>
      <trkpt lon="-3.162960" lat="53.009092"><ele>290.240173</ele><time>2021-09-01T10:02:22Z</time><extensions><speed>0.935139</speed><course>315.522644</course><hAcc>0.881751</hAcc><vAcc>0.693864</vAcc></extensions></trkpt>
      <trkpt lon="-3.162955" lat="53.009100"><ele>290.318054</ele><time>2021-09-01T10:02:23Z</time><extensions><speed>0.954216</speed><course>313.748596</course><hAcc>0.881972</hAcc><vAcc>0.694588</vAcc></extensions></trkpt>
      <trkpt lon="-3.162950" lat="53.009108"><ele>290.388458</ele><time>2021-09-01T10:02:24Z</time><extensions><speed>0.974451</speed><course>311.298676</course><hAcc>0.882188</hAcc><vAcc>0.695297</vAcc></extensions></trkpt>
      <trkpt lon="-3.162945" lat="53.009116"><ele>290.451569</ele><time>2021-09-01T10:02:25Z</time><extensions><speed>0.995436</speed><course>307.453308</course><hAcc>0.882396</hAcc><vAcc>0.695977</vAcc></extensions></trkpt>
      <trkpt lon="-3.162940" lat="53.009125"><ele>290.508209</ele><time>2021-09-01T10:02:26Z</time><extensions><speed>1.016589</speed><course>308.937561</course><hAcc>0.882592</hAcc><vAcc>0.696611</vAcc></extensions></trkpt>
      <trkpt lon="-3.162935" lat="53.009134"><ele>290.559631</ele><time>2021-09-01T10:02:27Z</time><extensions><speed>1.038159</speed><course>304.505646</course><hAcc>0.882775</hAcc><vAcc>0.697189</vAcc></extensions></trkpt>
      <trkpt lon="-3.162929" lat="53.009143"><ele>290.607269</ele><time>2021-09-01T10:02:28Z</time><extensions><speed>1.060992</speed><course>299.094574</course><hAcc>0.882943</hAcc><vAcc>0.697708</vAcc></extensions></trkpt>
      <trkpt lon="-3.162924" lat="53.009152"><ele>290.652710</ele><time>2021-09-01T10:02:29Z</time><extensions><speed>1.085168</speed><course>310.704071</course><hAcc>0.883096</hAcc><vAcc>0.698173</vAcc></extensions></trkpt>
      <trkpt lon="-3.162919" lat="53.009161"><ele>290.697632</ele><time>2021-09-01T10:02:30Z</time><extensions><speed>1.110332</speed><course>308.713898</course><hAcc>0.883235</hAcc><vAcc>0.698589</vAcc></extensions></trkpt>
      <trkpt lon="-3.162914" lat="53.009171"><ele>290.743591</ele><time>2021-09-01T10:02:31Z</time><extensions><speed>1.136377</speed><course>315.990417</course><hAcc>0.883359</hAcc><vAcc>0.698964</vAcc></extensions></trkpt>
      <trkpt lon="-3.162908" lat="53.009180"><ele>290.791870</ele><time>2021-09-01T10:02:32Z</time><extensions><speed>1.163378</speed><course>316.941956</course><hAcc>0.883470</hAcc><vAcc>0.699302</vAcc></extensions></trkpt>
      <trkpt lon="-3.162902" lat="53.009190"><ele>290.843262</ele><time>2021-09-01T10:02:33Z</time><extensions><speed>1.191164</speed><course>326.025696</course><hAcc>0.883567</hAcc><vAcc>0.699604</vAcc></extensions></trkpt>
      <trkpt lon="-3.162896" lat="53.009200"><ele>290.898193</ele><time>2021-09-01T10:02:34Z</time><extensions><speed>1.219155</speed><course>316.997101</course><hAcc>0.883651</hAcc><vAcc>0.699871</vAcc></extensions></trkpt>
      <trkpt lon="-3.162889" lat="53.009211"><ele>290.956757</ele><time>2021-09-01T10:02:35Z</time><extensions><speed>1.246450</speed><course>307.396637</course><hAcc>0.883722</hAcc><vAcc>0.700103</vAcc></extensions></trkpt>
      <trkpt lon="-3.162883" lat="53.009221"><ele>291.019257</ele><time>2021-09-01T10:02:36Z</time><extensions><speed>1.271847</speed><course>307.245117</course><hAcc>0.883779</hAcc><vAcc>0.700300</vAcc></extensions></trkpt>
      <trkpt lon="-3.162875" lat="53.009232"><ele>291.086212</ele><time>2021-09-01T10:02:37Z</time><extensions><speed>1.294267</speed><course>302.943970</course><hAcc>0.883821</hAcc><vAcc>0.700458</vAcc></extensions></trkpt>
      <trkpt lon="-3.162868" lat="53.009243"><ele>291.157654</ele><time>2021-09-01T10:02:38Z</time><extensions><speed>1.312911</speed><course>310.986115</course><hAcc>0.883846</hAcc><vAcc>0.700571</vAcc></extensions></trkpt>
      <trkpt lon="-3.162860" lat="53.009254"><ele>291.232971</ele><time>2021-09-01T10:02:39Z</time><extensions><speed>1.326936</speed><course>317.229156</course><hAcc>0.883855</hAcc><vAcc>0.700630</vAcc></extensions></trkpt>
      <trkpt lon="-3.162852" lat="53.009265"><ele>291.311035</ele><time>2021-09-01T10:02:40Z</time><extensions><speed>1.335545</speed><course>310.287506</course><hAcc>0.883847</hAcc><vAcc>0.700625</vAcc></extensions></trkpt>
      <trkpt lon="-3.162843" lat="53.009275"><ele>291.390442</ele><time>2021-09-01T10:02:41Z</time><extensions><speed>1.338848</speed><course>314.657898</course><hAcc>0.883821</hAcc><vAcc>0.700548</vAcc></extensions></trkpt>
      <trkpt lon="-3.162835" lat="53.009286"><ele>291.469849</ele><time>2021-09-01T10:02:42Z</time><extensions><speed>1.337332</speed><course>316.163879</course><hAcc>0.883780</hAcc><vAcc>0.700396</vAcc></extensions></trkpt>
      <trkpt lon="-3.162827" lat="53.009297"><ele>291.548370</ele><time>2021-09-01T10:02:43Z</time><extensions><speed>1.331320</speed><course>315.280670</course><hAcc>0.883725</hAcc><vAcc>0.700176</vAcc></extensions></trkpt>
      <trkpt lon="-3.162819" lat="53.009308"><ele>291.624969</ele><time>2021-09-01T10:02:44Z</time><extensions><speed>1.321349</speed><course>323.358459</course><hAcc>0.883659</hAcc><vAcc>0.699910</vAcc></extensions></trkpt>
      <trkpt lon="-3.162812" lat="53.009319"><ele>291.698303</ele><time>2021-09-01T10:02:45Z</time><extensions><speed>1.307950</speed><course>323.478973</course><hAcc>0.883586</hAcc><vAcc>0.699621</vAcc></extensions></trkpt>
      <trkpt lon="-3.162804" lat="53.009330"><ele>291.766846</ele><time>2021-09-01T10:02:46Z</time><extensions><speed>1.291171</speed><course>327.884216</course><hAcc>0.883509</hAcc><vAcc>0.699332</vAcc></extensions></trkpt>
      <trkpt lon="-3.162797" lat="53.009341"><ele>291.829376</ele><time>2021-09-01T10:02:47Z</time><extensions><speed>1.270616</speed><course>318.187775</course><hAcc>0.883433</hAcc><vAcc>0.699058</vAcc></extensions></trkpt>
      <trkpt lon="-3.162791" lat="53.009351"><ele>291.885620</ele><time>2021-09-01T10:02:48Z</time><extensions><speed>1.246661</speed><course>318.936035</course><hAcc>0.883359</hAcc><vAcc>0.698805</vAcc></extensions></trkpt>
      <trkpt lon="-3.162785" lat="53.009362"><ele>291.936096</ele><time>2021-09-01T10:02:49Z</time><extensions><speed>1.220238</speed><course>326.780121</course><hAcc>0.883289</hAcc><vAcc>0.698579</vAcc></extensions></trkpt>
      <trkpt lon="-3.162779" lat="53.009372"><ele>291.981812</ele><time>2021-09-01T10:02:50Z</time><extensions><speed>1.192172</speed><course>314.218445</course><hAcc>0.883223</hAcc><vAcc>0.698378</vAcc></extensions></trkpt>
      <trkpt lon="-3.162774" lat="53.009382"><ele>292.024170</ele><time>2021-09-01T10:02:51Z</time><extensions><speed>1.162955</speed><course>317.554047</course><hAcc>0.883161</hAcc><vAcc>0.698198</vAcc></extensions></trkpt>
      <trkpt lon="-3.162769" lat="53.009392"><ele>292.064941</ele><time>2021-09-01T10:02:52Z</time><extensions><speed>1.132780</speed><course>317.225586</course><hAcc>0.883100</hAcc><vAcc>0.698032</vAcc></extensions></trkpt>
      <trkpt lon="-3.162764" lat="53.009402"><ele>292.106171</ele><time>2021-09-01T10:02:53Z</time><extensions><speed>1.101789</speed><course>318.371796</course><hAcc>0.883036</hAcc><vAcc>0.697867</vAcc></extensions></trkpt>
      <trkpt lon="-3.162759" lat="53.009411"><ele>292.149963</ele><time>2021-09-01T10:02:54Z</time><extensions><speed>1.070288</speed><course>319.534454</course><hAcc>0.882966</hAcc><vAcc>0.697690</vAcc></extensions></trkpt>
      <trkpt lon="-3.162754" lat="53.009420"><ele>292.198334</ele><time>2021-09-01T10:02:55Z</time><extensions><speed>1.039356</speed><course>319.948578</course><hAcc>0.882885</hAcc><vAcc>0.697488</vAcc></extensions></trkpt>
      <trkpt lon="-3.162749" lat="53.009429"><ele>292.253326</ele><time>2021-09-01T10:02:56Z</time><extensions><speed>1.010589</speed><course>326.867279</course><hAcc>0.882787</hAcc><vAcc>0.697239</vAcc></extensions></trkpt>
      <trkpt lon="-3.162743" lat="53.009437"><ele>292.317017</ele><time>2021-09-01T10:02:57Z</time><extensions><speed>0.985570</speed><course>319.995087</course><hAcc>0.882668</hAcc><vAcc>0.696922</vAcc></extensions></trkpt>
      <trkpt lon="-3.162737" lat="53.009445"><ele>292.391998</ele><time>2021-09-01T10:02:58Z</time><extensions><speed>0.965015</speed><course>323.754486</course><hAcc>0.882522</hAcc><vAcc>0.696515</vAcc></extensions></trkpt>
      <trkpt lon="-3.162730" lat="53.009452"><ele>292.480804</ele><time>2021-09-01T10:02:59Z</time><extensions><speed>0.948338</speed><course>327.994751</course><hAcc>0.882345</hAcc><vAcc>0.695996</vAcc></extensions></trkpt>
      <trkpt lon="-3.162722" lat="53.009459"><ele>292.585663</ele><time>2021-09-01T10:03:00Z</time><extensions><speed>0.934908</speed><course>338.740143</course><hAcc>0.882137</hAcc><vAcc>0.695354</vAcc></extensions></trkpt>
      <trkpt lon="-3.162714" lat="53.009466"><ele>292.708405</ele><time>2021-09-01T10:03:01Z</time><extensions><speed>0.923879</speed><course>336.648224</course><hAcc>0.881896</hAcc><vAcc>0.694585</vAcc></extensions></trkpt>
      <trkpt lon="-3.162705" lat="53.009473"><ele>292.849976</ele><time>2021-09-01T10:03:02Z</time><extensions><speed>0.914062</speed><course>335.818359</course><hAcc>0.881626</hAcc><vAcc>0.693697</vAcc></extensions></trkpt>
      <trkpt lon="-3.162696" lat="53.009479"><ele>293.010498</ele><time>2021-09-01T10:03:03Z</time><extensions><speed>0.904684</speed><course>332.183533</course><hAcc>0.881332</hAcc><vAcc>0.692708</vAcc></extensions></trkpt>
      <trkpt lon="-3.162687" lat="53.009484"><ele>293.188873</ele><time>2021-09-01T10:03:04Z</time><extensions><speed>0.895611</speed><course>329.123840</course><hAcc>0.881021</hAcc><vAcc>0.691645</vAcc></extensions></trkpt>
      <trkpt lon="-3.162677" lat="53.009490"><ele>293.382935</ele><time>2021-09-01T10:03:05Z</time><extensions><speed>0.887201</speed><course>331.386230</course><hAcc>0.880701</hAcc><vAcc>0.690542</vAcc></extensions></trkpt>
      <trkpt lon="-3.162667" lat="53.009495"><ele>293.589508</ele><time>2021-09-01T10:03:06Z</time><extensions><speed>0.879842</speed><course>327.161377</course><hAcc>0.880383</hAcc><vAcc>0.689436</vAcc></extensions></trkpt>
      <trkpt lon="-3.162658" lat="53.009500"><ele>293.804993</ele><time>2021-09-01T10:03:07Z</time><extensions><speed>0.873953</speed><course>327.868042</course><hAcc>0.880076</hAcc><vAcc>0.688367</vAcc></extensions></trkpt>
      <trkpt lon="-3.162648" lat="53.009505"><ele>294.025696</ele><time>2021-09-01T10:03:08Z</time><extensions><speed>0.869691</speed><course>323.627838</course><hAcc>0.879791</hAcc><vAcc>0.687373</vAcc></extensions></trkpt>
      <trkpt lon="-3.162638" lat="53.009510"><ele>294.248230</ele><time>2021-09-01T10:03:09Z</time><extensions><speed>0.867128</speed><course>324.612000</course><hAcc>0.879537</hAcc><vAcc>0.686490</vAcc></extensions></trkpt>
      <trkpt lon="-3.162628" lat="53.009515"><ele>294.469879</ele><time>2021-09-01T10:03:10Z</time><extensions><speed>0.866023</speed><course>314.250275</course><hAcc>0.879319</hAcc><vAcc>0.685747</vAcc></extensions></trkpt>
      <trkpt lon="-3.162618" lat="53.009520"><ele>294.689117</ele><time>2021-09-01T10:03:12Z</time><extensions><speed>0.866176</speed><course>324.325928</course><hAcc>0.879124</hAcc><vAcc>0.685142</vAcc></extensions></trkpt>
      <trkpt lon="-3.162608" lat="53.009525"><ele>294.904175</ele><time>2021-09-01T10:03:13Z</time><extensions><speed>0.868279</speed><course>323.620239</course><hAcc>0.878950</hAcc><vAcc>0.684666</vAcc></extensions></trkpt>
      <trkpt lon="-3.162598" lat="53.009531"><ele>295.114136</ele><time>2021-09-01T10:03:14Z</time><extensions><speed>0.873032</speed><course>318.647095</course><hAcc>0.878810</hAcc><vAcc>0.684309</vAcc></extensions></trkpt>
      <trkpt lon="-3.162589" lat="53.009536"><ele>295.318146</ele><time>2021-09-01T10:03:15Z</time><extensions><speed>0.880131</speed><course>325.356964</course><hAcc>0.878698</hAcc><vAcc>0.684040</vAcc></extensions></trkpt>
      <trkpt lon="-3.162579" lat="53.009541"><ele>295.515869</ele><time>2021-09-01T10:03:16Z</time><extensions><speed>0.888519</speed><course>319.826599</course><hAcc>0.878608</hAcc><vAcc>0.683828</vAcc></extensions></trkpt>
      <trkpt lon="-3.162570" lat="53.009547"><ele>295.707672</ele><time>2021-09-01T10:03:17Z</time><extensions><speed>0.897047</speed><course>314.735016</course><hAcc>0.878533</hAcc><vAcc>0.683641</vAcc></extensions></trkpt>
      <trkpt lon="-3.162560" lat="53.009553"><ele>295.894440</ele><time>2021-09-01T10:03:18Z</time><extensions><speed>0.905261</speed><course>309.478760</course><hAcc>0.878468</hAcc><vAcc>0.683461</vAcc></extensions></trkpt>
      <trkpt lon="-3.162551" lat="53.009559"><ele>296.077057</ele><time>2021-09-01T10:03:19Z</time><extensions><speed>0.912592</speed><course>319.543488</course><hAcc>0.878412</hAcc><vAcc>0.683278</vAcc></extensions></trkpt>
      <trkpt lon="-3.162541" lat="53.009564"><ele>296.256195</ele><time>2021-09-01T10:03:20Z</time><extensions><speed>0.918202</speed><course>324.087982</course><hAcc>0.878364</hAcc><vAcc>0.683100</vAcc></extensions></trkpt>
      <trkpt lon="-3.162532" lat="53.009571"><ele>296.432190</ele><time>2021-09-01T10:03:21Z</time><extensions><speed>0.922035</speed><course>317.628326</course><hAcc>0.878328</hAcc><vAcc>0.682945</vAcc></extensions></trkpt>
      <trkpt lon="-3.162523" lat="53.009577"><ele>296.605011</ele><time>2021-09-01T10:03:22Z</time><extensions><speed>0.924386</speed><course>311.843903</course><hAcc>0.878308</hAcc><vAcc>0.682836</vAcc></extensions></trkpt>
      <trkpt lon="-3.162514" lat="53.009583"><ele>296.774231</ele><time>2021-09-01T10:03:23Z</time><extensions><speed>0.926030</speed><course>320.026215</course><hAcc>0.878306</hAcc><vAcc>0.682795</vAcc></extensions></trkpt>
      <trkpt lon="-3.162506" lat="53.009590"><ele>296.938721</ele><time>2021-09-01T10:03:24Z</time><extensions><speed>0.928445</speed><course>320.448669</course><hAcc>0.878328</hAcc><vAcc>0.682836</vAcc></extensions></trkpt>
      <trkpt lon="-3.162498" lat="53.009597"><ele>297.096954</ele><time>2021-09-01T10:03:25Z</time><extensions><speed>0.933270</speed><course>324.626526</course><hAcc>0.878375</hAcc><vAcc>0.682970</vAcc></extensions></trkpt>
      <trkpt lon="-3.162490" lat="53.009604"><ele>297.247192</ele><time>2021-09-01T10:03:26Z</time><extensions><speed>0.941991</speed><course>326.167938</course><hAcc>0.878450</hAcc><vAcc>0.683204</vAcc></extensions></trkpt>
      <trkpt lon="-3.162483" lat="53.009611"><ele>297.387543</ele><time>2021-09-01T10:03:27Z</time><extensions><speed>0.955528</speed><course>325.390656</course><hAcc>0.878551</hAcc><vAcc>0.683536</vAcc></extensions></trkpt>
      <trkpt lon="-3.162476" lat="53.009619"><ele>297.516449</ele><time>2021-09-01T10:03:28Z</time><extensions><speed>0.974325</speed><course>314.974457</course><hAcc>0.878677</hAcc><vAcc>0.683962</vAcc></extensions></trkpt>
      <trkpt lon="-3.162470" lat="53.009627"><ele>297.632843</ele><time>2021-09-01T10:03:29Z</time><extensions><speed>0.998176</speed><course>325.724579</course><hAcc>0.878826</hAcc><vAcc>0.684470</vAcc></extensions></trkpt>
      <trkpt lon="-3.162464" lat="53.009635"><ele>297.736359</ele><time>2021-09-01T10:03:30Z</time><extensions><speed>1.026078</speed><course>318.034210</course><hAcc>0.878992</hAcc><vAcc>0.685042</vAcc></extensions></trkpt>
      <trkpt lon="-3.162458" lat="53.009644"><ele>297.827057</ele><time>2021-09-01T10:03:31Z</time><extensions><speed>1.056320</speed><course>313.475250</course><hAcc>0.879169</hAcc><vAcc>0.685655</vAcc></extensions></trkpt>
      <trkpt lon="-3.162452" lat="53.009653"><ele>297.905426</ele><time>2021-09-01T10:03:32Z</time><extensions><speed>1.086967</speed><course>321.089203</course><hAcc>0.879352</hAcc><vAcc>0.686286</vAcc></extensions></trkpt>
      <trkpt lon="-3.162447" lat="53.009662"><ele>297.972076</ele><time>2021-09-01T10:03:33Z</time><extensions><speed>1.116022</speed><course>329.810181</course><hAcc>0.879534</hAcc><vAcc>0.686910</vAcc></extensions></trkpt>
      <trkpt lon="-3.162441" lat="53.009671"><ele>298.028168</ele><time>2021-09-01T10:03:34Z</time><extensions><speed>1.141836</speed><course>327.314850</course><hAcc>0.879709</hAcc><vAcc>0.687500</vAcc></extensions></trkpt>
      <trkpt lon="-3.162435" lat="53.009681"><ele>298.075439</ele><time>2021-09-01T10:03:35Z</time><extensions><speed>1.164067</speed><course>321.503876</course><hAcc>0.879872</hAcc><vAcc>0.688036</vAcc></extensions></trkpt>
      <trkpt lon="-3.162429" lat="53.009691"><ele>298.115906</ele><time>2021-09-01T10:03:36Z</time><extensions><speed>1.182759</speed><course>323.534607</course><hAcc>0.880020</hAcc><vAcc>0.688503</vAcc></extensions></trkpt>
      <trkpt lon="-3.162423" lat="53.009701"><ele>298.151184</ele><time>2021-09-01T10:03:37Z</time><extensions><speed>1.197722</speed><course>325.158722</course><hAcc>0.880152</hAcc><vAcc>0.688902</vAcc></extensions></trkpt>
      <trkpt lon="-3.162417" lat="53.009711"><ele>298.182587</ele><time>2021-09-01T10:03:38Z</time><extensions><speed>1.209180</speed><course>329.447083</course><hAcc>0.880266</hAcc><vAcc>0.689241</vAcc></extensions></trkpt>
      <trkpt lon="-3.162411" lat="53.009722"><ele>298.211304</ele><time>2021-09-01T10:03:39Z</time><extensions><speed>1.218058</speed><course>331.191650</course><hAcc>0.880365</hAcc><vAcc>0.689532</vAcc></extensions></trkpt>
      <trkpt lon="-3.162405" lat="53.009732"><ele>298.238159</ele><time>2021-09-01T10:03:40Z</time><extensions><speed>1.224748</speed><course>334.557068</course><hAcc>0.880450</hAcc><vAcc>0.689783</vAcc></extensions></trkpt>
      <trkpt lon="-3.162398" lat="53.009742"><ele>298.263458</ele><time>2021-09-01T10:03:41Z</time><extensions><speed>1.228977</speed><course>336.690918</course><hAcc>0.880522</hAcc><vAcc>0.689996</vAcc></extensions></trkpt>
      <trkpt lon="-3.162391" lat="53.009752"><ele>298.287231</ele><time>2021-09-01T10:03:42Z</time><extensions><speed>1.230737</speed><course>337.183258</course><hAcc>0.880583</hAcc><vAcc>0.690172</vAcc></extensions></trkpt>
      <trkpt lon="-3.162384" lat="53.009763"><ele>298.309753</ele><time>2021-09-01T10:03:43Z</time><extensions><speed>1.230069</speed><course>318.997711</course><hAcc>0.880633</hAcc><vAcc>0.690317</vAcc></extensions></trkpt>
      <trkpt lon="-3.162376" lat="53.009773"><ele>298.331543</ele><time>2021-09-01T10:03:44Z</time><extensions><speed>1.227094</speed><course>315.791901</course><hAcc>0.880675</hAcc><vAcc>0.690439</vAcc></extensions></trkpt>
      <trkpt lon="-3.162369" lat="53.009783"><ele>298.353485</ele><time>2021-09-01T10:03:45Z</time><extensions><speed>1.222255</speed><course>315.791901</course><hAcc>0.880711</hAcc><vAcc>0.690545</vAcc></extensions></trkpt>
      <trkpt lon="-3.162361" lat="53.009793"><ele>298.376221</ele><time>2021-09-01T10:03:46Z</time><extensions><speed>1.215973</speed><course>315.791901</course><hAcc>0.880742</hAcc><vAcc>0.690640</vAcc></extensions></trkpt>
      <trkpt lon="-3.162353" lat="53.009802"><ele>298.400269</ele><time>2021-09-01T10:03:47Z</time><extensions><speed>1.208804</speed><course>315.791901</course><hAcc>0.880768</hAcc><vAcc>0.690723</vAcc></extensions></trkpt>
      <trkpt lon="-3.162345" lat="53.009812"><ele>298.426117</ele><time>2021-09-01T10:03:48Z</time><extensions><speed>1.201416</speed><course>315.791901</course><hAcc>0.880790</hAcc><vAcc>0.690796</vAcc></extensions></trkpt>
      <trkpt lon="-3.162337" lat="53.009822"><ele>298.453796</ele><time>2021-09-01T10:03:49Z</time><extensions><speed>1.193990</speed><course>315.791901</course><hAcc>0.880808</hAcc><vAcc>0.690856</vAcc></extensions></trkpt>
      <trkpt lon="-3.162329" lat="53.009831"><ele>298.482971</ele><time>2021-09-01T10:03:50Z</time><extensions><speed>1.186488</speed><course>315.791901</course><hAcc>0.880822</hAcc><vAcc>0.690903</vAcc></extensions></trkpt>
      <trkpt lon="-3.162321" lat="53.009841"><ele>298.513550</ele><time>2021-09-01T10:03:51Z</time><extensions><speed>1.178913</speed><course>315.791901</course><hAcc>0.880833</hAcc><vAcc>0.690934</vAcc></extensions></trkpt>
      <trkpt lon="-3.162313" lat="53.009850"><ele>298.545593</ele><time>2021-09-01T10:03:52Z</time><extensions><speed>1.171242</speed><course>315.791901</course><hAcc>0.880841</hAcc><vAcc>0.690951</vAcc></extensions></trkpt>
      <trkpt lon="-3.162305" lat="53.009859"><ele>298.579529</ele><time>2021-09-01T10:03:53Z</time><extensions><speed>1.164052</speed><course>315.791901</course><hAcc>0.880846</hAcc><vAcc>0.690957</vAcc></extensions></trkpt>
      <trkpt lon="-3.162297" lat="53.009869"><ele>298.615723</ele><time>2021-09-01T10:03:54Z</time><extensions><speed>1.158248</speed><course>315.791901</course><hAcc>0.880849</hAcc><vAcc>0.690957</vAcc></extensions></trkpt>
      <trkpt lon="-3.162289" lat="53.009878"><ele>298.654388</ele><time>2021-09-01T10:03:55Z</time><extensions><speed>1.154172</speed><course>315.791901</course><hAcc>0.880848</hAcc><vAcc>0.690957</vAcc></extensions></trkpt>
      <trkpt lon="-3.162281" lat="53.009887"><ele>298.695312</ele><time>2021-09-01T10:03:56Z</time><extensions><speed>1.151829</speed><course>315.791901</course><hAcc>0.880846</hAcc><vAcc>0.690959</vAcc></extensions></trkpt>
      <trkpt lon="-3.162273" lat="53.009896"><ele>298.738007</ele><time>2021-09-01T10:03:57Z</time><extensions><speed>1.151092</speed><course>315.791901</course><hAcc>0.880839</hAcc><vAcc>0.690959</vAcc></extensions></trkpt>
      <trkpt lon="-3.162265" lat="53.009905"><ele>298.782013</ele><time>2021-09-01T10:03:58Z</time><extensions><speed>1.152129</speed><course>315.791901</course><hAcc>0.880826</hAcc><vAcc>0.690946</vAcc></extensions></trkpt>
      <trkpt lon="-3.162257" lat="53.009914"><ele>298.827454</ele><time>2021-09-01T10:03:59Z</time><extensions><speed>1.155430</speed><course>324.368835</course><hAcc>0.880805</hAcc><vAcc>0.690906</vAcc></extensions></trkpt>
      <trkpt lon="-3.162248" lat="53.009923"><ele>298.875305</ele><time>2021-09-01T10:04:00Z</time><extensions><speed>1.160648</speed><course>336.936340</course><hAcc>0.880775</hAcc><vAcc>0.690826</vAcc></extensions></trkpt>
      <trkpt lon="-3.162240" lat="53.009933"><ele>298.927612</ele><time>2021-09-01T10:04:01Z</time><extensions><speed>1.166908</speed><course>334.067902</course><hAcc>0.880733</hAcc><vAcc>0.690699</vAcc></extensions></trkpt>
      <trkpt lon="-3.162231" lat="53.009942"><ele>298.986908</ele><time>2021-09-01T10:04:02Z</time><extensions><speed>1.174099</speed><course>335.500000</course><hAcc>0.880679</hAcc><vAcc>0.690525</vAcc></extensions></trkpt>
      <trkpt lon="-3.162223" lat="53.009951"><ele>299.054779</ele><time>2021-09-01T10:04:03Z</time><extensions><speed>1.182802</speed><course>331.822205</course><hAcc>0.880614</hAcc><vAcc>0.690310</vAcc></extensions></trkpt>
      <trkpt lon="-3.162214" lat="53.009960"><ele>299.131836</ele><time>2021-09-01T10:04:04Z</time><extensions><speed>1.193286</speed><course>332.566284</course><hAcc>0.880539</hAcc><vAcc>0.690058</vAcc></extensions></trkpt>
      <trkpt lon="-3.162205" lat="53.009970"><ele>299.218323</ele><time>2021-09-01T10:04:05Z</time><extensions><speed>1.205144</speed><course>322.442413</course><hAcc>0.880454</hAcc><vAcc>0.689775</vAcc></extensions></trkpt>
      <trkpt lon="-3.162197" lat="53.009979"><ele>299.314453</ele><time>2021-09-01T10:04:06Z</time><extensions><speed>1.217878</speed><course>328.923309</course><hAcc>0.880360</hAcc><vAcc>0.689467</vAcc></extensions></trkpt>
      <trkpt lon="-3.162188" lat="53.009989"><ele>299.419891</ele><time>2021-09-01T10:04:07Z</time><extensions><speed>1.231138</speed><course>332.979462</course><hAcc>0.880261</hAcc><vAcc>0.689139</vAcc></extensions></trkpt>
      <trkpt lon="-3.162179" lat="53.009999"><ele>299.533722</ele><time>2021-09-01T10:04:08Z</time><extensions><speed>1.244259</speed><course>326.583588</course><hAcc>0.880157</hAcc><vAcc>0.688798</vAcc></extensions></trkpt>
      <trkpt lon="-3.162170" lat="53.010009"><ele>299.654358</ele><time>2021-09-01T10:04:09Z</time><extensions><speed>1.256371</speed><course>333.004852</course><hAcc>0.880050</hAcc><vAcc>0.688452</vAcc></extensions></trkpt>
      <trkpt lon="-3.162162" lat="53.010019"><ele>299.779907</ele><time>2021-09-01T10:04:10Z</time><extensions><speed>1.266837</speed><course>328.891602</course><hAcc>0.879942</hAcc><vAcc>0.688106</vAcc></extensions></trkpt>
      <trkpt lon="-3.162153" lat="53.010029"><ele>299.908173</ele><time>2021-09-01T10:04:11Z</time><extensions><speed>1.275206</speed><course>329.156494</course><hAcc>0.879834</hAcc><vAcc>0.687766</vAcc></extensions></trkpt>
      <trkpt lon="-3.162145" lat="53.010039"><ele>300.036560</ele><time>2021-09-01T10:04:12Z</time><extensions><speed>1.281326</speed><course>329.450256</course><hAcc>0.879725</hAcc><vAcc>0.687436</vAcc></extensions></trkpt>
      <trkpt lon="-3.162136" lat="53.010050"><ele>300.162415</ele><time>2021-09-01T10:04:13Z</time><extensions><speed>1.285113</speed><course>329.886902</course><hAcc>0.879617</hAcc><vAcc>0.687115</vAcc></extensions></trkpt>
      <trkpt lon="-3.162129" lat="53.010060"><ele>300.282959</ele><time>2021-09-01T10:04:14Z</time><extensions><speed>1.286352</speed><course>332.708923</course><hAcc>0.879508</hAcc><vAcc>0.686798</vAcc></extensions></trkpt>
      <trkpt lon="-3.162121" lat="53.010071"><ele>300.395325</ele><time>2021-09-01T10:04:15Z</time><extensions><speed>1.284568</speed><course>337.086456</course><hAcc>0.879396</hAcc><vAcc>0.686483</vAcc></extensions></trkpt>
      <trkpt lon="-3.162114" lat="53.010081"><ele>300.496765</ele><time>2021-09-01T10:04:15Z</time><extensions><speed>1.279190</speed><course>335.947693</course><hAcc>0.879299</hAcc><vAcc>0.686182</vAcc></extensions></trkpt>
      <trkpt lon="-3.162108" lat="53.010092"><ele>300.584961</ele><time>2021-09-01T10:04:16Z</time><extensions><speed>1.269975</speed><course>332.293579</course><hAcc>0.879218</hAcc><vAcc>0.685897</vAcc></extensions></trkpt>
      <trkpt lon="-3.162102" lat="53.010103"><ele>300.657501</ele><time>2021-09-01T10:04:17Z</time><extensions><speed>1.256997</speed><course>330.673279</course><hAcc>0.879135</hAcc><vAcc>0.685612</vAcc></extensions></trkpt>
      <trkpt lon="-3.162097" lat="53.010114"><ele>300.712555</ele><time>2021-09-01T10:04:18Z</time><extensions><speed>1.240360</speed><course>325.868774</course><hAcc>0.879051</hAcc><vAcc>0.685321</vAcc></extensions></trkpt>
      <trkpt lon="-3.162092" lat="53.010124"><ele>300.748505</ele><time>2021-09-01T10:04:19Z</time><extensions><speed>1.220241</speed><course>320.652771</course><hAcc>0.878967</hAcc><vAcc>0.685019</vAcc></extensions></trkpt>
      <trkpt lon="-3.162089" lat="53.010135"><ele>300.764099</ele><time>2021-09-01T10:04:20Z</time><extensions><speed>1.197409</speed><course>317.759430</course><hAcc>0.878887</hAcc><vAcc>0.684707</vAcc></extensions></trkpt>
      <trkpt lon="-3.162086" lat="53.010146"><ele>300.758514</ele><time>2021-09-01T10:04:22Z</time><extensions><speed>1.172349</speed><course>312.631989</course><hAcc>0.878799</hAcc><vAcc>0.684389</vAcc></extensions></trkpt>
      <trkpt lon="-3.162084" lat="53.010156"><ele>300.731232</ele><time>2021-09-01T10:04:23Z</time><extensions><speed>1.144984</speed><course>318.114197</course><hAcc>0.878708</hAcc><vAcc>0.684091</vAcc></extensions></trkpt>
      <trkpt lon="-3.162082" lat="53.010166"><ele>300.682281</ele><time>2021-09-01T10:04:24Z</time><extensions><speed>1.114751</speed><course>324.507172</course><hAcc>0.878641</hAcc><vAcc>0.683851</vAcc></extensions></trkpt>
      <trkpt lon="-3.162081" lat="53.010176"><ele>300.612335</ele><time>2021-09-01T10:04:25Z</time><extensions><speed>1.081297</speed><course>327.082703</course><hAcc>0.878604</hAcc><vAcc>0.683693</vAcc></extensions></trkpt>
      <trkpt lon="-3.162081" lat="53.010185"><ele>300.522675</ele><time>2021-09-01T10:04:26Z</time><extensions><speed>1.044675</speed><course>329.958954</course><hAcc>0.878602</hAcc><vAcc>0.683640</vAcc></extensions></trkpt>
      <trkpt lon="-3.162081" lat="53.010195"><ele>300.415222</ele><time>2021-09-01T10:04:27Z</time><extensions><speed>1.005602</speed><course>328.035645</course><hAcc>0.878644</hAcc><vAcc>0.683716</vAcc></extensions></trkpt>
      <trkpt lon="-3.162082" lat="53.010204"><ele>300.292633</ele><time>2021-09-01T10:04:28Z</time><extensions><speed>0.965301</speed><course>327.514526</course><hAcc>0.878736</hAcc><vAcc>0.683962</vAcc></extensions></trkpt>
      <trkpt lon="-3.162082" lat="53.010212"><ele>300.158478</ele><time>2021-09-01T10:04:29Z</time><extensions><speed>0.925002</speed><course>320.027710</course><hAcc>0.878883</hAcc><vAcc>0.684419</vAcc></extensions></trkpt>
      <trkpt lon="-3.162083" lat="53.010220"><ele>300.016785</ele><time>2021-09-01T10:04:30Z</time><extensions><speed>0.886151</speed><course>323.596710</course><hAcc>0.879089</hAcc><vAcc>0.685116</vAcc></extensions></trkpt>
      <trkpt lon="-3.162084" lat="53.010228"><ele>299.871552</ele><time>2021-09-01T10:04:31Z</time><extensions><speed>0.850910</speed><course>326.277405</course><hAcc>0.879350</hAcc><vAcc>0.686053</vAcc></extensions></trkpt>
      <trkpt lon="-3.162084" lat="53.010235"><ele>299.726654</ele><time>2021-09-01T10:04:32Z</time><extensions><speed>0.822549</speed><course>327.083344</course><hAcc>0.879656</hAcc><vAcc>0.687196</vAcc></extensions></trkpt>
      <trkpt lon="-3.162084" lat="53.010243"><ele>299.585724</ele><time>2021-09-01T10:04:33Z</time><extensions><speed>0.804239</speed><course>330.723541</course><hAcc>0.879992</hAcc><vAcc>0.688477</vAcc></extensions></trkpt>
      <trkpt lon="-3.162084" lat="53.010250"><ele>299.451691</ele><time>2021-09-01T10:04:34Z</time><extensions><speed>0.798236</speed><course>328.902985</course><hAcc>0.880340</hAcc><vAcc>0.689794</vAcc></extensions></trkpt>
      <trkpt lon="-3.162084" lat="53.010257"><ele>299.326355</ele><time>2021-09-01T10:04:35Z</time><extensions><speed>0.805646</speed><course>325.540680</course><hAcc>0.880676</hAcc><vAcc>0.691034</vAcc></extensions></trkpt>
      <trkpt lon="-3.162083" lat="53.010264"><ele>299.210571</ele><time>2021-09-01T10:04:36Z</time><extensions><speed>0.826552</speed><course>326.969879</course><hAcc>0.880981</hAcc><vAcc>0.692103</vAcc></extensions></trkpt>
      <trkpt lon="-3.162081" lat="53.010272"><ele>299.104675</ele><time>2021-09-01T10:04:37Z</time><extensions><speed>0.860044</speed><course>320.316467</course><hAcc>0.881242</hAcc><vAcc>0.692948</vAcc></extensions></trkpt>
      <trkpt lon="-3.162079" lat="53.010280"><ele>299.008728</ele><time>2021-09-01T10:04:38Z</time><extensions><speed>0.903552</speed><course>319.871765</course><hAcc>0.881448</hAcc><vAcc>0.693552</vAcc></extensions></trkpt>
      <trkpt lon="-3.162077" lat="53.010288"><ele>298.922638</ele><time>2021-09-01T10:04:39Z</time><extensions><speed>0.953203</speed><course>316.990692</course><hAcc>0.881596</hAcc><vAcc>0.693923</vAcc></extensions></trkpt>
      <trkpt lon="-3.162074" lat="53.010297"><ele>298.846619</ele><time>2021-09-01T10:04:40Z</time><extensions><speed>1.004830</speed><course>317.272278</course><hAcc>0.881689</hAcc><vAcc>0.694087</vAcc></extensions></trkpt>
      <trkpt lon="-3.162071" lat="53.010306"><ele>298.780914</ele><time>2021-09-01T10:04:41Z</time><extensions><speed>1.055178</speed><course>317.305878</course><hAcc>0.881733</hAcc><vAcc>0.694083</vAcc></extensions></trkpt>
      <trkpt lon="-3.162067" lat="53.010315"><ele>298.726044</ele><time>2021-09-01T10:04:42Z</time><extensions><speed>1.102312</speed><course>319.626617</course><hAcc>0.881736</hAcc><vAcc>0.693956</vAcc></extensions></trkpt>
      <trkpt lon="-3.162063" lat="53.010325"><ele>298.682495</ele><time>2021-09-01T10:04:43Z</time><extensions><speed>1.144827</speed><course>316.946777</course><hAcc>0.881708</hAcc><vAcc>0.693753</vAcc></extensions></trkpt>
      <trkpt lon="-3.162059" lat="53.010335"><ele>298.650513</ele><time>2021-09-01T10:04:44Z</time><extensions><speed>1.181551</speed><course>316.848175</course><hAcc>0.881658</hAcc><vAcc>0.693512</vAcc></extensions></trkpt>
      <trkpt lon="-3.162055" lat="53.010346"><ele>298.629700</ele><time>2021-09-01T10:04:45Z</time><extensions><speed>1.211847</speed><course>306.129730</course><hAcc>0.881596</hAcc><vAcc>0.693260</vAcc></extensions></trkpt>
      <trkpt lon="-3.162050" lat="53.010356"><ele>298.618927</ele><time>2021-09-01T10:04:46Z</time><extensions><speed>1.235773</speed><course>311.287872</course><hAcc>0.881527</hAcc><vAcc>0.693020</vAcc></extensions></trkpt>
      <trkpt lon="-3.162046" lat="53.010367"><ele>298.616913</ele><time>2021-09-01T10:04:47Z</time><extensions><speed>1.253647</speed><course>316.150696</course><hAcc>0.881455</hAcc><vAcc>0.692807</vAcc></extensions></trkpt>
      <trkpt lon="-3.162041" lat="53.010378"><ele>298.622406</ele><time>2021-09-01T10:04:48Z</time><extensions><speed>1.266210</speed><course>319.589172</course><hAcc>0.881384</hAcc><vAcc>0.692622</vAcc></extensions></trkpt>
      <trkpt lon="-3.162036" lat="53.010389"><ele>298.634338</ele><time>2021-09-01T10:04:49Z</time><extensions><speed>1.274538</speed><course>317.826752</course><hAcc>0.881311</hAcc><vAcc>0.692451</vAcc></extensions></trkpt>
      <trkpt lon="-3.162031" lat="53.010400"><ele>298.652496</ele><time>2021-09-01T10:04:50Z</time><extensions><speed>1.279635</speed><course>316.582428</course><hAcc>0.881234</hAcc><vAcc>0.692268</vAcc></extensions></trkpt>
      <trkpt lon="-3.162026" lat="53.010411"><ele>298.677338</ele><time>2021-09-01T10:04:51Z</time><extensions><speed>1.282310</speed><course>322.533203</course><hAcc>0.881151</hAcc><vAcc>0.692047</vAcc></extensions></trkpt>
      <trkpt lon="-3.162021" lat="53.010422"><ele>298.709167</ele><time>2021-09-01T10:04:52Z</time><extensions><speed>1.283130</speed><course>322.533203</course><hAcc>0.881059</hAcc><vAcc>0.691775</vAcc></extensions></trkpt>
      <trkpt lon="-3.162016" lat="53.010434"><ele>298.747864</ele><time>2021-09-01T10:04:53Z</time><extensions><speed>1.282562</speed><course>322.533203</course><hAcc>0.880956</hAcc><vAcc>0.691445</vAcc></extensions></trkpt>
      <trkpt lon="-3.162011" lat="53.010445"><ele>298.792999</ele><time>2021-09-01T10:04:54Z</time><extensions><speed>1.280661</speed><course>322.533203</course><hAcc>0.880844</hAcc><vAcc>0.691063</vAcc></extensions></trkpt>
      <trkpt lon="-3.162006" lat="53.010456"><ele>298.843964</ele><time>2021-09-01T10:04:55Z</time><extensions><speed>1.277620</speed><course>322.533203</course><hAcc>0.880724</hAcc><vAcc>0.690640</vAcc></extensions></trkpt>
      <trkpt lon="-3.162000" lat="53.010467"><ele>298.900177</ele><time>2021-09-01T10:04:56Z</time><extensions><speed>1.273807</speed><course>310.635162</course><hAcc>0.880599</hAcc><vAcc>0.690198</vAcc></extensions></trkpt>
      <trkpt lon="-3.161995" lat="53.010478"><ele>298.961151</ele><time>2021-09-01T10:04:57Z</time><extensions><speed>1.269481</speed><course>317.610291</course><hAcc>0.880472</hAcc><vAcc>0.689759</vAcc></extensions></trkpt>
      <trkpt lon="-3.161989" lat="53.010488"><ele>299.026703</ele><time>2021-09-01T10:04:58Z</time><extensions><speed>1.264789</speed><course>306.125671</course><hAcc>0.880346</hAcc><vAcc>0.689337</vAcc></extensions></trkpt>
      <trkpt lon="-3.161984" lat="53.010499"><ele>299.096466</ele><time>2021-09-01T10:04:59Z</time><extensions><speed>1.259679</speed><course>318.134308</course><hAcc>0.880224</hAcc><vAcc>0.688942</vAcc></extensions></trkpt>
      <trkpt lon="-3.161979" lat="53.010510"><ele>299.169830</ele><time>2021-09-01T10:05:00Z</time><extensions><speed>1.254535</speed><course>310.926819</course><hAcc>0.880106</hAcc><vAcc>0.688573</vAcc></extensions></trkpt>
      <trkpt lon="-3.161974" lat="53.010521"><ele>299.245728</ele><time>2021-09-01T10:05:01Z</time><extensions><speed>1.249899</speed><course>312.939606</course><hAcc>0.879994</hAcc><vAcc>0.688228</vAcc></extensions></trkpt>
      <trkpt lon="-3.161968" lat="53.010532"><ele>299.323212</ele><time>2021-09-01T10:05:02Z</time><extensions><speed>1.245698</speed><course>305.606995</course><hAcc>0.879888</hAcc><vAcc>0.687905</vAcc></extensions></trkpt>
      <trkpt lon="-3.161963" lat="53.010542"><ele>299.401398</ele><time>2021-09-01T10:05:03Z</time><extensions><speed>1.241626</speed><course>302.541321</course><hAcc>0.879788</hAcc><vAcc>0.687605</vAcc></extensions></trkpt>
      <trkpt lon="-3.161958" lat="53.010553"><ele>299.479736</ele><time>2021-09-01T10:05:04Z</time><extensions><speed>1.237925</speed><course>303.802917</course><hAcc>0.879696</hAcc><vAcc>0.687323</vAcc></extensions></trkpt>
      <trkpt lon="-3.161953" lat="53.010564"><ele>299.557678</ele><time>2021-09-01T10:05:05Z</time><extensions><speed>1.234944</speed><course>300.395538</course><hAcc>0.879612</hAcc><vAcc>0.687057</vAcc></extensions></trkpt>
      <trkpt lon="-3.161948" lat="53.010575"><ele>299.634583</ele><time>2021-09-01T10:05:06Z</time><extensions><speed>1.232628</speed><course>303.076660</course><hAcc>0.879537</hAcc><vAcc>0.686808</vAcc></extensions></trkpt>
      <trkpt lon="-3.161943" lat="53.010585"><ele>299.710022</ele><time>2021-09-01T10:05:07Z</time><extensions><speed>1.230725</speed><course>301.521118</course><hAcc>0.879475</hAcc><vAcc>0.686582</vAcc></extensions></trkpt>
      <trkpt lon="-3.161938" lat="53.010596"><ele>299.783630</ele><time>2021-09-01T10:05:08Z</time><extensions><speed>1.228853</speed><course>315.953857</course><hAcc>0.879429</hAcc><vAcc>0.686393</vAcc></extensions></trkpt>
      <trkpt lon="-3.161934" lat="53.010607"><ele>299.855042</ele><time>2021-09-01T10:05:09Z</time><extensions><speed>1.227049</speed><course>321.613922</course><hAcc>0.879403</hAcc><vAcc>0.686260</vAcc></extensions></trkpt>
      <trkpt lon="-3.161929" lat="53.010617"><ele>299.924164</ele><time>2021-09-01T10:05:10Z</time><extensions><speed>1.225495</speed><course>320.530426</course><hAcc>0.879401</hAcc><vAcc>0.686204</vAcc></extensions></trkpt>
      <trkpt lon="-3.161924" lat="53.010628"><ele>299.990906</ele><time>2021-09-01T10:05:11Z</time><extensions><speed>1.224160</speed><course>319.105469</course><hAcc>0.879425</hAcc><vAcc>0.686250</vAcc></extensions></trkpt>
      <trkpt lon="-3.161919" lat="53.010638"><ele>300.054626</ele><time>2021-09-01T10:05:12Z</time><extensions><speed>1.223353</speed><course>320.005280</course><hAcc>0.879477</hAcc><vAcc>0.686413</vAcc></extensions></trkpt>
      <trkpt lon="-3.161915" lat="53.010649"><ele>300.114075</ele><time>2021-09-01T10:05:13Z</time><extensions><speed>1.223648</speed><course>320.540527</course><hAcc>0.879554</hAcc><vAcc>0.686696</vAcc></extensions></trkpt>
      <trkpt lon="-3.161910" lat="53.010660"><ele>300.167755</ele><time>2021-09-01T10:05:14Z</time><extensions><speed>1.225581</speed><course>316.635681</course><hAcc>0.879649</hAcc><vAcc>0.687079</vAcc></extensions></trkpt>
      <trkpt lon="-3.161906" lat="53.010670"><ele>300.214172</ele><time>2021-09-01T10:05:15Z</time><extensions><speed>1.228920</speed><course>319.322998</course><hAcc>0.879752</hAcc><vAcc>0.687521</vAcc></extensions></trkpt>
      <trkpt lon="-3.161901" lat="53.010681"><ele>300.251984</ele><time>2021-09-01T10:05:16Z</time><extensions><speed>1.233021</speed><course>319.244141</course><hAcc>0.879846</hAcc><vAcc>0.687962</vAcc></extensions></trkpt>
      <trkpt lon="-3.161897" lat="53.010692"><ele>300.280212</ele><time>2021-09-01T10:05:17Z</time><extensions><speed>1.237495</speed><course>315.425568</course><hAcc>0.879917</hAcc><vAcc>0.688337</vAcc></extensions></trkpt>
      <trkpt lon="-3.161893" lat="53.010703"><ele>300.298187</ele><time>2021-09-01T10:05:18Z</time><extensions><speed>1.242065</speed><course>318.059448</course><hAcc>0.879947</hAcc><vAcc>0.688579</vAcc></extensions></trkpt>
      <trkpt lon="-3.161890" lat="53.010714"><ele>300.305023</ele><time>2021-09-01T10:05:19Z</time><extensions><speed>1.247225</speed><course>318.243683</course><hAcc>0.879921</hAcc><vAcc>0.688624</vAcc></extensions></trkpt>
      <trkpt lon="-3.161887" lat="53.010725"><ele>300.299652</ele><time>2021-09-01T10:05:20Z</time><extensions><speed>1.253347</speed><course>319.840027</course><hAcc>0.879825</hAcc><vAcc>0.688421</vAcc></extensions></trkpt>
      <trkpt lon="-3.161884" lat="53.010736"><ele>300.281311</ele><time>2021-09-01T10:05:21Z</time><extensions><speed>1.259983</speed><course>320.630524</course><hAcc>0.879650</hAcc><vAcc>0.687938</vAcc></extensions></trkpt>
      <trkpt lon="-3.161882" lat="53.010747"><ele>300.250702</ele><time>2021-09-01T10:05:22Z</time><extensions><speed>1.266601</speed><course>318.435181</course><hAcc>0.879391</hAcc><vAcc>0.687158</vAcc></extensions></trkpt>
      <trkpt lon="-3.161880" lat="53.010759"><ele>300.209198</ele><time>2021-09-01T10:05:23Z</time><extensions><speed>1.273159</speed><course>313.959320</course><hAcc>0.879049</hAcc><vAcc>0.686075</vAcc></extensions></trkpt>
      <trkpt lon="-3.161879" lat="53.010770"><ele>300.157806</ele><time>2021-09-01T10:05:24Z</time><extensions><speed>1.279769</speed><course>314.005951</course><hAcc>0.878628</hAcc><vAcc>0.684696</vAcc></extensions></trkpt>
      <trkpt lon="-3.161878" lat="53.010782"><ele>300.096832</ele><time>2021-09-01T10:05:25Z</time><extensions><speed>1.286285</speed><course>315.776367</course><hAcc>0.878140</hAcc><vAcc>0.683057</vAcc></extensions></trkpt>
      <trkpt lon="-3.161878" lat="53.010793"><ele>300.026245</ele><time>2021-09-01T10:05:26Z</time><extensions><speed>1.292759</speed><course>317.643280</course><hAcc>0.877603</hAcc><vAcc>0.681221</vAcc></extensions></trkpt>
      <trkpt lon="-3.161878" lat="53.010805"><ele>299.945862</ele><time>2021-09-01T10:05:27Z</time><extensions><speed>1.299120</speed><course>316.187012</course><hAcc>0.877038</hAcc><vAcc>0.679274</vAcc></extensions></trkpt>
      <trkpt lon="-3.161879" lat="53.010817"><ele>299.855438</ele><time>2021-09-01T10:05:28Z</time><extensions><speed>1.305110</speed><course>313.238525</course><hAcc>0.876471</hAcc><vAcc>0.677311</vAcc></extensions></trkpt>
      <trkpt lon="-3.161880" lat="53.010828"><ele>299.755005</ele><time>2021-09-01T10:05:29Z</time><extensions><speed>1.310510</speed><course>309.102142</course><hAcc>0.875929</hAcc><vAcc>0.675434</vAcc></extensions></trkpt>
      <trkpt lon="-3.161881" lat="53.010840"><ele>299.644592</ele><time>2021-09-01T10:05:30Z</time><extensions><speed>1.315355</speed><course>313.839325</course><hAcc>0.875437</hAcc><vAcc>0.673735</vAcc></extensions></trkpt>
      <trkpt lon="-3.161882" lat="53.010852"><ele>299.524078</ele><time>2021-09-01T10:05:31Z</time><extensions><speed>1.319879</speed><course>315.040405</course><hAcc>0.875017</hAcc><vAcc>0.672293</vAcc></extensions></trkpt>
      <trkpt lon="-3.161884" lat="53.010864"><ele>299.393097</ele><time>2021-09-01T10:05:32Z</time><extensions><speed>1.324070</speed><course>315.010925</course><hAcc>0.874689</hAcc><vAcc>0.671171</vAcc></extensions></trkpt>
      <trkpt lon="-3.161887" lat="53.010876"><ele>299.250946</ele><time>2021-09-01T10:05:33Z</time><extensions><speed>1.327686</speed><course>312.357758</course><hAcc>0.874466</hAcc><vAcc>0.670417</vAcc></extensions></trkpt>
      <trkpt lon="-3.161889" lat="53.010887"><ele>299.096710</ele><time>2021-09-01T10:05:34Z</time><extensions><speed>1.330360</speed><course>316.888885</course><hAcc>0.874355</hAcc><vAcc>0.670058</vAcc></extensions></trkpt>
      <trkpt lon="-3.161892" lat="53.010899"><ele>298.929901</ele><time>2021-09-01T10:05:35Z</time><extensions><speed>1.332103</speed><course>320.096283</course><hAcc>0.874359</hAcc><vAcc>0.670100</vAcc></extensions></trkpt>
      <trkpt lon="-3.161895" lat="53.010911"><ele>298.750671</ele><time>2021-09-01T10:05:36Z</time><extensions><speed>1.332983</speed><course>330.452972</course><hAcc>0.874474</hAcc><vAcc>0.670528</vAcc></extensions></trkpt>
      <trkpt lon="-3.161898" lat="53.010923"><ele>298.559418</ele><time>2021-09-01T10:05:37Z</time><extensions><speed>1.332218</speed><course>325.892334</course><hAcc>0.874689</hAcc><vAcc>0.671302</vAcc></extensions></trkpt>
      <trkpt lon="-3.161901" lat="53.010935"><ele>298.357056</ele><time>2021-09-01T10:05:38Z</time><extensions><speed>1.329011</speed><course>323.150330</course><hAcc>0.874988</hAcc><vAcc>0.672361</vAcc></extensions></trkpt>
      <trkpt lon="-3.161905" lat="53.010946"><ele>298.144867</ele><time>2021-09-01T10:05:39Z</time><extensions><speed>1.322907</speed><course>318.355499</course><hAcc>0.875350</hAcc><vAcc>0.673632</vAcc></extensions></trkpt>
      <trkpt lon="-3.161909" lat="53.010958"><ele>297.924347</ele><time>2021-09-01T10:05:40Z</time><extensions><speed>1.313255</speed><course>319.900726</course><hAcc>0.875754</hAcc><vAcc>0.675026</vAcc></extensions></trkpt>
      <trkpt lon="-3.161913" lat="53.010969"><ele>297.696625</ele><time>2021-09-01T10:05:41Z</time><extensions><speed>1.299915</speed><course>327.705719</course><hAcc>0.876176</hAcc><vAcc>0.676460</vAcc></extensions></trkpt>
      <trkpt lon="-3.161918" lat="53.010981"><ele>297.462646</ele><time>2021-09-01T10:05:42Z</time><extensions><speed>1.283413</speed><course>325.864380</course><hAcc>0.876598</hAcc><vAcc>0.677861</vAcc></extensions></trkpt>
      <trkpt lon="-3.161923" lat="53.010992"><ele>297.223358</ele><time>2021-09-01T10:05:43Z</time><extensions><speed>1.264593</speed><course>316.016541</course><hAcc>0.877003</hAcc><vAcc>0.679181</vAcc></extensions></trkpt>
      <trkpt lon="-3.161928" lat="53.011003"><ele>296.979553</ele><time>2021-09-01T10:05:44Z</time><extensions><speed>1.244446</speed><course>317.886536</course><hAcc>0.877381</hAcc><vAcc>0.680387</vAcc></extensions></trkpt>
      <trkpt lon="-3.161933" lat="53.011013"><ele>296.732086</ele><time>2021-09-01T10:05:45Z</time><extensions><speed>1.223628</speed><course>327.267029</course><hAcc>0.877724</hAcc><vAcc>0.681458</vAcc></extensions></trkpt>
      <trkpt lon="-3.161939" lat="53.011024"><ele>296.481476</ele><time>2021-09-01T10:05:46Z</time><extensions><speed>1.202768</speed><course>326.251373</course><hAcc>0.878027</hAcc><vAcc>0.682385</vAcc></extensions></trkpt>
      <trkpt lon="-3.161944" lat="53.011034"><ele>296.228058</ele><time>2021-09-01T10:05:47Z</time><extensions><speed>1.182230</speed><course>330.160339</course><hAcc>0.878291</hAcc><vAcc>0.683174</vAcc></extensions></trkpt>
      <trkpt lon="-3.161950" lat="53.011044"><ele>295.972290</ele><time>2021-09-01T10:05:48Z</time><extensions><speed>1.162099</speed><course>329.350830</course><hAcc>0.878518</hAcc><vAcc>0.683838</vAcc></extensions></trkpt>
      <trkpt lon="-3.161956" lat="53.011053"><ele>295.714783</ele><time>2021-09-01T10:05:49Z</time><extensions><speed>1.142898</speed><course>328.046906</course><hAcc>0.878713</hAcc><vAcc>0.684400</vAcc></extensions></trkpt>
      <trkpt lon="-3.161962" lat="53.011063"><ele>295.456696</ele><time>2021-09-01T10:05:50Z</time><extensions><speed>1.124731</speed><course>328.036682</course><hAcc>0.878882</hAcc><vAcc>0.684882</vAcc></extensions></trkpt>
      <trkpt lon="-3.161967" lat="53.011072"><ele>295.199432</ele><time>2021-09-01T10:05:51Z</time><extensions><speed>1.107287</speed><course>328.321899</course><hAcc>0.879032</hAcc><vAcc>0.685308</vAcc></extensions></trkpt>
      <trkpt lon="-3.161973" lat="53.011082"><ele>294.944519</ele><time>2021-09-01T10:05:52Z</time><extensions><speed>1.090285</speed><course>326.366882</course><hAcc>0.879170</hAcc><vAcc>0.685699</vAcc></extensions></trkpt>
      <trkpt lon="-3.161978" lat="53.011091"><ele>294.693634</ele><time>2021-09-01T10:05:53Z</time><extensions><speed>1.072842</speed><course>331.362152</course><hAcc>0.879303</hAcc><vAcc>0.686072</vAcc></extensions></trkpt>
      <trkpt lon="-3.161983" lat="53.011100"><ele>294.448395</ele><time>2021-09-01T10:05:54Z</time><extensions><speed>1.054304</speed><course>329.394318</course><hAcc>0.879437</hAcc><vAcc>0.686450</vAcc></extensions></trkpt>
      <trkpt lon="-3.161987" lat="53.011109"><ele>294.210388</ele><time>2021-09-01T10:05:55Z</time><extensions><speed>1.034612</speed><course>332.464355</course><hAcc>0.879581</hAcc><vAcc>0.686858</vAcc></extensions></trkpt>
      <trkpt lon="-3.161991" lat="53.011118"><ele>293.981445</ele><time>2021-09-01T10:05:56Z</time><extensions><speed>1.014252</speed><course>335.973755</course><hAcc>0.879739</hAcc><vAcc>0.687319</vAcc></extensions></trkpt>
      <trkpt lon="-3.161994" lat="53.011127"><ele>293.763763</ele><time>2021-09-01T10:05:57Z</time><extensions><speed>0.994728</speed><course>334.588074</course><hAcc>0.879917</hAcc><vAcc>0.687858</vAcc></extensions></trkpt>
      <trkpt lon="-3.161996" lat="53.011136"><ele>293.560272</ele><time>2021-09-01T10:05:58Z</time><extensions><speed>0.977903</speed><course>337.558624</course><hAcc>0.880117</hAcc><vAcc>0.688489</vAcc></extensions></trkpt>
      <trkpt lon="-3.161997" lat="53.011144"><ele>293.374359</ele><time>2021-09-01T10:05:59Z</time><extensions><speed>0.964758</speed><course>337.377197</course><hAcc>0.880340</hAcc><vAcc>0.689214</vAcc></extensions></trkpt>
      <trkpt lon="-3.161998" lat="53.011153"><ele>293.209320</ele><time>2021-09-01T10:06:00Z</time><extensions><speed>0.955179</speed><course>334.236908</course><hAcc>0.880583</hAcc><vAcc>0.690023</vAcc></extensions></trkpt>
      <trkpt lon="-3.161997" lat="53.011161"><ele>293.068115</ele><time>2021-09-01T10:06:01Z</time><extensions><speed>0.948632</speed><course>333.116516</course><hAcc>0.880841</hAcc><vAcc>0.690897</vAcc></extensions></trkpt>
      <trkpt lon="-3.161995" lat="53.011170"><ele>292.953461</ele><time>2021-09-01T10:06:02Z</time><extensions><speed>0.944476</speed><course>331.193451</course><hAcc>0.881108</hAcc><vAcc>0.691810</vAcc></extensions></trkpt>
      <trkpt lon="-3.161992" lat="53.011178"><ele>292.868134</ele><time>2021-09-01T10:06:03Z</time><extensions><speed>0.942626</speed><course>327.071960</course><hAcc>0.881378</hAcc><vAcc>0.692734</vAcc></extensions></trkpt>
      <trkpt lon="-3.161988" lat="53.011186"><ele>292.814728</ele><time>2021-09-01T10:06:04Z</time><extensions><speed>0.943503</speed><course>323.969269</course><hAcc>0.881642</hAcc><vAcc>0.693639</vAcc></extensions></trkpt>
      <trkpt lon="-3.161983" lat="53.011194"><ele>292.795044</ele><time>2021-09-01T10:06:05Z</time><extensions><speed>0.947406</speed><course>325.035614</course><hAcc>0.881893</hAcc><vAcc>0.694493</vAcc></extensions></trkpt>
      <trkpt lon="-3.161977" lat="53.011202"><ele>292.809570</ele><time>2021-09-01T10:06:06Z</time><extensions><speed>0.954207</speed><course>325.080109</course><hAcc>0.882123</hAcc><vAcc>0.695268</vAcc></extensions></trkpt>
      <trkpt lon="-3.161970" lat="53.011209"><ele>292.857819</ele><time>2021-09-01T10:06:07Z</time><extensions><speed>0.963344</speed><course>320.596710</course><hAcc>0.882328</hAcc><vAcc>0.695944</vAcc></extensions></trkpt>
      <trkpt lon="-3.161962" lat="53.011217"><ele>292.938385</ele><time>2021-09-01T10:06:08Z</time><extensions><speed>0.974009</speed><course>325.164429</course><hAcc>0.882503</hAcc><vAcc>0.696506</vAcc></extensions></trkpt>
      <trkpt lon="-3.161954" lat="53.011224"><ele>293.049225</ele><time>2021-09-01T10:06:09Z</time><extensions><speed>0.985212</speed><course>323.691345</course><hAcc>0.882646</hAcc><vAcc>0.696948</vAcc></extensions></trkpt>
      <trkpt lon="-3.161945" lat="53.011231"><ele>293.187866</ele><time>2021-09-01T10:06:10Z</time><extensions><speed>0.996190</speed><course>332.829010</course><hAcc>0.882757</hAcc><vAcc>0.697274</vAcc></extensions></trkpt>
      <trkpt lon="-3.161935" lat="53.011238"><ele>293.351959</ele><time>2021-09-01T10:06:11Z</time><extensions><speed>1.006714</speed><course>333.287506</course><hAcc>0.882837</hAcc><vAcc>0.697490</vAcc></extensions></trkpt>
      <trkpt lon="-3.161925" lat="53.011245"><ele>293.539276</ele><time>2021-09-01T10:06:12Z</time><extensions><speed>1.017147</speed><course>320.664337</course><hAcc>0.882890</hAcc><vAcc>0.697612</vAcc></extensions></trkpt>
      <trkpt lon="-3.161915" lat="53.011251"><ele>293.747375</ele><time>2021-09-01T10:06:13Z</time><extensions><speed>1.027680</speed><course>319.581818</course><hAcc>0.882920</hAcc><vAcc>0.697656</vAcc></extensions></trkpt>
      <trkpt lon="-3.161905" lat="53.011258"><ele>293.973145</ele><time>2021-09-01T10:06:14Z</time><extensions><speed>1.038574</speed><course>320.113190</course><hAcc>0.882932</hAcc><vAcc>0.697645</vAcc></extensions></trkpt>
      <trkpt lon="-3.161894" lat="53.011265"><ele>294.212799</ele><time>2021-09-01T10:06:15Z</time><extensions><speed>1.049754</speed><course>325.625488</course><hAcc>0.882931</hAcc><vAcc>0.697599</vAcc></extensions></trkpt>
      <trkpt lon="-3.161884" lat="53.011272"><ele>294.462891</ele><time>2021-09-01T10:06:16Z</time><extensions><speed>1.060032</speed><course>320.008789</course><hAcc>0.882922</hAcc><vAcc>0.697537</vAcc></extensions></trkpt>
      <trkpt lon="-3.161873" lat="53.011279"><ele>294.720276</ele><time>2021-09-01T10:06:17Z</time><extensions><speed>1.068583</speed><course>318.909088</course><hAcc>0.882909</hAcc><vAcc>0.697475</vAcc></extensions></trkpt>
      <trkpt lon="-3.161863" lat="53.011287"><ele>294.982117</ele><time>2021-09-01T10:06:18Z</time><extensions><speed>1.075895</speed><course>323.298828</course><hAcc>0.882897</hAcc><vAcc>0.697430</vAcc></extensions></trkpt>
      <trkpt lon="-3.161853" lat="53.011294"><ele>295.245941</ele><time>2021-09-01T10:06:19Z</time><extensions><speed>1.083215</speed><course>319.843567</course><hAcc>0.882887</hAcc><vAcc>0.697413</vAcc></extensions></trkpt>
      <trkpt lon="-3.161843" lat="53.011302"><ele>295.509766</ele><time>2021-09-01T10:06:19Z</time><extensions><speed>1.091266</speed><course>314.311829</course><hAcc>0.882901</hAcc><vAcc>0.697444</vAcc></extensions></trkpt>
      <trkpt lon="-3.161833" lat="53.011310"><ele>295.773041</ele><time>2021-09-01T10:06:20Z</time><extensions><speed>1.100132</speed><course>319.089264</course><hAcc>0.882938</hAcc><vAcc>0.697520</vAcc></extensions></trkpt>
      <trkpt lon="-3.161823" lat="53.011318"><ele>296.034943</ele><time>2021-09-01T10:06:22Z</time><extensions><speed>1.109396</speed><course>322.114319</course><hAcc>0.882963</hAcc><vAcc>0.697611</vAcc></extensions></trkpt>
      <trkpt lon="-3.161814" lat="53.011326"><ele>296.294373</ele><time>2021-09-01T10:06:23Z</time><extensions><speed>1.118566</speed><course>313.771057</course><hAcc>0.882973</hAcc><vAcc>0.697712</vAcc></extensions></trkpt>
      <trkpt lon="-3.161804" lat="53.011334"><ele>296.551086</ele><time>2021-09-01T10:06:23Z</time><extensions><speed>1.127622</speed><course>306.383820</course><hAcc>0.883003</hAcc><vAcc>0.697842</vAcc></extensions></trkpt>
      <trkpt lon="-3.161794" lat="53.011343"><ele>296.805725</ele><time>2021-09-01T10:06:24Z</time><extensions><speed>1.136527</speed><course>308.594727</course><hAcc>0.883048</hAcc><vAcc>0.697995</vAcc></extensions></trkpt>
      <trkpt lon="-3.161785" lat="53.011351"><ele>297.058319</ele><time>2021-09-01T10:06:25Z</time><extensions><speed>1.144922</speed><course>313.438293</course><hAcc>0.883086</hAcc><vAcc>0.698141</vAcc></extensions></trkpt>
      <trkpt lon="-3.161775" lat="53.011359"><ele>297.308899</ele><time>2021-09-01T10:06:26Z</time><extensions><speed>1.152663</speed><course>315.261749</course><hAcc>0.883112</hAcc><vAcc>0.698262</vAcc></extensions></trkpt>
      <trkpt lon="-3.161765" lat="53.011368"><ele>297.557281</ele><time>2021-09-01T10:06:27Z</time><extensions><speed>1.159587</speed><course>314.962799</course><hAcc>0.883121</hAcc><vAcc>0.698336</vAcc></extensions></trkpt>
      <trkpt lon="-3.161755" lat="53.011376"><ele>297.803192</ele><time>2021-09-01T10:06:28Z</time><extensions><speed>1.165310</speed><course>311.864380</course><hAcc>0.883108</hAcc><vAcc>0.698346</vAcc></extensions></trkpt>
      <trkpt lon="-3.161745" lat="53.011385"><ele>298.046326</ele><time>2021-09-01T10:06:29Z</time><extensions><speed>1.170095</speed><course>305.555115</course><hAcc>0.883068</hAcc><vAcc>0.698272</vAcc></extensions></trkpt>
      <trkpt lon="-3.161735" lat="53.011394"><ele>298.286926</ele><time>2021-09-01T10:06:30Z</time><extensions><speed>1.173813</speed><course>309.414368</course><hAcc>0.882996</hAcc><vAcc>0.698090</vAcc></extensions></trkpt>
      <trkpt lon="-3.161725" lat="53.011402"><ele>298.525818</ele><time>2021-09-01T10:06:31Z</time><extensions><speed>1.175628</speed><course>312.426361</course><hAcc>0.882889</hAcc><vAcc>0.697778</vAcc></extensions></trkpt>
      <trkpt lon="-3.161715" lat="53.011411"><ele>298.764252</ele><time>2021-09-01T10:06:32Z</time><extensions><speed>1.175134</speed><course>315.779877</course><hAcc>0.882745</hAcc><vAcc>0.697328</vAcc></extensions></trkpt>
      <trkpt lon="-3.161705" lat="53.011420"><ele>299.002747</ele><time>2021-09-01T10:06:33Z</time><extensions><speed>1.172373</speed><course>309.393494</course><hAcc>0.882566</hAcc><vAcc>0.696739</vAcc></extensions></trkpt>
      <trkpt lon="-3.161696" lat="53.011429"><ele>299.240875</ele><time>2021-09-01T10:06:34Z</time><extensions><speed>1.168064</speed><course>315.161163</course><hAcc>0.882353</hAcc><vAcc>0.696022</vAcc></extensions></trkpt>
      <trkpt lon="-3.161687" lat="53.011438"><ele>299.477539</ele><time>2021-09-01T10:06:35Z</time><extensions><speed>1.163537</speed><course>313.978088</course><hAcc>0.882111</hAcc><vAcc>0.695197</vAcc></extensions></trkpt>
      <trkpt lon="-3.161679" lat="53.011447"><ele>299.710999</ele><time>2021-09-01T10:06:36Z</time><extensions><speed>1.160199</speed><course>310.683502</course><hAcc>0.881848</hAcc><vAcc>0.694294</vAcc></extensions></trkpt>
      <trkpt lon="-3.161671" lat="53.011456"><ele>299.938599</ele><time>2021-09-01T10:06:37Z</time><extensions><speed>1.159202</speed><course>311.301880</course><hAcc>0.881570</hAcc><vAcc>0.693345</vAcc></extensions></trkpt>
      <trkpt lon="-3.161664" lat="53.011466"><ele>300.157776</ele><time>2021-09-01T10:06:38Z</time><extensions><speed>1.161918</speed><course>311.208435</course><hAcc>0.881288</hAcc><vAcc>0.692385</vAcc></extensions></trkpt>
      <trkpt lon="-3.161657" lat="53.011475"><ele>300.366547</ele><time>2021-09-01T10:06:39Z</time><extensions><speed>1.169720</speed><course>309.569458</course><hAcc>0.881011</hAcc><vAcc>0.691444</vAcc></extensions></trkpt>
      <trkpt lon="-3.161651" lat="53.011485"><ele>300.563324</ele><time>2021-09-01T10:06:40Z</time><extensions><speed>1.183722</speed><course>310.187012</course><hAcc>0.880748</hAcc><vAcc>0.690550</vAcc></extensions></trkpt>
      <trkpt lon="-3.161645" lat="53.011495"><ele>300.746246</ele><time>2021-09-01T10:06:41Z</time><extensions><speed>1.203992</speed><course>310.459808</course><hAcc>0.880508</hAcc><vAcc>0.689727</vAcc></extensions></trkpt>
      <trkpt lon="-3.161640" lat="53.011506"><ele>300.913300</ele><time>2021-09-01T10:06:42Z</time><extensions><speed>1.229392</speed><course>310.191071</course><hAcc>0.880303</hAcc><vAcc>0.689006</vAcc></extensions></trkpt>
      <trkpt lon="-3.161635" lat="53.011517"><ele>301.062744</ele><time>2021-09-01T10:06:43Z</time><extensions><speed>1.258920</speed><course>313.202332</course><hAcc>0.880140</hAcc><vAcc>0.688425</vAcc></extensions></trkpt>
      <trkpt lon="-3.161631" lat="53.011528"><ele>301.193176</ele><time>2021-09-01T10:06:44Z</time><extensions><speed>1.291805</speed><course>317.375305</course><hAcc>0.880028</hAcc><vAcc>0.688026</vAcc></extensions></trkpt>
      <trkpt lon="-3.161626" lat="53.011539"><ele>301.303589</ele><time>2021-09-01T10:06:45Z</time><extensions><speed>1.326841</speed><course>320.965942</course><hAcc>0.879974</hAcc><vAcc>0.687839</vAcc></extensions></trkpt>
      <trkpt lon="-3.161622" lat="53.011551"><ele>301.393829</ele><time>2021-09-01T10:06:46Z</time><extensions><speed>1.362803</speed><course>318.335114</course><hAcc>0.879977</hAcc><vAcc>0.687868</vAcc></extensions></trkpt>
      <trkpt lon="-3.161617" lat="53.011563"><ele>301.464691</ele><time>2021-09-01T10:06:47Z</time><extensions><speed>1.398580</speed><course>322.780487</course><hAcc>0.880037</hAcc><vAcc>0.688096</vAcc></extensions></trkpt>
      <trkpt lon="-3.161612" lat="53.011575"><ele>301.517975</ele><time>2021-09-01T10:06:48Z</time><extensions><speed>1.432355</speed><course>321.324005</course><hAcc>0.880147</hAcc><vAcc>0.688498</vAcc></extensions></trkpt>
      <trkpt lon="-3.161606" lat="53.011588"><ele>301.556396</ele><time>2021-09-01T10:06:49Z</time><extensions><speed>1.461832</speed><course>322.516296</course><hAcc>0.880302</hAcc><vAcc>0.689049</vAcc></extensions></trkpt>
      <trkpt lon="-3.161600" lat="53.011601"><ele>301.583435</ele><time>2021-09-01T10:06:50Z</time><extensions><speed>1.485231</speed><course>319.995483</course><hAcc>0.880494</hAcc><vAcc>0.689724</vAcc></extensions></trkpt>
      <trkpt lon="-3.161593" lat="53.011614"><ele>301.603119</ele><time>2021-09-01T10:06:51Z</time><extensions><speed>1.501642</speed><course>324.182892</course><hAcc>0.880715</hAcc><vAcc>0.690493</vAcc></extensions></trkpt>
      <trkpt lon="-3.161586" lat="53.011626"><ele>301.619263</ele><time>2021-09-01T10:06:52Z</time><extensions><speed>1.510713</speed><course>328.616821</course><hAcc>0.880955</hAcc><vAcc>0.691319</vAcc></extensions></trkpt>
      <trkpt lon="-3.161579" lat="53.011639"><ele>301.634796</ele><time>2021-09-01T10:06:53Z</time><extensions><speed>1.513061</speed><course>324.016815</course><hAcc>0.881206</hAcc><vAcc>0.692166</vAcc></extensions></trkpt>
      <trkpt lon="-3.161571" lat="53.011652"><ele>301.651886</ele><time>2021-09-01T10:06:54Z</time><extensions><speed>1.509598</speed><course>329.825897</course><hAcc>0.881459</hAcc><vAcc>0.693004</vAcc></extensions></trkpt>
      <trkpt lon="-3.161563" lat="53.011664"><ele>301.672546</ele><time>2021-09-01T10:06:55Z</time><extensions><speed>1.501208</speed><course>327.868408</course><hAcc>0.881707</hAcc><vAcc>0.693815</vAcc></extensions></trkpt>
      <trkpt lon="-3.161554" lat="53.011677"><ele>301.698334</ele><time>2021-09-01T10:06:56Z</time><extensions><speed>1.489001</speed><course>336.001526</course><hAcc>0.881945</hAcc><vAcc>0.694588</vAcc></extensions></trkpt>
      <trkpt lon="-3.161546" lat="53.011689"><ele>301.730103</ele><time>2021-09-01T10:06:57Z</time><extensions><speed>1.473862</speed><course>319.189575</course><hAcc>0.882168</hAcc><vAcc>0.695313</vAcc></extensions></trkpt>
      <trkpt lon="-3.161537" lat="53.011701"><ele>301.768402</ele><time>2021-09-01T10:06:58Z</time><extensions><speed>1.456881</speed><course>314.045624</course><hAcc>0.882371</hAcc><vAcc>0.695973</vAcc></extensions></trkpt>
      <trkpt lon="-3.161528" lat="53.011713"><ele>301.813629</ele><time>2021-09-01T10:06:59Z</time><extensions><speed>1.439678</speed><course>316.798950</course><hAcc>0.882551</hAcc><vAcc>0.696555</vAcc></extensions></trkpt>
      <trkpt lon="-3.161519" lat="53.011725"><ele>301.865631</ele><time>2021-09-01T10:07:00Z</time><extensions><speed>1.423302</speed><course>316.381958</course><hAcc>0.882704</hAcc><vAcc>0.697050</vAcc></extensions></trkpt>
      <trkpt lon="-3.161510" lat="53.011736"><ele>301.923950</ele><time>2021-09-01T10:07:01Z</time><extensions><speed>1.408015</speed><course>324.109985</course><hAcc>0.882828</hAcc><vAcc>0.697455</vAcc></extensions></trkpt>
      <trkpt lon="-3.161501" lat="53.011748"><ele>301.987885</ele><time>2021-09-01T10:07:02Z</time><extensions><speed>1.394015</speed><course>319.248718</course><hAcc>0.882921</hAcc><vAcc>0.697770</vAcc></extensions></trkpt>
      <trkpt lon="-3.161491" lat="53.011759"><ele>302.056641</ele><time>2021-09-01T10:07:03Z</time><extensions><speed>1.381518</speed><course>322.755310</course><hAcc>0.882983</hAcc><vAcc>0.697987</vAcc></extensions></trkpt>
      <trkpt lon="-3.161482" lat="53.011770"><ele>302.129547</ele><time>2021-09-01T10:07:04Z</time><extensions><speed>1.370785</speed><course>326.625031</course><hAcc>0.883011</hAcc><vAcc>0.698094</vAcc></extensions></trkpt>
      <trkpt lon="-3.161472" lat="53.011780"><ele>302.206635</ele><time>2021-09-01T10:07:05Z</time><extensions><speed>1.361684</speed><course>328.024994</course><hAcc>0.883007</hAcc><vAcc>0.698081</vAcc></extensions></trkpt>
      <trkpt lon="-3.161462" lat="53.011791"><ele>302.287872</ele><time>2021-09-01T10:07:06Z</time><extensions><speed>1.353645</speed><course>332.378082</course><hAcc>0.882972</hAcc><vAcc>0.697953</vAcc></extensions></trkpt>
      <trkpt lon="-3.161452" lat="53.011802"><ele>302.373199</ele><time>2021-09-01T10:07:07Z</time><extensions><speed>1.345783</speed><course>332.526154</course><hAcc>0.882908</hAcc><vAcc>0.697719</vAcc></extensions></trkpt>
      <trkpt lon="-3.161442" lat="53.011812"><ele>302.462433</ele><time>2021-09-01T10:07:08Z</time><extensions><speed>1.337827</speed><course>335.486633</course><hAcc>0.882820</hAcc><vAcc>0.697394</vAcc></extensions></trkpt>
      <trkpt lon="-3.161432" lat="53.011822"><ele>302.555481</ele><time>2021-09-01T10:07:09Z</time><extensions><speed>1.330401</speed><course>336.016846</course><hAcc>0.882713</hAcc><vAcc>0.696995</vAcc></extensions></trkpt>
      <trkpt lon="-3.161421" lat="53.011832"><ele>302.652252</ele><time>2021-09-01T10:07:10Z</time><extensions><speed>1.324190</speed><course>334.888000</course><hAcc>0.882592</hAcc><vAcc>0.696545</vAcc></extensions></trkpt>
      <trkpt lon="-3.161411" lat="53.011842"><ele>302.752777</ele><time>2021-09-01T10:07:11Z</time><extensions><speed>1.319785</speed><course>333.393311</course><hAcc>0.882464</hAcc><vAcc>0.696073</vAcc></extensions></trkpt>
      <trkpt lon="-3.161401" lat="53.011852"><ele>302.857452</ele><time>2021-09-01T10:07:12Z</time><extensions><speed>1.317693</speed><course>318.935883</course><hAcc>0.882336</hAcc><vAcc>0.695608</vAcc></extensions></trkpt>
      <trkpt lon="-3.161390" lat="53.011862"><ele>302.966827</ele><time>2021-09-01T10:07:13Z</time><extensions><speed>1.318143</speed><course>311.891724</course><hAcc>0.882213</hAcc><vAcc>0.695173</vAcc></extensions></trkpt>
      <trkpt lon="-3.161379" lat="53.011872"><ele>303.081177</ele><time>2021-09-01T10:07:14Z</time><extensions><speed>1.321242</speed><course>312.578461</course><hAcc>0.882100</hAcc><vAcc>0.694785</vAcc></extensions></trkpt>
      <trkpt lon="-3.161368" lat="53.011882"><ele>303.200775</ele><time>2021-09-01T10:07:15Z</time><extensions><speed>1.326169</speed><course>320.602325</course><hAcc>0.882000</hAcc><vAcc>0.694453</vAcc></extensions></trkpt>
      <trkpt lon="-3.161356" lat="53.011892"><ele>303.326050</ele><time>2021-09-01T10:07:16Z</time><extensions><speed>1.331614</speed><course>323.639648</course><hAcc>0.881915</hAcc><vAcc>0.694185</vAcc></extensions></trkpt>
      <trkpt lon="-3.161344" lat="53.011901"><ele>303.457520</ele><time>2021-09-01T10:07:17Z</time><extensions><speed>1.337048</speed><course>325.641083</course><hAcc>0.881847</hAcc><vAcc>0.693980</vAcc></extensions></trkpt>
      <trkpt lon="-3.161332" lat="53.011911"><ele>303.595734</ele><time>2021-09-01T10:07:18Z</time><extensions><speed>1.342303</speed><course>324.286163</course><hAcc>0.881794</hAcc><vAcc>0.693835</vAcc></extensions></trkpt>
      <trkpt lon="-3.161319" lat="53.011920"><ele>303.740875</ele><time>2021-09-01T10:07:19Z</time><extensions><speed>1.347384</speed><course>330.884674</course><hAcc>0.881755</hAcc><vAcc>0.693740</vAcc></extensions></trkpt>
      <trkpt lon="-3.161307" lat="53.011930"><ele>303.892609</ele><time>2021-09-01T10:07:20Z</time><extensions><speed>1.352124</speed><course>342.591980</course><hAcc>0.881729</hAcc><vAcc>0.693688</vAcc></extensions></trkpt>
      <trkpt lon="-3.161294" lat="53.011939"><ele>304.050049</ele><time>2021-09-01T10:07:21Z</time><extensions><speed>1.356109</speed><course>340.473694</course><hAcc>0.881711</hAcc><vAcc>0.693666</vAcc></extensions></trkpt>
      <trkpt lon="-3.161280" lat="53.011948"><ele>304.211700</ele><time>2021-09-01T10:07:22Z</time><extensions><speed>1.358355</speed><course>337.459930</course><hAcc>0.881700</hAcc><vAcc>0.693662</vAcc></extensions></trkpt>
      <trkpt lon="-3.161267" lat="53.011957"><ele>304.375916</ele><time>2021-09-01T10:07:23Z</time><extensions><speed>1.357901</speed><course>334.977905</course><hAcc>0.881692</hAcc><vAcc>0.693664</vAcc></extensions></trkpt>
      <trkpt lon="-3.161253" lat="53.011966"><ele>304.541199</ele><time>2021-09-01T10:07:24Z</time><extensions><speed>1.354352</speed><course>334.909821</course><hAcc>0.881686</hAcc><vAcc>0.693660</vAcc></extensions></trkpt>
      <trkpt lon="-3.161240" lat="53.011975"><ele>304.706177</ele><time>2021-09-01T10:07:25Z</time><extensions><speed>1.347262</speed><course>335.401093</course><hAcc>0.881679</hAcc><vAcc>0.693640</vAcc></extensions></trkpt>
      <trkpt lon="-3.161226" lat="53.011984"><ele>304.869843</ele><time>2021-09-01T10:07:26Z</time><extensions><speed>1.336404</speed><course>335.416534</course><hAcc>0.881671</hAcc><vAcc>0.693601</vAcc></extensions></trkpt>
      <trkpt lon="-3.161213" lat="53.011993"><ele>305.031433</ele><time>2021-09-01T10:07:27Z</time><extensions><speed>1.321951</speed><course>333.502777</course><hAcc>0.881661</hAcc><vAcc>0.693546</vAcc></extensions></trkpt>
      <trkpt lon="-3.161200" lat="53.012002"><ele>305.190552</ele><time>2021-09-01T10:07:28Z</time><extensions><speed>1.303917</speed><course>334.704010</course><hAcc>0.881651</hAcc><vAcc>0.693484</vAcc></extensions></trkpt>
      <trkpt lon="-3.161187" lat="53.012010"><ele>305.346405</ele><time>2021-09-01T10:07:29Z</time><extensions><speed>1.281677</speed><course>336.400421</course><hAcc>0.881642</hAcc><vAcc>0.693429</vAcc></extensions></trkpt>
      <trkpt lon="-3.161174" lat="53.012019"><ele>305.497925</ele><time>2021-09-01T10:07:30Z</time><extensions><speed>1.255030</speed><course>347.265839</course><hAcc>0.881632</hAcc><vAcc>0.693389</vAcc></extensions></trkpt>
      <trkpt lon="-3.161162" lat="53.012027"><ele>305.643982</ele><time>2021-09-01T10:07:31Z</time><extensions><speed>1.224632</speed><course>344.062927</course><hAcc>0.881622</hAcc><vAcc>0.693366</vAcc></extensions></trkpt>
      <trkpt lon="-3.161149" lat="53.012035"><ele>305.783630</ele><time>2021-09-01T10:07:32Z</time><extensions><speed>1.191183</speed><course>337.032654</course><hAcc>0.881609</hAcc><vAcc>0.693352</vAcc></extensions></trkpt>
      <trkpt lon="-3.161137" lat="53.012043"><ele>305.916656</ele><time>2021-09-01T10:07:33Z</time><extensions><speed>1.155296</speed><course>338.548584</course><hAcc>0.881588</hAcc><vAcc>0.693334</vAcc></extensions></trkpt>
      <trkpt lon="-3.161126" lat="53.012050"><ele>306.043854</ele><time>2021-09-01T10:07:34Z</time><extensions><speed>1.117902</speed><course>340.790558</course><hAcc>0.881556</hAcc><vAcc>0.693292</vAcc></extensions></trkpt>
      <trkpt lon="-3.161115" lat="53.012057"><ele>306.166138</ele><time>2021-09-01T10:07:35Z</time><extensions><speed>1.079797</speed><course>331.528198</course><hAcc>0.881506</hAcc><vAcc>0.693202</vAcc></extensions></trkpt>
      <trkpt lon="-3.161104" lat="53.012064"><ele>306.283936</ele><time>2021-09-01T10:07:36Z</time><extensions><speed>1.041145</speed><course>326.705475</course><hAcc>0.881433</hAcc><vAcc>0.693038</vAcc></extensions></trkpt>
      <trkpt lon="-3.161093" lat="53.012071"><ele>306.397247</ele><time>2021-09-01T10:07:37Z</time><extensions><speed>1.002334</speed><course>334.332062</course><hAcc>0.881331</hAcc><vAcc>0.692775</vAcc></extensions></trkpt>
      <trkpt lon="-3.161083" lat="53.012077"><ele>306.505798</ele><time>2021-09-01T10:07:38Z</time><extensions><speed>0.963794</speed><course>321.684448</course><hAcc>0.881196</hAcc><vAcc>0.692392</vAcc></extensions></trkpt>
      <trkpt lon="-3.161073" lat="53.012083"><ele>306.609131</ele><time>2021-09-01T10:07:39Z</time><extensions><speed>0.925785</speed><course>319.446838</course><hAcc>0.881026</hAcc><vAcc>0.691877</vAcc></extensions></trkpt>
      <trkpt lon="-3.161064" lat="53.012089"><ele>306.706573</ele><time>2021-09-01T10:07:40Z</time><extensions><speed>0.889263</speed><course>327.299927</course><hAcc>0.880822</hAcc><vAcc>0.691227</vAcc></extensions></trkpt>
      <trkpt lon="-3.161055" lat="53.012095"><ele>306.797150</ele><time>2021-09-01T10:07:41Z</time><extensions><speed>0.855956</speed><course>327.362518</course><hAcc>0.880586</hAcc><vAcc>0.690453</vAcc></extensions></trkpt>
      <trkpt lon="-3.161046" lat="53.012100"><ele>306.879333</ele><time>2021-09-01T10:07:42Z</time><extensions><speed>0.827465</speed><course>320.449799</course><hAcc>0.880325</hAcc><vAcc>0.689574</vAcc></extensions></trkpt>
      <trkpt lon="-3.161038" lat="53.012106"><ele>306.951294</ele><time>2021-09-01T10:07:43Z</time><extensions><speed>0.804700</speed><course>323.666901</course><hAcc>0.880048</hAcc><vAcc>0.688618</vAcc></extensions></trkpt>
      <trkpt lon="-3.161030" lat="53.012111"><ele>307.011353</ele><time>2021-09-01T10:07:44Z</time><extensions><speed>0.788412</speed><course>325.310486</course><hAcc>0.879765</hAcc><vAcc>0.687627</vAcc></extensions></trkpt>
      <trkpt lon="-3.161023" lat="53.012116"><ele>307.058289</ele><time>2021-09-01T10:07:45Z</time><extensions><speed>0.779169</speed><course>323.024933</course><hAcc>0.879492</hAcc><vAcc>0.686650</vAcc></extensions></trkpt>
      <trkpt lon="-3.161016" lat="53.012122"><ele>307.091919</ele><time>2021-09-01T10:07:46Z</time><extensions><speed>0.777924</speed><course>321.641022</course><hAcc>0.879241</hAcc><vAcc>0.685743</vAcc></extensions></trkpt>
      <trkpt lon="-3.161009" lat="53.012128"><ele>307.112946</ele><time>2021-09-01T10:07:47Z</time><extensions><speed>0.785923</speed><course>323.471222</course><hAcc>0.879028</hAcc><vAcc>0.684961</vAcc></extensions></trkpt>
      <trkpt lon="-3.161002" lat="53.012133"><ele>307.122589</ele><time>2021-09-01T10:07:48Z</time><extensions><speed>0.803256</speed><course>324.875793</course><hAcc>0.878866</hAcc><vAcc>0.684361</vAcc></extensions></trkpt>
      <trkpt lon="-3.160995" lat="53.012139"><ele>307.122253</ele><time>2021-09-01T10:07:49Z</time><extensions><speed>0.829049</speed><course>318.989594</course><hAcc>0.878764</hAcc><vAcc>0.683995</vAcc></extensions></trkpt>
      <trkpt lon="-3.160988" lat="53.012146"><ele>307.113525</ele><time>2021-09-01T10:07:50Z</time><extensions><speed>0.861915</speed><course>325.887390</course><hAcc>0.878730</hAcc><vAcc>0.683899</vAcc></extensions></trkpt>
      <trkpt lon="-3.160980" lat="53.012152"><ele>307.098297</ele><time>2021-09-01T10:07:51Z</time><extensions><speed>0.900024</speed><course>320.176544</course><hAcc>0.878763</hAcc><vAcc>0.684078</vAcc></extensions></trkpt>
      <trkpt lon="-3.160973" lat="53.012159"><ele>307.078430</ele><time>2021-09-01T10:07:52Z</time><extensions><speed>0.941312</speed><course>316.970215</course><hAcc>0.878853</hAcc><vAcc>0.684488</vAcc></extensions></trkpt>
      <trkpt lon="-3.160965" lat="53.012166"><ele>307.055450</ele><time>2021-09-01T10:07:53Z</time><extensions><speed>0.983841</speed><course>317.579376</course><hAcc>0.878987</hAcc><vAcc>0.685058</vAcc></extensions></trkpt>
      <trkpt lon="-3.160957" lat="53.012174"><ele>307.030304</ele><time>2021-09-01T10:07:54Z</time><extensions><speed>1.025805</speed><course>318.426422</course><hAcc>0.879146</hAcc><vAcc>0.685703</vAcc></extensions></trkpt>
      <trkpt lon="-3.160948" lat="53.012182"><ele>307.003632</ele><time>2021-09-01T10:07:55Z</time><extensions><speed>1.065668</speed><course>326.252594</course><hAcc>0.879312</hAcc><vAcc>0.686350</vAcc></extensions></trkpt>
      <trkpt lon="-3.160940" lat="53.012190"><ele>306.976044</ele><time>2021-09-01T10:07:56Z</time><extensions><speed>1.102602</speed><course>323.145020</course><hAcc>0.879472</hAcc><vAcc>0.686937</vAcc></extensions></trkpt>
      <trkpt lon="-3.160931" lat="53.012198"><ele>306.948547</ele><time>2021-09-01T10:07:57Z</time><extensions><speed>1.136569</speed><course>325.683777</course><hAcc>0.879614</hAcc><vAcc>0.687426</vAcc></extensions></trkpt>
      <trkpt lon="-3.160921" lat="53.012207"><ele>306.922302</ele><time>2021-09-01T10:07:58Z</time><extensions><speed>1.167882</speed><course>328.591705</course><hAcc>0.879732</hAcc><vAcc>0.687791</vAcc></extensions></trkpt>
      <trkpt lon="-3.160911" lat="53.012216"><ele>306.898376</ele><time>2021-09-01T10:07:59Z</time><extensions><speed>1.196905</speed><course>330.002411</course><hAcc>0.879822</hAcc><vAcc>0.688031</vAcc></extensions></trkpt>
      <trkpt lon="-3.160901" lat="53.012225"><ele>306.877533</ele><time>2021-09-01T10:08:00Z</time><extensions><speed>1.223498</speed><course>336.475830</course><hAcc>0.879887</hAcc><vAcc>0.688160</vAcc></extensions></trkpt>
      <trkpt lon="-3.160890" lat="53.012234"><ele>306.860291</ele><time>2021-09-01T10:08:01Z</time><extensions><speed>1.246321</speed><course>344.051849</course><hAcc>0.879932</hAcc><vAcc>0.688207</vAcc></extensions></trkpt>
      <trkpt lon="-3.160879" lat="53.012243"><ele>306.847382</ele><time>2021-09-01T10:08:02Z</time><extensions><speed>1.264096</speed><course>336.407532</course><hAcc>0.879966</hAcc><vAcc>0.688209</vAcc></extensions></trkpt>
      <trkpt lon="-3.160867" lat="53.012252"><ele>306.839661</ele><time>2021-09-01T10:08:03Z</time><extensions><speed>1.276799</speed><course>333.640045</course><hAcc>0.879998</hAcc><vAcc>0.688205</vAcc></extensions></trkpt>
      <trkpt lon="-3.160855" lat="53.012261"><ele>306.837677</ele><time>2021-09-01T10:08:04Z</time><extensions><speed>1.285240</speed><course>342.498993</course><hAcc>0.880038</hAcc><vAcc>0.688240</vAcc></extensions></trkpt>
      <trkpt lon="-3.160843" lat="53.012269"><ele>306.841766</ele><time>2021-09-01T10:08:05Z</time><extensions><speed>1.290392</speed><course>346.370605</course><hAcc>0.880095</hAcc><vAcc>0.688356</vAcc></extensions></trkpt>
      <trkpt lon="-3.160830" lat="53.012278"><ele>306.852478</ele><time>2021-09-01T10:08:06Z</time><extensions><speed>1.292847</speed><course>342.144836</course><hAcc>0.880175</hAcc><vAcc>0.688585</vAcc></extensions></trkpt>
      <trkpt lon="-3.160817" lat="53.012287"><ele>306.870483</ele><time>2021-09-01T10:08:07Z</time><extensions><speed>1.292917</speed><course>335.813446</course><hAcc>0.880280</hAcc><vAcc>0.688941</vAcc></extensions></trkpt>
      <trkpt lon="-3.160803" lat="53.012295"><ele>306.896393</ele><time>2021-09-01T10:08:08Z</time><extensions><speed>1.290912</speed><course>332.699371</course><hAcc>0.880408</hAcc><vAcc>0.689411</vAcc></extensions></trkpt>
      <trkpt lon="-3.160789" lat="53.012303"><ele>306.930695</ele><time>2021-09-01T10:08:09Z</time><extensions><speed>1.287628</speed><course>329.959167</course><hAcc>0.880553</hAcc><vAcc>0.689962</vAcc></extensions></trkpt>
      <trkpt lon="-3.160775" lat="53.012311"><ele>306.973511</ele><time>2021-09-01T10:08:10Z</time><extensions><speed>1.283957</speed><course>328.573547</course><hAcc>0.880706</hAcc><vAcc>0.690553</vAcc></extensions></trkpt>
      <trkpt lon="-3.160761" lat="53.012319"><ele>307.024506</ele><time>2021-09-01T10:08:11Z</time><extensions><speed>1.280127</speed><course>326.699219</course><hAcc>0.880857</hAcc><vAcc>0.691138</vAcc></extensions></trkpt>
      <trkpt lon="-3.160747" lat="53.012326"><ele>307.083038</ele><time>2021-09-01T10:08:12Z</time><extensions><speed>1.275678</speed><course>323.768890</course><hAcc>0.880994</hAcc><vAcc>0.691673</vAcc></extensions></trkpt>
      <trkpt lon="-3.160733" lat="53.012334"><ele>307.147980</ele><time>2021-09-01T10:08:13Z</time><extensions><speed>1.269424</speed><course>323.826019</course><hAcc>0.881108</hAcc><vAcc>0.692116</vAcc></extensions></trkpt>
      <trkpt lon="-3.160719" lat="53.012341"><ele>307.217468</ele><time>2021-09-01T10:08:14Z</time><extensions><speed>1.260373</speed><course>332.271057</course><hAcc>0.881193</hAcc><vAcc>0.692432</vAcc></extensions></trkpt>
      <trkpt lon="-3.160705" lat="53.012349"><ele>307.288666</ele><time>2021-09-01T10:08:15Z</time><extensions><speed>1.248054</speed><course>333.951233</course><hAcc>0.881242</hAcc><vAcc>0.692596</vAcc></extensions></trkpt>
      <trkpt lon="-3.160691" lat="53.012356"><ele>307.358215</ele><time>2021-09-01T10:08:16Z</time><extensions><speed>1.232447</speed><course>329.776917</course><hAcc>0.881257</hAcc><vAcc>0.692593</vAcc></extensions></trkpt>
      <trkpt lon="-3.160677" lat="53.012363"><ele>307.423584</ele><time>2021-09-01T10:08:18Z</time><extensions><speed>1.214135</speed><course>319.463959</course><hAcc>0.881219</hAcc><vAcc>0.692413</vAcc></extensions></trkpt>
      <trkpt lon="-3.160664" lat="53.012370"><ele>307.483368</ele><time>2021-09-01T10:08:19Z</time><extensions><speed>1.194094</speed><course>318.313507</course><hAcc>0.881136</hAcc><vAcc>0.692085</vAcc></extensions></trkpt>
      <trkpt lon="-3.160650" lat="53.012377"><ele>307.537781</ele><time>2021-09-01T10:08:20Z</time><extensions><speed>1.173553</speed><course>318.491211</course><hAcc>0.881035</hAcc><vAcc>0.691669</vAcc></extensions></trkpt>
      <trkpt lon="-3.160637" lat="53.012384"><ele>307.588013</ele><time>2021-09-01T10:08:21Z</time><extensions><speed>1.154049</speed><course>324.025574</course><hAcc>0.880924</hAcc><vAcc>0.691221</vAcc></extensions></trkpt>
      <trkpt lon="-3.160624" lat="53.012391"><ele>307.635590</ele><time>2021-09-01T10:08:22Z</time><extensions><speed>1.137185</speed><course>330.489594</course><hAcc>0.880813</hAcc><vAcc>0.690795</vAcc></extensions></trkpt>
      <trkpt lon="-3.160612" lat="53.012398"><ele>307.681641</ele><time>2021-09-01T10:08:23Z</time><extensions><speed>1.124319</speed><course>319.490967</course><hAcc>0.880711</hAcc><vAcc>0.690436</vAcc></extensions></trkpt>
      <trkpt lon="-3.160599" lat="53.012404"><ele>307.726929</ele><time>2021-09-01T10:08:23Z</time><extensions><speed>1.115335</speed><course>318.785126</course><hAcc>0.880643</hAcc><vAcc>0.690191</vAcc></extensions></trkpt>
      <trkpt lon="-3.160586" lat="53.012411"><ele>307.772369</ele><time>2021-09-01T10:08:24Z</time><extensions><speed>1.109068</speed><course>319.524078</course><hAcc>0.880612</hAcc><vAcc>0.690076</vAcc></extensions></trkpt>
      <trkpt lon="-3.160573" lat="53.012417"><ele>307.818787</ele><time>2021-09-01T10:08:25Z</time><extensions><speed>1.104473</speed><course>320.200592</course><hAcc>0.880600</hAcc><vAcc>0.690074</vAcc></extensions></trkpt>
      <trkpt lon="-3.160560" lat="53.012423"><ele>307.866974</ele><time>2021-09-01T10:08:26Z</time><extensions><speed>1.100627</speed><course>316.905914</course><hAcc>0.880604</hAcc><vAcc>0.690159</vAcc></extensions></trkpt>
      <trkpt lon="-3.160547" lat="53.012429"><ele>307.917908</ele><time>2021-09-01T10:08:27Z</time><extensions><speed>1.097969</speed><course>304.890350</course><hAcc>0.880617</hAcc><vAcc>0.690289</vAcc></extensions></trkpt>
      <trkpt lon="-3.160534" lat="53.012435"><ele>307.972443</ele><time>2021-09-01T10:08:28Z</time><extensions><speed>1.097514</speed><course>307.400696</course><hAcc>0.880632</hAcc><vAcc>0.690419</vAcc></extensions></trkpt>
      <trkpt lon="-3.160521" lat="53.012441"><ele>308.031067</ele><time>2021-09-01T10:08:29Z</time><extensions><speed>1.099414</speed><course>312.802460</course><hAcc>0.880640</hAcc><vAcc>0.690509</vAcc></extensions></trkpt>
      <trkpt lon="-3.160508" lat="53.012447"><ele>308.094025</ele><time>2021-09-01T10:08:30Z</time><extensions><speed>1.103103</speed><course>316.368164</course><hAcc>0.880636</hAcc><vAcc>0.690535</vAcc></extensions></trkpt>
      <trkpt lon="-3.160494" lat="53.012452"><ele>308.161499</ele><time>2021-09-01T10:08:31Z</time><extensions><speed>1.107386</speed><course>316.320160</course><hAcc>0.880615</hAcc><vAcc>0.690481</vAcc></extensions></trkpt>
      <trkpt lon="-3.160480" lat="53.012458"><ele>308.233429</ele><time>2021-09-01T10:08:32Z</time><extensions><speed>1.111231</speed><course>316.450867</course><hAcc>0.880576</hAcc><vAcc>0.690343</vAcc></extensions></trkpt>
      <trkpt lon="-3.160466" lat="53.012463"><ele>308.309631</ele><time>2021-09-01T10:08:33Z</time><extensions><speed>1.113936</speed><course>319.349792</course><hAcc>0.880519</hAcc><vAcc>0.690122</vAcc></extensions></trkpt>
      <trkpt lon="-3.160452" lat="53.012468"><ele>308.389557</ele><time>2021-09-01T10:08:34Z</time><extensions><speed>1.115232</speed><course>313.071381</course><hAcc>0.880446</hAcc><vAcc>0.689831</vAcc></extensions></trkpt>
      <trkpt lon="-3.160438" lat="53.012474"><ele>308.472534</ele><time>2021-09-01T10:08:35Z</time><extensions><speed>1.115451</speed><course>306.006348</course><hAcc>0.880364</hAcc><vAcc>0.689497</vAcc></extensions></trkpt>
      <trkpt lon="-3.160424" lat="53.012479"><ele>308.557831</ele><time>2021-09-01T10:08:36Z</time><extensions><speed>1.114864</speed><course>311.452911</course><hAcc>0.880277</hAcc><vAcc>0.689152</vAcc></extensions></trkpt>
      <trkpt lon="-3.160410" lat="53.012484"><ele>308.644714</ele><time>2021-09-01T10:08:37Z</time><extensions><speed>1.113446</speed><course>310.591675</course><hAcc>0.880194</hAcc><vAcc>0.688830</vAcc></extensions></trkpt>
      <trkpt lon="-3.160396" lat="53.012489"><ele>308.732758</ele><time>2021-09-01T10:08:38Z</time><extensions><speed>1.110871</speed><course>316.620819</course><hAcc>0.880120</hAcc><vAcc>0.688553</vAcc></extensions></trkpt>
      <trkpt lon="-3.160381" lat="53.012494"><ele>308.822174</ele><time>2021-09-01T10:08:39Z</time><extensions><speed>1.107296</speed><course>320.076630</course><hAcc>0.880059</hAcc><vAcc>0.688335</vAcc></extensions></trkpt>
      <trkpt lon="-3.160367" lat="53.012499"><ele>308.913177</ele><time>2021-09-01T10:08:40Z</time><extensions><speed>1.103359</speed><course>314.990906</course><hAcc>0.880014</hAcc><vAcc>0.688184</vAcc></extensions></trkpt>
      <trkpt lon="-3.160353" lat="53.012504"><ele>309.005981</ele><time>2021-09-01T10:08:41Z</time><extensions><speed>1.099618</speed><course>313.547699</course><hAcc>0.879988</hAcc><vAcc>0.688102</vAcc></extensions></trkpt>
      <trkpt lon="-3.160339" lat="53.012510"><ele>309.101166</ele><time>2021-09-01T10:08:42Z</time><extensions><speed>1.096556</speed><course>312.795837</course><hAcc>0.879979</hAcc><vAcc>0.688092</vAcc></extensions></trkpt>
      <trkpt lon="-3.160325" lat="53.012515"><ele>309.199280</ele><time>2021-09-01T10:08:43Z</time><extensions><speed>1.094618</speed><course>316.185669</course><hAcc>0.879989</hAcc><vAcc>0.688153</vAcc></extensions></trkpt>
      <trkpt lon="-3.160312" lat="53.012520"><ele>309.301025</ele><time>2021-09-01T10:08:44Z</time><extensions><speed>1.094005</speed><course>317.614319</course><hAcc>0.880013</hAcc><vAcc>0.688278</vAcc></extensions></trkpt>
      <trkpt lon="-3.160298" lat="53.012525"><ele>309.407379</ele><time>2021-09-01T10:08:45Z</time><extensions><speed>1.094760</speed><course>316.517609</course><hAcc>0.880049</hAcc><vAcc>0.688448</vAcc></extensions></trkpt>
      <trkpt lon="-3.160284" lat="53.012530"><ele>309.519287</ele><time>2021-09-01T10:08:46Z</time><extensions><speed>1.096972</speed><course>310.556824</course><hAcc>0.880090</hAcc><vAcc>0.688635</vAcc></extensions></trkpt>
      <trkpt lon="-3.160270" lat="53.012536"><ele>309.637451</ele><time>2021-09-01T10:08:47Z</time><extensions><speed>1.100219</speed><course>304.635742</course><hAcc>0.880131</hAcc><vAcc>0.688809</vAcc></extensions></trkpt>
      <trkpt lon="-3.160256" lat="53.012541"><ele>309.762360</ele><time>2021-09-01T10:08:48Z</time><extensions><speed>1.103182</speed><course>315.495270</course><hAcc>0.880168</hAcc><vAcc>0.688947</vAcc></extensions></trkpt>
      <trkpt lon="-3.160242" lat="53.012546"><ele>309.894379</ele><time>2021-09-01T10:08:49Z</time><extensions><speed>1.104013</speed><course>313.552460</course><hAcc>0.880199</hAcc><vAcc>0.689036</vAcc></extensions></trkpt>
      <trkpt lon="-3.160228" lat="53.012551"><ele>310.033264</ele><time>2021-09-01T10:08:50Z</time><extensions><speed>1.101400</speed><course>313.420563</course><hAcc>0.880221</hAcc><vAcc>0.689079</vAcc></extensions></trkpt>
      <trkpt lon="-3.160213" lat="53.012556"><ele>310.178436</ele><time>2021-09-01T10:08:51Z</time><extensions><speed>1.094754</speed><course>317.431976</course><hAcc>0.880237</hAcc><vAcc>0.689090</vAcc></extensions></trkpt>
      <trkpt lon="-3.160199" lat="53.012560"><ele>310.329468</ele><time>2021-09-01T10:08:52Z</time><extensions><speed>1.084666</speed><course>314.662933</course><hAcc>0.880247</hAcc><vAcc>0.689089</vAcc></extensions></trkpt>
      <trkpt lon="-3.160185" lat="53.012565"><ele>310.486084</ele><time>2021-09-01T10:08:53Z</time><extensions><speed>1.072718</speed><course>316.217957</course><hAcc>0.880253</hAcc><vAcc>0.689089</vAcc></extensions></trkpt>
      <trkpt lon="-3.160170" lat="53.012569"><ele>310.647827</ele><time>2021-09-01T10:08:54Z</time><extensions><speed>1.060134</speed><course>314.471741</course><hAcc>0.880254</hAcc><vAcc>0.689096</vAcc></extensions></trkpt>
      <trkpt lon="-3.160156" lat="53.012573"><ele>310.814209</ele><time>2021-09-01T10:08:55Z</time><extensions><speed>1.046912</speed><course>317.281403</course><hAcc>0.880250</hAcc><vAcc>0.689103</vAcc></extensions></trkpt>
      <trkpt lon="-3.160142" lat="53.012577"><ele>310.984772</ele><time>2021-09-01T10:08:56Z</time><extensions><speed>1.032555</speed><course>311.230988</course><hAcc>0.880237</hAcc><vAcc>0.689095</vAcc></extensions></trkpt>
      <trkpt lon="-3.160128" lat="53.012580"><ele>311.158997</ele><time>2021-09-01T10:08:57Z</time><extensions><speed>1.017146</speed><course>311.227600</course><hAcc>0.880214</hAcc><vAcc>0.689056</vAcc></extensions></trkpt>
      <trkpt lon="-3.160114" lat="53.012584"><ele>311.336487</ele><time>2021-09-01T10:08:58Z</time><extensions><speed>1.000684</speed><course>310.576416</course><hAcc>0.880175</hAcc><vAcc>0.688971</vAcc></extensions></trkpt>
      <trkpt lon="-3.160100" lat="53.012587"><ele>311.516968</ele><time>2021-09-01T10:08:59Z</time><extensions><speed>0.982518</speed><course>313.656311</course><hAcc>0.880120</hAcc><vAcc>0.688828</vAcc></extensions></trkpt>
      <trkpt lon="-3.160087" lat="53.012590"><ele>311.700195</ele><time>2021-09-01T10:09:00Z</time><extensions><speed>0.963061</speed><course>319.881683</course><hAcc>0.880044</hAcc><vAcc>0.688618</vAcc></extensions></trkpt>
      <trkpt lon="-3.160074" lat="53.012593"><ele>311.885803</ele><time>2021-09-01T10:09:01Z</time><extensions><speed>0.944193</speed><course>322.545044</course><hAcc>0.879945</hAcc><vAcc>0.688331</vAcc></extensions></trkpt>
      <trkpt lon="-3.160060" lat="53.012596"><ele>312.073181</ele><time>2021-09-01T10:09:02Z</time><extensions><speed>0.928297</speed><course>315.377472</course><hAcc>0.879823</hAcc><vAcc>0.687962</vAcc></extensions></trkpt>
      <trkpt lon="-3.160047" lat="53.012599"><ele>312.261749</ele><time>2021-09-01T10:09:03Z</time><extensions><speed>0.917648</speed><course>321.220673</course><hAcc>0.879677</hAcc><vAcc>0.687506</vAcc></extensions></trkpt>
      <trkpt lon="-3.160035" lat="53.012602"><ele>312.450714</ele><time>2021-09-01T10:09:04Z</time><extensions><speed>0.913581</speed><course>319.716766</course><hAcc>0.879508</hAcc><vAcc>0.686962</vAcc></extensions></trkpt>
      <trkpt lon="-3.160022" lat="53.012604"><ele>312.639374</ele><time>2021-09-01T10:09:05Z</time><extensions><speed>0.916956</speed><course>323.703217</course><hAcc>0.879320</hAcc><vAcc>0.686334</vAcc></extensions></trkpt>
      <trkpt lon="-3.160009" lat="53.012607"><ele>312.827087</ele><time>2021-09-01T10:09:06Z</time><extensions><speed>0.927985</speed><course>322.763458</course><hAcc>0.879118</hAcc><vAcc>0.685640</vAcc></extensions></trkpt>
      <trkpt lon="-3.159996" lat="53.012610"><ele>313.013031</ele><time>2021-09-01T10:09:07Z</time><extensions><speed>0.946137</speed><course>321.396271</course><hAcc>0.878909</hAcc><vAcc>0.684913</vAcc></extensions></trkpt>
      <trkpt lon="-3.159982" lat="53.012613"><ele>313.196228</ele><time>2021-09-01T10:09:08Z</time><extensions><speed>0.970276</speed><course>324.253845</course><hAcc>0.878700</hAcc><vAcc>0.684190</vAcc></extensions></trkpt>
      <trkpt lon="-3.159968" lat="53.012616"><ele>313.375824</ele><time>2021-09-01T10:09:09Z</time><extensions><speed>0.998756</speed><course>322.941711</course><hAcc>0.878500</hAcc><vAcc>0.683506</vAcc></extensions></trkpt>
      <trkpt lon="-3.159955" lat="53.012619"><ele>313.551086</ele><time>2021-09-01T10:09:10Z</time><extensions><speed>1.029598</speed><course>324.827728</course><hAcc>0.878314</hAcc><vAcc>0.682881</vAcc></extensions></trkpt>
      <trkpt lon="-3.159940" lat="53.012623"><ele>313.721008</ele><time>2021-09-01T10:09:11Z</time><extensions><speed>1.061368</speed><course>323.315277</course><hAcc>0.878147</hAcc><vAcc>0.682327</vAcc></extensions></trkpt>
      <trkpt lon="-3.159926" lat="53.012627"><ele>313.884491</ele><time>2021-09-01T10:09:12Z</time><extensions><speed>1.093258</speed><course>316.049652</course><hAcc>0.878000</hAcc><vAcc>0.681854</vAcc></extensions></trkpt>
      <trkpt lon="-3.159911" lat="53.012632"><ele>314.041077</ele><time>2021-09-01T10:09:13Z</time><extensions><speed>1.124371</speed><course>321.640442</course><hAcc>0.877875</hAcc><vAcc>0.681470</vAcc></extensions></trkpt>
      <trkpt lon="-3.159896" lat="53.012637"><ele>314.190552</ele><time>2021-09-01T10:09:14Z</time><extensions><speed>1.153716</speed><course>318.527374</course><hAcc>0.877771</hAcc><vAcc>0.681175</vAcc></extensions></trkpt>
      <trkpt lon="-3.159882" lat="53.012643"><ele>314.332581</ele><time>2021-09-01T10:09:15Z</time><extensions><speed>1.179819</speed><course>327.209106</course><hAcc>0.877685</hAcc><vAcc>0.680952</vAcc></extensions></trkpt>
      <trkpt lon="-3.159867" lat="53.012648"><ele>314.466858</ele><time>2021-09-01T10:09:16Z</time><extensions><speed>1.200587</speed><course>321.431091</course><hAcc>0.877609</hAcc><vAcc>0.680770</vAcc></extensions></trkpt>
      <trkpt lon="-3.159852" lat="53.012655"><ele>314.593079</ele><time>2021-09-01T10:09:17Z</time><extensions><speed>1.214482</speed><course>309.255585</course><hAcc>0.877535</hAcc><vAcc>0.680593</vAcc></extensions></trkpt>
      <trkpt lon="-3.159838" lat="53.012661"><ele>314.710724</ele><time>2021-09-01T10:09:18Z</time><extensions><speed>1.220523</speed><course>316.262177</course><hAcc>0.877456</hAcc><vAcc>0.680389</vAcc></extensions></trkpt>
      <trkpt lon="-3.159824" lat="53.012668"><ele>314.819275</ele><time>2021-09-01T10:09:19Z</time><extensions><speed>1.218677</speed><course>318.486328</course><hAcc>0.877365</hAcc><vAcc>0.680135</vAcc></extensions></trkpt>
      <trkpt lon="-3.159810" lat="53.012675"><ele>314.918304</ele><time>2021-09-01T10:09:20Z</time><extensions><speed>1.210394</speed><course>323.918549</course><hAcc>0.877257</hAcc><vAcc>0.679819</vAcc></extensions></trkpt>
      <trkpt lon="-3.159797" lat="53.012683"><ele>315.007446</ele><time>2021-09-01T10:09:21Z</time><extensions><speed>1.197165</speed><course>326.771637</course><hAcc>0.877128</hAcc><vAcc>0.679440</vAcc></extensions></trkpt>
      <trkpt lon="-3.159785" lat="53.012691"><ele>315.086487</ele><time>2021-09-01T10:09:22Z</time><extensions><speed>1.180521</speed><course>322.066162</course><hAcc>0.876976</hAcc><vAcc>0.678989</vAcc></extensions></trkpt>
      <trkpt lon="-3.159773" lat="53.012699"><ele>315.155273</ele><time>2021-09-01T10:09:23Z</time><extensions><speed>1.161743</speed><course>315.897980</course><hAcc>0.876796</hAcc><vAcc>0.678450</vAcc></extensions></trkpt>
      <trkpt lon="-3.159763" lat="53.012707"><ele>315.213562</ele><time>2021-09-01T10:09:24Z</time><extensions><speed>1.141837</speed><course>320.677979</course><hAcc>0.876586</hAcc><vAcc>0.677806</vAcc></extensions></trkpt>
      <trkpt lon="-3.159753" lat="53.012715"><ele>315.261047</ele><time>2021-09-01T10:09:25Z</time><extensions><speed>1.121938</speed><course>328.194458</course><hAcc>0.876345</hAcc><vAcc>0.677046</vAcc></extensions></trkpt>
      <trkpt lon="-3.159744" lat="53.012723"><ele>315.297333</ele><time>2021-09-01T10:09:26Z</time><extensions><speed>1.102460</speed><course>342.191681</course><hAcc>0.876076</hAcc><vAcc>0.676176</vAcc></extensions></trkpt>
      <trkpt lon="-3.159736" lat="53.012732"><ele>315.321960</ele><time>2021-09-01T10:09:27Z</time><extensions><speed>1.083209</speed><course>338.973602</course><hAcc>0.875785</hAcc><vAcc>0.675217</vAcc></extensions></trkpt>
      <trkpt lon="-3.159728" lat="53.012740"><ele>315.334656</ele><time>2021-09-01T10:09:28Z</time><extensions><speed>1.063613</speed><course>338.845032</course><hAcc>0.875481</hAcc><vAcc>0.674204</vAcc></extensions></trkpt>
      <trkpt lon="-3.159722" lat="53.012749"><ele>315.335541</ele><time>2021-09-01T10:09:29Z</time><extensions><speed>1.042531</speed><course>343.294373</course><hAcc>0.875173</hAcc><vAcc>0.673180</vAcc></extensions></trkpt>
      <trkpt lon="-3.159716" lat="53.012758"><ele>315.325348</ele><time>2021-09-01T10:09:30Z</time><extensions><speed>1.019001</speed><course>345.380096</course><hAcc>0.874874</hAcc><vAcc>0.672184</vAcc></extensions></trkpt>
      <trkpt lon="-3.159711" lat="53.012766"><ele>315.305328</ele><time>2021-09-01T10:09:31Z</time><extensions><speed>0.992670</speed><course>336.417389</course><hAcc>0.874590</hAcc><vAcc>0.671244</vAcc></extensions></trkpt>
      <trkpt lon="-3.159707" lat="53.012775"><ele>315.277802</ele><time>2021-09-01T10:09:32Z</time><extensions><speed>0.963929</speed><course>349.627289</course><hAcc>0.874329</hAcc><vAcc>0.670382</vAcc></extensions></trkpt>
      <trkpt lon="-3.159703" lat="53.012783"><ele>315.246033</ele><time>2021-09-01T10:09:33Z</time><extensions><speed>0.933805</speed><course>333.102356</course><hAcc>0.874100</hAcc><vAcc>0.669631</vAcc></extensions></trkpt>
      <trkpt lon="-3.159699" lat="53.012791"><ele>315.213593</ele><time>2021-09-01T10:09:34Z</time><extensions><speed>0.903821</speed><course>345.486877</course><hAcc>0.873908</hAcc><vAcc>0.669019</vAcc></extensions></trkpt>
      <trkpt lon="-3.159695" lat="53.012798"><ele>315.183441</ele><time>2021-09-01T10:09:35Z</time><extensions><speed>0.875846</speed><course>343.184906</course><hAcc>0.873758</hAcc><vAcc>0.668558</vAcc></extensions></trkpt>
      <trkpt lon="-3.159690" lat="53.012805"><ele>315.157776</ele><time>2021-09-01T10:09:36Z</time><extensions><speed>0.851974</speed><course>342.239624</course><hAcc>0.873644</hAcc><vAcc>0.668228</vAcc></extensions></trkpt>
      <trkpt lon="-3.159686" lat="53.012813"><ele>315.137970</ele><time>2021-09-01T10:09:37Z</time><extensions><speed>0.834026</speed><course>352.331055</course><hAcc>0.873560</hAcc><vAcc>0.667997</vAcc></extensions></trkpt>
      <trkpt lon="-3.159681" lat="53.012820"><ele>315.125092</ele><time>2021-09-01T10:09:38Z</time><extensions><speed>0.822474</speed><course>352.560638</course><hAcc>0.873498</hAcc><vAcc>0.667833</vAcc></extensions></trkpt>
      <trkpt lon="-3.159677" lat="53.012826"><ele>315.119965</ele><time>2021-09-01T10:09:39Z</time><extensions><speed>0.816345</speed><course>349.901215</course><hAcc>0.873451</hAcc><vAcc>0.667710</vAcc></extensions></trkpt>
      <trkpt lon="-3.159671" lat="53.012833"><ele>315.122986</ele><time>2021-09-01T10:09:40Z</time><extensions><speed>0.813592</speed><course>347.225525</course><hAcc>0.873415</hAcc><vAcc>0.667611</vAcc></extensions></trkpt>
      <trkpt lon="-3.159666" lat="53.012839"><ele>315.134064</ele><time>2021-09-01T10:09:41Z</time><extensions><speed>0.812240</speed><course>342.525452</course><hAcc>0.873383</hAcc><vAcc>0.667525</vAcc></extensions></trkpt>
      <trkpt lon="-3.159661" lat="53.012846"><ele>315.152863</ele><time>2021-09-01T10:09:42Z</time><extensions><speed>0.810318</speed><course>344.186432</course><hAcc>0.873351</hAcc><vAcc>0.667443</vAcc></extensions></trkpt>
      <trkpt lon="-3.159655" lat="53.012852"><ele>315.179047</ele><time>2021-09-01T10:09:43Z</time><extensions><speed>0.805378</speed><course>344.723938</course><hAcc>0.873314</hAcc><vAcc>0.667355</vAcc></extensions></trkpt>
      <trkpt lon="-3.159649" lat="53.012859"><ele>315.212646</ele><time>2021-09-01T10:09:44Z</time><extensions><speed>0.795489</speed><course>335.783966</course><hAcc>0.873267</hAcc><vAcc>0.667246</vAcc></extensions></trkpt>
      <trkpt lon="-3.159643" lat="53.012865"><ele>315.254150</ele><time>2021-09-01T10:09:45Z</time><extensions><speed>0.780021</speed><course>346.047455</course><hAcc>0.873201</hAcc><vAcc>0.667084</vAcc></extensions></trkpt>
      <trkpt lon="-3.159637" lat="53.012870"><ele>315.304199</ele><time>2021-09-01T10:09:46Z</time><extensions><speed>0.759737</speed><course>348.227631</course><hAcc>0.873106</hAcc><vAcc>0.666832</vAcc></extensions></trkpt>
      <trkpt lon="-3.159631" lat="53.012876"><ele>315.363037</ele><time>2021-09-01T10:09:47Z</time><extensions><speed>0.735796</speed><course>346.562134</course><hAcc>0.872975</hAcc><vAcc>0.666454</vAcc></extensions></trkpt>
      <trkpt lon="-3.159624" lat="53.012881"><ele>315.430634</ele><time>2021-09-01T10:09:48Z</time><extensions><speed>0.708800</speed><course>340.164734</course><hAcc>0.872801</hAcc><vAcc>0.665928</vAcc></extensions></trkpt>
      <trkpt lon="-3.159618" lat="53.012886"><ele>315.506561</ele><time>2021-09-01T10:09:49Z</time><extensions><speed>0.679175</speed><course>340.903290</course><hAcc>0.872584</hAcc><vAcc>0.665255</vAcc></extensions></trkpt>
      <trkpt lon="-3.159612" lat="53.012891"><ele>315.590485</ele><time>2021-09-01T10:09:50Z</time><extensions><speed>0.647803</speed><course>337.951172</course><hAcc>0.872324</hAcc><vAcc>0.664441</vAcc></extensions></trkpt>
      <trkpt lon="-3.159606" lat="53.012895"><ele>315.681885</ele><time>2021-09-01T10:09:51Z</time><extensions><speed>0.615167</speed><course>343.976532</course><hAcc>0.872024</hAcc><vAcc>0.663493</vAcc></extensions></trkpt>
      <trkpt lon="-3.159600" lat="53.012899"><ele>315.779877</ele><time>2021-09-01T10:09:52Z</time><extensions><speed>0.581685</speed><course>344.587616</course><hAcc>0.871687</hAcc><vAcc>0.662418</vAcc></extensions></trkpt>
      <trkpt lon="-3.159594" lat="53.012903"><ele>315.883301</ele><time>2021-09-01T10:09:53Z</time><extensions><speed>0.548846</speed><course>341.405151</course><hAcc>0.871319</hAcc><vAcc>0.661234</vAcc></extensions></trkpt>
      <trkpt lon="-3.159589" lat="53.012907"><ele>315.990845</ele><time>2021-09-01T10:09:54Z</time><extensions><speed>0.518745</speed><course>339.649231</course><hAcc>0.870930</hAcc><vAcc>0.659967</vAcc></extensions></trkpt>
      <trkpt lon="-3.159584" lat="53.012910"><ele>316.101227</ele><time>2021-09-01T10:09:55Z</time><extensions><speed>0.493363</speed><course>334.810822</course><hAcc>0.870531</hAcc><vAcc>0.658659</vAcc></extensions></trkpt>
      <trkpt lon="-3.159579" lat="53.012913"><ele>316.212952</ele><time>2021-09-01T10:09:56Z</time><extensions><speed>0.474030</speed><course>330.628723</course><hAcc>0.870138</hAcc><vAcc>0.657367</vAcc></extensions></trkpt>
      <trkpt lon="-3.159574" lat="53.012916"><ele>316.324371</ele><time>2021-09-01T10:09:57Z</time><extensions><speed>0.462439</speed><course>326.820862</course><hAcc>0.869771</hAcc><vAcc>0.656158</vAcc></extensions></trkpt>
      <trkpt lon="-3.159569" lat="53.012919"><ele>316.433716</ele><time>2021-09-01T10:09:58Z</time><extensions><speed>0.461214</speed><course>329.993256</course><hAcc>0.869444</hAcc><vAcc>0.655096</vAcc></extensions></trkpt>
      <trkpt lon="-3.159565" lat="53.012922"><ele>316.539490</ele><time>2021-09-01T10:09:59Z</time><extensions><speed>0.471791</speed><course>333.108307</course><hAcc>0.869169</hAcc><vAcc>0.654215</vAcc></extensions></trkpt>
      <trkpt lon="-3.159561" lat="53.012926"><ele>316.640808</ele><time>2021-09-01T10:10:00Z</time><extensions><speed>0.493894</speed><course>328.264221</course><hAcc>0.868947</hAcc><vAcc>0.653515</vAcc></extensions></trkpt>
      <trkpt lon="-3.159557" lat="53.012930"><ele>316.737244</ele><time>2021-09-01T10:10:01Z</time><extensions><speed>0.526295</speed><course>336.747131</course><hAcc>0.868775</hAcc><vAcc>0.652974</vAcc></extensions></trkpt>
      <trkpt lon="-3.159553" lat="53.012934"><ele>316.828735</ele><time>2021-09-01T10:10:02Z</time><extensions><speed>0.566629</speed><course>330.065033</course><hAcc>0.868650</hAcc><vAcc>0.652576</vAcc></extensions></trkpt>
      <trkpt lon="-3.159550" lat="53.012939"><ele>316.915344</ele><time>2021-09-01T10:10:03Z</time><extensions><speed>0.611873</speed><course>317.215851</course><hAcc>0.868575</hAcc><vAcc>0.652324</vAcc></extensions></trkpt>
      <trkpt lon="-3.159547" lat="53.012945"><ele>316.997406</ele><time>2021-09-01T10:10:04Z</time><extensions><speed>0.659088</speed><course>321.035828</course><hAcc>0.868556</hAcc><vAcc>0.652241</vAcc></extensions></trkpt>
      <trkpt lon="-3.159544" lat="53.012951"><ele>317.075684</ele><time>2021-09-01T10:10:05Z</time><extensions><speed>0.705159</speed><course>319.935577</course><hAcc>0.868601</hAcc><vAcc>0.652362</vAcc></extensions></trkpt>
      <trkpt lon="-3.159542" lat="53.012957"><ele>317.151489</ele><time>2021-09-01T10:10:06Z</time><extensions><speed>0.746922</speed><course>325.102844</course><hAcc>0.868719</hAcc><vAcc>0.652723</vAcc></extensions></trkpt>
      <trkpt lon="-3.159540" lat="53.012964"><ele>317.226685</ele><time>2021-09-01T10:10:07Z</time><extensions><speed>0.782906</speed><course>327.812073</course><hAcc>0.868918</hAcc><vAcc>0.653355</vAcc></extensions></trkpt>
      <trkpt lon="-3.159538" lat="53.012971"><ele>317.302795</ele><time>2021-09-01T10:10:08Z</time><extensions><speed>0.813695</speed><course>320.427582</course><hAcc>0.869197</hAcc><vAcc>0.654260</vAcc></extensions></trkpt>
      <trkpt lon="-3.159536" lat="53.012978"><ele>317.380676</ele><time>2021-09-01T10:10:09Z</time><extensions><speed>0.840406</speed><course>321.194977</course><hAcc>0.869548</hAcc><vAcc>0.655405</vAcc></extensions></trkpt>
      <trkpt lon="-3.159534" lat="53.012986"><ele>317.460632</ele><time>2021-09-01T10:10:10Z</time><extensions><speed>0.863768</speed><course>318.963165</course><hAcc>0.869956</hAcc><vAcc>0.656740</vAcc></extensions></trkpt>
      <trkpt lon="-3.159533" lat="53.012993"><ele>317.542908</ele><time>2021-09-01T10:10:11Z</time><extensions><speed>0.884317</speed><course>318.221771</course><hAcc>0.870409</hAcc><vAcc>0.658217</vAcc></extensions></trkpt>
      <trkpt lon="-3.159531" lat="53.013001"><ele>317.627350</ele><time>2021-09-01T10:10:12Z</time><extensions><speed>0.902674</speed><course>325.110291</course><hAcc>0.870893</hAcc><vAcc>0.659793</vAcc></extensions></trkpt>
      <trkpt lon="-3.159530" lat="53.013010"><ele>317.713135</ele><time>2021-09-01T10:10:13Z</time><extensions><speed>0.918963</speed><course>325.968475</course><hAcc>0.871396</hAcc><vAcc>0.661424</vAcc></extensions></trkpt>
      <trkpt lon="-3.159529" lat="53.013018"><ele>317.799194</ele><time>2021-09-01T10:10:14Z</time><extensions><speed>0.932942</speed><course>319.629425</course><hAcc>0.871901</hAcc><vAcc>0.663056</vAcc></extensions></trkpt>
      <trkpt lon="-3.159527" lat="53.013026"><ele>317.884918</ele><time>2021-09-01T10:10:15Z</time><extensions><speed>0.945130</speed><course>319.103638</course><hAcc>0.872396</hAcc><vAcc>0.664640</vAcc></extensions></trkpt>
      <trkpt lon="-3.159526" lat="53.013035"><ele>317.970154</ele><time>2021-09-01T10:10:16Z</time><extensions><speed>0.956613</speed><course>314.591980</course><hAcc>0.872869</hAcc><vAcc>0.666139</vAcc></extensions></trkpt>
      <trkpt lon="-3.159524" lat="53.013043"><ele>318.054840</ele><time>2021-09-01T10:10:17Z</time><extensions><speed>0.968638</speed><course>315.007294</course><hAcc>0.873314</hAcc><vAcc>0.667528</vAcc></extensions></trkpt>
      <trkpt lon="-3.159523" lat="53.013052"><ele>318.138733</ele><time>2021-09-01T10:10:18Z</time><extensions><speed>0.982025</speed><course>322.287598</course><hAcc>0.873727</hAcc><vAcc>0.668798</vAcc></extensions></trkpt>
      <trkpt lon="-3.159522" lat="53.013061"><ele>318.221375</ele><time>2021-09-01T10:10:19Z</time><extensions><speed>0.996923</speed><course>320.536743</course><hAcc>0.874107</hAcc><vAcc>0.669951</vAcc></extensions></trkpt>
      <trkpt lon="-3.159520" lat="53.013070"><ele>318.302368</ele><time>2021-09-01T10:10:20Z</time><extensions><speed>1.013572</speed><course>317.691437</course><hAcc>0.874455</hAcc><vAcc>0.670998</vAcc></extensions></trkpt>
      <trkpt lon="-3.159519" lat="53.013079"><ele>318.381470</ele><time>2021-09-01T10:10:21Z</time><extensions><speed>1.032258</speed><course>319.879181</course><hAcc>0.874775</hAcc><vAcc>0.671950</vAcc></extensions></trkpt>
      <trkpt lon="-3.159517" lat="53.013088"><ele>318.458496</ele><time>2021-09-01T10:10:22Z</time><extensions><speed>1.052915</speed><course>320.065887</course><hAcc>0.875069</hAcc><vAcc>0.672822</vAcc></extensions></trkpt>
      <trkpt lon="-3.159516" lat="53.013098"><ele>318.533051</ele><time>2021-09-01T10:10:24Z</time><extensions><speed>1.075355</speed><course>321.533569</course><hAcc>0.875322</hAcc><vAcc>0.673612</vAcc></extensions></trkpt>
      <trkpt lon="-3.159515" lat="53.013108"><ele>318.604401</ele><time>2021-09-01T10:10:25Z</time><extensions><speed>1.098575</speed><course>324.813110</course><hAcc>0.875535</hAcc><vAcc>0.674324</vAcc></extensions></trkpt>
      <trkpt lon="-3.159514" lat="53.013118"><ele>318.672180</ele><time>2021-09-01T10:10:26Z</time><extensions><speed>1.121181</speed><course>329.013580</course><hAcc>0.875725</hAcc><vAcc>0.674970</vAcc></extensions></trkpt>
      <trkpt lon="-3.159513" lat="53.013128"><ele>318.736084</ele><time>2021-09-01T10:10:27Z</time><extensions><speed>1.141677</speed><course>324.901581</course><hAcc>0.875889</hAcc><vAcc>0.675536</vAcc></extensions></trkpt>
      <trkpt lon="-3.159512" lat="53.013138"><ele>318.796143</ele><time>2021-09-01T10:10:28Z</time><extensions><speed>1.158282</speed><course>318.603180</course><hAcc>0.876025</hAcc><vAcc>0.676008</vAcc></extensions></trkpt>
      <trkpt lon="-3.159512" lat="53.013149"><ele>318.852753</ele><time>2021-09-01T10:10:29Z</time><extensions><speed>1.169592</speed><course>314.278656</course><hAcc>0.876128</hAcc><vAcc>0.676373</vAcc></extensions></trkpt>
      <trkpt lon="-3.159512" lat="53.013159"><ele>318.906616</ele><time>2021-09-01T10:10:30Z</time><extensions><speed>1.174582</speed><course>319.463074</course><hAcc>0.876198</hAcc><vAcc>0.676626</vAcc></extensions></trkpt>
      <trkpt lon="-3.159512" lat="53.013170"><ele>318.958557</ele><time>2021-09-01T10:10:31Z</time><extensions><speed>1.171713</speed><course>323.368469</course><hAcc>0.876231</hAcc><vAcc>0.676760</vAcc></extensions></trkpt>
      <trkpt lon="-3.159512" lat="53.013180"><ele>319.009796</ele><time>2021-09-01T10:10:32Z</time><extensions><speed>1.158932</speed><course>324.877350</course><hAcc>0.876225</hAcc><vAcc>0.676762</vAcc></extensions></trkpt>
      <trkpt lon="-3.159513" lat="53.013190"><ele>319.062317</ele><time>2021-09-01T10:10:33Z</time><extensions><speed>1.134793</speed><course>328.239716</course><hAcc>0.876176</hAcc><vAcc>0.676625</vAcc></extensions></trkpt>
      <trkpt lon="-3.159514" lat="53.013200"><ele>319.118164</ele><time>2021-09-01T10:10:33Z</time><extensions><speed>1.098904</speed><course>325.680328</course><hAcc>0.876104</hAcc><vAcc>0.676370</vAcc></extensions></trkpt>
      <trkpt lon="-3.159515" lat="53.013210"><ele>319.178802</ele><time>2021-09-01T10:10:34Z</time><extensions><speed>1.051585</speed><course>329.865967</course><hAcc>0.876009</hAcc><vAcc>0.676012</vAcc></extensions></trkpt>
      <trkpt lon="-3.159516" lat="53.013219"><ele>319.244293</ele><time>2021-09-01T10:10:35Z</time><extensions><speed>0.993671</speed><course>328.590454</course><hAcc>0.875871</hAcc><vAcc>0.675553</vAcc></extensions></trkpt>
      <trkpt lon="-3.159518" lat="53.013228"><ele>319.313782</ele><time>2021-09-01T10:10:36Z</time><extensions><speed>0.925960</speed><course>328.102966</course><hAcc>0.875689</hAcc><vAcc>0.674997</vAcc></extensions></trkpt>
      <trkpt lon="-3.159519" lat="53.013236"><ele>319.386139</ele><time>2021-09-01T10:10:37Z</time><extensions><speed>0.850492</speed><course>314.592194</course><hAcc>0.875457</hAcc><vAcc>0.674324</vAcc></extensions></trkpt>
      <trkpt lon="-3.159521" lat="53.013243"><ele>319.460266</ele><time>2021-09-01T10:10:38Z</time><extensions><speed>0.770354</speed><course>318.557648</course><hAcc>0.875161</hAcc><vAcc>0.673492</vAcc></extensions></trkpt>
      <trkpt lon="-3.159522" lat="53.013249"><ele>319.535065</ele><time>2021-09-01T10:10:40Z</time><extensions><speed>0.689151</speed><course>323.922150</course><hAcc>0.874770</hAcc><vAcc>0.672422</vAcc></extensions></trkpt>
      <trkpt lon="-3.159524" lat="53.013255"><ele>319.609039</ele><time>2021-09-01T10:10:41Z</time><extensions><speed>0.611175</speed><course>321.145691</course><hAcc>0.874267</hAcc><vAcc>0.671042</vAcc></extensions></trkpt>
      <trkpt lon="-3.159526" lat="53.013260"><ele>319.680817</ele><time>2021-09-01T10:10:41Z</time><extensions><speed>0.539457</speed><course>322.786774</course><hAcc>0.873673</hAcc><vAcc>0.669305</vAcc></extensions></trkpt>
      <trkpt lon="-3.159528" lat="53.013265"><ele>319.749146</ele><time>2021-09-01T10:10:42Z</time><extensions><speed>0.476055</speed><course>326.716736</course><hAcc>0.872980</hAcc><vAcc>0.667151</vAcc></extensions></trkpt>
      <trkpt lon="-3.159529" lat="53.013269"><ele>319.812653</ele><time>2021-09-01T10:10:43Z</time><extensions><speed>0.423241</speed><course>329.036499</course><hAcc>0.872167</hAcc><vAcc>0.664533</vAcc></extensions></trkpt>
      <trkpt lon="-3.159531" lat="53.013272"><ele>319.870056</ele><time>2021-09-01T10:10:44Z</time><extensions><speed>0.382838</speed><course>334.350830</course><hAcc>0.871241</hAcc><vAcc>0.661432</vAcc></extensions></trkpt>
      <trkpt lon="-3.159532" lat="53.013275"><ele>319.920258</ele><time>2021-09-01T10:10:45Z</time><extensions><speed>0.355995</speed><course>328.154053</course><hAcc>0.870213</hAcc><vAcc>0.657847</vAcc></extensions></trkpt>
      <trkpt lon="-3.159534" lat="53.013278"><ele>319.962799</ele><time>2021-09-01T10:10:46Z</time><extensions><speed>0.343339</speed><course>334.753510</course><hAcc>0.869109</hAcc><vAcc>0.653821</vAcc></extensions></trkpt>
      <trkpt lon="-3.159535" lat="53.013281"><ele>319.998077</ele><time>2021-09-01T10:10:47Z</time><extensions><speed>0.345056</speed><course>331.588837</course><hAcc>0.867957</hAcc><vAcc>0.649431</vAcc></extensions></trkpt>
      <trkpt lon="-3.159536" lat="53.013284"><ele>320.027100</ele><time>2021-09-01T10:10:48Z</time><extensions><speed>0.360666</speed><course>334.240753</course><hAcc>0.866791</hAcc><vAcc>0.644774</vAcc></extensions></trkpt>
      <trkpt lon="-3.159537" lat="53.013288"><ele>320.051422</ele><time>2021-09-01T10:10:49Z</time><extensions><speed>0.389260</speed><course>338.277435</course><hAcc>0.865633</hAcc><vAcc>0.639950</vAcc></extensions></trkpt>
      <trkpt lon="-3.159538" lat="53.013291"><ele>320.072815</ele><time>2021-09-01T10:10:50Z</time><extensions><speed>0.429913</speed><course>328.841278</course><hAcc>0.864503</hAcc><vAcc>0.635073</vAcc></extensions></trkpt>
      <trkpt lon="-3.159539" lat="53.013295"><ele>320.093292</ele><time>2021-09-01T10:10:51Z</time><extensions><speed>0.482472</speed><course>323.726990</course><hAcc>0.863407</hAcc><vAcc>0.630285</vAcc></extensions></trkpt>
      <trkpt lon="-3.159540" lat="53.013300"><ele>320.115753</ele><time>2021-09-01T10:10:52Z</time><extensions><speed>0.547040</speed><course>317.846680</course><hAcc>0.862337</hAcc><vAcc>0.625738</vAcc></extensions></trkpt>
      <trkpt lon="-3.159541" lat="53.013305"><ele>320.143982</ele><time>2021-09-01T10:10:53Z</time><extensions><speed>0.622562</speed><course>319.877411</course><hAcc>0.861273</hAcc><vAcc>0.621580</vAcc></extensions></trkpt>
      <trkpt lon="-3.159541" lat="53.013311"><ele>320.182068</ele><time>2021-09-01T10:10:54Z</time><extensions><speed>0.706318</speed><course>318.901947</course><hAcc>0.860207</hAcc><vAcc>0.617954</vAcc></extensions></trkpt>
      <trkpt lon="-3.159542" lat="53.013318"><ele>320.234009</ele><time>2021-09-01T10:10:55Z</time><extensions><speed>0.794110</speed><course>320.825470</course><hAcc>0.859175</hAcc><vAcc>0.615003</vAcc></extensions></trkpt>
      <trkpt lon="-3.159543" lat="53.013325"><ele>320.303406</ele><time>2021-09-01T10:10:56Z</time><extensions><speed>0.881008</speed><course>331.940704</course><hAcc>0.858238</hAcc><vAcc>0.612809</vAcc></extensions></trkpt>
      <trkpt lon="-3.159543" lat="53.013334"><ele>320.393585</ele><time>2021-09-01T10:10:57Z</time><extensions><speed>0.962925</speed><course>329.732300</course><hAcc>0.857457</hAcc><vAcc>0.611362</vAcc></extensions></trkpt>
      <trkpt lon="-3.159544" lat="53.013343"><ele>320.506622</ele><time>2021-09-01T10:10:58Z</time><extensions><speed>1.037860</speed><course>330.480469</course><hAcc>0.856860</hAcc><vAcc>0.610571</vAcc></extensions></trkpt>
      <trkpt lon="-3.159545" lat="53.013352"><ele>320.643127</ele><time>2021-09-01T10:10:59Z</time><extensions><speed>1.104909</speed><course>327.453430</course><hAcc>0.856451</hAcc><vAcc>0.610310</vAcc></extensions></trkpt>
      <trkpt lon="-3.159546" lat="53.013362"><ele>320.801880</ele><time>2021-09-01T10:11:00Z</time><extensions><speed>1.162669</speed><course>332.608093</course><hAcc>0.856213</hAcc><vAcc>0.610452</vAcc></extensions></trkpt>
      <trkpt lon="-3.159547" lat="53.013373"><ele>320.980255</ele><time>2021-09-01T10:11:01Z</time><extensions><speed>1.209643</speed><course>330.647522</course><hAcc>0.856122</hAcc><vAcc>0.610888</vAcc></extensions></trkpt>
      <trkpt lon="-3.159548" lat="53.013384"><ele>321.174896</ele><time>2021-09-01T10:11:02Z</time><extensions><speed>1.245322</speed><course>325.179230</course><hAcc>0.856152</hAcc><vAcc>0.611524</vAcc></extensions></trkpt>
      <trkpt lon="-3.159549" lat="53.013395"><ele>321.382446</ele><time>2021-09-01T10:11:03Z</time><extensions><speed>1.269782</speed><course>323.492767</course><hAcc>0.856286</hAcc><vAcc>0.612296</vAcc></extensions></trkpt>
      <trkpt lon="-3.159550" lat="53.013407"><ele>321.599915</ele><time>2021-09-01T10:11:04Z</time><extensions><speed>1.284325</speed><course>319.068512</course><hAcc>0.856520</hAcc><vAcc>0.613186</vAcc></extensions></trkpt>
      <trkpt lon="-3.159552" lat="53.013418"><ele>321.825043</ele><time>2021-09-01T10:11:05Z</time><extensions><speed>1.291507</speed><course>318.607483</course><hAcc>0.856857</hAcc><vAcc>0.614193</vAcc></extensions></trkpt>
      <trkpt lon="-3.159554" lat="53.013430"><ele>322.055634</ele><time>2021-09-01T10:11:06Z</time><extensions><speed>1.293945</speed><course>331.980591</course><hAcc>0.857298</hAcc><vAcc>0.615318</vAcc></extensions></trkpt>
      <trkpt lon="-3.159555" lat="53.013441"><ele>322.289246</ele><time>2021-09-01T10:11:07Z</time><extensions><speed>1.293897</speed><course>339.684753</course><hAcc>0.857840</hAcc><vAcc>0.616560</vAcc></extensions></trkpt>
      <trkpt lon="-3.159557" lat="53.013453"><ele>322.523529</ele><time>2021-09-01T10:11:08Z</time><extensions><speed>1.292969</speed><course>332.990814</course><hAcc>0.858479</hAcc><vAcc>0.617911</vAcc></extensions></trkpt>
      <trkpt lon="-3.159559" lat="53.013465"><ele>322.755859</ele><time>2021-09-01T10:11:09Z</time><extensions><speed>1.292032</speed><course>322.191711</course><hAcc>0.859199</hAcc><vAcc>0.619359</vAcc></extensions></trkpt>
      <trkpt lon="-3.159561" lat="53.013476"><ele>322.983185</ele><time>2021-09-01T10:11:10Z</time><extensions><speed>1.291953</speed><course>322.481537</course><hAcc>0.859977</hAcc><vAcc>0.620895</vAcc></extensions></trkpt>
      <trkpt lon="-3.159564" lat="53.013488"><ele>323.202972</ele><time>2021-09-01T10:11:11Z</time><extensions><speed>1.293324</speed><course>324.494202</course><hAcc>0.860780</hAcc><vAcc>0.622513</vAcc></extensions></trkpt>
      <trkpt lon="-3.159566" lat="53.013499"><ele>323.414001</ele><time>2021-09-01T10:11:12Z</time><extensions><speed>1.296203</speed><course>326.900543</course><hAcc>0.861562</hAcc><vAcc>0.624207</vAcc></extensions></trkpt>
      <trkpt lon="-3.159569" lat="53.013511"><ele>323.616119</ele><time>2021-09-01T10:11:13Z</time><extensions><speed>1.301278</speed><course>327.108612</course><hAcc>0.862273</hAcc><vAcc>0.625958</vAcc></extensions></trkpt>
      <trkpt lon="-3.159572" lat="53.013522"><ele>323.809784</ele><time>2021-09-01T10:11:14Z</time><extensions><speed>1.309628</speed><course>326.961395</course><hAcc>0.862869</hAcc><vAcc>0.627726</vAcc></extensions></trkpt>
      <trkpt lon="-3.159575" lat="53.013534"><ele>323.995453</ele><time>2021-09-01T10:11:15Z</time><extensions><speed>1.321827</speed><course>328.725586</course><hAcc>0.863332</hAcc><vAcc>0.629460</vAcc></extensions></trkpt>
      <trkpt lon="-3.159578" lat="53.013546"><ele>324.173920</ele><time>2021-09-01T10:11:16Z</time><extensions><speed>1.337855</speed><course>324.538879</course><hAcc>0.863674</hAcc><vAcc>0.631124</vAcc></extensions></trkpt>
      <trkpt lon="-3.159582" lat="53.013558"><ele>324.346436</ele><time>2021-09-01T10:11:17Z</time><extensions><speed>1.356850</speed><course>322.792755</course><hAcc>0.863925</hAcc><vAcc>0.632718</vAcc></extensions></trkpt>
      <trkpt lon="-3.159586" lat="53.013570"><ele>324.515076</ele><time>2021-09-01T10:11:18Z</time><extensions><speed>1.377072</speed><course>321.878906</course><hAcc>0.864128</hAcc><vAcc>0.634275</vAcc></extensions></trkpt>
      <trkpt lon="-3.159590" lat="53.013582"><ele>324.682648</ele><time>2021-09-01T10:11:19Z</time><extensions><speed>1.396884</speed><course>332.119232</course><hAcc>0.864332</hAcc><vAcc>0.635847</vAcc></extensions></trkpt>
      <trkpt lon="-3.159594" lat="53.013594"><ele>324.852142</ele><time>2021-09-01T10:11:20Z</time><extensions><speed>1.414541</speed><course>333.921204</course><hAcc>0.864576</hAcc><vAcc>0.637483</vAcc></extensions></trkpt>
      <trkpt lon="-3.159598" lat="53.013607"><ele>325.026794</ele><time>2021-09-01T10:11:21Z</time><extensions><speed>1.428189</speed><course>333.199188</course><hAcc>0.864879</hAcc><vAcc>0.639206</vAcc></extensions></trkpt>
      <trkpt lon="-3.159603" lat="53.013619"><ele>325.210022</ele><time>2021-09-01T10:11:22Z</time><extensions><speed>1.436652</speed><course>332.370575</course><hAcc>0.865243</hAcc><vAcc>0.641000</vAcc></extensions></trkpt>
      <trkpt lon="-3.159607" lat="53.013632"><ele>325.404999</ele><time>2021-09-01T10:11:23Z</time><extensions><speed>1.439494</speed><course>324.975555</course><hAcc>0.865650</hAcc><vAcc>0.642809</vAcc></extensions></trkpt>
      <trkpt lon="-3.159611" lat="53.013645"><ele>325.614349</ele><time>2021-09-01T10:11:24Z</time><extensions><speed>1.436875</speed><course>335.518433</course><hAcc>0.866069</hAcc><vAcc>0.644540</vAcc></extensions></trkpt>
      <trkpt lon="-3.159615" lat="53.013657"><ele>325.839722</ele><time>2021-09-01T10:11:25Z</time><extensions><speed>1.429649</speed><course>325.564209</course><hAcc>0.866462</hAcc><vAcc>0.646069</vAcc></extensions></trkpt>
      <trkpt lon="-3.159619" lat="53.013670"><ele>326.081879</ele><time>2021-09-01T10:11:26Z</time><extensions><speed>1.418817</speed><course>328.563263</course><hAcc>0.866789</hAcc><vAcc>0.647278</vAcc></extensions></trkpt>
      <trkpt lon="-3.159623" lat="53.013683"><ele>326.340485</ele><time>2021-09-01T10:11:27Z</time><extensions><speed>1.405583</speed><course>326.994080</course><hAcc>0.867023</hAcc><vAcc>0.648090</vAcc></extensions></trkpt>
      <trkpt lon="-3.159627" lat="53.013695"><ele>326.614075</ele><time>2021-09-01T10:11:28Z</time><extensions><speed>1.391409</speed><course>318.473267</course><hAcc>0.867151</hAcc><vAcc>0.648492</vAcc></extensions></trkpt>
      <trkpt lon="-3.159630" lat="53.013707"><ele>326.900513</ele><time>2021-09-01T10:11:29Z</time><extensions><speed>1.376977</speed><course>311.042542</course><hAcc>0.867176</hAcc><vAcc>0.648519</vAcc></extensions></trkpt>
      <trkpt lon="-3.159634" lat="53.013719"><ele>327.197296</ele><time>2021-09-01T10:11:30Z</time><extensions><speed>1.362702</speed><course>305.538330</course><hAcc>0.867110</hAcc><vAcc>0.648230</vAcc></extensions></trkpt>
      <trkpt lon="-3.159637" lat="53.013731"><ele>327.501373</ele><time>2021-09-01T10:11:31Z</time><extensions><speed>1.348686</speed><course>315.153778</course><hAcc>0.866967</hAcc><vAcc>0.647689</vAcc></extensions></trkpt>
      <trkpt lon="-3.159641" lat="53.013743"><ele>327.809296</ele><time>2021-09-01T10:11:32Z</time><extensions><speed>1.334392</speed><course>316.503418</course><hAcc>0.866764</hAcc><vAcc>0.646962</vAcc></extensions></trkpt>
      <trkpt lon="-3.159644" lat="53.013755"><ele>328.117584</ele><time>2021-09-01T10:11:33Z</time><extensions><speed>1.319139</speed><course>335.833191</course><hAcc>0.866525</hAcc><vAcc>0.646121</vAcc></extensions></trkpt>
      <trkpt lon="-3.159648" lat="53.013766"><ele>328.423187</ele><time>2021-09-01T10:11:34Z</time><extensions><speed>1.302280</speed><course>327.010254</course><hAcc>0.866271</hAcc><vAcc>0.645247</vAcc></extensions></trkpt>
      <trkpt lon="-3.159652" lat="53.013778"><ele>328.723145</ele><time>2021-09-01T10:11:35Z</time><extensions><speed>1.283235</speed><course>325.252136</course><hAcc>0.866029</hAcc><vAcc>0.644423</vAcc></extensions></trkpt>
      <trkpt lon="-3.159657" lat="53.013789"><ele>329.014740</ele><time>2021-09-01T10:11:36Z</time><extensions><speed>1.262040</speed><course>322.968475</course><hAcc>0.865818</hAcc><vAcc>0.643717</vAcc></extensions></trkpt>
      <trkpt lon="-3.159661" lat="53.013800"><ele>329.295349</ele><time>2021-09-01T10:11:37Z</time><extensions><speed>1.239728</speed><course>323.501465</course><hAcc>0.865654</hAcc><vAcc>0.643182</vAcc></extensions></trkpt>
      <trkpt lon="-3.159666" lat="53.013810"><ele>329.562561</ele><time>2021-09-01T10:11:38Z</time><extensions><speed>1.217234</speed><course>321.425781</course><hAcc>0.865546</hAcc><vAcc>0.642842</vAcc></extensions></trkpt>
      <trkpt lon="-3.159671" lat="53.013821"><ele>329.813965</ele><time>2021-09-01T10:11:39Z</time><extensions><speed>1.195443</speed><course>320.251373</course><hAcc>0.865496</hAcc><vAcc>0.642694</vAcc></extensions></trkpt>
      <trkpt lon="-3.159677" lat="53.013831"><ele>330.046936</ele><time>2021-09-01T10:11:40Z</time><extensions><speed>1.175731</speed><course>324.252075</course><hAcc>0.865498</hAcc><vAcc>0.642717</vAcc></extensions></trkpt>
      <trkpt lon="-3.159682" lat="53.013841"><ele>330.258850</ele><time>2021-09-01T10:11:41Z</time><extensions><speed>1.159031</speed><course>324.152374</course><hAcc>0.865546</hAcc><vAcc>0.642879</vAcc></extensions></trkpt>
      <trkpt lon="-3.159688" lat="53.013851"><ele>330.447479</ele><time>2021-09-01T10:11:42Z</time><extensions><speed>1.145655</speed><course>325.481750</course><hAcc>0.865635</hAcc><vAcc>0.643161</vAcc></extensions></trkpt>
      <trkpt lon="-3.159695" lat="53.013860"><ele>330.611359</ele><time>2021-09-01T10:11:43Z</time><extensions><speed>1.135703</speed><course>319.205566</course><hAcc>0.865766</hAcc><vAcc>0.643567</vAcc></extensions></trkpt>
      <trkpt lon="-3.159701" lat="53.013869"><ele>330.750244</ele><time>2021-09-01T10:11:44Z</time><extensions><speed>1.129245</speed><course>318.376190</course><hAcc>0.865941</hAcc><vAcc>0.644110</vAcc></extensions></trkpt>
      <trkpt lon="-3.159708" lat="53.013879"><ele>330.864655</ele><time>2021-09-01T10:11:45Z</time><extensions><speed>1.126602</speed><course>314.977020</course><hAcc>0.866167</hAcc><vAcc>0.644813</vAcc></extensions></trkpt>
      <trkpt lon="-3.159715" lat="53.013888"><ele>330.955414</ele><time>2021-09-01T10:11:46Z</time><extensions><speed>1.128103</speed><course>311.302399</course><hAcc>0.866445</hAcc><vAcc>0.645690</vAcc></extensions></trkpt>
      <trkpt lon="-3.159723" lat="53.013897"><ele>331.023834</ele><time>2021-09-01T10:11:47Z</time><extensions><speed>1.133737</speed><course>310.834198</course><hAcc>0.866777</hAcc><vAcc>0.646743</vAcc></extensions></trkpt>
      <trkpt lon="-3.159731" lat="53.013906"><ele>331.072113</ele><time>2021-09-01T10:11:48Z</time><extensions><speed>1.142886</speed><course>309.925598</course><hAcc>0.867157</hAcc><vAcc>0.647960</vAcc></extensions></trkpt>
      <trkpt lon="-3.159739" lat="53.013915"><ele>331.103210</ele><time>2021-09-01T10:11:49Z</time><extensions><speed>1.154563</speed><course>306.104523</course><hAcc>0.867580</hAcc><vAcc>0.649323</vAcc></extensions></trkpt>
      <trkpt lon="-3.159748" lat="53.013924"><ele>331.120819</ele><time>2021-09-01T10:11:50Z</time><extensions><speed>1.167579</speed><course>306.130798</course><hAcc>0.868038</hAcc><vAcc>0.650803</vAcc></extensions></trkpt>
      <trkpt lon="-3.159756" lat="53.013933"><ele>331.129425</ele><time>2021-09-01T10:11:51Z</time><extensions><speed>1.180578</speed><course>309.163177</course><hAcc>0.868518</hAcc><vAcc>0.652359</vAcc></extensions></trkpt>
      <trkpt lon="-3.159766" lat="53.013942"><ele>331.133484</ele><time>2021-09-01T10:11:52Z</time><extensions><speed>1.192342</speed><course>311.638824</course><hAcc>0.869005</hAcc><vAcc>0.653940</vAcc></extensions></trkpt>
      <trkpt lon="-3.159775" lat="53.013951"><ele>331.136871</ele><time>2021-09-01T10:11:53Z</time><extensions><speed>1.201914</speed><course>306.319550</course><hAcc>0.869485</hAcc><vAcc>0.655490</vAcc></extensions></trkpt>
      <trkpt lon="-3.159784" lat="53.013961"><ele>331.142334</ele><time>2021-09-01T10:11:54Z</time><extensions><speed>1.209079</speed><course>309.448608</course><hAcc>0.869941</hAcc><vAcc>0.656954</vAcc></extensions></trkpt>
      <trkpt lon="-3.159794" lat="53.013970"><ele>331.151062</ele><time>2021-09-01T10:11:55Z</time><extensions><speed>1.214041</speed><course>307.055084</course><hAcc>0.870360</hAcc><vAcc>0.658289</vAcc></extensions></trkpt>
      <trkpt lon="-3.159804" lat="53.013979"><ele>331.164062</ele><time>2021-09-01T10:11:56Z</time><extensions><speed>1.216662</speed><course>309.609528</course><hAcc>0.870732</hAcc><vAcc>0.659468</vAcc></extensions></trkpt>
      <trkpt lon="-3.159814" lat="53.013988"><ele>331.182495</ele><time>2021-09-01T10:11:57Z</time><extensions><speed>1.216580</speed><course>304.747925</course><hAcc>0.871051</hAcc><vAcc>0.660475</vAcc></extensions></trkpt>
      <trkpt lon="-3.159823" lat="53.013998"><ele>331.207184</ele><time>2021-09-01T10:11:58Z</time><extensions><speed>1.213211</speed><course>298.413086</course><hAcc>0.871314</hAcc><vAcc>0.661306</vAcc></extensions></trkpt>
      <trkpt lon="-3.159833" lat="53.014007"><ele>331.238251</ele><time>2021-09-01T10:11:59Z</time><extensions><speed>1.206184</speed><course>304.495026</course><hAcc>0.871514</hAcc><vAcc>0.661950</vAcc></extensions></trkpt>
      <trkpt lon="-3.159842" lat="53.014016"><ele>331.275055</ele><time>2021-09-01T10:12:00Z</time><extensions><speed>1.195610</speed><course>308.805939</course><hAcc>0.871650</hAcc><vAcc>0.662396</vAcc></extensions></trkpt>
      <trkpt lon="-3.159851" lat="53.014025"><ele>331.316376</ele><time>2021-09-01T10:12:01Z</time><extensions><speed>1.181801</speed><course>311.789917</course><hAcc>0.871718</hAcc><vAcc>0.662631</vAcc></extensions></trkpt>
      <trkpt lon="-3.159860" lat="53.014034"><ele>331.360687</ele><time>2021-09-01T10:12:02Z</time><extensions><speed>1.165254</speed><course>310.886353</course><hAcc>0.871716</hAcc><vAcc>0.662644</vAcc></extensions></trkpt>
      <trkpt lon="-3.159869" lat="53.014043"><ele>331.406464</ele><time>2021-09-01T10:12:03Z</time><extensions><speed>1.146815</speed><course>314.533539</course><hAcc>0.871644</hAcc><vAcc>0.662427</vAcc></extensions></trkpt>
      <trkpt lon="-3.159877" lat="53.014052"><ele>331.451843</ele><time>2021-09-01T10:12:04Z</time><extensions><speed>1.127777</speed><course>315.680542</course><hAcc>0.871507</hAcc><vAcc>0.661981</vAcc></extensions></trkpt>
      <trkpt lon="-3.159885" lat="53.014061"><ele>331.494781</ele><time>2021-09-01T10:12:05Z</time><extensions><speed>1.108916</speed><course>318.090881</course><hAcc>0.871312</hAcc><vAcc>0.661323</vAcc></extensions></trkpt>
      <trkpt lon="-3.159894" lat="53.014069"><ele>331.533081</ele><time>2021-09-01T10:12:06Z</time><extensions><speed>1.089654</speed><course>322.434174</course><hAcc>0.871074</hAcc><vAcc>0.660498</vAcc></extensions></trkpt>
      <trkpt lon="-3.159902" lat="53.014078"><ele>331.564728</ele><time>2021-09-01T10:12:07Z</time><extensions><speed>1.068322</speed><course>326.481506</course><hAcc>0.870815</hAcc><vAcc>0.659580</vAcc></extensions></trkpt>
      <trkpt lon="-3.159910" lat="53.014086"><ele>331.588287</ele><time>2021-09-01T10:12:08Z</time><extensions><speed>1.043004</speed><course>309.522247</course><hAcc>0.870560</hAcc><vAcc>0.658667</vAcc></extensions></trkpt>
      <trkpt lon="-3.159917" lat="53.014094"><ele>331.602539</ele><time>2021-09-01T10:12:09Z</time><extensions><speed>1.012278</speed><course>317.105560</course><hAcc>0.870340</hAcc><vAcc>0.657869</vAcc></extensions></trkpt>
      <trkpt lon="-3.159925" lat="53.014101"><ele>331.606445</ele><time>2021-09-01T10:12:10Z</time><extensions><speed>0.975058</speed><course>325.631348</course><hAcc>0.870180</hAcc><vAcc>0.657285</vAcc></extensions></trkpt>
      <trkpt lon="-3.159933" lat="53.014109"><ele>331.599731</ele><time>2021-09-01T10:12:11Z</time><extensions><speed>0.930312</speed><course>323.961853</course><hAcc>0.870098</hAcc><vAcc>0.656986</vAcc></extensions></trkpt>
      <trkpt lon="-3.159940" lat="53.014115"><ele>331.582672</ele><time>2021-09-01T10:12:12Z</time><extensions><speed>0.877059</speed><course>321.394775</course><hAcc>0.870104</hAcc><vAcc>0.657003</vAcc></extensions></trkpt>
      <trkpt lon="-3.159947" lat="53.014122"><ele>331.556213</ele><time>2021-09-01T10:12:13Z</time><extensions><speed>0.814725</speed><course>321.108948</course><hAcc>0.870195</hAcc><vAcc>0.657320</vAcc></extensions></trkpt>
      <trkpt lon="-3.159954" lat="53.014127"><ele>331.521362</ele><time>2021-09-01T10:12:14Z</time><extensions><speed>0.743906</speed><course>321.170013</course><hAcc>0.870360</hAcc><vAcc>0.657892</vAcc></extensions></trkpt>
      <trkpt lon="-3.159960" lat="53.014132"><ele>331.479309</ele><time>2021-09-01T10:12:15Z</time><extensions><speed>0.666470</speed><course>306.176178</course><hAcc>0.870583</hAcc><vAcc>0.658655</vAcc></extensions></trkpt>
      <trkpt lon="-3.159966" lat="53.014137"><ele>331.431427</ele><time>2021-09-01T10:12:16Z</time><extensions><speed>0.584840</speed><course>315.376495</course><hAcc>0.870848</hAcc><vAcc>0.659551</vAcc></extensions></trkpt>
      <trkpt lon="-3.159972" lat="53.014141"><ele>331.379150</ele><time>2021-09-01T10:12:17Z</time><extensions><speed>0.501664</speed><course>318.757812</course><hAcc>0.871141</hAcc><vAcc>0.660527</vAcc></extensions></trkpt>
      <trkpt lon="-3.159976" lat="53.014144"><ele>331.323700</ele><time>2021-09-01T10:12:18Z</time><extensions><speed>0.420013</speed><course>302.990356</course><hAcc>0.871446</hAcc><vAcc>0.661535</vAcc></extensions></trkpt>
      <trkpt lon="-3.159980" lat="53.014146"><ele>331.266266</ele><time>2021-09-01T10:12:19Z</time><extensions><speed>0.343176</speed><course>313.317535</course><hAcc>0.871751</hAcc><vAcc>0.662528</vAcc></extensions></trkpt>
      <trkpt lon="-3.159984" lat="53.014148"><ele>331.207672</ele><time>2021-09-01T10:12:20Z</time><extensions><speed>0.274020</speed><course>312.441528</course><hAcc>0.872045</hAcc><vAcc>0.663468</vAcc></extensions></trkpt>
      <trkpt lon="-3.159987" lat="53.014149"><ele>331.148346</ele><time>2021-09-01T10:12:21Z</time><extensions><speed>0.214956</speed><course>316.780334</course><hAcc>0.872318</hAcc><vAcc>0.664329</vAcc></extensions></trkpt>
      <trkpt lon="-3.159989" lat="53.014150"><ele>331.088196</ele><time>2021-09-01T10:12:22Z</time><extensions><speed>0.169049</speed><course>316.095612</course><hAcc>0.872568</hAcc><vAcc>0.665097</vAcc></extensions></trkpt>
      <trkpt lon="-3.159991" lat="53.014150"><ele>331.026794</ele><time>2021-09-01T10:12:23Z</time><extensions><speed>0.139685</speed><course>314.234863</course><hAcc>0.872792</hAcc><vAcc>0.665775</vAcc></extensions></trkpt>
      <trkpt lon="-3.159993" lat="53.014150"><ele>330.963379</ele><time>2021-09-01T10:12:24Z</time><extensions><speed>0.127734</speed><course>308.545959</course><hAcc>0.872993</hAcc><vAcc>0.666378</vAcc></extensions></trkpt>
      <trkpt lon="-3.159995" lat="53.014150"><ele>330.897125</ele><time>2021-09-01T10:12:25Z</time><extensions><speed>0.128973</speed><course>317.115723</course><hAcc>0.873174</hAcc><vAcc>0.666919</vAcc></extensions></trkpt>
      <trkpt lon="-3.159997" lat="53.014149"><ele>330.827332</ele><time>2021-09-01T10:12:26Z</time><extensions><speed>0.136292</speed><course>324.999634</course><hAcc>0.873338</hAcc><vAcc>0.667403</vAcc></extensions></trkpt>
      <trkpt lon="-3.159999" lat="53.014148"><ele>330.753479</ele><time>2021-09-01T10:12:27Z</time><extensions><speed>0.144093</speed><course>317.924194</course><hAcc>0.873484</hAcc><vAcc>0.667828</vAcc></extensions></trkpt>
      <trkpt lon="-3.160000" lat="53.014147"><ele>330.675201</ele><time>2021-09-01T10:12:28Z</time><extensions><speed>0.149489</speed><course>315.987152</course><hAcc>0.873617</hAcc><vAcc>0.668194</vAcc></extensions></trkpt>
      <trkpt lon="-3.160002" lat="53.014147"><ele>330.592194</ele><time>2021-09-01T10:12:30Z</time><extensions><speed>0.151649</speed><course>314.734009</course><hAcc>0.873719</hAcc><vAcc>0.668496</vAcc></extensions></trkpt>
      <trkpt lon="-3.160004" lat="53.014146"><ele>330.504761</ele><time>2021-09-01T10:12:31Z</time><extensions><speed>0.150763</speed><course>317.632782</course><hAcc>0.873795</hAcc><vAcc>0.668751</vAcc></extensions></trkpt>
      <trkpt lon="-3.160005" lat="53.014145"><ele>330.413300</ele><time>2021-09-01T10:12:32Z</time><extensions><speed>0.147325</speed><course>301.352448</course><hAcc>0.873866</hAcc><vAcc>0.668990</vAcc></extensions></trkpt>
      <trkpt lon="-3.160007" lat="53.014144"><ele>330.318787</ele><time>2021-09-01T10:12:33Z</time><extensions><speed>0.141670</speed><course>311.835449</course><hAcc>0.873934</hAcc><vAcc>0.669223</vAcc></extensions></trkpt>
      <trkpt lon="-3.160009" lat="53.014144"><ele>330.222717</ele><time>2021-09-01T10:12:34Z</time><extensions><speed>0.134181</speed><course>314.400024</course><hAcc>0.873998</hAcc><vAcc>0.669450</vAcc></extensions></trkpt>
      <trkpt lon="-3.160011" lat="53.014143"><ele>330.126862</ele><time>2021-09-01T10:12:35Z</time><extensions><speed>0.125040</speed><course>314.080444</course><hAcc>0.874055</hAcc><vAcc>0.669670</vAcc></extensions></trkpt>
      <trkpt lon="-3.160012" lat="53.014143"><ele>330.033051</ele><time>2021-09-01T10:12:36Z</time><extensions><speed>0.114438</speed><course>307.602600</course><hAcc>0.874103</hAcc><vAcc>0.669873</vAcc></extensions></trkpt>
      <trkpt lon="-3.160014" lat="53.014142"><ele>329.942810</ele><time>2021-09-01T10:12:37Z</time><extensions><speed>0.104941</speed><course>311.268951</course><hAcc>0.874139</hAcc><vAcc>0.670049</vAcc></extensions></trkpt>
      <trkpt lon="-3.160015" lat="53.014143"><ele>329.857117</ele><time>2021-09-01T10:12:38Z</time><extensions><speed>0.103084</speed><course>316.568695</course><hAcc>0.874156</hAcc><vAcc>0.670181</vAcc></extensions></trkpt>
      <trkpt lon="-3.160017" lat="53.014143"><ele>329.776703</ele><time>2021-09-01T10:12:39Z</time><extensions><speed>0.118083</speed><course>324.849396</course><hAcc>0.874148</hAcc><vAcc>0.670245</vAcc></extensions></trkpt>
      <trkpt lon="-3.160018" lat="53.014144"><ele>329.702393</ele><time>2021-09-01T10:12:40Z</time><extensions><speed>0.153477</speed><course>318.929504</course><hAcc>0.874108</hAcc><vAcc>0.670201</vAcc></extensions></trkpt>
      <trkpt lon="-3.160020" lat="53.014145"><ele>329.635193</ele><time>2021-09-01T10:12:41Z</time><extensions><speed>0.204646</speed><course>315.514008</course><hAcc>0.874024</hAcc><vAcc>0.670003</vAcc></extensions></trkpt>
      <trkpt lon="-3.160021" lat="53.014147"><ele>329.576233</ele><time>2021-09-01T10:12:41Z</time><extensions><speed>0.265181</speed><course>309.432922</course><hAcc>0.873912</hAcc><vAcc>0.669647</vAcc></extensions></trkpt>
      <trkpt lon="-3.160023" lat="53.014150"><ele>329.526489</ele><time>2021-09-01T10:12:42Z</time><extensions><speed>0.330739</speed><course>306.068817</course><hAcc>0.873772</hAcc><vAcc>0.669147</vAcc></extensions></trkpt>
      <trkpt lon="-3.160025" lat="53.014153"><ele>329.486786</ele><time>2021-09-01T10:12:43Z</time><extensions><speed>0.398419</speed><course>319.983490</course><hAcc>0.873591</hAcc><vAcc>0.668514</vAcc></extensions></trkpt>
      <trkpt lon="-3.160027" lat="53.014156"><ele>329.457489</ele><time>2021-09-01T10:12:44Z</time><extensions><speed>0.466975</speed><course>315.606720</course><hAcc>0.873376</hAcc><vAcc>0.667774</vAcc></extensions></trkpt>
      <trkpt lon="-3.160030" lat="53.014161"><ele>329.438263</ele><time>2021-09-01T10:12:45Z</time><extensions><speed>0.536554</speed><course>317.784515</course><hAcc>0.873136</hAcc><vAcc>0.666956</vAcc></extensions></trkpt>
      <trkpt lon="-3.160034" lat="53.014165"><ele>329.428009</ele><time>2021-09-01T10:12:46Z</time><extensions><speed>0.607265</speed><course>313.524780</course><hAcc>0.872879</hAcc><vAcc>0.666087</vAcc></extensions></trkpt>
      <trkpt lon="-3.160038" lat="53.014170"><ele>329.425018</ele><time>2021-09-01T10:12:47Z</time><extensions><speed>0.677687</speed><course>310.903687</course><hAcc>0.872615</hAcc><vAcc>0.665191</vAcc></extensions></trkpt>
      <trkpt lon="-3.160043" lat="53.014176"><ele>329.427338</ele><time>2021-09-01T10:12:48Z</time><extensions><speed>0.745669</speed><course>315.823334</course><hAcc>0.872354</hAcc><vAcc>0.664300</vAcc></extensions></trkpt>
      <trkpt lon="-3.160049" lat="53.014182"><ele>329.433441</ele><time>2021-09-01T10:12:49Z</time><extensions><speed>0.809682</speed><course>318.320831</course><hAcc>0.872110</hAcc><vAcc>0.663462</vAcc></extensions></trkpt>
      <trkpt lon="-3.160056" lat="53.014188"><ele>329.442169</ele><time>2021-09-01T10:12:50Z</time><extensions><speed>0.869053</speed><course>306.579529</course><hAcc>0.871896</hAcc><vAcc>0.662724</vAcc></extensions></trkpt>
      <trkpt lon="-3.160063" lat="53.014195"><ele>329.452667</ele><time>2021-09-01T10:12:51Z</time><extensions><speed>0.923229</speed><course>308.750916</course><hAcc>0.871723</hAcc><vAcc>0.662135</vAcc></extensions></trkpt>
      <trkpt lon="-3.160070" lat="53.014202"><ele>329.464447</ele><time>2021-09-01T10:12:52Z</time><extensions><speed>0.971858</speed><course>310.705475</course><hAcc>0.871602</hAcc><vAcc>0.661729</vAcc></extensions></trkpt>
      <trkpt lon="-3.160078" lat="53.014210"><ele>329.477386</ele><time>2021-09-01T10:12:53Z</time><extensions><speed>1.015529</speed><course>309.681793</course><hAcc>0.871535</hAcc><vAcc>0.661527</vAcc></extensions></trkpt>
      <trkpt lon="-3.160087" lat="53.014218"><ele>329.491455</ele><time>2021-09-01T10:12:54Z</time><extensions><speed>1.055427</speed><course>322.348389</course><hAcc>0.871522</hAcc><vAcc>0.661526</vAcc></extensions></trkpt>
      <trkpt lon="-3.160096" lat="53.014226"><ele>329.506470</ele><time>2021-09-01T10:12:55Z</time><extensions><speed>1.092257</speed><course>326.702148</course><hAcc>0.871555</hAcc><vAcc>0.661699</vAcc></extensions></trkpt>
      <trkpt lon="-3.160105" lat="53.014234"><ele>329.522064</ele><time>2021-09-01T10:12:56Z</time><extensions><speed>1.125991</speed><course>331.813965</course><hAcc>0.871619</hAcc><vAcc>0.661989</vAcc></extensions></trkpt>
      <trkpt lon="-3.160114" lat="53.014242"><ele>329.537842</ele><time>2021-09-01T10:12:57Z</time><extensions><speed>1.156592</speed><course>329.095581</course><hAcc>0.871697</hAcc><vAcc>0.662323</vAcc></extensions></trkpt>
      <trkpt lon="-3.160124" lat="53.014251"><ele>329.553711</ele><time>2021-09-01T10:12:58Z</time><extensions><speed>1.184150</speed><course>317.013092</course><hAcc>0.871769</hAcc><vAcc>0.662626</vAcc></extensions></trkpt>
      <trkpt lon="-3.160133" lat="53.014260"><ele>329.569855</ele><time>2021-09-01T10:12:59Z</time><extensions><speed>1.208690</speed><course>304.237976</course><hAcc>0.871820</hAcc><vAcc>0.662836</vAcc></extensions></trkpt>
      <trkpt lon="-3.160143" lat="53.014270"><ele>329.586395</ele><time>2021-09-01T10:13:00Z</time><extensions><speed>1.230361</speed><course>306.732727</course><hAcc>0.871841</hAcc><vAcc>0.662917</vAcc></extensions></trkpt>
      <trkpt lon="-3.160153" lat="53.014279"><ele>329.603546</ele><time>2021-09-01T10:13:01Z</time><extensions><speed>1.249626</speed><course>314.620697</course><hAcc>0.871828</hAcc><vAcc>0.662856</vAcc></extensions></trkpt>
      <trkpt lon="-3.160163" lat="53.014288"><ele>329.621216</ele><time>2021-09-01T10:13:02Z</time><extensions><speed>1.266697</speed><course>308.721527</course><hAcc>0.871783</hAcc><vAcc>0.662666</vAcc></extensions></trkpt>
      <trkpt lon="-3.160173" lat="53.014298"><ele>329.639130</ele><time>2021-09-01T10:13:03Z</time><extensions><speed>1.281245</speed><course>324.142334</course><hAcc>0.871715</hAcc><vAcc>0.662385</vAcc></extensions></trkpt>
      <trkpt lon="-3.160183" lat="53.014308"><ele>329.656952</ele><time>2021-09-01T10:13:04Z</time><extensions><speed>1.292676</speed><course>320.497589</course><hAcc>0.871638</hAcc><vAcc>0.662069</vAcc></extensions></trkpt>
      <trkpt lon="-3.160193" lat="53.014318"><ele>329.674744</ele><time>2021-09-01T10:13:05Z</time><extensions><speed>1.300154</speed><course>317.760712</course><hAcc>0.871563</hAcc><vAcc>0.661776</vAcc></extensions></trkpt>
      <trkpt lon="-3.160203" lat="53.014328"><ele>329.692993</ele><time>2021-09-01T10:13:06Z</time><extensions><speed>1.303202</speed><course>320.404846</course><hAcc>0.871504</hAcc><vAcc>0.661548</vAcc></extensions></trkpt>
      <trkpt lon="-3.160212" lat="53.014339"><ele>329.712463</ele><time>2021-09-01T10:13:07Z</time><extensions><speed>1.301858</speed><course>325.015778</course><hAcc>0.871466</hAcc><vAcc>0.661402</vAcc></extensions></trkpt>
      <trkpt lon="-3.160221" lat="53.014349"><ele>329.734039</ele><time>2021-09-01T10:13:08Z</time><extensions><speed>1.296734</speed><course>317.077057</course><hAcc>0.871452</hAcc><vAcc>0.661346</vAcc></extensions></trkpt>
      <trkpt lon="-3.160230" lat="53.014359"><ele>329.758484</ele><time>2021-09-01T10:13:09Z</time><extensions><speed>1.289093</speed><course>311.682465</course><hAcc>0.871465</hAcc><vAcc>0.661381</vAcc></extensions></trkpt>
      <trkpt lon="-3.160238" lat="53.014370"><ele>329.786469</ele><time>2021-09-01T10:13:10Z</time><extensions><speed>1.280231</speed><course>306.448975</course><hAcc>0.871507</hAcc><vAcc>0.661507</vAcc></extensions></trkpt>
      <trkpt lon="-3.160246" lat="53.014380"><ele>329.818542</ele><time>2021-09-01T10:13:11Z</time><extensions><speed>1.271313</speed><course>313.316711</course><hAcc>0.871579</hAcc><vAcc>0.661731</vAcc></extensions></trkpt>
      <trkpt lon="-3.160253" lat="53.014390"><ele>329.855652</ele><time>2021-09-01T10:13:12Z</time><extensions><speed>1.263735</speed><course>315.373596</course><hAcc>0.871682</hAcc><vAcc>0.662056</vAcc></extensions></trkpt>
      <trkpt lon="-3.160261" lat="53.014401"><ele>329.898834</ele><time>2021-09-01T10:13:13Z</time><extensions><speed>1.258418</speed><course>312.668671</course><hAcc>0.871816</hAcc><vAcc>0.662489</vAcc></extensions></trkpt>
      <trkpt lon="-3.160268" lat="53.014411"><ele>329.948761</ele><time>2021-09-01T10:13:14Z</time><extensions><speed>1.255619</speed><course>309.354675</course><hAcc>0.871980</hAcc><vAcc>0.663024</vAcc></extensions></trkpt>
      <trkpt lon="-3.160274" lat="53.014422"><ele>330.005463</ele><time>2021-09-01T10:13:15Z</time><extensions><speed>1.254866</speed><course>313.043518</course><hAcc>0.872169</hAcc><vAcc>0.663651</vAcc></extensions></trkpt>
      <trkpt lon="-3.160281" lat="53.014433"><ele>330.068634</ele><time>2021-09-01T10:13:16Z</time><extensions><speed>1.255017</speed><course>317.199493</course><hAcc>0.872377</hAcc><vAcc>0.664347</vAcc></extensions></trkpt>
      <trkpt lon="-3.160287" lat="53.014443"><ele>330.137756</ele><time>2021-09-01T10:13:17Z</time><extensions><speed>1.255211</speed><course>310.331177</course><hAcc>0.872596</hAcc><vAcc>0.665082</vAcc></extensions></trkpt>
      <trkpt lon="-3.160293" lat="53.014454"><ele>330.212158</ele><time>2021-09-01T10:13:18Z</time><extensions><speed>1.255136</speed><course>317.756012</course><hAcc>0.872816</hAcc><vAcc>0.665822</vAcc></extensions></trkpt>
      <trkpt lon="-3.160299" lat="53.014464"><ele>330.291260</ele><time>2021-09-01T10:13:19Z</time><extensions><speed>1.254896</speed><course>318.781036</course><hAcc>0.873029</hAcc><vAcc>0.666531</vAcc></extensions></trkpt>
      <trkpt lon="-3.160305" lat="53.014475"><ele>330.374786</ele><time>2021-09-01T10:13:20Z</time><extensions><speed>1.254418</speed><course>314.656464</course><hAcc>0.873225</hAcc><vAcc>0.667178</vAcc></extensions></trkpt>
      <trkpt lon="-3.160311" lat="53.014486"><ele>330.462708</ele><time>2021-09-01T10:13:21Z</time><extensions><speed>1.253138</speed><course>319.512268</course><hAcc>0.873399</hAcc><vAcc>0.667736</vAcc></extensions></trkpt>
      <trkpt lon="-3.160317" lat="53.014497"><ele>330.555054</ele><time>2021-09-01T10:13:22Z</time><extensions><speed>1.250137</speed><course>322.101624</course><hAcc>0.873545</hAcc><vAcc>0.668190</vAcc></extensions></trkpt>
      <trkpt lon="-3.160323" lat="53.014507"><ele>330.651947</ele><time>2021-09-01T10:13:23Z</time><extensions><speed>1.244911</speed><course>318.612640</course><hAcc>0.873663</hAcc><vAcc>0.668539</vAcc></extensions></trkpt>
      <trkpt lon="-3.160329" lat="53.014518"><ele>330.753265</ele><time>2021-09-01T10:13:24Z</time><extensions><speed>1.237484</speed><course>318.709808</course><hAcc>0.873755</hAcc><vAcc>0.668796</vAcc></extensions></trkpt>
      <trkpt lon="-3.160335" lat="53.014528"><ele>330.858551</ele><time>2021-09-01T10:13:25Z</time><extensions><speed>1.227848</speed><course>309.168610</course><hAcc>0.873825</hAcc><vAcc>0.668982</vAcc></extensions></trkpt>
      <trkpt lon="-3.160341" lat="53.014539"><ele>330.966980</ele><time>2021-09-01T10:13:26Z</time><extensions><speed>1.216257</speed><course>318.520874</course><hAcc>0.873876</hAcc><vAcc>0.669116</vAcc></extensions></trkpt>
      <trkpt lon="-3.160347" lat="53.014549"><ele>331.077576</ele><time>2021-09-01T10:13:27Z</time><extensions><speed>1.203414</speed><course>322.226654</course><hAcc>0.873912</hAcc><vAcc>0.669211</vAcc></extensions></trkpt>
      <trkpt lon="-3.160353" lat="53.014559"><ele>331.188995</ele><time>2021-09-01T10:13:28Z</time><extensions><speed>1.190127</speed><course>319.023285</course><hAcc>0.873933</hAcc><vAcc>0.669274</vAcc></extensions></trkpt>
      <trkpt lon="-3.160360" lat="53.014569"><ele>331.299866</ele><time>2021-09-01T10:13:29Z</time><extensions><speed>1.176886</speed><course>325.928833</course><hAcc>0.873942</hAcc><vAcc>0.669308</vAcc></extensions></trkpt>
      <trkpt lon="-3.160366" lat="53.014579"><ele>331.408997</ele><time>2021-09-01T10:13:30Z</time><extensions><speed>1.163739</speed><course>330.973969</course><hAcc>0.873936</hAcc><vAcc>0.669308</vAcc></extensions></trkpt>
      <trkpt lon="-3.160372" lat="53.014588"><ele>331.515808</ele><time>2021-09-01T10:13:31Z</time><extensions><speed>1.150700</speed><course>325.462158</course><hAcc>0.873915</hAcc><vAcc>0.669265</vAcc></extensions></trkpt>
      <trkpt lon="-3.160379" lat="53.014598"><ele>331.619781</ele><time>2021-09-01T10:13:32Z</time><extensions><speed>1.137927</speed><course>319.000732</course><hAcc>0.873875</hAcc><vAcc>0.669167</vAcc></extensions></trkpt>
      <trkpt lon="-3.160385" lat="53.014607"><ele>331.720581</ele><time>2021-09-01T10:13:33Z</time><extensions><speed>1.125473</speed><course>324.049713</course><hAcc>0.873815</hAcc><vAcc>0.669000</vAcc></extensions></trkpt>
      <trkpt lon="-3.160392" lat="53.014616"><ele>331.817932</ele><time>2021-09-01T10:13:34Z</time><extensions><speed>1.113329</speed><course>322.275696</course><hAcc>0.873732</hAcc><vAcc>0.668752</vAcc></extensions></trkpt>
      <trkpt lon="-3.160398" lat="53.014626"><ele>331.911621</ele><time>2021-09-01T10:13:35Z</time><extensions><speed>1.101997</speed><course>319.519531</course><hAcc>0.873625</hAcc><vAcc>0.668417</vAcc></extensions></trkpt>
      <trkpt lon="-3.160404" lat="53.014635"><ele>332.001740</ele><time>2021-09-01T10:13:36Z</time><extensions><speed>1.092242</speed><course>317.980042</course><hAcc>0.873497</hAcc><vAcc>0.668000</vAcc></extensions></trkpt>
      <trkpt lon="-3.160411" lat="53.014644"><ele>332.088531</ele><time>2021-09-01T10:13:37Z</time><extensions><speed>1.084437</speed><course>318.102478</course><hAcc>0.873353</hAcc><vAcc>0.667515</vAcc></extensions></trkpt>
      <trkpt lon="-3.160417" lat="53.014653"><ele>332.172211</ele><time>2021-09-01T10:13:38Z</time><extensions><speed>1.078609</speed><course>303.135742</course><hAcc>0.873199</hAcc><vAcc>0.666984</vAcc></extensions></trkpt>
      <trkpt lon="-3.160423" lat="53.014662"><ele>332.252991</ele><time>2021-09-01T10:13:39Z</time><extensions><speed>1.074682</speed><course>309.585754</course><hAcc>0.873043</hAcc><vAcc>0.666440</vAcc></extensions></trkpt>
      <trkpt lon="-3.160429" lat="53.014671"><ele>332.331390</ele><time>2021-09-01T10:13:40Z</time><extensions><speed>1.073025</speed><course>312.043945</course><hAcc>0.872896</hAcc><vAcc>0.665919</vAcc></extensions></trkpt>
      <trkpt lon="-3.160435" lat="53.014680"><ele>332.408112</ele><time>2021-09-01T10:13:41Z</time><extensions><speed>1.073987</speed><course>296.473785</course><hAcc>0.872768</hAcc><vAcc>0.665463</vAcc></extensions></trkpt>
      <trkpt lon="-3.160440" lat="53.014689"><ele>332.483978</ele><time>2021-09-01T10:13:42Z</time><extensions><speed>1.077386</speed><course>304.000305</course><hAcc>0.872669</hAcc><vAcc>0.665111</vAcc></extensions></trkpt>
      <trkpt lon="-3.160445" lat="53.014698"><ele>332.560120</ele><time>2021-09-01T10:13:43Z</time><extensions><speed>1.083080</speed><course>310.101471</course><hAcc>0.872605</hAcc><vAcc>0.664892</vAcc></extensions></trkpt>
      <trkpt lon="-3.160450" lat="53.014707"><ele>332.637939</ele><time>2021-09-01T10:13:44Z</time><extensions><speed>1.090907</speed><course>314.593170</course><hAcc>0.872578</hAcc><vAcc>0.664811</vAcc></extensions></trkpt>
      <trkpt lon="-3.160454" lat="53.014717"><ele>332.718903</ele><time>2021-09-01T10:13:45Z</time><extensions><speed>1.100308</speed><course>319.388824</course><hAcc>0.872583</hAcc><vAcc>0.664852</vAcc></extensions></trkpt>
      <trkpt lon="-3.160458" lat="53.014726"><ele>332.804230</ele><time>2021-09-01T10:13:46Z</time><extensions><speed>1.110556</speed><course>321.438110</course><hAcc>0.872615</hAcc><vAcc>0.664989</vAcc></extensions></trkpt>
      <trkpt lon="-3.160461" lat="53.014736"><ele>332.894806</ele><time>2021-09-01T10:13:47Z</time><extensions><speed>1.120913</speed><course>328.475067</course><hAcc>0.872664</hAcc><vAcc>0.665189</vAcc></extensions></trkpt>
      <trkpt lon="-3.160464" lat="53.014746"><ele>332.991180</ele><time>2021-09-01T10:13:48Z</time><extensions><speed>1.131033</speed><course>323.126923</course><hAcc>0.872721</hAcc><vAcc>0.665413</vAcc></extensions></trkpt>
      <trkpt lon="-3.160467" lat="53.014756"><ele>333.093536</ele><time>2021-09-01T10:13:49Z</time><extensions><speed>1.140998</speed><course>317.031311</course><hAcc>0.872775</hAcc><vAcc>0.665620</vAcc></extensions></trkpt>
      <trkpt lon="-3.160470" lat="53.014766"><ele>333.202057</ele><time>2021-09-01T10:13:50Z</time><extensions><speed>1.150397</speed><course>312.376312</course><hAcc>0.872818</hAcc><vAcc>0.665780</vAcc></extensions></trkpt>
      <trkpt lon="-3.160472" lat="53.014777"><ele>333.316925</ele><time>2021-09-01T10:13:51Z</time><extensions><speed>1.158285</speed><course>318.822571</course><hAcc>0.872846</hAcc><vAcc>0.665878</vAcc></extensions></trkpt>
      <trkpt lon="-3.160475" lat="53.014787"><ele>333.437958</ele><time>2021-09-01T10:13:52Z</time><extensions><speed>1.164414</speed><course>319.617462</course><hAcc>0.872859</hAcc><vAcc>0.665912</vAcc></extensions></trkpt>
      <trkpt lon="-3.160477" lat="53.014797"><ele>333.564209</ele><time>2021-09-01T10:13:53Z</time><extensions><speed>1.169335</speed><course>313.608459</course><hAcc>0.872861</hAcc><vAcc>0.665887</vAcc></extensions></trkpt>
      <trkpt lon="-3.160480" lat="53.014808"><ele>333.694336</ele><time>2021-09-01T10:13:54Z</time><extensions><speed>1.173674</speed><course>304.402069</course><hAcc>0.872862</hAcc><vAcc>0.665818</vAcc></extensions></trkpt>
      <trkpt lon="-3.160483" lat="53.014818"><ele>333.826416</ele><time>2021-09-01T10:13:55Z</time><extensions><speed>1.177930</speed><course>313.372192</course><hAcc>0.872877</hAcc><vAcc>0.665736</vAcc></extensions></trkpt>
      <trkpt lon="-3.160486" lat="53.014829"><ele>333.958313</ele><time>2021-09-01T10:13:56Z</time><extensions><speed>1.182418</speed><course>314.449158</course><hAcc>0.872932</hAcc><vAcc>0.665692</vAcc></extensions></trkpt>
      <trkpt lon="-3.160490" lat="53.014839"><ele>334.087891</ele><time>2021-09-01T10:13:57Z</time><extensions><speed>1.187044</speed><course>316.455048</course><hAcc>0.873057</hAcc><vAcc>0.665750</vAcc></extensions></trkpt>
      <trkpt lon="-3.160494" lat="53.014849"><ele>334.212677</ele><time>2021-09-01T10:13:58Z</time><extensions><speed>1.191429</speed><course>322.827759</course><hAcc>0.873294</hAcc><vAcc>0.665976</vAcc></extensions></trkpt>
      <trkpt lon="-3.160498" lat="53.014860"><ele>334.329987</ele><time>2021-09-01T10:13:59Z</time><extensions><speed>1.195394</speed><course>335.256775</course><hAcc>0.873683</hAcc><vAcc>0.666428</vAcc></extensions></trkpt>
      <trkpt lon="-3.160503" lat="53.014870"><ele>334.436890</ele><time>2021-09-01T10:14:00Z</time><extensions><speed>1.198674</speed><course>334.470093</course><hAcc>0.874271</hAcc><vAcc>0.667143</vAcc></extensions></trkpt>
      <trkpt lon="-3.160508" lat="53.014881"><ele>334.530609</ele><time>2021-09-01T10:14:01Z</time><extensions><speed>1.200548</speed><course>329.142944</course><hAcc>0.875099</hAcc><vAcc>0.668126</vAcc></extensions></trkpt>
      <trkpt lon="-3.160513" lat="53.014891"><ele>334.608459</ele><time>2021-09-01T10:14:02Z</time><extensions><speed>1.200322</speed><course>330.236481</course><hAcc>0.876202</hAcc><vAcc>0.669356</vAcc></extensions></trkpt>
      <trkpt lon="-3.160519" lat="53.014901"><ele>334.668427</ele><time>2021-09-01T10:14:03Z</time><extensions><speed>1.197551</speed><course>327.126953</course><hAcc>0.877602</hAcc><vAcc>0.670794</vAcc></extensions></trkpt>
      <trkpt lon="-3.160526" lat="53.014911"><ele>334.709076</ele><time>2021-09-01T10:14:04Z</time><extensions><speed>1.191748</speed><course>324.196686</course><hAcc>0.879305</hAcc><vAcc>0.672387</vAcc></extensions></trkpt>
      <trkpt lon="-3.160533" lat="53.014921"><ele>334.729919</ele><time>2021-09-01T10:14:05Z</time><extensions><speed>1.182208</speed><course>323.671265</course><hAcc>0.881281</hAcc><vAcc>0.674071</vAcc></extensions></trkpt>
      <trkpt lon="-3.160539" lat="53.014931"><ele>334.731506</ele><time>2021-09-01T10:14:06Z</time><extensions><speed>1.167729</speed><course>327.262970</course><hAcc>0.883457</hAcc><vAcc>0.675756</vAcc></extensions></trkpt>
      <trkpt lon="-3.160547" lat="53.014940"><ele>334.715118</ele><time>2021-09-01T10:14:07Z</time><extensions><speed>1.146720</speed><course>327.549561</course><hAcc>0.885704</hAcc><vAcc>0.677331</vAcc></extensions></trkpt>
      <trkpt lon="-3.160554" lat="53.014949"><ele>334.682281</ele><time>2021-09-01T10:14:08Z</time><extensions><speed>1.117892</speed><course>319.078094</course><hAcc>0.887837</hAcc><vAcc>0.678657</vAcc></extensions></trkpt>
      <trkpt lon="-3.160562" lat="53.014958"><ele>334.634521</ele><time>2021-09-01T10:14:09Z</time><extensions><speed>1.080479</speed><course>327.008026</course><hAcc>0.889630</hAcc><vAcc>0.679593</vAcc></extensions></trkpt>
      <trkpt lon="-3.160569" lat="53.014966"><ele>334.573364</ele><time>2021-09-01T10:14:10Z</time><extensions><speed>1.034645</speed><course>328.155212</course><hAcc>0.890868</hAcc><vAcc>0.680040</vAcc></extensions></trkpt>
      <trkpt lon="-3.160576" lat="53.014974"><ele>334.500763</ele><time>2021-09-01T10:14:11Z</time><extensions><speed>0.981666</speed><course>325.350311</course><hAcc>0.891445</hAcc><vAcc>0.680031</vAcc></extensions></trkpt>
      <trkpt lon="-3.160584" lat="53.014982"><ele>334.419037</ele><time>2021-09-01T10:14:12Z</time><extensions><speed>0.923012</speed><course>322.145447</course><hAcc>0.891532</hAcc><vAcc>0.679861</vAcc></extensions></trkpt>
      <trkpt lon="-3.160591" lat="53.014988"><ele>334.330750</ele><time>2021-09-01T10:14:13Z</time><extensions><speed>0.859893</speed><course>312.279083</course><hAcc>0.891841</hAcc><vAcc>0.680282</vAcc></extensions></trkpt>
      <trkpt lon="-3.160597" lat="53.014995"><ele>334.237915</ele><time>2021-09-01T10:14:14Z</time><extensions><speed>0.793683</speed><course>313.047180</course><hAcc>0.893993</hAcc><vAcc>0.682761</vAcc></extensions></trkpt>
      <trkpt lon="-3.160604" lat="53.015000"><ele>334.142212</ele><time>2021-09-01T10:14:15Z</time><extensions><speed>0.726504</speed><course>316.630066</course><hAcc>0.900992</hAcc><vAcc>0.689779</vAcc></extensions></trkpt>
      <trkpt lon="-3.160610" lat="53.015005"><ele>334.045227</ele><time>2021-09-01T10:14:16Z</time><extensions><speed>0.661420</speed><course>322.903290</course><hAcc>0.917671</hAcc><vAcc>0.705061</vAcc></extensions></trkpt>
      <trkpt lon="-3.160615" lat="53.015010"><ele>333.948608</ele><time>2021-09-01T10:14:17Z</time><extensions><speed>0.602574</speed><course>317.613495</course><hAcc>0.950864</hAcc><vAcc>0.733551</vAcc></extensions></trkpt>
      <trkpt lon="-3.160617" lat="53.015009"><ele>333.749451</ele><time>2021-09-01T10:14:18Z</time><extensions><speed>0.133795</speed><course>-1.000000</course><hAcc>0.914880</hAcc><vAcc>0.703773</vAcc></extensions></trkpt>
      <trkpt lon="-3.160618" lat="53.015007"><ele>333.693115</ele><time>2021-09-01T10:14:19Z</time><extensions><speed>0.138262</speed><course>-1.000000</course><hAcc>0.897555</hAcc><vAcc>0.687652</vAcc></extensions></trkpt>
      <trkpt lon="-3.160619" lat="53.015006"><ele>333.641693</ele><time>2021-09-01T10:14:20Z</time><extensions><speed>0.143186</speed><course>-1.000000</course><hAcc>0.891113</hAcc><vAcc>0.680807</vAcc></extensions></trkpt>
      <trkpt lon="-3.160619" lat="53.015005"><ele>333.595062</ele><time>2021-09-01T10:14:21Z</time><extensions><speed>0.147666</speed><course>-1.000000</course><hAcc>0.890020</hAcc><vAcc>0.679035</vAcc></extensions></trkpt>
      <trkpt lon="-3.160619" lat="53.015004"><ele>333.553101</ele><time>2021-09-01T10:14:22Z</time><extensions><speed>0.150537</speed><course>-1.000000</course><hAcc>0.890843</hAcc><vAcc>0.679537</vAcc></extensions></trkpt>
      <trkpt lon="-3.160619" lat="53.015002"><ele>333.515472</ele><time>2021-09-01T10:14:23Z</time><extensions><speed>0.150914</speed><course>-1.000000</course><hAcc>0.891743</hAcc><vAcc>0.680674</vAcc></extensions></trkpt>
      <trkpt lon="-3.160618" lat="53.015001"><ele>333.481781</ele><time>2021-09-01T10:14:24Z</time><extensions><speed>0.148562</speed><course>-1.000000</course><hAcc>0.891940</hAcc><vAcc>0.681635</vAcc></extensions></trkpt>
      <trkpt lon="-3.160618" lat="53.015000"><ele>333.451416</ele><time>2021-09-01T10:14:25Z</time><extensions><speed>0.143643</speed><course>-1.000000</course><hAcc>0.891277</hAcc><vAcc>0.682133</vAcc></extensions></trkpt>
      <trkpt lon="-3.160618" lat="53.014998"><ele>333.423920</ele><time>2021-09-01T10:14:26Z</time><extensions><speed>0.136463</speed><course>-1.000000</course><hAcc>0.889917</hAcc><vAcc>0.682178</vAcc></extensions></trkpt>
      <trkpt lon="-3.160617" lat="53.014997"><ele>333.399048</ele><time>2021-09-01T10:14:27Z</time><extensions><speed>0.127400</speed><course>184.559082</course><hAcc>0.888150</hAcc><vAcc>0.681918</vAcc></extensions></trkpt>
      <trkpt lon="-3.160616" lat="53.014996"><ele>333.376740</ele><time>2021-09-01T10:14:28Z</time><extensions><speed>0.117036</speed><course>-1.000000</course><hAcc>0.886277</hAcc><vAcc>0.681556</vAcc></extensions></trkpt>
      <trkpt lon="-3.160616" lat="53.014995"><ele>333.357117</ele><time>2021-09-01T10:14:29Z</time><extensions><speed>0.106170</speed><course>-1.000000</course><hAcc>0.884561</hAcc><vAcc>0.681323</vAcc></extensions></trkpt>
      <trkpt lon="-3.160615" lat="53.014995"><ele>333.340363</ele><time>2021-09-01T10:14:30Z</time><extensions><speed>0.095428</speed><course>-1.000000</course><hAcc>0.883207</hAcc><vAcc>0.681449</vAcc></extensions></trkpt>
      <trkpt lon="-3.160614" lat="53.014994"><ele>333.326599</ele><time>2021-09-01T10:14:31Z</time><extensions><speed>0.084674</speed><course>-1.000000</course><hAcc>0.882358</hAcc><vAcc>0.682128</vAcc></extensions></trkpt>
      <trkpt lon="-3.160613" lat="53.014994"><ele>333.316162</ele><time>2021-09-01T10:14:32Z</time><extensions><speed>0.073132</speed><course>53.307610</course><hAcc>0.882099</hAcc><vAcc>0.683494</vAcc></extensions></trkpt>
      <trkpt lon="-3.160612" lat="53.014993"><ele>333.309326</ele><time>2021-09-01T10:14:33Z</time><extensions><speed>0.060350</speed><course>-1.000000</course><hAcc>0.882468</hAcc><vAcc>0.685607</vAcc></extensions></trkpt>
      <trkpt lon="-3.160612" lat="53.014993"><ele>333.306183</ele><time>2021-09-01T10:14:34Z</time><extensions><speed>0.048213</speed><course>-1.000000</course><hAcc>0.883462</hAcc><vAcc>0.688434</vAcc></extensions></trkpt>
      <trkpt lon="-3.160611" lat="53.014993"><ele>333.306702</ele><time>2021-09-01T10:14:36Z</time><extensions><speed>0.043935</speed><course>-1.000000</course><hAcc>0.885027</hAcc><vAcc>0.691850</vAcc></extensions></trkpt>
      <trkpt lon="-3.160610" lat="53.014993"><ele>333.310547</ele><time>2021-09-01T10:14:37Z</time><extensions><speed>0.057481</speed><course>120.394302</course><hAcc>0.887089</hAcc><vAcc>0.695673</vAcc></extensions></trkpt>
      <trkpt lon="-3.160610" lat="53.014994"><ele>333.317261</ele><time>2021-09-01T10:14:38Z</time><extensions><speed>0.087919</speed><course>-1.000000</course><hAcc>0.889562</hAcc><vAcc>0.699714</vAcc></extensions></trkpt>
      <trkpt lon="-3.160610" lat="53.014995"><ele>333.326263</ele><time>2021-09-01T10:14:39Z</time><extensions><speed>0.130564</speed><course>-1.000000</course><hAcc>0.892306</hAcc><vAcc>0.703753</vAcc></extensions></trkpt>
      <trkpt lon="-3.160611" lat="53.014996"><ele>333.336792</ele><time>2021-09-01T10:14:40Z</time><extensions><speed>0.183689</speed><course>-1.000000</course><hAcc>0.895134</hAcc><vAcc>0.707564</vAcc></extensions></trkpt>
      <trkpt lon="-3.160611" lat="53.014998"><ele>333.347992</ele><time>2021-09-01T10:14:41Z</time><extensions><speed>0.246968</speed><course>-1.000000</course><hAcc>0.897823</hAcc><vAcc>0.710930</vAcc></extensions></trkpt>
      <trkpt lon="-3.160613" lat="53.015001"><ele>333.358917</ele><time>2021-09-01T10:14:42Z</time><extensions><speed>0.320354</speed><course>-1.000000</course><hAcc>0.900131</hAcc><vAcc>0.713676</vAcc></extensions></trkpt>
      <trkpt lon="-3.160615" lat="53.015004"><ele>333.368500</ele><time>2021-09-01T10:14:43Z</time><extensions><speed>0.403626</speed><course>-1.000000</course><hAcc>0.901850</hAcc><vAcc>0.715716</vAcc></extensions></trkpt>
      <trkpt lon="-3.160617" lat="53.015008"><ele>333.375580</ele><time>2021-09-01T10:14:44Z</time><extensions><speed>0.496148</speed><course>-1.000000</course><hAcc>0.902900</hAcc><vAcc>0.717144</vAcc></extensions></trkpt>
      <trkpt lon="-3.160620" lat="53.015012"><ele>333.379028</ele><time>2021-09-01T10:14:45Z</time><extensions><speed>0.596679</speed><course>-1.000000</course><hAcc>0.903501</hAcc><vAcc>0.718363</vAcc></extensions></trkpt>
      <trkpt lon="-3.160624" lat="53.015017"><ele>333.377747</ele><time>2021-09-01T10:14:45Z</time><extensions><speed>0.702975</speed><course>-1.000000</course><hAcc>0.904442</hAcc><vAcc>0.720285</vAcc></extensions></trkpt>
      <trkpt lon="-3.160629" lat="53.015024"><ele>333.370667</ele><time>2021-09-01T10:14:46Z</time><extensions><speed>0.812476</speed><course>-1.000000</course><hAcc>0.907407</hAcc><vAcc>0.724548</vAcc></extensions></trkpt>
      <trkpt lon="-3.160635" lat="53.015031"><ele>333.357025</ele><time>2021-09-01T10:14:47Z</time><extensions><speed>0.920832</speed><course>-1.000000</course><hAcc>0.915421</hAcc><vAcc>0.733761</vAcc></extensions></trkpt>
      <trkpt lon="-3.160641" lat="53.015038"><ele>333.336365</ele><time>2021-09-01T10:14:48Z</time><extensions><speed>1.022566</speed><course>-1.000000</course><hAcc>0.933306</hAcc><vAcc>0.751702</vAcc></extensions></trkpt>
      <trkpt lon="-3.160648" lat="53.015047"><ele>333.308624</ele><time>2021-09-01T10:14:49Z</time><extensions><speed>1.110683</speed><course>-1.000000</course><hAcc>0.967813</hAcc><vAcc>0.783227</vAcc></extensions></trkpt>
      <trkpt lon="-3.160654" lat="53.015060"><ele>333.224060</ele><time>2021-09-01T10:14:50Z</time><extensions><speed>1.638167</speed><course>-1.000000</course><hAcc>0.930378</hAcc><vAcc>0.749171</vAcc></extensions></trkpt>
      <trkpt lon="-3.160663" lat="53.015073"><ele>333.186768</ele><time>2021-09-01T10:14:51Z</time><extensions><speed>1.608513</speed><course>-1.000000</course><hAcc>0.910740</hAcc><vAcc>0.727026</vAcc></extensions></trkpt>
      <trkpt lon="-3.160670" lat="53.015087"><ele>333.150665</ele><time>2021-09-01T10:14:52Z</time><extensions><speed>1.568717</speed><course>-1.000000</course><hAcc>0.902318</hAcc><vAcc>0.714992</vAcc></extensions></trkpt>
      <trkpt lon="-3.160677" lat="53.015100"><ele>333.117523</ele><time>2021-09-01T10:14:54Z</time><extensions><speed>1.522832</speed><course>-1.000000</course><hAcc>0.899598</hAcc><vAcc>0.708865</vAcc></extensions></trkpt>
      <trkpt lon="-3.160684" lat="53.015113"><ele>333.088806</ele><time>2021-09-01T10:14:55Z</time><extensions><speed>1.474299</speed><course>-1.000000</course><hAcc>0.899103</hAcc><vAcc>0.705726</vAcc></extensions></trkpt>
      <trkpt lon="-3.160690" lat="53.015126"><ele>333.065460</ele><time>2021-09-01T10:14:56Z</time><extensions><speed>1.425565</speed><course>-1.000000</course><hAcc>0.898933</hAcc><vAcc>0.703756</vAcc></extensions></trkpt>
      <trkpt lon="-3.160696" lat="53.015138"><ele>333.048370</ele><time>2021-09-01T10:14:57Z</time><extensions><speed>1.378386</speed><course>-1.000000</course><hAcc>0.898224</hAcc><vAcc>0.701955</vAcc></extensions></trkpt>
      <trkpt lon="-3.160701" lat="53.015149"><ele>333.038330</ele><time>2021-09-01T10:14:58Z</time><extensions><speed>1.333667</speed><course>-1.000000</course><hAcc>0.896744</hAcc><vAcc>0.699871</vAcc></extensions></trkpt>
      <trkpt lon="-3.160706" lat="53.015161"><ele>333.035950</ele><time>2021-09-01T10:14:59Z</time><extensions><speed>1.291679</speed><course>-1.000000</course><hAcc>0.894592</hAcc><vAcc>0.697381</vAcc></extensions></trkpt>
      <trkpt lon="-3.160711" lat="53.015172"><ele>333.041595</ele><time>2021-09-01T10:15:00Z</time><extensions><speed>1.252240</speed><course>184.559082</course><hAcc>0.892004</hAcc><vAcc>0.694540</vAcc></extensions></trkpt>
      <trkpt lon="-3.160715" lat="53.015183"><ele>333.054840</ele><time>2021-09-01T10:15:01Z</time><extensions><speed>1.215682</speed><course>-1.000000</course><hAcc>0.889241</hAcc><vAcc>0.691490</vAcc></extensions></trkpt>
      <trkpt lon="-3.160719" lat="53.015193"><ele>333.074738</ele><time>2021-09-01T10:15:02Z</time><extensions><speed>1.182986</speed><course>-1.000000</course><hAcc>0.886526</hAcc><vAcc>0.688393</vAcc></extensions></trkpt>
      <trkpt lon="-3.160723" lat="53.015203"><ele>333.100128</ele><time>2021-09-01T10:15:03Z</time><extensions><speed>1.154994</speed><course>-1.000000</course><hAcc>0.884021</hAcc><vAcc>0.685395</vAcc></extensions></trkpt>
      <trkpt lon="-3.160727" lat="53.015213"><ele>333.130066</ele><time>2021-09-01T10:15:04Z</time><extensions><speed>1.131912</speed><course>-1.000000</course><hAcc>0.881822</hAcc><vAcc>0.682608</vAcc></extensions></trkpt>
      <trkpt lon="-3.160730" lat="53.015223"><ele>333.163757</ele><time>2021-09-01T10:15:05Z</time><extensions><speed>1.113477</speed><course>53.307610</course><hAcc>0.879969</hAcc><vAcc>0.680099</vAcc></extensions></trkpt>
      <trkpt lon="-3.160733" lat="53.015233"><ele>333.200623</ele><time>2021-09-01T10:15:06Z</time><extensions><speed>1.099028</speed><course>-1.000000</course><hAcc>0.878460</hAcc><vAcc>0.677903</vAcc></extensions></trkpt>
      <trkpt lon="-3.160736" lat="53.015243"><ele>333.240143</ele><time>2021-09-01T10:15:07Z</time><extensions><speed>1.087447</speed><course>-1.000000</course><hAcc>0.877266</hAcc><vAcc>0.676029</vAcc></extensions></trkpt>
      <trkpt lon="-3.160739" lat="53.015252"><ele>333.281952</ele><time>2021-09-01T10:15:08Z</time><extensions><speed>1.077426</speed><course>-1.000000</course><hAcc>0.876342</hAcc><vAcc>0.674459</vAcc></extensions></trkpt>
      <trkpt lon="-3.160742" lat="53.015262"><ele>333.325531</ele><time>2021-09-01T10:15:09Z</time><extensions><speed>1.067515</speed><course>120.394302</course><hAcc>0.875636</hAcc><vAcc>0.673153</vAcc></extensions></trkpt>
      <trkpt lon="-3.160744" lat="53.015271"><ele>333.370300</ele><time>2021-09-01T10:15:10Z</time><extensions><speed>1.056536</speed><course>-1.000000</course><hAcc>0.875096</hAcc><vAcc>0.672058</vAcc></extensions></trkpt>
      <trkpt lon="-3.160746" lat="53.015281"><ele>333.415527</ele><time>2021-09-01T10:15:11Z</time><extensions><speed>1.044092</speed><course>-1.000000</course><hAcc>0.874673</hAcc><vAcc>0.671118</vAcc></extensions></trkpt>
      <trkpt lon="-3.160748" lat="53.015290"><ele>333.460175</ele><time>2021-09-01T10:15:12Z</time><extensions><speed>1.030732</speed><course>-1.000000</course><hAcc>0.874326</hAcc><vAcc>0.670277</vAcc></extensions></trkpt>
      <trkpt lon="-3.160750" lat="53.015299"><ele>333.503113</ele><time>2021-09-01T10:15:13Z</time><extensions><speed>1.017967</speed><course>-1.000000</course><hAcc>0.874021</hAcc><vAcc>0.669477</vAcc></extensions></trkpt>
      <trkpt lon="-3.160753" lat="53.015308"><ele>333.543213</ele><time>2021-09-01T10:15:14Z</time><extensions><speed>1.007382</speed><course>-1.000000</course><hAcc>0.873731</hAcc><vAcc>0.668663</vAcc></extensions></trkpt>
      <trkpt lon="-3.160755" lat="53.015317"><ele>333.579529</ele><time>2021-09-01T10:15:15Z</time><extensions><speed>0.999717</speed><course>-1.000000</course><hAcc>0.873434</hAcc><vAcc>0.667787</vAcc></extensions></trkpt>
      <trkpt lon="-3.160758" lat="53.015326"><ele>333.611267</ele><time>2021-09-01T10:15:16Z</time><extensions><speed>0.995592</speed><course>-1.000000</course><hAcc>0.873119</hAcc><vAcc>0.666820</vAcc></extensions></trkpt>
      <trkpt lon="-3.160760" lat="53.015334"><ele>333.638336</ele><time>2021-09-01T10:15:17Z</time><extensions><speed>0.996016</speed><course>-1.000000</course><hAcc>0.872779</hAcc><vAcc>0.665750</vAcc></extensions></trkpt>
      <trkpt lon="-3.160763" lat="53.015343"><ele>333.660797</ele><time>2021-09-01T10:15:18Z</time><extensions><speed>1.001653</speed><course>-1.000000</course><hAcc>0.872415</hAcc><vAcc>0.664583</vAcc></extensions></trkpt>
      <trkpt lon="-3.160766" lat="53.015352"><ele>333.678986</ele><time>2021-09-01T10:15:19Z</time><extensions><speed>1.011788</speed><course>-1.000000</course><hAcc>0.872034</hAcc><vAcc>0.663344</vAcc></extensions></trkpt>
      <trkpt lon="-3.160770" lat="53.015361"><ele>333.693695</ele><time>2021-09-01T10:15:20Z</time><extensions><speed>1.024214</speed><course>-1.000000</course><hAcc>0.871647</hAcc><vAcc>0.662075</vAcc></extensions></trkpt>
      <trkpt lon="-3.160773" lat="53.015370"><ele>333.706299</ele><time>2021-09-01T10:15:21Z</time><extensions><speed>1.036353</speed><course>-1.000000</course><hAcc>0.871267</hAcc><vAcc>0.660829</vAcc></extensions></trkpt>
      <trkpt lon="-3.160777" lat="53.015379"><ele>333.717926</ele><time>2021-09-01T10:15:22Z</time><extensions><speed>1.046909</speed><course>-1.000000</course><hAcc>0.870908</hAcc><vAcc>0.659654</vAcc></extensions></trkpt>
      <trkpt lon="-3.160780" lat="53.015388"><ele>333.729218</ele><time>2021-09-01T10:15:23Z</time><extensions><speed>1.055467</speed><course>-1.000000</course><hAcc>0.870582</hAcc><vAcc>0.658589</vAcc></extensions></trkpt>
      <trkpt lon="-3.160784" lat="53.015398"><ele>333.740814</ele><time>2021-09-01T10:15:24Z</time><extensions><speed>1.061484</speed><course>-1.000000</course><hAcc>0.870299</hAcc><vAcc>0.657668</vAcc></extensions></trkpt>
      <trkpt lon="-3.160787" lat="53.015407"><ele>333.753662</ele><time>2021-09-01T10:15:25Z</time><extensions><speed>1.064647</speed><course>-1.000000</course><hAcc>0.870067</hAcc><vAcc>0.656919</vAcc></extensions></trkpt>
      <trkpt lon="-3.160790" lat="53.015416"><ele>333.769043</ele><time>2021-09-01T10:15:26Z</time><extensions><speed>1.064963</speed><course>-1.000000</course><hAcc>0.869895</hAcc><vAcc>0.656366</vAcc></extensions></trkpt>
      <trkpt lon="-3.160794" lat="53.015426"><ele>333.788330</ele><time>2021-09-01T10:15:27Z</time><extensions><speed>1.061954</speed><course>-1.000000</course><hAcc>0.869786</hAcc><vAcc>0.656026</vAcc></extensions></trkpt>
      <trkpt lon="-3.160797" lat="53.015435"><ele>333.812805</ele><time>2021-09-01T10:15:28Z</time><extensions><speed>1.054855</speed><course>-1.000000</course><hAcc>0.869745</hAcc><vAcc>0.655907</vAcc></extensions></trkpt>
      <trkpt lon="-3.160799" lat="53.015444"><ele>333.843475</ele><time>2021-09-01T10:15:29Z</time><extensions><speed>1.043191</speed><course>116.725777</course><hAcc>0.869770</hAcc><vAcc>0.656009</vAcc></extensions></trkpt>
      <trkpt lon="-3.160802" lat="53.015453"><ele>333.880920</ele><time>2021-09-01T10:15:30Z</time><extensions><speed>1.026596</speed><course>116.725777</course><hAcc>0.869859</hAcc><vAcc>0.656316</vAcc></extensions></trkpt>
      <trkpt lon="-3.160805" lat="53.015462"><ele>333.925323</ele><time>2021-09-01T10:15:31Z</time><extensions><speed>1.005370</speed><course>116.725777</course><hAcc>0.870006</hAcc><vAcc>0.656803</vAcc></extensions></trkpt>
      <trkpt lon="-3.160807" lat="53.015471"><ele>333.976624</ele><time>2021-09-01T10:15:32Z</time><extensions><speed>0.980282</speed><course>116.725777</course><hAcc>0.870205</hAcc><vAcc>0.657442</vAcc></extensions></trkpt>
      <trkpt lon="-3.160808" lat="53.015480"><ele>334.034821</ele><time>2021-09-01T10:15:33Z</time><extensions><speed>0.952074</speed><course>116.725777</course><hAcc>0.870450</hAcc><vAcc>0.658215</vAcc></extensions></trkpt>
      <trkpt lon="-3.160810" lat="53.015488"><ele>334.100220</ele><time>2021-09-01T10:15:34Z</time><extensions><speed>0.921747</speed><course>116.725784</course><hAcc>0.870741</hAcc><vAcc>0.659121</vAcc></extensions></trkpt>
      <trkpt lon="-3.160811" lat="53.015496"><ele>334.173218</ele><time>2021-09-01T10:15:35Z</time><extensions><speed>0.891131</speed><course>116.725784</course><hAcc>0.871080</hAcc><vAcc>0.660176</vAcc></extensions></trkpt>
      <trkpt lon="-3.160812" lat="53.015504"><ele>334.253418</ele><time>2021-09-01T10:15:36Z</time><extensions><speed>0.862843</speed><course>116.725784</course><hAcc>0.871470</hAcc><vAcc>0.661399</vAcc></extensions></trkpt>
      <trkpt lon="-3.160812" lat="53.015512"><ele>334.339569</ele><time>2021-09-01T10:15:37Z</time><extensions><speed>0.839226</speed><course>116.725784</course><hAcc>0.871913</hAcc><vAcc>0.662801</vAcc></extensions></trkpt>
      <trkpt lon="-3.160812" lat="53.015519"><ele>334.429657</ele><time>2021-09-01T10:15:38Z</time><extensions><speed>0.821074</speed><course>116.725784</course><hAcc>0.872406</hAcc><vAcc>0.664380</vAcc></extensions></trkpt>
      <trkpt lon="-3.160812" lat="53.015527"><ele>334.521667</ele><time>2021-09-01T10:15:39Z</time><extensions><speed>0.808010</speed><course>116.725784</course><hAcc>0.872946</hAcc><vAcc>0.666127</vAcc></extensions></trkpt>
      <trkpt lon="-3.160811" lat="53.015534"><ele>334.613922</ele><time>2021-09-01T10:15:40Z</time><extensions><speed>0.800107</speed><course>116.725784</course><hAcc>0.873524</hAcc><vAcc>0.668014</vAcc></extensions></trkpt>
      <trkpt lon="-3.160810" lat="53.015541"><ele>334.704712</ele><time>2021-09-01T10:15:41Z</time><extensions><speed>0.798046</speed><course>116.725784</course><hAcc>0.874128</hAcc><vAcc>0.669996</vAcc></extensions></trkpt>
      <trkpt lon="-3.160809" lat="53.015548"><ele>334.792603</ele><time>2021-09-01T10:15:42Z</time><extensions><speed>0.801996</speed><course>116.725784</course><hAcc>0.874744</hAcc><vAcc>0.672020</vAcc></extensions></trkpt>
      <trkpt lon="-3.160807" lat="53.015555"><ele>334.876312</ele><time>2021-09-01T10:15:43Z</time><extensions><speed>0.811732</speed><course>116.725784</course><hAcc>0.875358</hAcc><vAcc>0.674034</vAcc></extensions></trkpt>
      <trkpt lon="-3.160806" lat="53.015563"><ele>334.954773</ele><time>2021-09-01T10:15:44Z</time><extensions><speed>0.827439</speed><course>116.725784</course><hAcc>0.875956</hAcc><vAcc>0.675987</vAcc></extensions></trkpt>
      <trkpt lon="-3.160804" lat="53.015570"><ele>335.027313</ele><time>2021-09-01T10:15:45Z</time><extensions><speed>0.849047</speed><course>116.725784</course><hAcc>0.876524</hAcc><vAcc>0.677828</vAcc></extensions></trkpt>
      <trkpt lon="-3.160801" lat="53.015578"><ele>335.093597</ele><time>2021-09-01T10:15:46Z</time><extensions><speed>0.874823</speed><course>116.725784</course><hAcc>0.877052</hAcc><vAcc>0.679514</vAcc></extensions></trkpt>
      <trkpt lon="-3.160799" lat="53.015586"><ele>335.153687</ele><time>2021-09-01T10:15:47Z</time><extensions><speed>0.902193</speed><course>116.725784</course><hAcc>0.877530</hAcc><vAcc>0.681013</vAcc></extensions></trkpt>
      <trkpt lon="-3.160796" lat="53.015594"><ele>335.208099</ele><time>2021-09-01T10:15:48Z</time><extensions><speed>0.928974</speed><course>116.725784</course><hAcc>0.877954</hAcc><vAcc>0.682317</vAcc></extensions></trkpt>
      <trkpt lon="-3.160794" lat="53.015602"><ele>335.257538</ele><time>2021-09-01T10:15:49Z</time><extensions><speed>0.953381</speed><course>116.725784</course><hAcc>0.878323</hAcc><vAcc>0.683434</vAcc></extensions></trkpt>
      <trkpt lon="-3.160791" lat="53.015610"><ele>335.302826</ele><time>2021-09-01T10:15:50Z</time><extensions><speed>0.974076</speed><course>116.725784</course><hAcc>0.878638</hAcc><vAcc>0.684380</vAcc></extensions></trkpt>
      <trkpt lon="-3.160787" lat="53.015619"><ele>335.345215</ele><time>2021-09-01T10:15:51Z</time><extensions><speed>0.990254</speed><course>116.725777</course><hAcc>0.878901</hAcc><vAcc>0.685175</vAcc></extensions></trkpt>
      <trkpt lon="-3.160784" lat="53.015628"><ele>335.386230</ele><time>2021-09-01T10:15:52Z</time><extensions><speed>1.001674</speed><course>116.725769</course><hAcc>0.879116</hAcc><vAcc>0.685836</vAcc></extensions></trkpt>
      <trkpt lon="-3.160781" lat="53.015637"><ele>335.427643</ele><time>2021-09-01T10:15:53Z</time><extensions><speed>1.009119</speed><course>116.725769</course><hAcc>0.879285</hAcc><vAcc>0.686367</vAcc></extensions></trkpt>
      <trkpt lon="-3.160777" lat="53.015645"><ele>335.471252</ele><time>2021-09-01T10:15:54Z</time><extensions><speed>1.013963</speed><course>116.725761</course><hAcc>0.879407</hAcc><vAcc>0.686760</vAcc></extensions></trkpt>
      <trkpt lon="-3.160774" lat="53.015654"><ele>335.518646</ele><time>2021-09-01T10:15:55Z</time><extensions><speed>1.017446</speed><course>116.725754</course><hAcc>0.879486</hAcc><vAcc>0.687009</vAcc></extensions></trkpt>
      <trkpt lon="-3.160771" lat="53.015663"><ele>335.571075</ele><time>2021-09-01T10:15:56Z</time><extensions><speed>1.021208</speed><course>116.725746</course><hAcc>0.879524</hAcc><vAcc>0.687113</vAcc></extensions></trkpt>
      <trkpt lon="-3.160767" lat="53.015672"><ele>335.629120</ele><time>2021-09-01T10:15:57Z</time><extensions><speed>1.026799</speed><course>116.725746</course><hAcc>0.879523</hAcc><vAcc>0.687077</vAcc></extensions></trkpt>
      <trkpt lon="-3.160764" lat="53.015681"><ele>335.692841</ele><time>2021-09-01T10:15:58Z</time><extensions><speed>1.035405</speed><course>116.725731</course><hAcc>0.879488</hAcc><vAcc>0.686919</vAcc></extensions></trkpt>
      <trkpt lon="-3.160761" lat="53.015690"><ele>335.762146</ele><time>2021-09-01T10:15:59Z</time><extensions><speed>1.048043</speed><course>116.725723</course><hAcc>0.879427</hAcc><vAcc>0.686667</vAcc></extensions></trkpt>
      <trkpt lon="-3.160758" lat="53.015700"><ele>335.836975</ele><time>2021-09-01T10:16:00Z</time><extensions><speed>1.065282</speed><course>116.725723</course><hAcc>0.879345</hAcc><vAcc>0.686353</vAcc></extensions></trkpt>
      <trkpt lon="-3.160754" lat="53.015709"><ele>335.917023</ele><time>2021-09-01T10:16:01Z</time><extensions><speed>1.086510</speed><course>116.725708</course><hAcc>0.879250</hAcc><vAcc>0.686008</vAcc></extensions></trkpt>
      <trkpt lon="-3.160751" lat="53.015719"><ele>336.001801</ele><time>2021-09-01T10:16:02Z</time><extensions><speed>1.110404</speed><course>116.725700</course><hAcc>0.879148</hAcc><vAcc>0.685653</vAcc></extensions></trkpt>
      <trkpt lon="-3.160747" lat="53.015729"><ele>336.090759</ele><time>2021-09-01T10:16:03Z</time><extensions><speed>1.136073</speed><course>116.725693</course><hAcc>0.879045</hAcc><vAcc>0.685302</vAcc></extensions></trkpt>
      <trkpt lon="-3.160744" lat="53.015739"><ele>336.182983</ele><time>2021-09-01T10:16:04Z</time><extensions><speed>1.162559</speed><course>116.725685</course><hAcc>0.878945</hAcc><vAcc>0.684965</vAcc></extensions></trkpt>
      <trkpt lon="-3.160740" lat="53.015749"><ele>336.277405</ele><time>2021-09-01T10:16:05Z</time><extensions><speed>1.188534</speed><course>116.725670</course><hAcc>0.878853</hAcc><vAcc>0.684650</vAcc></extensions></trkpt>
      <trkpt lon="-3.160736" lat="53.015760"><ele>336.372986</ele><time>2021-09-01T10:16:06Z</time><extensions><speed>1.212865</speed><course>116.725670</course><hAcc>0.878774</hAcc><vAcc>0.684368</vAcc></extensions></trkpt>
      <trkpt lon="-3.160732" lat="53.015770"><ele>336.468750</ele><time>2021-09-01T10:16:07Z</time><extensions><speed>1.234519</speed><course>116.725662</course><hAcc>0.878714</hAcc><vAcc>0.684138</vAcc></extensions></trkpt>
      <trkpt lon="-3.160728" lat="53.015781"><ele>336.563721</ele><time>2021-09-01T10:16:08Z</time><extensions><speed>1.252667</speed><course>316.510925</course><hAcc>0.878678</hAcc><vAcc>0.683984</vAcc></extensions></trkpt>
      <trkpt lon="-3.160725" lat="53.015792"><ele>336.656708</ele><time>2021-09-01T10:16:09Z</time><extensions><speed>1.267131</speed><course>325.771881</course><hAcc>0.878672</hAcc><vAcc>0.683932</vAcc></extensions></trkpt>
      <trkpt lon="-3.160721" lat="53.015804"><ele>336.746490</ele><time>2021-09-01T10:16:10Z</time><extensions><speed>1.278086</speed><course>329.412018</course><hAcc>0.878699</hAcc><vAcc>0.684000</vAcc></extensions></trkpt>
      <trkpt lon="-3.160717" lat="53.015815"><ele>336.832275</ele><time>2021-09-01T10:16:11Z</time><extensions><speed>1.285849</speed><course>328.807678</course><hAcc>0.878761</hAcc><vAcc>0.684198</vAcc></extensions></trkpt>
      <trkpt lon="-3.160713" lat="53.015826"><ele>336.913544</ele><time>2021-09-01T10:16:12Z</time><extensions><speed>1.290806</speed><course>328.238739</course><hAcc>0.878859</hAcc><vAcc>0.684523</vAcc></extensions></trkpt>
      <trkpt lon="-3.160709" lat="53.015838"><ele>336.989807</ele><time>2021-09-01T10:16:13Z</time><extensions><speed>1.293289</speed><course>328.754333</course><hAcc>0.878989</hAcc><vAcc>0.684963</vAcc></extensions></trkpt>
      <trkpt lon="-3.160705" lat="53.015849"><ele>337.060822</ele><time>2021-09-01T10:16:14Z</time><extensions><speed>1.293263</speed><course>321.291412</course><hAcc>0.879147</hAcc><vAcc>0.685502</vAcc></extensions></trkpt>
      <trkpt lon="-3.160701" lat="53.015860"><ele>337.126709</ele><time>2021-09-01T10:16:15Z</time><extensions><speed>1.290751</speed><course>315.163422</course><hAcc>0.879330</hAcc><vAcc>0.686120</vAcc></extensions></trkpt>
      <trkpt lon="-3.160697" lat="53.015872"><ele>337.187958</ele><time>2021-09-01T10:16:16Z</time><extensions><speed>1.286066</speed><course>320.356079</course><hAcc>0.879531</hAcc><vAcc>0.686795</vAcc></extensions></trkpt>
      <trkpt lon="-3.160693" lat="53.015883"><ele>337.245392</ele><time>2021-09-01T10:16:17Z</time><extensions><speed>1.279471</speed><course>314.759003</course><hAcc>0.879744</hAcc><vAcc>0.687504</vAcc></extensions></trkpt>
      <trkpt lon="-3.160689" lat="53.015894"><ele>337.299805</ele><time>2021-09-01T10:16:18Z</time><extensions><speed>1.271262</speed><course>306.430359</course><hAcc>0.879962</hAcc><vAcc>0.688228</vAcc></extensions></trkpt>
      <trkpt lon="-3.160684" lat="53.015905"><ele>337.351959</ele><time>2021-09-01T10:16:19Z</time><extensions><speed>1.261924</speed><course>312.642456</course><hAcc>0.880180</hAcc><vAcc>0.688948</vAcc></extensions></trkpt>
      <trkpt lon="-3.160680" lat="53.015916"><ele>337.402557</ele><time>2021-09-01T10:16:20Z</time><extensions><speed>1.252014</speed><course>309.329712</course><hAcc>0.880391</hAcc><vAcc>0.689652</vAcc></extensions></trkpt>
      <trkpt lon="-3.160675" lat="53.015927"><ele>337.452026</ele><time>2021-09-01T10:16:21Z</time><extensions><speed>1.242260</speed><course>306.517120</course><hAcc>0.880591</hAcc><vAcc>0.690323</vAcc></extensions></trkpt>
      <trkpt lon="-3.160670" lat="53.015938"><ele>337.500580</ele><time>2021-09-01T10:16:22Z</time><extensions><speed>1.233355</speed><course>302.169647</course><hAcc>0.880773</hAcc><vAcc>0.690943</vAcc></extensions></trkpt>
      <trkpt lon="-3.160664" lat="53.015948"><ele>337.548340</ele><time>2021-09-01T10:16:23Z</time><extensions><speed>1.225725</speed><course>299.953156</course><hAcc>0.880932</hAcc><vAcc>0.691487</vAcc></extensions></trkpt>
      <trkpt lon="-3.160659" lat="53.015959"><ele>337.595490</ele><time>2021-09-01T10:16:24Z</time><extensions><speed>1.219754</speed><course>299.473511</course><hAcc>0.881064</hAcc><vAcc>0.691935</vAcc></extensions></trkpt>
      <trkpt lon="-3.160653" lat="53.015969"><ele>337.642303</ele><time>2021-09-01T10:16:25Z</time><extensions><speed>1.216148</speed><course>298.103729</course><hAcc>0.881165</hAcc><vAcc>0.692275</vAcc></extensions></trkpt>
      <trkpt lon="-3.160646" lat="53.015979"><ele>337.689148</ele><time>2021-09-01T10:16:26Z</time><extensions><speed>1.216017</speed><course>294.101929</course><hAcc>0.881234</hAcc><vAcc>0.692499</vAcc></extensions></trkpt>
      <trkpt lon="-3.160640" lat="53.015989"><ele>337.736389</ele><time>2021-09-01T10:16:27Z</time><extensions><speed>1.220229</speed><course>298.669067</course><hAcc>0.881272</hAcc><vAcc>0.692605</vAcc></extensions></trkpt>
      <trkpt lon="-3.160633" lat="53.016000"><ele>337.784363</ele><time>2021-09-01T10:16:28Z</time><extensions><speed>1.228139</speed><course>297.460327</course><hAcc>0.881280</hAcc><vAcc>0.692597</vAcc></extensions></trkpt>
      <trkpt lon="-3.160625" lat="53.016010"><ele>337.833405</ele><time>2021-09-01T10:16:29Z</time><extensions><speed>1.237906</speed><course>300.643127</course><hAcc>0.881263</hAcc><vAcc>0.692489</vAcc></extensions></trkpt>
      <trkpt lon="-3.160618" lat="53.016020"><ele>337.883545</ele><time>2021-09-01T10:16:30Z</time><extensions><speed>1.248356</speed><course>300.762909</course><hAcc>0.881225</hAcc><vAcc>0.692305</vAcc></extensions></trkpt>
      <trkpt lon="-3.160610" lat="53.016030"><ele>337.934967</ele><time>2021-09-01T10:16:31Z</time><extensions><speed>1.258879</speed><course>306.221161</course><hAcc>0.881176</hAcc><vAcc>0.692075</vAcc></extensions></trkpt>
      <trkpt lon="-3.160601" lat="53.016040"><ele>337.988190</ele><time>2021-09-01T10:16:32Z</time><extensions><speed>1.269090</speed><course>311.753571</course><hAcc>0.881121</hAcc><vAcc>0.691831</vAcc></extensions></trkpt>
      <trkpt lon="-3.160593" lat="53.016050"><ele>338.043823</ele><time>2021-09-01T10:16:33Z</time><extensions><speed>1.279093</speed><course>314.039551</course><hAcc>0.881069</hAcc><vAcc>0.691601</vAcc></extensions></trkpt>
      <trkpt lon="-3.160584" lat="53.016061"><ele>338.102356</ele><time>2021-09-01T10:16:34Z</time><extensions><speed>1.289047</speed><course>316.125336</course><hAcc>0.881026</hAcc><vAcc>0.691413</vAcc></extensions></trkpt>
      <trkpt lon="-3.160575" lat="53.016071"><ele>338.164093</ele><time>2021-09-01T10:16:35Z</time><extensions><speed>1.298232</speed><course>313.054962</course><hAcc>0.880999</hAcc><vAcc>0.691289</vAcc></extensions></trkpt>
      <trkpt lon="-3.160566" lat="53.016081"><ele>338.229431</ele><time>2021-09-01T10:16:36Z</time><extensions><speed>1.305291</speed><course>309.718231</course><hAcc>0.880990</hAcc><vAcc>0.691247</vAcc></extensions></trkpt>
      <trkpt lon="-3.160557" lat="53.016092"><ele>338.298889</ele><time>2021-09-01T10:16:37Z</time><extensions><speed>1.309398</speed><course>315.993652</course><hAcc>0.881003</hAcc><vAcc>0.691300</vAcc></extensions></trkpt>
      <trkpt lon="-3.160547" lat="53.016102"><ele>338.372742</ele><time>2021-09-01T10:16:38Z</time><extensions><speed>1.310105</speed><course>314.639465</course><hAcc>0.881037</hAcc><vAcc>0.691445</vAcc></extensions></trkpt>
      <trkpt lon="-3.160537" lat="53.016112"><ele>338.450958</ele><time>2021-09-01T10:16:39Z</time><extensions><speed>1.306645</speed><course>314.699524</course><hAcc>0.881088</hAcc><vAcc>0.691665</vAcc></extensions></trkpt>
      <trkpt lon="-3.160528" lat="53.016122"><ele>338.533417</ele><time>2021-09-01T10:16:40Z</time><extensions><speed>1.298278</speed><course>315.537170</course><hAcc>0.881153</hAcc><vAcc>0.691934</vAcc></extensions></trkpt>
      <trkpt lon="-3.160518" lat="53.016132"><ele>338.620026</ele><time>2021-09-01T10:16:41Z</time><extensions><speed>1.284984</speed><course>315.384186</course><hAcc>0.881225</hAcc><vAcc>0.692221</vAcc></extensions></trkpt>
      <trkpt lon="-3.160508" lat="53.016142"><ele>338.710541</ele><time>2021-09-01T10:16:42Z</time><extensions><speed>1.267320</speed><course>316.068207</course><hAcc>0.881298</hAcc><vAcc>0.692497</vAcc></extensions></trkpt>
      <trkpt lon="-3.160499" lat="53.016152"><ele>338.804565</ele><time>2021-09-01T10:16:43Z</time><extensions><speed>1.245914</speed><course>319.526184</course><hAcc>0.881366</hAcc><vAcc>0.692745</vAcc></extensions></trkpt>
      <trkpt lon="-3.160489" lat="53.016161"><ele>338.901886</ele><time>2021-09-01T10:16:44Z</time><extensions><speed>1.221762</speed><course>322.032959</course><hAcc>0.881425</hAcc><vAcc>0.692954</vAcc></extensions></trkpt>
      <trkpt lon="-3.160480" lat="53.016171"><ele>339.002441</ele><time>2021-09-01T10:16:45Z</time><extensions><speed>1.195927</speed><course>326.209290</course><hAcc>0.881472</hAcc><vAcc>0.693116</vAcc></extensions></trkpt>
      <trkpt lon="-3.160471" lat="53.016180"><ele>339.106262</ele><time>2021-09-01T10:16:46Z</time><extensions><speed>1.168994</speed><course>324.142303</course><hAcc>0.881502</hAcc><vAcc>0.693228</vAcc></extensions></trkpt>
      <trkpt lon="-3.160462" lat="53.016189"><ele>339.213165</ele><time>2021-09-01T10:16:47Z</time><extensions><speed>1.141766</speed><course>332.193542</course><hAcc>0.881514</hAcc><vAcc>0.693283</vAcc></extensions></trkpt>
      <trkpt lon="-3.160454" lat="53.016197"><ele>339.322540</ele><time>2021-09-01T10:16:48Z</time><extensions><speed>1.115447</speed><course>329.558014</course><hAcc>0.881506</hAcc><vAcc>0.693274</vAcc></extensions></trkpt>
      <trkpt lon="-3.160445" lat="53.016206"><ele>339.433655</ele><time>2021-09-01T10:16:49Z</time><extensions><speed>1.091382</speed><course>323.309692</course><hAcc>0.881476</hAcc><vAcc>0.693200</vAcc></extensions></trkpt>
      <trkpt lon="-3.160436" lat="53.016214"><ele>339.545746</ele><time>2021-09-01T10:16:50Z</time><extensions><speed>1.071022</speed><course>319.992767</course><hAcc>0.881425</hAcc><vAcc>0.693062</vAcc></extensions></trkpt>
      <trkpt lon="-3.160428" lat="53.016222"><ele>339.658081</ele><time>2021-09-01T10:16:51Z</time><extensions><speed>1.055300</speed><course>322.539886</course><hAcc>0.881352</hAcc><vAcc>0.692861</vAcc></extensions></trkpt>
      <trkpt lon="-3.160420" lat="53.016230"><ele>339.769867</ele><time>2021-09-01T10:16:51Z</time><extensions><speed>1.043926</speed><course>317.532928</course><hAcc>0.881277</hAcc><vAcc>0.692613</vAcc></extensions></trkpt>
      <trkpt lon="-3.160411" lat="53.016238"><ele>339.880829</ele><time>2021-09-01T10:16:52Z</time><extensions><speed>1.036089</speed><course>314.725220</course><hAcc>0.881203</hAcc><vAcc>0.692320</vAcc></extensions></trkpt>
      <trkpt lon="-3.160403" lat="53.016246"><ele>339.990387</ele><time>2021-09-01T10:16:53Z</time><extensions><speed>1.031593</speed><course>325.463684</course><hAcc>0.881114</hAcc><vAcc>0.691979</vAcc></extensions></trkpt>
      <trkpt lon="-3.160395" lat="53.016254"><ele>340.098328</ele><time>2021-09-01T10:16:54Z</time><extensions><speed>1.030750</speed><course>326.490570</course><hAcc>0.881017</hAcc><vAcc>0.691606</vAcc></extensions></trkpt>
      <trkpt lon="-3.160387" lat="53.016261"><ele>340.204468</ele><time>2021-09-01T10:16:55Z</time><extensions><speed>1.033878</speed><course>316.111328</course><hAcc>0.880917</hAcc><vAcc>0.691222</vAcc></extensions></trkpt>
      <trkpt lon="-3.160378" lat="53.016269"><ele>340.308289</ele><time>2021-09-01T10:16:56Z</time><extensions><speed>1.040676</speed><course>316.470520</course><hAcc>0.880820</hAcc><vAcc>0.690854</vAcc></extensions></trkpt>
      <trkpt lon="-3.160370" lat="53.016277"><ele>340.409058</ele><time>2021-09-01T10:16:57Z</time><extensions><speed>1.050031</speed><course>317.921600</course><hAcc>0.880729</hAcc><vAcc>0.690525</vAcc></extensions></trkpt>
      <trkpt lon="-3.160361" lat="53.016285"><ele>340.506042</ele><time>2021-09-01T10:16:58Z</time><extensions><speed>1.060726</speed><course>317.925903</course><hAcc>0.880649</hAcc><vAcc>0.690256</vAcc></extensions></trkpt>
      <trkpt lon="-3.160353" lat="53.016293"><ele>340.598785</ele><time>2021-09-01T10:16:59Z</time><extensions><speed>1.071664</speed><course>316.840515</course><hAcc>0.880581</hAcc><vAcc>0.690052</vAcc></extensions></trkpt>
      <trkpt lon="-3.160344" lat="53.016301"><ele>340.687195</ele><time>2021-09-01T10:17:00Z</time><extensions><speed>1.081806</speed><course>321.987762</course><hAcc>0.880524</hAcc><vAcc>0.689907</vAcc></extensions></trkpt>
      <trkpt lon="-3.160335" lat="53.016310"><ele>340.771332</ele><time>2021-09-01T10:17:01Z</time><extensions><speed>1.090372</speed><course>314.291290</course><hAcc>0.880475</hAcc><vAcc>0.689803</vAcc></extensions></trkpt>
      <trkpt lon="-3.160327" lat="53.016318"><ele>340.851532</ele><time>2021-09-01T10:17:02Z</time><extensions><speed>1.096299</speed><course>311.665222</course><hAcc>0.880432</hAcc><vAcc>0.689718</vAcc></extensions></trkpt>
      <trkpt lon="-3.160318" lat="53.016326"><ele>340.928192</ele><time>2021-09-01T10:17:03Z</time><extensions><speed>1.099375</speed><course>315.645782</course><hAcc>0.880391</hAcc><vAcc>0.689625</vAcc></extensions></trkpt>
      <trkpt lon="-3.160309" lat="53.016334"><ele>341.001831</ele><time>2021-09-01T10:17:04Z</time><extensions><speed>1.100591</speed><course>312.390594</course><hAcc>0.880350</hAcc><vAcc>0.689509</vAcc></extensions></trkpt>
      <trkpt lon="-3.160300" lat="53.016343"><ele>341.072845</ele><time>2021-09-01T10:17:05Z</time><extensions><speed>1.101099</speed><course>315.968140</course><hAcc>0.880307</hAcc><vAcc>0.689364</vAcc></extensions></trkpt>
      <trkpt lon="-3.160291" lat="53.016351"><ele>341.141418</ele><time>2021-09-01T10:17:06Z</time><extensions><speed>1.101990</speed><course>305.843231</course><hAcc>0.880264</hAcc><vAcc>0.689197</vAcc></extensions></trkpt>
      <trkpt lon="-3.160281" lat="53.016359"><ele>341.207825</ele><time>2021-09-01T10:17:07Z</time><extensions><speed>1.103948</speed><course>307.428955</course><hAcc>0.880221</hAcc><vAcc>0.689021</vAcc></extensions></trkpt>
      <trkpt lon="-3.160272" lat="53.016367"><ele>341.272186</ele><time>2021-09-01T10:17:08Z</time><extensions><speed>1.107650</speed><course>303.591888</course><hAcc>0.880183</hAcc><vAcc>0.688854</vAcc></extensions></trkpt>
      <trkpt lon="-3.160263" lat="53.016375"><ele>341.334229</ele><time>2021-09-01T10:17:09Z</time><extensions><speed>1.113205</speed><course>302.311584</course><hAcc>0.880151</hAcc><vAcc>0.688714</vAcc></extensions></trkpt>
      <trkpt lon="-3.160253" lat="53.016384"><ele>341.393311</ele><time>2021-09-01T10:17:10Z</time><extensions><speed>1.119974</speed><course>296.010498</course><hAcc>0.880128</hAcc><vAcc>0.688622</vAcc></extensions></trkpt>
      <trkpt lon="-3.160243" lat="53.016392"><ele>341.448486</ele><time>2021-09-01T10:17:11Z</time><extensions><speed>1.127793</speed><course>298.597748</course><hAcc>0.880117</hAcc><vAcc>0.688586</vAcc></extensions></trkpt>
      <trkpt lon="-3.160234" lat="53.016400"><ele>341.498566</ele><time>2021-09-01T10:17:12Z</time><extensions><speed>1.136865</speed><course>307.419373</course><hAcc>0.880115</hAcc><vAcc>0.688602</vAcc></extensions></trkpt>
      <trkpt lon="-3.160224" lat="53.016409"><ele>341.542725</ele><time>2021-09-01T10:17:13Z</time><extensions><speed>1.147037</speed><course>311.127045</course><hAcc>0.880120</hAcc><vAcc>0.688654</vAcc></extensions></trkpt>
      <trkpt lon="-3.160215" lat="53.016418"><ele>341.580688</ele><time>2021-09-01T10:17:14Z</time><extensions><speed>1.157748</speed><course>308.779785</course><hAcc>0.880127</hAcc><vAcc>0.688720</vAcc></extensions></trkpt>
      <trkpt lon="-3.160205" lat="53.016426"><ele>341.612701</ele><time>2021-09-01T10:17:15Z</time><extensions><speed>1.167978</speed><course>310.817932</course><hAcc>0.880133</hAcc><vAcc>0.688781</vAcc></extensions></trkpt>
      <trkpt lon="-3.160196" lat="53.016435"><ele>341.639191</ele><time>2021-09-01T10:17:16Z</time><extensions><speed>1.176239</speed><course>313.903961</course><hAcc>0.880133</hAcc><vAcc>0.688823</vAcc></extensions></trkpt>
      <trkpt lon="-3.160187" lat="53.016444"><ele>341.660706</ele><time>2021-09-01T10:17:17Z</time><extensions><speed>1.181242</speed><course>312.113068</course><hAcc>0.880122</hAcc><vAcc>0.688830</vAcc></extensions></trkpt>
      <trkpt lon="-3.160178" lat="53.016453"><ele>341.677795</ele><time>2021-09-01T10:17:18Z</time><extensions><speed>1.182519</speed><course>298.693726</course><hAcc>0.880095</hAcc><vAcc>0.688788</vAcc></extensions></trkpt>
      <trkpt lon="-3.160169" lat="53.016463"><ele>341.691193</ele><time>2021-09-01T10:17:19Z</time><extensions><speed>1.180304</speed><course>304.126526</course><hAcc>0.880049</hAcc><vAcc>0.688678</vAcc></extensions></trkpt>
      <trkpt lon="-3.160160" lat="53.016472"><ele>341.701874</ele><time>2021-09-01T10:17:20Z</time><extensions><speed>1.174928</speed><course>307.202972</course><hAcc>0.879980</hAcc><vAcc>0.688485</vAcc></extensions></trkpt>
      <trkpt lon="-3.160152" lat="53.016481"><ele>341.711121</ele><time>2021-09-01T10:17:21Z</time><extensions><speed>1.166941</speed><course>306.849365</course><hAcc>0.879888</hAcc><vAcc>0.688199</vAcc></extensions></trkpt>
      <trkpt lon="-3.160143" lat="53.016490"><ele>341.720520</ele><time>2021-09-01T10:17:22Z</time><extensions><speed>1.156999</speed><course>311.228149</course><hAcc>0.879774</hAcc><vAcc>0.687819</vAcc></extensions></trkpt>
      <trkpt lon="-3.160134" lat="53.016499"><ele>341.731842</ele><time>2021-09-01T10:17:23Z</time><extensions><speed>1.145812</speed><course>314.984741</course><hAcc>0.879641</hAcc><vAcc>0.687356</vAcc></extensions></trkpt>
      <trkpt lon="-3.160126" lat="53.016508"><ele>341.746613</ele><time>2021-09-01T10:17:24Z</time><extensions><speed>1.134374</speed><course>312.149628</course><hAcc>0.879494</hAcc><vAcc>0.686828</vAcc></extensions></trkpt>
      <trkpt lon="-3.160117" lat="53.016516"><ele>341.766113</ele><time>2021-09-01T10:17:25Z</time><extensions><speed>1.123685</speed><course>303.811646</course><hAcc>0.879339</hAcc><vAcc>0.686266</vAcc></extensions></trkpt>
      <trkpt lon="-3.160108" lat="53.016525"><ele>341.791351</ele><time>2021-09-01T10:17:26Z</time><extensions><speed>1.114238</speed><course>306.939087</course><hAcc>0.879184</hAcc><vAcc>0.685707</vAcc></extensions></trkpt>
      <trkpt lon="-3.160099" lat="53.016533"><ele>341.823456</ele><time>2021-09-01T10:17:27Z</time><extensions><speed>1.105545</speed><course>305.149933</course><hAcc>0.879037</hAcc><vAcc>0.685188</vAcc></extensions></trkpt>
      <trkpt lon="-3.160089" lat="53.016541"><ele>341.863434</ele><time>2021-09-01T10:17:28Z</time><extensions><speed>1.097126</speed><course>307.460999</course><hAcc>0.878904</hAcc><vAcc>0.684737</vAcc></extensions></trkpt>
      <trkpt lon="-3.160079" lat="53.016549"><ele>341.911865</ele><time>2021-09-01T10:17:29Z</time><extensions><speed>1.089520</speed><course>310.556549</course><hAcc>0.878788</hAcc><vAcc>0.684367</vAcc></extensions></trkpt>
      <trkpt lon="-3.160069" lat="53.016556"><ele>341.969025</ele><time>2021-09-01T10:17:30Z</time><extensions><speed>1.083542</speed><course>316.643463</course><hAcc>0.878688</hAcc><vAcc>0.684073</vAcc></extensions></trkpt>
      <trkpt lon="-3.160058" lat="53.016564"><ele>342.035370</ele><time>2021-09-01T10:17:31Z</time><extensions><speed>1.079838</speed><course>310.111420</course><hAcc>0.878602</hAcc><vAcc>0.683836</vAcc></extensions></trkpt>
      <trkpt lon="-3.160047" lat="53.016571"><ele>342.111298</ele><time>2021-09-01T10:17:32Z</time><extensions><speed>1.078955</speed><course>309.394775</course><hAcc>0.878525</hAcc><vAcc>0.683635</vAcc></extensions></trkpt>
      <trkpt lon="-3.160036" lat="53.016578"><ele>342.196747</ele><time>2021-09-01T10:17:33Z</time><extensions><speed>1.081209</speed><course>312.734375</course><hAcc>0.878452</hAcc><vAcc>0.683447</vAcc></extensions></trkpt>
      <trkpt lon="-3.160024" lat="53.016584"><ele>342.291077</ele><time>2021-09-01T10:17:34Z</time><extensions><speed>1.086276</speed><course>307.110260</course><hAcc>0.878377</hAcc><vAcc>0.683252</vAcc></extensions></trkpt>
      <trkpt lon="-3.160012" lat="53.016591"><ele>342.393311</ele><time>2021-09-01T10:17:35Z</time><extensions><speed>1.093016</speed><course>304.794312</course><hAcc>0.878293</hAcc><vAcc>0.683035</vAcc></extensions></trkpt>
      <trkpt lon="-3.160000" lat="53.016597"><ele>342.502075</ele><time>2021-09-01T10:17:36Z</time><extensions><speed>1.100150</speed><course>309.669006</course><hAcc>0.878195</hAcc><vAcc>0.682780</vAcc></extensions></trkpt>
      <trkpt lon="-3.159987" lat="53.016604"><ele>342.615540</ele><time>2021-09-01T10:17:37Z</time><extensions><speed>1.106897</speed><course>309.747101</course><hAcc>0.878077</hAcc><vAcc>0.682466</vAcc></extensions></trkpt>
      <trkpt lon="-3.159974" lat="53.016610"><ele>342.731812</ele><time>2021-09-01T10:17:38Z</time><extensions><speed>1.112884</speed><course>308.451904</course><hAcc>0.877933</hAcc><vAcc>0.682068</vAcc></extensions></trkpt>
      <trkpt lon="-3.159961" lat="53.016616"><ele>342.849335</ele><time>2021-09-01T10:17:39Z</time><extensions><speed>1.118519</speed><course>313.674774</course><hAcc>0.877756</hAcc><vAcc>0.681556</vAcc></extensions></trkpt>
      <trkpt lon="-3.159948" lat="53.016623"><ele>342.967010</ele><time>2021-09-01T10:17:40Z</time><extensions><speed>1.124319</speed><course>310.174561</course><hAcc>0.877545</hAcc><vAcc>0.680910</vAcc></extensions></trkpt>
      <trkpt lon="-3.159935" lat="53.016629"><ele>343.083893</ele><time>2021-09-01T10:17:41Z</time><extensions><speed>1.130026</speed><course>312.894348</course><hAcc>0.877300</hAcc><vAcc>0.680122</vAcc></extensions></trkpt>
      <trkpt lon="-3.159922" lat="53.016635"><ele>343.199127</ele><time>2021-09-01T10:17:42Z</time><extensions><speed>1.135003</speed><course>309.740997</course><hAcc>0.877027</hAcc><vAcc>0.679209</vAcc></extensions></trkpt>
      <trkpt lon="-3.159909" lat="53.016642"><ele>343.311920</ele><time>2021-09-01T10:17:43Z</time><extensions><speed>1.138228</speed><course>309.271240</course><hAcc>0.876733</hAcc><vAcc>0.678206</vAcc></extensions></trkpt>
      <trkpt lon="-3.159896" lat="53.016649"><ele>343.421417</ele><time>2021-09-01T10:17:44Z</time><extensions><speed>1.139103</speed><course>309.840485</course><hAcc>0.876433</hAcc><vAcc>0.677163</vAcc></extensions></trkpt>
      <trkpt lon="-3.159884" lat="53.016655"><ele>343.526520</ele><time>2021-09-01T10:17:45Z</time><extensions><speed>1.137901</speed><course>308.054108</course><hAcc>0.876140</hAcc><vAcc>0.676139</vAcc></extensions></trkpt>
      <trkpt lon="-3.159871" lat="53.016662"><ele>343.626099</ele><time>2021-09-01T10:17:46Z</time><extensions><speed>1.135243</speed><course>306.226685</course><hAcc>0.875870</hAcc><vAcc>0.675191</vAcc></extensions></trkpt>
      <trkpt lon="-3.159858" lat="53.016669"><ele>343.718964</ele><time>2021-09-01T10:17:47Z</time><extensions><speed>1.131998</speed><course>316.211884</course><hAcc>0.875636</hAcc><vAcc>0.674377</vAcc></extensions></trkpt>
      <trkpt lon="-3.159846" lat="53.016676"><ele>343.804199</ele><time>2021-09-01T10:17:48Z</time><extensions><speed>1.129732</speed><course>312.798523</course><hAcc>0.875450</hAcc><vAcc>0.673741</vAcc></extensions></trkpt>
      <trkpt lon="-3.159833" lat="53.016683"><ele>343.881104</ele><time>2021-09-01T10:17:49Z</time><extensions><speed>1.129617</speed><course>314.823364</course><hAcc>0.875322</hAcc><vAcc>0.673310</vAcc></extensions></trkpt>
      <trkpt lon="-3.159821" lat="53.016689"><ele>343.949219</ele><time>2021-09-01T10:17:50Z</time><extensions><speed>1.131704</speed><course>317.560303</course><hAcc>0.875253</hAcc><vAcc>0.673092</vAcc></extensions></trkpt>
      <trkpt lon="-3.159809" lat="53.016696"><ele>344.008484</ele><time>2021-09-01T10:17:51Z</time><extensions><speed>1.135504</speed><course>313.870911</course><hAcc>0.875247</hAcc><vAcc>0.673089</vAcc></extensions></trkpt>
      <trkpt lon="-3.159796" lat="53.016703"><ele>344.059265</ele><time>2021-09-01T10:17:52Z</time><extensions><speed>1.140262</speed><course>320.858917</course><hAcc>0.875301</hAcc><vAcc>0.673295</vAcc></extensions></trkpt>
      <trkpt lon="-3.159784" lat="53.016710"><ele>344.102356</ele><time>2021-09-01T10:17:53Z</time><extensions><speed>1.145365</speed><course>322.110107</course><hAcc>0.875413</hAcc><vAcc>0.673693</vAcc></extensions></trkpt>
      <trkpt lon="-3.159771" lat="53.016717"><ele>344.138672</ele><time>2021-09-01T10:17:54Z</time><extensions><speed>1.149952</speed><course>322.258118</course><hAcc>0.875575</hAcc><vAcc>0.674255</vAcc></extensions></trkpt>
      <trkpt lon="-3.159759" lat="53.016724"><ele>344.169373</ele><time>2021-09-01T10:17:55Z</time><extensions><speed>1.153633</speed><course>323.751770</course><hAcc>0.875780</hAcc><vAcc>0.674945</vAcc></extensions></trkpt>
      <trkpt lon="-3.159746" lat="53.016731"><ele>344.196167</ele><time>2021-09-01T10:17:56Z</time><extensions><speed>1.156729</speed><course>311.017761</course><hAcc>0.876020</hAcc><vAcc>0.675728</vAcc></extensions></trkpt>
      <trkpt lon="-3.159733" lat="53.016738"><ele>344.221008</ele><time>2021-09-01T10:17:57Z</time><extensions><speed>1.159617</speed><course>303.134949</course><hAcc>0.876288</hAcc><vAcc>0.676584</vAcc></extensions></trkpt>
      <trkpt lon="-3.159720" lat="53.016745"><ele>344.245789</ele><time>2021-09-01T10:17:58Z</time><extensions><speed>1.162229</speed><course>305.266266</course><hAcc>0.876581</hAcc><vAcc>0.677504</vAcc></extensions></trkpt>
      <trkpt lon="-3.159706" lat="53.016752"><ele>344.272186</ele><time>2021-09-01T10:17:59Z</time><extensions><speed>1.163874</speed><course>306.244568</course><hAcc>0.876896</hAcc><vAcc>0.678492</vAcc></extensions></trkpt>
      <trkpt lon="-3.159693" lat="53.016758"><ele>344.301727</ele><time>2021-09-01T10:18:00Z</time><extensions><speed>1.163954</speed><course>311.028961</course><hAcc>0.877230</hAcc><vAcc>0.679550</vAcc></extensions></trkpt>
      <trkpt lon="-3.159679" lat="53.016764"><ele>344.336060</ele><time>2021-09-01T10:18:01Z</time><extensions><speed>1.162111</speed><course>304.990997</course><hAcc>0.877579</hAcc><vAcc>0.680672</vAcc></extensions></trkpt>
      <trkpt lon="-3.159665" lat="53.016770"><ele>344.377106</ele><time>2021-09-01T10:18:02Z</time><extensions><speed>1.158128</speed><course>305.619354</course><hAcc>0.877940</hAcc><vAcc>0.681842</vAcc></extensions></trkpt>
      <trkpt lon="-3.159651" lat="53.016776"><ele>344.426727</ele><time>2021-09-01T10:18:03Z</time><extensions><speed>1.151859</speed><course>319.038269</course><hAcc>0.878305</hAcc><vAcc>0.683040</vAcc></extensions></trkpt>
      <trkpt lon="-3.159636" lat="53.016782"><ele>344.486572</ele><time>2021-09-01T10:18:04Z</time><extensions><speed>1.143451</speed><course>314.772644</course><hAcc>0.878668</hAcc><vAcc>0.684243</vAcc></extensions></trkpt>
      <trkpt lon="-3.159622" lat="53.016787"><ele>344.557312</ele><time>2021-09-01T10:18:05Z</time><extensions><speed>1.133613</speed><course>314.865356</course><hAcc>0.879022</hAcc><vAcc>0.685426</vAcc></extensions></trkpt>
      <trkpt lon="-3.159608" lat="53.016793"><ele>344.638977</ele><time>2021-09-01T10:18:06Z</time><extensions><speed>1.122832</speed><course>315.584076</course><hAcc>0.879359</hAcc><vAcc>0.686563</vAcc></extensions></trkpt>
      <trkpt lon="-3.159593" lat="53.016798"><ele>344.731476</ele><time>2021-09-01T10:18:07Z</time><extensions><speed>1.111283</speed><course>318.301117</course><hAcc>0.879673</hAcc><vAcc>0.687621</vAcc></extensions></trkpt>
      <trkpt lon="-3.159579" lat="53.016803"><ele>344.834625</ele><time>2021-09-01T10:18:08Z</time><extensions><speed>1.099357</speed><course>308.957520</course><hAcc>0.879957</hAcc><vAcc>0.688566</vAcc></extensions></trkpt>
      <trkpt lon="-3.159565" lat="53.016808"><ele>344.947815</ele><time>2021-09-01T10:18:09Z</time><extensions><speed>1.087682</speed><course>309.679749</course><hAcc>0.880206</hAcc><vAcc>0.689370</vAcc></extensions></trkpt>
      <trkpt lon="-3.159551" lat="53.016812"><ele>345.070129</ele><time>2021-09-01T10:18:10Z</time><extensions><speed>1.076948</speed><course>315.508118</course><hAcc>0.880420</hAcc><vAcc>0.690018</vAcc></extensions></trkpt>
      <trkpt lon="-3.159537" lat="53.016817"><ele>345.200531</ele><time>2021-09-01T10:18:11Z</time><extensions><speed>1.067853</speed><course>315.740204</course><hAcc>0.880600</hAcc><vAcc>0.690518</vAcc></extensions></trkpt>
      <trkpt lon="-3.159523" lat="53.016822"><ele>345.337921</ele><time>2021-09-01T10:18:12Z</time><extensions><speed>1.061020</speed><course>310.654785</course><hAcc>0.880752</hAcc><vAcc>0.690898</vAcc></extensions></trkpt>
      <trkpt lon="-3.159509" lat="53.016826"><ele>345.481049</ele><time>2021-09-01T10:18:13Z</time><extensions><speed>1.056691</speed><course>314.784058</course><hAcc>0.880882</hAcc><vAcc>0.691200</vAcc></extensions></trkpt>
      <trkpt lon="-3.159495" lat="53.016831"><ele>345.628754</ele><time>2021-09-01T10:18:14Z</time><extensions><speed>1.054766</speed><course>306.836517</course><hAcc>0.881001</hAcc><vAcc>0.691474</vAcc></extensions></trkpt>
      <trkpt lon="-3.159481" lat="53.016835"><ele>345.779510</ele><time>2021-09-01T10:18:15Z</time><extensions><speed>1.054966</speed><course>319.014709</course><hAcc>0.881115</hAcc><vAcc>0.691762</vAcc></extensions></trkpt>
      <trkpt lon="-3.159467" lat="53.016840"><ele>345.931732</ele><time>2021-09-01T10:18:16Z</time><extensions><speed>1.056953</speed><course>316.668060</course><hAcc>0.881233</hAcc><vAcc>0.692095</vAcc></extensions></trkpt>
      <trkpt lon="-3.159454" lat="53.016844"><ele>346.083832</ele><time>2021-09-01T10:18:17Z</time><extensions><speed>1.060797</speed><course>317.381256</course><hAcc>0.881358</hAcc><vAcc>0.692485</vAcc></extensions></trkpt>
      <trkpt lon="-3.159440" lat="53.016848"><ele>346.234497</ele><time>2021-09-01T10:18:18Z</time><extensions><speed>1.066817</speed><course>315.522644</course><hAcc>0.881493</hAcc><vAcc>0.692932</vAcc></extensions></trkpt>
      <trkpt lon="-3.159425" lat="53.016853"><ele>346.382965</ele><time>2021-09-01T10:18:19Z</time><extensions><speed>1.074678</speed><course>313.748596</course><hAcc>0.881638</hAcc><vAcc>0.693426</vAcc></extensions></trkpt>
      <trkpt lon="-3.159411" lat="53.016858"><ele>346.528656</ele><time>2021-09-01T10:18:20Z</time><extensions><speed>1.084150</speed><course>311.298676</course><hAcc>0.881791</hAcc><vAcc>0.693955</vAcc></extensions></trkpt>
      <trkpt lon="-3.159397" lat="53.016862"><ele>346.671234</ele><time>2021-09-01T10:18:21Z</time><extensions><speed>1.094682</speed><course>307.453308</course><hAcc>0.881949</hAcc><vAcc>0.694500</vAcc></extensions></trkpt>
      <trkpt lon="-3.159383" lat="53.016867"><ele>346.810333</ele><time>2021-09-01T10:18:22Z</time><extensions><speed>1.105206</speed><course>308.937561</course><hAcc>0.882108</hAcc><vAcc>0.695043</vAcc></extensions></trkpt>
      <trkpt lon="-3.159368" lat="53.016872"><ele>346.945618</ele><time>2021-09-01T10:18:23Z</time><extensions><speed>1.115028</speed><course>304.505646</course><hAcc>0.882266</hAcc><vAcc>0.695567</vAcc></extensions></trkpt>
      <trkpt lon="-3.159354" lat="53.016877"><ele>347.076691</ele><time>2021-09-01T10:18:24Z</time><extensions><speed>1.123506</speed><course>299.094574</course><hAcc>0.882418</hAcc><vAcc>0.696062</vAcc></extensions></trkpt>
      <trkpt lon="-3.159339" lat="53.016882"><ele>347.203094</ele><time>2021-09-01T10:18:25Z</time><extensions><speed>1.130147</speed><course>310.704071</course><hAcc>0.882561</hAcc><vAcc>0.696521</vAcc></extensions></trkpt>
      <trkpt lon="-3.159325" lat="53.016887"><ele>347.324554</ele><time>2021-09-01T10:18:26Z</time><extensions><speed>1.134883</speed><course>308.713898</course><hAcc>0.882694</hAcc><vAcc>0.696941</vAcc></extensions></trkpt>
      <trkpt lon="-3.159311" lat="53.016893"><ele>347.440979</ele><time>2021-09-01T10:18:27Z</time><extensions><speed>1.137888</speed><course>315.990417</course><hAcc>0.882814</hAcc><vAcc>0.697322</vAcc></extensions></trkpt>
      <trkpt lon="-3.159297" lat="53.016899"><ele>347.552490</ele><time>2021-09-01T10:18:28Z</time><extensions><speed>1.139153</speed><course>316.941956</course><hAcc>0.882920</hAcc><vAcc>0.697662</vAcc></extensions></trkpt>
      <trkpt lon="-3.159283" lat="53.016904"><ele>347.659027</ele><time>2021-09-01T10:18:29Z</time><extensions><speed>1.138599</speed><course>326.025696</course><hAcc>0.883009</hAcc><vAcc>0.697956</vAcc></extensions></trkpt>
      <trkpt lon="-3.159269" lat="53.016910"><ele>347.759949</ele><time>2021-09-01T10:18:30Z</time><extensions><speed>1.136112</speed><course>316.997101</course><hAcc>0.883082</hAcc><vAcc>0.698197</vAcc></extensions></trkpt>
      <trkpt lon="-3.159255" lat="53.016917"><ele>347.854309</ele><time>2021-09-01T10:18:31Z</time><extensions><speed>1.132313</speed><course>307.396637</course><hAcc>0.883135</hAcc><vAcc>0.698378</vAcc></extensions></trkpt>
      <trkpt lon="-3.159242" lat="53.016923"><ele>347.941193</ele><time>2021-09-01T10:18:32Z</time><extensions><speed>1.128531</speed><course>307.245117</course><hAcc>0.883170</hAcc><vAcc>0.698493</vAcc></extensions></trkpt>
      <trkpt lon="-3.159229" lat="53.016929"><ele>348.020233</ele><time>2021-09-01T10:18:33Z</time><extensions><speed>1.125514</speed><course>302.943970</course><hAcc>0.883185</hAcc><vAcc>0.698540</vAcc></extensions></trkpt>
      <trkpt lon="-3.159216" lat="53.016935"><ele>348.091583</ele><time>2021-09-01T10:18:34Z</time><extensions><speed>1.123607</speed><course>310.986115</course><hAcc>0.883180</hAcc><vAcc>0.698521</vAcc></extensions></trkpt>
      <trkpt lon="-3.159203" lat="53.016942"><ele>348.155823</ele><time>2021-09-01T10:18:35Z</time><extensions><speed>1.123319</speed><course>317.229156</course><hAcc>0.883155</hAcc><vAcc>0.698438</vAcc></extensions></trkpt>
      <trkpt lon="-3.159190" lat="53.016948"><ele>348.213684</ele><time>2021-09-01T10:18:36Z</time><extensions><speed>1.125451</speed><course>310.287506</course><hAcc>0.883113</hAcc><vAcc>0.698294</vAcc></extensions></trkpt>
      <trkpt lon="-3.159178" lat="53.016955"><ele>348.265717</ele><time>2021-09-01T10:18:37Z</time><extensions><speed>1.131012</speed><course>314.657898</course><hAcc>0.883054</hAcc><vAcc>0.698091</vAcc></extensions></trkpt>
      <trkpt lon="-3.159165" lat="53.016962"><ele>348.312134</ele><time>2021-09-01T10:18:38Z</time><extensions><speed>1.140702</speed><course>316.163879</course><hAcc>0.882980</hAcc><vAcc>0.697835</vAcc></extensions></trkpt>
      <trkpt lon="-3.159152" lat="53.016968"><ele>348.353088</ele><time>2021-09-01T10:18:39Z</time><extensions><speed>1.154580</speed><course>315.280670</course><hAcc>0.882895</hAcc><vAcc>0.697533</vAcc></extensions></trkpt>
      <trkpt lon="-3.159139" lat="53.016975"><ele>348.388489</ele><time>2021-09-01T10:18:40Z</time><extensions><speed>1.172016</speed><course>323.358459</course><hAcc>0.882799</hAcc><vAcc>0.697200</vAcc></extensions></trkpt>
      <trkpt lon="-3.159125" lat="53.016982"><ele>348.417969</ele><time>2021-09-01T10:18:41Z</time><extensions><speed>1.191151</speed><course>323.478973</course><hAcc>0.882698</hAcc><vAcc>0.696853</vAcc></extensions></trkpt>
      <trkpt lon="-3.159112" lat="53.016989"><ele>348.441498</ele><time>2021-09-01T10:18:42Z</time><extensions><speed>1.209617</speed><course>327.884216</course><hAcc>0.882595</hAcc><vAcc>0.696503</vAcc></extensions></trkpt>
      <trkpt lon="-3.159098" lat="53.016996"><ele>348.459778</ele><time>2021-09-01T10:18:43Z</time><extensions><speed>1.226135</speed><course>318.187775</course><hAcc>0.882491</hAcc><vAcc>0.696155</vAcc></extensions></trkpt>
      <trkpt lon="-3.159083" lat="53.017003"><ele>348.473450</ele><time>2021-09-01T10:18:44Z</time><extensions><speed>1.241194</speed><course>318.936035</course><hAcc>0.882391</hAcc><vAcc>0.695808</vAcc></extensions></trkpt>
      <trkpt lon="-3.159069" lat="53.017010"><ele>348.482513</ele><time>2021-09-01T10:18:45Z</time><extensions><speed>1.255583</speed><course>326.780121</course><hAcc>0.882297</hAcc><vAcc>0.695462</vAcc></extensions></trkpt>
      <trkpt lon="-3.159054" lat="53.017017"><ele>348.486420</ele><time>2021-09-01T10:18:46Z</time><extensions><speed>1.269531</speed><course>314.218445</course><hAcc>0.882213</hAcc><vAcc>0.695130</vAcc></extensions></trkpt>
      <trkpt lon="-3.159039" lat="53.017024"><ele>348.484467</ele><time>2021-09-01T10:18:48Z</time><extensions><speed>1.283069</speed><course>317.554047</course><hAcc>0.882123</hAcc><vAcc>0.694817</vAcc></extensions></trkpt>
      <trkpt lon="-3.159024" lat="53.017031"><ele>348.475983</ele><time>2021-09-01T10:18:49Z</time><extensions><speed>1.295813</speed><course>317.225586</course><hAcc>0.882031</hAcc><vAcc>0.694543</vAcc></extensions></trkpt>
      <trkpt lon="-3.159008" lat="53.017038"><ele>348.460968</ele><time>2021-09-01T10:18:50Z</time><extensions><speed>1.307829</speed><course>318.371796</course><hAcc>0.881955</hAcc><vAcc>0.694330</vAcc></extensions></trkpt>
      <trkpt lon="-3.158992" lat="53.017045"><ele>348.439972</ele><time>2021-09-01T10:18:51Z</time><extensions><speed>1.319918</speed><course>319.534454</course><hAcc>0.881895</hAcc><vAcc>0.694175</vAcc></extensions></trkpt>
      <trkpt lon="-3.158976" lat="53.017052"><ele>348.413666</ele><time>2021-09-01T10:18:52Z</time><extensions><speed>1.332997</speed><course>319.948578</course><hAcc>0.881847</hAcc><vAcc>0.694063</vAcc></extensions></trkpt>
      <trkpt lon="-3.158960" lat="53.017059"><ele>348.382324</ele><time>2021-09-01T10:18:53Z</time><extensions><speed>1.347028</speed><course>326.867279</course><hAcc>0.881810</hAcc><vAcc>0.693983</vAcc></extensions></trkpt>
      <trkpt lon="-3.158943" lat="53.017065"><ele>348.346100</ele><time>2021-09-01T10:18:54Z</time><extensions><speed>1.360735</speed><course>319.995087</course><hAcc>0.881781</hAcc><vAcc>0.693925</vAcc></extensions></trkpt>
      <trkpt lon="-3.158926" lat="53.017072"><ele>348.305634</ele><time>2021-09-01T10:18:55Z</time><extensions><speed>1.372979</speed><course>323.754486</course><hAcc>0.881757</hAcc><vAcc>0.693883</vAcc></extensions></trkpt>
      <trkpt lon="-3.158909" lat="53.017079"><ele>348.262115</ele><time>2021-09-01T10:18:56Z</time><extensions><speed>1.382872</speed><course>327.994751</course><hAcc>0.881736</hAcc><vAcc>0.693851</vAcc></extensions></trkpt>
      <trkpt lon="-3.158891" lat="53.017086"><ele>348.217041</ele><time>2021-09-01T10:18:57Z</time><extensions><speed>1.389120</speed><course>338.740143</course><hAcc>0.881715</hAcc><vAcc>0.693824</vAcc></extensions></trkpt>
      <trkpt lon="-3.158874" lat="53.017092"><ele>348.172089</ele><time>2021-09-01T10:18:57Z</time><extensions><speed>1.390763</speed><course>336.648224</course><hAcc>0.881709</hAcc><vAcc>0.693809</vAcc></extensions></trkpt>
      <trkpt lon="-3.158856" lat="53.017099"><ele>348.128693</ele><time>2021-09-01T10:18:58Z</time><extensions><speed>1.387165</speed><course>335.818359</course><hAcc>0.881717</hAcc><vAcc>0.693800</vAcc></extensions></trkpt>
      <trkpt lon="-3.158839" lat="53.017106"><ele>348.088318</ele><time>2021-09-01T10:19:00Z</time><extensions><speed>1.378644</speed><course>332.183533</course><hAcc>0.881701</hAcc><vAcc>0.693765</vAcc></extensions></trkpt>
      <trkpt lon="-3.158821" lat="53.017112"><ele>348.052185</ele><time>2021-09-01T10:19:01Z</time><extensions><speed>1.366135</speed><course>329.123840</course><hAcc>0.881659</hAcc><vAcc>0.693698</vAcc></extensions></trkpt>
      <trkpt lon="-3.158804" lat="53.017118"><ele>348.020874</ele><time>2021-09-01T10:19:01Z</time><extensions><speed>1.350468</speed><course>331.386230</course><hAcc>0.881628</hAcc><vAcc>0.693621</vAcc></extensions></trkpt>
      <trkpt lon="-3.158787" lat="53.017125"><ele>347.994141</ele><time>2021-09-01T10:19:02Z</time><extensions><speed>1.332514</speed><course>327.161377</course><hAcc>0.881606</hAcc><vAcc>0.693532</vAcc></extensions></trkpt>
      <trkpt lon="-3.158770" lat="53.017131"><ele>347.971771</ele><time>2021-09-01T10:19:03Z</time><extensions><speed>1.313430</speed><course>327.868042</course><hAcc>0.881576</hAcc><vAcc>0.693419</vAcc></extensions></trkpt>
      <trkpt lon="-3.158753" lat="53.017137"><ele>347.953766</ele><time>2021-09-01T10:19:04Z</time><extensions><speed>1.295059</speed><course>323.627838</course><hAcc>0.881542</hAcc><vAcc>0.693284</vAcc></extensions></trkpt>
      <trkpt lon="-3.158737" lat="53.017143"><ele>347.939972</ele><time>2021-09-01T10:19:05Z</time><extensions><speed>1.279336</speed><course>324.612000</course><hAcc>0.881506</hAcc><vAcc>0.693135</vAcc></extensions></trkpt>
      <trkpt lon="-3.158721" lat="53.017149"><ele>347.930176</ele><time>2021-09-01T10:19:06Z</time><extensions><speed>1.267188</speed><course>314.250275</course><hAcc>0.881473</hAcc><vAcc>0.692980</vAcc></extensions></trkpt>
      <trkpt lon="-3.158705" lat="53.017155"><ele>347.924286</ele><time>2021-09-01T10:19:07Z</time><extensions><speed>1.258684</speed><course>324.325928</course><hAcc>0.881448</hAcc><vAcc>0.692838</vAcc></extensions></trkpt>
      <trkpt lon="-3.158689" lat="53.017160"><ele>347.922333</ele><time>2021-09-01T10:19:08Z</time><extensions><speed>1.253849</speed><course>323.620239</course><hAcc>0.881439</hAcc><vAcc>0.692735</vAcc></extensions></trkpt>
      <trkpt lon="-3.158672" lat="53.017166"><ele>347.924164</ele><time>2021-09-01T10:19:09Z</time><extensions><speed>1.252543</speed><course>318.647095</course><hAcc>0.881452</hAcc><vAcc>0.692703</vAcc></extensions></trkpt>
      <trkpt lon="-3.158656" lat="53.017172"><ele>347.929626</ele><time>2021-09-01T10:19:10Z</time><extensions><speed>1.254022</speed><course>325.356964</course><hAcc>0.881492</hAcc><vAcc>0.692773</vAcc></extensions></trkpt>
      <trkpt lon="-3.158640" lat="53.017177"><ele>347.938965</ele><time>2021-09-01T10:19:11Z</time><extensions><speed>1.256565</speed><course>319.826599</course><hAcc>0.881566</hAcc><vAcc>0.692968</vAcc></extensions></trkpt>
      <trkpt lon="-3.158623" lat="53.017182"><ele>347.952606</ele><time>2021-09-01T10:19:12Z</time><extensions><speed>1.258170</speed><course>314.735016</course><hAcc>0.881673</hAcc><vAcc>0.693303</vAcc></extensions></trkpt>
      <trkpt lon="-3.158607" lat="53.017188"><ele>347.971283</ele><time>2021-09-01T10:19:13Z</time><extensions><speed>1.257388</speed><course>309.478760</course><hAcc>0.881815</hAcc><vAcc>0.693781</vAcc></extensions></trkpt>
      <trkpt lon="-3.158590" lat="53.017193"><ele>347.995514</ele><time>2021-09-01T10:19:14Z</time><extensions><speed>1.253196</speed><course>319.543488</course><hAcc>0.881988</hAcc><vAcc>0.694389</vAcc></extensions></trkpt>
      <trkpt lon="-3.158573" lat="53.017198"><ele>348.025757</ele><time>2021-09-01T10:19:15Z</time><extensions><speed>1.245021</speed><course>324.087982</course><hAcc>0.882186</hAcc><vAcc>0.695105</vAcc></extensions></trkpt>
      <trkpt lon="-3.158557" lat="53.017203"><ele>348.062592</ele><time>2021-09-01T10:19:16Z</time><extensions><speed>1.232995</speed><course>317.628326</course><hAcc>0.882398</hAcc><vAcc>0.695892</vAcc></extensions></trkpt>
      <trkpt lon="-3.158540" lat="53.017207"><ele>348.106873</ele><time>2021-09-01T10:19:17Z</time><extensions><speed>1.217649</speed><course>311.843903</course><hAcc>0.882616</hAcc><vAcc>0.696706</vAcc></extensions></trkpt>
      <trkpt lon="-3.158524" lat="53.017212"><ele>348.159332</ele><time>2021-09-01T10:19:18Z</time><extensions><speed>1.199694</speed><course>320.026215</course><hAcc>0.882826</hAcc><vAcc>0.697498</vAcc></extensions></trkpt>
      <trkpt lon="-3.158508" lat="53.017216"><ele>348.220428</ele><time>2021-09-01T10:19:19Z</time><extensions><speed>1.179991</speed><course>320.448669</course><hAcc>0.883019</hAcc><vAcc>0.698219</vAcc></extensions></trkpt>
      <trkpt lon="-3.158492" lat="53.017220"><ele>348.290100</ele><time>2021-09-01T10:19:20Z</time><extensions><speed>1.159174</speed><course>324.626526</course><hAcc>0.883184</hAcc><vAcc>0.698823</vAcc></extensions></trkpt>
      <trkpt lon="-3.158476" lat="53.017224"><ele>348.368225</ele><time>2021-09-01T10:19:21Z</time><extensions><speed>1.137719</speed><course>326.167938</course><hAcc>0.883312</hAcc><vAcc>0.699271</vAcc></extensions></trkpt>
      <trkpt lon="-3.158460" lat="53.017228"><ele>348.454620</ele><time>2021-09-01T10:19:22Z</time><extensions><speed>1.116004</speed><course>325.390656</course><hAcc>0.883398</hAcc><vAcc>0.699543</vAcc></extensions></trkpt>
      <trkpt lon="-3.158445" lat="53.017231"><ele>348.548615</ele><time>2021-09-01T10:19:23Z</time><extensions><speed>1.094453</speed><course>314.974457</course><hAcc>0.883438</hAcc><vAcc>0.699636</vAcc></extensions></trkpt>
      <trkpt lon="-3.158430" lat="53.017235"><ele>348.649353</ele><time>2021-09-01T10:19:24Z</time><extensions><speed>1.073685</speed><course>325.724579</course><hAcc>0.883431</hAcc><vAcc>0.699563</vAcc></extensions></trkpt>
      <trkpt lon="-3.158415" lat="53.017238"><ele>348.755676</ele><time>2021-09-01T10:19:25Z</time><extensions><speed>1.054456</speed><course>318.034210</course><hAcc>0.883379</hAcc><vAcc>0.699342</vAcc></extensions></trkpt>
      <trkpt lon="-3.158400" lat="53.017241"><ele>348.866486</ele><time>2021-09-01T10:19:26Z</time><extensions><speed>1.037525</speed><course>313.475250</course><hAcc>0.883283</hAcc><vAcc>0.698993</vAcc></extensions></trkpt>
      <trkpt lon="-3.158386" lat="53.017244"><ele>348.980621</ele><time>2021-09-01T10:19:27Z</time><extensions><speed>1.023579</speed><course>321.089203</course><hAcc>0.883150</hAcc><vAcc>0.698532</vAcc></extensions></trkpt>
      <trkpt lon="-3.158371" lat="53.017247"><ele>349.097137</ele><time>2021-09-01T10:19:28Z</time><extensions><speed>1.012874</speed><course>329.810181</course><hAcc>0.882983</hAcc><vAcc>0.697972</vAcc></extensions></trkpt>
      <trkpt lon="-3.158357" lat="53.017250"><ele>349.215027</ele><time>2021-09-01T10:19:29Z</time><extensions><speed>1.005421</speed><course>327.314850</course><hAcc>0.882789</hAcc><vAcc>0.697325</vAcc></extensions></trkpt>
      <trkpt lon="-3.158342" lat="53.017252"><ele>349.333344</ele><time>2021-09-01T10:19:30Z</time><extensions><speed>1.001714</speed><course>321.503876</course><hAcc>0.882575</hAcc><vAcc>0.696606</vAcc></extensions></trkpt>
      <trkpt lon="-3.158328" lat="53.017255"><ele>349.451080</ele><time>2021-09-01T10:19:31Z</time><extensions><speed>1.002220</speed><course>323.534607</course><hAcc>0.882346</hAcc><vAcc>0.695834</vAcc></extensions></trkpt>
      <trkpt lon="-3.158314" lat="53.017257"><ele>349.567322</ele><time>2021-09-01T10:19:32Z</time><extensions><speed>1.006609</speed><course>325.158722</course><hAcc>0.882113</hAcc><vAcc>0.695033</vAcc></extensions></trkpt>
      <trkpt lon="-3.158299" lat="53.017259"><ele>349.681213</ele><time>2021-09-01T10:19:33Z</time><extensions><speed>1.013711</speed><course>329.447083</course><hAcc>0.881883</hAcc><vAcc>0.694230</vAcc></extensions></trkpt>
      <trkpt lon="-3.158284" lat="53.017261"><ele>349.791840</ele><time>2021-09-01T10:19:34Z</time><extensions><speed>1.022745</speed><course>331.191650</course><hAcc>0.881664</hAcc><vAcc>0.693459</vAcc></extensions></trkpt>
      <trkpt lon="-3.158269" lat="53.017263"><ele>349.898285</ele><time>2021-09-01T10:19:35Z</time><extensions><speed>1.033492</speed><course>334.557068</course><hAcc>0.881465</hAcc><vAcc>0.692757</vAcc></extensions></trkpt>
      <trkpt lon="-3.158254" lat="53.017266"><ele>349.999725</ele><time>2021-09-01T10:19:36Z</time><extensions><speed>1.045573</speed><course>336.690918</course><hAcc>0.881294</hAcc><vAcc>0.692163</vAcc></extensions></trkpt>
      <trkpt lon="-3.158239" lat="53.017268"><ele>350.095490</ele><time>2021-09-01T10:19:37Z</time><extensions><speed>1.058529</speed><course>337.183258</course><hAcc>0.881156</hAcc><vAcc>0.691701</vAcc></extensions></trkpt>
      <trkpt lon="-3.158223" lat="53.017270"><ele>350.185303</ele><time>2021-09-01T10:19:38Z</time><extensions><speed>1.071902</speed><course>318.997711</course><hAcc>0.881054</hAcc><vAcc>0.691378</vAcc></extensions></trkpt>
      <trkpt lon="-3.158208" lat="53.017272"><ele>350.269226</ele><time>2021-09-01T10:19:39Z</time><extensions><speed>1.085018</speed><course>315.791901</course><hAcc>0.880988</hAcc><vAcc>0.691188</vAcc></extensions></trkpt>
      <trkpt lon="-3.158192" lat="53.017274"><ele>350.347656</ele><time>2021-09-01T10:19:40Z</time><extensions><speed>1.097378</speed><course>315.791901</course><hAcc>0.880957</hAcc><vAcc>0.691115</vAcc></extensions></trkpt>
      <trkpt lon="-3.158176" lat="53.017277"><ele>350.421539</ele><time>2021-09-01T10:19:41Z</time><extensions><speed>1.108450</speed><course>315.791901</course><hAcc>0.880958</hAcc><vAcc>0.691142</vAcc></extensions></trkpt>
      <trkpt lon="-3.158160" lat="53.017279"><ele>350.492218</ele><time>2021-09-01T10:19:42Z</time><extensions><speed>1.117214</speed><course>315.791901</course><hAcc>0.880990</hAcc><vAcc>0.691252</vAcc></extensions></trkpt>
      <trkpt lon="-3.158144" lat="53.017281"><ele>350.561096</ele><time>2021-09-01T10:19:43Z</time><extensions><speed>1.123543</speed><course>315.791901</course><hAcc>0.881048</hAcc><vAcc>0.691434</vAcc></extensions></trkpt>
      <trkpt lon="-3.158127" lat="53.017284"><ele>350.629608</ele><time>2021-09-01T10:19:44Z</time><extensions><speed>1.128354</speed><course>315.791901</course><hAcc>0.881130</hAcc><vAcc>0.691683</vAcc></extensions></trkpt>
      <trkpt lon="-3.158111" lat="53.017286"><ele>350.699066</ele><time>2021-09-01T10:19:45Z</time><extensions><speed>1.131960</speed><course>315.791901</course><hAcc>0.881234</hAcc><vAcc>0.692003</vAcc></extensions></trkpt>
      <trkpt lon="-3.158094" lat="53.017288"><ele>350.770996</ele><time>2021-09-01T10:19:46Z</time><extensions><speed>1.133993</speed><course>315.791901</course><hAcc>0.881358</hAcc><vAcc>0.692398</vAcc></extensions></trkpt>
      <trkpt lon="-3.158078" lat="53.017290"><ele>350.847260</ele><time>2021-09-01T10:19:47Z</time><extensions><speed>1.134581</speed><course>315.791901</course><hAcc>0.881500</hAcc><vAcc>0.692870</vAcc></extensions></trkpt>
      <trkpt lon="-3.158061" lat="53.017292"><ele>350.929565</ele><time>2021-09-01T10:19:48Z</time><extensions><speed>1.134329</speed><course>315.791901</course><hAcc>0.881656</hAcc><vAcc>0.693411</vAcc></extensions></trkpt>
      <trkpt lon="-3.158045" lat="53.017294"><ele>351.019287</ele><time>2021-09-01T10:19:49Z</time><extensions><speed>1.133988</speed><course>315.791901</course><hAcc>0.881826</hAcc><vAcc>0.693999</vAcc></extensions></trkpt>
      <trkpt lon="-3.158028" lat="53.017296"><ele>351.117279</ele><time>2021-09-01T10:19:50Z</time><extensions><speed>1.133995</speed><course>315.791901</course><hAcc>0.882009</hAcc><vAcc>0.694612</vAcc></extensions></trkpt>
      <trkpt lon="-3.158011" lat="53.017297"><ele>351.224274</ele><time>2021-09-01T10:19:51Z</time><extensions><speed>1.134239</speed><course>315.791901</course><hAcc>0.882209</hAcc><vAcc>0.695224</vAcc></extensions></trkpt>
      <trkpt lon="-3.157995" lat="53.017299"><ele>351.341125</ele><time>2021-09-01T10:19:52Z</time><extensions><speed>1.134952</speed><course>315.791901</course><hAcc>0.882435</hAcc><vAcc>0.695818</vAcc></extensions></trkpt>
      <trkpt lon="-3.157978" lat="53.017300"><ele>351.468750</ele><time>2021-09-01T10:19:53Z</time><extensions><speed>1.136441</speed><course>315.791901</course><hAcc>0.882704</hAcc><vAcc>0.696383</vAcc></extensions></trkpt>
      <trkpt lon="-3.157961" lat="53.017301"><ele>351.607941</ele><time>2021-09-01T10:19:54Z</time><extensions><speed>1.138285</speed><course>324.368835</course><hAcc>0.883040</hAcc><vAcc>0.696926</vAcc></extensions></trkpt>
      <trkpt lon="-3.157944" lat="53.017302"><ele>351.759308</ele><time>2021-09-01T10:19:55Z</time><extensions><speed>1.139473</speed><course>336.936340</course><hAcc>0.883478</hAcc><vAcc>0.697465</vAcc></extensions></trkpt>
      <trkpt lon="-3.157927" lat="53.017302"><ele>351.923157</ele><time>2021-09-01T10:19:56Z</time><extensions><speed>1.139266</speed><course>334.067902</course><hAcc>0.884057</hAcc><vAcc>0.698031</vAcc></extensions></trkpt>
      <trkpt lon="-3.157910" lat="53.017303"><ele>352.099579</ele><time>2021-09-01T10:19:57Z</time><extensions><speed>1.137676</speed><course>335.500000</course><hAcc>0.884823</hAcc><vAcc>0.698661</vAcc></extensions></trkpt>
      <trkpt lon="-3.157893" lat="53.017303"><ele>352.288513</ele><time>2021-09-01T10:19:58Z</time><extensions><speed>1.134662</speed><course>331.822205</course><hAcc>0.885819</hAcc><vAcc>0.699395</vAcc></extensions></trkpt>
      <trkpt lon="-3.157876" lat="53.017303"><ele>352.489563</ele><time>2021-09-01T10:19:59Z</time><extensions><speed>1.130315</speed><course>332.566284</course><hAcc>0.887079</hAcc><vAcc>0.700260</vAcc></extensions></trkpt>
      <trkpt lon="-3.157860" lat="53.017303"><ele>352.701843</ele><time>2021-09-01T10:20:00Z</time><extensions><speed>1.124758</speed><course>322.442413</course><hAcc>0.888612</hAcc><vAcc>0.701254</vAcc></extensions></trkpt>
      <trkpt lon="-3.157843" lat="53.017303"><ele>352.923615</ele><time>2021-09-01T10:20:01Z</time><extensions><speed>1.117856</speed><course>328.923309</course><hAcc>0.890395</hAcc><vAcc>0.702334</vAcc></extensions></trkpt>
      <trkpt lon="-3.157826" lat="53.017303"><ele>353.152588</ele><time>2021-09-01T10:20:02Z</time><extensions><speed>1.109850</speed><course>332.979462</course><hAcc>0.892355</hAcc><vAcc>0.703411</vAcc></extensions></trkpt>
      <trkpt lon="-3.157810" lat="53.017302"><ele>353.386292</ele><time>2021-09-01T10:20:03Z</time><extensions><speed>1.100998</speed><course>326.583588</course><hAcc>0.894364</hAcc><vAcc>0.704352</vAcc></extensions></trkpt>
      <trkpt lon="-3.157793" lat="53.017302"><ele>353.622406</ele><time>2021-09-01T10:20:04Z</time><extensions><speed>1.091401</speed><course>333.004852</course><hAcc>0.896239</hAcc><vAcc>0.705002</vAcc></extensions></trkpt>
      <trkpt lon="-3.157777" lat="53.017302"><ele>353.858734</ele><time>2021-09-01T10:20:05Z</time><extensions><speed>1.080975</speed><course>328.891602</course><hAcc>0.897764</hAcc><vAcc>0.705210</vAcc></extensions></trkpt>
      <trkpt lon="-3.157761" lat="53.017302"><ele>354.093323</ele><time>2021-09-01T10:20:06Z</time><extensions><speed>1.069832</speed><course>329.156494</course><hAcc>0.898739</hAcc><vAcc>0.704899</vAcc></extensions></trkpt>
      <trkpt lon="-3.157745" lat="53.017302"><ele>354.324432</ele><time>2021-09-01T10:20:07Z</time><extensions><speed>1.058807</speed><course>329.450256</course><hAcc>0.899086</hAcc><vAcc>0.704151</vAcc></extensions></trkpt>
      <trkpt lon="-3.157730" lat="53.017303"><ele>354.550537</ele><time>2021-09-01T10:20:08Z</time><extensions><speed>1.048848</speed><course>329.886902</course><hAcc>0.899011</hAcc><vAcc>0.703348</vAcc></extensions></trkpt>
      <trkpt lon="-3.157714" lat="53.017303"><ele>354.770172</ele><time>2021-09-01T10:20:09Z</time><extensions><speed>1.040373</speed><course>332.708923</course><hAcc>0.899267</hAcc><vAcc>0.703363</vAcc></extensions></trkpt>
      <trkpt lon="-3.157699" lat="53.017304"><ele>354.981964</ele><time>2021-09-01T10:20:10Z</time><extensions><speed>1.033262</speed><course>337.086456</course><hAcc>0.901526</hAcc><vAcc>0.705806</vAcc></extensions></trkpt>
      <trkpt lon="-3.157684" lat="53.017305"><ele>355.184967</ele><time>2021-09-01T10:20:11Z</time><extensions><speed>1.026967</speed><course>335.947693</course><hAcc>0.908828</hAcc><vAcc>0.713294</vAcc></extensions></trkpt>
      <trkpt lon="-3.157668" lat="53.017306"><ele>355.378845</ele><time>2021-09-01T10:20:12Z</time><extensions><speed>1.020816</speed><course>332.293579</course><hAcc>0.926017</hAcc><vAcc>0.729641</vAcc></extensions></trkpt>
      <trkpt lon="-3.157653" lat="53.017308"><ele>355.563904</ele><time>2021-09-01T10:20:13Z</time><extensions><speed>1.014170</speed><course>330.673279</course><hAcc>0.959897</hAcc><vAcc>0.759785</vAcc></extensions></trkpt>
      <trkpt lon="-3.157644" lat="53.017313"><ele>355.548065</ele><time>2021-09-01T10:20:14Z</time><extensions><speed>0.991065</speed><course>-1.000000</course><hAcc>0.922758</hAcc><vAcc>0.726974</vAcc></extensions></trkpt>
      <trkpt lon="-3.157633" lat="53.017318"><ele>355.496033</ele><time>2021-09-01T10:20:15Z</time><extensions><speed>0.988871</speed><course>-1.000000</course><hAcc>0.904614</hAcc><vAcc>0.708844</vAcc></extensions></trkpt>
      <trkpt lon="-3.157621" lat="53.017324"><ele>355.427124</ele><time>2021-09-01T10:20:16Z</time><extensions><speed>0.989133</speed><course>-1.000000</course><hAcc>0.897519</hAcc><vAcc>0.700467</vAcc></extensions></trkpt>
      <trkpt lon="-3.157610" lat="53.017330"><ele>355.340179</ele><time>2021-09-01T10:20:17Z</time><extensions><speed>0.992843</speed><course>-1.000000</course><hAcc>0.895941</hAcc><vAcc>0.697582</vAcc></extensions></trkpt>
      <trkpt lon="-3.157600" lat="53.017336"><ele>355.234985</ele><time>2021-09-01T10:20:18Z</time><extensions><speed>1.000373</speed><course>-1.000000</course><hAcc>0.896411</hAcc><vAcc>0.697249</vAcc></extensions></trkpt>
      <trkpt lon="-3.157589" lat="53.017342"><ele>355.112061</ele><time>2021-09-01T10:20:19Z</time><extensions><speed>1.011586</speed><course>-1.000000</course><hAcc>0.897045</hAcc><vAcc>0.697681</vAcc></extensions></trkpt>
      <trkpt lon="-3.157579" lat="53.017349"><ele>354.972992</ele><time>2021-09-01T10:20:20Z</time><extensions><speed>1.025665</speed><course>-1.000000</course><hAcc>0.897015</hAcc><vAcc>0.697943</vAcc></extensions></trkpt>
      <trkpt lon="-3.157569" lat="53.017356"><ele>354.820007</ele><time>2021-09-01T10:20:21Z</time><extensions><speed>1.041403</speed><course>-1.000000</course><hAcc>0.896125</hAcc><vAcc>0.697672</vAcc></extensions></trkpt>
      <trkpt lon="-3.157559" lat="53.017363"><ele>354.655640</ele><time>2021-09-01T10:20:22Z</time><extensions><speed>1.057671</speed><course>-1.000000</course><hAcc>0.894507</hAcc><vAcc>0.696835</vAcc></extensions></trkpt>
      <trkpt lon="-3.157548" lat="53.017370"><ele>354.482452</ele><time>2021-09-01T10:20:23Z</time><extensions><speed>1.073614</speed><course>184.559082</course><hAcc>0.892423</hAcc><vAcc>0.695563</vAcc></extensions></trkpt>
      <trkpt lon="-3.157538" lat="53.017378"><ele>354.303162</ele><time>2021-09-01T10:20:24Z</time><extensions><speed>1.088544</speed><course>-1.000000</course><hAcc>0.890152</hAcc><vAcc>0.694055</vAcc></extensions></trkpt>
      <trkpt lon="-3.157527" lat="53.017385"><ele>354.120911</ele><time>2021-09-01T10:20:25Z</time><extensions><speed>1.101262</speed><course>-1.000000</course><hAcc>0.887928</hAcc><vAcc>0.692512</vAcc></extensions></trkpt>
      <trkpt lon="-3.157517" lat="53.017393"><ele>353.938995</ele><time>2021-09-01T10:20:26Z</time><extensions><speed>1.110169</speed><course>-1.000000</course><hAcc>0.885920</hAcc><vAcc>0.691108</vAcc></extensions></trkpt>
      <trkpt lon="-3.157506" lat="53.017400"><ele>353.760925</ele><time>2021-09-01T10:20:27Z</time><extensions><speed>1.114085</speed><course>-1.000000</course><hAcc>0.884225</hAcc><vAcc>0.689966</vAcc></extensions></trkpt>
      <trkpt lon="-3.157494" lat="53.017408"><ele>353.590149</ele><time>2021-09-01T10:20:28Z</time><extensions><speed>1.112612</speed><course>53.307610</course><hAcc>0.882882</hAcc><vAcc>0.689148</vAcc></extensions></trkpt>
      <trkpt lon="-3.157483" lat="53.017415"><ele>353.429871</ele><time>2021-09-01T10:20:29Z</time><extensions><speed>1.105741</speed><course>-1.000000</course><hAcc>0.881881</hAcc><vAcc>0.688654</vAcc></extensions></trkpt>
      <trkpt lon="-3.157472" lat="53.017422"><ele>353.282501</ele><time>2021-09-01T10:20:30Z</time><extensions><speed>1.093887</speed><course>-1.000000</course><hAcc>0.881183</hAcc><vAcc>0.688442</vAcc></extensions></trkpt>
      <trkpt lon="-3.157460" lat="53.017429"><ele>353.149597</ele><time>2021-09-01T10:20:31Z</time><extensions><speed>1.078329</speed><course>-1.000000</course><hAcc>0.880734</hAcc><vAcc>0.688451</vAcc></extensions></trkpt>
      <trkpt lon="-3.157449" lat="53.017436"><ele>353.032013</ele><time>2021-09-01T10:20:32Z</time><extensions><speed>1.060937</speed><course>120.394302</course><hAcc>0.880474</hAcc><vAcc>0.688612</vAcc></extensions></trkpt>
      <trkpt lon="-3.157437" lat="53.017442"><ele>352.929932</ele><time>2021-09-01T10:20:33Z</time><extensions><speed>1.042896</speed><course>-1.000000</course><hAcc>0.880348</hAcc><vAcc>0.688859</vAcc></extensions></trkpt>
      <trkpt lon="-3.157426" lat="53.017448"><ele>352.843323</ele><time>2021-09-01T10:20:34Z</time><extensions><speed>1.024731</speed><course>-1.000000</course><hAcc>0.880307</hAcc><vAcc>0.689134</vAcc></extensions></trkpt>
      <trkpt lon="-3.157414" lat="53.017454"><ele>352.771851</ele><time>2021-09-01T10:20:35Z</time><extensions><speed>1.006967</speed><course>-1.000000</course><hAcc>0.880310</hAcc><vAcc>0.689385</vAcc></extensions></trkpt>
      <trkpt lon="-3.157403" lat="53.017460"><ele>352.715179</ele><time>2021-09-01T10:20:36Z</time><extensions><speed>0.989712</speed><course>-1.000000</course><hAcc>0.880326</hAcc><vAcc>0.689566</vAcc></extensions></trkpt>
      <trkpt lon="-3.157391" lat="53.017465"><ele>352.673004</ele><time>2021-09-01T10:20:37Z</time><extensions><speed>0.972880</speed><course>-1.000000</course><hAcc>0.880334</hAcc><vAcc>0.689643</vAcc></extensions></trkpt>
      <trkpt lon="-3.157380" lat="53.017471"><ele>352.645172</ele><time>2021-09-01T10:20:38Z</time><extensions><speed>0.957216</speed><course>-1.000000</course><hAcc>0.880321</hAcc><vAcc>0.689591</vAcc></extensions></trkpt>
      <trkpt lon="-3.157369" lat="53.017476"><ele>352.631256</ele><time>2021-09-01T10:20:39Z</time><extensions><speed>0.943875</speed><course>-1.000000</course><hAcc>0.880279</hAcc><vAcc>0.689406</vAcc></extensions></trkpt>
      <trkpt lon="-3.157358" lat="53.017481"><ele>352.630554</ele><time>2021-09-01T10:20:40Z</time><extensions><speed>0.932993</speed><course>-1.000000</course><hAcc>0.880208</hAcc><vAcc>0.689104</vAcc></extensions></trkpt>
      <trkpt lon="-3.157346" lat="53.017486"><ele>352.642151</ele><time>2021-09-01T10:20:41Z</time><extensions><speed>0.924505</speed><course>-1.000000</course><hAcc>0.880111</hAcc><vAcc>0.688721</vAcc></extensions></trkpt>
      <trkpt lon="-3.157335" lat="53.017491"><ele>352.664825</ele><time>2021-09-01T10:20:42Z</time><extensions><speed>0.918791</speed><course>-1.000000</course><hAcc>0.879995</hAcc><vAcc>0.688293</vAcc></extensions></trkpt>
      <trkpt lon="-3.157324" lat="53.017496"><ele>352.697327</ele><time>2021-09-01T10:20:43Z</time><extensions><speed>0.915770</speed><course>-1.000000</course><hAcc>0.879864</hAcc><vAcc>0.687851</vAcc></extensions></trkpt>
      <trkpt lon="-3.157313" lat="53.017500"><ele>352.738739</ele><time>2021-09-01T10:20:44Z</time><extensions><speed>0.915365</speed><course>-1.000000</course><hAcc>0.879722</hAcc><vAcc>0.687410</vAcc></extensions></trkpt>
      <trkpt lon="-3.157302" lat="53.017505"><ele>352.788269</ele><time>2021-09-01T10:20:45Z</time><extensions><speed>0.917621</speed><course>-1.000000</course><hAcc>0.879573</hAcc><vAcc>0.686966</vAcc></extensions></trkpt>
      <trkpt lon="-3.157290" lat="53.017510"><ele>352.845245</ele><time>2021-09-01T10:20:46Z</time><extensions><speed>0.921901</speed><course>-1.000000</course><hAcc>0.879416</hAcc><vAcc>0.686509</vAcc></extensions></trkpt>
      <trkpt lon="-3.157279" lat="53.017514"><ele>352.908997</ele><time>2021-09-01T10:20:47Z</time><extensions><speed>0.926995</speed><course>-1.000000</course><hAcc>0.879253</hAcc><vAcc>0.686026</vAcc></extensions></trkpt>
      <trkpt lon="-3.157267" lat="53.017519"><ele>352.978851</ele><time>2021-09-01T10:20:48Z</time><extensions><speed>0.932168</speed><course>-1.000000</course><hAcc>0.879086</hAcc><vAcc>0.685507</vAcc></extensions></trkpt>
      <trkpt lon="-3.157256" lat="53.017523"><ele>353.054260</ele><time>2021-09-01T10:20:49Z</time><extensions><speed>0.937583</speed><course>-1.000000</course><hAcc>0.878919</hAcc><vAcc>0.684953</vAcc></extensions></trkpt>
      <trkpt lon="-3.157244" lat="53.017528"><ele>353.134796</ele><time>2021-09-01T10:20:50Z</time><extensions><speed>0.943583</speed><course>-1.000000</course><hAcc>0.878756</hAcc><vAcc>0.684376</vAcc></extensions></trkpt>
      <trkpt lon="-3.157232" lat="53.017533"><ele>353.219940</ele><time>2021-09-01T10:20:51Z</time><extensions><speed>0.950151</speed><course>-1.000000</course><hAcc>0.878606</hAcc><vAcc>0.683806</vAcc></extensions></trkpt>
      <trkpt lon="-3.157221" lat="53.017538"><ele>353.309357</ele><time>2021-09-01T10:20:52Z</time><extensions><speed>0.956968</speed><course>116.725777</course><hAcc>0.878481</hAcc><vAcc>0.683287</vAcc></extensions></trkpt>
      <trkpt lon="-3.157209" lat="53.017542"><ele>353.402985</ele><time>2021-09-01T10:20:54Z</time><extensions><speed>0.964258</speed><course>116.725777</course><hAcc>0.878372</hAcc><vAcc>0.682856</vAcc></extensions></trkpt>
      <trkpt lon="-3.157197" lat="53.017547"><ele>353.500610</ele><time>2021-09-01T10:20:55Z</time><extensions><speed>0.972628</speed><course>116.725777</course><hAcc>0.878288</hAcc><vAcc>0.682565</vAcc></extensions></trkpt>
      <trkpt lon="-3.157184" lat="53.017552"><ele>353.601898</ele><time>2021-09-01T10:20:56Z</time><extensions><speed>0.982034</speed><course>116.725777</course><hAcc>0.878255</hAcc><vAcc>0.682460</vAcc></extensions></trkpt>
      <trkpt lon="-3.157172" lat="53.017557"><ele>353.706299</ele><time>2021-09-01T10:20:57Z</time><extensions><speed>0.992157</speed><course>116.725777</course><hAcc>0.878274</hAcc><vAcc>0.682559</vAcc></extensions></trkpt>
      <trkpt lon="-3.157160" lat="53.017562"><ele>353.813202</ele><time>2021-09-01T10:20:58Z</time><extensions><speed>1.002825</speed><course>116.725784</course><hAcc>0.878341</hAcc><vAcc>0.682856</vAcc></extensions></trkpt>
      <trkpt lon="-3.157147" lat="53.017567"><ele>353.921967</ele><time>2021-09-01T10:20:59Z</time><extensions><speed>1.013474</speed><course>116.725784</course><hAcc>0.878450</hAcc><vAcc>0.683320</vAcc></extensions></trkpt>
      <trkpt lon="-3.157135" lat="53.017572"><ele>354.032135</ele><time>2021-09-01T10:21:00Z</time><extensions><speed>1.023116</speed><course>116.725784</course><hAcc>0.878587</hAcc><vAcc>0.683899</vAcc></extensions></trkpt>
      <trkpt lon="-3.157122" lat="53.017577"><ele>354.143372</ele><time>2021-09-01T10:21:01Z</time><extensions><speed>1.031450</speed><course>116.725784</course><hAcc>0.878739</hAcc><vAcc>0.684534</vAcc></extensions></trkpt>
      <trkpt lon="-3.157109" lat="53.017583"><ele>354.255188</ele><time>2021-09-01T10:21:01Z</time><extensions><speed>1.038797</speed><course>116.725784</course><hAcc>0.878908</hAcc><vAcc>0.685176</vAcc></extensions></trkpt>
      <trkpt lon="-3.157097" lat="53.017588"><ele>354.367462</ele><time>2021-09-01T10:21:02Z</time><extensions><speed>1.045636</speed><course>116.725784</course><hAcc>0.879083</hAcc><vAcc>0.685773</vAcc></extensions></trkpt>
      <trkpt lon="-3.157084" lat="53.017593"><ele>354.479706</ele><time>2021-09-01T10:21:03Z</time><extensions><speed>1.053024</speed><course>116.725784</course><hAcc>0.879234</hAcc><vAcc>0.686272</vAcc></extensions></trkpt>
      <trkpt lon="-3.157071" lat="53.017599"><ele>354.591736</ele><time>2021-09-01T10:21:04Z</time><extensions><speed>1.061817</speed><course>116.725784</course><hAcc>0.879356</hAcc><vAcc>0.686650</vAcc></extensions></trkpt>
      <trkpt lon="-3.157058" lat="53.017605"><ele>354.703430</ele><time>2021-09-01T10:21:05Z</time><extensions><speed>1.071875</speed><course>116.725784</course><hAcc>0.879445</hAcc><vAcc>0.686901</vAcc></extensions></trkpt>
      <trkpt lon="-3.157045" lat="53.017610"><ele>354.814697</ele><time>2021-09-01T10:21:06Z</time><extensions><speed>1.082078</speed><course>116.725784</course><hAcc>0.879502</hAcc><vAcc>0.687036</vAcc></extensions></trkpt>
      <trkpt lon="-3.157032" lat="53.017616"><ele>354.925629</ele><time>2021-09-01T10:21:07Z</time><extensions><speed>1.091323</speed><course>116.725784</course><hAcc>0.879530</hAcc><vAcc>0.687072</vAcc></extensions></trkpt>
      <trkpt lon="-3.157019" lat="53.017622"><ele>355.035980</ele><time>2021-09-01T10:21:08Z</time><extensions><speed>1.099365</speed><course>116.725784</course><hAcc>0.879533</hAcc><vAcc>0.687029</vAcc></extensions></trkpt>
      <trkpt lon="-3.157006" lat="53.017628"><ele>355.145142</ele><time>2021-09-01T10:21:09Z</time><extensions><speed>1.106325</speed><course>116.725784</course><hAcc>0.879518</hAcc><vAcc>0.686925</vAcc></extensions></trkpt>
      <trkpt lon="-3.156993" lat="53.017634"><ele>355.252319</ele><time>2021-09-01T10:21:10Z</time><extensions><speed>1.112232</speed><course>116.725784</course><hAcc>0.879493</hAcc><vAcc>0.686779</vAcc></extensions></trkpt>
      <trkpt lon="-3.156980" lat="53.017640"><ele>355.356537</ele><time>2021-09-01T10:21:11Z</time><extensions><speed>1.116906</speed><course>116.725784</course><hAcc>0.879467</hAcc><vAcc>0.686618</vAcc></extensions></trkpt>
      <trkpt lon="-3.156966" lat="53.017646"><ele>355.456665</ele><time>2021-09-01T10:21:12Z</time><extensions><speed>1.119991</speed><course>116.725784</course><hAcc>0.879451</hAcc><vAcc>0.686479</vAcc></extensions></trkpt>
      <trkpt lon="-3.156953" lat="53.017652"><ele>355.551697</ele><time>2021-09-01T10:21:13Z</time><extensions><speed>1.120822</speed><course>116.725784</course><hAcc>0.879456</hAcc><vAcc>0.686408</vAcc></extensions></trkpt>
      <trkpt lon="-3.156940" lat="53.017658"><ele>355.641296</ele><time>2021-09-01T10:21:14Z</time><extensions><speed>1.119177</speed><course>116.725777</course><hAcc>0.879492</hAcc><vAcc>0.686452</vAcc></extensions></trkpt>
      <trkpt lon="-3.156927" lat="53.017664"><ele>355.725586</ele><time>2021-09-01T10:21:15Z</time><extensions><speed>1.115308</speed><course>116.725769</course><hAcc>0.879568</hAcc><vAcc>0.686648</vAcc></extensions></trkpt>
      <trkpt lon="-3.156913" lat="53.017670"><ele>355.805206</ele><time>2021-09-01T10:21:16Z</time><extensions><speed>1.109261</speed><course>116.725769</course><hAcc>0.879689</hAcc><vAcc>0.687020</vAcc></extensions></trkpt>
      <trkpt lon="-3.156900" lat="53.017676"><ele>355.881287</ele><time>2021-09-01T10:21:17Z</time><extensions><speed>1.101256</speed><course>116.725761</course><hAcc>0.879856</hAcc><vAcc>0.687572</vAcc></extensions></trkpt>
      <trkpt lon="-3.156887" lat="53.017682"><ele>355.955322</ele><time>2021-09-01T10:21:18Z</time><extensions><speed>1.091525</speed><course>116.725754</course><hAcc>0.880069</hAcc><vAcc>0.688297</vAcc></extensions></trkpt>
      <trkpt lon="-3.156874" lat="53.017688"><ele>356.028870</ele><time>2021-09-01T10:21:19Z</time><extensions><speed>1.080197</speed><course>116.725746</course><hAcc>0.880321</hAcc><vAcc>0.689171</vAcc></extensions></trkpt>
      <trkpt lon="-3.156861" lat="53.017694"><ele>356.103363</ele><time>2021-09-01T10:21:20Z</time><extensions><speed>1.066944</speed><course>116.725746</course><hAcc>0.880604</hAcc><vAcc>0.690161</vAcc></extensions></trkpt>
      <trkpt lon="-3.156848" lat="53.017699"><ele>356.180023</ele><time>2021-09-01T10:21:21Z</time><extensions><speed>1.051119</speed><course>116.725731</course><hAcc>0.880909</hAcc><vAcc>0.691224</vAcc></extensions></trkpt>
      <trkpt lon="-3.156835" lat="53.017704"><ele>356.259918</ele><time>2021-09-01T10:21:22Z</time><extensions><speed>1.032772</speed><course>116.725723</course><hAcc>0.881225</hAcc><vAcc>0.692313</vAcc></extensions></trkpt>
      <trkpt lon="-3.156823" lat="53.017710"><ele>356.344177</ele><time>2021-09-01T10:21:23Z</time><extensions><speed>1.012541</speed><course>116.725723</course><hAcc>0.881540</hAcc><vAcc>0.693384</vAcc></extensions></trkpt>
      <trkpt lon="-3.156810" lat="53.017715"><ele>356.434052</ele><time>2021-09-01T10:21:24Z</time><extensions><speed>0.991326</speed><course>116.725708</course><hAcc>0.881843</hAcc><vAcc>0.694400</vAcc></extensions></trkpt>
      <trkpt lon="-3.156798" lat="53.017720"><ele>356.530975</ele><time>2021-09-01T10:21:25Z</time><extensions><speed>0.969999</speed><course>116.725700</course><hAcc>0.882127</hAcc><vAcc>0.695334</vAcc></extensions></trkpt>
      <trkpt lon="-3.156786" lat="53.017724"><ele>356.636322</ele><time>2021-09-01T10:21:26Z</time><extensions><speed>0.949380</speed><course>116.725693</course><hAcc>0.882383</hAcc><vAcc>0.696170</vAcc></extensions></trkpt>
      <trkpt lon="-3.156774" lat="53.017729"><ele>356.751160</ele><time>2021-09-01T10:21:27Z</time><extensions><speed>0.930327</speed><course>116.725685</course><hAcc>0.882606</hAcc><vAcc>0.696894</vAcc></extensions></trkpt>
      <trkpt lon="-3.156762" lat="53.017733"><ele>356.876190</ele><time>2021-09-01T10:21:28Z</time><extensions><speed>0.913550</speed><course>116.725670</course><hAcc>0.882792</hAcc><vAcc>0.697497</vAcc></extensions></trkpt>
      <trkpt lon="-3.156751" lat="53.017737"><ele>357.011749</ele><time>2021-09-01T10:21:29Z</time><extensions><speed>0.899435</speed><course>116.725670</course><hAcc>0.882939</hAcc><vAcc>0.697970</vAcc></extensions></trkpt>
      <trkpt lon="-3.156739" lat="53.017741"><ele>357.157562</ele><time>2021-09-01T10:21:30Z</time><extensions><speed>0.887965</speed><course>116.725662</course><hAcc>0.883045</hAcc><vAcc>0.698305</vAcc></extensions></trkpt>
      <trkpt lon="-3.156727" lat="53.017745"><ele>357.312988</ele><time>2021-09-01T10:21:31Z</time><extensions><speed>0.878629</speed><course>316.510925</course><hAcc>0.883111</hAcc><vAcc>0.698498</vAcc></extensions></trkpt>
      <trkpt lon="-3.156716" lat="53.017748"><ele>357.477539</ele><time>2021-09-01T10:21:32Z</time><extensions><speed>0.870950</speed><course>325.771881</course><hAcc>0.883139</hAcc><vAcc>0.698556</vAcc></extensions></trkpt>
      <trkpt lon="-3.156704" lat="53.017752"><ele>357.650757</ele><time>2021-09-01T10:21:33Z</time><extensions><speed>0.865094</speed><course>329.412018</course><hAcc>0.883134</hAcc><vAcc>0.698492</vAcc></extensions></trkpt>
      <trkpt lon="-3.156693" lat="53.017755"><ele>357.831879</ele><time>2021-09-01T10:21:34Z</time><extensions><speed>0.860920</speed><course>328.807678</course><hAcc>0.883099</hAcc><vAcc>0.698326</vAcc></extensions></trkpt>
      <trkpt lon="-3.156682" lat="53.017759"><ele>358.020081</ele><time>2021-09-01T10:21:35Z</time><extensions><speed>0.857879</speed><course>328.238739</course><hAcc>0.883041</hAcc><vAcc>0.698081</vAcc></extensions></trkpt>
      <trkpt lon="-3.156670" lat="53.017762"><ele>358.214935</ele><time>2021-09-01T10:21:36Z</time><extensions><speed>0.855704</speed><course>328.754333</course><hAcc>0.882967</hAcc><vAcc>0.697780</vAcc></extensions></trkpt>
      <trkpt lon="-3.156659" lat="53.017766"><ele>358.416351</ele><time>2021-09-01T10:21:37Z</time><extensions><speed>0.854419</speed><course>321.291412</course><hAcc>0.882884</hAcc><vAcc>0.697450</vAcc></extensions></trkpt>
      <trkpt lon="-3.156647" lat="53.017769"><ele>358.624176</ele><time>2021-09-01T10:21:38Z</time><extensions><speed>0.854412</speed><course>315.163422</course><hAcc>0.882798</hAcc><vAcc>0.697117</vAcc></extensions></trkpt>
      <trkpt lon="-3.156636" lat="53.017773"><ele>358.838013</ele><time>2021-09-01T10:21:39Z</time><extensions><speed>0.856148</speed><course>320.356079</course><hAcc>0.882715</hAcc><vAcc>0.696807</vAcc></extensions></trkpt>
      <trkpt lon="-3.156625" lat="53.017776"><ele>359.057007</ele><time>2021-09-01T10:21:40Z</time><extensions><speed>0.860010</speed><course>314.759003</course><hAcc>0.882640</hAcc><vAcc>0.696538</vAcc></extensions></trkpt>
      <trkpt lon="-3.156613" lat="53.017780"><ele>359.279907</ele><time>2021-09-01T10:21:41Z</time><extensions><speed>0.866148</speed><course>306.430359</course><hAcc>0.882576</hAcc><vAcc>0.696324</vAcc></extensions></trkpt>
      <trkpt lon="-3.156602" lat="53.017784"><ele>359.505157</ele><time>2021-09-01T10:21:42Z</time><extensions><speed>0.873796</speed><course>312.642456</course><hAcc>0.882523</hAcc><vAcc>0.696169</vAcc></extensions></trkpt>
      <trkpt lon="-3.156591" lat="53.017787"><ele>359.730957</ele><time>2021-09-01T10:21:43Z</time><extensions><speed>0.881945</speed><course>309.329712</course><hAcc>0.882481</hAcc><vAcc>0.696069</vAcc></extensions></trkpt>
      <trkpt lon="-3.156579" lat="53.017791"><ele>359.955017</ele><time>2021-09-01T10:21:44Z</time><extensions><speed>0.889691</speed><course>306.517120</course><hAcc>0.882446</hAcc><vAcc>0.696013</vAcc></extensions></trkpt>
      <trkpt lon="-3.156568" lat="53.017796"><ele>360.174988</ele><time>2021-09-01T10:21:45Z</time><extensions><speed>0.896030</speed><course>302.169647</course><hAcc>0.882415</hAcc><vAcc>0.695977</vAcc></extensions></trkpt>
      <trkpt lon="-3.156557" lat="53.017800"><ele>360.388733</ele><time>2021-09-01T10:21:46Z</time><extensions><speed>0.900056</speed><course>299.953156</course><hAcc>0.882380</hAcc><vAcc>0.695933</vAcc></extensions></trkpt>
      <trkpt lon="-3.156545" lat="53.017804"><ele>360.594543</ele><time>2021-09-01T10:21:47Z</time><extensions><speed>0.901320</speed><course>299.473511</course><hAcc>0.882335</hAcc><vAcc>0.695851</vAcc></extensions></trkpt>
      <trkpt lon="-3.156534" lat="53.017809"><ele>360.791229</ele><time>2021-09-01T10:21:48Z</time><extensions><speed>0.900042</speed><course>298.103729</course><hAcc>0.882273</hAcc><vAcc>0.695704</vAcc></extensions></trkpt>
      <trkpt lon="-3.156523" lat="53.017814"><ele>360.977509</ele><time>2021-09-01T10:21:49Z</time><extensions><speed>0.895410</speed><course>294.101929</course><hAcc>0.882189</hAcc><vAcc>0.695471</vAcc></extensions></trkpt>
      <trkpt lon="-3.156513" lat="53.017819"><ele>361.152313</ele><time>2021-09-01T10:21:50Z</time><extensions><speed>0.885304</speed><course>298.669067</course><hAcc>0.882075</hAcc><vAcc>0.695140</vAcc></extensions></trkpt>
      <trkpt lon="-3.156503" lat="53.017823"><ele>361.314789</ele><time>2021-09-01T10:21:51Z</time><extensions><speed>0.867708</speed><course>297.460327</course><hAcc>0.881926</hAcc><vAcc>0.694703</vAcc></extensions></trkpt>
      <trkpt lon="-3.156493" lat="53.017828"><ele>361.464233</ele><time>2021-09-01T10:21:52Z</time><extensions><speed>0.841525</speed><course>300.643127</course><hAcc>0.881739</hAcc><vAcc>0.694155</vAcc></extensions></trkpt>
      <trkpt lon="-3.156484" lat="53.017833"><ele>361.599884</ele><time>2021-09-01T10:21:53Z</time><extensions><speed>0.807027</speed><course>300.762909</course><hAcc>0.881510</hAcc><vAcc>0.693483</vAcc></extensions></trkpt>
      <trkpt lon="-3.156475" lat="53.017838"><ele>361.721008</ele><time>2021-09-01T10:21:54Z</time><extensions><speed>0.765208</speed><course>306.221161</course><hAcc>0.881234</hAcc><vAcc>0.692665</vAcc></extensions></trkpt>
      <trkpt lon="-3.156467" lat="53.017843"><ele>361.827057</ele><time>2021-09-01T10:21:55Z</time><extensions><speed>0.717234</speed><course>311.753571</course><hAcc>0.880910</hAcc><vAcc>0.691685</vAcc></extensions></trkpt>
      <trkpt lon="-3.156461" lat="53.017848"><ele>361.917480</ele><time>2021-09-01T10:21:56Z</time><extensions><speed>0.665312</speed><course>314.039551</course><hAcc>0.880541</hAcc><vAcc>0.690533</vAcc></extensions></trkpt>
      <trkpt lon="-3.156455" lat="53.017852"><ele>361.991821</ele><time>2021-09-01T10:21:57Z</time><extensions><speed>0.612812</speed><course>316.125336</course><hAcc>0.880130</hAcc><vAcc>0.689216</vAcc></extensions></trkpt>
      <trkpt lon="-3.156450" lat="53.017856"><ele>362.049744</ele><time>2021-09-01T10:21:58Z</time><extensions><speed>0.562797</speed><course>313.054962</course><hAcc>0.879686</hAcc><vAcc>0.687757</vAcc></extensions></trkpt>
      <trkpt lon="-3.156446" lat="53.017861"><ele>362.090912</ele><time>2021-09-01T10:21:59Z</time><extensions><speed>0.516950</speed><course>309.718231</course><hAcc>0.879221</hAcc><vAcc>0.686198</vAcc></extensions></trkpt>
      <trkpt lon="-3.156443" lat="53.017865"><ele>362.115387</ele><time>2021-09-01T10:22:00Z</time><extensions><speed>0.475907</speed><course>315.993652</course><hAcc>0.878750</hAcc><vAcc>0.684588</vAcc></extensions></trkpt>
      <trkpt lon="-3.156440" lat="53.017868"><ele>362.123383</ele><time>2021-09-01T10:22:01Z</time><extensions><speed>0.440120</speed><course>314.639465</course><hAcc>0.878288</hAcc><vAcc>0.682990</vAcc></extensions></trkpt>
      <trkpt lon="-3.156439" lat="53.017872"><ele>362.115326</ele><time>2021-09-01T10:22:02Z</time><extensions><speed>0.409795</speed><course>314.699524</course><hAcc>0.877856</hAcc><vAcc>0.681481</vAcc></extensions></trkpt>
      <trkpt lon="-3.156438" lat="53.017876"><ele>362.091888</ele><time>2021-09-01T10:22:03Z</time><extensions><speed>0.384595</speed><course>315.537170</course><hAcc>0.877472</hAcc><vAcc>0.680147</vAcc></extensions></trkpt>
      <trkpt lon="-3.156438" lat="53.017879"><ele>362.053619</ele><time>2021-09-01T10:22:04Z</time><extensions><speed>0.364196</speed><course>315.384186</course><hAcc>0.877149</hAcc><vAcc>0.679055</vAcc></extensions></trkpt>
      <trkpt lon="-3.156439" lat="53.017882"><ele>362.001221</ele><time>2021-09-01T10:22:05Z</time><extensions><speed>0.348247</speed><course>316.068207</course><hAcc>0.876895</hAcc><vAcc>0.678234</vAcc></extensions></trkpt>
      <trkpt lon="-3.156440" lat="53.017885"><ele>361.935547</ele><time>2021-09-01T10:22:06Z</time><extensions><speed>0.336203</speed><course>319.526184</course><hAcc>0.876707</hAcc><vAcc>0.677673</vAcc></extensions></trkpt>
      <trkpt lon="-3.156441" lat="53.017888"><ele>361.857666</ele><time>2021-09-01T10:22:07Z</time><extensions><speed>0.327512</speed><course>322.032959</course><hAcc>0.876578</hAcc><vAcc>0.677327</vAcc></extensions></trkpt>
      <trkpt lon="-3.156443" lat="53.017891"><ele>361.768585</ele><time>2021-09-01T10:22:08Z</time><extensions><speed>0.321129</speed><course>326.209290</course><hAcc>0.876495</hAcc><vAcc>0.677142</vAcc></extensions></trkpt>
      <trkpt lon="-3.156446" lat="53.017893"><ele>361.669434</ele><time>2021-09-01T10:22:09Z</time><extensions><speed>0.315091</speed><course>324.142303</course><hAcc>0.876445</hAcc><vAcc>0.677066</vAcc></extensions></trkpt>
      <trkpt lon="-3.156449" lat="53.017895"><ele>361.561279</ele><time>2021-09-01T10:22:10Z</time><extensions><speed>0.306771</speed><course>332.193542</course><hAcc>0.876415</hAcc><vAcc>0.677053</vAcc></extensions></trkpt>
      <trkpt lon="-3.156451" lat="53.017897"><ele>361.445618</ele><time>2021-09-01T10:22:11Z</time><extensions><speed>0.293999</speed><course>329.558014</course><hAcc>0.876389</hAcc><vAcc>0.677064</vAcc></extensions></trkpt>
      <trkpt lon="-3.156454" lat="53.017899"><ele>361.324158</ele><time>2021-09-01T10:22:12Z</time><extensions><speed>0.275744</speed><course>323.309692</course><hAcc>0.876356</hAcc><vAcc>0.677052</vAcc></extensions></trkpt>
      <trkpt lon="-3.156457" lat="53.017901"><ele>361.199158</ele><time>2021-09-01T10:22:13Z</time><extensions><speed>0.252328</speed><course>319.992767</course><hAcc>0.876300</hAcc><vAcc>0.676967</vAcc></extensions></trkpt>
      <trkpt lon="-3.156458" lat="53.017903"><ele>361.073151</ele><time>2021-09-01T10:22:14Z</time><extensions><speed>0.226780</speed><course>322.539886</course><hAcc>0.876208</hAcc><vAcc>0.676757</vAcc></extensions></trkpt>
      <trkpt lon="-3.156460" lat="53.017905"><ele>360.949158</ele><time>2021-09-01T10:22:15Z</time><extensions><speed>0.206224</speed><course>317.532928</course><hAcc>0.876070</hAcc><vAcc>0.676379</vAcc></extensions></trkpt>
      <trkpt lon="-3.156460" lat="53.017907"><ele>360.830383</ele><time>2021-09-01T10:22:16Z</time><extensions><speed>0.202035</speed><course>314.725220</course><hAcc>0.875881</hAcc><vAcc>0.675806</vAcc></extensions></trkpt>
      <trkpt lon="-3.156459" lat="53.017909"><ele>360.720184</ele><time>2021-09-01T10:22:17Z</time><extensions><speed>0.224745</speed><course>325.463684</course><hAcc>0.875640</hAcc><vAcc>0.675033</vAcc></extensions></trkpt>
      <trkpt lon="-3.156457" lat="53.017911"><ele>360.621826</ele><time>2021-09-01T10:22:18Z</time><extensions><speed>0.275961</speed><course>326.490570</course><hAcc>0.875353</hAcc><vAcc>0.674079</vAcc></extensions></trkpt>
      <trkpt lon="-3.156454" lat="53.017913"><ele>360.538483</ele><time>2021-09-01T10:22:19Z</time><extensions><speed>0.349734</speed><course>316.111328</course><hAcc>0.875029</hAcc><vAcc>0.672981</vAcc></extensions></trkpt>
      <trkpt lon="-3.156450" lat="53.017915"><ele>360.473114</ele><time>2021-09-01T10:22:20Z</time><extensions><speed>0.438940</speed><course>316.470520</course><hAcc>0.874685</hAcc><vAcc>0.671794</vAcc></extensions></trkpt>
      <trkpt lon="-3.156444" lat="53.017917"><ele>360.428192</ele><time>2021-09-01T10:22:21Z</time><extensions><speed>0.537720</speed><course>317.921600</course><hAcc>0.874337</hAcc><vAcc>0.670587</vAcc></extensions></trkpt>
      <trkpt lon="-3.156436" lat="53.017920"><ele>360.405609</ele><time>2021-09-01T10:22:22Z</time><extensions><speed>0.640505</speed><course>317.925903</course><hAcc>0.874004</hAcc><vAcc>0.669435</vAcc></extensions></trkpt>
      <trkpt lon="-3.156427" lat="53.017923"><ele>360.406464</ele><time>2021-09-01T10:22:23Z</time><extensions><speed>0.741629</speed><course>316.840515</course><hAcc>0.873705</hAcc><vAcc>0.668411</vAcc></extensions></trkpt>
      <trkpt lon="-3.156417" lat="53.017927"><ele>360.431244</ele><time>2021-09-01T10:22:24Z</time><extensions><speed>0.836245</speed><course>321.987762</course><hAcc>0.873454</hAcc><vAcc>0.667570</vAcc></extensions></trkpt>
      <trkpt lon="-3.156406" lat="53.017931"><ele>360.479919</ele><time>2021-09-01T10:22:25Z</time><extensions><speed>0.920677</speed><course>314.291290</course><hAcc>0.873256</hAcc><vAcc>0.666932</vAcc></extensions></trkpt>
      <trkpt lon="-3.156393" lat="53.017935"><ele>360.552490</ele><time>2021-09-01T10:22:26Z</time><extensions><speed>0.992611</speed><course>311.665222</course><hAcc>0.873110</hAcc><vAcc>0.666480</vAcc></extensions></trkpt>
      <trkpt lon="-3.156380" lat="53.017939"><ele>360.647675</ele><time>2021-09-01T10:22:27Z</time><extensions><speed>1.051325</speed><course>315.645782</course><hAcc>0.873010</hAcc><vAcc>0.666192</vAcc></extensions></trkpt>
      <trkpt lon="-3.156366" lat="53.017944"><ele>360.762390</ele><time>2021-09-01T10:22:28Z</time><extensions><speed>1.096874</speed><course>312.390594</course><hAcc>0.872948</hAcc><vAcc>0.666040</vAcc></extensions></trkpt>
      <trkpt lon="-3.156352" lat="53.017949"><ele>360.893127</ele><time>2021-09-01T10:22:29Z</time><extensions><speed>1.129364</speed><course>315.968140</course><hAcc>0.872915</hAcc><vAcc>0.665991</vAcc></extensions></trkpt>
      <trkpt lon="-3.156337" lat="53.017955"><ele>361.037109</ele><time>2021-09-01T10:22:30Z</time><extensions><speed>1.149819</speed><course>305.843231</course><hAcc>0.872899</hAcc><vAcc>0.666010</vAcc></extensions></trkpt>
      <trkpt lon="-3.156323" lat="53.017960"><ele>361.192261</ele><time>2021-09-01T10:22:31Z</time><extensions><speed>1.160347</speed><course>307.428955</course><hAcc>0.872889</hAcc><vAcc>0.666053</vAcc></extensions></trkpt>
      <trkpt lon="-3.156309" lat="53.017966"><ele>361.357269</ele><time>2021-09-01T10:22:32Z</time><extensions><speed>1.162952</speed><course>303.591888</course><hAcc>0.872868</hAcc><vAcc>0.666068</vAcc></extensions></trkpt>
      <trkpt lon="-3.156294" lat="53.017972"><ele>361.531555</ele><time>2021-09-01T10:22:33Z</time><extensions><speed>1.158842</speed><course>302.311584</course><hAcc>0.872821</hAcc><vAcc>0.665996</vAcc></extensions></trkpt>
      <trkpt lon="-3.156280" lat="53.017978"><ele>361.714111</ele><time>2021-09-01T10:22:34Z</time><extensions><speed>1.148244</speed><course>296.010498</course><hAcc>0.872735</hAcc><vAcc>0.665784</vAcc></extensions></trkpt>
      <trkpt lon="-3.156266" lat="53.017984"><ele>361.903229</ele><time>2021-09-01T10:22:35Z</time><extensions><speed>1.131635</speed><course>298.597748</course><hAcc>0.872601</hAcc><vAcc>0.665398</vAcc></extensions></trkpt>
      <trkpt lon="-3.156253" lat="53.017990"><ele>362.096741</ele><time>2021-09-01T10:22:36Z</time><extensions><speed>1.110060</speed><course>307.419373</course><hAcc>0.872417</hAcc><vAcc>0.664823</vAcc></extensions></trkpt>
      <trkpt lon="-3.156240" lat="53.017996"><ele>362.292419</ele><time>2021-09-01T10:22:37Z</time><extensions><speed>1.085324</speed><course>311.127045</course><hAcc>0.872183</hAcc><vAcc>0.664064</vAcc></extensions></trkpt>
      <trkpt lon="-3.156227" lat="53.018002"><ele>362.488281</ele><time>2021-09-01T10:22:38Z</time><extensions><speed>1.059310</speed><course>308.779785</course><hAcc>0.871908</hAcc><vAcc>0.663148</vAcc></extensions></trkpt>
      <trkpt lon="-3.156215" lat="53.018007"><ele>362.682465</ele><time>2021-09-01T10:22:39Z</time><extensions><speed>1.032577</speed><course>310.817932</course><hAcc>0.871608</hAcc><vAcc>0.662124</vAcc></extensions></trkpt>
      <trkpt lon="-3.156203" lat="53.018013"><ele>362.873047</ele><time>2021-09-01T10:22:40Z</time><extensions><speed>1.005310</speed><course>313.903961</course><hAcc>0.871301</hAcc><vAcc>0.661062</vAcc></extensions></trkpt>
      <trkpt lon="-3.156192" lat="53.018019"><ele>363.058136</ele><time>2021-09-01T10:22:41Z</time><extensions><speed>0.977584</speed><course>312.113068</course><hAcc>0.871011</hAcc><vAcc>0.660045</vAcc></extensions></trkpt>
      <trkpt lon="-3.156181" lat="53.018024"><ele>363.236145</ele><time>2021-09-01T10:22:42Z</time><extensions><speed>0.949346</speed><course>298.693726</course><hAcc>0.870764</hAcc><vAcc>0.659167</vAcc></extensions></trkpt>
      <trkpt lon="-3.156170" lat="53.018030"><ele>363.406006</ele><time>2021-09-01T10:22:43Z</time><extensions><speed>0.920755</speed><course>304.126526</course><hAcc>0.870586</hAcc><vAcc>0.658518</vAcc></extensions></trkpt>
      <trkpt lon="-3.156159" lat="53.018035"><ele>363.567596</ele><time>2021-09-01T10:22:44Z</time><extensions><speed>0.892095</speed><course>307.202972</course><hAcc>0.870499</hAcc><vAcc>0.658183</vAcc></extensions></trkpt>
      <trkpt lon="-3.156149" lat="53.018040"><ele>363.721100</ele><time>2021-09-01T10:22:45Z</time><extensions><speed>0.863761</speed><course>306.849365</course><hAcc>0.870519</hAcc><vAcc>0.658217</vAcc></extensions></trkpt>
      <trkpt lon="-3.156140" lat="53.018045"><ele>363.866394</ele><time>2021-09-01T10:22:46Z</time><extensions><speed>0.836044</speed><course>311.228149</course><hAcc>0.870654</hAcc><vAcc>0.658644</vAcc></extensions></trkpt>
      <trkpt lon="-3.156131" lat="53.018050"><ele>364.003052</ele><time>2021-09-01T10:22:47Z</time><extensions><speed>0.808671</speed><course>314.984741</course><hAcc>0.870904</hAcc><vAcc>0.659466</vAcc></extensions></trkpt>
      <trkpt lon="-3.156122" lat="53.018054"><ele>364.131134</ele><time>2021-09-01T10:22:48Z</time><extensions><speed>0.781755</speed><course>312.149628</course><hAcc>0.871264</hAcc><vAcc>0.660666</vAcc></extensions></trkpt>
      <trkpt lon="-3.156113" lat="53.018059"><ele>364.251648</ele><time>2021-09-01T10:22:49Z</time><extensions><speed>0.756704</speed><course>303.811646</course><hAcc>0.871724</hAcc><vAcc>0.662211</vAcc></extensions></trkpt>
      <trkpt lon="-3.156105" lat="53.018064"><ele>364.365875</ele><time>2021-09-01T10:22:50Z</time><extensions><speed>0.735718</speed><course>306.939087</course><hAcc>0.872267</hAcc><vAcc>0.664037</vAcc></extensions></trkpt>
      <trkpt lon="-3.156097" lat="53.018068"><ele>364.475067</ele><time>2021-09-01T10:22:51Z</time><extensions><speed>0.721213</speed><course>305.149933</course><hAcc>0.872870</hAcc><vAcc>0.666061</vAcc></extensions></trkpt>
      <trkpt lon="-3.156089" lat="53.018072"><ele>364.581390</ele><time>2021-09-01T10:22:52Z</time><extensions><speed>0.715106</speed><course>307.460999</course><hAcc>0.873506</hAcc><vAcc>0.668189</vAcc></extensions></trkpt>
      <trkpt lon="-3.156080" lat="53.018076"><ele>364.688110</ele><time>2021-09-01T10:22:53Z</time><extensions><speed>0.718333</speed><course>310.556549</course><hAcc>0.874151</hAcc><vAcc>0.670323</vAcc></extensions></trkpt>
      <trkpt lon="-3.156072" lat="53.018080"><ele>364.799042</ele><time>2021-09-01T10:22:54Z</time><extensions><speed>0.730571</speed><course>316.643463</course><hAcc>0.874777</hAcc><vAcc>0.672369</vAcc></extensions></trkpt>
      <trkpt lon="-3.156063" lat="53.018084"><ele>364.918121</ele><time>2021-09-01T10:22:55Z</time><extensions><speed>0.749799</speed><course>310.111420</course><hAcc>0.875365</hAcc><vAcc>0.674253</vAcc></extensions></trkpt>
      <trkpt lon="-3.156053" lat="53.018088"><ele>365.049347</ele><time>2021-09-01T10:22:56Z</time><extensions><speed>0.773692</speed><course>309.394775</course><hAcc>0.875896</hAcc><vAcc>0.675930</vAcc></extensions></trkpt>
      <trkpt lon="-3.156043" lat="53.018092"><ele>365.195740</ele><time>2021-09-01T10:22:57Z</time><extensions><speed>0.801062</speed><course>312.734375</course><hAcc>0.876362</hAcc><vAcc>0.677376</vAcc></extensions></trkpt>
      <trkpt lon="-3.156033" lat="53.018095"><ele>365.357971</ele><time>2021-09-01T10:22:58Z</time><extensions><speed>0.830225</speed><course>307.110260</course><hAcc>0.876755</hAcc><vAcc>0.678573</vAcc></extensions></trkpt>
      <trkpt lon="-3.156022" lat="53.018099"><ele>365.535522</ele><time>2021-09-01T10:23:00Z</time><extensions><speed>0.858032</speed><course>304.794312</course><hAcc>0.877052</hAcc><vAcc>0.679495</vAcc></extensions></trkpt>
      <trkpt lon="-3.156011" lat="53.018103"><ele>365.726776</ele><time>2021-09-01T10:23:01Z</time><extensions><speed>0.881659</speed><course>309.669006</course><hAcc>0.877248</hAcc><vAcc>0.680132</vAcc></extensions></trkpt>
      <trkpt lon="-3.156000" lat="53.018107"><ele>365.930115</ele><time>2021-09-01T10:23:02Z</time><extensions><speed>0.899475</speed><course>309.747101</course><hAcc>0.877362</hAcc><vAcc>0.680501</vAcc></extensions></trkpt>
      <trkpt lon="-3.155988" lat="53.018111"><ele>366.143280</ele><time>2021-09-01T10:23:03Z</time><extensions><speed>0.910965</speed><course>308.451904</course><hAcc>0.877394</hAcc><vAcc>0.680613</vAcc></extensions></trkpt>
      <trkpt lon="-3.155976" lat="53.018115"><ele>366.363983</ele><time>2021-09-01T10:23:04Z</time><extensions><speed>0.916712</speed><course>313.674774</course><hAcc>0.877348</hAcc><vAcc>0.680476</vAcc></extensions></trkpt>
      <trkpt lon="-3.155964" lat="53.018120"><ele>366.589569</ele><time>2021-09-01T10:23:05Z</time><extensions><speed>0.917798</speed><course>310.174561</course><hAcc>0.877226</hAcc><vAcc>0.680098</vAcc></extensions></trkpt>
      <trkpt lon="-3.155953" lat="53.018124"><ele>366.817230</ele><time>2021-09-01T10:23:06Z</time><extensions><speed>0.915994</speed><course>312.894348</course><hAcc>0.877034</hAcc><vAcc>0.679492</vAcc></extensions></trkpt>
      <trkpt lon="-3.155941" lat="53.018129"><ele>367.043976</ele><time>2021-09-01T10:23:07Z</time><extensions><speed>0.913232</speed><course>309.740997</course><hAcc>0.876780</hAcc><vAcc>0.678687</vAcc></extensions></trkpt>
      <trkpt lon="-3.155930" lat="53.018133"><ele>367.266785</ele><time>2021-09-01T10:23:07Z</time><extensions><speed>0.911275</speed><course>309.271240</course><hAcc>0.876495</hAcc><vAcc>0.677731</vAcc></extensions></trkpt>
      <trkpt lon="-3.155919" lat="53.018138"><ele>367.483643</ele><time>2021-09-01T10:23:08Z</time><extensions><speed>0.910766</speed><course>309.840485</course><hAcc>0.876191</hAcc><vAcc>0.676665</vAcc></extensions></trkpt>
      <trkpt lon="-3.155908" lat="53.018143"><ele>367.692261</ele><time>2021-09-01T10:23:09Z</time><extensions><speed>0.911181</speed><course>308.054108</course><hAcc>0.875867</hAcc><vAcc>0.675528</vAcc></extensions></trkpt>
      <trkpt lon="-3.155898" lat="53.018148"><ele>367.891205</ele><time>2021-09-01T10:23:10Z</time><extensions><speed>0.911503</speed><course>306.226685</course><hAcc>0.875540</hAcc><vAcc>0.674377</vAcc></extensions></trkpt>
      <trkpt lon="-3.155887" lat="53.018153"><ele>368.079681</ele><time>2021-09-01T10:23:11Z</time><extensions><speed>0.911017</speed><course>316.211884</course><hAcc>0.875231</hAcc><vAcc>0.673282</vAcc></extensions></trkpt>
      <trkpt lon="-3.155877" lat="53.018158"><ele>368.257263</ele><time>2021-09-01T10:23:12Z</time><extensions><speed>0.909911</speed><course>312.798523</course><hAcc>0.874960</hAcc><vAcc>0.672319</vAcc></extensions></trkpt>
      <trkpt lon="-3.155867" lat="53.018164"><ele>368.424164</ele><time>2021-09-01T10:23:13Z</time><extensions><speed>0.908551</speed><course>314.823364</course><hAcc>0.874745</hAcc><vAcc>0.671561</vAcc></extensions></trkpt>
      <trkpt lon="-3.155857" lat="53.018170"><ele>368.581024</ele><time>2021-09-01T10:23:14Z</time><extensions><speed>0.906888</speed><course>317.560303</course><hAcc>0.874600</hAcc><vAcc>0.671060</vAcc></extensions></trkpt>
      <trkpt lon="-3.155848" lat="53.018175"><ele>368.728485</ele><time>2021-09-01T10:23:15Z</time><extensions><speed>0.905198</speed><course>313.870911</course><hAcc>0.874533</hAcc><vAcc>0.670840</vAcc></extensions></trkpt>
      <trkpt lon="-3.155838" lat="53.018181"><ele>368.867310</ele><time>2021-09-01T10:23:16Z</time><extensions><speed>0.903903</speed><course>320.858917</course><hAcc>0.874542</hAcc><vAcc>0.670893</vAcc></extensions></trkpt>
      <trkpt lon="-3.155829" lat="53.018187"><ele>368.998413</ele><time>2021-09-01T10:23:17Z</time><extensions><speed>0.903135</speed><course>322.110107</course><hAcc>0.874623</hAcc><vAcc>0.671186</vAcc></extensions></trkpt>
      <trkpt lon="-3.155821" lat="53.018193"><ele>369.122955</ele><time>2021-09-01T10:23:18Z</time><extensions><speed>0.902786</speed><course>322.258118</course><hAcc>0.874766</hAcc><vAcc>0.671680</vAcc></extensions></trkpt>
      <trkpt lon="-3.155812" lat="53.018200"><ele>369.241730</ele><time>2021-09-01T10:23:19Z</time><extensions><speed>0.901870</speed><course>323.751770</course><hAcc>0.874963</hAcc><vAcc>0.672342</vAcc></extensions></trkpt>
      <trkpt lon="-3.155803" lat="53.018206"><ele>369.355591</ele><time>2021-09-01T10:23:20Z</time><extensions><speed>0.898715</speed><course>311.017761</course><hAcc>0.875204</hAcc><vAcc>0.673143</vAcc></extensions></trkpt>
      <trkpt lon="-3.155795" lat="53.018212"><ele>369.465851</ele><time>2021-09-01T10:23:21Z</time><extensions><speed>0.892341</speed><course>303.134949</course><hAcc>0.875482</hAcc><vAcc>0.674063</vAcc></extensions></trkpt>
      <trkpt lon="-3.155787" lat="53.018218"><ele>369.574371</ele><time>2021-09-01T10:23:22Z</time><extensions><speed>0.883271</speed><course>305.266266</course><hAcc>0.875788</hAcc><vAcc>0.675084</vAcc></extensions></trkpt>
      <trkpt lon="-3.155779" lat="53.018225"><ele>369.682922</ele><time>2021-09-01T10:23:23Z</time><extensions><speed>0.872951</speed><course>306.244568</course><hAcc>0.876111</hAcc><vAcc>0.676183</vAcc></extensions></trkpt>
      <trkpt lon="-3.155771" lat="53.018231"><ele>369.793060</ele><time>2021-09-01T10:23:24Z</time><extensions><speed>0.862461</speed><course>311.028961</course><hAcc>0.876438</hAcc><vAcc>0.677313</vAcc></extensions></trkpt>
      <trkpt lon="-3.155763" lat="53.018237"><ele>369.906006</ele><time>2021-09-01T10:23:25Z</time><extensions><speed>0.851637</speed><course>304.990997</course><hAcc>0.876753</hAcc><vAcc>0.678408</vAcc></extensions></trkpt>
      <trkpt lon="-3.155755" lat="53.018243"><ele>370.023102</ele><time>2021-09-01T10:23:26Z</time><extensions><speed>0.840253</speed><course>305.619354</course><hAcc>0.877038</hAcc><vAcc>0.679395</vAcc></extensions></trkpt>
      <trkpt lon="-3.155747" lat="53.018248"><ele>370.145752</ele><time>2021-09-01T10:23:27Z</time><extensions><speed>0.828363</speed><course>319.038269</course><hAcc>0.877280</hAcc><vAcc>0.680219</vAcc></extensions></trkpt>
      <trkpt lon="-3.155739" lat="53.018254"><ele>370.274994</ele><time>2021-09-01T10:23:28Z</time><extensions><speed>0.815879</speed><course>314.772644</course><hAcc>0.877466</hAcc><vAcc>0.680839</vAcc></extensions></trkpt>
      <trkpt lon="-3.155731" lat="53.018259"><ele>370.411621</ele><time>2021-09-01T10:23:29Z</time><extensions><speed>0.802670</speed><course>314.865356</course><hAcc>0.877589</hAcc><vAcc>0.681232</vAcc></extensions></trkpt>
      <trkpt lon="-3.155723" lat="53.018265"><ele>370.556091</ele><time>2021-09-01T10:23:30Z</time><extensions><speed>0.788442</speed><course>315.584076</course><hAcc>0.877648</hAcc><vAcc>0.681393</vAcc></extensions></trkpt>
      <trkpt lon="-3.155715" lat="53.018270"><ele>370.708527</ele><time>2021-09-01T10:23:31Z</time><extensions><speed>0.773277</speed><course>318.301117</course><hAcc>0.877641</hAcc><vAcc>0.681332</vAcc></extensions></trkpt>
      <trkpt lon="-3.155707" lat="53.018275"><ele>370.868500</ele><time>2021-09-01T10:23:32Z</time><extensions><speed>0.756988</speed><course>308.957520</course><hAcc>0.877575</hAcc><vAcc>0.681070</vAcc></extensions></trkpt>
      <trkpt lon="-3.155699" lat="53.018280"><ele>371.035400</ele><time>2021-09-01T10:23:33Z</time><extensions><speed>0.739479</speed><course>309.679749</course><hAcc>0.877456</hAcc><vAcc>0.680637</vAcc></extensions></trkpt>
      <trkpt lon="-3.155691" lat="53.018284"><ele>371.208435</ele><time>2021-09-01T10:23:34Z</time><extensions><speed>0.721469</speed><course>315.508118</course><hAcc>0.877293</hAcc><vAcc>0.680067</vAcc></extensions></trkpt>
      <trkpt lon="-3.155684" lat="53.018288"><ele>371.386780</ele><time>2021-09-01T10:23:35Z</time><extensions><speed>0.703491</speed><course>315.740204</course><hAcc>0.877098</hAcc><vAcc>0.679397</vAcc></extensions></trkpt>
      <trkpt lon="-3.155676" lat="53.018293"><ele>371.569550</ele><time>2021-09-01T10:23:36Z</time><extensions><speed>0.685947</speed><course>310.654785</course><hAcc>0.876883</hAcc><vAcc>0.678659</vAcc></extensions></trkpt>
      <trkpt lon="-3.155668" lat="53.018297"><ele>371.755798</ele><time>2021-09-01T10:23:37Z</time><extensions><speed>0.669479</speed><course>314.784058</course><hAcc>0.876660</hAcc><vAcc>0.677885</vAcc></extensions></trkpt>
      <trkpt lon="-3.155661" lat="53.018301"><ele>371.944611</ele><time>2021-09-01T10:23:38Z</time><extensions><speed>0.655012</speed><course>306.836517</course><hAcc>0.876442</hAcc><vAcc>0.677113</vAcc></extensions></trkpt>
      <trkpt lon="-3.155654" lat="53.018305"><ele>372.134796</ele><time>2021-09-01T10:23:39Z</time><extensions><speed>0.643816</speed><course>319.014709</course><hAcc>0.876247</hAcc><vAcc>0.676397</vAcc></extensions></trkpt>
      <trkpt lon="-3.155646" lat="53.018308"><ele>372.325134</ele><time>2021-09-01T10:23:40Z</time><extensions><speed>0.637105</speed><course>316.668060</course><hAcc>0.876092</hAcc><vAcc>0.675808</vAcc></extensions></trkpt>
      <trkpt lon="-3.155639" lat="53.018312"><ele>372.514465</ele><time>2021-09-01T10:23:41Z</time><extensions><speed>0.635666</speed><course>317.381256</course><hAcc>0.875993</hAcc><vAcc>0.675420</vAcc></extensions></trkpt>
      <trkpt lon="-3.155632" lat="53.018316"><ele>372.701630</ele><time>2021-09-01T10:23:42Z</time><extensions><speed>0.640315</speed><course>315.522644</course><hAcc>0.875964</hAcc><vAcc>0.675292</vAcc></extensions></trkpt>
      <trkpt lon="-3.155625" lat="53.018319"><ele>372.885162</ele><time>2021-09-01T10:23:43Z</time><extensions><speed>0.651438</speed><course>313.748596</course><hAcc>0.876009</hAcc><vAcc>0.675457</vAcc></extensions></trkpt>
      <trkpt lon="-3.155617" lat="53.018323"><ele>373.063690</ele><time>2021-09-01T10:23:44Z</time><extensions><speed>0.668510</speed><course>311.298676</course><hAcc>0.876127</hAcc><vAcc>0.675905</vAcc></extensions></trkpt>
      <trkpt lon="-3.155610" lat="53.018327"><ele>373.236237</ele><time>2021-09-01T10:23:45Z</time><extensions><speed>0.690525</speed><course>307.453308</course><hAcc>0.876307</hAcc><vAcc>0.676588</vAcc></extensions></trkpt>
      <trkpt lon="-3.155602" lat="53.018332"><ele>373.402344</ele><time>2021-09-01T10:23:46Z</time><extensions><speed>0.716356</speed><course>308.937561</course><hAcc>0.876529</hAcc><vAcc>0.677421</vAcc></extensions></trkpt>
      <trkpt lon="-3.155594" lat="53.018336"><ele>373.562164</ele><time>2021-09-01T10:23:47Z</time><extensions><speed>0.744152</speed><course>304.505646</course><hAcc>0.876771</hAcc><vAcc>0.678312</vAcc></extensions></trkpt>
      <trkpt lon="-3.155586" lat="53.018341"><ele>373.716064</ele><time>2021-09-01T10:23:48Z</time><extensions><speed>0.771833</speed><course>299.094574</course><hAcc>0.877013</hAcc><vAcc>0.679181</vAcc></extensions></trkpt>
      <trkpt lon="-3.155578" lat="53.018346"><ele>373.864349</ele><time>2021-09-01T10:23:49Z</time><extensions><speed>0.798311</speed><course>310.704071</course><hAcc>0.877236</hAcc><vAcc>0.679965</vAcc></extensions></trkpt>
      <trkpt lon="-3.155570" lat="53.018351"><ele>374.007111</ele><time>2021-09-01T10:23:50Z</time><extensions><speed>0.823551</speed><course>308.713898</course><hAcc>0.877426</hAcc><vAcc>0.680615</vAcc></extensions></trkpt>
      <trkpt lon="-3.155561" lat="53.018357"><ele>374.144562</ele><time>2021-09-01T10:23:51Z</time><extensions><speed>0.848236</speed><course>315.990417</course><hAcc>0.877571</hAcc><vAcc>0.681090</vAcc></extensions></trkpt>
      <trkpt lon="-3.155553" lat="53.018363"><ele>374.276886</ele><time>2021-09-01T10:23:52Z</time><extensions><speed>0.873167</speed><course>316.941956</course><hAcc>0.877662</hAcc><vAcc>0.681364</vAcc></extensions></trkpt>
      <trkpt lon="-3.155544" lat="53.018369"><ele>374.403900</ele><time>2021-09-01T10:23:53Z</time><extensions><speed>0.899336</speed><course>326.025696</course><hAcc>0.877696</hAcc><vAcc>0.681422</vAcc></extensions></trkpt>
      <trkpt lon="-3.155536" lat="53.018375"><ele>374.525116</ele><time>2021-09-01T10:23:54Z</time><extensions><speed>0.926464</speed><course>316.997101</course><hAcc>0.877673</hAcc><vAcc>0.681267</vAcc></extensions></trkpt>
      <trkpt lon="-3.155527" lat="53.018382"><ele>374.639587</ele><time>2021-09-01T10:23:55Z</time><extensions><speed>0.952573</speed><course>307.396637</course><hAcc>0.877597</hAcc><vAcc>0.680920</vAcc></extensions></trkpt>
      <trkpt lon="-3.155518" lat="53.018389"><ele>374.746613</ele><time>2021-09-01T10:23:56Z</time><extensions><speed>0.975870</speed><course>307.245117</course><hAcc>0.877475</hAcc><vAcc>0.680421</vAcc></extensions></trkpt>
      <trkpt lon="-3.155509" lat="53.018396"><ele>374.846222</ele><time>2021-09-01T10:23:57Z</time><extensions><speed>0.995083</speed><course>302.943970</course><hAcc>0.877319</hAcc><vAcc>0.679821</vAcc></extensions></trkpt>
      <trkpt lon="-3.155500" lat="53.018403"><ele>374.938660</ele><time>2021-09-01T10:23:58Z</time><extensions><speed>1.009177</speed><course>310.986115</course><hAcc>0.877139</hAcc><vAcc>0.679172</vAcc></extensions></trkpt>
      <trkpt lon="-3.155491" lat="53.018410"><ele>375.023560</ele><time>2021-09-01T10:23:59Z</time><extensions><speed>1.017277</speed><course>317.229156</course><hAcc>0.876947</hAcc><vAcc>0.678512</vAcc></extensions></trkpt>
      <trkpt lon="-3.155481" lat="53.018417"><ele>375.100098</ele><time>2021-09-01T10:24:00Z</time><extensions><speed>1.018506</speed><course>310.287506</course><hAcc>0.876754</hAcc><vAcc>0.677859</vAcc></extensions></trkpt>
      <trkpt lon="-3.155472" lat="53.018424"><ele>375.167542</ele><time>2021-09-01T10:24:01Z</time><extensions><speed>1.012563</speed><course>314.657898</course><hAcc>0.876573</hAcc><vAcc>0.677215</vAcc></extensions></trkpt>
      <trkpt lon="-3.155463" lat="53.018432"><ele>375.225464</ele><time>2021-09-01T10:24:02Z</time><extensions><speed>0.999716</speed><course>316.163879</course><hAcc>0.876422</hAcc><vAcc>0.676574</vAcc></extensions></trkpt>
      <trkpt lon="-3.155454" lat="53.018439"><ele>375.273621</ele><time>2021-09-01T10:24:03Z</time><extensions><speed>0.980075</speed><course>315.280670</course><hAcc>0.876330</hAcc><vAcc>0.675936</vAcc></extensions></trkpt>
      <trkpt lon="-3.155446" lat="53.018446"><ele>375.311737</ele><time>2021-09-01T10:24:04Z</time><extensions><speed>0.953814</speed><course>323.358459</course><hAcc>0.876339</hAcc><vAcc>0.675302</vAcc></extensions></trkpt>
      <trkpt lon="-3.155438" lat="53.018453"><ele>375.339691</ele><time>2021-09-01T10:24:05Z</time><extensions><speed>0.921616</speed><course>323.478973</course><hAcc>0.876506</hAcc><vAcc>0.674679</vAcc></extensions></trkpt>
      <trkpt lon="-3.155430" lat="53.018459"><ele>375.357910</ele><time>2021-09-01T10:24:06Z</time><extensions><speed>0.884022</speed><course>327.884216</course><hAcc>0.876906</hAcc><vAcc>0.674090</vAcc></extensions></trkpt>
      <trkpt lon="-3.155422" lat="53.018465"><ele>375.367096</ele><time>2021-09-01T10:24:07Z</time><extensions><speed>0.841210</speed><course>318.187775</course><hAcc>0.877633</hAcc><vAcc>0.673568</vAcc></extensions></trkpt>
      <trkpt lon="-3.155415" lat="53.018471"><ele>375.368591</ele><time>2021-09-01T10:24:08Z</time><extensions><speed>0.793482</speed><course>318.936035</course><hAcc>0.878792</hAcc><vAcc>0.673159</vAcc></extensions></trkpt>
      <trkpt lon="-3.155408" lat="53.018477"><ele>375.364716</ele><time>2021-09-01T10:24:09Z</time><extensions><speed>0.740966</speed><course>326.780121</course><hAcc>0.880488</hAcc><vAcc>0.672909</vAcc></extensions></trkpt>
      <trkpt lon="-3.155402" lat="53.018482"><ele>375.358185</ele><time>2021-09-01T10:24:10Z</time><extensions><speed>0.684189</speed><course>314.218445</course><hAcc>0.882810</hAcc><vAcc>0.672849</vAcc></extensions></trkpt>
      <trkpt lon="-3.155396" lat="53.018486"><ele>375.352081</ele><time>2021-09-01T10:24:11Z</time><extensions><speed>0.625061</speed><course>317.554047</course><hAcc>0.885803</hAcc><vAcc>0.672993</vAcc></extensions></trkpt>
      <trkpt lon="-3.155390" lat="53.018491"><ele>375.349457</ele><time>2021-09-01T10:24:12Z</time><extensions><speed>0.566189</speed><course>317.225586</course><hAcc>0.889449</hAcc><vAcc>0.673333</vAcc></extensions></trkpt>
      <trkpt lon="-3.155384" lat="53.018494"><ele>375.352814</ele><time>2021-09-01T10:24:13Z</time><extensions><speed>0.509567</speed><course>318.371796</course><hAcc>0.893636</hAcc><vAcc>0.673844</vAcc></extensions></trkpt>
      <trkpt lon="-3.155379" lat="53.018497"><ele>375.364288</ele><time>2021-09-01T10:24:14Z</time><extensions><speed>0.456002</speed><course>319.534454</course><hAcc>0.898160</hAcc><vAcc>0.674489</vAcc></extensions></trkpt>
      <trkpt lon="-3.155374" lat="53.018500"><ele>375.385529</ele><time>2021-09-01T10:24:15Z</time><extensions><speed>0.405875</speed><course>319.948578</course><hAcc>0.902771</hAcc><vAcc>0.675222</vAcc></extensions></trkpt>
      <trkpt lon="-3.155370" lat="53.018502"><ele>375.417725</ele><time>2021-09-01T10:24:16Z</time><extensions><speed>0.359667</speed><course>326.867279</course><hAcc>0.907252</hAcc><vAcc>0.676002</vAcc></extensions></trkpt>
      <trkpt lon="-3.155365" lat="53.018503"><ele>375.461731</ele><time>2021-09-01T10:24:17Z</time><extensions><speed>0.317895</speed><course>319.995087</course><hAcc>0.911476</hAcc><vAcc>0.676810</vAcc></extensions></trkpt>
      <trkpt lon="-3.155361" lat="53.018504"><ele>375.518036</ele><time>2021-09-01T10:24:18Z</time><extensions><speed>0.281100</speed><course>323.754486</course><hAcc>0.915443</hAcc><vAcc>0.677660</vAcc></extensions></trkpt>
      <trkpt lon="-3.155358" lat="53.018505"><ele>375.586304</ele><time>2021-09-01T10:24:19Z</time><extensions><speed>0.250108</speed><course>327.994751</course><hAcc>0.919266</hAcc><vAcc>0.678594</vAcc></extensions></trkpt>
      <trkpt lon="-3.155354" lat="53.018506"><ele>375.665039</ele><time>2021-09-01T10:24:20Z</time><extensions><speed>0.225433</speed><course>338.740143</course><hAcc>0.923126</hAcc><vAcc>0.679664</vAcc></extensions></trkpt>
      <trkpt lon="-3.155351" lat="53.018506"><ele>375.752319</ele><time>2021-09-01T10:24:21Z</time><extensions><speed>0.206487</speed><course>336.648224</course><hAcc>0.927179</hAcc><vAcc>0.680905</vAcc></extensions></trkpt>
      <trkpt lon="-3.155348" lat="53.018506"><ele>375.846375</ele><time>2021-09-01T10:24:22Z</time><extensions><speed>0.192277</speed><course>335.818359</course><hAcc>0.931496</hAcc><vAcc>0.682334</vAcc></extensions></trkpt>
      <trkpt lon="-3.155345" lat="53.018506"><ele>375.945404</ele><time>2021-09-01T10:24:23Z</time><extensions><speed>0.182132</speed><course>332.183533</course><hAcc>0.936034</hAcc><vAcc>0.683941</vAcc></extensions></trkpt>
      <trkpt lon="-3.155343" lat="53.018507"><ele>376.047668</ele><time>2021-09-01T10:24:24Z</time><extensions><speed>0.175722</speed><course>329.123840</course><hAcc>0.940635</hAcc><vAcc>0.685691</vAcc></extensions></trkpt>
      <trkpt lon="-3.155340" lat="53.018507"><ele>376.151611</ele><time>2021-09-01T10:24:25Z</time><extensions><speed>0.173094</speed><course>331.386230</course><hAcc>0.945051</hAcc><vAcc>0.687527</vAcc></extensions></trkpt>
      <trkpt lon="-3.155337" lat="53.018507"><ele>376.255890</ele><time>2021-09-01T10:24:26Z</time><extensions><speed>0.175184</speed><course>327.161377</course><hAcc>0.949009</hAcc><vAcc>0.689371</vAcc></extensions></trkpt>
      <trkpt lon="-3.155335" lat="53.018508"><ele>376.359192</ele><time>2021-09-01T10:24:27Z</time><extensions><speed>0.183458</speed><course>327.868042</course><hAcc>0.952257</hAcc><vAcc>0.691132</vAcc></extensions></trkpt>
      <trkpt lon="-3.155332" lat="53.018508"><ele>376.460327</ele><time>2021-09-01T10:24:28Z</time><extensions><speed>0.199090</speed><course>323.627838</course><hAcc>0.954608</hAcc><vAcc>0.692698</vAcc></extensions></trkpt>
      <trkpt lon="-3.155330" lat="53.018509"><ele>376.558289</ele><time>2021-09-01T10:24:29Z</time><extensions><speed>0.222775</speed><course>324.612000</course><hAcc>0.955968</hAcc><vAcc>0.693938</vAcc></extensions></trkpt>
      <trkpt lon="-3.155327" lat="53.018511"><ele>376.652039</ele><time>2021-09-01T10:24:30Z</time><extensions><speed>0.254451</speed><course>314.250275</course><hAcc>0.956343</hAcc><vAcc>0.694711</vAcc></extensions></trkpt>
      <trkpt lon="-3.155325" lat="53.018513"><ele>376.740692</ele><time>2021-09-01T10:24:31Z</time><extensions><speed>0.293875</speed><course>324.325928</course><hAcc>0.955802</hAcc><vAcc>0.694886</vAcc></extensions></trkpt>
      <trkpt lon="-3.155322" lat="53.018515"><ele>376.823242</ele><time>2021-09-01T10:24:33Z</time><extensions><speed>0.341033</speed><course>323.620239</course><hAcc>0.954390</hAcc><vAcc>0.694328</vAcc></extensions></trkpt>
      <trkpt lon="-3.155319" lat="53.018518"><ele>376.898010</ele><time>2021-09-01T10:24:33Z</time><extensions><speed>0.395349</speed><course>318.647095</course><hAcc>0.952153</hAcc><vAcc>0.692955</vAcc></extensions></trkpt>
      <trkpt lon="-3.155317" lat="53.018521"><ele>376.963257</ele><time>2021-09-01T10:24:34Z</time><extensions><speed>0.456575</speed><course>325.356964</course><hAcc>0.949088</hAcc><vAcc>0.690723</vAcc></extensions></trkpt>
      <trkpt lon="-3.155314" lat="53.018526"><ele>377.016846</ele><time>2021-09-01T10:24:35Z</time><extensions><speed>0.523417</speed><course>319.826599</course><hAcc>0.945145</hAcc><vAcc>0.687634</vAcc></extensions></trkpt>
      <trkpt lon="-3.155312" lat="53.018530"><ele>377.056885</ele><time>2021-09-01T10:24:36Z</time><extensions><speed>0.594195</speed><course>314.735016</course><hAcc>0.940310</hAcc><vAcc>0.683786</vAcc></extensions></trkpt>
      <trkpt lon="-3.155309" lat="53.018536"><ele>377.081696</ele><time>2021-09-01T10:24:37Z</time><extensions><speed>0.667220</speed><course>309.478760</course><hAcc>0.934642</hAcc><vAcc>0.679361</vAcc></extensions></trkpt>
      <trkpt lon="-3.155306" lat="53.018542"><ele>377.089966</ele><time>2021-09-01T10:24:38Z</time><extensions><speed>0.740637</speed><course>319.543488</course><hAcc>0.928285</hAcc><vAcc>0.674601</vAcc></extensions></trkpt>
      <trkpt lon="-3.155302" lat="53.018548"><ele>377.080811</ele><time>2021-09-01T10:24:39Z</time><extensions><speed>0.812074</speed><course>324.087982</course><hAcc>0.921439</hAcc><vAcc>0.669773</vAcc></extensions></trkpt>
      <trkpt lon="-3.155299" lat="53.018556"><ele>377.053558</ele><time>2021-09-01T10:24:40Z</time><extensions><speed>0.879058</speed><course>317.628326</course><hAcc>0.914347</hAcc><vAcc>0.665145</vAcc></extensions></trkpt>
      <trkpt lon="-3.155295" lat="53.018564"><ele>377.007690</ele><time>2021-09-01T10:24:41Z</time><extensions><speed>0.939919</speed><course>311.843903</course><hAcc>0.907269</hAcc><vAcc>0.660958</vAcc></extensions></trkpt>
      <trkpt lon="-3.155291" lat="53.018572"><ele>376.943146</ele><time>2021-09-01T10:24:42Z</time><extensions><speed>0.994211</speed><course>320.026215</course><hAcc>0.900455</hAcc><vAcc>0.657415</vAcc></extensions></trkpt>
      <trkpt lon="-3.155286" lat="53.018581"><ele>376.860443</ele><time>2021-09-01T10:24:43Z</time><extensions><speed>1.041725</speed><course>320.448669</course><hAcc>0.894124</hAcc><vAcc>0.654671</vAcc></extensions></trkpt>
      <trkpt lon="-3.155281" lat="53.018590"><ele>376.760559</ele><time>2021-09-01T10:24:44Z</time><extensions><speed>1.082086</speed><course>324.626526</course><hAcc>0.888464</hAcc><vAcc>0.652816</vAcc></extensions></trkpt>
      <trkpt lon="-3.155276" lat="53.018599"><ele>376.644928</ele><time>2021-09-01T10:24:45Z</time><extensions><speed>1.115138</speed><course>326.167938</course><hAcc>0.883620</hAcc><vAcc>0.651856</vAcc></extensions></trkpt>
      <trkpt lon="-3.155270" lat="53.018609"><ele>376.515350</ele><time>2021-09-01T10:24:46Z</time><extensions><speed>1.140929</speed><course>325.390656</course><hAcc>0.879679</hAcc><vAcc>0.651714</vAcc></extensions></trkpt>
      <trkpt lon="-3.155264" lat="53.018618"><ele>376.373962</ele><time>2021-09-01T10:24:47Z</time><extensions><speed>1.159569</speed><course>314.974457</course><hAcc>0.876653</hAcc><vAcc>0.652256</vAcc></extensions></trkpt>
      <trkpt lon="-3.155258" lat="53.018628"><ele>376.222931</ele><time>2021-09-01T10:24:48Z</time><extensions><speed>1.170636</speed><course>325.724579</course><hAcc>0.874478</hAcc><vAcc>0.653313</vAcc></extensions></trkpt>
      <trkpt lon="-3.155251" lat="53.018638"><ele>376.064331</ele><time>2021-09-01T10:24:49Z</time><extensions><speed>1.173935</speed><course>318.034210</course><hAcc>0.873033</hAcc><vAcc>0.654697</vAcc></extensions></trkpt>
      <trkpt lon="-3.155244" lat="53.018647"><ele>375.900574</ele><time>2021-09-01T10:24:50Z</time><extensions><speed>1.169990</speed><course>313.475250</course><hAcc>0.872172</hAcc><vAcc>0.656246</vAcc></extensions></trkpt>
      <trkpt lon="-3.155237" lat="53.018657"><ele>375.734222</ele><time>2021-09-01T10:24:51Z</time><extensions><speed>1.159682</speed><course>321.089203</course><hAcc>0.871749</hAcc><vAcc>0.657834</vAcc></extensions></trkpt>
      <trkpt lon="-3.155230" lat="53.018666"><ele>375.567627</ele><time>2021-09-01T10:24:52Z</time><extensions><speed>1.144052</speed><course>329.810181</course><hAcc>0.871636</hAcc><vAcc>0.659381</vAcc></extensions></trkpt>
      <trkpt lon="-3.155223" lat="53.018676"><ele>375.402893</ele><time>2021-09-01T10:24:53Z</time><extensions><speed>1.124424</speed><course>327.314850</course><hAcc>0.871727</hAcc><vAcc>0.660849</vAcc></extensions></trkpt>
      <trkpt lon="-3.155216" lat="53.018685"><ele>375.241821</ele><time>2021-09-01T10:24:54Z</time><extensions><speed>1.102142</speed><course>321.503876</course><hAcc>0.871942</hAcc><vAcc>0.662222</vAcc></extensions></trkpt>
      <trkpt lon="-3.155209" lat="53.018693"><ele>375.085815</ele><time>2021-09-01T10:24:55Z</time><extensions><speed>1.077845</speed><course>323.534607</course><hAcc>0.872219</hAcc><vAcc>0.663485</vAcc></extensions></trkpt>
      <trkpt lon="-3.155202" lat="53.018702"><ele>374.936035</ele><time>2021-09-01T10:24:56Z</time><extensions><speed>1.051535</speed><course>325.158722</course><hAcc>0.872514</hAcc><vAcc>0.664614</vAcc></extensions></trkpt>
      <trkpt lon="-3.155195" lat="53.018710"><ele>374.793610</ele><time>2021-09-01T10:24:57Z</time><extensions><speed>1.023200</speed><course>329.447083</course><hAcc>0.872795</hAcc><vAcc>0.665586</vAcc></extensions></trkpt>
      <trkpt lon="-3.155188" lat="53.018718"><ele>374.659576</ele><time>2021-09-01T10:24:58Z</time><extensions><speed>0.993102</speed><course>331.191650</course><hAcc>0.873045</hAcc><vAcc>0.666389</vAcc></extensions></trkpt>
      <trkpt lon="-3.155182" lat="53.018726"><ele>374.534760</ele><time>2021-09-01T10:24:59Z</time><extensions><speed>0.961360</speed><course>334.557068</course><hAcc>0.873256</hAcc><vAcc>0.667030</vAcc></extensions></trkpt>
      <trkpt lon="-3.155175" lat="53.018734"><ele>374.419800</ele><time>2021-09-01T10:25:00Z</time><extensions><speed>0.928560</speed><course>336.690918</course><hAcc>0.873432</hAcc><vAcc>0.667541</vAcc></extensions></trkpt>
      <trkpt lon="-3.155169" lat="53.018741"><ele>374.315094</ele><time>2021-09-01T10:25:01Z</time><extensions><speed>0.896286</speed><course>337.183258</course><hAcc>0.873582</hAcc><vAcc>0.667967</vAcc></extensions></trkpt>
      <trkpt lon="-3.155163" lat="53.018748"><ele>374.221313</ele><time>2021-09-01T10:25:02Z</time><extensions><speed>0.865985</speed><course>318.997711</course><hAcc>0.873715</hAcc><vAcc>0.668354</vAcc></extensions></trkpt>
      <trkpt lon="-3.155158" lat="53.018755"><ele>374.139221</ele><time>2021-09-01T10:25:03Z</time><extensions><speed>0.838530</speed><course>315.791901</course><hAcc>0.873841</hAcc><vAcc>0.668740</vAcc></extensions></trkpt>
      <trkpt lon="-3.155152" lat="53.018762"><ele>374.069458</ele><time>2021-09-01T10:25:04Z</time><extensions><speed>0.814870</speed><course>315.791901</course><hAcc>0.873967</hAcc><vAcc>0.669142</vAcc></extensions></trkpt>
      <trkpt lon="-3.155147" lat="53.018768"><ele>374.012177</ele><time>2021-09-01T10:25:06Z</time><extensions><speed>0.795440</speed><course>315.791901</course><hAcc>0.874073</hAcc><vAcc>0.669548</vAcc></extensions></trkpt>
      <trkpt lon="-3.155141" lat="53.018774"><ele>373.967316</ele><time>2021-09-01T10:25:07Z</time><extensions><speed>0.780077</speed><course>315.791901</course><hAcc>0.874156</hAcc><vAcc>0.669929</vAcc></extensions></trkpt>
      <trkpt lon="-3.155135" lat="53.018781"><ele>373.934753</ele><time>2021-09-01T10:25:08Z</time><extensions><speed>0.768547</speed><course>315.791901</course><hAcc>0.874226</hAcc><vAcc>0.670264</vAcc></extensions></trkpt>
      <trkpt lon="-3.155129" lat="53.018786"><ele>373.914490</ele><time>2021-09-01T10:25:09Z</time><extensions><speed>0.761058</speed><course>315.791901</course><hAcc>0.874273</hAcc><vAcc>0.670512</vAcc></extensions></trkpt>
      <trkpt lon="-3.155123" lat="53.018792"><ele>373.906494</ele><time>2021-09-01T10:25:10Z</time><extensions><speed>0.758194</speed><course>315.791901</course><hAcc>0.874287</hAcc><vAcc>0.670640</vAcc></extensions></trkpt>
      <trkpt lon="-3.155117" lat="53.018798"><ele>373.910736</ele><time>2021-09-01T10:25:11Z</time><extensions><speed>0.760247</speed><course>315.791901</course><hAcc>0.874262</hAcc><vAcc>0.670618</vAcc></extensions></trkpt>
      <trkpt lon="-3.155111" lat="53.018803"><ele>373.926910</ele><time>2021-09-01T10:25:12Z</time><extensions><speed>0.766755</speed><course>315.791901</course><hAcc>0.874189</hAcc><vAcc>0.670431</vAcc></extensions></trkpt>
      <trkpt lon="-3.155104" lat="53.018809"><ele>373.954651</ele><time>2021-09-01T10:25:13Z</time><extensions><speed>0.776945</speed><course>315.791901</course><hAcc>0.874066</hAcc><vAcc>0.670072</vAcc></extensions></trkpt>
      <trkpt lon="-3.155097" lat="53.018815"><ele>373.993195</ele><time>2021-09-01T10:25:13Z</time><extensions><speed>0.789869</speed><course>315.791901</course><hAcc>0.873906</hAcc><vAcc>0.669553</vAcc></extensions></trkpt>
      <trkpt lon="-3.155089" lat="53.018820"><ele>374.041870</ele><time>2021-09-01T10:25:14Z</time><extensions><speed>0.804026</speed><course>315.791901</course><hAcc>0.873709</hAcc><vAcc>0.668880</vAcc></extensions></trkpt>
      <trkpt lon="-3.155081" lat="53.018826"><ele>374.100189</ele><time>2021-09-01T10:25:15Z</time><extensions><speed>0.817518</speed><course>315.791901</course><hAcc>0.873452</hAcc><vAcc>0.668047</vAcc></extensions></trkpt>
      <trkpt lon="-3.155073" lat="53.018831"><ele>374.168365</ele><time>2021-09-01T10:25:16Z</time><extensions><speed>0.829062</speed><course>315.791901</course><hAcc>0.873130</hAcc><vAcc>0.667049</vAcc></extensions></trkpt>
      <trkpt lon="-3.155064" lat="53.018837"><ele>374.246948</ele><time>2021-09-01T10:25:17Z</time><extensions><speed>0.837760</speed><course>315.791901</course><hAcc>0.872733</hAcc><vAcc>0.665864</vAcc></extensions></trkpt>
      <trkpt lon="-3.155056" lat="53.018842"><ele>374.336517</ele><time>2021-09-01T10:25:18Z</time><extensions><speed>0.842698</speed><course>324.368835</course><hAcc>0.872246</hAcc><vAcc>0.664447</vAcc></extensions></trkpt>
      <trkpt lon="-3.155047" lat="53.018847"><ele>374.437408</ele><time>2021-09-01T10:25:20Z</time><extensions><speed>0.843172</speed><course>336.936340</course><hAcc>0.871628</hAcc><vAcc>0.662712</vAcc></extensions></trkpt>
      <trkpt lon="-3.155038" lat="53.018853"><ele>374.549286</ele><time>2021-09-01T10:25:21Z</time><extensions><speed>0.838486</speed><course>334.067902</course><hAcc>0.870853</hAcc><vAcc>0.660566</vAcc></extensions></trkpt>
      <trkpt lon="-3.155028" lat="53.018858"><ele>374.671814</ele><time>2021-09-01T10:25:22Z</time><extensions><speed>0.828367</speed><course>335.500000</course><hAcc>0.869910</hAcc><vAcc>0.657919</vAcc></extensions></trkpt>
      <trkpt lon="-3.155019" lat="53.018863"><ele>374.804260</ele><time>2021-09-01T10:25:23Z</time><extensions><speed>0.813912</speed><course>331.822205</course><hAcc>0.868777</hAcc><vAcc>0.654674</vAcc></extensions></trkpt>
      <trkpt lon="-3.155010" lat="53.018867"><ele>374.945618</ele><time>2021-09-01T10:25:23Z</time><extensions><speed>0.796613</speed><course>332.566284</course><hAcc>0.867456</hAcc><vAcc>0.650773</vAcc></extensions></trkpt>
      <trkpt lon="-3.155002" lat="53.018872"><ele>375.095032</ele><time>2021-09-01T10:25:24Z</time><extensions><speed>0.778038</speed><course>322.442413</course><hAcc>0.865944</hAcc><vAcc>0.646170</vAcc></extensions></trkpt>
      <trkpt lon="-3.154993" lat="53.018877"><ele>375.251007</ele><time>2021-09-01T10:25:25Z</time><extensions><speed>0.760109</speed><course>328.923309</course><hAcc>0.864240</hAcc><vAcc>0.640883</vAcc></extensions></trkpt>
      <trkpt lon="-3.154984" lat="53.018881"><ele>375.411865</ele><time>2021-09-01T10:25:26Z</time><extensions><speed>0.743173</speed><course>332.979462</course><hAcc>0.862386</hAcc><vAcc>0.635026</vAcc></extensions></trkpt>
      <trkpt lon="-3.154976" lat="53.018885"><ele>375.575745</ele><time>2021-09-01T10:25:27Z</time><extensions><speed>0.726718</speed><course>326.583588</course><hAcc>0.860447</hAcc><vAcc>0.628803</vAcc></extensions></trkpt>
      <trkpt lon="-3.154968" lat="53.018889"><ele>375.740540</ele><time>2021-09-01T10:25:28Z</time><extensions><speed>0.710549</speed><course>333.004852</course><hAcc>0.858501</hAcc><vAcc>0.622470</vAcc></extensions></trkpt>
      <trkpt lon="-3.154960" lat="53.018893"><ele>375.904114</ele><time>2021-09-01T10:25:29Z</time><extensions><speed>0.694843</speed><course>328.891602</course><hAcc>0.856631</hAcc><vAcc>0.616292</vAcc></extensions></trkpt>
      <trkpt lon="-3.154952" lat="53.018897"><ele>376.064636</ele><time>2021-09-01T10:25:30Z</time><extensions><speed>0.679781</speed><course>329.156494</course><hAcc>0.854912</hAcc><vAcc>0.610519</vAcc></extensions></trkpt>
      <trkpt lon="-3.154944" lat="53.018901"><ele>376.220764</ele><time>2021-09-01T10:25:31Z</time><extensions><speed>0.665381</speed><course>329.450256</course><hAcc>0.853411</hAcc><vAcc>0.605357</vAcc></extensions></trkpt>
      <trkpt lon="-3.154937" lat="53.018905"><ele>376.371399</ele><time>2021-09-01T10:25:32Z</time><extensions><speed>0.651333</speed><course>329.886902</course><hAcc>0.852167</hAcc><vAcc>0.600925</vAcc></extensions></trkpt>
      <trkpt lon="-3.154929" lat="53.018909"><ele>376.515472</ele><time>2021-09-01T10:25:33Z</time><extensions><speed>0.636961</speed><course>332.708923</course><hAcc>0.851199</hAcc><vAcc>0.597255</vAcc></extensions></trkpt>
      <trkpt lon="-3.154922" lat="53.018912"><ele>376.652191</ele><time>2021-09-01T10:25:34Z</time><extensions><speed>0.621648</speed><course>337.086456</course><hAcc>0.850514</hAcc><vAcc>0.594325</vAcc></extensions></trkpt>
      <trkpt lon="-3.154915" lat="53.018916"><ele>376.781006</ele><time>2021-09-01T10:25:35Z</time><extensions><speed>0.604229</speed><course>335.947693</course><hAcc>0.850119</hAcc><vAcc>0.592089</vAcc></extensions></trkpt>
      <trkpt lon="-3.154908" lat="53.018919"><ele>376.901703</ele><time>2021-09-01T10:25:36Z</time><extensions><speed>0.583160</speed><course>332.293579</course><hAcc>0.850019</hAcc><vAcc>0.590467</vAcc></extensions></trkpt>
      <trkpt lon="-3.154902" lat="53.018922"><ele>377.014160</ele><time>2021-09-01T10:25:37Z</time><extensions><speed>0.558201</speed><course>330.673279</course><hAcc>0.850218</hAcc><vAcc>0.589331</vAcc></extensions></trkpt>
      <trkpt lon="-3.154895" lat="53.018926"><ele>377.118500</ele><time>2021-09-01T10:25:38Z</time><extensions><speed>0.530529</speed><course>325.868774</course><hAcc>0.850713</hAcc><vAcc>0.588504</vAcc></extensions></trkpt>
      <trkpt lon="-3.154890" lat="53.018929"><ele>377.214600</ele><time>2021-09-01T10:25:39Z</time><extensions><speed>0.500993</speed><course>320.652771</course><hAcc>0.851508</hAcc><vAcc>0.587799</vAcc></extensions></trkpt>
      <trkpt lon="-3.154884" lat="53.018931"><ele>377.302460</ele><time>2021-09-01T10:25:40Z</time><extensions><speed>0.470148</speed><course>317.759430</course><hAcc>0.852619</hAcc><vAcc>0.587089</vAcc></extensions></trkpt>
      <trkpt lon="-3.154879" lat="53.018934"><ele>377.382080</ele><time>2021-09-01T10:25:41Z</time><extensions><speed>0.438786</speed><course>312.631989</course><hAcc>0.854070</hAcc><vAcc>0.586353</vAcc></extensions></trkpt>
      <trkpt lon="-3.154874" lat="53.018936"><ele>377.453766</ele><time>2021-09-01T10:25:42Z</time><extensions><speed>0.407847</speed><course>318.114197</course><hAcc>0.855869</hAcc><vAcc>0.585648</vAcc></extensions></trkpt>
      <trkpt lon="-3.154869" lat="53.018938"><ele>377.517944</ele><time>2021-09-01T10:25:43Z</time><extensions><speed>0.379009</speed><course>324.507172</course><hAcc>0.857975</hAcc><vAcc>0.585059</vAcc></extensions></trkpt>
      <trkpt lon="-3.154865" lat="53.018940"><ele>377.575409</ele><time>2021-09-01T10:25:44Z</time><extensions><speed>0.354389</speed><course>327.082703</course><hAcc>0.860287</hAcc><vAcc>0.584657</vAcc></extensions></trkpt>
      <trkpt lon="-3.154861" lat="53.018942"><ele>377.627106</ele><time>2021-09-01T10:25:45Z</time><extensions><speed>0.335027</speed><course>329.958954</course><hAcc>0.862635</hAcc><vAcc>0.584483</vAcc></extensions></trkpt>
      <trkpt lon="-3.154857" lat="53.018944"><ele>377.674133</ele><time>2021-09-01T10:25:46Z</time><extensions><speed>0.321267</speed><course>328.035645</course><hAcc>0.864806</hAcc><vAcc>0.584547</vAcc></extensions></trkpt>
      <trkpt lon="-3.154853" lat="53.018946"><ele>377.717590</ele><time>2021-09-01T10:25:47Z</time><extensions><speed>0.312979</speed><course>327.514526</course><hAcc>0.866581</hAcc><vAcc>0.584840</vAcc></extensions></trkpt>
      <trkpt lon="-3.154850" lat="53.018948"><ele>377.758545</ele><time>2021-09-01T10:25:48Z</time><extensions><speed>0.309482</speed><course>320.027710</course><hAcc>0.867807</hAcc><vAcc>0.585358</vAcc></extensions></trkpt>
      <trkpt lon="-3.154846" lat="53.018949"><ele>377.797974</ele><time>2021-09-01T10:25:49Z</time><extensions><speed>0.310078</speed><course>323.596710</course><hAcc>0.868439</hAcc><vAcc>0.586110</vAcc></extensions></trkpt>
      <trkpt lon="-3.154842" lat="53.018951"><ele>377.836853</ele><time>2021-09-01T10:25:50Z</time><extensions><speed>0.314112</speed><course>326.277405</course><hAcc>0.868540</hAcc><vAcc>0.587118</vAcc></extensions></trkpt>
      <trkpt lon="-3.154839" lat="53.018953"><ele>377.875977</ele><time>2021-09-01T10:25:51Z</time><extensions><speed>0.320708</speed><course>327.083344</course><hAcc>0.868243</hAcc><vAcc>0.588420</vAcc></extensions></trkpt>
      <trkpt lon="-3.154835" lat="53.018955"><ele>377.915833</ele><time>2021-09-01T10:25:52Z</time><extensions><speed>0.328701</speed><course>330.723541</course><hAcc>0.867715</hAcc><vAcc>0.590077</vAcc></extensions></trkpt>
      <trkpt lon="-3.154831" lat="53.018957"><ele>377.956421</ele><time>2021-09-01T10:25:53Z</time><extensions><speed>0.336908</speed><course>328.902985</course><hAcc>0.867099</hAcc><vAcc>0.592160</vAcc></extensions></trkpt>
      <trkpt lon="-3.154827" lat="53.018959"><ele>377.997314</ele><time>2021-09-01T10:25:54Z</time><extensions><speed>0.344352</speed><course>325.540680</course><hAcc>0.866476</hAcc><vAcc>0.594739</vAcc></extensions></trkpt>
      <trkpt lon="-3.154823" lat="53.018960"><ele>378.038116</ele><time>2021-09-01T10:25:55Z</time><extensions><speed>0.350191</speed><course>326.969879</course><hAcc>0.865886</hAcc><vAcc>0.597880</vAcc></extensions></trkpt>
      <trkpt lon="-3.154819" lat="53.018962"><ele>378.078522</ele><time>2021-09-01T10:25:56Z</time><extensions><speed>0.353532</speed><course>320.316467</course><hAcc>0.865358</hAcc><vAcc>0.601627</vAcc></extensions></trkpt>
      <trkpt lon="-3.154814" lat="53.018964"><ele>378.118286</ele><time>2021-09-01T10:25:57Z</time><extensions><speed>0.353926</speed><course>319.871765</course><hAcc>0.864921</hAcc><vAcc>0.605976</vAcc></extensions></trkpt>
      <trkpt lon="-3.154810" lat="53.018966"><ele>378.157684</ele><time>2021-09-01T10:25:58Z</time><extensions><speed>0.351308</speed><course>316.990692</course><hAcc>0.864608</hAcc><vAcc>0.610853</vAcc></extensions></trkpt>
      <trkpt lon="-3.154805" lat="53.018967"><ele>378.197754</ele><time>2021-09-01T10:25:59Z</time><extensions><speed>0.345860</speed><course>317.272278</course><hAcc>0.864446</hAcc><vAcc>0.616101</vAcc></extensions></trkpt>
      <trkpt lon="-3.154800" lat="53.018968"><ele>378.240021</ele><time>2021-09-01T10:26:00Z</time><extensions><speed>0.337632</speed><course>317.305878</course><hAcc>0.864455</hAcc><vAcc>0.621513</vAcc></extensions></trkpt>
      <trkpt lon="-3.154796" lat="53.018969"><ele>378.285980</ele><time>2021-09-01T10:26:01Z</time><extensions><speed>0.327005</speed><course>319.626617</course><hAcc>0.864653</hAcc><vAcc>0.626882</vAcc></extensions></trkpt>
      <trkpt lon="-3.154791" lat="53.018970"><ele>378.337372</ele><time>2021-09-01T10:26:02Z</time><extensions><speed>0.314937</speed><course>316.946777</course><hAcc>0.865034</hAcc><vAcc>0.632027</vAcc></extensions></trkpt>
      <trkpt lon="-3.154786" lat="53.018970"><ele>378.395508</ele><time>2021-09-01T10:26:03Z</time><extensions><speed>0.301132</speed><course>316.848175</course><hAcc>0.865563</hAcc><vAcc>0.636799</vAcc></extensions></trkpt>
      <trkpt lon="-3.154782" lat="53.018970"><ele>378.461273</ele><time>2021-09-01T10:26:04Z</time><extensions><speed>0.284160</speed><course>306.129730</course><hAcc>0.866195</hAcc><vAcc>0.641105</vAcc></extensions></trkpt>
      <trkpt lon="-3.154778" lat="53.018970"><ele>378.534973</ele><time>2021-09-01T10:26:05Z</time><extensions><speed>0.264443</speed><course>311.287872</course><hAcc>0.866884</hAcc><vAcc>0.644903</vAcc></extensions></trkpt>
      <trkpt lon="-3.154774" lat="53.018970"><ele>378.616364</ele><time>2021-09-01T10:26:06Z</time><extensions><speed>0.244158</speed><course>316.150696</course><hAcc>0.867589</hAcc><vAcc>0.648198</vAcc></extensions></trkpt>
      <trkpt lon="-3.154771" lat="53.018969"><ele>378.704773</ele><time>2021-09-01T10:26:07Z</time><extensions><speed>0.225526</speed><course>319.589172</course><hAcc>0.868283</hAcc><vAcc>0.651033</vAcc></extensions></trkpt>
      <trkpt lon="-3.154768" lat="53.018968"><ele>378.799286</ele><time>2021-09-01T10:26:08Z</time><extensions><speed>0.210687</speed><course>317.826752</course><hAcc>0.868950</hAcc><vAcc>0.653479</vAcc></extensions></trkpt>
      <trkpt lon="-3.154766" lat="53.018967"><ele>378.898865</ele><time>2021-09-01T10:26:09Z</time><extensions><speed>0.201000</speed><course>316.582428</course><hAcc>0.869585</hAcc><vAcc>0.655628</vAcc></extensions></trkpt>
      <trkpt lon="-3.154764" lat="53.018965"><ele>379.002411</ele><time>2021-09-01T10:26:10Z</time><extensions><speed>0.196405</speed><course>322.533203</course><hAcc>0.870194</hAcc><vAcc>0.657570</vAcc></extensions></trkpt>
      <trkpt lon="-3.154762" lat="53.018964"><ele>379.108734</ele><time>2021-09-01T10:26:11Z</time><extensions><speed>0.195455</speed><course>322.533203</course><hAcc>0.870788</hAcc><vAcc>0.659403</vAcc></extensions></trkpt>
      <trkpt lon="-3.154761" lat="53.018962"><ele>379.216553</ele><time>2021-09-01T10:26:12Z</time><extensions><speed>0.196210</speed><course>322.533203</course><hAcc>0.871383</hAcc><vAcc>0.661229</vAcc></extensions></trkpt>
      <trkpt lon="-3.154760" lat="53.018961"><ele>379.324554</ele><time>2021-09-01T10:26:13Z</time><extensions><speed>0.196873</speed><course>322.533203</course><hAcc>0.871996</hAcc><vAcc>0.663134</vAcc></extensions></trkpt>
      <trkpt lon="-3.154759" lat="53.018959"><ele>379.431458</ele><time>2021-09-01T10:26:14Z</time><extensions><speed>0.196764</speed><course>322.533203</course><hAcc>0.872640</hAcc><vAcc>0.665175</vAcc></extensions></trkpt>
      <trkpt lon="-3.154759" lat="53.018957"><ele>379.536285</ele><time>2021-09-01T10:26:15Z</time><extensions><speed>0.196152</speed><course>310.635162</course><hAcc>0.873319</hAcc><vAcc>0.667379</vAcc></extensions></trkpt>
      <trkpt lon="-3.154758" lat="53.018956"><ele>379.638184</ele><time>2021-09-01T10:26:16Z</time><extensions><speed>0.194870</speed><course>317.610291</course><hAcc>0.874031</hAcc><vAcc>0.669727</vAcc></extensions></trkpt>
      <trkpt lon="-3.154758" lat="53.018954"><ele>379.736450</ele><time>2021-09-01T10:26:17Z</time><extensions><speed>0.192810</speed><course>306.125671</course><hAcc>0.874761</hAcc><vAcc>0.672158</vAcc></extensions></trkpt>
      <trkpt lon="-3.154757" lat="53.018952"><ele>379.830383</ele><time>2021-09-01T10:26:18Z</time><extensions><speed>0.190265</speed><course>318.134308</course><hAcc>0.875489</hAcc><vAcc>0.674585</vAcc></extensions></trkpt>
      <trkpt lon="-3.154757" lat="53.018950"><ele>379.919434</ele><time>2021-09-01T10:26:19Z</time><extensions><speed>0.187557</speed><course>310.926819</course><hAcc>0.876192</hAcc><vAcc>0.676925</vAcc></extensions></trkpt>
      <trkpt lon="-3.154756" lat="53.018949"><ele>380.003326</ele><time>2021-09-01T10:26:20Z</time><extensions><speed>0.184897</speed><course>312.939606</course><hAcc>0.876850</hAcc><vAcc>0.679113</vAcc></extensions></trkpt>
      <trkpt lon="-3.154756" lat="53.018947"><ele>380.082245</ele><time>2021-09-01T10:26:21Z</time><extensions><speed>0.182704</speed><course>305.606995</course><hAcc>0.877445</hAcc><vAcc>0.681094</vAcc></extensions></trkpt>
      <trkpt lon="-3.154755" lat="53.018946"><ele>380.157013</ele><time>2021-09-01T10:26:22Z</time><extensions><speed>0.181820</speed><course>302.541321</course><hAcc>0.877959</hAcc><vAcc>0.682815</vAcc></extensions></trkpt>
      <trkpt lon="-3.154754" lat="53.018944"><ele>380.228729</ele><time>2021-09-01T10:26:23Z</time><extensions><speed>0.182949</speed><course>303.802917</course><hAcc>0.878379</hAcc><vAcc>0.684220</vAcc></extensions></trkpt>
      <trkpt lon="-3.154754" lat="53.018942"><ele>380.298737</ele><time>2021-09-01T10:26:24Z</time><extensions><speed>0.186315</speed><course>300.395538</course><hAcc>0.878692</hAcc><vAcc>0.685259</vAcc></extensions></trkpt>
      <trkpt lon="-3.154753" lat="53.018941"><ele>380.368439</ele><time>2021-09-01T10:26:25Z</time><extensions><speed>0.191587</speed><course>303.076660</course><hAcc>0.878894</hAcc><vAcc>0.685893</vAcc></extensions></trkpt>
      <trkpt lon="-3.154752" lat="53.018939"><ele>380.439240</ele><time>2021-09-01T10:26:26Z</time><extensions><speed>0.198004</speed><course>301.521118</course><hAcc>0.878983</hAcc><vAcc>0.686114</vAcc></extensions></trkpt>
      <trkpt lon="-3.154751" lat="53.018937"><ele>380.512268</ele><time>2021-09-01T10:26:27Z</time><extensions><speed>0.204499</speed><course>315.953857</course><hAcc>0.878967</hAcc><vAcc>0.685944</vAcc></extensions></trkpt>
      <trkpt lon="-3.154750" lat="53.018936"><ele>380.588531</ele><time>2021-09-01T10:26:28Z</time><extensions><speed>0.210036</speed><course>321.613922</course><hAcc>0.878858</hAcc><vAcc>0.685435</vAcc></extensions></trkpt>
      <trkpt lon="-3.154748" lat="53.018934"><ele>380.668640</ele><time>2021-09-01T10:26:29Z</time><extensions><speed>0.213927</speed><course>320.530426</course><hAcc>0.878673</hAcc><vAcc>0.684670</vAcc></extensions></trkpt>
      <trkpt lon="-3.154747" lat="53.018932"><ele>380.752869</ele><time>2021-09-01T10:26:30Z</time><extensions><speed>0.215402</speed><course>319.105469</course><hAcc>0.878433</hAcc><vAcc>0.683741</vAcc></extensions></trkpt>
      <trkpt lon="-3.154745" lat="53.018931"><ele>380.841034</ele><time>2021-09-01T10:26:31Z</time><extensions><speed>0.213570</speed><course>320.005280</course><hAcc>0.878160</hAcc><vAcc>0.682741</vAcc></extensions></trkpt>
      <trkpt lon="-3.154744" lat="53.018929"><ele>380.932556</ele><time>2021-09-01T10:26:32Z</time><extensions><speed>0.208033</speed><course>320.540527</course><hAcc>0.877872</hAcc><vAcc>0.681736</vAcc></extensions></trkpt>
      <trkpt lon="-3.154742" lat="53.018927"><ele>381.026672</ele><time>2021-09-01T10:26:33Z</time><extensions><speed>0.199007</speed><course>316.635681</course><hAcc>0.877583</hAcc><vAcc>0.680766</vAcc></extensions></trkpt>
      <trkpt lon="-3.154740" lat="53.018926"><ele>381.122223</ele><time>2021-09-01T10:26:34Z</time><extensions><speed>0.187166</speed><course>319.322998</course><hAcc>0.877306</hAcc><vAcc>0.679845</vAcc></extensions></trkpt>
      <trkpt lon="-3.154738" lat="53.018925"><ele>381.217804</ele><time>2021-09-01T10:26:35Z</time><extensions><speed>0.173355</speed><course>319.244141</course><hAcc>0.877050</hAcc><vAcc>0.678987</vAcc></extensions></trkpt>
      <trkpt lon="-3.154737" lat="53.018924"><ele>381.311859</ele><time>2021-09-01T10:26:36Z</time><extensions><speed>0.158251</speed><course>315.425568</course><hAcc>0.876826</hAcc><vAcc>0.678219</vAcc></extensions></trkpt>
      <trkpt lon="-3.154735" lat="53.018923"><ele>381.402863</ele><time>2021-09-01T10:26:37Z</time><extensions><speed>0.142838</speed><course>318.059448</course><hAcc>0.876643</hAcc><vAcc>0.677577</vAcc></extensions></trkpt>
      <trkpt lon="-3.154733" lat="53.018922"><ele>381.489624</ele><time>2021-09-01T10:26:38Z</time><extensions><speed>0.128577</speed><course>318.243683</course><hAcc>0.876512</hAcc><vAcc>0.677107</vAcc></extensions></trkpt>
      <trkpt lon="-3.154731" lat="53.018922"><ele>381.571350</ele><time>2021-09-01T10:26:39Z</time><extensions><speed>0.116538</speed><course>319.840027</course><hAcc>0.876438</hAcc><vAcc>0.676852</vAcc></extensions></trkpt>
      <trkpt lon="-3.154730" lat="53.018922"><ele>381.647552</ele><time>2021-09-01T10:26:40Z</time><extensions><speed>0.107340</speed><course>320.630524</course><hAcc>0.876424</hAcc><vAcc>0.676844</vAcc></extensions></trkpt>
      <trkpt lon="-3.154728" lat="53.018922"><ele>381.718018</ele><time>2021-09-01T10:26:41Z</time><extensions><speed>0.101286</speed><course>318.435181</course><hAcc>0.876462</hAcc><vAcc>0.677088</vAcc></extensions></trkpt>
      <trkpt lon="-3.154727" lat="53.018922"><ele>381.782593</ele><time>2021-09-01T10:26:42Z</time><extensions><speed>0.097973</speed><course>313.959320</course><hAcc>0.876539</hAcc><vAcc>0.677548</vAcc></extensions></trkpt>
      <trkpt lon="-3.154725" lat="53.018922"><ele>381.841278</ele><time>2021-09-01T10:26:43Z</time><extensions><speed>0.096788</speed><course>314.005951</course><hAcc>0.876627</hAcc><vAcc>0.678128</vAcc></extensions></trkpt>
      <trkpt lon="-3.154724" lat="53.018922"><ele>381.894073</ele><time>2021-09-01T10:26:44Z</time><extensions><speed>0.097086</speed><course>315.776367</course><hAcc>0.876689</hAcc><vAcc>0.678680</vAcc></extensions></trkpt>
      <trkpt lon="-3.154723" lat="53.018923"><ele>381.940948</ele><time>2021-09-01T10:26:45Z</time><extensions><speed>0.098102</speed><course>317.643280</course><hAcc>0.876683</hAcc><vAcc>0.679021</vAcc></extensions></trkpt>
      <trkpt lon="-3.154722" lat="53.018924"><ele>381.981842</ele><time>2021-09-01T10:26:46Z</time><extensions><speed>0.099546</speed><course>316.187012</course><hAcc>0.876567</hAcc><vAcc>0.678964</vAcc></extensions></trkpt>
      <trkpt lon="-3.154721" lat="53.018924"><ele>382.016815</ele><time>2021-09-01T10:26:47Z</time><extensions><speed>0.101620</speed><course>313.238525</course><hAcc>0.876307</hAcc><vAcc>0.678368</vAcc></extensions></trkpt>
      <trkpt lon="-3.154720" lat="53.018925"><ele>382.045959</ele><time>2021-09-01T10:26:48Z</time><extensions><speed>0.104530</speed><course>309.102142</course><hAcc>0.875880</hAcc><vAcc>0.677155</vAcc></extensions></trkpt>
      <trkpt lon="-3.154719" lat="53.018926"><ele>382.069183</ele><time>2021-09-01T10:26:49Z</time><extensions><speed>0.108081</speed><course>313.839325</course><hAcc>0.875278</hAcc><vAcc>0.675301</vAcc></extensions></trkpt>
      <trkpt lon="-3.154718" lat="53.018926"><ele>382.086548</ele><time>2021-09-01T10:26:50Z</time><extensions><speed>0.111914</speed><course>315.040405</course><hAcc>0.874507</hAcc><vAcc>0.672836</vAcc></extensions></trkpt>
      <trkpt lon="-3.154717" lat="53.018927"><ele>382.098114</ele><time>2021-09-01T10:26:51Z</time><extensions><speed>0.115688</speed><course>315.010925</course><hAcc>0.873589</hAcc><vAcc>0.669833</vAcc></extensions></trkpt>
      <trkpt lon="-3.154716" lat="53.018928"><ele>382.103973</ele><time>2021-09-01T10:26:52Z</time><extensions><speed>0.119062</speed><course>312.357758</course><hAcc>0.872558</hAcc><vAcc>0.666413</vAcc></extensions></trkpt>
      <trkpt lon="-3.154715" lat="53.018929"><ele>382.104401</ele><time>2021-09-01T10:26:53Z</time><extensions><speed>0.121904</speed><course>316.888885</course><hAcc>0.871465</hAcc><vAcc>0.662734</vAcc></extensions></trkpt>
      <trkpt lon="-3.154714" lat="53.018930"><ele>382.099762</ele><time>2021-09-01T10:26:54Z</time><extensions><speed>0.123980</speed><course>320.096283</course><hAcc>0.870371</hAcc><vAcc>0.658983</vAcc></extensions></trkpt>
      <trkpt lon="-3.154713" lat="53.018931"><ele>382.090546</ele><time>2021-09-01T10:26:55Z</time><extensions><speed>0.124929</speed><course>330.452972</course><hAcc>0.869344</hAcc><vAcc>0.655364</vAcc></extensions></trkpt>
      <trkpt lon="-3.154712" lat="53.018932"><ele>382.077332</ele><time>2021-09-01T10:26:56Z</time><extensions><speed>0.124387</speed><course>325.892334</course><hAcc>0.868457</hAcc><vAcc>0.652065</vAcc></extensions></trkpt>
      <trkpt lon="-3.154711" lat="53.018933"><ele>382.060669</ele><time>2021-09-01T10:26:57Z</time><extensions><speed>0.122346</speed><course>323.150330</course><hAcc>0.867766</hAcc><vAcc>0.649196</vAcc></extensions></trkpt>
      <trkpt lon="-3.154710" lat="53.018934"><ele>382.041138</ele><time>2021-09-01T10:26:58Z</time><extensions><speed>0.118999</speed><course>318.355499</course><hAcc>0.867302</hAcc><vAcc>0.646726</vAcc></extensions></trkpt>
      <trkpt lon="-3.154709" lat="53.018935"><ele>382.019318</ele><time>2021-09-01T10:26:59Z</time><extensions><speed>0.114537</speed><course>319.900726</course><hAcc>0.867067</hAcc><vAcc>0.644482</vAcc></extensions></trkpt>
      <trkpt lon="-3.154709" lat="53.018936"><ele>381.996063</ele><time>2021-09-01T10:27:00Z</time><extensions><speed>0.109519</speed><course>327.705719</course><hAcc>0.867047</hAcc><vAcc>0.642193</vAcc></extensions></trkpt>
      <trkpt lon="-3.154708" lat="53.018937"><ele>381.972076</ele><time>2021-09-01T10:27:01Z</time><extensions><speed>0.104858</speed><course>325.864380</course><hAcc>0.867212</hAcc><vAcc>0.639529</vAcc></extensions></trkpt>
      <trkpt lon="-3.154708" lat="53.018938"><ele>381.947876</ele><time>2021-09-01T10:27:02Z</time><extensions><speed>0.100824</speed><course>316.016541</course><hAcc>0.867524</hAcc><vAcc>0.636162</vAcc></extensions></trkpt>
      <trkpt lon="-3.154708" lat="53.018938"><ele>381.923737</ele><time>2021-09-01T10:27:03Z</time><extensions><speed>0.096850</speed><course>317.886536</course><hAcc>0.867941</hAcc><vAcc>0.631864</vAcc></extensions></trkpt>
      <trkpt lon="-3.154708" lat="53.018939"><ele>381.899902</ele><time>2021-09-01T10:27:04Z</time><extensions><speed>0.092143</speed><course>327.267029</course><hAcc>0.868420</hAcc><vAcc>0.626611</vAcc></extensions></trkpt>
      <trkpt lon="-3.154708" lat="53.018940"><ele>381.876831</ele><time>2021-09-01T10:27:05Z</time><extensions><speed>0.086088</speed><course>326.251373</course><hAcc>0.868902</hAcc><vAcc>0.620655</vAcc></extensions></trkpt>
      <trkpt lon="-3.154708" lat="53.018941"><ele>381.854858</ele><time>2021-09-01T10:27:06Z</time><extensions><speed>0.078507</speed><course>330.160339</course><hAcc>0.869289</hAcc><vAcc>0.614529</vAcc></extensions></trkpt>
      <trkpt lon="-3.154708" lat="53.018941"><ele>381.834412</ele><time>2021-09-01T10:27:07Z</time><extensions><speed>0.069212</speed><course>329.350830</course><hAcc>0.869424</hAcc><vAcc>0.608916</vAcc></extensions></trkpt>
      <trkpt lon="-3.154708" lat="53.018942"><ele>381.815857</ele><time>2021-09-01T10:27:08Z</time><extensions><speed>0.057581</speed><course>328.046906</course><hAcc>0.869139</hAcc><vAcc>0.604425</vAcc></extensions></trkpt>
      <trkpt lon="-3.154708" lat="53.018943"><ele>381.799500</ele><time>2021-09-01T10:27:09Z</time><extensions><speed>0.042652</speed><course>328.036682</course><hAcc>0.868399</hAcc><vAcc>0.601456</vAcc></extensions></trkpt>
      <trkpt lon="-3.154708" lat="53.018943"><ele>381.785583</ele><time>2021-09-01T10:27:10Z</time><extensions><speed>0.024311</speed><course>328.321899</course><hAcc>0.867324</hAcc><vAcc>0.600183</vAcc></extensions></trkpt>
      <trkpt lon="-3.154708" lat="53.018943"><ele>381.774109</ele><time>2021-09-01T10:27:12Z</time><extensions><speed>0.004826</speed><course>326.366882</course><hAcc>0.866072</hAcc><vAcc>0.600581</vAcc></extensions></trkpt>
      <trkpt lon="-3.154708" lat="53.018943"><ele>381.765167</ele><time>2021-09-01T10:27:13Z</time><extensions><speed>0.017014</speed><course>331.362152</course><hAcc>0.864857</hAcc><vAcc>0.602449</vAcc></extensions></trkpt>
      <trkpt lon="-3.154708" lat="53.018943"><ele>381.758850</ele><time>2021-09-01T10:27:14Z</time><extensions><speed>0.033894</speed><course>329.394318</course><hAcc>0.863918</hAcc><vAcc>0.605406</vAcc></extensions></trkpt>
      <trkpt lon="-3.154708" lat="53.018942"><ele>381.755310</ele><time>2021-09-01T10:27:15Z</time><extensions><speed>0.046926</speed><course>332.464355</course><hAcc>0.863402</hAcc><vAcc>0.608956</vAcc></extensions></trkpt>
      <trkpt lon="-3.154708" lat="53.018942"><ele>381.754639</ele><time>2021-09-01T10:27:16Z</time><extensions><speed>0.057258</speed><course>335.973755</course><hAcc>0.863372</hAcc><vAcc>0.612672</vAcc></extensions></trkpt>
      <trkpt lon="-3.154708" lat="53.018941"><ele>381.756805</ele><time>2021-09-01T10:27:17Z</time><extensions><speed>0.066035</speed><course>334.588074</course><hAcc>0.863849</hAcc><vAcc>0.616337</vAcc></extensions></trkpt>
      <trkpt lon="-3.154708" lat="53.018941"><ele>381.762085</ele><time>2021-09-01T10:27:18Z</time><extensions><speed>0.074142</speed><course>337.558624</course><hAcc>0.864842</hAcc><vAcc>0.619993</vAcc></extensions></trkpt>
      <trkpt lon="-3.154707" lat="53.018940"><ele>381.770782</ele><time>2021-09-01T10:27:19Z</time><extensions><speed>0.081946</speed><course>337.377197</course><hAcc>0.866344</hAcc><vAcc>0.623884</vAcc></extensions></trkpt>
      <trkpt lon="-3.154707" lat="53.018939"><ele>381.783356</ele><time>2021-09-01T10:27:19Z</time><extensions><speed>0.089436</speed><course>334.236908</course><hAcc>0.868323</hAcc><vAcc>0.628327</vAcc></extensions></trkpt>
      <trkpt lon="-3.154706" lat="53.018939"><ele>381.800079</ele><time>2021-09-01T10:27:20Z</time><extensions><speed>0.096656</speed><course>333.116516</course><hAcc>0.870675</hAcc><vAcc>0.633525</vAcc></extensions></trkpt>
      <trkpt lon="-3.154706" lat="53.018938"><ele>381.821014</ele><time>2021-09-01T10:27:21Z</time><extensions><speed>0.103360</speed><course>331.193451</course><hAcc>0.873207</hAcc><vAcc>0.639410</vAcc></extensions></trkpt>
      <trkpt lon="-3.154705" lat="53.018937"><ele>381.846252</ele><time>2021-09-01T10:27:22Z</time><extensions><speed>0.108948</speed><course>327.071960</course><hAcc>0.875717</hAcc><vAcc>0.645687</vAcc></extensions></trkpt>
      <trkpt lon="-3.154704" lat="53.018936"><ele>381.875702</ele><time>2021-09-01T10:27:23Z</time><extensions><speed>0.112337</speed><course>323.969269</course><hAcc>0.878026</hAcc><vAcc>0.651945</vAcc></extensions></trkpt>
      <trkpt lon="-3.154703" lat="53.018935"><ele>381.909119</ele><time>2021-09-01T10:27:24Z</time><extensions><speed>0.112226</speed><course>325.035614</course><hAcc>0.880045</hAcc><vAcc>0.657770</vAcc></extensions></trkpt>
      <trkpt lon="-3.154702" lat="53.018935"><ele>381.946014</ele><time>2021-09-01T10:27:26Z</time><extensions><speed>0.108229</speed><course>325.080109</course><hAcc>0.881742</hAcc><vAcc>0.662781</vAcc></extensions></trkpt>
      <trkpt lon="-3.154701" lat="53.018934"><ele>381.985565</ele><time>2021-09-01T10:27:27Z</time><extensions><speed>0.100530</speed><course>320.596710</course><hAcc>0.883095</hAcc><vAcc>0.666680</vAcc></extensions></trkpt>
      <trkpt lon="-3.154700" lat="53.018933"><ele>382.026825</ele><time>2021-09-01T10:27:27Z</time><extensions><speed>0.089567</speed><course>325.164429</course><hAcc>0.884062</hAcc><vAcc>0.669308</vAcc></extensions></trkpt>
      <trkpt lon="-3.154699" lat="53.018933"><ele>382.068726</ele><time>2021-09-01T10:27:28Z</time><extensions><speed>0.076350</speed><course>323.691345</course><hAcc>0.884545</hAcc><vAcc>0.670590</vAcc></extensions></trkpt>
      <trkpt lon="-3.154698" lat="53.018932"><ele>382.110107</ele><time>2021-09-01T10:27:29Z</time><extensions><speed>0.062203</speed><course>332.829010</course><hAcc>0.884436</hAcc><vAcc>0.670537</vAcc></extensions></trkpt>
      <trkpt lon="-3.154697" lat="53.018932"><ele>382.149841</ele><time>2021-09-01T10:27:30Z</time><extensions><speed>0.048374</speed><course>333.287506</course><hAcc>0.883668</hAcc><vAcc>0.669300</vAcc></extensions></trkpt>
      <trkpt lon="-3.154697" lat="53.018932"><ele>382.187042</ele><time>2021-09-01T10:27:31Z</time><extensions><speed>0.035903</speed><course>320.664337</course><hAcc>0.882253</hAcc><vAcc>0.667156</vAcc></extensions></trkpt>
      <trkpt lon="-3.154696" lat="53.018932"><ele>382.221069</ele><time>2021-09-01T10:27:32Z</time><extensions><speed>0.025279</speed><course>319.581818</course><hAcc>0.880366</hAcc><vAcc>0.664489</vAcc></extensions></trkpt>
      <trkpt lon="-3.154696" lat="53.018932"><ele>382.251526</ele><time>2021-09-01T10:27:33Z</time><extensions><speed>0.016497</speed><course>320.113190</course><hAcc>0.878325</hAcc><vAcc>0.661731</vAcc></extensions></trkpt>
      <trkpt lon="-3.154696" lat="53.018932"><ele>382.278259</ele><time>2021-09-01T10:27:34Z</time><extensions><speed>0.009522</speed><course>325.625488</course><hAcc>0.876454</hAcc><vAcc>0.659264</vAcc></extensions></trkpt>
      <trkpt lon="-3.154696" lat="53.018932"><ele>382.301147</ele><time>2021-09-01T10:27:35Z</time><extensions><speed>0.004567</speed><course>320.008789</course><hAcc>0.874989</hAcc><vAcc>0.657293</vAcc></extensions></trkpt>
      <trkpt lon="-3.154696" lat="53.018932"><ele>382.320404</ele><time>2021-09-01T10:27:36Z</time><extensions><speed>0.003326</speed><course>318.909088</course><hAcc>0.874039</hAcc><vAcc>0.655724</vAcc></extensions></trkpt>
      <trkpt lon="-3.154696" lat="53.018932"><ele>382.336212</ele><time>2021-09-01T10:27:37Z</time><extensions><speed>0.005273</speed><course>323.298828</course><hAcc>0.873594</hAcc><vAcc>0.654181</vAcc></extensions></trkpt>
      <trkpt lon="-3.154696" lat="53.018932"><ele>382.348877</ele><time>2021-09-01T10:27:38Z</time><extensions><speed>0.007146</speed><course>319.843567</course><hAcc>0.873577</hAcc><vAcc>0.652191</vAcc></extensions></trkpt>
      <trkpt lon="-3.154696" lat="53.018932"><ele>382.358765</ele><time>2021-09-01T10:27:39Z</time><extensions><speed>0.008393</speed><course>314.311829</course><hAcc>0.873888</hAcc><vAcc>0.649362</vAcc></extensions></trkpt>
      <trkpt lon="-3.154696" lat="53.018932"><ele>382.366211</ele><time>2021-09-01T10:27:40Z</time><extensions><speed>0.009045</speed><course>319.089264</course><hAcc>0.874418</hAcc><vAcc>0.645467</vAcc></extensions></trkpt>
      <trkpt lon="-3.154696" lat="53.018932"><ele>382.371582</ele><time>2021-09-01T10:27:41Z</time><extensions><speed>0.009209</speed><course>322.114319</course><hAcc>0.875052</hAcc><vAcc>0.640500</vAcc></extensions></trkpt>
      <trkpt lon="-3.154696" lat="53.018932"><ele>382.375214</ele><time>2021-09-01T10:27:42Z</time><extensions><speed>0.008998</speed><course>313.771057</course><hAcc>0.875664</hAcc><vAcc>0.634711</vAcc></extensions></trkpt>
      <trkpt lon="-3.154696" lat="53.018932"><ele>382.377380</ele><time>2021-09-01T10:27:43Z</time><extensions><speed>0.008519</speed><course>306.383820</course><hAcc>0.876126</hAcc><vAcc>0.628607</vAcc></extensions></trkpt>
      <trkpt lon="-3.154696" lat="53.018932"><ele>382.378418</ele><time>2021-09-01T10:27:44Z</time><extensions><speed>0.007867</speed><course>308.594727</course><hAcc>0.876321</hAcc><vAcc>0.622889</vAcc></extensions></trkpt>
      <trkpt lon="-3.154696" lat="53.018932"><ele>382.378540</ele><time>2021-09-01T10:27:45Z</time><extensions><speed>0.007122</speed><course>313.438293</course><hAcc>0.876195</hAcc><vAcc>0.618364</vAcc></extensions></trkpt>
      <trkpt lon="-3.154696" lat="53.018932"><ele>382.378021</ele><time>2021-09-01T10:27:46Z</time><extensions><speed>0.006350</speed><course>315.261749</course><hAcc>0.875910</hAcc><vAcc>0.615878</vAcc></extensions></trkpt>
      <trkpt lon="-3.154696" lat="53.018932"><ele>382.376984</ele><time>2021-09-01T10:27:47Z</time><extensions><speed>0.005599</speed><course>314.962799</course><hAcc>0.876133</hAcc><vAcc>0.616395</vAcc></extensions></trkpt>
      <trkpt lon="-3.154697" lat="53.018932"><ele>382.375641</ele><time>2021-09-01T10:27:48Z</time><extensions><speed>0.004903</speed><course>311.864380</course><hAcc>0.878447</hAcc><vAcc>0.621200</vAcc></extensions></trkpt>
      <trkpt lon="-3.154697" lat="53.018932"><ele>382.374054</ele><time>2021-09-01T10:27:49Z</time><extensions><speed>0.004288</speed><course>305.555115</course><hAcc>0.885813</hAcc><vAcc>0.632207</vAcc></extensions></trkpt>
      <trkpt lon="-3.154697" lat="53.018932"><ele>382.372345</ele><time>2021-09-01T10:27:50Z</time><extensions><speed>0.003769</speed><course>309.414368</course><hAcc>0.902992</hAcc><vAcc>0.652343</vAcc></extensions></trkpt>
      <trkpt lon="-3.154697" lat="53.018932"><ele>382.370575</ele><time>2021-09-01T10:27:51Z</time><extensions><speed>0.003354</speed><course>312.426361</course><hAcc>0.936745</hAcc><vAcc>0.685778</vAcc></extensions></trkpt>
      <trkpt lon="-3.154697" lat="53.018932"><ele>382.361786</ele><time>2021-09-01T10:27:52Z</time><extensions><speed>0.000000</speed><course>-1.000000</course><hAcc>0.901730</hAcc><vAcc>0.654107</vAcc></extensions></trkpt>
      <trkpt lon="-3.154697" lat="53.018932"><ele>382.361786</ele><time>2021-09-01T10:27:53Z</time><extensions><speed>0.000000</speed><course>-1.000000</course><hAcc>0.887558</hAcc><vAcc>0.651989</vAcc></extensions></trkpt>
      <trkpt lon="-3.154697" lat="53.018932"><ele>382.361786</ele><time>2021-09-01T10:27:54Z</time><extensions><speed>0.000000</speed><course>-1.000000</course><hAcc>0.883810</hAcc><vAcc>0.655238</vAcc></extensions></trkpt>
      <trkpt lon="-3.154697" lat="53.018932"><ele>382.361786</ele><time>2021-09-01T10:27:55Z</time><extensions><speed>0.000000</speed><course>-1.000000</course><hAcc>0.884974</hAcc><vAcc>0.660390</vAcc></extensions></trkpt>
      <trkpt lon="-3.154697" lat="53.018932"><ele>382.361786</ele><time>2021-09-01T10:27:56Z</time><extensions><speed>0.000000</speed><course>-1.000000</course><hAcc>0.887723</hAcc><vAcc>0.665486</vAcc></extensions></trkpt>
      <trkpt lon="-3.154697" lat="53.018932"><ele>382.361786</ele><time>2021-09-01T10:27:57Z</time><extensions><speed>0.000000</speed><course>-1.000000</course><hAcc>0.890350</hAcc><vAcc>0.669611</vAcc></extensions></trkpt>
      <trkpt lon="-3.154697" lat="53.018932"><ele>382.361786</ele><time>2021-09-01T10:27:58Z</time><extensions><speed>0.000000</speed><course>-1.000000</course><hAcc>0.892195</hAcc><vAcc>0.672487</vAcc></extensions></trkpt>
      <trkpt lon="-3.154697" lat="53.018932"><ele>382.361786</ele><time>2021-09-01T10:27:59Z</time><extensions><speed>0.000000</speed><course>-1.000000</course><hAcc>0.893189</hAcc><vAcc>0.674191</vAcc></extensions></trkpt>
      <trkpt lon="-3.154697" lat="53.018932"><ele>382.361786</ele><time>2021-09-01T10:28:00Z</time><extensions><speed>0.000000</speed><course>-1.000000</course><hAcc>0.893537</hAcc><vAcc>0.674955</vAcc></extensions></trkpt>
      <trkpt lon="-3.154697" lat="53.018932"><ele>382.361786</ele><time>2021-09-01T10:28:01Z</time><extensions><speed>0.000000</speed><course>184.559082</course><hAcc>0.893503</hAcc><vAcc>0.675034</vAcc></extensions></trkpt>
      <trkpt lon="-3.154697" lat="53.018932"><ele>382.361786</ele><time>2021-09-01T10:28:02Z</time><extensions><speed>0.000000</speed><course>-1.000000</course><hAcc>0.893295</hAcc><vAcc>0.674647</vAcc></extensions></trkpt>
      <trkpt lon="-3.154697" lat="53.018932"><ele>382.361786</ele><time>2021-09-01T10:28:03Z</time><extensions><speed>0.000000</speed><course>-1.000000</course><hAcc>0.893007</hAcc><vAcc>0.673952</vAcc></extensions></trkpt>
      <trkpt lon="-3.154697" lat="53.018932"><ele>382.361786</ele><time>2021-09-01T10:28:04Z</time><extensions><speed>0.000000</speed><course>-1.000000</course><hAcc>0.892622</hAcc><vAcc>0.673068</vAcc></extensions></trkpt>
      <trkpt lon="-3.154697" lat="53.018932"><ele>382.361786</ele><time>2021-09-01T10:28:05Z</time><extensions><speed>0.000000</speed><course>-1.000000</course><hAcc>0.892061</hAcc><vAcc>0.672130</vAcc></extensions></trkpt>
      <trkpt lon="-3.154697" lat="53.018932"><ele>382.361786</ele><time>2021-09-01T10:28:06Z</time><extensions><speed>0.000000</speed><course>53.307610</course><hAcc>0.891306</hAcc><vAcc>0.671399</vAcc></extensions></trkpt>
      <trkpt lon="-3.154697" lat="53.018932"><ele>382.361786</ele><time>2021-09-01T10:28:07Z</time><extensions><speed>0.000000</speed><course>-1.000000</course><hAcc>0.890574</hAcc><vAcc>0.671373</vAcc></extensions></trkpt>
      <trkpt lon="-3.154697" lat="53.018932"><ele>382.361786</ele><time>2021-09-01T10:28:08Z</time><extensions><speed>0.000000</speed><course>-1.000000</course><hAcc>0.890590</hAcc><vAcc>0.672945</vAcc></extensions></trkpt>
      <trkpt lon="-3.154697" lat="53.018932"><ele>382.361786</ele><time>2021-09-01T10:28:09Z</time><extensions><speed>0.000000</speed><course>-1.000000</course><hAcc>0.892954</hAcc><vAcc>0.677608</vAcc></extensions></trkpt>
      <trkpt lon="-3.154697" lat="53.018932"><ele>382.361786</ele><time>2021-09-01T10:28:10Z</time><extensions><speed>0.000000</speed><course>120.394302</course><hAcc>0.900613</hAcc><vAcc>0.687731</vAcc></extensions></trkpt>
      <trkpt lon="-3.154697" lat="53.018932"><ele>382.361786</ele><time>2021-09-01T10:28:11Z</time><extensions><speed>0.000000</speed><course>-1.000000</course><hAcc>0.918314</hAcc><vAcc>0.706816</vAcc></extensions></trkpt>
      <trkpt lon="-3.154697" lat="53.018932"><ele>382.361786</ele><time>2021-09-01T10:28:12Z</time><extensions><speed>0.000000</speed><course>-1.000000</course><hAcc>0.952776</hAcc><vAcc>0.739496</vAcc></extensions></trkpt>
      <trkpt lon="-3.154697" lat="53.018932"><ele>382.361786</ele><time>2021-09-01T10:28:13Z</time><extensions><speed>0.000000</speed><course>-1.000000</course><hAcc>0.914081</hAcc><vAcc>0.703124</vAcc></extensions></trkpt>
      <trkpt lon="-3.154697" lat="53.018932"><ele>382.361786</ele><time>2021-09-01T10:28:14Z</time><extensions><speed>0.000000</speed><course>-1.000000</course><hAcc>0.898053</hAcc><vAcc>0.690202</vAcc></extensions></trkpt>
      <trkpt lon="-3.154697" lat="53.018932"><ele>382.361786</ele><time>2021-09-01T10:28:15Z</time><extensions><speed>0.000000</speed><course>-1.000000</course><hAcc>0.892604</hAcc><vAcc>0.685232</vAcc></extensions></trkpt>
      <trkpt lon="-3.154697" lat="53.018932"><ele>382.361786</ele><time>2021-09-01T10:28:16Z</time><extensions><speed>0.000000</speed><course>-1.000000</course><hAcc>0.892304</hAcc><vAcc>0.684283</vAcc></extensions></trkpt>
      <trkpt lon="-3.154697" lat="53.018932"><ele>382.361786</ele><time>2021-09-01T10:28:17Z</time><extensions><speed>0.000000</speed><course>-1.000000</course><hAcc>0.893849</hAcc><vAcc>0.684881</vAcc></extensions></trkpt>
      <trkpt lon="-3.154697" lat="53.018932"><ele>382.361786</ele><time>2021-09-01T10:28:18Z</time><extensions><speed>0.000000</speed><course>-1.000000</course><hAcc>0.895529</hAcc><vAcc>0.685708</vAcc></extensions></trkpt>
      <trkpt lon="-3.154697" lat="53.018932"><ele>382.361786</ele><time>2021-09-01T10:28:19Z</time><extensions><speed>0.000000</speed><course>-1.000000</course><hAcc>0.896675</hAcc><vAcc>0.686240</vAcc></extensions></trkpt>
      <trkpt lon="-3.154697" lat="53.018932"><ele>382.361786</ele><time>2021-09-01T10:28:20Z</time><extensions><speed>0.000000</speed><course>-1.000000</course><hAcc>0.897212</hAcc><vAcc>0.686426</vAcc></extensions></trkpt>
      <trkpt lon="-3.154697" lat="53.018932"><ele>382.361786</ele><time>2021-09-01T10:28:21Z</time><extensions><speed>0.000000</speed><course>-1.000000</course><hAcc>0.897332</hAcc><vAcc>0.686437</vAcc></extensions></trkpt>
      <trkpt lon="-3.154697" lat="53.018932"><ele>382.361786</ele><time>2021-09-01T10:28:22Z</time><extensions><speed>0.000000</speed><course>184.559082</course><hAcc>0.897283</hAcc><vAcc>0.686480</vAcc></extensions></trkpt>
      <trkpt lon="-3.154697" lat="53.018932"><ele>382.361786</ele><time>2021-09-01T10:28:23Z</time><extensions><speed>0.000000</speed><course>-1.000000</course><hAcc>0.897241</hAcc><vAcc>0.686688</vAcc></extensions></trkpt>
      <trkpt lon="-3.154697" lat="53.018932"><ele>382.361786</ele><time>2021-09-01T10:28:24Z</time><extensions><speed>0.000000</speed><course>-1.000000</course><hAcc>0.897253</hAcc><vAcc>0.687073</vAcc></extensions></trkpt>
      <trkpt lon="-3.154697" lat="53.018932"><ele>382.361786</ele><time>2021-09-01T10:28:25Z</time><extensions><speed>0.000000</speed><course>-1.000000</course><hAcc>0.897232</hAcc><vAcc>0.687532</vAcc></extensions></trkpt>
      <trkpt lon="-3.154697" lat="53.018932"><ele>382.361786</ele><time>2021-09-01T10:28:26Z</time><extensions><speed>0.000000</speed><course>-1.000000</course><hAcc>0.897024</hAcc><vAcc>0.687919</vAcc></extensions></trkpt>
      <trkpt lon="-3.154697" lat="53.018932"><ele>382.361786</ele><time>2021-09-01T10:28:27Z</time><extensions><speed>0.000000</speed><course>53.307610</course><hAcc>0.896517</hAcc><vAcc>0.688157</vAcc></extensions></trkpt>
      <trkpt lon="-3.154697" lat="53.018932"><ele>382.361786</ele><time>2021-09-01T10:28:28Z</time><extensions><speed>0.000000</speed><course>-1.000000</course><hAcc>0.895840</hAcc><vAcc>0.688412</vAcc></extensions></trkpt>
      <trkpt lon="-3.154697" lat="53.018932"><ele>382.361786</ele><time>2021-09-01T10:28:29Z</time><extensions><speed>0.000000</speed><course>-1.000000</course><hAcc>0.895639</hAcc><vAcc>0.689305</vAcc></extensions></trkpt>
      <trkpt lon="-3.154697" lat="53.018932"><ele>382.361786</ele><time>2021-09-01T10:28:30Z</time><extensions><speed>0.000000</speed><course>-1.000000</course><hAcc>0.897467</hAcc><vAcc>0.692183</vAcc></extensions></trkpt>
      <trkpt lon="-3.154697" lat="53.018932"><ele>382.361786</ele><time>2021-09-01T10:28:31Z</time><extensions><speed>0.000000</speed><course>120.394302</course><hAcc>0.904254</hAcc><vAcc>0.699411</vAcc></extensions></trkpt>
      <trkpt lon="-3.154697" lat="53.018932"><ele>382.361786</ele><time>2021-09-01T10:28:32Z</time><extensions><speed>0.000000</speed><course>-1.000000</course><hAcc>0.920764</hAcc><vAcc>0.714598</vAcc></extensions></trkpt>
      <trkpt lon="-3.154697" lat="53.018932"><ele>382.361786</ele><time>2021-09-01T10:28:33Z</time><extensions><speed>0.000000</speed><course>-1.000000</course><hAcc>0.953769</hAcc><vAcc>0.742599</vAcc></extensions></trkpt>
      <trkpt lon="-3.154697" lat="53.018932"><ele>382.361786</ele><time>2021-09-01T10:28:34Z</time><extensions><speed>0.000000</speed><course>-1.000000</course><hAcc>0.916629</hAcc><vAcc>0.709256</vAcc></extensions></trkpt>
      <trkpt lon="-3.154697" lat="53.018932"><ele>382.361786</ele><time>2021-09-01T10:28:35Z</time><extensions><speed>0.000000</speed><course>-1.000000</course><hAcc>0.897697</hAcc><vAcc>0.688058</vAcc></extensions></trkpt>
      <trkpt lon="-3.154697" lat="53.018932"><ele>382.361786</ele><time>2021-09-01T10:28:36Z</time><extensions><speed>0.000000</speed><course>-1.000000</course><hAcc>0.889708</hAcc><vAcc>0.675908</vAcc></extensions></trkpt>
      <trkpt lon="-3.154697" lat="53.018932"><ele>382.361786</ele><time>2021-09-01T10:28:37Z</time><extensions><speed>0.000000</speed><course>-1.000000</course><hAcc>0.887210</hAcc><vAcc>0.668750</vAcc></extensions></trkpt>
      <trkpt lon="-3.154697" lat="53.018932"><ele>382.361786</ele><time>2021-09-01T10:28:38Z</time><extensions><speed>0.000000</speed><course>-1.000000</course><hAcc>0.886843</hAcc><vAcc>0.663924</vAcc></extensions></trkpt>
      <trkpt lon="-3.154697" lat="53.018932"><ele>382.361786</ele><time>2021-09-01T10:28:39Z</time><extensions><speed>0.000000</speed><course>-1.000000</course><hAcc>0.886844</hAcc><vAcc>0.659967</vAcc></extensions></trkpt>
      <trkpt lon="-3.154697" lat="53.018932"><ele>382.361786</ele><time>2021-09-01T10:28:40Z</time><extensions><speed>0.000000</speed><course>-1.000000</course><hAcc>0.886517</hAcc><vAcc>0.656274</vAcc></extensions></trkpt>
      <trkpt lon="-3.154697" lat="53.018932"><ele>382.361786</ele><time>2021-09-01T10:28:41Z</time><extensions><speed>0.000000</speed><course>-1.000000</course><hAcc>0.885773</hAcc><vAcc>0.652763</vAcc></extensions></trkpt>
      <trkpt lon="-3.154697" lat="53.018932"><ele>382.361786</ele><time>2021-09-01T10:28:42Z</time><extensions><speed>0.000000</speed><course>-1.000000</course><hAcc>0.884820</hAcc><vAcc>0.649644</vAcc></extensions></trkpt>
      <trkpt lon="-3.154697" lat="53.018932"><ele>382.361786</ele><time>2021-09-01T10:28:43Z</time><extensions><speed>0.000000</speed><course>184.559082</course><hAcc>0.883952</hAcc><vAcc>0.647271</vAcc></extensions></trkpt>
      <trkpt lon="-3.154697" lat="53.018932"><ele>382.361786</ele><time>2021-09-01T10:28:44Z</time><extensions><speed>0.000000</speed><course>-1.000000</course><hAcc>0.883419</hAcc><vAcc>0.646009</vAcc></extensions></trkpt>
      <trkpt lon="-3.154697" lat="53.018932"><ele>382.361786</ele><time>2021-09-01T10:28:45Z</time><extensions><speed>0.000000</speed><course>-1.000000</course><hAcc>0.883339</hAcc><vAcc>0.646118</vAcc></extensions></trkpt>
      <trkpt lon="-3.154697" lat="53.018932"><ele>382.361786</ele><time>2021-09-01T10:28:46Z</time><extensions><speed>0.000000</speed><course>-1.000000</course><hAcc>0.883682</hAcc><vAcc>0.647673</vAcc></extensions></trkpt>
      <trkpt lon="-3.154697" lat="53.018932"><ele>382.361786</ele><time>2021-09-01T10:28:47Z</time><extensions><speed>0.000000</speed><course>-1.000000</course><hAcc>0.884287</hAcc><vAcc>0.650520</vAcc></extensions></trkpt>
      <trkpt lon="-3.154697" lat="53.018932"><ele>382.361786</ele><time>2021-09-01T10:28:48Z</time><extensions><speed>0.000000</speed><course>53.307610</course><hAcc>0.884974</hAcc><vAcc>0.654369</vAcc></extensions></trkpt>
      <trkpt lon="-3.154697" lat="53.018932"><ele>382.361786</ele><time>2021-09-01T10:28:49Z</time><extensions><speed>0.000000</speed><course>-1.000000</course><hAcc>0.885775</hAcc><vAcc>0.659075</vAcc></extensions></trkpt>
      <trkpt lon="-3.154697" lat="53.018932"><ele>382.361786</ele><time>2021-09-01T10:28:50Z</time><extensions><speed>0.000000</speed><course>-1.000000</course><hAcc>0.887249</hAcc><vAcc>0.664980</vAcc></extensions></trkpt>
      <trkpt lon="-3.154697" lat="53.018932"><ele>382.361786</ele><time>2021-09-01T10:28:51Z</time><extensions><speed>0.000000</speed><course>-1.000000</course><hAcc>0.890887</hAcc><vAcc>0.673210</vAcc></extensions></trkpt>
      <trkpt lon="-3.154697" lat="53.018932"><ele>382.361786</ele><time>2021-09-01T10:28:52Z</time><extensions><speed>0.000000</speed><course>120.394302</course><hAcc>0.899572</hAcc><vAcc>0.685978</vAcc></extensions></trkpt>
      <trkpt lon="-3.154697" lat="53.018932"><ele>382.361786</ele><time>2021-09-01T10:28:53Z</time><extensions><speed>0.000000</speed><course>-1.000000</course><hAcc>0.918028</hAcc><vAcc>0.706794</vAcc></extensions></trkpt>
      <trkpt lon="-3.154697" lat="53.018932"><ele>382.361786</ele><time>2021-09-01T10:28:54Z</time><extensions><speed>0.000000</speed><course>-1.000000</course><hAcc>0.952974</hAcc><vAcc>0.740400</vAcc></extensions></trkpt>
      <trkpt lon="-3.154697" lat="53.018932"><ele>382.361786</ele><time>2021-09-01T10:28:55Z</time><extensions><speed>0.000000</speed><course>-1.000000</course><hAcc>0.918055</hAcc><vAcc>0.713214</vAcc></extensions></trkpt>
      <trkpt lon="-3.154697" lat="53.018932"><ele>382.361786</ele><time>2021-09-01T10:28:56Z</time><extensions><speed>0.000000</speed><course>-1.000000</course><hAcc>0.901130</hAcc><vAcc>0.698004</vAcc></extensions></trkpt>
      <trkpt lon="-3.154697" lat="53.018932"><ele>382.361786</ele><time>2021-09-01T10:28:57Z</time><extensions><speed>0.000000</speed><course>-1.000000</course><hAcc>0.895148</hAcc><vAcc>0.691948</vAcc></extensions></trkpt>
      <trkpt lon="-3.154697" lat="53.018932"><ele>382.361786</ele><time>2021-09-01T10:28:58Z</time><extensions><speed>0.000000</speed><course>-1.000000</course><hAcc>0.894602</hAcc><vAcc>0.690830</vAcc></extensions></trkpt>
      <trkpt lon="-3.154697" lat="53.018932"><ele>382.361786</ele><time>2021-09-01T10:28:59Z</time><extensions><speed>0.000000</speed><course>-1.000000</course><hAcc>0.896078</hAcc><vAcc>0.691802</vAcc></extensions></trkpt>
      <trkpt lon="-3.154697" lat="53.018932"><ele>382.361786</ele><time>2021-09-01T10:29:00Z</time><extensions><speed>0.000000</speed><course>-1.000000</course><hAcc>0.897750</hAcc><vAcc>0.693142</vAcc></extensions></trkpt>
      <trkpt lon="-3.154697" lat="53.018932"><ele>382.361786</ele><time>2021-09-01T10:29:01Z</time><extensions><speed>0.000000</speed><course>-1.000000</course><hAcc>0.898838</hAcc><vAcc>0.693948</vAcc></extensions></trkpt>
      <trkpt lon="-3.154697" lat="53.018932"><ele>382.361786</ele><time>2021-09-01T10:29:02Z</time><extensions><speed>0.000000</speed><course>-1.000000</course><hAcc>0.899170</hAcc><vAcc>0.693847</vAcc></extensions></trkpt>
      <trkpt lon="-3.154697" lat="53.018932"><ele>382.361786</ele><time>2021-09-01T10:29:03Z</time><extensions><speed>0.000000</speed><course>-1.000000</course><hAcc>0.898865</hAcc><vAcc>0.692759</vAcc></extensions></trkpt>
      <trkpt lon="-3.154697" lat="53.018932"><ele>382.361786</ele><time>2021-09-01T10:29:04Z</time><extensions><speed>0.000000</speed><course>184.559082</course><hAcc>0.898125</hAcc><vAcc>0.690737</vAcc></extensions></trkpt>
      <trkpt lon="-3.154697" lat="53.018932"><ele>382.361786</ele><time>2021-09-01T10:29:05Z</time><extensions><speed>0.000000</speed><course>-1.000000</course><hAcc>0.897113</hAcc><vAcc>0.687886</vAcc></extensions></trkpt>
      <trkpt lon="-3.154697" lat="53.018932"><ele>382.361786</ele><time>2021-09-01T10:29:06Z</time><extensions><speed>0.000000</speed><course>-1.000000</course><hAcc>0.895892</hAcc><vAcc>0.684310</vAcc></extensions></trkpt>
      <trkpt lon="-3.154697" lat="53.018932"><ele>382.361786</ele><time>2021-09-01T10:29:07Z</time><extensions><speed>0.000000</speed><course>-1.000000</course><hAcc>0.894419</hAcc><vAcc>0.680065</vAcc></extensions></trkpt>
      <trkpt lon="-3.154697" lat="53.018932"><ele>382.361786</ele><time>2021-09-01T10:29:08Z</time><extensions><speed>0.000000</speed><course>-1.000000</course><hAcc>0.892584</hAcc><vAcc>0.675179</vAcc></extensions></trkpt>
      <trkpt lon="-3.154697" lat="53.018932"><ele>382.361786</ele><time>2021-09-01T10:29:09Z</time><extensions><speed>0.000000</speed><course>53.307610</course><hAcc>0.890335</hAcc><vAcc>0.669782</vAcc></extensions></trkpt>
      <trkpt lon="-3.154697" lat="53.018932"><ele>382.361786</ele><time>2021-09-01T10:29:10Z</time><extensions><speed>0.000000</speed><course>-1.000000</course><hAcc>0.887873</hAcc><vAcc>0.664307</vAcc></extensions></trkpt>
      <trkpt lon="-3.154697" lat="53.018932"><ele>382.361786</ele><time>2021-09-01T10:29:11Z</time><extensions><speed>0.000000</speed><course>-1.000000</course><hAcc>0.885935</hAcc><vAcc>0.659723</vAcc></extensions></trkpt>
      <trkpt lon="-3.154697" lat="53.018932"><ele>382.361786</ele><time>2021-09-01T10:29:12Z</time><extensions><speed>0.000000</speed><course>-1.000000</course><hAcc>0.886182</hAcc><vAcc>0.657782</vAcc></extensions></trkpt>
      <trkpt lon="-3.154697" lat="53.018932"><ele>382.361786</ele><time>2021-09-01T10:29:13Z</time><extensions><speed>0.000000</speed><course>120.394302</course><hAcc>0.891662</hAcc><vAcc>0.661266</vAcc></extensions></trkpt>
      <trkpt lon="-3.154697" lat="53.018932"><ele>382.361786</ele><time>2021-09-01T10:29:14Z</time><extensions><speed>0.000000</speed><course>-1.000000</course><hAcc>0.907255</hAcc><vAcc>0.674145</vAcc></extensions></trkpt>
      <trkpt lon="-3.154697" lat="53.018932"><ele>382.361786</ele><time>2021-09-01T10:29:15Z</time><extensions><speed>0.000000</speed><course>-1.000000</course><hAcc>0.939826</hAcc><vAcc>0.701461</vAcc></extensions></trkpt>
      <trkpt lon="-3.154697" lat="53.018932"><ele>382.361786</ele><time>2021-09-01T10:29:16Z</time><extensions><speed>0.000000</speed><course>-1.000000</course><hAcc>0.901709</hAcc><vAcc>0.665323</vAcc></extensions></trkpt>
      <trkpt lon="-3.154697" lat="53.018932"><ele>382.361786</ele><time>2021-09-01T10:29:18Z</time><extensions><speed>0.000000</speed><course>-1.000000</course><hAcc>0.886294</hAcc><vAcc>0.654363</vAcc></extensions></trkpt>
      <trkpt lon="-3.154697" lat="53.018932"><ele>382.361786</ele><time>2021-09-01T10:29:19Z</time><extensions><speed>0.000000</speed><course>-1.000000</course><hAcc>0.881339</hAcc><vAcc>0.651056</vAcc></extensions></trkpt>
      <trkpt lon="-3.154697" lat="53.018932"><ele>382.361786</ele><time>2021-09-01T10:29:20Z</time><extensions><speed>0.000000</speed><course>-1.000000</course><hAcc>0.881342</hAcc><vAcc>0.651262</vAcc></extensions></trkpt>
      <trkpt lon="-3.154697" lat="53.018932"><ele>382.361786</ele><time>2021-09-01T10:29:21Z</time><extensions><speed>0.000000</speed><course>-1.000000</course><hAcc>0.883007</hAcc><vAcc>0.652511</vAcc></extensions></trkpt>
      <trkpt lon="-3.154697" lat="53.018932"><ele>382.361786</ele><time>2021-09-01T10:29:22Z</time><extensions><speed>0.000000</speed><course>-1.000000</course><hAcc>0.884682</hAcc><vAcc>0.653644</vAcc></extensions></trkpt>
      <trkpt lon="-3.154697" lat="53.018932"><ele>382.361786</ele><time>2021-09-01T10:29:23Z</time><extensions><speed>0.000000</speed><course>-1.000000</course><hAcc>0.885789</hAcc><vAcc>0.654398</vAcc></extensions></trkpt>
      <trkpt lon="-3.154697" lat="53.018932"><ele>382.361786</ele><time>2021-09-01T10:29:23Z</time><extensions><speed>0.000000</speed><course>-1.000000</course><hAcc>0.886375</hAcc><vAcc>0.655028</vAcc></extensions></trkpt>
      <trkpt lon="-3.154697" lat="53.018932"><ele>382.361786</ele><time>2021-09-01T10:29:24Z</time><extensions><speed>0.000000</speed><course>-1.000000</course><hAcc>0.886714</hAcc><vAcc>0.655918</vAcc></extensions></trkpt>
      <trkpt lon="-3.154697" lat="53.018932"><ele>382.361786</ele><time>2021-09-01T10:29:25Z</time><extensions><speed>0.000000</speed><course>184.559082</course><hAcc>0.887046</hAcc><vAcc>0.657246</vAcc></extensions></trkpt>
      <trkpt lon="-3.154697" lat="53.018932"><ele>382.361786</ele><time>2021-09-01T10:29:26Z</time><extensions><speed>0.000000</speed><course>-1.000000</course><hAcc>0.887480</hAcc><vAcc>0.658897</vAcc></extensions></trkpt>
      <trkpt lon="-3.154697" lat="53.018932"><ele>382.361786</ele><time>2021-09-01T10:29:27Z</time><extensions><speed>0.000000</speed><course>-1.000000</course><hAcc>0.887963</hAcc><vAcc>0.660562</vAcc></extensions></trkpt>
      <trkpt lon="-3.154697" lat="53.018932"><ele>382.361786</ele><time>2021-09-01T10:29:28Z</time><extensions><speed>0.000000</speed><course>-1.000000</course><hAcc>0.888332</hAcc><vAcc>0.661916</vAcc></extensions></trkpt>
      <trkpt lon="-3.154697" lat="53.018932"><ele>382.361786</ele><time>2021-09-01T10:29:29Z</time><extensions><speed>0.000000</speed><course>-1.000000</course><hAcc>0.888383</hAcc><vAcc>0.662728</vAcc></extensions></trkpt>
      <trkpt lon="-3.154697" lat="53.018932"><ele>382.361786</ele><time>2021-09-01T10:29:30Z</time><extensions><speed>0.000000</speed><course>53.307610</course><hAcc>0.887980</hAcc><vAcc>0.662947</vAcc></extensions></trkpt>
      <trkpt lon="-3.154697" lat="53.018932"><ele>382.361786</ele><time>2021-09-01T10:29:31Z</time><extensions><speed>0.000000</speed><course>-1.000000</course><hAcc>0.887231</hAcc><vAcc>0.662767</vAcc></extensions></trkpt>
      <trkpt lon="-3.154697" lat="53.018932"><ele>382.361786</ele><time>2021-09-01T10:29:32Z</time><extensions><speed>0.000000</speed><course>-1.000000</course><hAcc>0.886743</hAcc><vAcc>0.662737</vAcc></extensions></trkpt>
      <trkpt lon="-3.154697" lat="53.018932"><ele>382.361786</ele><time>2021-09-01T10:29:34Z</time><extensions><speed>0.000000</speed><course>-1.000000</course><hAcc>0.887992</hAcc><vAcc>0.664016</vAcc></extensions></trkpt>
      <trkpt lon="-3.154697" lat="53.018932"><ele>382.361786</ele><time>2021-09-01T10:29:35Z</time><extensions><speed>0.000000</speed><course>120.394302</course><hAcc>0.893864</hAcc><vAcc>0.668803</vAcc></extensions></trkpt>
      <trkpt lon="-3.154697" lat="53.018932"><ele>382.361786</ele><time>2021-09-01T10:29:35Z</time><extensions><speed>0.000000</speed><course>-1.000000</course><hAcc>0.909146</hAcc><vAcc>0.680708</vAcc></extensions></trkpt>
      <trkpt lon="-3.154697" lat="53.018932"><ele>382.361786</ele><time>2021-09-01T10:29:36Z</time><extensions><speed>0.000000</speed><course>-1.000000</course><hAcc>0.940735</hAcc><vAcc>0.704852</vAcc></extensions></trkpt>
      <trkpt lon="-3.154697" lat="53.018932"><ele>382.361786</ele><time>2021-09-01T10:29:37Z</time><extensions><speed>0.000000</speed><course>-1.000000</course><hAcc>0.908227</hAcc><vAcc>0.684248</vAcc></extensions></trkpt>
      <trkpt lon="-3.154697" lat="53.018932"><ele>382.361786</ele><time>2021-09-01T10:29:38Z</time><extensions><speed>0.000000</speed><course>-1.000000</course><hAcc>0.891412</hAcc><vAcc>0.668949</vAcc></extensions></trkpt>
      <trkpt lon="-3.154697" lat="53.018932"><ele>382.361786</ele><time>2021-09-01T10:29:39Z</time><extensions><speed>0.000000</speed><course>-1.000000</course><hAcc>0.885767</hAcc><vAcc>0.663621</vAcc></extensions></trkpt>
      <trkpt lon="-3.154697" lat="53.018932"><ele>382.361786</ele><time>2021-09-01T10:29:40Z</time><extensions><speed>0.000000</speed><course>-1.000000</course><hAcc>0.885742</hAcc><vAcc>0.663956</vAcc></extensions></trkpt>
      <trkpt lon="-3.154697" lat="53.018932"><ele>382.361786</ele><time>2021-09-01T10:29:41Z</time><extensions><speed>0.000000</speed><course>-1.000000</course><hAcc>0.887856</hAcc><vAcc>0.666885</vAcc></extensions></trkpt>
      <trkpt lon="-3.154697" lat="53.018932"><ele>382.361786</ele><time>2021-09-01T10:29:42Z</time><extensions><speed>0.000000</speed><course>-1.000000</course><hAcc>0.890219</hAcc><vAcc>0.670439</vAcc></extensions></trkpt>
      <trkpt lon="-3.154697" lat="53.018932"><ele>382.361786</ele><time>2021-09-01T10:29:43Z</time><extensions><speed>0.000000</speed><course>-1.000000</course><hAcc>0.892002</hAcc><vAcc>0.673515</vAcc></extensions></trkpt>
      <trkpt lon="-3.154697" lat="53.018932"><ele>382.361786</ele><time>2021-09-01T10:29:44Z</time><extensions><speed>0.000000</speed><course>-1.000000</course><hAcc>0.893004</hAcc><vAcc>0.675606</vAcc></extensions></trkpt>
      <trkpt lon="-3.154697" lat="53.018932"><ele>382.361786</ele><time>2021-09-01T10:29:45Z</time><extensions><speed>0.000000</speed><course>-1.000000</course><hAcc>0.893335</hAcc><vAcc>0.676570</vAcc></extensions></trkpt>
      <trkpt lon="-3.154697" lat="53.018932"><ele>382.361786</ele><time>2021-09-01T10:29:46Z</time><extensions><speed>0.000000</speed><course>184.559082</course><hAcc>0.893211</hAcc><vAcc>0.676478</vAcc></extensions></trkpt>
      <trkpt lon="-3.154697" lat="53.018932"><ele>382.361786</ele><time>2021-09-01T10:29:47Z</time><extensions><speed>0.000000</speed><course>-1.000000</course><hAcc>0.892830</hAcc><vAcc>0.675531</vAcc></extensions></trkpt>
      <trkpt lon="-3.154697" lat="53.018932"><ele>382.361786</ele><time>2021-09-01T10:29:48Z</time><extensions><speed>0.000000</speed><course>-1.000000</course><hAcc>0.892320</hAcc><vAcc>0.674030</vAcc></extensions></trkpt>
      <trkpt lon="-3.154697" lat="53.018932"><ele>382.361786</ele><time>2021-09-01T10:29:49Z</time><extensions><speed>0.000000</speed><course>-1.000000</course><hAcc>0.891731</hAcc><vAcc>0.672365</vAcc></extensions></trkpt>
      <trkpt lon="-3.154697" lat="53.018932"><ele>382.361786</ele><time>2021-09-01T10:29:50Z</time><extensions><speed>0.000000</speed><course>-1.000000</course><hAcc>0.891074</hAcc><vAcc>0.671010</vAcc></extensions></trkpt>
      <trkpt lon="-3.154697" lat="53.018932"><ele>382.361786</ele><time>2021-09-01T10:29:51Z</time><extensions><speed>0.000000</speed><course>53.307610</course><hAcc>0.890411</hAcc><vAcc>0.670496</vAcc></extensions></trkpt>
      <trkpt lon="-3.154697" lat="53.018932"><ele>382.361786</ele><time>2021-09-01T10:29:52Z</time><extensions><speed>0.000000</speed><course>-1.000000</course><hAcc>0.890006</hAcc><vAcc>0.671450</vAcc></extensions></trkpt>
      <trkpt lon="-3.154697" lat="53.018932"><ele>382.361786</ele><time>2021-09-01T10:29:53Z</time><extensions><speed>0.000000</speed><course>-1.000000</course><hAcc>0.890581</hAcc><vAcc>0.674703</vAcc></extensions></trkpt>
      <trkpt lon="-3.154697" lat="53.018932"><ele>382.361786</ele><time>2021-09-01T10:29:54Z</time><extensions><speed>0.000000</speed><course>-1.000000</course><hAcc>0.893698</hAcc><vAcc>0.681553</vAcc></extensions></trkpt>
      <trkpt lon="-3.154697" lat="53.018932"><ele>382.361786</ele><time>2021-09-01T10:29:55Z</time><extensions><speed>0.000000</speed><course>120.394302</course><hAcc>0.902255</hAcc><vAcc>0.694166</vAcc></extensions></trkpt>
      <trkpt lon="-3.154697" lat="53.018932"><ele>382.361786</ele><time>2021-09-01T10:29:56Z</time><extensions><speed>0.000000</speed><course>-1.000000</course><hAcc>0.920947</hAcc><vAcc>0.715874</vAcc></extensions></trkpt>
      <trkpt lon="-3.154697" lat="53.018932"><ele>382.361786</ele><time>2021-09-01T10:29:58Z</time><extensions><speed>0.000000</speed><course>-1.000000</course><hAcc>0.956454</hAcc><vAcc>0.751187</vAcc></extensions></trkpt>
      <trkpt lon="-3.154697" lat="53.018932"><ele>382.361786</ele><time>2021-09-01T10:29:59Z</time><extensions><speed>0.000000</speed><course>-1.000000</course><hAcc>0.920869</hAcc><vAcc>0.721784</vAcc></extensions></trkpt>
      <trkpt lon="-3.154697" lat="53.018932"><ele>382.361786</ele><time>2021-09-01T10:30:00Z</time><extensions><speed>0.000000</speed><course>-1.000000</course><hAcc>0.904054</hAcc><vAcc>0.706934</vAcc></extensions></trkpt>
      <trkpt lon="-3.154697" lat="53.018932"><ele>382.361786</ele><time>2021-09-01T10:30:01Z</time><extensions><speed>0.000000</speed><course>-1.000000</course><hAcc>0.898233</hAcc><vAcc>0.700694</vAcc></extensions></trkpt>
      <trkpt lon="-3.154697" lat="53.018932"><ele>382.361786</ele><time>2021-09-01T10:30:02Z</time><extensions><speed>0.000000</speed><course>-1.000000</course><hAcc>0.898091</hAcc><vAcc>0.698963</vAcc></extensions></trkpt>
      <trkpt lon="-3.154697" lat="53.018932"><ele>382.361786</ele><time>2021-09-01T10:30:03Z</time><extensions><speed>0.000000</speed><course>-1.000000</course><hAcc>0.900477</hAcc><vAcc>0.699015</vAcc></extensions></trkpt>
      <trkpt lon="-3.154697" lat="53.018932"><ele>382.361786</ele><time>2021-09-01T10:30:04Z</time><extensions><speed>0.000000</speed><course>-1.000000</course><hAcc>0.903913</hAcc><vAcc>0.699250</vAcc></extensions></trkpt>
      <trkpt lon="-3.154697" lat="53.018932"><ele>382.361786</ele><time>2021-09-01T10:30:05Z</time><extensions><speed>0.000000</speed><course>-1.000000</course><hAcc>0.908068</hAcc><vAcc>0.698888</vAcc></extensions></trkpt>
      <trkpt lon="-3.154697" lat="53.018932"><ele>382.361786</ele><time>2021-09-01T10:30:06Z</time><extensions><speed>0.000000</speed><course>-1.000000</course><hAcc>0.913305</hAcc><vAcc>0.697701</vAcc></extensions></trkpt>
      <trkpt lon="-3.154697" lat="53.018932"><ele>382.361786</ele><time>2021-09-01T10:30:07Z</time><extensions><speed>0.000000</speed><course>-1.000000</course><hAcc>0.920327</hAcc><vAcc>0.695823</vAcc></extensions></trkpt>
      <trkpt lon="-3.154697" lat="53.018932"><ele>382.361786</ele><time>2021-09-01T10:30:08Z</time><extensions><speed>0.000000</speed><course>184.559082</course><hAcc>0.929895</hAcc><vAcc>0.693607</vAcc></extensions></trkpt>
      <trkpt lon="-3.154697" lat="53.018932"><ele>382.361786</ele><time>2021-09-01T10:30:09Z</time><extensions><speed>0.000000</speed><course>-1.000000</course><hAcc>0.942572</hAcc><vAcc>0.691503</vAcc></extensions></trkpt>
      <trkpt lon="-3.154697" lat="53.018932"><ele>382.361786</ele><time>2021-09-01T10:30:10Z</time><extensions><speed>0.000000</speed><course>-1.000000</course><hAcc>0.958513</hAcc><vAcc>0.689961</vAcc></extensions></trkpt>
      <trkpt lon="-3.154697" lat="53.018932"><ele>382.361786</ele><time>2021-09-01T10:30:11Z</time><extensions><speed>0.000000</speed><course>-1.000000</course><hAcc>0.977289</hAcc><vAcc>0.689341</vAcc></extensions></trkpt>
      <trkpt lon="-3.154697" lat="53.018932"><ele>382.361786</ele><time>2021-09-01T10:30:12Z</time><extensions><speed>0.000000</speed><course>-1.000000</course><hAcc>0.997780</hAcc><vAcc>0.689758</vAcc></extensions></trkpt>
      <trkpt lon="-3.154697" lat="53.018932"><ele>382.361786</ele><time>2021-09-01T10:30:13Z</time><extensions><speed>0.000000</speed><course>53.307610</course><hAcc>1.018272</hAcc><vAcc>0.690870</vAcc></extensions></trkpt>
      <trkpt lon="-3.154697" lat="53.018932"><ele>382.361786</ele><time>2021-09-01T10:30:14Z</time><extensions><speed>0.000000</speed><course>-1.000000</course><hAcc>1.036980</hAcc><vAcc>0.691960</vAcc></extensions></trkpt>
      <trkpt lon="-3.154697" lat="53.018932"><ele>382.361786</ele><time>2021-09-01T10:30:15Z</time><extensions><speed>0.000000</speed><course>-1.000000</course><hAcc>1.052886</hAcc><vAcc>0.692511</vAcc></extensions></trkpt>
      <trkpt lon="-3.154697" lat="53.018932"><ele>382.361786</ele><time>2021-09-01T10:30:16Z</time><extensions><speed>0.000000</speed><course>-1.000000</course><hAcc>1.066374</hAcc><vAcc>0.692806</vAcc></extensions></trkpt>
      <trkpt lon="-3.154697" lat="53.018932"><ele>382.361786</ele><time>2021-09-01T10:30:17Z</time><extensions><speed>0.000000</speed><course>120.394302</course><hAcc>1.079466</hAcc><vAcc>0.694195</vAcc></extensions></trkpt>
      <trkpt lon="-3.154697" lat="53.018932"><ele>382.361786</ele><time>2021-09-01T10:30:18Z</time><extensions><speed>0.000000</speed><course>-1.000000</course><hAcc>1.096017</hAcc><vAcc>0.699316</vAcc></extensions></trkpt>
      <trkpt lon="-3.154697" lat="53.018932"><ele>382.361786</ele><time>2021-09-01T10:30:19Z</time><extensions><speed>0.000000</speed><course>-1.000000</course><hAcc>1.122029</hAcc><vAcc>0.712436</vAcc></extensions></trkpt>
      <trkpt lon="-3.154697" lat="53.018932"><ele>382.361786</ele><time>2021-09-01T10:30:20Z</time><extensions><speed>0.000000</speed><course>-1.000000</course><hAcc>1.131973</hAcc><vAcc>0.704158</vAcc></extensions></trkpt>
      <trkpt lon="-3.154697" lat="53.018932"><ele>382.361786</ele><time>2021-09-01T10:30:21Z</time><extensions><speed>0.000000</speed><course>-1.000000</course><hAcc>1.057846</hAcc><vAcc>0.672264</vAcc></extensions></trkpt>
      <trkpt lon="-3.154697" lat="53.018932"><ele>382.361786</ele><time>2021-09-01T10:30:22Z</time><extensions><speed>0.000000</speed><course>-1.000000</course><hAcc>1.002798</hAcc><vAcc>0.652258</vAcc></extensions></trkpt>
      <trkpt lon="-3.154697" lat="53.018932"><ele>382.361786</ele><time>2021-09-01T10:30:23Z</time><extensions><speed>0.000000</speed><course>-1.000000</course><hAcc>0.963032</hAcc><vAcc>0.641024</vAcc></extensions></trkpt>
      <trkpt lon="-3.154697" lat="53.018932"><ele>382.361786</ele><time>2021-09-01T10:30:24Z</time><extensions><speed>0.000000</speed><course>-1.000000</course><hAcc>0.935211</hAcc><vAcc>0.636092</vAcc></extensions></trkpt>
      <trkpt lon="-3.154697" lat="53.018932"><ele>382.361786</ele><time>2021-09-01T10:30:25Z</time><extensions><speed>0.000000</speed><course>-1.000000</course><hAcc>0.916454</hAcc><vAcc>0.635556</vAcc></extensions></trkpt>
      <trkpt lon="-3.154697" lat="53.018932"><ele>382.361786</ele><time>2021-09-01T10:30:26Z</time><extensions><speed>0.000000</speed><course>-1.000000</course><hAcc>0.904398</hAcc><vAcc>0.638026</vAcc></extensions></trkpt>
      <trkpt lon="-3.154697" lat="53.018932"><ele>382.361786</ele><time>2021-09-01T10:30:27Z</time><extensions><speed>0.000000</speed><course>-1.000000</course><hAcc>0.897191</hAcc><vAcc>0.642535</vAcc></extensions></trkpt>
      <trkpt lon="-3.154697" lat="53.018932"><ele>382.361786</ele><time>2021-09-01T10:30:28Z</time><extensions><speed>0.000000</speed><course>-1.000000</course><hAcc>0.893429</hAcc><vAcc>0.648399</vAcc></extensions></trkpt>
      <trkpt lon="-3.154697" lat="53.018932"><ele>382.361786</ele><time>2021-09-01T10:30:29Z</time><extensions><speed>0.000000</speed><course>184.559082</course><hAcc>0.892049</hAcc><vAcc>0.655076</vAcc></extensions></trkpt>
      <trkpt lon="-3.154697" lat="53.018932"><ele>382.361786</ele><time>2021-09-01T10:30:30Z</time><extensions><speed>0.000000</speed><course>-1.000000</course><hAcc>0.892213</hAcc><vAcc>0.662057</vAcc></extensions></trkpt>
      <trkpt lon="-3.154697" lat="53.018932"><ele>382.361786</ele><time>2021-09-01T10:30:31Z</time><extensions><speed>0.000000</speed><course>-1.000000</course><hAcc>0.893230</hAcc><vAcc>0.668843</vAcc></extensions></trkpt>
      <trkpt lon="-3.154697" lat="53.018932"><ele>382.361786</ele><time>2021-09-01T10:30:32Z</time><extensions><speed>0.000000</speed><course>-1.000000</course><hAcc>0.894523</hAcc><vAcc>0.674989</vAcc></extensions></trkpt>
      <trkpt lon="-3.154697" lat="53.018932"><ele>382.361786</ele><time>2021-09-01T10:30:33Z</time><extensions><speed>0.000000</speed><course>-1.000000</course><hAcc>0.895641</hAcc><vAcc>0.680190</vAcc></extensions></trkpt>
      <trkpt lon="-3.154697" lat="53.018932"><ele>382.361786</ele><time>2021-09-01T10:30:34Z</time><extensions><speed>0.000000</speed><course>53.307610</course><hAcc>0.896332</hAcc><vAcc>0.684383</vAcc></extensions></trkpt>
      <trkpt lon="-3.154697" lat="53.018932"><ele>382.361786</ele><time>2021-09-01T10:30:35Z</time><extensions><speed>0.000000</speed><course>-1.000000</course><hAcc>0.896688</hAcc><vAcc>0.687883</vAcc></extensions></trkpt>
      <trkpt lon="-3.154697" lat="53.018932"><ele>382.361786</ele><time>2021-09-01T10:30:36Z</time><extensions><speed>0.000000</speed><course>-1.000000</course><hAcc>0.897388</hAcc><vAcc>0.691553</vAcc></extensions></trkpt>
      <trkpt lon="-3.154697" lat="53.018932"><ele>382.361786</ele><time>2021-09-01T10:30:37Z</time><extensions><speed>0.000000</speed><course>-1.000000</course><hAcc>0.900051</hAcc><vAcc>0.697028</vAcc></extensions></trkpt>
      <trkpt lon="-3.154697" lat="53.018932"><ele>382.361786</ele><time>2021-09-01T10:30:38Z</time><extensions><speed>0.000000</speed><course>120.394302</course><hAcc>0.907686</hAcc><vAcc>0.706951</vAcc></extensions></trkpt>
      <trkpt lon="-3.154697" lat="53.018932"><ele>382.361786</ele><time>2021-09-01T10:30:39Z</time><extensions><speed>0.000000</speed><course>-1.000000</course><hAcc>0.925109</hAcc><vAcc>0.725131</vAcc></extensions></trkpt>
      <trkpt lon="-3.154697" lat="53.018932"><ele>382.361786</ele><time>2021-09-01T10:30:40Z</time><extensions><speed>0.000000</speed><course>-1.000000</course><hAcc>0.959103</hAcc><vAcc>0.756454</vAcc></extensions></trkpt>
      <trkpt lon="-3.154697" lat="53.018932"><ele>382.361786</ele><time>2021-09-01T10:30:41Z</time><extensions><speed>0.000000</speed><course>-1.000000</course><hAcc>0.921335</hAcc><vAcc>0.723029</vAcc></extensions></trkpt>
      <trkpt lon="-3.154697" lat="53.018932"><ele>382.361786</ele><time>2021-09-01T10:30:42Z</time><extensions><speed>0.000000</speed><course>-1.000000</course><hAcc>0.903293</hAcc><vAcc>0.704664</vAcc></extensions></trkpt>
      <trkpt lon="-3.154697" lat="53.018932"><ele>382.361786</ele><time>2021-09-01T10:30:43Z</time><extensions><speed>0.000000</speed><course>-1.000000</course><hAcc>0.896314</hAcc><vAcc>0.695650</vAcc></extensions></trkpt>
      <trkpt lon="-3.154697" lat="53.018932"><ele>382.361786</ele><time>2021-09-01T10:30:44Z</time><extensions><speed>0.000000</speed><course>-1.000000</course><hAcc>0.894920</hAcc><vAcc>0.691846</vAcc></extensions></trkpt>
      <trkpt lon="-3.154697" lat="53.018932"><ele>382.361786</ele><time>2021-09-01T10:30:45Z</time><extensions><speed>0.000000</speed><course>-1.000000</course><hAcc>0.895716</hAcc><vAcc>0.690500</vAcc></extensions></trkpt>
      <trkpt lon="-3.154697" lat="53.018932"><ele>382.361786</ele><time>2021-09-01T10:30:46Z</time><extensions><speed>0.000000</speed><course>-1.000000</course><hAcc>0.896893</hAcc><vAcc>0.690013</vAcc></extensions></trkpt>
      <trkpt lon="-3.154697" lat="53.018932"><ele>382.361786</ele><time>2021-09-01T10:30:47Z</time><extensions><speed>0.000000</speed><course>-1.000000</course><hAcc>0.897691</hAcc><vAcc>0.689611</vAcc></extensions></trkpt>
      <trkpt lon="-3.154697" lat="53.018932"><ele>382.361786</ele><time>2021-09-01T10:30:48Z</time><extensions><speed>0.000000</speed><course>-1.000000</course><hAcc>0.897961</hAcc><vAcc>0.689036</vAcc></extensions></trkpt>
      <trkpt lon="-3.154697" lat="53.018932"><ele>382.361786</ele><time>2021-09-01T10:30:49Z</time><extensions><speed>0.000000</speed><course>-1.000000</course><hAcc>0.897841</hAcc><vAcc>0.688312</vAcc></extensions></trkpt>
      <trkpt lon="-3.154697" lat="53.018932"><ele>382.361786</ele><time>2021-09-01T10:30:50Z</time><extensions><speed>0.000000</speed><course>184.559082</course><hAcc>0.897546</hAcc><vAcc>0.687555</vAcc></extensions></trkpt>
      <trkpt lon="-3.154697" lat="53.018932"><ele>382.361786</ele><time>2021-09-01T10:30:51Z</time><extensions><speed>0.000000</speed><course>-1.000000</course><hAcc>0.897236</hAcc><vAcc>0.686849</vAcc></extensions></trkpt>
      <trkpt lon="-3.154697" lat="53.018932"><ele>382.361786</ele><time>2021-09-01T10:30:52Z</time><extensions><speed>0.000000</speed><course>-1.000000</course><hAcc>0.896952</hAcc><vAcc>0.686191</vAcc></extensions></trkpt>
      <trkpt lon="-3.154697" lat="53.018932"><ele>382.361786</ele><time>2021-09-01T10:30:53Z</time><extensions><speed>0.000000</speed><course>-1.000000</course><hAcc>0.896628</hAcc><vAcc>0.685535</vAcc></extensions></trkpt>
      <trkpt lon="-3.154697" lat="53.018932"><ele>382.361786</ele><time>2021-09-01T10:30:54Z</time><extensions><speed>0.000000</speed><course>-1.000000</course><hAcc>0.896147</hAcc><vAcc>0.684868</vAcc></extensions></trkpt>
      <trkpt lon="-3.154697" lat="53.018932"><ele>382.361786</ele><time>2021-09-01T10:30:55Z</time><extensions><speed>0.000000</speed><course>53.307610</course><hAcc>0.895453</hAcc><vAcc>0.684309</vAcc></extensions></trkpt>
      <trkpt lon="-3.154697" lat="53.018932"><ele>382.361786</ele><time>2021-09-01T10:30:56Z</time><extensions><speed>0.000000</speed><course>-1.000000</course><hAcc>0.894741</hAcc><vAcc>0.684258</vAcc></extensions></trkpt>
      <trkpt lon="-3.154697" lat="53.018932"><ele>382.361786</ele><time>2021-09-01T10:30:57Z</time><extensions><speed>0.000000</speed><course>-1.000000</course><hAcc>0.894733</hAcc><vAcc>0.685579</vAcc></extensions></trkpt>
      <trkpt lon="-3.154697" lat="53.018932"><ele>382.361786</ele><time>2021-09-01T10:30:58Z</time><extensions><speed>0.000000</speed><course>-1.000000</course><hAcc>0.897047</hAcc><vAcc>0.689829</vAcc></extensions></trkpt>
      <trkpt lon="-3.154697" lat="53.018932"><ele>382.361786</ele><time>2021-09-01T10:30:59Z</time><extensions><speed>0.000000</speed><course>120.394302</course><hAcc>0.904667</hAcc><vAcc>0.699524</vAcc></extensions></trkpt>
      <trkpt lon="-3.154697" lat="53.018932"><ele>382.361786</ele><time>2021-09-01T10:31:00Z</time><extensions><speed>0.000000</speed><course>-1.000000</course><hAcc>0.922385</hAcc><vAcc>0.718367</vAcc></extensions></trkpt>
      <trkpt lon="-3.154697" lat="53.018932"><ele>382.361786</ele><time>2021-09-01T10:31:01Z</time><extensions><speed>0.000000</speed><course>-1.000000</course><hAcc>0.956951</hAcc><vAcc>0.751186</vAcc></extensions></trkpt>
      <trkpt lon="-3.154697" lat="53.018932"><ele>382.361786</ele><time>2021-09-01T10:31:02Z</time><extensions><speed>0.000000</speed><course>-1.000000</course><hAcc>0.919311</hAcc><vAcc>0.717536</vAcc></extensions></trkpt>
      <trkpt lon="-3.154697" lat="53.018932"><ele>382.361786</ele><time>2021-09-01T10:31:03Z</time><extensions><speed>0.000000</speed><course>-1.000000</course><hAcc>0.903129</hAcc><vAcc>0.704512</vAcc></extensions></trkpt>
      <trkpt lon="-3.154697" lat="53.018932"><ele>382.361786</ele><time>2021-09-01T10:31:04Z</time><extensions><speed>0.000000</speed><course>-1.000000</course><hAcc>0.897892</hAcc><vAcc>0.700603</vAcc></extensions></trkpt>
      <trkpt lon="-3.154697" lat="53.018932"><ele>382.361786</ele><time>2021-09-01T10:31:05Z</time><extensions><speed>0.000000</speed><course>-1.000000</course><hAcc>0.898101</hAcc><vAcc>0.701611</vAcc></extensions></trkpt>
      <trkpt lon="-3.154697" lat="53.018932"><ele>382.361786</ele><time>2021-09-01T10:31:06Z</time><extensions><speed>0.000000</speed><course>-1.000000</course><hAcc>0.900364</hAcc><vAcc>0.704753</vAcc></extensions></trkpt>
      <trkpt lon="-3.154697" lat="53.018932"><ele>382.361786</ele><time>2021-09-01T10:31:07Z</time><extensions><speed>0.000000</speed><course>-1.000000</course><hAcc>0.902874</hAcc><vAcc>0.708403</vAcc></extensions></trkpt>
      <trkpt lon="-3.154697" lat="53.018932"><ele>382.361786</ele><time>2021-09-01T10:31:08Z</time><extensions><speed>0.000000</speed><course>-1.000000</course><hAcc>0.904869</hAcc><vAcc>0.711746</vAcc></extensions></trkpt>
      <trkpt lon="-3.154697" lat="53.018932"><ele>382.361786</ele><time>2021-09-01T10:31:09Z</time><extensions><speed>0.000000</speed><course>-1.000000</course><hAcc>0.906185</hAcc><vAcc>0.714468</vAcc></extensions></trkpt>
      <trkpt lon="-3.154697" lat="53.018932"><ele>382.361786</ele><time>2021-09-01T10:31:10Z</time><extensions><speed>0.000000</speed><course>-1.000000</course><hAcc>0.906940</hAcc><vAcc>0.716524</vAcc></extensions></trkpt>
      <trkpt lon="-3.154697" lat="53.018932"><ele>382.361786</ele><time>2021-09-01T10:31:11Z</time><extensions><speed>0.000000</speed><course>184.559082</course><hAcc>0.907328</hAcc><vAcc>0.717979</vAcc></extensions></trkpt>
      <trkpt lon="-3.154697" lat="53.018932"><ele>382.361786</ele><time>2021-09-01T10:31:12Z</time><extensions><speed>0.000000</speed><course>-1.000000</course><hAcc>0.907494</hAcc><vAcc>0.718888</vAcc></extensions></trkpt>
      <trkpt lon="-3.154697" lat="53.018932"><ele>382.361786</ele><time>2021-09-01T10:31:13Z</time><extensions><speed>0.000000</speed><course>-1.000000</course><hAcc>0.907480</hAcc><vAcc>0.719251</vAcc></extensions></trkpt>
      <trkpt lon="-3.154697" lat="53.018932"><ele>382.361786</ele><time>2021-09-01T10:31:14Z</time><extensions><speed>0.000000</speed><course>-1.000000</course><hAcc>0.907219</hAcc><vAcc>0.719020</vAcc></extensions></trkpt>
      <trkpt lon="-3.154697" lat="53.018932"><ele>382.361786</ele><time>2021-09-01T10:31:15Z</time><extensions><speed>0.000000</speed><course>-1.000000</course><hAcc>0.906595</hAcc><vAcc>0.718158</vAcc></extensions></trkpt>
      <trkpt lon="-3.154697" lat="53.018932"><ele>382.361786</ele><time>2021-09-01T10:31:16Z</time><extensions><speed>0.000000</speed><course>53.307610</course><hAcc>0.905550</hAcc><vAcc>0.716730</vAcc></extensions></trkpt>
      <trkpt lon="-3.154697" lat="53.018932"><ele>382.361786</ele><time>2021-09-01T10:31:17Z</time><extensions><speed>0.000000</speed><course>-1.000000</course><hAcc>0.904271</hAcc><vAcc>0.715057</vAcc></extensions></trkpt>
      <trkpt lon="-3.154697" lat="53.018932"><ele>382.361786</ele><time>2021-09-01T10:31:18Z</time><extensions><speed>0.000000</speed><course>-1.000000</course><hAcc>0.903467</hAcc><vAcc>0.713916</vAcc></extensions></trkpt>
      <trkpt lon="-3.154697" lat="53.018932"><ele>382.361786</ele><time>2021-09-01T10:31:19Z</time><extensions><speed>0.000000</speed><course>-1.000000</course><hAcc>0.904750</hAcc><vAcc>0.714817</vAcc></extensions></trkpt>
      <trkpt lon="-3.154697" lat="53.018932"><ele>382.361786</ele><time>2021-09-01T10:31:20Z</time><extensions><speed>0.000000</speed><course>120.394302</course><hAcc>0.911103</hAcc><vAcc>0.720294</vAcc></extensions></trkpt>
      <trkpt lon="-3.154697" lat="53.018932"><ele>382.361786</ele><time>2021-09-01T10:31:21Z</time><extensions><speed>0.000000</speed><course>-1.000000</course><hAcc>0.927330</hAcc><vAcc>0.734137</vAcc></extensions></trkpt>
      <trkpt lon="-3.154697" lat="53.018932"><ele>382.361786</ele><time>2021-09-01T10:31:22Z</time><extensions><speed>0.000000</speed><course>-1.000000</course><hAcc>0.960225</hAcc><vAcc>0.761354</vAcc></extensions></trkpt>
      <trkpt lon="-3.154697" lat="53.018932"><ele>382.361786</ele><time>2021-09-01T10:31:23Z</time><extensions><speed>0.000000</speed><course>-1.000000</course><hAcc>0.923203</hAcc><vAcc>0.727952</vAcc></extensions></trkpt>
      <trkpt lon="-3.154697" lat="53.018932"><ele>382.361786</ele><time>2021-09-01T10:31:24Z</time><extensions><speed>0.000000</speed><course>-1.000000</course><hAcc>0.903393</hAcc><vAcc>0.704344</vAcc></extensions></trkpt>
      <trkpt lon="-3.154697" lat="53.018932"><ele>382.361786</ele><time>2021-09-01T10:31:25Z</time><extensions><speed>0.000000</speed><course>-1.000000</course><hAcc>0.894886</hAcc><vAcc>0.690903</vAcc></extensions></trkpt>
      <trkpt lon="-3.154697" lat="53.018932"><ele>382.361786</ele><time>2021-09-01T10:31:26Z</time><extensions><speed>0.000000</speed><course>-1.000000</course><hAcc>0.892225</hAcc><vAcc>0.683501</vAcc></extensions></trkpt>
      <trkpt lon="-3.154697" lat="53.018932"><ele>382.361786</ele><time>2021-09-01T10:31:27Z</time><extensions><speed>0.000000</speed><course>-1.000000</course><hAcc>0.892005</hAcc><vAcc>0.679306</vAcc></extensions></trkpt>
      <trkpt lon="-3.154697" lat="53.018932"><ele>382.361786</ele><time>2021-09-01T10:31:28Z</time><extensions><speed>0.000000</speed><course>-1.000000</course><hAcc>0.892410</hAcc><vAcc>0.676665</vAcc></extensions></trkpt>
      <trkpt lon="-3.154697" lat="53.018932"><ele>382.361786</ele><time>2021-09-01T10:31:29Z</time><extensions><speed>0.000000</speed><course>-1.000000</course><hAcc>0.892684</hAcc><vAcc>0.674817</vAcc></extensions></trkpt>
      <trkpt lon="-3.154697" lat="53.018932"><ele>382.361786</ele><time>2021-09-01T10:31:30Z</time><extensions><speed>0.000000</speed><course>-1.000000</course><hAcc>0.892694</hAcc><vAcc>0.673573</vAcc></extensions></trkpt>
      <trkpt lon="-3.154697" lat="53.018932"><ele>382.361786</ele><time>2021-09-01T10:31:31Z</time><extensions><speed>0.000000</speed><course>-1.000000</course><hAcc>0.892597</hAcc><vAcc>0.673030</vAcc></extensions></trkpt>
      <trkpt lon="-3.154697" lat="53.018932"><ele>382.361786</ele><time>2021-09-01T10:31:32Z</time><extensions><speed>0.000000</speed><course>184.559082</course><hAcc>0.892610</hAcc><vAcc>0.673322</vAcc></extensions></trkpt>
      <trkpt lon="-3.154697" lat="53.018932"><ele>382.361786</ele><time>2021-09-01T10:31:33Z</time><extensions><speed>0.000000</speed><course>-1.000000</course><hAcc>0.892861</hAcc><vAcc>0.674443</vAcc></extensions></trkpt>
      <trkpt lon="-3.154697" lat="53.018932"><ele>382.361786</ele><time>2021-09-01T10:31:34Z</time><extensions><speed>0.000000</speed><course>-1.000000</course><hAcc>0.893317</hAcc><vAcc>0.676165</vAcc></extensions></trkpt>
      <trkpt lon="-3.154697" lat="53.018932"><ele>382.361786</ele><time>2021-09-01T10:31:35Z</time><extensions><speed>0.000000</speed><course>-1.000000</course><hAcc>0.893808</hAcc><vAcc>0.678127</vAcc></extensions></trkpt>
      <trkpt lon="-3.154697" lat="53.018932"><ele>382.361786</ele><time>2021-09-01T10:31:36Z</time><extensions><speed>0.000000</speed><course>-1.000000</course><hAcc>0.894105</hAcc><vAcc>0.679979</vAcc></extensions></trkpt>
      <trkpt lon="-3.154697" lat="53.018932"><ele>382.361786</ele><time>2021-09-01T10:31:36Z</time><extensions><speed>0.000000</speed><course>53.307610</course><hAcc>0.894059</hAcc><vAcc>0.681519</vAcc></extensions></trkpt>
      <trkpt lon="-3.154697" lat="53.018932"><ele>382.361786</ele><time>2021-09-01T10:31:37Z</time><extensions><speed>0.000000</speed><course>-1.000000</course><hAcc>0.893746</hAcc><vAcc>0.682803</vAcc></extensions></trkpt>
      <trkpt lon="-3.154697" lat="53.018932"><ele>382.361786</ele><time>2021-09-01T10:31:38Z</time><extensions><speed>0.000000</speed><course>-1.000000</course><hAcc>0.893747</hAcc><vAcc>0.684320</vAcc></extensions></trkpt>
      <trkpt lon="-3.154697" lat="53.018932"><ele>382.361786</ele><time>2021-09-01T10:31:40Z</time><extensions><speed>0.000000</speed><course>-1.000000</course><hAcc>0.895546</hAcc><vAcc>0.687260</vAcc></extensions></trkpt>
      <trkpt lon="-3.154697" lat="53.018932"><ele>382.361786</ele><time>2021-09-01T10:31:41Z</time><extensions><speed>0.000000</speed><course>120.394302</course><hAcc>0.902023</hAcc><vAcc>0.693806</vAcc></extensions></trkpt>
      <trkpt lon="-3.154697" lat="53.018932"><ele>382.361786</ele><time>2021-09-01T10:31:41Z</time><extensions><speed>0.000000</speed><course>-1.000000</course><hAcc>0.917915</hAcc><vAcc>0.707406</vAcc></extensions></trkpt>
      <trkpt lon="-3.154697" lat="53.018932"><ele>382.361786</ele><time>2021-09-01T10:31:42Z</time><extensions><speed>0.000000</speed><course>-1.000000</course><hAcc>0.950014</hAcc><vAcc>0.732845</vAcc></extensions></trkpt>
      <trkpt lon="-3.154697" lat="53.018932"><ele>382.361786</ele><time>2021-09-01T10:31:43Z</time><extensions><speed>0.000000</speed><course>-1.000000</course><hAcc>0.915966</hAcc><vAcc>0.707098</vAcc></extensions></trkpt>
      <trkpt lon="-3.154697" lat="53.018932"><ele>382.361786</ele><time>2021-09-01T10:31:44Z</time><extensions><speed>0.000000</speed><course>-1.000000</course><hAcc>0.897823</hAcc><vAcc>0.687815</vAcc></extensions></trkpt>
      <trkpt lon="-3.154697" lat="53.018932"><ele>382.361786</ele><time>2021-09-01T10:31:45Z</time><extensions><speed>0.000000</speed><course>-1.000000</course><hAcc>0.890891</hAcc><vAcc>0.678412</vAcc></extensions></trkpt>
      <trkpt lon="-3.154697" lat="53.018932"><ele>382.361786</ele><time>2021-09-01T10:31:46Z</time><extensions><speed>0.000000</speed><course>-1.000000</course><hAcc>0.889732</hAcc><vAcc>0.674986</vAcc></extensions></trkpt>
      <trkpt lon="-3.154697" lat="53.018932"><ele>382.361786</ele><time>2021-09-01T10:31:47Z</time><extensions><speed>0.000000</speed><course>-1.000000</course><hAcc>0.890977</hAcc><vAcc>0.674919</vAcc></extensions></trkpt>
      <trkpt lon="-3.154697" lat="53.018932"><ele>382.361786</ele><time>2021-09-01T10:31:48Z</time><extensions><speed>0.000000</speed><course>-1.000000</course><hAcc>0.892825</hAcc><vAcc>0.676617</vAcc></extensions></trkpt>
      <trkpt lon="-3.154697" lat="53.018932"><ele>382.361786</ele><time>2021-09-01T10:31:49Z</time><extensions><speed>0.000000</speed><course>-1.000000</course><hAcc>0.894492</hAcc><vAcc>0.679179</vAcc></extensions></trkpt>
      <trkpt lon="-3.154697" lat="53.018932"><ele>382.361786</ele><time>2021-09-01T10:31:50Z</time><extensions><speed>0.000000</speed><course>-1.000000</course><hAcc>0.895781</hAcc><vAcc>0.682128</vAcc></extensions></trkpt>
      <trkpt lon="-3.154697" lat="53.018932"><ele>382.361786</ele><time>2021-09-01T10:31:51Z</time><extensions><speed>0.000000</speed><course>-1.000000</course><hAcc>0.896765</hAcc><vAcc>0.685213</vAcc></extensions></trkpt>
      <trkpt lon="-3.154697" lat="53.018932"><ele>382.361786</ele><time>2021-09-01T10:31:52Z</time><extensions><speed>0.000000</speed><course>184.559082</course><hAcc>0.897591</hAcc><vAcc>0.688281</vAcc></extensions></trkpt>
      <trkpt lon="-3.154697" lat="53.018932"><ele>382.361786</ele><time>2021-09-01T10:31:53Z</time><extensions><speed>0.000000</speed><course>-1.000000</course><hAcc>0.898356</hAcc><vAcc>0.691198</vAcc></extensions></trkpt>
      <trkpt lon="-3.154697" lat="53.018932"><ele>382.361786</ele><time>2021-09-01T10:31:54Z</time><extensions><speed>0.000000</speed><course>-1.000000</course><hAcc>0.899060</hAcc><vAcc>0.693818</vAcc></extensions></trkpt>
      <trkpt lon="-3.154697" lat="53.018932"><ele>382.361786</ele><time>2021-09-01T10:31:55Z</time><extensions><speed>0.000000</speed><course>-1.000000</course><hAcc>0.899602</hAcc><vAcc>0.695992</vAcc></extensions></trkpt>
      <trkpt lon="-3.154697" lat="53.018932"><ele>382.361786</ele><time>2021-09-01T10:31:56Z</time><extensions><speed>0.000000</speed><course>-1.000000</course><hAcc>0.899840</hAcc><vAcc>0.697625</vAcc></extensions></trkpt>
      <trkpt lon="-3.154697" lat="53.018932"><ele>382.361786</ele><time>2021-09-01T10:31:57Z</time><extensions><speed>0.000000</speed><course>53.307610</course><hAcc>0.899704</hAcc><vAcc>0.698770</vAcc></extensions></trkpt>
      <trkpt lon="-3.154697" lat="53.018932"><ele>382.361786</ele><time>2021-09-01T10:31:58Z</time><extensions><speed>0.000000</speed><course>-1.000000</course><hAcc>0.899379</hAcc><vAcc>0.699775</vAcc></extensions></trkpt>
      <trkpt lon="-3.154697" lat="53.018932"><ele>382.361786</ele><time>2021-09-01T10:31:59Z</time><extensions><speed>0.000000</speed><course>-1.000000</course><hAcc>0.899585</hAcc><vAcc>0.701491</vAcc></extensions></trkpt>
      <trkpt lon="-3.154697" lat="53.018932"><ele>382.361786</ele><time>2021-09-01T10:32:00Z</time><extensions><speed>0.000000</speed><course>-1.000000</course><hAcc>0.901951</hAcc><vAcc>0.705524</vAcc></extensions></trkpt>
      <trkpt lon="-3.154697" lat="53.018932"><ele>382.361786</ele><time>2021-09-01T10:32:01Z</time><extensions><speed>0.000000</speed><course>120.394302</course><hAcc>0.909480</hAcc><vAcc>0.714500</vAcc></extensions></trkpt>
      <trkpt lon="-3.154697" lat="53.018932"><ele>382.361786</ele><time>2021-09-01T10:32:02Z</time><extensions><speed>0.000000</speed><course>-1.000000</course><hAcc>0.926978</hAcc><vAcc>0.732240</vAcc></extensions></trkpt>
      <trkpt lon="-3.154697" lat="53.018932"><ele>382.361786</ele><time>2021-09-01T10:32:03Z</time><extensions><speed>0.000000</speed><course>-1.000000</course><hAcc>0.961205</hAcc><vAcc>0.763645</vAcc></extensions></trkpt>
      <trkpt lon="-3.154697" lat="53.018932"><ele>382.361786</ele><time>2021-09-01T10:32:04Z</time><extensions><speed>0.000000</speed><course>-1.000000</course><hAcc>0.925039</hAcc><vAcc>0.733056</vAcc></extensions></trkpt>
      <trkpt lon="-3.154697" lat="53.018932"><ele>382.361786</ele><time>2021-09-01T10:32:05Z</time><extensions><speed>0.000000</speed><course>-1.000000</course><hAcc>0.907385</hAcc><vAcc>0.715882</vAcc></extensions></trkpt>
      <trkpt lon="-3.154697" lat="53.018932"><ele>382.361786</ele><time>2021-09-01T10:32:06Z</time><extensions><speed>0.000000</speed><course>-1.000000</course><hAcc>0.901051</hAcc><vAcc>0.708937</vAcc></extensions></trkpt>
      <trkpt lon="-3.154697" lat="53.018932"><ele>382.361786</ele><time>2021-09-01T10:32:07Z</time><extensions><speed>0.000000</speed><course>-1.000000</course><hAcc>0.900531</hAcc><vAcc>0.707978</vAcc></extensions></trkpt>
      <trkpt lon="-3.154697" lat="53.018932"><ele>382.361786</ele><time>2021-09-01T10:32:08Z</time><extensions><speed>0.000000</speed><course>-1.000000</course><hAcc>0.902379</hAcc><vAcc>0.710100</vAcc></extensions></trkpt>
      <trkpt lon="-3.154697" lat="53.018932"><ele>382.361786</ele><time>2021-09-01T10:32:09Z</time><extensions><speed>0.000000</speed><course>-1.000000</course><hAcc>0.904724</hAcc><vAcc>0.713517</vAcc></extensions></trkpt>
      <trkpt lon="-3.154697" lat="53.018932"><ele>382.361786</ele><time>2021-09-01T10:32:10Z</time><extensions><speed>0.000000</speed><course>-1.000000</course><hAcc>0.906737</hAcc><vAcc>0.717228</vAcc></extensions></trkpt>
      <trkpt lon="-3.154697" lat="53.018932"><ele>382.361786</ele><time>2021-09-01T10:32:11Z</time><extensions><speed>0.000000</speed><course>-1.000000</course><hAcc>0.908191</hAcc><vAcc>0.720719</vAcc></extensions></trkpt>
      <trkpt lon="-3.154697" lat="53.018932"><ele>382.361786</ele><time>2021-09-01T10:32:12Z</time><extensions><speed>0.000000</speed><course>-1.000000</course><hAcc>0.909146</hAcc><vAcc>0.723738</vAcc></extensions></trkpt>
      <trkpt lon="-3.154697" lat="53.018932"><ele>382.361786</ele><time>2021-09-01T10:32:13Z</time><extensions><speed>0.000000</speed><course>184.559082</course><hAcc>0.909751</hAcc><vAcc>0.726153</vAcc></extensions></trkpt>
      <trkpt lon="-3.154697" lat="53.018932"><ele>382.361786</ele><time>2021-09-01T10:32:14Z</time><extensions><speed>0.000000</speed><course>-1.000000</course><hAcc>0.910119</hAcc><vAcc>0.727878</vAcc></extensions></trkpt>
      <trkpt lon="-3.154697" lat="53.018932"><ele>382.361786</ele><time>2021-09-01T10:32:15Z</time><extensions><speed>0.000000</speed><course>-1.000000</course><hAcc>0.910276</hAcc><vAcc>0.728844</vAcc></extensions></trkpt>
      <trkpt lon="-3.154697" lat="53.018932"><ele>382.361786</ele><time>2021-09-01T10:32:16Z</time><extensions><speed>0.000000</speed><course>-1.000000</course><hAcc>0.910164</hAcc><vAcc>0.729006</vAcc></extensions></trkpt>
      <trkpt lon="-3.154697" lat="53.018932"><ele>382.361786</ele><time>2021-09-01T10:32:17Z</time><extensions><speed>0.000000</speed><course>-1.000000</course><hAcc>0.909690</hAcc><vAcc>0.728395</vAcc></extensions></trkpt>
      <trkpt lon="-3.154697" lat="53.018932"><ele>382.361786</ele><time>2021-09-01T10:32:18Z</time><extensions><speed>0.000000</speed><course>53.307610</course><hAcc>0.908839</hAcc><vAcc>0.727213</vAcc></extensions></trkpt>
      <trkpt lon="-3.154697" lat="53.018932"><ele>382.361786</ele><time>2021-09-01T10:32:19Z</time><extensions><speed>0.000000</speed><course>-1.000000</course><hAcc>0.907858</hAcc><vAcc>0.725973</vAcc></extensions></trkpt>
      <trkpt lon="-3.154697" lat="53.018932"><ele>382.361786</ele><time>2021-09-01T10:32:20Z</time><extensions><speed>0.000000</speed><course>-1.000000</course><hAcc>0.907525</hAcc><vAcc>0.725695</vAcc></extensions></trkpt>
      <trkpt lon="-3.154697" lat="53.018932"><ele>382.361786</ele><time>2021-09-01T10:32:21Z</time><extensions><speed>0.000000</speed><course>-1.000000</course><hAcc>0.909524</hAcc><vAcc>0.728155</vAcc></extensions></trkpt>
      <trkpt lon="-3.154697" lat="53.018932"><ele>382.361786</ele><time>2021-09-01T10:32:22Z</time><extensions><speed>0.000000</speed><course>120.394302</course><hAcc>0.916899</hAcc><vAcc>0.736130</vAcc></extensions></trkpt>
      <trkpt lon="-3.154697" lat="53.018932"><ele>382.361786</ele><time>2021-09-01T10:32:23Z</time><extensions><speed>0.000000</speed><course>-1.000000</course><hAcc>0.934473</hAcc><vAcc>0.753553</vAcc></extensions></trkpt>
      <trkpt lon="-3.154697" lat="53.018932"><ele>382.361786</ele><time>2021-09-01T10:32:24Z</time><extensions><speed>0.000000</speed><course>-1.000000</course><hAcc>0.968983</hAcc><vAcc>0.785377</vAcc></extensions></trkpt>
      <trkpt lon="-3.154697" lat="53.018932"><ele>382.361786</ele><time>2021-09-01T10:32:25Z</time><extensions><speed>0.000000</speed><course>-1.000000</course><hAcc>0.931865</hAcc><vAcc>0.752347</vAcc></extensions></trkpt>
      <trkpt lon="-3.154697" lat="53.018932"><ele>382.361786</ele><time>2021-09-01T10:32:26Z</time><extensions><speed>0.000000</speed><course>-1.000000</course><hAcc>0.913445</hAcc><vAcc>0.733394</vAcc></extensions></trkpt>
      <trkpt lon="-3.154697" lat="53.018932"><ele>382.361786</ele><time>2021-09-01T10:32:27Z</time><extensions><speed>0.000000</speed><course>-1.000000</course><hAcc>0.906505</hAcc><vAcc>0.725165</vAcc></extensions></trkpt>
      <trkpt lon="-3.154697" lat="53.018932"><ele>382.361786</ele><time>2021-09-01T10:32:28Z</time><extensions><speed>0.000000</speed><course>-1.000000</course><hAcc>0.905539</hAcc><vAcc>0.723319</vAcc></extensions></trkpt>
      <trkpt lon="-3.154697" lat="53.018932"><ele>382.361786</ele><time>2021-09-01T10:32:29Z</time><extensions><speed>0.000000</speed><course>-1.000000</course><hAcc>0.907069</hAcc><vAcc>0.724786</vAcc></extensions></trkpt>
      <trkpt lon="-3.154697" lat="53.018932"><ele>382.361786</ele><time>2021-09-01T10:32:30Z</time><extensions><speed>0.000000</speed><course>-1.000000</course><hAcc>0.909182</hAcc><vAcc>0.727617</vAcc></extensions></trkpt>
      <trkpt lon="-3.154697" lat="53.018932"><ele>382.361786</ele><time>2021-09-01T10:32:31Z</time><extensions><speed>0.000000</speed><course>-1.000000</course><hAcc>0.911007</hAcc><vAcc>0.730695</vAcc></extensions></trkpt>
      <trkpt lon="-3.154697" lat="53.018932"><ele>382.361786</ele><time>2021-09-01T10:32:32Z</time><extensions><speed>0.000000</speed><course>-1.000000</course><hAcc>0.912284</hAcc><vAcc>0.733454</vAcc></extensions></trkpt>
      <trkpt lon="-3.154697" lat="53.018932"><ele>382.361786</ele><time>2021-09-01T10:32:33Z</time><extensions><speed>0.000000</speed><course>-1.000000</course><hAcc>0.913057</hAcc><vAcc>0.735651</vAcc></extensions></trkpt>
      <trkpt lon="-3.154697" lat="53.018932"><ele>382.361786</ele><time>2021-09-01T10:32:34Z</time><extensions><speed>0.000000</speed><course>184.559082</course><hAcc>0.913466</hAcc><vAcc>0.737204</vAcc></extensions></trkpt>
      <trkpt lon="-3.154697" lat="53.018932"><ele>382.361786</ele><time>2021-09-01T10:32:35Z</time><extensions><speed>0.000000</speed><course>-1.000000</course><hAcc>0.913623</hAcc><vAcc>0.738088</vAcc></extensions></trkpt>
      <trkpt lon="-3.154697" lat="53.018932"><ele>382.361786</ele><time>2021-09-01T10:32:36Z</time><extensions><speed>0.000000</speed><course>-1.000000</course><hAcc>0.913560</hAcc><vAcc>0.738285</vAcc></extensions></trkpt>
      <trkpt lon="-3.154697" lat="53.018932"><ele>382.361786</ele><time>2021-09-01T10:32:37Z</time><extensions><speed>0.000000</speed><course>-1.000000</course><hAcc>0.913222</hAcc><vAcc>0.737782</vAcc></extensions></trkpt>
      <trkpt lon="-3.154697" lat="53.018932"><ele>382.361786</ele><time>2021-09-01T10:32:38Z</time><extensions><speed>0.000000</speed><course>-1.000000</course><hAcc>0.912520</hAcc><vAcc>0.736614</vAcc></extensions></trkpt>
      <trkpt lon="-3.154697" lat="53.018932"><ele>382.361786</ele><time>2021-09-01T10:32:39Z</time><extensions><speed>0.000000</speed><course>53.307610</course><hAcc>0.911440</hAcc><vAcc>0.734956</vAcc></extensions></trkpt>
      <trkpt lon="-3.154697" lat="53.018932"><ele>382.361786</ele><time>2021-09-01T10:32:40Z</time><extensions><speed>0.000000</speed><course>-1.000000</course><hAcc>0.910223</hAcc><vAcc>0.733263</vAcc></extensions></trkpt>
      <trkpt lon="-3.154697" lat="53.018932"><ele>382.361786</ele><time>2021-09-01T10:32:41Z</time><extensions><speed>0.000000</speed><course>-1.000000</course><hAcc>0.909639</hAcc><vAcc>0.732476</vAcc></extensions></trkpt>
      <trkpt lon="-3.154697" lat="53.018932"><ele>382.361786</ele><time>2021-09-01T10:32:42Z</time><extensions><speed>0.000000</speed><course>-1.000000</course><hAcc>0.911361</hAcc><vAcc>0.734275</vAcc></extensions></trkpt>
      <trkpt lon="-3.154697" lat="53.018932"><ele>382.361786</ele><time>2021-09-01T10:32:43Z</time><extensions><speed>0.000000</speed><course>120.394302</course><hAcc>0.918415</hAcc><vAcc>0.741353</vAcc></extensions></trkpt>
      <trkpt lon="-3.154697" lat="53.018932"><ele>382.361786</ele><time>2021-09-01T10:32:44Z</time><extensions><speed>0.000000</speed><course>-1.000000</course><hAcc>0.935614</hAcc><vAcc>0.757585</vAcc></extensions></trkpt>
      <trkpt lon="-3.154697" lat="53.018932"><ele>382.361786</ele><time>2021-09-01T10:32:45Z</time><extensions><speed>0.000000</speed><course>-1.000000</course><hAcc>0.969693</hAcc><vAcc>0.787933</vAcc></extensions></trkpt>
      <trkpt lon="-3.154697" lat="53.018932"><ele>382.361786</ele><time>2021-09-01T10:32:46Z</time><extensions><speed>0.000000</speed><course>-1.000000</course><hAcc>0.933049</hAcc><vAcc>0.755477</vAcc></extensions></trkpt>
      <trkpt lon="-3.154697" lat="53.018932"><ele>382.361786</ele><time>2021-09-01T10:32:47Z</time><extensions><speed>0.000000</speed><course>-1.000000</course><hAcc>0.913599</hAcc><vAcc>0.733433</vAcc></extensions></trkpt>
      <trkpt lon="-3.154697" lat="53.018932"><ele>382.361786</ele><time>2021-09-01T10:32:48Z</time><extensions><speed>0.000000</speed><course>-1.000000</course><hAcc>0.905689</hAcc><vAcc>0.722296</vAcc></extensions></trkpt>
      <trkpt lon="-3.154697" lat="53.018932"><ele>382.361786</ele><time>2021-09-01T10:32:49Z</time><extensions><speed>0.000000</speed><course>-1.000000</course><hAcc>0.903836</hAcc><vAcc>0.717778</vAcc></extensions></trkpt>
      <trkpt lon="-3.154697" lat="53.018932"><ele>382.361786</ele><time>2021-09-01T10:32:50Z</time><extensions><speed>0.000000</speed><course>-1.000000</course><hAcc>0.904568</hAcc><vAcc>0.716816</vAcc></extensions></trkpt>
      <trkpt lon="-3.154697" lat="53.018932"><ele>382.361786</ele><time>2021-09-01T10:32:51Z</time><extensions><speed>0.000000</speed><course>-1.000000</course><hAcc>0.905967</hAcc><vAcc>0.717448</vAcc></extensions></trkpt>
      <trkpt lon="-3.154697" lat="53.018932"><ele>382.361786</ele><time>2021-09-01T10:32:52Z</time><extensions><speed>0.000000</speed><course>-1.000000</course><hAcc>0.907163</hAcc><vAcc>0.718556</vAcc></extensions></trkpt>
      <trkpt lon="-3.154697" lat="53.018932"><ele>382.361786</ele><time>2021-09-01T10:32:53Z</time><extensions><speed>0.000000</speed><course>-1.000000</course><hAcc>0.907899</hAcc><vAcc>0.719588</vAcc></extensions></trkpt>
      <trkpt lon="-3.154697" lat="53.018932"><ele>382.361786</ele><time>2021-09-01T10:32:54Z</time><extensions><speed>0.000000</speed><course>-1.000000</course><hAcc>0.908227</hAcc><vAcc>0.720323</vAcc></extensions></trkpt>
      <trkpt lon="-3.154697" lat="53.018932"><ele>382.361786</ele><time>2021-09-01T10:32:55Z</time><extensions><speed>0.000000</speed><course>184.559082</course><hAcc>0.908295</hAcc><vAcc>0.720711</vAcc></extensions></trkpt>
      <trkpt lon="-3.154697" lat="53.018932"><ele>382.361786</ele><time>2021-09-01T10:32:56Z</time><extensions><speed>0.000000</speed><course>-1.000000</course><hAcc>0.908225</hAcc><vAcc>0.720763</vAcc></extensions></trkpt>
      <trkpt lon="-3.154697" lat="53.018932"><ele>382.361786</ele><time>2021-09-01T10:32:57Z</time><extensions><speed>0.000000</speed><course>-1.000000</course><hAcc>0.908058</hAcc><vAcc>0.720495</vAcc></extensions></trkpt>
      <trkpt lon="-3.154697" lat="53.018932"><ele>382.361786</ele><time>2021-09-01T10:32:58Z</time><extensions><speed>0.000000</speed><course>-1.000000</course><hAcc>0.907743</hAcc><vAcc>0.719924</vAcc></extensions></trkpt>
      <trkpt lon="-3.154697" lat="53.018932"><ele>382.361786</ele><time>2021-09-01T10:32:59Z</time><extensions><speed>0.000000</speed><course>-1.000000</course><hAcc>0.907193</hAcc><vAcc>0.719107</vAcc></extensions></trkpt>
      <trkpt lon="-3.154697" lat="53.018932"><ele>382.361786</ele><time>2021-09-01T10:33:00Z</time><extensions><speed>0.000000</speed><course>53.307610</course><hAcc>0.906394</hAcc><vAcc>0.718231</vAcc></extensions></trkpt>
      <trkpt lon="-3.154697" lat="53.018932"><ele>382.361786</ele><time>2021-09-01T10:33:01Z</time><extensions><speed>0.000000</speed><course>-1.000000</course><hAcc>0.905586</hAcc><vAcc>0.717766</vAcc></extensions></trkpt>
      <trkpt lon="-3.154697" lat="53.018932"><ele>382.361786</ele><time>2021-09-01T10:33:02Z</time><extensions><speed>0.000000</speed><course>-1.000000</course><hAcc>0.905541</hAcc><vAcc>0.718668</vAcc></extensions></trkpt>
      <trkpt lon="-3.154697" lat="53.018932"><ele>382.361786</ele><time>2021-09-01T10:33:03Z</time><extensions><speed>0.000000</speed><course>-1.000000</course><hAcc>0.907931</hAcc><vAcc>0.722635</vAcc></extensions></trkpt>
      <trkpt lon="-3.154697" lat="53.018932"><ele>382.361786</ele><time>2021-09-01T10:33:04Z</time><extensions><speed>0.000000</speed><course>120.394302</course><hAcc>0.915787</hAcc><vAcc>0.732357</vAcc></extensions></trkpt>
      <trkpt lon="-3.154697" lat="53.018932"><ele>382.361786</ele><time>2021-09-01T10:33:05Z</time><extensions><speed>0.000000</speed><course>-1.000000</course><hAcc>0.933910</hAcc><vAcc>0.751665</vAcc></extensions></trkpt>
      <trkpt lon="-3.154697" lat="53.018932"><ele>382.361786</ele><time>2021-09-01T10:33:06Z</time><extensions><speed>0.000000</speed><course>-1.000000</course><hAcc>0.969006</hAcc><vAcc>0.785398</vAcc></extensions></trkpt>
      <trkpt lon="-3.154697" lat="53.018932"><ele>382.361786</ele><time>2021-09-01T10:33:07Z</time><extensions><speed>0.000000</speed><course>-1.000000</course><hAcc>0.931164</hAcc><vAcc>0.750936</vAcc></extensions></trkpt>
      <trkpt lon="-3.154697" lat="53.018932"><ele>382.361786</ele><time>2021-09-01T10:33:08Z</time><extensions><speed>0.000000</speed><course>-1.000000</course><hAcc>0.912943</hAcc><vAcc>0.732631</vAcc></extensions></trkpt>
      <trkpt lon="-3.154697" lat="53.018932"><ele>382.361786</ele><time>2021-09-01T10:33:09Z</time><extensions><speed>0.000000</speed><course>-1.000000</course><hAcc>0.906070</hAcc><vAcc>0.724581</vAcc></extensions></trkpt>
      <trkpt lon="-3.154697" lat="53.018932"><ele>382.361786</ele><time>2021-09-01T10:33:10Z</time><extensions><speed>0.000000</speed><course>-1.000000</course><hAcc>0.905048</hAcc><vAcc>0.722481</vAcc></extensions></trkpt>
      <trkpt lon="-3.154697" lat="53.018932"><ele>382.361786</ele><time>2021-09-01T10:33:11Z</time><extensions><speed>0.000000</speed><course>-1.000000</course><hAcc>0.906420</hAcc><vAcc>0.723327</vAcc></extensions></trkpt>
      <trkpt lon="-3.154697" lat="53.018932"><ele>382.361786</ele><time>2021-09-01T10:33:12Z</time><extensions><speed>0.000000</speed><course>-1.000000</course><hAcc>0.908293</hAcc><vAcc>0.725253</vAcc></extensions></trkpt>
      <trkpt lon="-3.154697" lat="53.018932"><ele>382.361786</ele><time>2021-09-01T10:33:13Z</time><extensions><speed>0.000000</speed><course>-1.000000</course><hAcc>0.909822</hAcc><vAcc>0.727233</vAcc></extensions></trkpt>
      <trkpt lon="-3.154697" lat="53.018932"><ele>382.361786</ele><time>2021-09-01T10:33:14Z</time><extensions><speed>0.000000</speed><course>-1.000000</course><hAcc>0.910774</hAcc><vAcc>0.728797</vAcc></extensions></trkpt>
      <trkpt lon="-3.154697" lat="53.018932"><ele>382.361786</ele><time>2021-09-01T10:33:15Z</time><extensions><speed>0.000000</speed><course>-1.000000</course><hAcc>0.911217</hAcc><vAcc>0.729790</vAcc></extensions></trkpt>
      <trkpt lon="-3.154697" lat="53.018932"><ele>382.361786</ele><time>2021-09-01T10:33:16Z</time><extensions><speed>0.000000</speed><course>184.559082</course><hAcc>0.911314</hAcc><vAcc>0.730213</vAcc></extensions></trkpt>
      <trkpt lon="-3.154697" lat="53.018932"><ele>382.361786</ele><time>2021-09-01T10:33:17Z</time><extensions><speed>0.000000</speed><course>-1.000000</course><hAcc>0.911201</hAcc><vAcc>0.730111</vAcc></extensions></trkpt>
      <trkpt lon="-3.154697" lat="53.018932"><ele>382.361786</ele><time>2021-09-01T10:33:18Z</time><extensions><speed>0.000000</speed><course>-1.000000</course><hAcc>0.910928</hAcc><vAcc>0.729523</vAcc></extensions></trkpt>
      <trkpt lon="-3.154697" lat="53.018932"><ele>382.361786</ele><time>2021-09-01T10:33:19Z</time><extensions><speed>0.000000</speed><course>-1.000000</course><hAcc>0.910458</hAcc><vAcc>0.728485</vAcc></extensions></trkpt>
      <trkpt lon="-3.154697" lat="53.018932"><ele>382.361786</ele><time>2021-09-01T10:33:20Z</time><extensions><speed>0.000000</speed><course>-1.000000</course><hAcc>0.909715</hAcc><vAcc>0.727074</vAcc></extensions></trkpt>
      <trkpt lon="-3.154697" lat="53.018932"><ele>382.361786</ele><time>2021-09-01T10:33:21Z</time><extensions><speed>0.000000</speed><course>53.307610</course><hAcc>0.908697</hAcc><vAcc>0.725501</vAcc></extensions></trkpt>
      <trkpt lon="-3.154697" lat="53.018932"><ele>382.361786</ele><time>2021-09-01T10:33:22Z</time><extensions><speed>0.000000</speed><course>-1.000000</course><hAcc>0.907657</hAcc><vAcc>0.724265</vAcc></extensions></trkpt>
      <trkpt lon="-3.154697" lat="53.018932"><ele>382.361786</ele><time>2021-09-01T10:33:23Z</time><extensions><speed>0.000000</speed><course>-1.000000</course><hAcc>0.907376</hAcc><vAcc>0.724359</vAcc></extensions></trkpt>
      <trkpt lon="-3.154697" lat="53.018932"><ele>382.361786</ele><time>2021-09-01T10:33:24Z</time><extensions><speed>0.000000</speed><course>-1.000000</course><hAcc>0.909538</hAcc><vAcc>0.727516</vAcc></extensions></trkpt>
      <trkpt lon="-3.154697" lat="53.018932"><ele>382.361786</ele><time>2021-09-01T10:33:25Z</time><extensions><speed>0.000000</speed><course>120.394302</course><hAcc>0.917179</hAcc><vAcc>0.736465</vAcc></extensions></trkpt>
      <trkpt lon="-3.154697" lat="53.018932"><ele>382.361786</ele><time>2021-09-01T10:33:26Z</time><extensions><speed>0.000000</speed><course>-1.000000</course><hAcc>0.935107</hAcc><vAcc>0.755073</vAcc></extensions></trkpt>
      <trkpt lon="-3.154697" lat="53.018932"><ele>382.361786</ele><time>2021-09-01T10:33:27Z</time><extensions><speed>0.000000</speed><course>-1.000000</course><hAcc>0.970031</hAcc><vAcc>0.788215</vAcc></extensions></trkpt>
      <trkpt lon="-3.154697" lat="53.018932"><ele>382.361786</ele><time>2021-09-01T10:33:28Z</time><extensions><speed>0.000000</speed><course>-1.000000</course><hAcc>0.932253</hAcc><vAcc>0.753727</vAcc></extensions></trkpt>
      <trkpt lon="-3.154697" lat="53.018932"><ele>382.361786</ele><time>2021-09-01T10:33:30Z</time><extensions><speed>0.000000</speed><course>-1.000000</course><hAcc>0.913802</hAcc><vAcc>0.734832</vAcc></extensions></trkpt>
      <trkpt lon="-3.154697" lat="53.018932"><ele>382.361786</ele><time>2021-09-01T10:33:31Z</time><extensions><speed>0.000000</speed><course>-1.000000</course><hAcc>0.906750</hAcc><vAcc>0.726373</vAcc></extensions></trkpt>
      <trkpt lon="-3.154697" lat="53.018932"><ele>382.361786</ele><time>2021-09-01T10:33:32Z</time><extensions><speed>0.000000</speed><course>-1.000000</course><hAcc>0.905592</hAcc><vAcc>0.724006</vAcc></extensions></trkpt>
      <trkpt lon="-3.154697" lat="53.018932"><ele>382.361786</ele><time>2021-09-01T10:33:33Z</time><extensions><speed>0.000000</speed><course>-1.000000</course><hAcc>0.906863</hAcc><vAcc>0.724684</vAcc></extensions></trkpt>
      <trkpt lon="-3.154697" lat="53.018932"><ele>382.361786</ele><time>2021-09-01T10:33:34Z</time><extensions><speed>0.000000</speed><course>-1.000000</course><hAcc>0.908663</hAcc><vAcc>0.726493</vAcc></extensions></trkpt>
      <trkpt lon="-3.154697" lat="53.018932"><ele>382.361786</ele><time>2021-09-01T10:33:35Z</time><extensions><speed>0.000000</speed><course>-1.000000</course><hAcc>0.910137</hAcc><vAcc>0.728369</vAcc></extensions></trkpt>
      <trkpt lon="-3.154697" lat="53.018932"><ele>382.361786</ele><time>2021-09-01T10:33:36Z</time><extensions><speed>0.000000</speed><course>-1.000000</course><hAcc>0.911043</hAcc><vAcc>0.729813</vAcc></extensions></trkpt>
      <trkpt lon="-3.154697" lat="53.018932"><ele>382.361786</ele><time>2021-09-01T10:33:37Z</time><extensions><speed>0.000000</speed><course>-1.000000</course><hAcc>0.911443</hAcc><vAcc>0.730657</vAcc></extensions></trkpt>
      <trkpt lon="-3.154697" lat="53.018932"><ele>382.361786</ele><time>2021-09-01T10:33:38Z</time><extensions><speed>0.000000</speed><course>184.559082</course><hAcc>0.911497</hAcc><vAcc>0.730897</vAcc></extensions></trkpt>
      <trkpt lon="-3.154697" lat="53.018932"><ele>382.361786</ele><time>2021-09-01T10:33:39Z</time><extensions><speed>0.000000</speed><course>-1.000000</course><hAcc>0.911341</hAcc><vAcc>0.730588</vAcc></extensions></trkpt>
      <trkpt lon="-3.154697" lat="53.018932"><ele>382.361786</ele><time>2021-09-01T10:33:40Z</time><extensions><speed>0.000000</speed><course>-1.000000</course><hAcc>0.911023</hAcc><vAcc>0.729790</vAcc></extensions></trkpt>
      <trkpt lon="-3.154697" lat="53.018932"><ele>382.361786</ele><time>2021-09-01T10:33:41Z</time><extensions><speed>0.000000</speed><course>-1.000000</course><hAcc>0.910505</hAcc><vAcc>0.728561</vAcc></extensions></trkpt>
      <trkpt lon="-3.154697" lat="53.018932"><ele>382.361786</ele><time>2021-09-01T10:33:42Z</time><extensions><speed>0.000000</speed><course>-1.000000</course><hAcc>0.909711</hAcc><vAcc>0.726991</vAcc></extensions></trkpt>
      <trkpt lon="-3.154697" lat="53.018932"><ele>382.361786</ele><time>2021-09-01T10:33:43Z</time><extensions><speed>0.000000</speed><course>53.307610</course><hAcc>0.908633</hAcc><vAcc>0.725292</vAcc></extensions></trkpt>
      <trkpt lon="-3.154697" lat="53.018932"><ele>382.361786</ele><time>2021-09-01T10:33:43Z</time><extensions><speed>0.000000</speed><course>-1.000000</course><hAcc>0.907539</hAcc><vAcc>0.723964</vAcc></extensions></trkpt>
      <trkpt lon="-3.154697" lat="53.018932"><ele>382.361786</ele><time>2021-09-01T10:33:44Z</time><extensions><speed>0.000000</speed><course>-1.000000</course><hAcc>0.907197</hAcc><vAcc>0.723962</vAcc></extensions></trkpt>
      <trkpt lon="-3.154697" lat="53.018932"><ele>382.361786</ele><time>2021-09-01T10:33:45Z</time><extensions><speed>0.000000</speed><course>-1.000000</course><hAcc>0.909264</hAcc><vAcc>0.726958</vAcc></extensions></trkpt>
      <trkpt lon="-3.154697" lat="53.018932"><ele>382.361786</ele><time>2021-09-01T10:33:46Z</time><extensions><speed>0.000000</speed><course>120.394302</course><hAcc>0.916768</hAcc><vAcc>0.735618</vAcc></extensions></trkpt>
      <trkpt lon="-3.154697" lat="53.018932"><ele>382.361786</ele><time>2021-09-01T10:33:47Z</time><extensions><speed>0.000000</speed><course>-1.000000</course><hAcc>0.934511</hAcc><vAcc>0.753749</vAcc></extensions></trkpt>
      <trkpt lon="-3.154697" lat="53.018932"><ele>382.361786</ele><time>2021-09-01T10:33:48Z</time><extensions><speed>0.000000</speed><course>-1.000000</course><hAcc>0.969208</hAcc><vAcc>0.786201</vAcc></extensions></trkpt>
      <trkpt lon="-3.154697" lat="53.018932"><ele>382.361786</ele><time>2021-09-01T10:33:49Z</time><extensions><speed>0.000000</speed><course>-1.000000</course><hAcc>0.931715</hAcc><vAcc>0.752311</vAcc></extensions></trkpt>
      <trkpt lon="-3.154697" lat="53.018932"><ele>382.361786</ele><time>2021-09-01T10:33:50Z</time><extensions><speed>0.000000</speed><course>-1.000000</course><hAcc>0.913208</hAcc><vAcc>0.733075</vAcc></extensions></trkpt>
      <trkpt lon="-3.154697" lat="53.018932"><ele>382.361786</ele><time>2021-09-01T10:33:51Z</time><extensions><speed>0.000000</speed><course>-1.000000</course><hAcc>0.906093</hAcc><vAcc>0.724256</vAcc></extensions></trkpt>
      <trkpt lon="-3.154697" lat="53.018932"><ele>382.361786</ele><time>2021-09-01T10:33:52Z</time><extensions><speed>0.000000</speed><course>-1.000000</course><hAcc>0.904880</hAcc><vAcc>0.721583</vAcc></extensions></trkpt>
      <trkpt lon="-3.154697" lat="53.018932"><ele>382.361786</ele><time>2021-09-01T10:33:53Z</time><extensions><speed>0.000000</speed><course>-1.000000</course><hAcc>0.906108</hAcc><vAcc>0.722046</vAcc></extensions></trkpt>
      <trkpt lon="-3.154697" lat="53.018932"><ele>382.361786</ele><time>2021-09-01T10:33:54Z</time><extensions><speed>0.000000</speed><course>-1.000000</course><hAcc>0.907882</hAcc><vAcc>0.723749</vAcc></extensions></trkpt>
      <trkpt lon="-3.154697" lat="53.018932"><ele>382.361786</ele><time>2021-09-01T10:33:55Z</time><extensions><speed>0.000000</speed><course>-1.000000</course><hAcc>0.909348</hAcc><vAcc>0.725627</vAcc></extensions></trkpt>
      <trkpt lon="-3.154697" lat="53.018932"><ele>382.361786</ele><time>2021-09-01T10:33:56Z</time><extensions><speed>0.000000</speed><course>-1.000000</course><hAcc>0.910266</hAcc><vAcc>0.727168</vAcc></extensions></trkpt>
      <trkpt lon="-3.154697" lat="53.018932"><ele>382.361786</ele><time>2021-09-01T10:33:57Z</time><extensions><speed>0.000000</speed><course>-1.000000</course><hAcc>0.910700</hAcc><vAcc>0.728189</vAcc></extensions></trkpt>
      <trkpt lon="-3.154697" lat="53.018932"><ele>382.361786</ele><time>2021-09-01T10:33:58Z</time><extensions><speed>0.000000</speed><course>184.559082</course><hAcc>0.910810</hAcc><vAcc>0.728667</vAcc></extensions></trkpt>
      <trkpt lon="-3.154697" lat="53.018932"><ele>382.361786</ele><time>2021-09-01T10:33:59Z</time><extensions><speed>0.000000</speed><course>-1.000000</course><hAcc>0.910728</hAcc><vAcc>0.728641</vAcc></extensions></trkpt>
      <trkpt lon="-3.154697" lat="53.018932"><ele>382.361786</ele><time>2021-09-01T10:34:00Z</time><extensions><speed>0.000000</speed><course>-1.000000</course><hAcc>0.910503</hAcc><vAcc>0.728159</vAcc></extensions></trkpt>
      <trkpt lon="-3.154697" lat="53.018932"><ele>382.361786</ele><time>2021-09-01T10:34:01Z</time><extensions><speed>0.000000</speed><course>-1.000000</course><hAcc>0.910097</hAcc><vAcc>0.727271</vAcc></extensions></trkpt>
      <trkpt lon="-3.154697" lat="53.018932"><ele>382.361786</ele><time>2021-09-01T10:34:02Z</time><extensions><speed>0.000000</speed><course>-1.000000</course><hAcc>0.909434</hAcc><vAcc>0.726071</vAcc></extensions></trkpt>
      <trkpt lon="-3.154697" lat="53.018932"><ele>382.361786</ele><time>2021-09-01T10:34:03Z</time><extensions><speed>0.000000</speed><course>53.307610</course><hAcc>0.908510</hAcc><vAcc>0.724787</vAcc></extensions></trkpt>
      <trkpt lon="-3.154697" lat="53.018932"><ele>382.361786</ele><time>2021-09-01T10:34:04Z</time><extensions><speed>0.000000</speed><course>-1.000000</course><hAcc>0.907576</hAcc><vAcc>0.723923</vAcc></extensions></trkpt>
      <trkpt lon="-3.154697" lat="53.018932"><ele>382.361786</ele><time>2021-09-01T10:34:05Z</time><extensions><speed>0.000000</speed><course>-1.000000</course><hAcc>0.907411</hAcc><vAcc>0.724455</vAcc></extensions></trkpt>
      <trkpt lon="-3.154697" lat="53.018932"><ele>382.361786</ele><time>2021-09-01T10:34:06Z</time><extensions><speed>0.000000</speed><course>-1.000000</course><hAcc>0.909695</hAcc><vAcc>0.728081</vAcc></extensions></trkpt>
      <trkpt lon="-3.154697" lat="53.018932"><ele>382.361786</ele><time>2021-09-01T10:34:07Z</time><extensions><speed>0.000000</speed><course>120.394302</course><hAcc>0.917457</hAcc><vAcc>0.737476</vAcc></extensions></trkpt>
      <trkpt lon="-3.154697" lat="53.018932"><ele>382.361786</ele><time>2021-09-01T10:34:08Z</time><extensions><speed>0.000000</speed><course>-1.000000</course><hAcc>0.935496</hAcc><vAcc>0.756448</vAcc></extensions></trkpt>
      <trkpt lon="-3.154697" lat="53.018932"><ele>382.361786</ele><time>2021-09-01T10:34:09Z</time><extensions><speed>0.000000</speed><course>-1.000000</course><hAcc>0.970511</hAcc><vAcc>0.789821</vAcc></extensions></trkpt>
      <trkpt lon="-3.154697" lat="53.018932"><ele>382.361786</ele><time>2021-09-01T10:34:10Z</time><extensions><speed>0.000000</speed><course>-1.000000</course><hAcc>0.933075</hAcc><vAcc>0.756229</vAcc></extensions></trkpt>
      <trkpt lon="-3.154697" lat="53.018932"><ele>382.361786</ele><time>2021-09-01T10:34:11Z</time><extensions><speed>0.000000</speed><course>-1.000000</course><hAcc>0.914645</hAcc><vAcc>0.737343</vAcc></extensions></trkpt>
      <trkpt lon="-3.154697" lat="53.018932"><ele>382.361786</ele><time>2021-09-01T10:34:12Z</time><extensions><speed>0.000000</speed><course>-1.000000</course><hAcc>0.907640</hAcc><vAcc>0.728958</vAcc></extensions></trkpt>
      <trkpt lon="-3.154697" lat="53.018932"><ele>382.361786</ele><time>2021-09-01T10:34:13Z</time><extensions><speed>0.000000</speed><course>-1.000000</course><hAcc>0.906564</hAcc><vAcc>0.726782</vAcc></extensions></trkpt>
      <trkpt lon="-3.154697" lat="53.018932"><ele>382.361786</ele><time>2021-09-01T10:34:14Z</time><extensions><speed>0.000000</speed><course>-1.000000</course><hAcc>0.907951</hAcc><vAcc>0.727787</vAcc></extensions></trkpt>
      <trkpt lon="-3.154697" lat="53.018932"><ele>382.361786</ele><time>2021-09-01T10:34:15Z</time><extensions><speed>0.000000</speed><course>-1.000000</course><hAcc>0.909898</hAcc><vAcc>0.730058</vAcc></extensions></trkpt>
      <trkpt lon="-3.154697" lat="53.018932"><ele>382.361786</ele><time>2021-09-01T10:34:16Z</time><extensions><speed>0.000000</speed><course>-1.000000</course><hAcc>0.911541</hAcc><vAcc>0.732502</vAcc></extensions></trkpt>
      <trkpt lon="-3.154697" lat="53.018932"><ele>382.361786</ele><time>2021-09-01T10:34:17Z</time><extensions><speed>0.000000</speed><course>-1.000000</course><hAcc>0.912629</hAcc><vAcc>0.734582</vAcc></extensions></trkpt>
      <trkpt lon="-3.154697" lat="53.018932"><ele>382.361786</ele><time>2021-09-01T10:34:18Z</time><extensions><speed>0.000000</speed><course>-1.000000</course><hAcc>0.913215</hAcc><vAcc>0.736088</vAcc></extensions></trkpt>
      <trkpt lon="-3.154697" lat="53.018932"><ele>382.361786</ele><time>2021-09-01T10:34:19Z</time><extensions><speed>0.000000</speed><course>184.559082</course><hAcc>0.913447</hAcc><vAcc>0.736972</vAcc></extensions></trkpt>
      <trkpt lon="-3.154697" lat="53.018932"><ele>382.361786</ele><time>2021-09-01T10:34:20Z</time><extensions><speed>0.000000</speed><course>-1.000000</course><hAcc>0.913448</hAcc><vAcc>0.737251</vAcc></extensions></trkpt>
      <trkpt lon="-3.154697" lat="53.018932"><ele>382.361786</ele><time>2021-09-01T10:34:21Z</time><extensions><speed>0.000000</speed><course>-1.000000</course><hAcc>0.913262</hAcc><vAcc>0.736947</vAcc></extensions></trkpt>
      <trkpt lon="-3.154697" lat="53.018932"><ele>382.361786</ele><time>2021-09-01T10:34:22Z</time><extensions><speed>0.000000</speed><course>-1.000000</course><hAcc>0.912842</hAcc><vAcc>0.736086</vAcc></extensions></trkpt>
      <trkpt lon="-3.154697" lat="53.018932"><ele>382.361786</ele><time>2021-09-01T10:34:23Z</time><extensions><speed>0.000000</speed><course>-1.000000</course><hAcc>0.912109</hAcc><vAcc>0.734744</vAcc></extensions></trkpt>
      <trkpt lon="-3.154697" lat="53.018932"><ele>382.361786</ele><time>2021-09-01T10:34:24Z</time><extensions><speed>0.000000</speed><course>53.307610</course><hAcc>0.911056</hAcc><vAcc>0.733126</vAcc></extensions></trkpt>
      <trkpt lon="-3.154697" lat="53.018932"><ele>382.361786</ele><time>2021-09-01T10:34:25Z</time><extensions><speed>0.000000</speed><course>-1.000000</course><hAcc>0.909931</hAcc><vAcc>0.731715</vAcc></extensions></trkpt>
      <trkpt lon="-3.154697" lat="53.018932"><ele>382.361786</ele><time>2021-09-01T10:34:26Z</time><extensions><speed>0.000000</speed><course>-1.000000</course><hAcc>0.909511</hAcc><vAcc>0.731464</vAcc></extensions></trkpt>
      <trkpt lon="-3.154697" lat="53.018932"><ele>382.361786</ele><time>2021-09-01T10:34:27Z</time><extensions><speed>0.000000</speed><course>-1.000000</course><hAcc>0.911471</hAcc><vAcc>0.734053</vAcc></extensions></trkpt>
      <trkpt lon="-3.154697" lat="53.018932"><ele>382.361786</ele><time>2021-09-01T10:34:28Z</time><extensions><speed>0.000000</speed><course>120.394302</course><hAcc>0.918839</hAcc><vAcc>0.742157</vAcc></extensions></trkpt>
      <trkpt lon="-3.154697" lat="53.018932"><ele>382.361786</ele><time>2021-09-01T10:34:29Z</time><extensions><speed>0.000000</speed><course>-1.000000</course><hAcc>0.936414</hAcc><vAcc>0.759606</vAcc></extensions></trkpt>
      <trkpt lon="-3.154697" lat="53.018932"><ele>382.361786</ele><time>2021-09-01T10:34:30Z</time><extensions><speed>0.000000</speed><course>-1.000000</course><hAcc>0.970912</hAcc><vAcc>0.791276</vAcc></extensions></trkpt>
      <trkpt lon="-3.154697" lat="53.018932"><ele>382.361786</ele><time>2021-09-01T10:34:31Z</time><extensions><speed>0.000000</speed><course>-1.000000</course><hAcc>0.933532</hAcc><vAcc>0.757230</vAcc></extensions></trkpt>
      <trkpt lon="-3.154697" lat="53.018932"><ele>382.361786</ele><time>2021-09-01T10:34:32Z</time><extensions><speed>0.000000</speed><course>-1.000000</course><hAcc>0.914212</hAcc><vAcc>0.735651</vAcc></extensions></trkpt>
      <trkpt lon="-3.154697" lat="53.018932"><ele>382.361786</ele><time>2021-09-01T10:34:33Z</time><extensions><speed>0.000000</speed><course>-1.000000</course><hAcc>0.906392</hAcc><vAcc>0.724780</vAcc></extensions></trkpt>
      <trkpt lon="-3.154697" lat="53.018932"><ele>382.361786</ele><time>2021-09-01T10:34:34Z</time><extensions><speed>0.000000</speed><course>-1.000000</course><hAcc>0.904597</hAcc><vAcc>0.720373</vAcc></extensions></trkpt>
      <trkpt lon="-3.154697" lat="53.018932"><ele>382.361786</ele><time>2021-09-01T10:34:35Z</time><extensions><speed>0.000000</speed><course>-1.000000</course><hAcc>0.905365</hAcc><vAcc>0.719426</vAcc></extensions></trkpt>
      <trkpt lon="-3.154697" lat="53.018932"><ele>382.361786</ele><time>2021-09-01T10:34:36Z</time><extensions><speed>0.000000</speed><course>-1.000000</course><hAcc>0.906787</hAcc><vAcc>0.720041</vAcc></extensions></trkpt>
      <trkpt lon="-3.154697" lat="53.018932"><ele>382.361786</ele><time>2021-09-01T10:34:37Z</time><extensions><speed>0.000000</speed><course>-1.000000</course><hAcc>0.907997</hAcc><vAcc>0.721145</vAcc></extensions></trkpt>
      <trkpt lon="-3.154697" lat="53.018932"><ele>382.361786</ele><time>2021-09-01T10:34:38Z</time><extensions><speed>0.000000</speed><course>-1.000000</course><hAcc>0.908743</hAcc><vAcc>0.722203</vAcc></extensions></trkpt>
      <trkpt lon="-3.154697" lat="53.018932"><ele>382.361786</ele><time>2021-09-01T10:34:39Z</time><extensions><speed>0.000000</speed><course>-1.000000</course><hAcc>0.909076</hAcc><vAcc>0.722987</vAcc></extensions></trkpt>
      <trkpt lon="-3.154697" lat="53.018932"><ele>382.361786</ele><time>2021-09-01T10:34:40Z</time><extensions><speed>0.000000</speed><course>184.559082</course><hAcc>0.909140</hAcc><vAcc>0.723414</vAcc></extensions></trkpt>
      <trkpt lon="-3.154697" lat="53.018932"><ele>382.361786</ele><time>2021-09-01T10:34:41Z</time><extensions><speed>0.000000</speed><course>-1.000000</course><hAcc>0.909055</hAcc><vAcc>0.723458</vAcc></extensions></trkpt>
      <trkpt lon="-3.154697" lat="53.018932"><ele>382.361786</ele><time>2021-09-01T10:34:42Z</time><extensions><speed>0.000000</speed><course>-1.000000</course><hAcc>0.908857</hAcc><vAcc>0.723107</vAcc></extensions></trkpt>
      <trkpt lon="-3.154697" lat="53.018932"><ele>382.361786</ele><time>2021-09-01T10:34:43Z</time><extensions><speed>0.000000</speed><course>-1.000000</course><hAcc>0.908494</hAcc><vAcc>0.722369</vAcc></extensions></trkpt>
      <trkpt lon="-3.154697" lat="53.018932"><ele>382.361786</ele><time>2021-09-01T10:34:44Z</time><extensions><speed>0.000000</speed><course>-1.000000</course><hAcc>0.907878</hAcc><vAcc>0.721307</vAcc></extensions></trkpt>
      <trkpt lon="-3.154697" lat="53.018932"><ele>382.361786</ele><time>2021-09-01T10:34:45Z</time><extensions><speed>0.000000</speed><course>53.307610</course><hAcc>0.906992</hAcc><vAcc>0.720125</vAcc></extensions></trkpt>
      <trkpt lon="-3.154697" lat="53.018932"><ele>382.361786</ele><time>2021-09-01T10:34:46Z</time><extensions><speed>0.000000</speed><course>-1.000000</course><hAcc>0.906076</hAcc><vAcc>0.719305</vAcc></extensions></trkpt>
      <trkpt lon="-3.154697" lat="53.018932"><ele>382.361786</ele><time>2021-09-01T10:34:47Z</time><extensions><speed>0.000000</speed><course>-1.000000</course><hAcc>0.905895</hAcc><vAcc>0.719809</vAcc></extensions></trkpt>
      <trkpt lon="-3.154697" lat="53.018932"><ele>382.361786</ele><time>2021-09-01T10:34:48Z</time><extensions><speed>0.000000</speed><course>-1.000000</course><hAcc>0.908120</hAcc><vAcc>0.723320</vAcc></extensions></trkpt>
      <trkpt lon="-3.154697" lat="53.018932"><ele>382.361786</ele><time>2021-09-01T10:34:49Z</time><extensions><speed>0.000000</speed><course>120.394302</course><hAcc>0.915772</hAcc><vAcc>0.732497</vAcc></extensions></trkpt>
      <trkpt lon="-3.154697" lat="53.018932"><ele>382.361786</ele><time>2021-09-01T10:34:50Z</time><extensions><speed>0.000000</speed><course>-1.000000</course><hAcc>0.933651</hAcc><vAcc>0.751137</vAcc></extensions></trkpt>
      <trkpt lon="-3.154697" lat="53.018932"><ele>382.361786</ele><time>2021-09-01T10:34:51Z</time><extensions><speed>0.000000</speed><course>-1.000000</course><hAcc>0.968470</hAcc><vAcc>0.784062</vAcc></extensions></trkpt>
      <trkpt lon="-3.154697" lat="53.018932"><ele>382.361786</ele><time>2021-09-01T10:34:52Z</time><extensions><speed>0.000000</speed><course>-1.000000</course><hAcc>0.930047</hAcc><vAcc>0.747995</vAcc></extensions></trkpt>
      <trkpt lon="-3.154697" lat="53.018932"><ele>382.361786</ele><time>2021-09-01T10:34:53Z</time><extensions><speed>0.000000</speed><course>-1.000000</course><hAcc>0.911380</hAcc><vAcc>0.728264</vAcc></extensions></trkpt>
      <trkpt lon="-3.154697" lat="53.018932"><ele>382.361786</ele><time>2021-09-01T10:34:54Z</time><extensions><speed>0.000000</speed><course>-1.000000</course><hAcc>0.904031</hAcc><vAcc>0.718629</vAcc></extensions></trkpt>
      <trkpt lon="-3.154697" lat="53.018932"><ele>382.361786</ele><time>2021-09-01T10:34:55Z</time><extensions><speed>0.000000</speed><course>-1.000000</course><hAcc>0.902528</hAcc><vAcc>0.714881</vAcc></extensions></trkpt>
      <trkpt lon="-3.154697" lat="53.018932"><ele>382.361786</ele><time>2021-09-01T10:34:56Z</time><extensions><speed>0.000000</speed><course>-1.000000</course><hAcc>0.903436</hAcc><vAcc>0.714118</vAcc></extensions></trkpt>
      <trkpt lon="-3.154697" lat="53.018932"><ele>382.361786</ele><time>2021-09-01T10:34:57Z</time><extensions><speed>0.000000</speed><course>-1.000000</course><hAcc>0.904887</hAcc><vAcc>0.714581</vAcc></extensions></trkpt>
      <trkpt lon="-3.154697" lat="53.018932"><ele>382.361786</ele><time>2021-09-01T10:34:58Z</time><extensions><speed>0.000000</speed><course>-1.000000</course><hAcc>0.906059</hAcc><vAcc>0.715357</vAcc></extensions></trkpt>
      <trkpt lon="-3.154697" lat="53.018932"><ele>382.361786</ele><time>2021-09-01T10:34:59Z</time><extensions><speed>0.000000</speed><course>-1.000000</course><hAcc>0.906743</hAcc><vAcc>0.716074</vAcc></extensions></trkpt>
      <trkpt lon="-3.154697" lat="53.018932"><ele>382.361786</ele><time>2021-09-01T10:35:00Z</time><extensions><speed>0.000000</speed><course>-1.000000</course><hAcc>0.907023</hAcc><vAcc>0.716638</vAcc></extensions></trkpt>
      <trkpt lon="-3.154697" lat="53.018932"><ele>382.361786</ele><time>2021-09-01T10:35:01Z</time><extensions><speed>0.000000</speed><course>184.559082</course><hAcc>0.907067</hAcc><vAcc>0.717039</vAcc></extensions></trkpt>
      <trkpt lon="-3.154697" lat="53.018932"><ele>382.361786</ele><time>2021-09-01T10:35:02Z</time><extensions><speed>0.000000</speed><course>-1.000000</course><hAcc>0.907001</hAcc><vAcc>0.717236</vAcc></extensions></trkpt>
      <trkpt lon="-3.154697" lat="53.018932"><ele>382.361786</ele><time>2021-09-01T10:35:03Z</time><extensions><speed>0.000000</speed><course>-1.000000</course><hAcc>0.906854</hAcc><vAcc>0.717154</vAcc></extensions></trkpt>
      <trkpt lon="-3.154697" lat="53.018932"><ele>382.361786</ele><time>2021-09-01T10:35:04Z</time><extensions><speed>0.000000</speed><course>-1.000000</course><hAcc>0.906568</hAcc><vAcc>0.716726</vAcc></extensions></trkpt>
      <trkpt lon="-3.154697" lat="53.018932"><ele>382.361786</ele><time>2021-09-01T10:35:05Z</time><extensions><speed>0.000000</speed><course>-1.000000</course><hAcc>0.906042</hAcc><vAcc>0.715959</vAcc></extensions></trkpt>
      <trkpt lon="-3.154697" lat="53.018932"><ele>382.361786</ele><time>2021-09-01T10:35:06Z</time><extensions><speed>0.000000</speed><course>53.307610</course><hAcc>0.905254</hAcc><vAcc>0.715033</vAcc></extensions></trkpt>
      <trkpt lon="-3.154697" lat="53.018932"><ele>382.361786</ele><time>2021-09-01T10:35:07Z</time><extensions><speed>0.000000</speed><course>-1.000000</course><hAcc>0.904435</hAcc><vAcc>0.714439</vAcc></extensions></trkpt>
      <trkpt lon="-3.154697" lat="53.018932"><ele>382.361786</ele><time>2021-09-01T10:35:08Z</time><extensions><speed>0.000000</speed><course>-1.000000</course><hAcc>0.904351</hAcc><vAcc>0.715162</vAcc></extensions></trkpt>
      <trkpt lon="-3.154697" lat="53.018932"><ele>382.361786</ele><time>2021-09-01T10:35:09Z</time><extensions><speed>0.000000</speed><course>-1.000000</course><hAcc>0.906670</hAcc><vAcc>0.718911</vAcc></extensions></trkpt>
      <trkpt lon="-3.154697" lat="53.018932"><ele>382.361786</ele><time>2021-09-01T10:35:10Z</time><extensions><speed>0.000000</speed><course>120.394302</course><hAcc>0.914418</hAcc><vAcc>0.728370</vAcc></extensions></trkpt>
      <trkpt lon="-3.154697" lat="53.018932"><ele>382.361786</ele><time>2021-09-01T10:35:11Z</time><extensions><speed>0.000000</speed><course>-1.000000</course><hAcc>0.932398</hAcc><vAcc>0.747348</vAcc></extensions></trkpt>
      <trkpt lon="-3.154697" lat="53.018932"><ele>382.361786</ele><time>2021-09-01T10:35:12Z</time><extensions><speed>0.000000</speed><course>-1.000000</course><hAcc>0.967327</hAcc><vAcc>0.780676</vAcc></extensions></trkpt>
      <trkpt lon="-3.154697" lat="53.018932"><ele>382.361786</ele><time>2021-09-01T10:35:13Z</time><extensions><speed>0.000000</speed><course>-1.000000</course><hAcc>0.929386</hAcc><vAcc>0.746033</vAcc></extensions></trkpt>
      <trkpt lon="-3.154697" lat="53.018932"><ele>382.361786</ele><time>2021-09-01T10:35:14Z</time><extensions><speed>0.000000</speed><course>-1.000000</course><hAcc>0.911608</hAcc><vAcc>0.728854</vAcc></extensions></trkpt>
      <trkpt lon="-3.154697" lat="53.018932"><ele>382.361786</ele><time>2021-09-01T10:35:15Z</time><extensions><speed>0.000000</speed><course>-1.000000</course><hAcc>0.905116</hAcc><vAcc>0.721755</vAcc></extensions></trkpt>
      <trkpt lon="-3.154697" lat="53.018932"><ele>382.361786</ele><time>2021-09-01T10:35:16Z</time><extensions><speed>0.000000</speed><course>-1.000000</course><hAcc>0.904413</hAcc><vAcc>0.720468</vAcc></extensions></trkpt>
      <trkpt lon="-3.154697" lat="53.018932"><ele>382.361786</ele><time>2021-09-01T10:35:17Z</time><extensions><speed>0.000000</speed><course>-1.000000</course><hAcc>0.906052</hAcc><vAcc>0.722039</vAcc></extensions></trkpt>
      <trkpt lon="-3.154697" lat="53.018932"><ele>382.361786</ele><time>2021-09-01T10:35:18Z</time><extensions><speed>0.000000</speed><course>-1.000000</course><hAcc>0.908156</hAcc><vAcc>0.724640</vAcc></extensions></trkpt>
      <trkpt lon="-3.154697" lat="53.018932"><ele>382.361786</ele><time>2021-09-01T10:35:19Z</time><extensions><speed>0.000000</speed><course>-1.000000</course><hAcc>0.909891</hAcc><vAcc>0.727270</vAcc></extensions></trkpt>
      <trkpt lon="-3.154697" lat="53.018932"><ele>382.361786</ele><time>2021-09-01T10:35:20Z</time><extensions><speed>0.000000</speed><course>-1.000000</course><hAcc>0.911033</hAcc><vAcc>0.729469</vAcc></extensions></trkpt>
      <trkpt lon="-3.154697" lat="53.018932"><ele>382.361786</ele><time>2021-09-01T10:35:21Z</time><extensions><speed>0.000000</speed><course>-1.000000</course><hAcc>0.911656</hAcc><vAcc>0.731084</vAcc></extensions></trkpt>
      <trkpt lon="-3.154697" lat="53.018932"><ele>382.361786</ele><time>2021-09-01T10:35:22Z</time><extensions><speed>0.000000</speed><course>184.559082</course><hAcc>0.911926</hAcc><vAcc>0.732110</vAcc></extensions></trkpt>
      <trkpt lon="-3.154697" lat="53.018932"><ele>382.361786</ele><time>2021-09-01T10:35:23Z</time><extensions><speed>0.000000</speed><course>-1.000000</course><hAcc>0.911976</hAcc><vAcc>0.732584</vAcc></extensions></trkpt>
      <trkpt lon="-3.154697" lat="53.018932"><ele>382.361786</ele><time>2021-09-01T10:35:24Z</time><extensions><speed>0.000000</speed><course>-1.000000</course><hAcc>0.911856</hAcc><vAcc>0.732542</vAcc></extensions></trkpt>
      <trkpt lon="-3.154697" lat="53.018932"><ele>382.361786</ele><time>2021-09-01T10:35:25Z</time><extensions><speed>0.000000</speed><course>-1.000000</course><hAcc>0.911525</hAcc><vAcc>0.732007</vAcc></extensions></trkpt>
      <trkpt lon="-3.154697" lat="53.018932"><ele>382.361786</ele><time>2021-09-01T10:35:26Z</time><extensions><speed>0.000000</speed><course>-1.000000</course><hAcc>0.910904</hAcc><vAcc>0.731044</vAcc></extensions></trkpt>
      <trkpt lon="-3.154697" lat="53.018932"><ele>382.361786</ele><time>2021-09-01T10:35:27Z</time><extensions><speed>0.000000</speed><course>53.307610</course><hAcc>0.909989</hAcc><vAcc>0.729852</vAcc></extensions></trkpt>
      <trkpt lon="-3.154697" lat="53.018932"><ele>382.361786</ele><time>2021-09-01T10:35:28Z</time><extensions><speed>0.000000</speed><course>-1.000000</course><hAcc>0.909031</hAcc><vAcc>0.728912</vAcc></extensions></trkpt>
      <trkpt lon="-3.154697" lat="53.018932"><ele>382.361786</ele><time>2021-09-01T10:35:29Z</time><extensions><speed>0.000000</speed><course>-1.000000</course><hAcc>0.908810</hAcc><vAcc>0.729198</vAcc></extensions></trkpt>
      <trkpt lon="-3.154697" lat="53.018932"><ele>382.361786</ele><time>2021-09-01T10:35:30Z</time><extensions><speed>0.000000</speed><course>-1.000000</course><hAcc>0.911007</hAcc><vAcc>0.732420</vAcc></extensions></trkpt>
      <trkpt lon="-3.154697" lat="53.018932"><ele>382.361786</ele><time>2021-09-01T10:35:31Z</time><extensions><speed>0.000000</speed><course>120.394302</course><hAcc>0.918654</hAcc><vAcc>0.741287</vAcc></extensions></trkpt>
      <trkpt lon="-3.154697" lat="53.018932"><ele>382.361786</ele><time>2021-09-01T10:35:32Z</time><extensions><speed>0.000000</speed><course>-1.000000</course><hAcc>0.936549</hAcc><vAcc>0.759645</vAcc></extensions></trkpt>
      <trkpt lon="-3.154697" lat="53.018932"><ele>382.361786</ele><time>2021-09-01T10:35:33Z</time><extensions><speed>0.000000</speed><course>-1.000000</course><hAcc>0.971397</hAcc><vAcc>0.792367</vAcc></extensions></trkpt>
      <trkpt lon="-3.154697" lat="53.018932"><ele>382.361786</ele><time>2021-09-01T10:35:34Z</time><extensions><speed>0.000000</speed><course>-1.000000</course><hAcc>0.934006</hAcc><vAcc>0.758524</vAcc></extensions></trkpt>
      <trkpt lon="-3.154697" lat="53.018932"><ele>382.361786</ele><time>2021-09-01T10:35:36Z</time><extensions><speed>0.000000</speed><course>-1.000000</course><hAcc>0.915081</hAcc><vAcc>0.738254</vAcc></extensions></trkpt>
      <trkpt lon="-3.154697" lat="53.018932"><ele>382.361786</ele><time>2021-09-01T10:35:37Z</time><extensions><speed>0.000000</speed><course>-1.000000</course><hAcc>0.907629</hAcc><vAcc>0.728638</vAcc></extensions></trkpt>
      <trkpt lon="-3.154697" lat="53.018932"><ele>382.361786</ele><time>2021-09-01T10:35:38Z</time><extensions><speed>0.000000</speed><course>-1.000000</course><hAcc>0.906153</hAcc><vAcc>0.725357</vAcc></extensions></trkpt>
      <trkpt lon="-3.154697" lat="53.018932"><ele>382.361786</ele><time>2021-09-01T10:35:39Z</time><extensions><speed>0.000000</speed><course>-1.000000</course><hAcc>0.907185</hAcc><vAcc>0.725359</vAcc></extensions></trkpt>
      <trkpt lon="-3.154697" lat="53.018932"><ele>382.361786</ele><time>2021-09-01T10:35:40Z</time><extensions><speed>0.000000</speed><course>-1.000000</course><hAcc>0.908813</hAcc><vAcc>0.726702</vAcc></extensions></trkpt>
      <trkpt lon="-3.154697" lat="53.018932"><ele>382.361786</ele><time>2021-09-01T10:35:41Z</time><extensions><speed>0.000000</speed><course>-1.000000</course><hAcc>0.910169</hAcc><vAcc>0.728284</vAcc></extensions></trkpt>
      <trkpt lon="-3.154697" lat="53.018932"><ele>382.361786</ele><time>2021-09-01T10:35:42Z</time><extensions><speed>0.000000</speed><course>-1.000000</course><hAcc>0.911000</hAcc><vAcc>0.729562</vAcc></extensions></trkpt>
      <trkpt lon="-3.154697" lat="53.018932"><ele>382.361786</ele><time>2021-09-01T10:35:43Z</time><extensions><speed>0.000000</speed><course>-1.000000</course><hAcc>0.911356</hAcc><vAcc>0.730331</vAcc></extensions></trkpt>
      <trkpt lon="-3.154697" lat="53.018932"><ele>382.361786</ele><time>2021-09-01T10:35:44Z</time><extensions><speed>0.000000</speed><course>184.559082</course><hAcc>0.911388</hAcc><vAcc>0.730555</vAcc></extensions></trkpt>
      <trkpt lon="-3.154697" lat="53.018932"><ele>382.361786</ele><time>2021-09-01T10:35:45Z</time><extensions><speed>0.000000</speed><course>-1.000000</course><hAcc>0.911224</hAcc><vAcc>0.730261</vAcc></extensions></trkpt>
      <trkpt lon="-3.154697" lat="53.018932"><ele>382.361786</ele><time>2021-09-01T10:35:46Z</time><extensions><speed>0.000000</speed><course>-1.000000</course><hAcc>0.910908</hAcc><vAcc>0.729491</vAcc></extensions></trkpt>
      <trkpt lon="-3.154697" lat="53.018932"><ele>382.361786</ele><time>2021-09-01T10:35:47Z</time><extensions><speed>0.000000</speed><course>-1.000000</course><hAcc>0.910398</hAcc><vAcc>0.728291</vAcc></extensions></trkpt>
      <trkpt lon="-3.154697" lat="53.018932"><ele>382.361786</ele><time>2021-09-01T10:35:47Z</time><extensions><speed>0.000000</speed><course>-1.000000</course><hAcc>0.909634</hAcc><vAcc>0.726766</vAcc></extensions></trkpt>
      <trkpt lon="-3.154697" lat="53.018932"><ele>382.361786</ele><time>2021-09-01T10:35:48Z</time><extensions><speed>0.000000</speed><course>53.307610</course><hAcc>0.908610</hAcc><vAcc>0.725128</vAcc></extensions></trkpt>
      <trkpt lon="-3.154697" lat="53.018932"><ele>382.361786</ele><time>2021-09-01T10:35:49Z</time><extensions><speed>0.000000</speed><course>-1.000000</course><hAcc>0.907554</hAcc><vAcc>0.723857</vAcc></extensions></trkpt>
      <trkpt lon="-3.154697" lat="53.018932"><ele>382.361786</ele><time>2021-09-01T10:35:50Z</time><extensions><speed>0.000000</speed><course>-1.000000</course><hAcc>0.907244</hAcc><vAcc>0.723917</vAcc></extensions></trkpt>
      <trkpt lon="-3.154697" lat="53.018932"><ele>382.361786</ele><time>2021-09-01T10:35:51Z</time><extensions><speed>0.000000</speed><course>-1.000000</course><hAcc>0.909354</hAcc><vAcc>0.727003</vAcc></extensions></trkpt>
      <trkpt lon="-3.154697" lat="53.018932"><ele>382.361786</ele><time>2021-09-01T10:35:52Z</time><extensions><speed>0.000000</speed><course>120.394302</course><hAcc>0.916913</hAcc><vAcc>0.735795</vAcc></extensions></trkpt>
      <trkpt lon="-3.154697" lat="53.018932"><ele>382.361786</ele><time>2021-09-01T10:35:54Z</time><extensions><speed>0.000000</speed><course>-1.000000</course><hAcc>0.934731</hAcc><vAcc>0.754130</vAcc></extensions></trkpt>
      <trkpt lon="-3.154697" lat="53.018932"><ele>382.361786</ele><time>2021-09-01T10:35:55Z</time><extensions><speed>0.000000</speed><course>-1.000000</course><hAcc>0.969493</hAcc><vAcc>0.786826</vAcc></extensions></trkpt>
      <trkpt lon="-3.154697" lat="53.018932"><ele>382.361786</ele><time>2021-09-01T10:35:56Z</time><extensions><speed>0.000000</speed><course>-1.000000</course><hAcc>0.932017</hAcc><vAcc>0.753081</vAcc></extensions></trkpt>
      <trkpt lon="-3.154697" lat="53.018932"><ele>382.361786</ele><time>2021-09-01T10:35:57Z</time><extensions><speed>0.000000</speed><course>-1.000000</course><hAcc>0.913547</hAcc><vAcc>0.733982</vAcc></extensions></trkpt>
      <trkpt lon="-3.154697" lat="53.018932"><ele>382.361786</ele><time>2021-09-01T10:35:58Z</time><extensions><speed>0.000000</speed><course>-1.000000</course><hAcc>0.906485</hAcc><vAcc>0.725357</vAcc></extensions></trkpt>
      <trkpt lon="-3.154697" lat="53.018932"><ele>382.361786</ele><time>2021-09-01T10:35:59Z</time><extensions><speed>0.000000</speed><course>-1.000000</course><hAcc>0.905342</hAcc><vAcc>0.722917</vAcc></extensions></trkpt>
      <trkpt lon="-3.154697" lat="53.018932"><ele>382.361786</ele><time>2021-09-01T10:36:00Z</time><extensions><speed>0.000000</speed><course>-1.000000</course><hAcc>0.906656</hAcc><vAcc>0.723645</vAcc></extensions></trkpt>
      <trkpt lon="-3.154697" lat="53.018932"><ele>382.361786</ele><time>2021-09-01T10:36:01Z</time><extensions><speed>0.000000</speed><course>-1.000000</course><hAcc>0.908526</hAcc><vAcc>0.725639</vAcc></extensions></trkpt>
      <trkpt lon="-3.154697" lat="53.018932"><ele>382.361786</ele><time>2021-09-01T10:36:02Z</time><extensions><speed>0.000000</speed><course>-1.000000</course><hAcc>0.910098</hAcc><vAcc>0.727832</vAcc></extensions></trkpt>
      <trkpt lon="-3.154697" lat="53.018932"><ele>382.361786</ele><time>2021-09-01T10:36:03Z</time><extensions><speed>0.000000</speed><course>-1.000000</course><hAcc>0.911126</hAcc><vAcc>0.729714</vAcc></extensions></trkpt>
      <trkpt lon="-3.154697" lat="53.018932"><ele>382.361786</ele><time>2021-09-01T10:36:04Z</time><extensions><speed>0.000000</speed><course>-1.000000</course><hAcc>0.911667</hAcc><vAcc>0.731096</vAcc></extensions></trkpt>
      <trkpt lon="-3.154697" lat="53.018932"><ele>382.361786</ele><time>2021-09-01T10:36:05Z</time><extensions><speed>0.000000</speed><course>184.559082</course><hAcc>0.911876</hAcc><vAcc>0.731943</vAcc></extensions></trkpt>
      <trkpt lon="-3.154697" lat="53.018932"><ele>382.361786</ele><time>2021-09-01T10:36:06Z</time><extensions><speed>0.000000</speed><course>-1.000000</course><hAcc>0.911878</hAcc><vAcc>0.732269</vAcc></extensions></trkpt>
      <trkpt lon="-3.154697" lat="53.018932"><ele>382.361786</ele><time>2021-09-01T10:36:07Z</time><extensions><speed>0.000000</speed><course>-1.000000</course><hAcc>0.911717</hAcc><vAcc>0.732090</vAcc></extensions></trkpt>
      <trkpt lon="-3.154697" lat="53.018932"><ele>382.361786</ele><time>2021-09-01T10:36:08Z</time><extensions><speed>0.000000</speed><course>-1.000000</course><hAcc>0.911348</hAcc><vAcc>0.731424</vAcc></extensions></trkpt>
      <trkpt lon="-3.154697" lat="53.018932"><ele>382.361786</ele><time>2021-09-01T10:36:09Z</time><extensions><speed>0.000000</speed><course>-1.000000</course><hAcc>0.910695</hAcc><vAcc>0.730337</vAcc></extensions></trkpt>
      <trkpt lon="-3.154697" lat="53.018932"><ele>382.361786</ele><time>2021-09-01T10:36:10Z</time><extensions><speed>0.000000</speed><course>53.307610</course><hAcc>0.909753</hAcc><vAcc>0.729037</vAcc></extensions></trkpt>
      <trkpt lon="-3.154697" lat="53.018932"><ele>382.361786</ele><time>2021-09-01T10:36:11Z</time><extensions><speed>0.000000</speed><course>-1.000000</course><hAcc>0.908778</hAcc><vAcc>0.728019</vAcc></extensions></trkpt>
      <trkpt lon="-3.154697" lat="53.018932"><ele>382.361786</ele><time>2021-09-01T10:36:12Z</time><extensions><speed>0.000000</speed><course>-1.000000</course><hAcc>0.908556</hAcc><vAcc>0.728272</vAcc></extensions></trkpt>
      <trkpt lon="-3.154697" lat="53.018932"><ele>382.361786</ele><time>2021-09-01T10:36:13Z</time><extensions><speed>0.000000</speed><course>-1.000000</course><hAcc>0.910773</hAcc><vAcc>0.731533</vAcc></extensions></trkpt>
      <trkpt lon="-3.154697" lat="53.018932"><ele>382.361786</ele><time>2021-09-01T10:36:14Z</time><extensions><speed>0.000000</speed><course>120.394302</course><hAcc>0.918471</hAcc><vAcc>0.740532</vAcc></extensions></trkpt>
      <trkpt lon="-3.154697" lat="53.018932"><ele>382.361786</ele><time>2021-09-01T10:36:15Z</time><extensions><speed>0.000000</speed><course>-1.000000</course><hAcc>0.936456</hAcc><vAcc>0.759146</vAcc></extensions></trkpt>
      <trkpt lon="-3.154697" lat="53.018932"><ele>382.361786</ele><time>2021-09-01T10:36:16Z</time><extensions><speed>0.000000</speed><course>-1.000000</course><hAcc>0.971434</hAcc><vAcc>0.792270</vAcc></extensions></trkpt>
      <trkpt lon="-3.154697" lat="53.018932"><ele>382.361786</ele><time>2021-09-01T10:36:17Z</time><extensions><speed>0.000000</speed><course>-1.000000</course><hAcc>0.933905</hAcc><vAcc>0.758314</vAcc></extensions></trkpt>
      <trkpt lon="-3.154697" lat="53.018932"><ele>382.361786</ele><time>2021-09-01T10:36:18Z</time><extensions><speed>0.000000</speed><course>-1.000000</course><hAcc>0.915239</hAcc><vAcc>0.738818</vAcc></extensions></trkpt>
      <trkpt lon="-3.154697" lat="53.018932"><ele>382.361786</ele><time>2021-09-01T10:36:19Z</time><extensions><speed>0.000000</speed><course>-1.000000</course><hAcc>0.908046</hAcc><vAcc>0.730000</vAcc></extensions></trkpt>
      <trkpt lon="-3.154697" lat="53.018932"><ele>382.361786</ele><time>2021-09-01T10:36:20Z</time><extensions><speed>0.000000</speed><course>-1.000000</course><hAcc>0.906831</hAcc><vAcc>0.727518</vAcc></extensions></trkpt>
      <trkpt lon="-3.154697" lat="53.018932"><ele>382.361786</ele><time>2021-09-01T10:36:21Z</time><extensions><speed>0.000000</speed><course>-1.000000</course><hAcc>0.908120</hAcc><vAcc>0.728296</vAcc></extensions></trkpt>
      <trkpt lon="-3.154697" lat="53.018932"><ele>382.361786</ele><time>2021-09-01T10:36:22Z</time><extensions><speed>0.000000</speed><course>-1.000000</course><hAcc>0.909997</hAcc><vAcc>0.730378</vAcc></extensions></trkpt>
      <trkpt lon="-3.154697" lat="53.018932"><ele>382.361786</ele><time>2021-09-01T10:36:23Z</time><extensions><speed>0.000000</speed><course>-1.000000</course><hAcc>0.911589</hAcc><vAcc>0.732657</vAcc></extensions></trkpt>
      <trkpt lon="-3.154697" lat="53.018932"><ele>382.361786</ele><time>2021-09-01T10:36:24Z</time><extensions><speed>0.000000</speed><course>-1.000000</course><hAcc>0.912640</hAcc><vAcc>0.734592</vAcc></extensions></trkpt>
      <trkpt lon="-3.154697" lat="53.018932"><ele>382.361786</ele><time>2021-09-01T10:36:25Z</time><extensions><speed>0.000000</speed><course>-1.000000</course><hAcc>0.913197</hAcc><vAcc>0.735975</vAcc></extensions></trkpt>
      <trkpt lon="-3.154697" lat="53.018932"><ele>382.361786</ele><time>2021-09-01T10:36:26Z</time><extensions><speed>0.000000</speed><course>184.559082</course><hAcc>0.913407</hAcc><vAcc>0.736768</vAcc></extensions></trkpt>
      <trkpt lon="-3.154697" lat="53.018932"><ele>382.361786</ele><time>2021-09-01T10:36:27Z</time><extensions><speed>0.000000</speed><course>-1.000000</course><hAcc>0.913394</hAcc><vAcc>0.736992</vAcc></extensions></trkpt>
      <trkpt lon="-3.154697" lat="53.018932"><ele>382.361786</ele><time>2021-09-01T10:36:28Z</time><extensions><speed>0.000000</speed><course>-1.000000</course><hAcc>0.913205</hAcc><vAcc>0.736682</vAcc></extensions></trkpt>
      <trkpt lon="-3.154697" lat="53.018932"><ele>382.361786</ele><time>2021-09-01T10:36:29Z</time><extensions><speed>0.000000</speed><course>-1.000000</course><hAcc>0.912802</hAcc><vAcc>0.735875</vAcc></extensions></trkpt>
      <trkpt lon="-3.154697" lat="53.018932"><ele>382.361786</ele><time>2021-09-01T10:36:30Z</time><extensions><speed>0.000000</speed><course>-1.000000</course><hAcc>0.912114</hAcc><vAcc>0.734657</vAcc></extensions></trkpt>
      <trkpt lon="-3.154697" lat="53.018932"><ele>382.361786</ele><time>2021-09-01T10:36:31Z</time><extensions><speed>0.000000</speed><course>53.307610</course><hAcc>0.911149</hAcc><vAcc>0.733260</vAcc></extensions></trkpt>
      <trkpt lon="-3.154697" lat="53.018932"><ele>382.361786</ele><time>2021-09-01T10:36:32Z</time><extensions><speed>0.000000</speed><course>-1.000000</course><hAcc>0.910171</hAcc><vAcc>0.732204</vAcc></extensions></trkpt>
      <trkpt lon="-3.154697" lat="53.018932"><ele>382.361786</ele><time>2021-09-01T10:36:33Z</time><extensions><speed>0.000000</speed><course>-1.000000</course><hAcc>0.909978</hAcc><vAcc>0.732503</vAcc></extensions></trkpt>
      <trkpt lon="-3.154697" lat="53.018932"><ele>382.361786</ele><time>2021-09-01T10:36:34Z</time><extensions><speed>0.000000</speed><course>-1.000000</course><hAcc>0.912265</hAcc><vAcc>0.735914</vAcc></extensions></trkpt>
      <trkpt lon="-3.154697" lat="53.018932"><ele>382.361786</ele><time>2021-09-01T10:36:35Z</time><extensions><speed>0.000000</speed><course>120.394302</course><hAcc>0.920075</hAcc><vAcc>0.745179</vAcc></extensions></trkpt>
      <trkpt lon="-3.154697" lat="53.018932"><ele>382.361786</ele><time>2021-09-01T10:36:36Z</time><extensions><speed>0.000000</speed><course>-1.000000</course><hAcc>0.938212</hAcc><vAcc>0.764166</vAcc></extensions></trkpt>
      <trkpt lon="-3.154697" lat="53.018932"><ele>382.361786</ele><time>2021-09-01T10:36:37Z</time><extensions><speed>0.000000</speed><course>-1.000000</course><hAcc>0.973366</hAcc><vAcc>0.797733</vAcc></extensions></trkpt>
      <trkpt lon="-3.154697" lat="53.018932"><ele>382.361786</ele><time>2021-09-01T10:36:38Z</time><extensions><speed>0.000000</speed><course>-1.000000</course><hAcc>0.935503</hAcc><vAcc>0.762997</vAcc></extensions></trkpt>
      <trkpt lon="-3.154697" lat="53.018932"><ele>382.361786</ele><time>2021-09-01T10:36:39Z</time><extensions><speed>0.000000</speed><course>-1.000000</course><hAcc>0.916622</hAcc><vAcc>0.743018</vAcc></extensions></trkpt>
      <trkpt lon="-3.154697" lat="53.018932"><ele>382.361786</ele><time>2021-09-01T10:36:40Z</time><extensions><speed>0.000000</speed><course>-1.000000</course><hAcc>0.909216</hAcc><vAcc>0.733701</vAcc></extensions></trkpt>
      <trkpt lon="-3.154697" lat="53.018932"><ele>382.361786</ele><time>2021-09-01T10:36:41Z</time><extensions><speed>0.000000</speed><course>-1.000000</course><hAcc>0.907796</hAcc><vAcc>0.730716</vAcc></extensions></trkpt>
      <trkpt lon="-3.154697" lat="53.018932"><ele>382.361786</ele><time>2021-09-01T10:36:42Z</time><extensions><speed>0.000000</speed><course>-1.000000</course><hAcc>0.908884</hAcc><vAcc>0.730978</vAcc></extensions></trkpt>
      <trkpt lon="-3.154697" lat="53.018932"><ele>382.361786</ele><time>2021-09-01T10:36:43Z</time><extensions><speed>0.000000</speed><course>-1.000000</course><hAcc>0.910557</hAcc><vAcc>0.732514</vAcc></extensions></trkpt>
      <trkpt lon="-3.154697" lat="53.018932"><ele>382.361786</ele><time>2021-09-01T10:36:44Z</time><extensions><speed>0.000000</speed><course>-1.000000</course><hAcc>0.911937</hAcc><vAcc>0.734192</vAcc></extensions></trkpt>
      <trkpt lon="-3.154697" lat="53.018932"><ele>382.361786</ele><time>2021-09-01T10:36:45Z</time><extensions><speed>0.000000</speed><course>-1.000000</course><hAcc>0.912757</hAcc><vAcc>0.735442</vAcc></extensions></trkpt>
      <trkpt lon="-3.154697" lat="53.018932"><ele>382.361786</ele><time>2021-09-01T10:36:46Z</time><extensions><speed>0.000000</speed><course>-1.000000</course><hAcc>0.913061</hAcc><vAcc>0.736035</vAcc></extensions></trkpt>
      <trkpt lon="-3.154697" lat="53.018932"><ele>382.361786</ele><time>2021-09-01T10:36:47Z</time><extensions><speed>0.000000</speed><course>184.559082</course><hAcc>0.912992</hAcc><vAcc>0.735913</vAcc></extensions></trkpt>
      <trkpt lon="-3.154697" lat="53.018932"><ele>382.361786</ele><time>2021-09-01T10:36:48Z</time><extensions><speed>0.000000</speed><course>-1.000000</course><hAcc>0.912672</hAcc><vAcc>0.735094</vAcc></extensions></trkpt>
      <trkpt lon="-3.154697" lat="53.018932"><ele>382.361786</ele><time>2021-09-01T10:36:49Z</time><extensions><speed>0.000000</speed><course>-1.000000</course><hAcc>0.912146</hAcc><vAcc>0.733612</vAcc></extensions></trkpt>
      <trkpt lon="-3.154697" lat="53.018932"><ele>382.361786</ele><time>2021-09-01T10:36:50Z</time><extensions><speed>0.000000</speed><course>-1.000000</course><hAcc>0.911372</hAcc><vAcc>0.731516</vAcc></extensions></trkpt>
      <trkpt lon="-3.154697" lat="53.018932"><ele>382.361786</ele><time>2021-09-01T10:36:51Z</time><extensions><speed>0.000000</speed><course>-1.000000</course><hAcc>0.910274</hAcc><vAcc>0.728902</vAcc></extensions></trkpt>
      <trkpt lon="-3.154697" lat="53.018932"><ele>382.361786</ele><time>2021-09-01T10:36:52Z</time><extensions><speed>0.000000</speed><course>53.307610</course><hAcc>0.908848</hAcc><vAcc>0.726000</vAcc></extensions></trkpt>
      <trkpt lon="-3.154697" lat="53.018932"><ele>382.361786</ele><time>2021-09-01T10:36:53Z</time><extensions><speed>0.000000</speed><course>-1.000000</course><hAcc>0.907345</hAcc><vAcc>0.723318</vAcc></extensions></trkpt>
      <trkpt lon="-3.154697" lat="53.018932"><ele>382.361786</ele><time>2021-09-01T10:36:54Z</time><extensions><speed>0.000000</speed><course>-1.000000</course><hAcc>0.906545</hAcc><vAcc>0.721848</vAcc></extensions></trkpt>
      <trkpt lon="-3.154697" lat="53.018932"><ele>382.361786</ele><time>2021-09-01T10:36:55Z</time><extensions><speed>0.000000</speed><course>-1.000000</course><hAcc>0.908130</hAcc><vAcc>0.723328</vAcc></extensions></trkpt>
      <trkpt lon="-3.154697" lat="53.018932"><ele>382.361786</ele><time>2021-09-01T10:36:56Z</time><extensions><speed>0.000000</speed><course>120.394302</course><hAcc>0.915144</hAcc><vAcc>0.730505</vAcc></extensions></trkpt>
      <trkpt lon="-3.154697" lat="53.018932"><ele>382.361786</ele><time>2021-09-01T10:36:57Z</time><extensions><speed>0.000000</speed><course>-1.000000</course><hAcc>0.932416</hAcc><vAcc>0.747303</vAcc></extensions></trkpt>
      <trkpt lon="-3.154697" lat="53.018932"><ele>382.361786</ele><time>2021-09-01T10:36:58Z</time><extensions><speed>0.000000</speed><course>-1.000000</course><hAcc>0.966700</hAcc><vAcc>0.778699</vAcc></extensions></trkpt>
      <trkpt lon="-3.154697" lat="53.018932"><ele>382.361786</ele><time>2021-09-01T10:36:59Z</time><extensions><speed>0.000000</speed><course>-1.000000</course><hAcc>0.929399</hAcc><vAcc>0.745395</vAcc></extensions></trkpt>
      <trkpt lon="-3.154697" lat="53.018932"><ele>382.361786</ele><time>2021-09-01T10:37:00Z</time><extensions><speed>0.000000</speed><course>-1.000000</course><hAcc>0.911225</hAcc><vAcc>0.727121</vAcc></extensions></trkpt>
      <trkpt lon="-3.154697" lat="53.018932"><ele>382.361786</ele><time>2021-09-01T10:37:01Z</time><extensions><speed>0.000000</speed><course>-1.000000</course><hAcc>0.904444</hAcc><vAcc>0.719348</vAcc></extensions></trkpt>
      <trkpt lon="-3.154697" lat="53.018932"><ele>382.361786</ele><time>2021-09-01T10:37:02Z</time><extensions><speed>0.000000</speed><course>-1.000000</course><hAcc>0.903536</hAcc><vAcc>0.717680</vAcc></extensions></trkpt>
      <trkpt lon="-3.154697" lat="53.018932"><ele>382.361786</ele><time>2021-09-01T10:37:03Z</time><extensions><speed>0.000000</speed><course>-1.000000</course><hAcc>0.905028</hAcc><vAcc>0.719030</vAcc></extensions></trkpt>
      <trkpt lon="-3.154697" lat="53.018932"><ele>382.361786</ele><time>2021-09-01T10:37:04Z</time><extensions><speed>0.000000</speed><course>-1.000000</course><hAcc>0.907015</hAcc><vAcc>0.721458</vAcc></extensions></trkpt>
      <trkpt lon="-3.154697" lat="53.018932"><ele>382.361786</ele><time>2021-09-01T10:37:05Z</time><extensions><speed>0.000000</speed><course>-1.000000</course><hAcc>0.908643</hAcc><vAcc>0.723880</vAcc></extensions></trkpt>
      <trkpt lon="-3.154697" lat="53.018932"><ele>382.361786</ele><time>2021-09-01T10:37:06Z</time><extensions><speed>0.000000</speed><course>-1.000000</course><hAcc>0.909674</hAcc><vAcc>0.725776</vAcc></extensions></trkpt>
      <trkpt lon="-3.154697" lat="53.018932"><ele>382.361786</ele><time>2021-09-01T10:37:07Z</time><extensions><speed>0.000000</speed><course>-1.000000</course><hAcc>0.910172</hAcc><vAcc>0.726967</vAcc></extensions></trkpt>
      <trkpt lon="-3.154697" lat="53.018932"><ele>382.361786</ele><time>2021-09-01T10:37:08Z</time><extensions><speed>0.000000</speed><course>184.559082</course><hAcc>0.910298</hAcc><vAcc>0.727439</vAcc></extensions></trkpt>
      <trkpt lon="-3.154697" lat="53.018932"><ele>382.361786</ele><time>2021-09-01T10:37:09Z</time><extensions><speed>0.000000</speed><course>-1.000000</course><hAcc>0.910186</hAcc><vAcc>0.727247</vAcc></extensions></trkpt>
      <trkpt lon="-3.154697" lat="53.018932"><ele>382.361786</ele><time>2021-09-01T10:37:10Z</time><extensions><speed>0.000000</speed><course>-1.000000</course><hAcc>0.909886</hAcc><vAcc>0.726449</vAcc></extensions></trkpt>
      <trkpt lon="-3.154697" lat="53.018932"><ele>382.361786</ele><time>2021-09-01T10:37:11Z</time><extensions><speed>0.000000</speed><course>-1.000000</course><hAcc>0.909356</hAcc><vAcc>0.725102</vAcc></extensions></trkpt>
      <trkpt lon="-3.154697" lat="53.018932"><ele>382.361786</ele><time>2021-09-01T10:37:12Z</time><extensions><speed>0.000000</speed><course>-1.000000</course><hAcc>0.908512</hAcc><vAcc>0.723296</vAcc></extensions></trkpt>
      <trkpt lon="-3.154697" lat="53.018932"><ele>382.361786</ele><time>2021-09-01T10:37:13Z</time><extensions><speed>0.000000</speed><course>53.307610</course><hAcc>0.907338</hAcc><vAcc>0.721237</vAcc></extensions></trkpt>
      <trkpt lon="-3.154697" lat="53.018932"><ele>382.361786</ele><time>2021-09-01T10:37:14Z</time><extensions><speed>0.000000</speed><course>-1.000000</course><hAcc>0.906066</hAcc><vAcc>0.719389</vAcc></extensions></trkpt>
      <trkpt lon="-3.154697" lat="53.018932"><ele>382.361786</ele><time>2021-09-01T10:37:15Z</time><extensions><speed>0.000000</speed><course>-1.000000</course><hAcc>0.905454</hAcc><vAcc>0.718673</vAcc></extensions></trkpt>
      <trkpt lon="-3.154697" lat="53.018932"><ele>382.361786</ele><time>2021-09-01T10:37:16Z</time><extensions><speed>0.000000</speed><course>-1.000000</course><hAcc>0.907156</hAcc><vAcc>0.720724</vAcc></extensions></trkpt>
      <trkpt lon="-3.154697" lat="53.018932"><ele>382.361786</ele><time>2021-09-01T10:37:17Z</time><extensions><speed>0.000000</speed><course>120.394302</course><hAcc>0.914189</hAcc><vAcc>0.728166</vAcc></extensions></trkpt>
      <trkpt lon="-3.154697" lat="53.018932"><ele>382.361786</ele><time>2021-09-01T10:37:18Z</time><extensions><speed>0.000000</speed><course>-1.000000</course><hAcc>0.931361</hAcc><vAcc>0.744796</vAcc></extensions></trkpt>
      <trkpt lon="-3.154697" lat="53.018932"><ele>382.361786</ele><time>2021-09-01T10:37:19Z</time><extensions><speed>0.000000</speed><course>-1.000000</course><hAcc>0.965417</hAcc><vAcc>0.775508</vAcc></extensions></trkpt>
      <trkpt lon="-3.154697" lat="53.018932"><ele>382.364441</ele><time>2021-09-01T10:37:20Z</time><extensions><speed>0.001145</speed><course>-1.000000</course><hAcc>0.928431</hAcc><vAcc>0.743169</vAcc></extensions></trkpt>
      <trkpt lon="-3.154697" lat="53.018932"><ele>382.363770</ele><time>2021-09-01T10:37:21Z</time><extensions><speed>0.001197</speed><course>-1.000000</course><hAcc>0.909824</hAcc><vAcc>0.723928</vAcc></extensions></trkpt>
      <trkpt lon="-3.154697" lat="53.018932"><ele>382.362976</ele><time>2021-09-01T10:37:22Z</time><extensions><speed>0.001273</speed><course>-1.000000</course><hAcc>0.902457</hAcc><vAcc>0.715024</vAcc></extensions></trkpt>
      <trkpt lon="-3.154697" lat="53.018932"><ele>382.361938</ele><time>2021-09-01T10:37:23Z</time><extensions><speed>0.001380</speed><course>-1.000000</course><hAcc>0.900800</hAcc><vAcc>0.712177</vAcc></extensions></trkpt>
      <trkpt lon="-3.154697" lat="53.018932"><ele>382.360687</ele><time>2021-09-01T10:37:24Z</time><extensions><speed>0.001526</speed><course>-1.000000</course><hAcc>0.901363</hAcc><vAcc>0.712377</vAcc></extensions></trkpt>
      <trkpt lon="-3.154697" lat="53.018932"><ele>382.359161</ele><time>2021-09-01T10:37:25Z</time><extensions><speed>0.001721</speed><course>-1.000000</course><hAcc>0.902224</hAcc><vAcc>0.713733</vAcc></extensions></trkpt>
      <trkpt lon="-3.154697" lat="53.018932"><ele>382.357330</ele><time>2021-09-01T10:37:26Z</time><extensions><speed>0.001970</speed><course>-1.000000</course><hAcc>0.902513</hAcc><vAcc>0.715184</vAcc></extensions></trkpt>
      <trkpt lon="-3.154697" lat="53.018932"><ele>382.355164</ele><time>2021-09-01T10:37:27Z</time><extensions><speed>0.002278</speed><course>-1.000000</course><hAcc>0.901989</hAcc><vAcc>0.716230</vAcc></extensions></trkpt>
      <trkpt lon="-3.154697" lat="53.018932"><ele>382.352631</ele><time>2021-09-01T10:37:28Z</time><extensions><speed>0.002648</speed><course>-1.000000</course><hAcc>0.900744</hAcc><vAcc>0.716706</vAcc></extensions></trkpt>
      <trkpt lon="-3.154696" lat="53.018932"><ele>382.349731</ele><time>2021-09-01T10:37:29Z</time><extensions><speed>0.003085</speed><course>184.559082</course><hAcc>0.899007</hAcc><vAcc>0.716631</vAcc></extensions></trkpt>
      <trkpt lon="-3.154696" lat="53.018932"><ele>382.346466</ele><time>2021-09-01T10:37:30Z</time><extensions><speed>0.003595</speed><course>-1.000000</course><hAcc>0.897031</hAcc><vAcc>0.716111</vAcc></extensions></trkpt>
      <trkpt lon="-3.154696" lat="53.018932"><ele>382.342896</ele><time>2021-09-01T10:37:31Z</time><extensions><speed>0.004187</speed><course>-1.000000</course><hAcc>0.895034</hAcc><vAcc>0.715286</vAcc></extensions></trkpt>
      <trkpt lon="-3.154696" lat="53.018932"><ele>382.338989</ele><time>2021-09-01T10:37:32Z</time><extensions><speed>0.004879</speed><course>-1.000000</course><hAcc>0.893175</hAcc><vAcc>0.714297</vAcc></extensions></trkpt>
      <trkpt lon="-3.154696" lat="53.018932"><ele>382.334900</ele><time>2021-09-01T10:37:33Z</time><extensions><speed>0.005697</speed><course>-1.000000</course><hAcc>0.891554</hAcc><vAcc>0.713273</vAcc></extensions></trkpt>
      <trkpt lon="-3.154696" lat="53.018932"><ele>382.330688</ele><time>2021-09-01T10:37:34Z</time><extensions><speed>0.006681</speed><course>53.307610</course><hAcc>0.890218</hAcc><vAcc>0.712319</vAcc></extensions></trkpt>
      <trkpt lon="-3.154696" lat="53.018932"><ele>382.326538</ele><time>2021-09-01T10:37:35Z</time><extensions><speed>0.007884</speed><course>-1.000000</course><hAcc>0.889178</hAcc><vAcc>0.711516</vAcc></extensions></trkpt>
      <trkpt lon="-3.154696" lat="53.018932"><ele>382.322601</ele><time>2021-09-01T10:37:36Z</time><extensions><speed>0.009373</speed><course>-1.000000</course><hAcc>0.888414</hAcc><vAcc>0.710917</vAcc></extensions></trkpt>
      <trkpt lon="-3.154696" lat="53.018932"><ele>382.319092</ele><time>2021-09-01T10:37:37Z</time><extensions><speed>0.011222</speed><course>-1.000000</course><hAcc>0.887896</hAcc><vAcc>0.710558</vAcc></extensions></trkpt>
      <trkpt lon="-3.154696" lat="53.018932"><ele>382.316376</ele><time>2021-09-01T10:37:38Z</time><extensions><speed>0.013511</speed><course>120.394302</course><hAcc>0.887586</hAcc><vAcc>0.710461</vAcc></extensions></trkpt>
      <trkpt lon="-3.154696" lat="53.018932"><ele>382.314697</ele><time>2021-09-01T10:37:39Z</time><extensions><speed>0.016314</speed><course>-1.000000</course><hAcc>0.887441</hAcc><vAcc>0.710625</vAcc></extensions></trkpt>
      <trkpt lon="-3.154696" lat="53.018932"><ele>382.314514</ele><time>2021-09-01T10:37:40Z</time><extensions><speed>0.019693</speed><course>-1.000000</course><hAcc>0.887425</hAcc><vAcc>0.711026</vAcc></extensions></trkpt>
      <trkpt lon="-3.154697" lat="53.018931"><ele>382.316254</ele><time>2021-09-01T10:37:41Z</time><extensions><speed>0.023694</speed><course>-1.000000</course><hAcc>0.887500</hAcc><vAcc>0.711619</vAcc></extensions></trkpt>
      <trkpt lon="-3.154697" lat="53.018931"><ele>382.320404</ele><time>2021-09-01T10:37:42Z</time><extensions><speed>0.028333</speed><course>-1.000000</course><hAcc>0.887636</hAcc><vAcc>0.712340</vAcc></extensions></trkpt>
      <trkpt lon="-3.154697" lat="53.018931"><ele>382.327515</ele><time>2021-09-01T10:37:43Z</time><extensions><speed>0.033597</speed><course>-1.000000</course><hAcc>0.887804</hAcc><vAcc>0.713115</vAcc></extensions></trkpt>
      <trkpt lon="-3.154697" lat="53.018931"><ele>382.338165</ele><time>2021-09-01T10:37:44Z</time><extensions><speed>0.039424</speed><course>-1.000000</course><hAcc>0.887980</hAcc><vAcc>0.713876</vAcc></extensions></trkpt>
      <trkpt lon="-3.154698" lat="53.018931"><ele>382.352997</ele><time>2021-09-01T10:37:45Z</time><extensions><speed>0.045696</speed><course>-1.000000</course><hAcc>0.888140</hAcc><vAcc>0.714557</vAcc></extensions></trkpt>
      <trkpt lon="-3.154699" lat="53.018930"><ele>382.372559</ele><time>2021-09-01T10:37:46Z</time><extensions><speed>0.052227</speed><course>-1.000000</course><hAcc>0.888267</hAcc><vAcc>0.715104</vAcc></extensions></trkpt>
      <trkpt lon="-3.154699" lat="53.018930"><ele>382.397400</ele><time>2021-09-01T10:37:47Z</time><extensions><speed>0.058755</speed><course>-1.000000</course><hAcc>0.888345</hAcc><vAcc>0.715472</vAcc></extensions></trkpt>
      <trkpt lon="-3.154700" lat="53.018930"><ele>382.428101</ele><time>2021-09-01T10:37:48Z</time><extensions><speed>0.064939</speed><course>-1.000000</course><hAcc>0.888360</hAcc><vAcc>0.715628</vAcc></extensions></trkpt>
      <trkpt lon="-3.154701" lat="53.018930"><ele>382.465057</ele><time>2021-09-01T10:37:49Z</time><extensions><speed>0.070373</speed><course>-1.000000</course><hAcc>0.888303</hAcc><vAcc>0.715544</vAcc></extensions></trkpt>
      <trkpt lon="-3.154702" lat="53.018930"><ele>382.508514</ele><time>2021-09-01T10:37:50Z</time><extensions><speed>0.074628</speed><course>-1.000000</course><hAcc>0.888167</hAcc><vAcc>0.715201</vAcc></extensions></trkpt>
      <trkpt lon="-3.154703" lat="53.018930"><ele>382.558563</ele><time>2021-09-01T10:37:51Z</time><extensions><speed>0.077362</speed><course>-1.000000</course><hAcc>0.887949</hAcc><vAcc>0.714584</vAcc></extensions></trkpt>
      <trkpt lon="-3.154705" lat="53.018930"><ele>382.614960</ele><time>2021-09-01T10:37:51Z</time><extensions><speed>0.078559</speed><course>-1.000000</course><hAcc>0.887671</hAcc><vAcc>0.713703</vAcc></extensions></trkpt>
      <trkpt lon="-3.154706" lat="53.018930"><ele>382.677307</ele><time>2021-09-01T10:37:52Z</time><extensions><speed>0.079062</speed><course>-1.000000</course><hAcc>0.887336</hAcc><vAcc>0.712566</vAcc></extensions></trkpt>
      <trkpt lon="-3.154707" lat="53.018931"><ele>382.744659</ele><time>2021-09-01T10:37:53Z</time><extensions><speed>0.081482</speed><course>-1.000000</course><hAcc>0.886939</hAcc><vAcc>0.711187</vAcc></extensions></trkpt>
      <trkpt lon="-3.154707" lat="53.018931"><ele>382.815582</ele><time>2021-09-01T10:37:54Z</time><extensions><speed>0.090914</speed><course>-1.000000</course><hAcc>0.886494</hAcc><vAcc>0.709605</vAcc></extensions></trkpt>
      <trkpt lon="-3.154708" lat="53.018932"><ele>382.888153</ele><time>2021-09-01T10:37:55Z</time><extensions><speed>0.113392</speed><course>-1.000000</course><hAcc>0.886018</hAcc><vAcc>0.707879</vAcc></extensions></trkpt>
      <trkpt lon="-3.154708" lat="53.018933"><ele>382.959717</ele><time>2021-09-01T10:37:56Z</time><extensions><speed>0.152662</speed><course>-1.000000</course><hAcc>0.885532</hAcc><vAcc>0.706082</vAcc></extensions></trkpt>
      <trkpt lon="-3.154707" lat="53.018935"><ele>383.027191</ele><time>2021-09-01T10:37:57Z</time><extensions><speed>0.208425</speed><course>116.725777</course><hAcc>0.885057</hAcc><vAcc>0.704308</vAcc></extensions></trkpt>
      <trkpt lon="-3.154705" lat="53.018937"><ele>383.087372</ele><time>2021-09-01T10:37:58Z</time><extensions><speed>0.276746</speed><course>116.725777</course><hAcc>0.884614</hAcc><vAcc>0.702656</vAcc></extensions></trkpt>
      <trkpt lon="-3.154702" lat="53.018939"><ele>383.137177</ele><time>2021-09-01T10:37:59Z</time><extensions><speed>0.353313</speed><course>116.725777</course><hAcc>0.884220</hAcc><vAcc>0.701216</vAcc></extensions></trkpt>
      <trkpt lon="-3.154699" lat="53.018942"><ele>383.174042</ele><time>2021-09-01T10:38:00Z</time><extensions><speed>0.433805</speed><course>116.725777</course><hAcc>0.883891</hAcc><vAcc>0.700049</vAcc></extensions></trkpt>
      <trkpt lon="-3.154694" lat="53.018945"><ele>383.195740</ele><time>2021-09-01T10:38:01Z</time><extensions><speed>0.514374</speed><course>116.725777</course><hAcc>0.883636</hAcc><vAcc>0.699186</vAcc></extensions></trkpt>
      <trkpt lon="-3.154689" lat="53.018949"><ele>383.200287</ele><time>2021-09-01T10:38:02Z</time><extensions><speed>0.592401</speed><course>116.725784</course><hAcc>0.883458</hAcc><vAcc>0.698633</vAcc></extensions></trkpt>
      <trkpt lon="-3.154682" lat="53.018953"><ele>383.185913</ele><time>2021-09-01T10:38:03Z</time><extensions><speed>0.666351</speed><course>116.725784</course><hAcc>0.883360</hAcc><vAcc>0.698383</vAcc></extensions></trkpt>
      <trkpt lon="-3.154675" lat="53.018958"><ele>383.151611</ele><time>2021-09-01T10:38:04Z</time><extensions><speed>0.735274</speed><course>116.725784</course><hAcc>0.883336</hAcc><vAcc>0.698406</vAcc></extensions></trkpt>
      <trkpt lon="-3.154668" lat="53.018963"><ele>383.097076</ele><time>2021-09-01T10:38:05Z</time><extensions><speed>0.798233</speed><course>116.725784</course><hAcc>0.883376</hAcc><vAcc>0.698653</vAcc></extensions></trkpt>
      <trkpt lon="-3.154660" lat="53.018969"><ele>383.022797</ele><time>2021-09-01T10:38:06Z</time><extensions><speed>0.854155</speed><course>116.725784</course><hAcc>0.883470</hAcc><vAcc>0.699073</vAcc></extensions></trkpt>
      <trkpt lon="-3.154651" lat="53.018975"><ele>382.930267</ele><time>2021-09-01T10:38:07Z</time><extensions><speed>0.902464</speed><course>116.725784</course><hAcc>0.883606</hAcc><vAcc>0.699621</vAcc></extensions></trkpt>
      <trkpt lon="-3.154643" lat="53.018981"><ele>382.821869</ele><time>2021-09-01T10:38:08Z</time><extensions><speed>0.942928</speed><course>116.725784</course><hAcc>0.883770</hAcc><vAcc>0.700250</vAcc></extensions></trkpt>
      <trkpt lon="-3.154633" lat="53.018987"><ele>382.700867</ele><time>2021-09-01T10:38:09Z</time><extensions><speed>0.974911</speed><course>116.725784</course><hAcc>0.883951</hAcc><vAcc>0.700914</vAcc></extensions></trkpt>
      <trkpt lon="-3.154624" lat="53.018994"><ele>382.570923</ele><time>2021-09-01T10:38:10Z</time><extensions><speed>0.998582</speed><course>116.725784</course><hAcc>0.884137</hAcc><vAcc>0.701573</vAcc></extensions></trkpt>
      <trkpt lon="-3.154614" lat="53.019001"><ele>382.435974</ele><time>2021-09-01T10:38:11Z</time><extensions><speed>1.015040</speed><course>116.725784</course><hAcc>0.884319</hAcc><vAcc>0.702193</vAcc></extensions></trkpt>
      <trkpt lon="-3.154604" lat="53.019008"><ele>382.300079</ele><time>2021-09-01T10:38:12Z</time><extensions><speed>1.025456</speed><course>116.725784</course><hAcc>0.884490</hAcc><vAcc>0.702754</vAcc></extensions></trkpt>
      <trkpt lon="-3.154594" lat="53.019015"><ele>382.167175</ele><time>2021-09-01T10:38:13Z</time><extensions><speed>1.030920</speed><course>116.725784</course><hAcc>0.884645</hAcc><vAcc>0.703244</vAcc></extensions></trkpt>
      <trkpt lon="-3.154584" lat="53.019022"><ele>382.040833</ele><time>2021-09-01T10:38:14Z</time><extensions><speed>1.032454</speed><course>116.725784</course><hAcc>0.884780</hAcc><vAcc>0.703657</vAcc></extensions></trkpt>
      <trkpt lon="-3.154573" lat="53.019029"><ele>381.924316</ele><time>2021-09-01T10:38:15Z</time><extensions><speed>1.031108</speed><course>116.725784</course><hAcc>0.884894</hAcc><vAcc>0.703993</vAcc></extensions></trkpt>
      <trkpt lon="-3.154563" lat="53.019035"><ele>381.820862</ele><time>2021-09-01T10:38:16Z</time><extensions><speed>1.027794</speed><course>116.725784</course><hAcc>0.884987</hAcc><vAcc>0.704257</vAcc></extensions></trkpt>
      <trkpt lon="-3.154552" lat="53.019042"><ele>381.733337</ele><time>2021-09-01T10:38:17Z</time><extensions><speed>1.023638</speed><course>116.725784</course><hAcc>0.885061</hAcc><vAcc>0.704461</vAcc></extensions></trkpt>
      <trkpt lon="-3.154541" lat="53.019048"><ele>381.664093</ele><time>2021-09-01T10:38:18Z</time><extensions><speed>1.019794</speed><course>116.725784</course><hAcc>0.885115</hAcc><vAcc>0.704614</vAcc></extensions></trkpt>
      <trkpt lon="-3.154530" lat="53.019054"><ele>381.614258</ele><time>2021-09-01T10:38:19Z</time><extensions><speed>1.016466</speed><course>116.725777</course><hAcc>0.885154</hAcc><vAcc>0.704725</vAcc></extensions></trkpt>
      <trkpt lon="-3.154518" lat="53.019060"><ele>381.584045</ele><time>2021-09-01T10:38:20Z</time><extensions><speed>1.012737</speed><course>116.725769</course><hAcc>0.885177</hAcc><vAcc>0.704800</vAcc></extensions></trkpt>
      <trkpt lon="-3.154507" lat="53.019066"><ele>381.572906</ele><time>2021-09-01T10:38:21Z</time><extensions><speed>1.007192</speed><course>116.725769</course><hAcc>0.885188</hAcc><vAcc>0.704839</vAcc></extensions></trkpt>
      <trkpt lon="-3.154496" lat="53.019072"><ele>381.580017</ele><time>2021-09-01T10:38:22Z</time><extensions><speed>0.999205</speed><course>116.725761</course><hAcc>0.885188</hAcc><vAcc>0.704840</vAcc></extensions></trkpt>
      <trkpt lon="-3.154484" lat="53.019078"><ele>381.603851</ele><time>2021-09-01T10:38:23Z</time><extensions><speed>0.988550</speed><course>116.725754</course><hAcc>0.885180</hAcc><vAcc>0.704802</vAcc></extensions></trkpt>
      <trkpt lon="-3.154473" lat="53.019083"><ele>381.642639</ele><time>2021-09-01T10:38:24Z</time><extensions><speed>0.974247</speed><course>116.725746</course><hAcc>0.885165</hAcc><vAcc>0.704729</vAcc></extensions></trkpt>
      <trkpt lon="-3.154461" lat="53.019089"><ele>381.694489</ele><time>2021-09-01T10:38:25Z</time><extensions><speed>0.955710</speed><course>116.725746</course><hAcc>0.885145</hAcc><vAcc>0.704634</vAcc></extensions></trkpt>
      <trkpt lon="-3.154450" lat="53.019094"><ele>381.757507</ele><time>2021-09-01T10:38:26Z</time><extensions><speed>0.933086</speed><course>116.725731</course><hAcc>0.885123</hAcc><vAcc>0.704531</vAcc></extensions></trkpt>
      <trkpt lon="-3.154440" lat="53.019099"><ele>381.829803</ele><time>2021-09-01T10:38:27Z</time><extensions><speed>0.906402</speed><course>116.725723</course><hAcc>0.885097</hAcc><vAcc>0.704432</vAcc></extensions></trkpt>
      <trkpt lon="-3.154429" lat="53.019104"><ele>381.909668</ele><time>2021-09-01T10:38:28Z</time><extensions><speed>0.875348</speed><course>116.725723</course><hAcc>0.885071</hAcc><vAcc>0.704342</vAcc></extensions></trkpt>
      <trkpt lon="-3.154419" lat="53.019109"><ele>381.995361</ele><time>2021-09-01T10:38:29Z</time><extensions><speed>0.839698</speed><course>116.725708</course><hAcc>0.885043</hAcc><vAcc>0.704262</vAcc></extensions></trkpt>
      <trkpt lon="-3.154409" lat="53.019113"><ele>382.085358</ele><time>2021-09-01T10:38:30Z</time><extensions><speed>0.798515</speed><course>116.725700</course><hAcc>0.885012</hAcc><vAcc>0.704183</vAcc></extensions></trkpt>
      <trkpt lon="-3.154400" lat="53.019118"><ele>382.178345</ele><time>2021-09-01T10:38:31Z</time><extensions><speed>0.751017</speed><course>116.725693</course><hAcc>0.884977</hAcc><vAcc>0.704090</vAcc></extensions></trkpt>
      <trkpt lon="-3.154392" lat="53.019122"><ele>382.272888</ele><time>2021-09-01T10:38:32Z</time><extensions><speed>0.697487</speed><course>116.725685</course><hAcc>0.884936</hAcc><vAcc>0.703969</vAcc></extensions></trkpt>
      <trkpt lon="-3.154384" lat="53.019125"><ele>382.367432</ele><time>2021-09-01T10:38:33Z</time><extensions><speed>0.638831</speed><course>116.725670</course><hAcc>0.884885</hAcc><vAcc>0.703803</vAcc></extensions></trkpt>
      <trkpt lon="-3.154377" lat="53.019129"><ele>382.460297</ele><time>2021-09-01T10:38:34Z</time><extensions><speed>0.577309</speed><course>116.725670</course><hAcc>0.884823</hAcc><vAcc>0.703578</vAcc></extensions></trkpt>
      <trkpt lon="-3.154371" lat="53.019132"><ele>382.549927</ele><time>2021-09-01T10:38:35Z</time><extensions><speed>0.516099</speed><course>116.725662</course><hAcc>0.884743</hAcc><vAcc>0.703280</vAcc></extensions></trkpt>
      <trkpt lon="-3.154366" lat="53.019135"><ele>382.635406</ele><time>2021-09-01T10:38:36Z</time><extensions><speed>0.458194</speed><course>316.510925</course><hAcc>0.884642</hAcc><vAcc>0.702902</vAcc></extensions></trkpt>
      <trkpt lon="-3.154361" lat="53.019138"><ele>382.716309</ele><time>2021-09-01T10:38:37Z</time><extensions><speed>0.406301</speed><course>325.771881</course><hAcc>0.884513</hAcc><vAcc>0.702438</vAcc></extensions></trkpt>
      <trkpt lon="-3.154357" lat="53.019140"><ele>382.792572</ele><time>2021-09-01T10:38:38Z</time><extensions><speed>0.363042</speed><course>329.412018</course><hAcc>0.884350</hAcc><vAcc>0.701889</vAcc></extensions></trkpt>
      <trkpt lon="-3.154353" lat="53.019142"><ele>382.864227</ele><time>2021-09-01T10:38:39Z</time><extensions><speed>0.330512</speed><course>328.807678</course><hAcc>0.884144</hAcc><vAcc>0.701250</vAcc></extensions></trkpt>
      <trkpt lon="-3.154350" lat="53.019145"><ele>382.931305</ele><time>2021-09-01T10:38:40Z</time><extensions><speed>0.309902</speed><course>328.238739</course><hAcc>0.883891</hAcc><vAcc>0.700506</vAcc></extensions></trkpt>
      <trkpt lon="-3.154347" lat="53.019147"><ele>382.993988</ele><time>2021-09-01T10:38:41Z</time><extensions><speed>0.301833</speed><course>328.754333</course><hAcc>0.883588</hAcc><vAcc>0.699612</vAcc></extensions></trkpt>
      <trkpt lon="-3.154345" lat="53.019149"><ele>383.052429</ele><time>2021-09-01T10:38:42Z</time><extensions><speed>0.306952</speed><course>321.291412</course><hAcc>0.883241</hAcc><vAcc>0.698494</vAcc></extensions></trkpt>
      <trkpt lon="-3.154341" lat="53.019151"><ele>383.106903</ele><time>2021-09-01T10:38:43Z</time><extensions><speed>0.325954</speed><course>315.163422</course><hAcc>0.882870</hAcc><vAcc>0.697052</vAcc></extensions></trkpt>
      <trkpt lon="-3.154338" lat="53.019153"><ele>383.157654</ele><time>2021-09-01T10:38:44Z</time><extensions><speed>0.359589</speed><course>320.356079</course><hAcc>0.882519</hAcc><vAcc>0.695179</vAcc></extensions></trkpt>
      <trkpt lon="-3.154334" lat="53.019156"><ele>383.204895</ele><time>2021-09-01T10:38:45Z</time><extensions><speed>0.407951</speed><course>314.759003</course><hAcc>0.882258</hAcc><vAcc>0.692778</vAcc></extensions></trkpt>
      <trkpt lon="-3.154329" lat="53.019158"><ele>383.248596</ele><time>2021-09-01T10:38:46Z</time><extensions><speed>0.469937</speed><course>306.430359</course><hAcc>0.882195</hAcc><vAcc>0.689769</vAcc></extensions></trkpt>
      <trkpt lon="-3.154323" lat="53.019161"><ele>383.288422</ele><time>2021-09-01T10:38:47Z</time><extensions><speed>0.543259</speed><course>312.642456</course><hAcc>0.882474</hAcc><vAcc>0.686102</vAcc></extensions></trkpt>
      <trkpt lon="-3.154317" lat="53.019164"><ele>383.323822</ele><time>2021-09-01T10:38:48Z</time><extensions><speed>0.624515</speed><course>309.329712</course><hAcc>0.883269</hAcc><vAcc>0.681779</vAcc></extensions></trkpt>
      <trkpt lon="-3.154309" lat="53.019168"><ele>383.354248</ele><time>2021-09-01T10:38:49Z</time><extensions><speed>0.708984</speed><course>306.517120</course><hAcc>0.884772</hAcc><vAcc>0.676876</vAcc></extensions></trkpt>
      <trkpt lon="-3.154300" lat="53.019172"><ele>383.379395</ele><time>2021-09-01T10:38:50Z</time><extensions><speed>0.791239</speed><course>302.169647</course><hAcc>0.887165</hAcc><vAcc>0.671537</vAcc></extensions></trkpt>
      <trkpt lon="-3.154289" lat="53.019176"><ele>383.399658</ele><time>2021-09-01T10:38:51Z</time><extensions><speed>0.867734</speed><course>299.953156</course><hAcc>0.890580</hAcc><vAcc>0.665959</vAcc></extensions></trkpt>
      <trkpt lon="-3.154278" lat="53.019181"><ele>383.415619</ele><time>2021-09-01T10:38:52Z</time><extensions><speed>0.937412</speed><course>299.473511</course><hAcc>0.895060</hAcc><vAcc>0.660378</vAcc></extensions></trkpt>
      <trkpt lon="-3.154266" lat="53.019186"><ele>383.427490</ele><time>2021-09-01T10:38:53Z</time><extensions><speed>0.999931</speed><course>298.103729</course><hAcc>0.900532</hAcc><vAcc>0.655054</vAcc></extensions></trkpt>
      <trkpt lon="-3.154254" lat="53.019191"><ele>383.434906</ele><time>2021-09-01T10:38:54Z</time><extensions><speed>1.054429</speed><course>294.101929</course><hAcc>0.906830</hAcc><vAcc>0.650251</vAcc></extensions></trkpt>
      <trkpt lon="-3.154240" lat="53.019196"><ele>383.437805</ele><time>2021-09-01T10:38:55Z</time><extensions><speed>1.099317</speed><course>298.669067</course><hAcc>0.913734</hAcc><vAcc>0.646222</vAcc></extensions></trkpt>
      <trkpt lon="-3.154226" lat="53.019202"><ele>383.436981</ele><time>2021-09-01T10:38:56Z</time><extensions><speed>1.133754</speed><course>297.460327</course><hAcc>0.920983</hAcc><vAcc>0.643177</vAcc></extensions></trkpt>
      <trkpt lon="-3.154212" lat="53.019207"><ele>383.433441</ele><time>2021-09-01T10:38:57Z</time><extensions><speed>1.158227</speed><course>300.643127</course><hAcc>0.928294</hAcc><vAcc>0.641250</vAcc></extensions></trkpt>
      <trkpt lon="-3.154197" lat="53.019212"><ele>383.427765</ele><time>2021-09-01T10:38:58Z</time><extensions><speed>1.174063</speed><course>300.762909</course><hAcc>0.935371</hAcc><vAcc>0.640476</vAcc></extensions></trkpt>
      <trkpt lon="-3.154182" lat="53.019218"><ele>383.419800</ele><time>2021-09-01T10:38:59Z</time><extensions><speed>1.183401</speed><course>306.221161</course><hAcc>0.941936</hAcc><vAcc>0.640796</vAcc></extensions></trkpt>
      <trkpt lon="-3.154166" lat="53.019223"><ele>383.408966</ele><time>2021-09-01T10:39:00Z</time><extensions><speed>1.188263</speed><course>311.753571</course><hAcc>0.947735</hAcc><vAcc>0.642081</vAcc></extensions></trkpt>
      <trkpt lon="-3.154151" lat="53.019228"><ele>383.394287</ele><time>2021-09-01T10:39:01Z</time><extensions><speed>1.189947</speed><course>314.039551</course><hAcc>0.952523</hAcc><vAcc>0.644167</vAcc></extensions></trkpt>
      <trkpt lon="-3.154135" lat="53.019233"><ele>383.374847</ele><time>2021-09-01T10:39:02Z</time><extensions><speed>1.189727</speed><course>316.125336</course><hAcc>0.956034</hAcc><vAcc>0.646893</vAcc></extensions></trkpt>
      <trkpt lon="-3.154119" lat="53.019238"><ele>383.350647</ele><time>2021-09-01T10:39:03Z</time><extensions><speed>1.189004</speed><course>313.054962</course><hAcc>0.957985</hAcc><vAcc>0.650120</vAcc></extensions></trkpt>
      <trkpt lon="-3.154103" lat="53.019243"><ele>383.322693</ele><time>2021-09-01T10:39:04Z</time><extensions><speed>1.188782</speed><course>309.718231</course><hAcc>0.958102</hAcc><vAcc>0.653738</vAcc></extensions></trkpt>
      <trkpt lon="-3.154087" lat="53.019247"><ele>383.291992</ele><time>2021-09-01T10:39:05Z</time><extensions><speed>1.189629</speed><course>315.993652</course><hAcc>0.956161</hAcc><vAcc>0.657663</vAcc></extensions></trkpt>
      <trkpt lon="-3.154071" lat="53.019252"><ele>383.259186</ele><time>2021-09-01T10:39:06Z</time><extensions><speed>1.191659</speed><course>314.639465</course><hAcc>0.952049</hAcc><vAcc>0.661824</vAcc></extensions></trkpt>
      <trkpt lon="-3.154055" lat="53.019257"><ele>383.224487</ele><time>2021-09-01T10:39:07Z</time><extensions><speed>1.194884</speed><course>314.699524</course><hAcc>0.945830</hAcc><vAcc>0.666155</vAcc></extensions></trkpt>
      <trkpt lon="-3.154039" lat="53.019261"><ele>383.188293</ele><time>2021-09-01T10:39:08Z</time><extensions><speed>1.199752</speed><course>315.537170</course><hAcc>0.937823</hAcc><vAcc>0.670585</vAcc></extensions></trkpt>
      <trkpt lon="-3.154023" lat="53.019266"><ele>383.151581</ele><time>2021-09-01T10:39:09Z</time><extensions><speed>1.206905</speed><course>315.384186</course><hAcc>0.928674</hAcc><vAcc>0.675037</vAcc></extensions></trkpt>
      <trkpt lon="-3.154007" lat="53.019271"><ele>383.115112</ele><time>2021-09-01T10:39:10Z</time><extensions><speed>1.216903</speed><course>316.068207</course><hAcc>0.919286</hAcc><vAcc>0.679428</vAcc></extensions></trkpt>
      <trkpt lon="-3.153990" lat="53.019276"><ele>383.079010</ele><time>2021-09-01T10:39:11Z</time><extensions><speed>1.229168</speed><course>319.526184</course><hAcc>0.910542</hAcc><vAcc>0.683662</vAcc></extensions></trkpt>
      <trkpt lon="-3.153974" lat="53.019280"><ele>383.043182</ele><time>2021-09-01T10:39:12Z</time><extensions><speed>1.241821</speed><course>322.032959</course><hAcc>0.903040</hAcc><vAcc>0.687633</vAcc></extensions></trkpt>
      <trkpt lon="-3.153957" lat="53.019285"><ele>383.007324</ele><time>2021-09-01T10:39:13Z</time><extensions><speed>1.253355</speed><course>326.209290</course><hAcc>0.897043</hAcc><vAcc>0.691239</vAcc></extensions></trkpt>
      <trkpt lon="-3.153940" lat="53.019290"><ele>382.970947</ele><time>2021-09-01T10:39:14Z</time><extensions><speed>1.262940</speed><course>324.142303</course><hAcc>0.892555</hAcc><vAcc>0.694406</vAcc></extensions></trkpt>
      <trkpt lon="-3.153924" lat="53.019296"><ele>382.933929</ele><time>2021-09-01T10:39:15Z</time><extensions><speed>1.270627</speed><course>332.193542</course><hAcc>0.889417</hAcc><vAcc>0.697101</vAcc></extensions></trkpt>
      <trkpt lon="-3.153907" lat="53.019301"><ele>382.895874</ele><time>2021-09-01T10:39:16Z</time><extensions><speed>1.276520</speed><course>329.558014</course><hAcc>0.887381</hAcc><vAcc>0.699330</vAcc></extensions></trkpt>
      <trkpt lon="-3.153890" lat="53.019306"><ele>382.856110</ele><time>2021-09-01T10:39:17Z</time><extensions><speed>1.279738</speed><course>323.309692</course><hAcc>0.886181</hAcc><vAcc>0.701130</vAcc></extensions></trkpt>
      <trkpt lon="-3.153873" lat="53.019312"><ele>382.813934</ele><time>2021-09-01T10:39:18Z</time><extensions><speed>1.279810</speed><course>319.992767</course><hAcc>0.885570</hAcc><vAcc>0.702557</vAcc></extensions></trkpt>
      <trkpt lon="-3.153856" lat="53.019317"><ele>382.769165</ele><time>2021-09-01T10:39:19Z</time><extensions><speed>1.276623</speed><course>322.539886</course><hAcc>0.885343</hAcc><vAcc>0.703677</vAcc></extensions></trkpt>
      <trkpt lon="-3.153840" lat="53.019322"><ele>382.722198</ele><time>2021-09-01T10:39:20Z</time><extensions><speed>1.269566</speed><course>317.532928</course><hAcc>0.885343</hAcc><vAcc>0.704555</vAcc></extensions></trkpt>
      <trkpt lon="-3.153823" lat="53.019328"><ele>382.673767</ele><time>2021-09-01T10:39:21Z</time><extensions><speed>1.258084</speed><course>314.725220</course><hAcc>0.885462</hAcc><vAcc>0.705256</vAcc></extensions></trkpt>
      <trkpt lon="-3.153807" lat="53.019333"><ele>382.624603</ele><time>2021-09-01T10:39:22Z</time><extensions><speed>1.241901</speed><course>325.463684</course><hAcc>0.885628</hAcc><vAcc>0.705833</vAcc></extensions></trkpt>
      <trkpt lon="-3.153791" lat="53.019338"><ele>382.575287</ele><time>2021-09-01T10:39:23Z</time><extensions><speed>1.222314</speed><course>326.490570</course><hAcc>0.885801</hAcc><vAcc>0.706331</vAcc></extensions></trkpt>
      <trkpt lon="-3.153775" lat="53.019344"><ele>382.526581</ele><time>2021-09-01T10:39:24Z</time><extensions><speed>1.201357</speed><course>316.111328</course><hAcc>0.885962</hAcc><vAcc>0.706781</vAcc></extensions></trkpt>
      <trkpt lon="-3.153759" lat="53.019348"><ele>382.479767</ele><time>2021-09-01T10:39:25Z</time><extensions><speed>1.180394</speed><course>316.470520</course><hAcc>0.886102</hAcc><vAcc>0.707200</vAcc></extensions></trkpt>
      <trkpt lon="-3.153743" lat="53.019353"><ele>382.436401</ele><time>2021-09-01T10:39:26Z</time><extensions><speed>1.160785</speed><course>317.921600</course><hAcc>0.886223</hAcc><vAcc>0.707596</vAcc></extensions></trkpt>
      <trkpt lon="-3.153728" lat="53.019358"><ele>382.397919</ele><time>2021-09-01T10:39:27Z</time><extensions><speed>1.143038</speed><course>317.925903</course><hAcc>0.886327</hAcc><vAcc>0.707972</vAcc></extensions></trkpt>
      <trkpt lon="-3.153712" lat="53.019362"><ele>382.365662</ele><time>2021-09-01T10:39:28Z</time><extensions><speed>1.127346</speed><course>316.840515</course><hAcc>0.886419</hAcc><vAcc>0.708330</vAcc></extensions></trkpt>
      <trkpt lon="-3.153697" lat="53.019366"><ele>382.340759</ele><time>2021-09-01T10:39:29Z</time><extensions><speed>1.114310</speed><course>321.987762</course><hAcc>0.886501</hAcc><vAcc>0.708670</vAcc></extensions></trkpt>
      <trkpt lon="-3.153682" lat="53.019370"><ele>382.323822</ele><time>2021-09-01T10:39:30Z</time><extensions><speed>1.104634</speed><course>314.291290</course><hAcc>0.886574</hAcc><vAcc>0.708991</vAcc></extensions></trkpt>
      <trkpt lon="-3.153667" lat="53.019375"><ele>382.314789</ele><time>2021-09-01T10:39:31Z</time><extensions><speed>1.098741</speed><course>311.665222</course><hAcc>0.886640</hAcc><vAcc>0.709287</vAcc></extensions></trkpt>
      <trkpt lon="-3.153652" lat="53.019379"><ele>382.313019</ele><time>2021-09-01T10:39:32Z</time><extensions><speed>1.097025</speed><course>315.645782</course><hAcc>0.886698</hAcc><vAcc>0.709547</vAcc></extensions></trkpt>
      <trkpt lon="-3.153638" lat="53.019383"><ele>382.317352</ele><time>2021-09-01T10:39:33Z</time><extensions><speed>1.100104</speed><course>312.390594</course><hAcc>0.886746</hAcc><vAcc>0.709763</vAcc></extensions></trkpt>
      <trkpt lon="-3.153623" lat="53.019387"><ele>382.326385</ele><time>2021-09-01T10:39:34Z</time><extensions><speed>1.108081</speed><course>315.968140</course><hAcc>0.886784</hAcc><vAcc>0.709926</vAcc></extensions></trkpt>
      <trkpt lon="-3.153608" lat="53.019391"><ele>382.338348</ele><time>2021-09-01T10:39:35Z</time><extensions><speed>1.120563</speed><course>305.843231</course><hAcc>0.886809</hAcc><vAcc>0.710032</vAcc></extensions></trkpt>
      <trkpt lon="-3.153592" lat="53.019395"><ele>382.351257</ele><time>2021-09-01T10:39:36Z</time><extensions><speed>1.136689</speed><course>307.428955</course><hAcc>0.886822</hAcc><vAcc>0.710079</vAcc></extensions></trkpt>
      <trkpt lon="-3.153577" lat="53.019400"><ele>382.363281</ele><time>2021-09-01T10:39:37Z</time><extensions><speed>1.155046</speed><course>303.591888</course><hAcc>0.886823</hAcc><vAcc>0.710071</vAcc></extensions></trkpt>
      <trkpt lon="-3.153562" lat="53.019405"><ele>382.372833</ele><time>2021-09-01T10:39:38Z</time><extensions><speed>1.174942</speed><course>302.311584</course><hAcc>0.886813</hAcc><vAcc>0.710016</vAcc></extensions></trkpt>
      <trkpt lon="-3.153546" lat="53.019410"><ele>382.378296</ele><time>2021-09-01T10:39:39Z</time><extensions><speed>1.195782</speed><course>296.010498</course><hAcc>0.886794</hAcc><vAcc>0.709922</vAcc></extensions></trkpt>
      <trkpt lon="-3.153530" lat="53.019415"><ele>382.378143</ele><time>2021-09-01T10:39:40Z</time><extensions><speed>1.216258</speed><course>298.597748</course><hAcc>0.886770</hAcc><vAcc>0.709801</vAcc></extensions></trkpt>
      <trkpt lon="-3.153514" lat="53.019420"><ele>382.371033</ele><time>2021-09-01T10:39:41Z</time><extensions><speed>1.235276</speed><course>307.419373</course><hAcc>0.886744</hAcc><vAcc>0.709667</vAcc></extensions></trkpt>
      <trkpt lon="-3.153498" lat="53.019426"><ele>382.356140</ele><time>2021-09-01T10:39:42Z</time><extensions><speed>1.252740</speed><course>311.127045</course><hAcc>0.886720</hAcc><vAcc>0.709532</vAcc></extensions></trkpt>
      <trkpt lon="-3.153482" lat="53.019431"><ele>382.333130</ele><time>2021-09-01T10:39:43Z</time><extensions><speed>1.268704</speed><course>308.779785</course><hAcc>0.886704</hAcc><vAcc>0.709411</vAcc></extensions></trkpt>
      <trkpt lon="-3.153465" lat="53.019437"><ele>382.301361</ele><time>2021-09-01T10:39:44Z</time><extensions><speed>1.282209</speed><course>310.817932</course><hAcc>0.886699</hAcc><vAcc>0.709323</vAcc></extensions></trkpt>
      <trkpt lon="-3.153449" lat="53.019443"><ele>382.259521</ele><time>2021-09-01T10:39:45Z</time><extensions><speed>1.292036</speed><course>313.903961</course><hAcc>0.886709</hAcc><vAcc>0.709287</vAcc></extensions></trkpt>
      <trkpt lon="-3.153433" lat="53.019450"><ele>382.206116</ele><time>2021-09-01T10:39:46Z</time><extensions><speed>1.297246</speed><course>312.113068</course><hAcc>0.886736</hAcc><vAcc>0.709319</vAcc></extensions></trkpt>
      <trkpt lon="-3.153417" lat="53.019456"><ele>382.140381</ele><time>2021-09-01T10:39:48Z</time><extensions><speed>1.298092</speed><course>298.693726</course><hAcc>0.886764</hAcc><vAcc>0.709417</vAcc></extensions></trkpt>
      <trkpt lon="-3.153401" lat="53.019463"><ele>382.062683</ele><time>2021-09-01T10:39:49Z</time><extensions><speed>1.295418</speed><course>304.126526</course><hAcc>0.886792</hAcc><vAcc>0.709579</vAcc></extensions></trkpt>
      <trkpt lon="-3.153385" lat="53.019469"><ele>381.973938</ele><time>2021-09-01T10:39:50Z</time><extensions><speed>1.289693</speed><course>307.202972</course><hAcc>0.886835</hAcc><vAcc>0.709805</vAcc></extensions></trkpt>
      <trkpt lon="-3.153369" lat="53.019476"><ele>381.876129</ele><time>2021-09-01T10:39:51Z</time><extensions><speed>1.280775</speed><course>306.849365</course><hAcc>0.886889</hAcc><vAcc>0.710077</vAcc></extensions></trkpt>
      <trkpt lon="-3.153354" lat="53.019483"><ele>381.771942</ele><time>2021-09-01T10:39:52Z</time><extensions><speed>1.268236</speed><course>311.228149</course><hAcc>0.886948</hAcc><vAcc>0.710372</vAcc></extensions></trkpt>
      <trkpt lon="-3.153339" lat="53.019490"><ele>381.663635</ele><time>2021-09-01T10:39:53Z</time><extensions><speed>1.252009</speed><course>314.984741</course><hAcc>0.887008</hAcc><vAcc>0.710665</vAcc></extensions></trkpt>
      <trkpt lon="-3.153325" lat="53.019496"><ele>381.552917</ele><time>2021-09-01T10:39:54Z</time><extensions><speed>1.232558</speed><course>312.149628</course><hAcc>0.887061</hAcc><vAcc>0.710931</vAcc></extensions></trkpt>
      <trkpt lon="-3.153310" lat="53.019503"><ele>381.441681</ele><time>2021-09-01T10:39:55Z</time><extensions><speed>1.210541</speed><course>303.811646</course><hAcc>0.887104</hAcc><vAcc>0.711150</vAcc></extensions></trkpt>
      <trkpt lon="-3.153297" lat="53.019510"><ele>381.331970</ele><time>2021-09-01T10:39:55Z</time><extensions><speed>1.186263</speed><course>306.939087</course><hAcc>0.887149</hAcc><vAcc>0.711320</vAcc></extensions></trkpt>
      <trkpt lon="-3.153283" lat="53.019517"><ele>381.225433</ele><time>2021-09-01T10:39:56Z</time><extensions><speed>1.160191</speed><course>305.149933</course><hAcc>0.887195</hAcc><vAcc>0.711433</vAcc></extensions></trkpt>
      <trkpt lon="-3.153270" lat="53.019524"><ele>381.123840</ele><time>2021-09-01T10:39:57Z</time><extensions><speed>1.133873</speed><course>307.460999</course><hAcc>0.887223</hAcc><vAcc>0.711476</vAcc></extensions></trkpt>
      <trkpt lon="-3.153258" lat="53.019530"><ele>381.027954</ele><time>2021-09-01T10:39:58Z</time><extensions><speed>1.108830</speed><course>310.556549</course><hAcc>0.887233</hAcc><vAcc>0.711454</vAcc></extensions></trkpt>
      <trkpt lon="-3.153246" lat="53.019537"><ele>380.938049</ele><time>2021-09-01T10:39:59Z</time><extensions><speed>1.085586</speed><course>316.643463</course><hAcc>0.887227</hAcc><vAcc>0.711378</vAcc></extensions></trkpt>
      <trkpt lon="-3.153234" lat="53.019543"><ele>380.854584</ele><time>2021-09-01T10:40:00Z</time><extensions><speed>1.064023</speed><course>310.111420</course><hAcc>0.887207</hAcc><vAcc>0.711263</vAcc></extensions></trkpt>
      <trkpt lon="-3.153222" lat="53.019550"><ele>380.777679</ele><time>2021-09-01T10:40:01Z</time><extensions><speed>1.043896</speed><course>309.394775</course><hAcc>0.887175</hAcc><vAcc>0.711122</vAcc></extensions></trkpt>
      <trkpt lon="-3.153211" lat="53.019556"><ele>380.707092</ele><time>2021-09-01T10:40:02Z</time><extensions><speed>1.024202</speed><course>312.734375</course><hAcc>0.887134</hAcc><vAcc>0.710963</vAcc></extensions></trkpt>
      <trkpt lon="-3.153200" lat="53.019563"><ele>380.642944</ele><time>2021-09-01T10:40:03Z</time><extensions><speed>1.004592</speed><course>307.110260</course><hAcc>0.887087</hAcc><vAcc>0.710794</vAcc></extensions></trkpt>
      <trkpt lon="-3.153190" lat="53.019569"><ele>380.585510</ele><time>2021-09-01T10:40:04Z</time><extensions><speed>0.986257</speed><course>304.794312</course><hAcc>0.887036</hAcc><vAcc>0.710618</vAcc></extensions></trkpt>
      <trkpt lon="-3.153179" lat="53.019575"><ele>380.534546</ele><time>2021-09-01T10:40:05Z</time><extensions><speed>0.971253</speed><course>309.669006</course><hAcc>0.886982</hAcc><vAcc>0.710436</vAcc></extensions></trkpt>
      <trkpt lon="-3.153169" lat="53.019581"><ele>380.488983</ele><time>2021-09-01T10:40:06Z</time><extensions><speed>0.961881</speed><course>309.747101</course><hAcc>0.886928</hAcc><vAcc>0.710254</vAcc></extensions></trkpt>
      <trkpt lon="-3.153159" lat="53.019587"><ele>380.447327</ele><time>2021-09-01T10:40:07Z</time><extensions><speed>0.959428</speed><course>308.451904</course><hAcc>0.886875</hAcc><vAcc>0.710075</vAcc></extensions></trkpt>
      <trkpt lon="-3.153149" lat="53.019594"><ele>380.408203</ele><time>2021-09-01T10:40:08Z</time><extensions><speed>0.964060</speed><course>313.674774</course><hAcc>0.886822</hAcc><vAcc>0.709902</vAcc></extensions></trkpt>
      <trkpt lon="-3.153139" lat="53.019600"><ele>380.370667</ele><time>2021-09-01T10:40:09Z</time><extensions><speed>0.974969</speed><course>310.174561</course><hAcc>0.886771</hAcc><vAcc>0.709740</vAcc></extensions></trkpt>
      <trkpt lon="-3.153129" lat="53.019606"><ele>380.333771</ele><time>2021-09-01T10:40:10Z</time><extensions><speed>0.990813</speed><course>312.894348</course><hAcc>0.886720</hAcc><vAcc>0.709588</vAcc></extensions></trkpt>
      <trkpt lon="-3.153118" lat="53.019613"><ele>380.296722</ele><time>2021-09-01T10:40:11Z</time><extensions><speed>1.010881</speed><course>309.740997</course><hAcc>0.886670</hAcc><vAcc>0.709443</vAcc></extensions></trkpt>
      <trkpt lon="-3.153107" lat="53.019619"><ele>380.258759</ele><time>2021-09-01T10:40:12Z</time><extensions><speed>1.034857</speed><course>309.271240</course><hAcc>0.886618</hAcc><vAcc>0.709301</vAcc></extensions></trkpt>
      <trkpt lon="-3.153096" lat="53.019626"><ele>380.218903</ele><time>2021-09-01T10:40:13Z</time><extensions><speed>1.061868</speed><course>309.840485</course><hAcc>0.886566</hAcc><vAcc>0.709158</vAcc></extensions></trkpt>
      <trkpt lon="-3.153085" lat="53.019632"><ele>380.176056</ele><time>2021-09-01T10:40:14Z</time><extensions><speed>1.090403</speed><course>308.054108</course><hAcc>0.886510</hAcc><vAcc>0.709006</vAcc></extensions></trkpt>
      <trkpt lon="-3.153073" lat="53.019639"><ele>380.129272</ele><time>2021-09-01T10:40:15Z</time><extensions><speed>1.119342</speed><course>306.226685</course><hAcc>0.886453</hAcc><vAcc>0.708839</vAcc></extensions></trkpt>
      <trkpt lon="-3.153060" lat="53.019646"><ele>380.078064</ele><time>2021-09-01T10:40:16Z</time><extensions><speed>1.148065</speed><course>316.211884</course><hAcc>0.886392</hAcc><vAcc>0.708649</vAcc></extensions></trkpt>
      <trkpt lon="-3.153047" lat="53.019653"><ele>380.022186</ele><time>2021-09-01T10:40:17Z</time><extensions><speed>1.175828</speed><course>312.798523</course><hAcc>0.886330</hAcc><vAcc>0.708435</vAcc></extensions></trkpt>
      <trkpt lon="-3.153034" lat="53.019660"><ele>379.961731</ele><time>2021-09-01T10:40:18Z</time><extensions><speed>1.202108</speed><course>314.823364</course><hAcc>0.886268</hAcc><vAcc>0.708205</vAcc></extensions></trkpt>
      <trkpt lon="-3.153021" lat="53.019667"><ele>379.897064</ele><time>2021-09-01T10:40:19Z</time><extensions><speed>1.225810</speed><course>317.560303</course><hAcc>0.886206</hAcc><vAcc>0.707969</vAcc></extensions></trkpt>
      <trkpt lon="-3.153007" lat="53.019675"><ele>379.829071</ele><time>2021-09-01T10:40:20Z</time><extensions><speed>1.245739</speed><course>313.870911</course><hAcc>0.886148</hAcc><vAcc>0.707743</vAcc></extensions></trkpt>
      <trkpt lon="-3.152993" lat="53.019682"><ele>379.758728</ele><time>2021-09-01T10:40:21Z</time><extensions><speed>1.261757</speed><course>320.858917</course><hAcc>0.886096</hAcc><vAcc>0.707539</vAcc></extensions></trkpt>
      <trkpt lon="-3.152979" lat="53.019690"><ele>379.686859</ele><time>2021-09-01T10:40:22Z</time><extensions><speed>1.274138</speed><course>322.110107</course><hAcc>0.886053</hAcc><vAcc>0.707371</vAcc></extensions></trkpt>
      <trkpt lon="-3.152965" lat="53.019697"><ele>379.614563</ele><time>2021-09-01T10:40:23Z</time><extensions><speed>1.282927</speed><course>322.258118</course><hAcc>0.886020</hAcc><vAcc>0.707247</vAcc></extensions></trkpt>
      <trkpt lon="-3.152950" lat="53.019705"><ele>379.542999</ele><time>2021-09-01T10:40:24Z</time><extensions><speed>1.288409</speed><course>323.751770</course><hAcc>0.886000</hAcc><vAcc>0.707176</vAcc></extensions></trkpt>
      <trkpt lon="-3.152936" lat="53.019713"><ele>379.472656</ele><time>2021-09-01T10:40:25Z</time><extensions><speed>1.291146</speed><course>311.017761</course><hAcc>0.885995</hAcc><vAcc>0.707161</vAcc></extensions></trkpt>
      <trkpt lon="-3.152922" lat="53.019720"><ele>379.403870</ele><time>2021-09-01T10:40:26Z</time><extensions><speed>1.291994</speed><course>303.134949</course><hAcc>0.886005</hAcc><vAcc>0.707202</vAcc></extensions></trkpt>
      <trkpt lon="-3.152907" lat="53.019728"><ele>379.337128</ele><time>2021-09-01T10:40:27Z</time><extensions><speed>1.291398</speed><course>305.266266</course><hAcc>0.886031</hAcc><vAcc>0.707292</vAcc></extensions></trkpt>
      <trkpt lon="-3.152893" lat="53.019736"><ele>379.272919</ele><time>2021-09-01T10:40:28Z</time><extensions><speed>1.288881</speed><course>306.244568</course><hAcc>0.886073</hAcc><vAcc>0.707429</vAcc></extensions></trkpt>
      <trkpt lon="-3.152879" lat="53.019744"><ele>379.211273</ele><time>2021-09-01T10:40:29Z</time><extensions><speed>1.284143</speed><course>311.028961</course><hAcc>0.886131</hAcc><vAcc>0.707610</vAcc></extensions></trkpt>
      <trkpt lon="-3.152866" lat="53.019752"><ele>379.152008</ele><time>2021-09-01T10:40:30Z</time><extensions><speed>1.277683</speed><course>304.990997</course><hAcc>0.886203</hAcc><vAcc>0.707838</vAcc></extensions></trkpt>
      <trkpt lon="-3.152852" lat="53.019760"><ele>379.094666</ele><time>2021-09-01T10:40:31Z</time><extensions><speed>1.269976</speed><course>305.619354</course><hAcc>0.886288</hAcc><vAcc>0.708113</vAcc></extensions></trkpt>
      <trkpt lon="-3.152839" lat="53.019768"><ele>379.038086</ele><time>2021-09-01T10:40:32Z</time><extensions><speed>1.261480</speed><course>319.038269</course><hAcc>0.886382</hAcc><vAcc>0.708435</vAcc></extensions></trkpt>
      <trkpt lon="-3.152826" lat="53.019776"><ele>378.980774</ele><time>2021-09-01T10:40:33Z</time><extensions><speed>1.252293</speed><course>314.772644</course><hAcc>0.886484</hAcc><vAcc>0.708795</vAcc></extensions></trkpt>
      <trkpt lon="-3.152813" lat="53.019785"><ele>378.921295</ele><time>2021-09-01T10:40:34Z</time><extensions><speed>1.241688</speed><course>314.865356</course><hAcc>0.886590</hAcc><vAcc>0.709180</vAcc></extensions></trkpt>
      <trkpt lon="-3.152801" lat="53.019793"><ele>378.858368</ele><time>2021-09-01T10:40:35Z</time><extensions><speed>1.229550</speed><course>315.584076</course><hAcc>0.886694</hAcc><vAcc>0.709575</vAcc></extensions></trkpt>
      <trkpt lon="-3.152789" lat="53.019801"><ele>378.790833</ele><time>2021-09-01T10:40:36Z</time><extensions><speed>1.216264</speed><course>318.301117</course><hAcc>0.886794</hAcc><vAcc>0.709960</vAcc></extensions></trkpt>
      <trkpt lon="-3.152778" lat="53.019810"><ele>378.717804</ele><time>2021-09-01T10:40:37Z</time><extensions><speed>1.202217</speed><course>308.957520</course><hAcc>0.886884</hAcc><vAcc>0.710312</vAcc></extensions></trkpt>
      <trkpt lon="-3.152767" lat="53.019818"><ele>378.639008</ele><time>2021-09-01T10:40:38Z</time><extensions><speed>1.187850</speed><course>309.679749</course><hAcc>0.886961</hAcc><vAcc>0.710612</vAcc></extensions></trkpt>
      <trkpt lon="-3.152756" lat="53.019826"><ele>378.554596</ele><time>2021-09-01T10:40:39Z</time><extensions><speed>1.173155</speed><course>315.508118</course><hAcc>0.887021</hAcc><vAcc>0.710842</vAcc></extensions></trkpt>
      <trkpt lon="-3.152745" lat="53.019834"><ele>378.464874</ele><time>2021-09-01T10:40:40Z</time><extensions><speed>1.157356</speed><course>315.740204</course><hAcc>0.887063</hAcc><vAcc>0.710991</vAcc></extensions></trkpt>
      <trkpt lon="-3.152734" lat="53.019843"><ele>378.370789</ele><time>2021-09-01T10:40:41Z</time><extensions><speed>1.139856</speed><course>310.654785</course><hAcc>0.887085</hAcc><vAcc>0.711053</vAcc></extensions></trkpt>
      <trkpt lon="-3.152724" lat="53.019851"><ele>378.273773</ele><time>2021-09-01T10:40:42Z</time><extensions><speed>1.121042</speed><course>314.784058</course><hAcc>0.887088</hAcc><vAcc>0.711031</vAcc></extensions></trkpt>
      <trkpt lon="-3.152713" lat="53.019858"><ele>378.175537</ele><time>2021-09-01T10:40:43Z</time><extensions><speed>1.101497</speed><course>306.836517</course><hAcc>0.887071</hAcc><vAcc>0.710931</vAcc></extensions></trkpt>
      <trkpt lon="-3.152703" lat="53.019866"><ele>378.077850</ele><time>2021-09-01T10:40:44Z</time><extensions><speed>1.082064</speed><course>319.014709</course><hAcc>0.887038</hAcc><vAcc>0.710766</vAcc></extensions></trkpt>
      <trkpt lon="-3.152693" lat="53.019874"><ele>377.982422</ele><time>2021-09-01T10:40:45Z</time><extensions><speed>1.064105</speed><course>316.668060</course><hAcc>0.886990</hAcc><vAcc>0.710549</vAcc></extensions></trkpt>
      <trkpt lon="-3.152683" lat="53.019881"><ele>377.891357</ele><time>2021-09-01T10:40:46Z</time><extensions><speed>1.048466</speed><course>317.381256</course><hAcc>0.886929</hAcc><vAcc>0.710299</vAcc></extensions></trkpt>
      <trkpt lon="-3.152673" lat="53.019888"><ele>377.806671</ele><time>2021-09-01T10:40:47Z</time><extensions><speed>1.034990</speed><course>315.522644</course><hAcc>0.886855</hAcc><vAcc>0.710031</vAcc></extensions></trkpt>
      <trkpt lon="-3.152663" lat="53.019895"><ele>377.730560</ele><time>2021-09-01T10:40:48Z</time><extensions><speed>1.022884</speed><course>313.748596</course><hAcc>0.886768</hAcc><vAcc>0.709755</vAcc></extensions></trkpt>
      <trkpt lon="-3.152652" lat="53.019901"><ele>377.665466</ele><time>2021-09-01T10:40:49Z</time><extensions><speed>1.010965</speed><course>311.298676</course><hAcc>0.886667</hAcc><vAcc>0.709471</vAcc></extensions></trkpt>
      <trkpt lon="-3.152641" lat="53.019908"><ele>377.613739</ele><time>2021-09-01T10:40:50Z</time><extensions><speed>0.998596</speed><course>307.453308</course><hAcc>0.886548</hAcc><vAcc>0.709167</vAcc></extensions></trkpt>
      <trkpt lon="-3.152630" lat="53.019914"><ele>377.577454</ele><time>2021-09-01T10:40:51Z</time><extensions><speed>0.985193</speed><course>308.937561</course><hAcc>0.886406</hAcc><vAcc>0.708822</vAcc></extensions></trkpt>
      <trkpt lon="-3.152619" lat="53.019919"><ele>377.558350</ele><time>2021-09-01T10:40:52Z</time><extensions><speed>0.969188</speed><course>304.505646</course><hAcc>0.886239</hAcc><vAcc>0.708406</vAcc></extensions></trkpt>
      <trkpt lon="-3.152608" lat="53.019924"><ele>377.557922</ele><time>2021-09-01T10:40:53Z</time><extensions><speed>0.948708</speed><course>299.094574</course><hAcc>0.886041</hAcc><vAcc>0.707886</vAcc></extensions></trkpt>
      <trkpt lon="-3.152596" lat="53.019929"><ele>377.577423</ele><time>2021-09-01T10:40:54Z</time><extensions><speed>0.922110</speed><course>310.704071</course><hAcc>0.885809</hAcc><vAcc>0.707234</vAcc></extensions></trkpt>
      <trkpt lon="-3.152585" lat="53.019933"><ele>377.617645</ele><time>2021-09-01T10:40:55Z</time><extensions><speed>0.888345</speed><course>308.713898</course><hAcc>0.885542</hAcc><vAcc>0.706427</vAcc></extensions></trkpt>
      <trkpt lon="-3.152574" lat="53.019937"><ele>377.678925</ele><time>2021-09-01T10:40:56Z</time><extensions><speed>0.846507</speed><course>315.990417</course><hAcc>0.885242</hAcc><vAcc>0.705459</vAcc></extensions></trkpt>
      <trkpt lon="-3.152563" lat="53.019941"><ele>377.761108</ele><time>2021-09-01T10:40:57Z</time><extensions><speed>0.795520</speed><course>316.941956</course><hAcc>0.884913</hAcc><vAcc>0.704342</vAcc></extensions></trkpt>
      <trkpt lon="-3.152553" lat="53.019944"><ele>377.863281</ele><time>2021-09-01T10:40:58Z</time><extensions><speed>0.735002</speed><course>326.025696</course><hAcc>0.884562</hAcc><vAcc>0.703110</vAcc></extensions></trkpt>
      <trkpt lon="-3.152543" lat="53.019946"><ele>377.983398</ele><time>2021-09-01T10:40:59Z</time><extensions><speed>0.665468</speed><course>316.997101</course><hAcc>0.884198</hAcc><vAcc>0.701811</vAcc></extensions></trkpt>
      <trkpt lon="-3.152534" lat="53.019948"><ele>378.118530</ele><time>2021-09-01T10:41:00Z</time><extensions><speed>0.588809</speed><course>307.396637</course><hAcc>0.883834</hAcc><vAcc>0.700498</vAcc></extensions></trkpt>
      <trkpt lon="-3.152527" lat="53.019950"><ele>378.264954</ele><time>2021-09-01T10:41:01Z</time><extensions><speed>0.509993</speed><course>307.245117</course><hAcc>0.883481</hAcc><vAcc>0.699224</vAcc></extensions></trkpt>
      <trkpt lon="-3.152520" lat="53.019952"><ele>378.418671</ele><time>2021-09-01T10:41:02Z</time><extensions><speed>0.434681</speed><course>302.943970</course><hAcc>0.883152</hAcc><vAcc>0.698044</vAcc></extensions></trkpt>
      <trkpt lon="-3.152514" lat="53.019953"><ele>378.575775</ele><time>2021-09-01T10:41:03Z</time><extensions><speed>0.366141</speed><course>310.986115</course><hAcc>0.882859</hAcc><vAcc>0.697008</vAcc></extensions></trkpt>
      <trkpt lon="-3.152510" lat="53.019954"><ele>378.732849</ele><time>2021-09-01T10:41:04Z</time><extensions><speed>0.305945</speed><course>317.229156</course><hAcc>0.882610</hAcc><vAcc>0.696161</vAcc></extensions></trkpt>
      <trkpt lon="-3.152506" lat="53.019954"><ele>378.886841</ele><time>2021-09-01T10:41:05Z</time><extensions><speed>0.254855</speed><course>310.287506</course><hAcc>0.882410</hAcc><vAcc>0.695529</vAcc></extensions></trkpt>
      <trkpt lon="-3.152502" lat="53.019955"><ele>379.035156</ele><time>2021-09-01T10:41:06Z</time><extensions><speed>0.212795</speed><course>314.657898</course><hAcc>0.882262</hAcc><vAcc>0.695118</vAcc></extensions></trkpt>
      <trkpt lon="-3.152499" lat="53.019955"><ele>379.175568</ele><time>2021-09-01T10:41:07Z</time><extensions><speed>0.178934</speed><course>316.163879</course><hAcc>0.882161</hAcc><vAcc>0.694901</vAcc></extensions></trkpt>
      <trkpt lon="-3.152497" lat="53.019955"><ele>379.306366</ele><time>2021-09-01T10:41:08Z</time><extensions><speed>0.152358</speed><course>315.280670</course><hAcc>0.882103</hAcc><vAcc>0.694834</vAcc></extensions></trkpt>
      <trkpt lon="-3.152495" lat="53.019956"><ele>379.426331</ele><time>2021-09-01T10:41:09Z</time><extensions><speed>0.132321</speed><course>323.358459</course><hAcc>0.882079</hAcc><vAcc>0.694861</vAcc></extensions></trkpt>
      <trkpt lon="-3.152493" lat="53.019956"><ele>379.534821</ele><time>2021-09-01T10:41:10Z</time><extensions><speed>0.118247</speed><course>323.478973</course><hAcc>0.882082</hAcc><vAcc>0.694938</vAcc></extensions></trkpt>
      <trkpt lon="-3.152492" lat="53.019956"><ele>379.631592</ele><time>2021-09-01T10:41:11Z</time><extensions><speed>0.109544</speed><course>327.884216</course><hAcc>0.882108</hAcc><vAcc>0.695037</vAcc></extensions></trkpt>
      <trkpt lon="-3.152490" lat="53.019957"><ele>379.716675</ele><time>2021-09-01T10:41:12Z</time><extensions><speed>0.105852</speed><course>318.187775</course><hAcc>0.882154</hAcc><vAcc>0.695153</vAcc></extensions></trkpt>
      <trkpt lon="-3.152489" lat="53.019957"><ele>379.790100</ele><time>2021-09-01T10:41:13Z</time><extensions><speed>0.106461</speed><course>318.936035</course><hAcc>0.882221</hAcc><vAcc>0.695300</vAcc></extensions></trkpt>
      <trkpt lon="-3.152487" lat="53.019958"><ele>379.852051</ele><time>2021-09-01T10:41:14Z</time><extensions><speed>0.109775</speed><course>326.780121</course><hAcc>0.882309</hAcc><vAcc>0.695503</vAcc></extensions></trkpt>
      <trkpt lon="-3.152486" lat="53.019958"><ele>379.903229</ele><time>2021-09-01T10:41:15Z</time><extensions><speed>0.114246</speed><course>314.218445</course><hAcc>0.882422</hAcc><vAcc>0.695791</vAcc></extensions></trkpt>
      <trkpt lon="-3.152485" lat="53.019959"><ele>379.944427</ele><time>2021-09-01T10:41:16Z</time><extensions><speed>0.118443</speed><course>317.554047</course><hAcc>0.882562</hAcc><vAcc>0.696186</vAcc></extensions></trkpt>
      <trkpt lon="-3.152484" lat="53.019960"><ele>379.976593</ele><time>2021-09-01T10:41:17Z</time><extensions><speed>0.121139</speed><course>317.225586</course><hAcc>0.882729</hAcc><vAcc>0.696701</vAcc></extensions></trkpt>
      <trkpt lon="-3.152483" lat="53.019961"><ele>380.000946</ele><time>2021-09-01T10:41:18Z</time><extensions><speed>0.121469</speed><course>318.371796</course><hAcc>0.882923</hAcc><vAcc>0.697349</vAcc></extensions></trkpt>
      <trkpt lon="-3.152481" lat="53.019962"><ele>380.018677</ele><time>2021-09-01T10:41:19Z</time><extensions><speed>0.118762</speed><course>319.534454</course><hAcc>0.883140</hAcc><vAcc>0.698130</vAcc></extensions></trkpt>
      <trkpt lon="-3.152480" lat="53.019962"><ele>380.030884</ele><time>2021-09-01T10:41:20Z</time><extensions><speed>0.112701</speed><course>319.948578</course><hAcc>0.883371</hAcc><vAcc>0.699014</vAcc></extensions></trkpt>
      <trkpt lon="-3.152480" lat="53.019963"><ele>380.038788</ele><time>2021-09-01T10:41:21Z</time><extensions><speed>0.103567</speed><course>326.867279</course><hAcc>0.883606</hAcc><vAcc>0.699945</vAcc></extensions></trkpt>
      <trkpt lon="-3.152479" lat="53.019964"><ele>380.043427</ele><time>2021-09-01T10:41:22Z</time><extensions><speed>0.092175</speed><course>319.995087</course><hAcc>0.883832</hAcc><vAcc>0.700852</vAcc></extensions></trkpt>
      <trkpt lon="-3.152478" lat="53.019965"><ele>380.045807</ele><time>2021-09-01T10:41:23Z</time><extensions><speed>0.079962</speed><course>323.754486</course><hAcc>0.884037</hAcc><vAcc>0.701657</vAcc></extensions></trkpt>
      <trkpt lon="-3.152478" lat="53.019965"><ele>380.046753</ele><time>2021-09-01T10:41:24Z</time><extensions><speed>0.068431</speed><course>327.994751</course><hAcc>0.884207</hAcc><vAcc>0.702299</vAcc></extensions></trkpt>
      <trkpt lon="-3.152478" lat="53.019966"><ele>380.047211</ele><time>2021-09-01T10:41:25Z</time><extensions><speed>0.058342</speed><course>338.740143</course><hAcc>0.884334</hAcc><vAcc>0.702742</vAcc></extensions></trkpt>
      <trkpt lon="-3.152478" lat="53.019966"><ele>380.048035</ele><time>2021-09-01T10:41:26Z</time><extensions><speed>0.049886</speed><course>336.648224</course><hAcc>0.884411</hAcc><vAcc>0.702970</vAcc></extensions></trkpt>
      <trkpt lon="-3.152477" lat="53.019967"><ele>380.049835</ele><time>2021-09-01T10:41:27Z</time><extensions><speed>0.043341</speed><course>335.818359</course><hAcc>0.884435</hAcc><vAcc>0.702985</vAcc></extensions></trkpt>
      <trkpt lon="-3.152477" lat="53.019967"><ele>380.053162</ele><time>2021-09-01T10:41:28Z</time><extensions><speed>0.040626</speed><course>332.183533</course><hAcc>0.884408</hAcc><vAcc>0.702805</vAcc></extensions></trkpt>
      <trkpt lon="-3.152477" lat="53.019968"><ele>380.058533</ele><time>2021-09-01T10:41:29Z</time><extensions><speed>0.045442</speed><course>329.123840</course><hAcc>0.884332</hAcc><vAcc>0.702452</vAcc></extensions></trkpt>
      <trkpt lon="-3.152476" lat="53.019968"><ele>380.066589</ele><time>2021-09-01T10:41:30Z</time><extensions><speed>0.059469</speed><course>331.386230</course><hAcc>0.884212</hAcc><vAcc>0.701955</vAcc></extensions></trkpt>
      <trkpt lon="-3.152475" lat="53.019968"><ele>380.077820</ele><time>2021-09-01T10:41:31Z</time><extensions><speed>0.081506</speed><course>327.161377</course><hAcc>0.884054</hAcc><vAcc>0.701354</vAcc></extensions></trkpt>
      <trkpt lon="-3.152474" lat="53.019968"><ele>380.092621</ele><time>2021-09-01T10:41:32Z</time><extensions><speed>0.110739</speed><course>327.868042</course><hAcc>0.883863</hAcc><vAcc>0.700687</vAcc></extensions></trkpt>
      <trkpt lon="-3.152472" lat="53.019969"><ele>380.111450</ele><time>2021-09-01T10:41:33Z</time><extensions><speed>0.147521</speed><course>323.627838</course><hAcc>0.883643</hAcc><vAcc>0.699979</vAcc></extensions></trkpt>
      <trkpt lon="-3.152470" lat="53.019969"><ele>380.134827</ele><time>2021-09-01T10:41:34Z</time><extensions><speed>0.192144</speed><course>324.612000</course><hAcc>0.883397</hAcc><vAcc>0.699231</vAcc></extensions></trkpt>
      <trkpt lon="-3.152467" lat="53.019970"><ele>380.163239</ele><time>2021-09-01T10:41:35Z</time><extensions><speed>0.243932</speed><course>314.250275</course><hAcc>0.883123</hAcc><vAcc>0.698422</vAcc></extensions></trkpt>
      <trkpt lon="-3.152463" lat="53.019970"><ele>380.197052</ele><time>2021-09-01T10:41:36Z</time><extensions><speed>0.301978</speed><course>324.325928</course><hAcc>0.882822</hAcc><vAcc>0.697526</vAcc></extensions></trkpt>
      <trkpt lon="-3.152458" lat="53.019971"><ele>380.236481</ele><time>2021-09-01T10:41:37Z</time><extensions><speed>0.365321</speed><course>323.620239</course><hAcc>0.882491</hAcc><vAcc>0.696523</vAcc></extensions></trkpt>
      <trkpt lon="-3.152452" lat="53.019972"><ele>380.281799</ele><time>2021-09-01T10:41:38Z</time><extensions><speed>0.433628</speed><course>318.647095</course><hAcc>0.882130</hAcc><vAcc>0.695399</vAcc></extensions></trkpt>
      <trkpt lon="-3.152445" lat="53.019973"><ele>380.333221</ele><time>2021-09-01T10:41:39Z</time><extensions><speed>0.506509</speed><course>325.356964</course><hAcc>0.881740</hAcc><vAcc>0.694150</vAcc></extensions></trkpt>
      <trkpt lon="-3.152438" lat="53.019975"><ele>380.390991</ele><time>2021-09-01T10:41:40Z</time><extensions><speed>0.583090</speed><course>319.826599</course><hAcc>0.881323</hAcc><vAcc>0.692779</vAcc></extensions></trkpt>
      <trkpt lon="-3.152429" lat="53.019977"><ele>380.455200</ele><time>2021-09-01T10:41:41Z</time><extensions><speed>0.662912</speed><course>314.735016</course><hAcc>0.880886</hAcc><vAcc>0.691293</vAcc></extensions></trkpt>
      <trkpt lon="-3.152419" lat="53.019979"><ele>380.525970</ele><time>2021-09-01T10:41:42Z</time><extensions><speed>0.744571</speed><course>309.478760</course><hAcc>0.880435</hAcc><vAcc>0.689695</vAcc></extensions></trkpt>
      <trkpt lon="-3.152408" lat="53.019982"><ele>380.603485</ele><time>2021-09-01T10:41:43Z</time><extensions><speed>0.824997</speed><course>319.543488</course><hAcc>0.879980</hAcc><vAcc>0.687992</vAcc></extensions></trkpt>
      <trkpt lon="-3.152396" lat="53.019984"><ele>380.687897</ele><time>2021-09-01T10:41:44Z</time><extensions><speed>0.900368</speed><course>324.087982</course><hAcc>0.879533</hAcc><vAcc>0.686196</vAcc></extensions></trkpt>
      <trkpt lon="-3.152383" lat="53.019988"><ele>380.779053</ele><time>2021-09-01T10:41:45Z</time><extensions><speed>0.966956</speed><course>317.628326</course><hAcc>0.879109</hAcc><vAcc>0.684327</vAcc></extensions></trkpt>
      <trkpt lon="-3.152370" lat="53.019991"><ele>380.876709</ele><time>2021-09-01T10:41:46Z</time><extensions><speed>1.022293</speed><course>311.843903</course><hAcc>0.878720</hAcc><vAcc>0.682411</vAcc></extensions></trkpt>
      <trkpt lon="-3.152356" lat="53.019995"><ele>380.980255</ele><time>2021-09-01T10:41:47Z</time><extensions><speed>1.065463</speed><course>320.026215</course><hAcc>0.878377</hAcc><vAcc>0.680485</vAcc></extensions></trkpt>
      <trkpt lon="-3.152341" lat="53.019999"><ele>381.088257</ele><time>2021-09-01T10:41:48Z</time><extensions><speed>1.097121</speed><course>320.448669</course><hAcc>0.878085</hAcc><vAcc>0.678593</vAcc></extensions></trkpt>
      <trkpt lon="-3.152326" lat="53.020003"><ele>381.198486</ele><time>2021-09-01T10:41:49Z</time><extensions><speed>1.119831</speed><course>324.626526</course><hAcc>0.877839</hAcc><vAcc>0.676780</vAcc></extensions></trkpt>
      <trkpt lon="-3.152311" lat="53.020008"><ele>381.308014</ele><time>2021-09-01T10:41:50Z</time><extensions><speed>1.137061</speed><course>326.167938</course><hAcc>0.877625</hAcc><vAcc>0.675088</vAcc></extensions></trkpt>
      <trkpt lon="-3.152296" lat="53.020012"><ele>381.413177</ele><time>2021-09-01T10:41:51Z</time><extensions><speed>1.151968</speed><course>325.390656</course><hAcc>0.877420</hAcc><vAcc>0.673539</vAcc></extensions></trkpt>
      <trkpt lon="-3.152281" lat="53.020018"><ele>381.509613</ele><time>2021-09-01T10:41:52Z</time><extensions><speed>1.166280</speed><course>314.974457</course><hAcc>0.877213</hAcc><vAcc>0.672144</vAcc></extensions></trkpt>
      <trkpt lon="-3.152266" lat="53.020023"><ele>381.593140</ele><time>2021-09-01T10:41:54Z</time><extensions><speed>1.180716</speed><course>325.724579</course><hAcc>0.876984</hAcc><vAcc>0.670892</vAcc></extensions></trkpt>
      <trkpt lon="-3.152251" lat="53.020029"><ele>381.659760</ele><time>2021-09-01T10:41:55Z</time><extensions><speed>1.195345</speed><course>318.034210</course><hAcc>0.876746</hAcc><vAcc>0.669790</vAcc></extensions></trkpt>
      <trkpt lon="-3.152236" lat="53.020035"><ele>381.706848</ele><time>2021-09-01T10:41:56Z</time><extensions><speed>1.209713</speed><course>313.475250</course><hAcc>0.876557</hAcc><vAcc>0.668847</vAcc></extensions></trkpt>
      <trkpt lon="-3.152221" lat="53.020041"><ele>381.733002</ele><time>2021-09-01T10:41:57Z</time><extensions><speed>1.223493</speed><course>321.089203</course><hAcc>0.876481</hAcc><vAcc>0.668053</vAcc></extensions></trkpt>
      <trkpt lon="-3.152206" lat="53.020047"><ele>381.737732</ele><time>2021-09-01T10:41:58Z</time><extensions><speed>1.236111</speed><course>329.810181</course><hAcc>0.876600</hAcc><vAcc>0.667390</vAcc></extensions></trkpt>
      <trkpt lon="-3.152191" lat="53.020054"><ele>381.720947</ele><time>2021-09-01T10:41:59Z</time><extensions><speed>1.246661</speed><course>327.314850</course><hAcc>0.876998</hAcc><vAcc>0.666822</vAcc></extensions></trkpt>
      <trkpt lon="-3.152177" lat="53.020061"><ele>381.682953</ele><time>2021-09-01T10:42:00Z</time><extensions><speed>1.254380</speed><course>321.503876</course><hAcc>0.877759</hAcc><vAcc>0.666294</vAcc></extensions></trkpt>
      <trkpt lon="-3.152162" lat="53.020068"><ele>381.625458</ele><time>2021-09-01T10:42:01Z</time><extensions><speed>1.258774</speed><course>323.534607</course><hAcc>0.878955</hAcc><vAcc>0.665740</vAcc></extensions></trkpt>
      <trkpt lon="-3.152148" lat="53.020075"><ele>381.551910</ele><time>2021-09-01T10:42:01Z</time><extensions><speed>1.259768</speed><course>325.158722</course><hAcc>0.880652</hAcc><vAcc>0.665118</vAcc></extensions></trkpt>
      <trkpt lon="-3.152133" lat="53.020082"><ele>381.466522</ele><time>2021-09-01T10:42:02Z</time><extensions><speed>1.257806</speed><course>329.447083</course><hAcc>0.882863</hAcc><vAcc>0.664397</vAcc></extensions></trkpt>
      <trkpt lon="-3.152119" lat="53.020090"><ele>381.373840</ele><time>2021-09-01T10:42:03Z</time><extensions><speed>1.253654</speed><course>331.191650</course><hAcc>0.885525</hAcc><vAcc>0.663550</vAcc></extensions></trkpt>
      <trkpt lon="-3.152104" lat="53.020097"><ele>381.277893</ele><time>2021-09-01T10:42:04Z</time><extensions><speed>1.247816</speed><course>334.557068</course><hAcc>0.888544</hAcc><vAcc>0.662580</vAcc></extensions></trkpt>
      <trkpt lon="-3.152090" lat="53.020104"><ele>381.182312</ele><time>2021-09-01T10:42:05Z</time><extensions><speed>1.240888</speed><course>336.690918</course><hAcc>0.891794</hAcc><vAcc>0.661498</vAcc></extensions></trkpt>
      <trkpt lon="-3.152076" lat="53.020111"><ele>381.090881</ele><time>2021-09-01T10:42:06Z</time><extensions><speed>1.233647</speed><course>337.183258</course><hAcc>0.895134</hAcc><vAcc>0.660325</vAcc></extensions></trkpt>
      <trkpt lon="-3.152061" lat="53.020117"><ele>381.007507</ele><time>2021-09-01T10:42:07Z</time><extensions><speed>1.226846</speed><course>318.997711</course><hAcc>0.898447</hAcc><vAcc>0.659085</vAcc></extensions></trkpt>
      <trkpt lon="-3.152046" lat="53.020124"><ele>380.935913</ele><time>2021-09-01T10:42:08Z</time><extensions><speed>1.220912</speed><course>315.791901</course><hAcc>0.901655</hAcc><vAcc>0.657799</vAcc></extensions></trkpt>
      <trkpt lon="-3.152031" lat="53.020130"><ele>380.879272</ele><time>2021-09-01T10:42:09Z</time><extensions><speed>1.215562</speed><course>315.791901</course><hAcc>0.904710</hAcc><vAcc>0.656476</vAcc></extensions></trkpt>
      <trkpt lon="-3.152016" lat="53.020136"><ele>380.839813</ele><time>2021-09-01T10:42:10Z</time><extensions><speed>1.210918</speed><course>315.791901</course><hAcc>0.907567</hAcc><vAcc>0.655120</vAcc></extensions></trkpt>
      <trkpt lon="-3.152001" lat="53.020142"><ele>380.819489</ele><time>2021-09-01T10:42:11Z</time><extensions><speed>1.208219</speed><course>315.791901</course><hAcc>0.910177</hAcc><vAcc>0.653729</vAcc></extensions></trkpt>
      <trkpt lon="-3.151986" lat="53.020148"><ele>380.819977</ele><time>2021-09-01T10:42:12Z</time><extensions><speed>1.209260</speed><course>315.791901</course><hAcc>0.912486</hAcc><vAcc>0.652297</vAcc></extensions></trkpt>
      <trkpt lon="-3.151970" lat="53.020153"><ele>380.841949</ele><time>2021-09-01T10:42:13Z</time><extensions><speed>1.215710</speed><course>315.791901</course><hAcc>0.914441</hAcc><vAcc>0.650823</vAcc></extensions></trkpt>
      <trkpt lon="-3.151955" lat="53.020159"><ele>380.885010</ele><time>2021-09-01T10:42:14Z</time><extensions><speed>1.228513</speed><course>315.791901</course><hAcc>0.915979</hAcc><vAcc>0.649326</vAcc></extensions></trkpt>
      <trkpt lon="-3.151938" lat="53.020164"><ele>380.947479</ele><time>2021-09-01T10:42:15Z</time><extensions><speed>1.248411</speed><course>315.791901</course><hAcc>0.917041</hAcc><vAcc>0.647869</vAcc></extensions></trkpt>
      <trkpt lon="-3.151922" lat="53.020170"><ele>381.026459</ele><time>2021-09-01T10:42:16Z</time><extensions><speed>1.275842</speed><course>315.791901</course><hAcc>0.917570</hAcc><vAcc>0.646567</vAcc></extensions></trkpt>
      <trkpt lon="-3.151905" lat="53.020175"><ele>381.118530</ele><time>2021-09-01T10:42:17Z</time><extensions><speed>1.310551</speed><course>315.791901</course><hAcc>0.917506</hAcc><vAcc>0.645585</vAcc></extensions></trkpt>
      <trkpt lon="-3.151888" lat="53.020181"><ele>381.220764</ele><time>2021-09-01T10:42:18Z</time><extensions><speed>1.351230</speed><course>315.791901</course><hAcc>0.916771</hAcc><vAcc>0.645130</vAcc></extensions></trkpt>
      <trkpt lon="-3.151870" lat="53.020188"><ele>381.330536</ele><time>2021-09-01T10:42:19Z</time><extensions><speed>1.395960</speed><course>315.791901</course><hAcc>0.915277</hAcc><vAcc>0.645427</vAcc></extensions></trkpt>
      <trkpt lon="-3.151852" lat="53.020194"><ele>381.445740</ele><time>2021-09-01T10:42:20Z</time><extensions><speed>1.442664</speed><course>315.791901</course><hAcc>0.912961</hAcc><vAcc>0.646681</vAcc></extensions></trkpt>
      <trkpt lon="-3.151834" lat="53.020202"><ele>381.564453</ele><time>2021-09-01T10:42:21Z</time><extensions><speed>1.489007</speed><course>315.791901</course><hAcc>0.909818</hAcc><vAcc>0.649029</vAcc></extensions></trkpt>
      <trkpt lon="-3.151816" lat="53.020209"><ele>381.684723</ele><time>2021-09-01T10:42:22Z</time><extensions><speed>1.532682</speed><course>315.791901</course><hAcc>0.905942</hAcc><vAcc>0.652485</vAcc></extensions></trkpt>
      <trkpt lon="-3.151797" lat="53.020218"><ele>381.804840</ele><time>2021-09-01T10:42:23Z</time><extensions><speed>1.571131</speed><course>324.368835</course><hAcc>0.901578</hAcc><vAcc>0.656909</vAcc></extensions></trkpt>
      <trkpt lon="-3.151778" lat="53.020226"><ele>381.923584</ele><time>2021-09-01T10:42:24Z</time><extensions><speed>1.602300</speed><course>336.936340</course><hAcc>0.897117</hAcc><vAcc>0.662029</vAcc></extensions></trkpt>
      <trkpt lon="-3.151759" lat="53.020235"><ele>382.039978</ele><time>2021-09-01T10:42:25Z</time><extensions><speed>1.625378</speed><course>334.067902</course><hAcc>0.892997</hAcc><vAcc>0.667519</vAcc></extensions></trkpt>
      <trkpt lon="-3.151741" lat="53.020245"><ele>382.152954</ele><time>2021-09-01T10:42:26Z</time><extensions><speed>1.640028</speed><course>335.500000</course><hAcc>0.889541</hAcc><vAcc>0.673070</vAcc></extensions></trkpt>
      <trkpt lon="-3.151722" lat="53.020254"><ele>382.262024</ele><time>2021-09-01T10:42:27Z</time><extensions><speed>1.645979</speed><course>331.822205</course><hAcc>0.886899</hAcc><vAcc>0.678427</vAcc></extensions></trkpt>
      <trkpt lon="-3.151703" lat="53.020264"><ele>382.367706</ele><time>2021-09-01T10:42:28Z</time><extensions><speed>1.643477</speed><course>332.566284</course><hAcc>0.885074</hAcc><vAcc>0.683400</vAcc></extensions></trkpt>
      <trkpt lon="-3.151685" lat="53.020273"><ele>382.471130</ele><time>2021-09-01T10:42:29Z</time><extensions><speed>1.633040</speed><course>322.442413</course><hAcc>0.883972</hAcc><vAcc>0.687866</vAcc></extensions></trkpt>
      <trkpt lon="-3.151666" lat="53.020283"><ele>382.573486</ele><time>2021-09-01T10:42:30Z</time><extensions><speed>1.616104</speed><course>328.923309</course><hAcc>0.883448</hAcc><vAcc>0.691762</vAcc></extensions></trkpt>
      <trkpt lon="-3.151648" lat="53.020292"><ele>382.676178</ele><time>2021-09-01T10:42:31Z</time><extensions><speed>1.594510</speed><course>332.979462</course><hAcc>0.883345</hAcc><vAcc>0.695076</vAcc></extensions></trkpt>
      <trkpt lon="-3.151631" lat="53.020302"><ele>382.780457</ele><time>2021-09-01T10:42:32Z</time><extensions><speed>1.569615</speed><course>326.583588</course><hAcc>0.883516</hAcc><vAcc>0.697832</vAcc></extensions></trkpt>
      <trkpt lon="-3.151614" lat="53.020311"><ele>382.886536</ele><time>2021-09-01T10:42:33Z</time><extensions><speed>1.542823</speed><course>333.004852</course><hAcc>0.883839</hAcc><vAcc>0.700075</vAcc></extensions></trkpt>
      <trkpt lon="-3.151597" lat="53.020321"><ele>382.993347</ele><time>2021-09-01T10:42:34Z</time><extensions><speed>1.515167</speed><course>328.891602</course><hAcc>0.884224</hAcc><vAcc>0.701868</vAcc></extensions></trkpt>
      <trkpt lon="-3.151581" lat="53.020330"><ele>383.098877</ele><time>2021-09-01T10:42:35Z</time><extensions><speed>1.487202</speed><course>329.156494</course><hAcc>0.884609</hAcc><vAcc>0.703273</vAcc></extensions></trkpt>
      <trkpt lon="-3.151565" lat="53.020339"><ele>383.200989</ele><time>2021-09-01T10:42:36Z</time><extensions><speed>1.459018</speed><course>329.450256</course><hAcc>0.884956</hAcc><vAcc>0.704358</vAcc></extensions></trkpt>
      <trkpt lon="-3.151550" lat="53.020348"><ele>383.297729</ele><time>2021-09-01T10:42:37Z</time><extensions><speed>1.430811</speed><course>329.886902</course><hAcc>0.885247</hAcc><vAcc>0.705183</vAcc></extensions></trkpt>
      <trkpt lon="-3.151535" lat="53.020357"><ele>383.387360</ele><time>2021-09-01T10:42:38Z</time><extensions><speed>1.404038</speed><course>332.708923</course><hAcc>0.885476</hAcc><vAcc>0.705799</vAcc></extensions></trkpt>
      <trkpt lon="-3.151520" lat="53.020366"><ele>383.468475</ele><time>2021-09-01T10:42:39Z</time><extensions><speed>1.380082</speed><course>337.086456</course><hAcc>0.885648</hAcc><vAcc>0.706251</vAcc></extensions></trkpt>
      <trkpt lon="-3.151507" lat="53.020375"><ele>383.540405</ele><time>2021-09-01T10:42:40Z</time><extensions><speed>1.359122</speed><course>335.947693</course><hAcc>0.885771</hAcc><vAcc>0.706577</vAcc></extensions></trkpt>
      <trkpt lon="-3.151493" lat="53.020384"><ele>383.603455</ele><time>2021-09-01T10:42:41Z</time><extensions><speed>1.341042</speed><course>332.293579</course><hAcc>0.885854</hAcc><vAcc>0.706808</vAcc></extensions></trkpt>
      <trkpt lon="-3.151480" lat="53.020393"><ele>383.658539</ele><time>2021-09-01T10:42:42Z</time><extensions><speed>1.325390</speed><course>330.673279</course><hAcc>0.885907</hAcc><vAcc>0.706969</vAcc></extensions></trkpt>
      <trkpt lon="-3.151466" lat="53.020402"><ele>383.707367</ele><time>2021-09-01T10:42:43Z</time><extensions><speed>1.311581</speed><course>325.868774</course><hAcc>0.885939</hAcc><vAcc>0.707077</vAcc></extensions></trkpt>
      <trkpt lon="-3.151453" lat="53.020410"><ele>383.752594</ele><time>2021-09-01T10:42:44Z</time><extensions><speed>1.299796</speed><course>320.652771</course><hAcc>0.885958</hAcc><vAcc>0.707147</vAcc></extensions></trkpt>
      <trkpt lon="-3.151440" lat="53.020419"><ele>383.797211</ele><time>2021-09-01T10:42:45Z</time><extensions><speed>1.290549</speed><course>317.759430</course><hAcc>0.885969</hAcc><vAcc>0.707187</vAcc></extensions></trkpt>
      <trkpt lon="-3.151426" lat="53.020427"><ele>383.843903</ele><time>2021-09-01T10:42:46Z</time><extensions><speed>1.284167</speed><course>312.631989</course><hAcc>0.885976</hAcc><vAcc>0.707207</vAcc></extensions></trkpt>
      <trkpt lon="-3.151413" lat="53.020435"><ele>383.895355</ele><time>2021-09-01T10:42:47Z</time><extensions><speed>1.280441</speed><course>318.114197</course><hAcc>0.885984</hAcc><vAcc>0.707217</vAcc></extensions></trkpt>
      <trkpt lon="-3.151398" lat="53.020443"><ele>383.954376</ele><time>2021-09-01T10:42:48Z</time><extensions><speed>1.279133</speed><course>324.507172</course><hAcc>0.885993</hAcc><vAcc>0.707233</vAcc></extensions></trkpt>
      <trkpt lon="-3.151384" lat="53.020450"><ele>384.023468</ele><time>2021-09-01T10:42:49Z</time><extensions><speed>1.279896</speed><course>327.082703</course><hAcc>0.886003</hAcc><vAcc>0.707269</vAcc></extensions></trkpt>
      <trkpt lon="-3.151369" lat="53.020457"><ele>384.104401</ele><time>2021-09-01T10:42:50Z</time><extensions><speed>1.281731</speed><course>329.958954</course><hAcc>0.886014</hAcc><vAcc>0.707328</vAcc></extensions></trkpt>
      <trkpt lon="-3.151354" lat="53.020464"><ele>384.198151</ele><time>2021-09-01T10:42:51Z</time><extensions><speed>1.283450</speed><course>328.035645</course><hAcc>0.886022</hAcc><vAcc>0.707403</vAcc></extensions></trkpt>
      <trkpt lon="-3.151338" lat="53.020471"><ele>384.304962</ele><time>2021-09-01T10:42:52Z</time><extensions><speed>1.283832</speed><course>327.514526</course><hAcc>0.886026</hAcc><vAcc>0.707478</vAcc></extensions></trkpt>
      <trkpt lon="-3.151322" lat="53.020477"><ele>384.424683</ele><time>2021-09-01T10:42:53Z</time><extensions><speed>1.282176</speed><course>320.027710</course><hAcc>0.886021</hAcc><vAcc>0.707531</vAcc></extensions></trkpt>
      <trkpt lon="-3.151306" lat="53.020483"><ele>384.557281</ele><time>2021-09-01T10:42:54Z</time><extensions><speed>1.278520</speed><course>323.596710</course><hAcc>0.886003</hAcc><vAcc>0.707539</vAcc></extensions></trkpt>
      <trkpt lon="-3.151289" lat="53.020489"><ele>384.703247</ele><time>2021-09-01T10:42:55Z</time><extensions><speed>1.273535</speed><course>326.277405</course><hAcc>0.885971</hAcc><vAcc>0.707483</vAcc></extensions></trkpt>
      <trkpt lon="-3.151272" lat="53.020494"><ele>384.863159</ele><time>2021-09-01T10:42:56Z</time><extensions><speed>1.267913</speed><course>327.083344</course><hAcc>0.885920</hAcc><vAcc>0.707348</vAcc></extensions></trkpt>
      <trkpt lon="-3.151256" lat="53.020499"><ele>385.037231</ele><time>2021-09-01T10:42:57Z</time><extensions><speed>1.262180</speed><course>330.723541</course><hAcc>0.885851</hAcc><vAcc>0.707126</vAcc></extensions></trkpt>
      <trkpt lon="-3.151239" lat="53.020504"><ele>385.225311</ele><time>2021-09-01T10:42:58Z</time><extensions><speed>1.256475</speed><course>328.902985</course><hAcc>0.885763</hAcc><vAcc>0.706818</vAcc></extensions></trkpt>
      <trkpt lon="-3.151222" lat="53.020509"><ele>385.426605</ele><time>2021-09-01T10:42:59Z</time><extensions><speed>1.250473</speed><course>325.540680</course><hAcc>0.885658</hAcc><vAcc>0.706434</vAcc></extensions></trkpt>
      <trkpt lon="-3.151204" lat="53.020513"><ele>385.639404</ele><time>2021-09-01T10:43:00Z</time><extensions><speed>1.244055</speed><course>326.969879</course><hAcc>0.885541</hAcc><vAcc>0.705992</vAcc></extensions></trkpt>
      <trkpt lon="-3.151187" lat="53.020517"><ele>385.861542</ele><time>2021-09-01T10:43:01Z</time><extensions><speed>1.237139</speed><course>320.316467</course><hAcc>0.885415</hAcc><vAcc>0.705515</vAcc></extensions></trkpt>
      <trkpt lon="-3.151170" lat="53.020521"><ele>386.090515</ele><time>2021-09-01T10:43:02Z</time><extensions><speed>1.229354</speed><course>319.871765</course><hAcc>0.885285</hAcc><vAcc>0.705031</vAcc></extensions></trkpt>
      <trkpt lon="-3.151153" lat="53.020526"><ele>386.323792</ele><time>2021-09-01T10:43:03Z</time><extensions><speed>1.220624</speed><course>316.990692</course><hAcc>0.885157</hAcc><vAcc>0.704566</vAcc></extensions></trkpt>
      <trkpt lon="-3.151137" lat="53.020530"><ele>386.559021</ele><time>2021-09-01T10:43:04Z</time><extensions><speed>1.211637</speed><course>317.272278</course><hAcc>0.885037</hAcc><vAcc>0.704143</vAcc></extensions></trkpt>
      <trkpt lon="-3.151120" lat="53.020534"><ele>386.793884</ele><time>2021-09-01T10:43:05Z</time><extensions><speed>1.202692</speed><course>317.305878</course><hAcc>0.884929</hAcc><vAcc>0.703777</vAcc></extensions></trkpt>
      <trkpt lon="-3.151103" lat="53.020538"><ele>387.026062</ele><time>2021-09-01T10:43:06Z</time><extensions><speed>1.193576</speed><course>319.626617</course><hAcc>0.884838</hAcc><vAcc>0.703475</vAcc></extensions></trkpt>
      <trkpt lon="-3.151087" lat="53.020542"><ele>387.253662</ele><time>2021-09-01T10:43:07Z</time><extensions><speed>1.184482</speed><course>316.946777</course><hAcc>0.884767</hAcc><vAcc>0.703241</vAcc></extensions></trkpt>
      <trkpt lon="-3.151071" lat="53.020546"><ele>387.474945</ele><time>2021-09-01T10:43:08Z</time><extensions><speed>1.176191</speed><course>316.848175</course><hAcc>0.884720</hAcc><vAcc>0.703076</vAcc></extensions></trkpt>
      <trkpt lon="-3.151055" lat="53.020551"><ele>387.687927</ele><time>2021-09-01T10:43:09Z</time><extensions><speed>1.169763</speed><course>306.129730</course><hAcc>0.884698</hAcc><vAcc>0.702987</vAcc></extensions></trkpt>
      <trkpt lon="-3.151039" lat="53.020555"><ele>387.890350</ele><time>2021-09-01T10:43:10Z</time><extensions><speed>1.165974</speed><course>311.287872</course><hAcc>0.884705</hAcc><vAcc>0.702982</vAcc></extensions></trkpt>
      <trkpt lon="-3.151024" lat="53.020560"><ele>388.080017</ele><time>2021-09-01T10:43:11Z</time><extensions><speed>1.165852</speed><course>316.150696</course><hAcc>0.884741</hAcc><vAcc>0.703070</vAcc></extensions></trkpt>
      <trkpt lon="-3.151009" lat="53.020565"><ele>388.254578</ele><time>2021-09-01T10:43:12Z</time><extensions><speed>1.169898</speed><course>319.589172</course><hAcc>0.884805</hAcc><vAcc>0.703263</vAcc></extensions></trkpt>
      <trkpt lon="-3.150994" lat="53.020570"><ele>388.412109</ele><time>2021-09-01T10:43:13Z</time><extensions><speed>1.177683</speed><course>317.826752</course><hAcc>0.884897</hAcc><vAcc>0.703568</vAcc></extensions></trkpt>
      <trkpt lon="-3.150979" lat="53.020576"><ele>388.551453</ele><time>2021-09-01T10:43:14Z</time><extensions><speed>1.188861</speed><course>316.582428</course><hAcc>0.885015</hAcc><vAcc>0.703981</vAcc></extensions></trkpt>
      <trkpt lon="-3.150964" lat="53.020582"><ele>388.672058</ele><time>2021-09-01T10:43:15Z</time><extensions><speed>1.202601</speed><course>322.533203</course><hAcc>0.885152</hAcc><vAcc>0.704487</vAcc></extensions></trkpt>
      <trkpt lon="-3.150949" lat="53.020588"><ele>388.774170</ele><time>2021-09-01T10:43:16Z</time><extensions><speed>1.217272</speed><course>322.533203</course><hAcc>0.885304</hAcc><vAcc>0.705058</vAcc></extensions></trkpt>
      <trkpt lon="-3.150935" lat="53.020595"><ele>388.858765</ele><time>2021-09-01T10:43:17Z</time><extensions><speed>1.231347</speed><course>322.533203</course><hAcc>0.885463</hAcc><vAcc>0.705662</vAcc></extensions></trkpt>
      <trkpt lon="-3.150920" lat="53.020602"><ele>388.927765</ele><time>2021-09-01T10:43:18Z</time><extensions><speed>1.243823</speed><course>322.533203</course><hAcc>0.885623</hAcc><vAcc>0.706265</vAcc></extensions></trkpt>
      <trkpt lon="-3.150905" lat="53.020609"><ele>388.983459</ele><time>2021-09-01T10:43:19Z</time><extensions><speed>1.254097</speed><course>322.533203</course><hAcc>0.885775</hAcc><vAcc>0.706835</vAcc></extensions></trkpt>
      <trkpt lon="-3.150891" lat="53.020616"><ele>389.027954</ele><time>2021-09-01T10:43:20Z</time><extensions><speed>1.262539</speed><course>310.635162</course><hAcc>0.885914</hAcc><vAcc>0.707342</vAcc></extensions></trkpt>
      <trkpt lon="-3.150877" lat="53.020623"><ele>389.063202</ele><time>2021-09-01T10:43:21Z</time><extensions><speed>1.269838</speed><course>317.610291</course><hAcc>0.886034</hAcc><vAcc>0.707765</vAcc></extensions></trkpt>
      <trkpt lon="-3.150862" lat="53.020631"><ele>389.091187</ele><time>2021-09-01T10:43:22Z</time><extensions><speed>1.276059</speed><course>306.125671</course><hAcc>0.886132</hAcc><vAcc>0.708089</vAcc></extensions></trkpt>
      <trkpt lon="-3.150848" lat="53.020638"><ele>389.113770</ele><time>2021-09-01T10:43:23Z</time><extensions><speed>1.280869</speed><course>318.134308</course><hAcc>0.886208</hAcc><vAcc>0.708309</vAcc></extensions></trkpt>
      <trkpt lon="-3.150834" lat="53.020646"><ele>389.132263</ele><time>2021-09-01T10:43:24Z</time><extensions><speed>1.284035</speed><course>310.926819</course><hAcc>0.886261</hAcc><vAcc>0.708430</vAcc></extensions></trkpt>
      <trkpt lon="-3.150820" lat="53.020654"><ele>389.147156</ele><time>2021-09-01T10:43:25Z</time><extensions><speed>1.285774</speed><course>312.939606</course><hAcc>0.886293</hAcc><vAcc>0.708464</vAcc></extensions></trkpt>
      <trkpt lon="-3.150806" lat="53.020662"><ele>389.158508</ele><time>2021-09-01T10:43:26Z</time><extensions><speed>1.286158</speed><course>305.606995</course><hAcc>0.886310</hAcc><vAcc>0.708430</vAcc></extensions></trkpt>
      <trkpt lon="-3.150792" lat="53.020670"><ele>389.166199</ele><time>2021-09-01T10:43:27Z</time><extensions><speed>1.284874</speed><course>302.541321</course><hAcc>0.886315</hAcc><vAcc>0.708353</vAcc></extensions></trkpt>
      <trkpt lon="-3.150779" lat="53.020678"><ele>389.170074</ele><time>2021-09-01T10:43:28Z</time><extensions><speed>1.281722</speed><course>303.802917</course><hAcc>0.886312</hAcc><vAcc>0.708263</vAcc></extensions></trkpt>
      <trkpt lon="-3.150765" lat="53.020686"><ele>389.170197</ele><time>2021-09-01T10:43:29Z</time><extensions><speed>1.276682</speed><course>300.395538</course><hAcc>0.886306</hAcc><vAcc>0.708189</vAcc></extensions></trkpt>
      <trkpt lon="-3.150752" lat="53.020694"><ele>389.167084</ele><time>2021-09-01T10:43:30Z</time><extensions><speed>1.269962</speed><course>303.076660</course><hAcc>0.886300</hAcc><vAcc>0.708151</vAcc></extensions></trkpt>
      <trkpt lon="-3.150739" lat="53.020703"><ele>389.161804</ele><time>2021-09-01T10:43:31Z</time><extensions><speed>1.261696</speed><course>301.521118</course><hAcc>0.886295</hAcc><vAcc>0.708159</vAcc></extensions></trkpt>
      <trkpt lon="-3.150726" lat="53.020711"><ele>389.156006</ele><time>2021-09-01T10:43:32Z</time><extensions><speed>1.252058</speed><course>315.953857</course><hAcc>0.886292</hAcc><vAcc>0.708206</vAcc></extensions></trkpt>
      <trkpt lon="-3.150713" lat="53.020719"><ele>389.151764</ele><time>2021-09-01T10:43:33Z</time><extensions><speed>1.241973</speed><course>321.613922</course><hAcc>0.886290</hAcc><vAcc>0.708273</vAcc></extensions></trkpt>
      <trkpt lon="-3.150700" lat="53.020727"><ele>389.151459</ele><time>2021-09-01T10:43:34Z</time><extensions><speed>1.232459</speed><course>320.530426</course><hAcc>0.886287</hAcc><vAcc>0.708337</vAcc></extensions></trkpt>
      <trkpt lon="-3.150687" lat="53.020734"><ele>389.157318</ele><time>2021-09-01T10:43:35Z</time><extensions><speed>1.224404</speed><course>319.105469</course><hAcc>0.886282</hAcc><vAcc>0.708373</vAcc></extensions></trkpt>
      <trkpt lon="-3.150673" lat="53.020742"><ele>389.170868</ele><time>2021-09-01T10:43:36Z</time><extensions><speed>1.219030</speed><course>320.005280</course><hAcc>0.886272</hAcc><vAcc>0.708368</vAcc></extensions></trkpt>
      <trkpt lon="-3.150660" lat="53.020749"><ele>389.192902</ele><time>2021-09-01T10:43:37Z</time><extensions><speed>1.216738</speed><course>320.540527</course><hAcc>0.886256</hAcc><vAcc>0.708315</vAcc></extensions></trkpt>
      <trkpt lon="-3.150646" lat="53.020756"><ele>389.223877</ele><time>2021-09-01T10:43:38Z</time><extensions><speed>1.216483</speed><course>316.635681</course><hAcc>0.886234</hAcc><vAcc>0.708222</vAcc></extensions></trkpt>
      <trkpt lon="-3.150631" lat="53.020762"><ele>389.263824</ele><time>2021-09-01T10:43:39Z</time><extensions><speed>1.217146</speed><course>319.322998</course><hAcc>0.886207</hAcc><vAcc>0.708098</vAcc></extensions></trkpt>
      <trkpt lon="-3.150616" lat="53.020769"><ele>389.312103</ele><time>2021-09-01T10:43:40Z</time><extensions><speed>1.218502</speed><course>319.244141</course><hAcc>0.886177</hAcc><vAcc>0.707954</vAcc></extensions></trkpt>
      <trkpt lon="-3.150601" lat="53.020775"><ele>389.367401</ele><time>2021-09-01T10:43:41Z</time><extensions><speed>1.220164</speed><course>315.425568</course><hAcc>0.886146</hAcc><vAcc>0.707800</vAcc></extensions></trkpt>
      <trkpt lon="-3.150586" lat="53.020781"><ele>389.428040</ele><time>2021-09-01T10:43:42Z</time><extensions><speed>1.220704</speed><course>318.059448</course><hAcc>0.886117</hAcc><vAcc>0.707650</vAcc></extensions></trkpt>
      <trkpt lon="-3.150570" lat="53.020787"><ele>389.492157</ele><time>2021-09-01T10:43:43Z</time><extensions><speed>1.218547</speed><course>318.243683</course><hAcc>0.886093</hAcc><vAcc>0.707518</vAcc></extensions></trkpt>
      <trkpt lon="-3.150555" lat="53.020792"><ele>389.557983</ele><time>2021-09-01T10:43:44Z</time><extensions><speed>1.212071</speed><course>319.840027</course><hAcc>0.886074</hAcc><vAcc>0.707422</vAcc></extensions></trkpt>
      <trkpt lon="-3.150540" lat="53.020798"><ele>389.624176</ele><time>2021-09-01T10:43:45Z</time><extensions><speed>1.199455</speed><course>320.630524</course><hAcc>0.886060</hAcc><vAcc>0.707376</vAcc></extensions></trkpt>
      <trkpt lon="-3.150524" lat="53.020803"><ele>389.689850</ele><time>2021-09-01T10:43:46Z</time><extensions><speed>1.179420</speed><course>318.435181</course><hAcc>0.886049</hAcc><vAcc>0.707380</vAcc></extensions></trkpt>
      <trkpt lon="-3.150509" lat="53.020808"><ele>389.754517</ele><time>2021-09-01T10:43:47Z</time><extensions><speed>1.151298</speed><course>313.959320</course><hAcc>0.886036</hAcc><vAcc>0.707417</vAcc></extensions></trkpt>
      <trkpt lon="-3.150495" lat="53.020814"><ele>389.818542</ele><time>2021-09-01T10:43:48Z</time><extensions><speed>1.114650</speed><course>314.005951</course><hAcc>0.886014</hAcc><vAcc>0.707457</vAcc></extensions></trkpt>
      <trkpt lon="-3.150481" lat="53.020819"><ele>389.882935</ele><time>2021-09-01T10:43:49Z</time><extensions><speed>1.069041</speed><course>315.776367</course><hAcc>0.885977</hAcc><vAcc>0.707464</vAcc></extensions></trkpt>
      <trkpt lon="-3.150467" lat="53.020823"><ele>389.948761</ele><time>2021-09-01T10:43:50Z</time><extensions><speed>1.014791</speed><course>317.643280</course><hAcc>0.885913</hAcc><vAcc>0.707397</vAcc></extensions></trkpt>
      <trkpt lon="-3.150455" lat="53.020828"><ele>390.016663</ele><time>2021-09-01T10:43:51Z</time><extensions><speed>0.952969</speed><course>316.187012</course><hAcc>0.885815</hAcc><vAcc>0.707218</vAcc></extensions></trkpt>
      <trkpt lon="-3.150443" lat="53.020832"><ele>390.087006</ele><time>2021-09-01T10:43:52Z</time><extensions><speed>0.884879</speed><course>313.238525</course><hAcc>0.885675</hAcc><vAcc>0.706890</vAcc></extensions></trkpt>
      <trkpt lon="-3.150432" lat="53.020835"><ele>390.160126</ele><time>2021-09-01T10:43:53Z</time><extensions><speed>0.812180</speed><course>309.102142</course><hAcc>0.885484</hAcc><vAcc>0.706376</vAcc></extensions></trkpt>
      <trkpt lon="-3.150421" lat="53.020839"><ele>390.236084</ele><time>2021-09-01T10:43:54Z</time><extensions><speed>0.737119</speed><course>313.839325</course><hAcc>0.885240</hAcc><vAcc>0.705650</vAcc></extensions></trkpt>
      <trkpt lon="-3.150412" lat="53.020842"><ele>390.314972</ele><time>2021-09-01T10:43:55Z</time><extensions><speed>0.662889</speed><course>315.040405</course><hAcc>0.884942</hAcc><vAcc>0.704694</vAcc></extensions></trkpt>
      <trkpt lon="-3.150404" lat="53.020844"><ele>390.396698</ele><time>2021-09-01T10:43:56Z</time><extensions><speed>0.593129</speed><course>315.010925</course><hAcc>0.884590</hAcc><vAcc>0.703507</vAcc></extensions></trkpt>
      <trkpt lon="-3.150396" lat="53.020846"><ele>390.481201</ele><time>2021-09-01T10:43:57Z</time><extensions><speed>0.530922</speed><course>312.357758</course><hAcc>0.884190</hAcc><vAcc>0.702111</vAcc></extensions></trkpt>
      <trkpt lon="-3.150389" lat="53.020848"><ele>390.568237</ele><time>2021-09-01T10:43:58Z</time><extensions><speed>0.478371</speed><course>316.888885</course><hAcc>0.883748</hAcc><vAcc>0.700546</vAcc></extensions></trkpt>
      <trkpt lon="-3.150383" lat="53.020850"><ele>390.657745</ele><time>2021-09-01T10:44:00Z</time><extensions><speed>0.436571</speed><course>320.096283</course><hAcc>0.883254</hAcc><vAcc>0.698851</vAcc></extensions></trkpt>
      <trkpt lon="-3.150377" lat="53.020851"><ele>390.749359</ele><time>2021-09-01T10:44:01Z</time><extensions><speed>0.405683</speed><course>330.452972</course><hAcc>0.882714</hAcc><vAcc>0.697077</vAcc></extensions></trkpt>
      <trkpt lon="-3.150371" lat="53.020852"><ele>390.842896</ele><time>2021-09-01T10:44:02Z</time><extensions><speed>0.384705</speed><course>325.892334</course><hAcc>0.882151</hAcc><vAcc>0.695267</vAcc></extensions></trkpt>
      <trkpt lon="-3.150366" lat="53.020853"><ele>390.938019</ele><time>2021-09-01T10:44:03Z</time><extensions><speed>0.372312</speed><course>323.150330</course><hAcc>0.881570</hAcc><vAcc>0.693441</vAcc></extensions></trkpt>
      <trkpt lon="-3.150361" lat="53.020854"><ele>391.034546</ele><time>2021-09-01T10:44:04Z</time><extensions><speed>0.368272</speed><course>318.355499</course><hAcc>0.880970</hAcc><vAcc>0.691602</vAcc></extensions></trkpt>
      <trkpt lon="-3.150355" lat="53.020854"><ele>391.132477</ele><time>2021-09-01T10:44:05Z</time><extensions><speed>0.373077</speed><course>319.900726</course><hAcc>0.880353</hAcc><vAcc>0.689738</vAcc></extensions></trkpt>
      <trkpt lon="-3.150350" lat="53.020855"><ele>391.232025</ele><time>2021-09-01T10:44:06Z</time><extensions><speed>0.386155</speed><course>327.705719</course><hAcc>0.879716</hAcc><vAcc>0.687826</vAcc></extensions></trkpt>
      <trkpt lon="-3.150344" lat="53.020855"><ele>391.333252</ele><time>2021-09-01T10:44:07Z</time><extensions><speed>0.405636</speed><course>325.864380</course><hAcc>0.879060</hAcc><vAcc>0.685838</vAcc></extensions></trkpt>
      <trkpt lon="-3.150338" lat="53.020856"><ele>391.436310</ele><time>2021-09-01T10:44:08Z</time><extensions><speed>0.428811</speed><course>316.016541</course><hAcc>0.878385</hAcc><vAcc>0.683764</vAcc></extensions></trkpt>
      <trkpt lon="-3.150331" lat="53.020856"><ele>391.541626</ele><time>2021-09-01T10:44:09Z</time><extensions><speed>0.453564</speed><course>317.886536</course><hAcc>0.877700</hAcc><vAcc>0.681611</vAcc></extensions></trkpt>
      <trkpt lon="-3.150324" lat="53.020857"><ele>391.649811</ele><time>2021-09-01T10:44:09Z</time><extensions><speed>0.478674</speed><course>327.267029</course><hAcc>0.877032</hAcc><vAcc>0.679426</vAcc></extensions></trkpt>
      <trkpt lon="-3.150317" lat="53.020857"><ele>391.762054</ele><time>2021-09-01T10:44:10Z</time><extensions><speed>0.503579</speed><course>326.251373</course><hAcc>0.876399</hAcc><vAcc>0.677272</vAcc></extensions></trkpt>
      <trkpt lon="-3.150309" lat="53.020857"><ele>391.879517</ele><time>2021-09-01T10:44:11Z</time><extensions><speed>0.528489</speed><course>330.160339</course><hAcc>0.875806</hAcc><vAcc>0.675224</vAcc></extensions></trkpt>
      <trkpt lon="-3.150301" lat="53.020857"><ele>392.003601</ele><time>2021-09-01T10:44:12Z</time><extensions><speed>0.554560</speed><course>329.350830</course><hAcc>0.875277</hAcc><vAcc>0.673381</vAcc></extensions></trkpt>
      <trkpt lon="-3.150293" lat="53.020857"><ele>392.135559</ele><time>2021-09-01T10:44:13Z</time><extensions><speed>0.582516</speed><course>328.046906</course><hAcc>0.874835</hAcc><vAcc>0.671835</vAcc></extensions></trkpt>
      <trkpt lon="-3.150284" lat="53.020857"><ele>392.276459</ele><time>2021-09-01T10:44:14Z</time><extensions><speed>0.611958</speed><course>328.036682</course><hAcc>0.874501</hAcc><vAcc>0.670663</vAcc></extensions></trkpt>
      <trkpt lon="-3.150274" lat="53.020857"><ele>392.427063</ele><time>2021-09-01T10:44:15Z</time><extensions><speed>0.641500</speed><course>328.321899</course><hAcc>0.874291</hAcc><vAcc>0.669928</vAcc></extensions></trkpt>
      <trkpt lon="-3.150265" lat="53.020857"><ele>392.588013</ele><time>2021-09-01T10:44:16Z</time><extensions><speed>0.669870</speed><course>326.366882</course><hAcc>0.874215</hAcc><vAcc>0.669672</vAcc></extensions></trkpt>
      <trkpt lon="-3.150255" lat="53.020856"><ele>392.759491</ele><time>2021-09-01T10:44:17Z</time><extensions><speed>0.696602</speed><course>331.362152</course><hAcc>0.874276</hAcc><vAcc>0.669910</vAcc></extensions></trkpt>
      <trkpt lon="-3.150244" lat="53.020855"><ele>392.941101</ele><time>2021-09-01T10:44:18Z</time><extensions><speed>0.721634</speed><course>329.394318</course><hAcc>0.874468</hAcc><vAcc>0.670613</vAcc></extensions></trkpt>
      <trkpt lon="-3.150233" lat="53.020855"><ele>393.131958</ele><time>2021-09-01T10:44:19Z</time><extensions><speed>0.744903</speed><course>332.464355</course><hAcc>0.874771</hAcc><vAcc>0.671710</vAcc></extensions></trkpt>
      <trkpt lon="-3.150222" lat="53.020854"><ele>393.330933</ele><time>2021-09-01T10:44:20Z</time><extensions><speed>0.765048</speed><course>335.973755</course><hAcc>0.875160</hAcc><vAcc>0.673094</vAcc></extensions></trkpt>
      <trkpt lon="-3.150211" lat="53.020853"><ele>393.536621</ele><time>2021-09-01T10:44:21Z</time><extensions><speed>0.780391</speed><course>334.588074</course><hAcc>0.875608</hAcc><vAcc>0.674650</vAcc></extensions></trkpt>
      <trkpt lon="-3.150199" lat="53.020852"><ele>393.747498</ele><time>2021-09-01T10:44:22Z</time><extensions><speed>0.790234</speed><course>337.558624</course><hAcc>0.876086</hAcc><vAcc>0.676275</vAcc></extensions></trkpt>
      <trkpt lon="-3.150187" lat="53.020851"><ele>393.962128</ele><time>2021-09-01T10:44:23Z</time><extensions><speed>0.796000</speed><course>337.377197</course><hAcc>0.876572</hAcc><vAcc>0.677886</vAcc></extensions></trkpt>
      <trkpt lon="-3.150176" lat="53.020849"><ele>394.178986</ele><time>2021-09-01T10:44:24Z</time><extensions><speed>0.800350</speed><course>334.236908</course><hAcc>0.877049</hAcc><vAcc>0.679427</vAcc></extensions></trkpt>
      <trkpt lon="-3.150164" lat="53.020848"><ele>394.396545</ele><time>2021-09-01T10:44:25Z</time><extensions><speed>0.804401</speed><course>333.116516</course><hAcc>0.877503</hAcc><vAcc>0.680862</vAcc></extensions></trkpt>
      <trkpt lon="-3.150152" lat="53.020847"><ele>394.613403</ele><time>2021-09-01T10:44:26Z</time><extensions><speed>0.808199</speed><course>331.193451</course><hAcc>0.877927</hAcc><vAcc>0.682169</vAcc></extensions></trkpt>
      <trkpt lon="-3.150140" lat="53.020846"><ele>394.828369</ele><time>2021-09-01T10:44:27Z</time><extensions><speed>0.811590</speed><course>327.071960</course><hAcc>0.878319</hAcc><vAcc>0.683348</vAcc></extensions></trkpt>
      <trkpt lon="-3.150128" lat="53.020845"><ele>395.040497</ele><time>2021-09-01T10:44:28Z</time><extensions><speed>0.814052</speed><course>323.969269</course><hAcc>0.878680</hAcc><vAcc>0.684411</vAcc></extensions></trkpt>
      <trkpt lon="-3.150116" lat="53.020845"><ele>395.248871</ele><time>2021-09-01T10:44:29Z</time><extensions><speed>0.815166</speed><course>325.035614</course><hAcc>0.879014</hAcc><vAcc>0.685385</vAcc></extensions></trkpt>
      <trkpt lon="-3.150104" lat="53.020844"><ele>395.452576</ele><time>2021-09-01T10:44:30Z</time><extensions><speed>0.814670</speed><course>325.080109</course><hAcc>0.879328</hAcc><vAcc>0.686300</vAcc></extensions></trkpt>
      <trkpt lon="-3.150092" lat="53.020843"><ele>395.650757</ele><time>2021-09-01T10:44:31Z</time><extensions><speed>0.811626</speed><course>320.596710</course><hAcc>0.879628</hAcc><vAcc>0.687186</vAcc></extensions></trkpt>
      <trkpt lon="-3.150080" lat="53.020842"><ele>395.842255</ele><time>2021-09-01T10:44:32Z</time><extensions><speed>0.805305</speed><course>325.164429</course><hAcc>0.879920</hAcc><vAcc>0.688069</vAcc></extensions></trkpt>
      <trkpt lon="-3.150068" lat="53.020842"><ele>396.025513</ele><time>2021-09-01T10:44:33Z</time><extensions><speed>0.795151</speed><course>323.691345</course><hAcc>0.880209</hAcc><vAcc>0.688972</vAcc></extensions></trkpt>
      <trkpt lon="-3.150056" lat="53.020841"><ele>396.199219</ele><time>2021-09-01T10:44:34Z</time><extensions><speed>0.779758</speed><course>332.829010</course><hAcc>0.880497</hAcc><vAcc>0.689904</vAcc></extensions></trkpt>
      <trkpt lon="-3.150045" lat="53.020841"><ele>396.362823</ele><time>2021-09-01T10:44:35Z</time><extensions><speed>0.757354</speed><course>333.287506</course><hAcc>0.880785</hAcc><vAcc>0.690861</vAcc></extensions></trkpt>
      <trkpt lon="-3.150034" lat="53.020840"><ele>396.516327</ele><time>2021-09-01T10:44:36Z</time><extensions><speed>0.726779</speed><course>320.664337</course><hAcc>0.881070</hAcc><vAcc>0.691823</vAcc></extensions></trkpt>
      <trkpt lon="-3.150023" lat="53.020840"><ele>396.659851</ele><time>2021-09-01T10:44:37Z</time><extensions><speed>0.688047</speed><course>319.581818</course><hAcc>0.881347</hAcc><vAcc>0.692765</vAcc></extensions></trkpt>
      <trkpt lon="-3.150013" lat="53.020839"><ele>396.793396</ele><time>2021-09-01T10:44:38Z</time><extensions><speed>0.642089</speed><course>320.113190</course><hAcc>0.881612</hAcc><vAcc>0.693659</vAcc></extensions></trkpt>
      <trkpt lon="-3.150004" lat="53.020839"><ele>396.916779</ele><time>2021-09-01T10:44:39Z</time><extensions><speed>0.590807</speed><course>325.625488</course><hAcc>0.881858</hAcc><vAcc>0.694483</vAcc></extensions></trkpt>
      <trkpt lon="-3.149996" lat="53.020838"><ele>397.029602</ele><time>2021-09-01T10:44:40Z</time><extensions><speed>0.536506</speed><course>320.008789</course><hAcc>0.882084</hAcc><vAcc>0.695221</vAcc></extensions></trkpt>
      <trkpt lon="-3.149988" lat="53.020838"><ele>397.131592</ele><time>2021-09-01T10:44:41Z</time><extensions><speed>0.481524</speed><course>318.909088</course><hAcc>0.882284</hAcc><vAcc>0.695864</vAcc></extensions></trkpt>
      <trkpt lon="-3.149982" lat="53.020838"><ele>397.222412</ele><time>2021-09-01T10:44:42Z</time><extensions><speed>0.428615</speed><course>323.298828</course><hAcc>0.882458</hAcc><vAcc>0.696406</vAcc></extensions></trkpt>
      <trkpt lon="-3.149976" lat="53.020837"><ele>397.302124</ele><time>2021-09-01T10:44:43Z</time><extensions><speed>0.379977</speed><course>319.843567</course><hAcc>0.882603</hAcc><vAcc>0.696847</vAcc></extensions></trkpt>
      <trkpt lon="-3.149970" lat="53.020837"><ele>397.371582</ele><time>2021-09-01T10:44:44Z</time><extensions><speed>0.337203</speed><course>314.311829</course><hAcc>0.882721</hAcc><vAcc>0.697191</vAcc></extensions></trkpt>
      <trkpt lon="-3.149965" lat="53.020837"><ele>397.432098</ele><time>2021-09-01T10:44:45Z</time><extensions><speed>0.301414</speed><course>319.089264</course><hAcc>0.882810</hAcc><vAcc>0.697441</vAcc></extensions></trkpt>
      <trkpt lon="-3.149961" lat="53.020836"><ele>397.485352</ele><time>2021-09-01T10:44:46Z</time><extensions><speed>0.272843</speed><course>322.114319</course><hAcc>0.882873</hAcc><vAcc>0.697600</vAcc></extensions></trkpt>
      <trkpt lon="-3.149957" lat="53.020836"><ele>397.533173</ele><time>2021-09-01T10:44:47Z</time><extensions><speed>0.251248</speed><course>313.771057</course><hAcc>0.882908</hAcc><vAcc>0.697679</vAcc></extensions></trkpt>
      <trkpt lon="-3.149954" lat="53.020836"><ele>397.577484</ele><time>2021-09-01T10:44:48Z</time><extensions><speed>0.237198</speed><course>306.383820</course><hAcc>0.882915</hAcc><vAcc>0.697693</vAcc></extensions></trkpt>
      <trkpt lon="-3.149950" lat="53.020836"><ele>397.620575</ele><time>2021-09-01T10:44:49Z</time><extensions><speed>0.231604</speed><course>308.594727</course><hAcc>0.882890</hAcc><vAcc>0.697655</vAcc></extensions></trkpt>
      <trkpt lon="-3.149947" lat="53.020835"><ele>397.664795</ele><time>2021-09-01T10:44:50Z</time><extensions><speed>0.235081</speed><course>313.438293</course><hAcc>0.882831</hAcc><vAcc>0.697557</vAcc></extensions></trkpt>
      <trkpt lon="-3.149943" lat="53.020835"><ele>397.712463</ele><time>2021-09-01T10:44:51Z</time><extensions><speed>0.248148</speed><course>315.261749</course><hAcc>0.882729</hAcc><vAcc>0.697366</vAcc></extensions></trkpt>
      <trkpt lon="-3.149940" lat="53.020834"><ele>397.765625</ele><time>2021-09-01T10:44:52Z</time><extensions><speed>0.270767</speed><course>314.962799</course><hAcc>0.882577</hAcc><vAcc>0.697035</vAcc></extensions></trkpt>
      <trkpt lon="-3.149935" lat="53.020834"><ele>397.825958</ele><time>2021-09-01T10:44:53Z</time><extensions><speed>0.302468</speed><course>311.864380</course><hAcc>0.882369</hAcc><vAcc>0.696515</vAcc></extensions></trkpt>
      <trkpt lon="-3.149931" lat="53.020833"><ele>397.894867</ele><time>2021-09-01T10:44:54Z</time><extensions><speed>0.342226</speed><course>305.555115</course><hAcc>0.882100</hAcc><vAcc>0.695760</vAcc></extensions></trkpt>
      <trkpt lon="-3.149925" lat="53.020833"><ele>397.973358</ele><time>2021-09-01T10:44:55Z</time><extensions><speed>0.388367</speed><course>309.414368</course><hAcc>0.881768</hAcc><vAcc>0.694743</vAcc></extensions></trkpt>
      <trkpt lon="-3.149919" lat="53.020832"><ele>398.062195</ele><time>2021-09-01T10:44:56Z</time><extensions><speed>0.438186</speed><course>312.426361</course><hAcc>0.881378</hAcc><vAcc>0.693465</vAcc></extensions></trkpt>
      <trkpt lon="-3.149912" lat="53.020831"><ele>398.161438</ele><time>2021-09-01T10:44:57Z</time><extensions><speed>0.488350</speed><course>315.779877</course><hAcc>0.880938</hAcc><vAcc>0.691957</vAcc></extensions></trkpt>
      <trkpt lon="-3.149905" lat="53.020830"><ele>398.270538</ele><time>2021-09-01T10:44:58Z</time><extensions><speed>0.535737</speed><course>309.393494</course><hAcc>0.880463</hAcc><vAcc>0.690284</vAcc></extensions></trkpt>
      <trkpt lon="-3.149897" lat="53.020829"><ele>398.388733</ele><time>2021-09-01T10:44:59Z</time><extensions><speed>0.578729</speed><course>315.161163</course><hAcc>0.879969</hAcc><vAcc>0.688528</vAcc></extensions></trkpt>
      <trkpt lon="-3.149888" lat="53.020828"><ele>398.514984</ele><time>2021-09-01T10:45:00Z</time><extensions><speed>0.618015</speed><course>313.978088</course><hAcc>0.879475</hAcc><vAcc>0.686775</vAcc></extensions></trkpt>
      <trkpt lon="-3.149879" lat="53.020827"><ele>398.648285</ele><time>2021-09-01T10:45:01Z</time><extensions><speed>0.655600</speed><course>310.683502</course><hAcc>0.879001</hAcc><vAcc>0.685109</vAcc></extensions></trkpt>
      <trkpt lon="-3.149869" lat="53.020826"><ele>398.787720</ele><time>2021-09-01T10:45:02Z</time><extensions><speed>0.693521</speed><course>311.301880</course><hAcc>0.878563</hAcc><vAcc>0.683596</vAcc></extensions></trkpt>
      <trkpt lon="-3.149858" lat="53.020825"><ele>398.932709</ele><time>2021-09-01T10:45:03Z</time><extensions><speed>0.732527</speed><course>311.208435</course><hAcc>0.878176</hAcc><vAcc>0.682289</vAcc></extensions></trkpt>
      <trkpt lon="-3.149847" lat="53.020824"><ele>399.082977</ele><time>2021-09-01T10:45:04Z</time><extensions><speed>0.771492</speed><course>309.569458</course><hAcc>0.877848</hAcc><vAcc>0.681219</vAcc></extensions></trkpt>
      <trkpt lon="-3.149836" lat="53.020823"><ele>399.238464</ele><time>2021-09-01T10:45:05Z</time><extensions><speed>0.808667</speed><course>310.187012</course><hAcc>0.877582</hAcc><vAcc>0.680391</vAcc></extensions></trkpt>
      <trkpt lon="-3.149824" lat="53.020821"><ele>399.398956</ele><time>2021-09-01T10:45:06Z</time><extensions><speed>0.843200</speed><course>310.459808</course><hAcc>0.877376</hAcc><vAcc>0.679784</vAcc></extensions></trkpt>
      <trkpt lon="-3.149811" lat="53.020820"><ele>399.564423</ele><time>2021-09-01T10:45:07Z</time><extensions><speed>0.874468</speed><course>310.191071</course><hAcc>0.877222</hAcc><vAcc>0.679367</vAcc></extensions></trkpt>
      <trkpt lon="-3.149798" lat="53.020818"><ele>399.734924</ele><time>2021-09-01T10:45:08Z</time><extensions><speed>0.901632</speed><course>313.202332</course><hAcc>0.877114</hAcc><vAcc>0.679107</vAcc></extensions></trkpt>
      <trkpt lon="-3.149785" lat="53.020817"><ele>399.910461</ele><time>2021-09-01T10:45:09Z</time><extensions><speed>0.924097</speed><course>317.375305</course><hAcc>0.877042</hAcc><vAcc>0.678967</vAcc></extensions></trkpt>
      <trkpt lon="-3.149771" lat="53.020816"><ele>400.090851</ele><time>2021-09-01T10:45:10Z</time><extensions><speed>0.941128</speed><course>320.965942</course><hAcc>0.876993</hAcc><vAcc>0.678903</vAcc></extensions></trkpt>
      <trkpt lon="-3.149757" lat="53.020814"><ele>400.275665</ele><time>2021-09-01T10:45:11Z</time><extensions><speed>0.952243</speed><course>318.335114</course><hAcc>0.876958</hAcc><vAcc>0.678864</vAcc></extensions></trkpt>
      <trkpt lon="-3.149743" lat="53.020813"><ele>400.464355</ele><time>2021-09-01T10:45:12Z</time><extensions><speed>0.958046</speed><course>322.780487</course><hAcc>0.876926</hAcc><vAcc>0.678807</vAcc></extensions></trkpt>
      <trkpt lon="-3.149729" lat="53.020812"><ele>400.656158</ele><time>2021-09-01T10:45:13Z</time><extensions><speed>0.960238</speed><course>321.324005</course><hAcc>0.876891</hAcc><vAcc>0.678701</vAcc></extensions></trkpt>
      <trkpt lon="-3.149715" lat="53.020811"><ele>400.850159</ele><time>2021-09-01T10:45:14Z</time><extensions><speed>0.960886</speed><course>322.516296</course><hAcc>0.876851</hAcc><vAcc>0.678542</vAcc></extensions></trkpt>
      <trkpt lon="-3.149700" lat="53.020809"><ele>401.045258</ele><time>2021-09-01T10:45:15Z</time><extensions><speed>0.961680</speed><course>319.995483</course><hAcc>0.876810</hAcc><vAcc>0.678352</vAcc></extensions></trkpt>
      <trkpt lon="-3.149686" lat="53.020808"><ele>401.240540</ele><time>2021-09-01T10:45:16Z</time><extensions><speed>0.963950</speed><course>324.182892</course><hAcc>0.876774</hAcc><vAcc>0.678169</vAcc></extensions></trkpt>
      <trkpt lon="-3.149672" lat="53.020808"><ele>401.435608</ele><time>2021-09-01T10:45:17Z</time><extensions><speed>0.968696</speed><course>328.616821</course><hAcc>0.876753</hAcc><vAcc>0.678038</vAcc></extensions></trkpt>
      <trkpt lon="-3.149657" lat="53.020807"><ele>401.630280</ele><time>2021-09-01T10:45:18Z</time><extensions><speed>0.976369</speed><course>324.016815</course><hAcc>0.876752</hAcc><vAcc>0.677993</vAcc></extensions></trkpt>
      <trkpt lon="-3.149643" lat="53.020806"><ele>401.824799</ele><time>2021-09-01T10:45:19Z</time><extensions><speed>0.986750</speed><course>329.825897</course><hAcc>0.876777</hAcc><vAcc>0.678049</vAcc></extensions></trkpt>
      <trkpt lon="-3.149628" lat="53.020805"><ele>402.019470</ele><time>2021-09-01T10:45:20Z</time><extensions><speed>0.999141</speed><course>327.868408</course><hAcc>0.876831</hAcc><vAcc>0.678206</vAcc></extensions></trkpt>
      <trkpt lon="-3.149613" lat="53.020805"><ele>402.214539</ele><time>2021-09-01T10:45:21Z</time><extensions><speed>1.012769</speed><course>336.001526</course><hAcc>0.876915</hAcc><vAcc>0.678465</vAcc></extensions></trkpt>
      <trkpt lon="-3.149598" lat="53.020804"><ele>402.410095</ele><time>2021-09-01T10:45:22Z</time><extensions><speed>1.026828</speed><course>319.189575</course><hAcc>0.877030</hAcc><vAcc>0.678828</vAcc></extensions></trkpt>
      <trkpt lon="-3.149583" lat="53.020804"><ele>402.605927</ele><time>2021-09-01T10:45:23Z</time><extensions><speed>1.040037</speed><course>314.045624</course><hAcc>0.877176</hAcc><vAcc>0.679295</vAcc></extensions></trkpt>
      <trkpt lon="-3.149567" lat="53.020803"><ele>402.801880</ele><time>2021-09-01T10:45:24Z</time><extensions><speed>1.051738</speed><course>316.798950</course><hAcc>0.877353</hAcc><vAcc>0.679862</vAcc></extensions></trkpt>
      <trkpt lon="-3.149551" lat="53.020803"><ele>402.997894</ele><time>2021-09-01T10:45:25Z</time><extensions><speed>1.061637</speed><course>316.381958</course><hAcc>0.877558</hAcc><vAcc>0.680524</vAcc></extensions></trkpt>
      <trkpt lon="-3.149535" lat="53.020802"><ele>403.193726</ele><time>2021-09-01T10:45:26Z</time><extensions><speed>1.069317</speed><course>324.109985</course><hAcc>0.877787</hAcc><vAcc>0.681273</vAcc></extensions></trkpt>
      <trkpt lon="-3.149520" lat="53.020802"><ele>403.388794</ele><time>2021-09-01T10:45:27Z</time><extensions><speed>1.075049</speed><course>319.248718</course><hAcc>0.878035</hAcc><vAcc>0.682094</vAcc></extensions></trkpt>
      <trkpt lon="-3.149504" lat="53.020801"><ele>403.582153</ele><time>2021-09-01T10:45:28Z</time><extensions><speed>1.079171</speed><course>322.755310</course><hAcc>0.878296</hAcc><vAcc>0.682966</vAcc></extensions></trkpt>
      <trkpt lon="-3.149487" lat="53.020800"><ele>403.772369</ele><time>2021-09-01T10:45:29Z</time><extensions><speed>1.082333</speed><course>326.625031</course><hAcc>0.878560</hAcc><vAcc>0.683863</vAcc></extensions></trkpt>
      <trkpt lon="-3.149471" lat="53.020799"><ele>403.957886</ele><time>2021-09-01T10:45:30Z</time><extensions><speed>1.085134</speed><course>328.024994</course><hAcc>0.878819</hAcc><vAcc>0.684758</vAcc></extensions></trkpt>
      <trkpt lon="-3.149455" lat="53.020798"><ele>404.137726</ele><time>2021-09-01T10:45:31Z</time><extensions><speed>1.088192</speed><course>332.378082</course><hAcc>0.879065</hAcc><vAcc>0.685619</vAcc></extensions></trkpt>
      <trkpt lon="-3.149439" lat="53.020797"><ele>404.311523</ele><time>2021-09-01T10:45:32Z</time><extensions><speed>1.092467</speed><course>332.526154</course><hAcc>0.879288</hAcc><vAcc>0.686414</vAcc></extensions></trkpt>
      <trkpt lon="-3.149423" lat="53.020795"><ele>404.479340</ele><time>2021-09-01T10:45:33Z</time><extensions><speed>1.098625</speed><course>335.486633</course><hAcc>0.879480</hAcc><vAcc>0.687104</vAcc></extensions></trkpt>
      <trkpt lon="-3.149407" lat="53.020794"><ele>404.641296</ele><time>2021-09-01T10:45:34Z</time><extensions><speed>1.107107</speed><course>336.016846</course><hAcc>0.879636</hAcc><vAcc>0.687651</vAcc></extensions></trkpt>
      <trkpt lon="-3.149390" lat="53.020792"><ele>404.797577</ele><time>2021-09-01T10:45:35Z</time><extensions><speed>1.117728</speed><course>334.888000</course><hAcc>0.879751</hAcc><vAcc>0.688028</vAcc></extensions></trkpt>
      <trkpt lon="-3.149374" lat="53.020791"><ele>404.948486</ele><time>2021-09-01T10:45:36Z</time><extensions><speed>1.129557</speed><course>333.393311</course><hAcc>0.879827</hAcc><vAcc>0.688227</vAcc></extensions></trkpt>
      <trkpt lon="-3.149357" lat="53.020789"><ele>405.094391</ele><time>2021-09-01T10:45:37Z</time><extensions><speed>1.141570</speed><course>318.935883</course><hAcc>0.879872</hAcc><vAcc>0.688268</vAcc></extensions></trkpt>
      <trkpt lon="-3.149340" lat="53.020787"><ele>405.235626</ele><time>2021-09-01T10:45:38Z</time><extensions><speed>1.153405</speed><course>311.891724</course><hAcc>0.879896</hAcc><vAcc>0.688196</vAcc></extensions></trkpt>
      <trkpt lon="-3.149323" lat="53.020786"><ele>405.372498</ele><time>2021-09-01T10:45:39Z</time><extensions><speed>1.165931</speed><course>312.578461</course><hAcc>0.879915</hAcc><vAcc>0.688082</vAcc></extensions></trkpt>
      <trkpt lon="-3.149306" lat="53.020784"><ele>405.505493</ele><time>2021-09-01T10:45:40Z</time><extensions><speed>1.180599</speed><course>320.602325</course><hAcc>0.879948</hAcc><vAcc>0.688007</vAcc></extensions></trkpt>
      <trkpt lon="-3.149289" lat="53.020782"><ele>405.635345</ele><time>2021-09-01T10:45:41Z</time><extensions><speed>1.198093</speed><course>323.639648</course><hAcc>0.880012</hAcc><vAcc>0.688056</vAcc></extensions></trkpt>
      <trkpt lon="-3.149271" lat="53.020780"><ele>405.762970</ele><time>2021-09-01T10:45:42Z</time><extensions><speed>1.217800</speed><course>325.641083</course><hAcc>0.880123</hAcc><vAcc>0.688305</vAcc></extensions></trkpt>
      <trkpt lon="-3.149253" lat="53.020778"><ele>405.889130</ele><time>2021-09-01T10:45:43Z</time><extensions><speed>1.238199</speed><course>324.286163</course><hAcc>0.880292</hAcc><vAcc>0.688809</vAcc></extensions></trkpt>
      <trkpt lon="-3.149234" lat="53.020777"><ele>406.014801</ele><time>2021-09-01T10:45:44Z</time><extensions><speed>1.257531</speed><course>330.884674</course><hAcc>0.880522</hAcc><vAcc>0.689590</vAcc></extensions></trkpt>
      <trkpt lon="-3.149216" lat="53.020775"><ele>406.141327</ele><time>2021-09-01T10:45:45Z</time><extensions><speed>1.274367</speed><course>342.591980</course><hAcc>0.880813</hAcc><vAcc>0.690634</vAcc></extensions></trkpt>
      <trkpt lon="-3.149197" lat="53.020773"><ele>406.270508</ele><time>2021-09-01T10:45:46Z</time><extensions><speed>1.287507</speed><course>340.473694</course><hAcc>0.881152</hAcc><vAcc>0.691889</vAcc></extensions></trkpt>
      <trkpt lon="-3.149178" lat="53.020772"><ele>406.404266</ele><time>2021-09-01T10:45:47Z</time><extensions><speed>1.295841</speed><course>337.459930</course><hAcc>0.881526</hAcc><vAcc>0.693276</vAcc></extensions></trkpt>
      <trkpt lon="-3.149159" lat="53.020770"><ele>406.544281</ele><time>2021-09-01T10:45:48Z</time><extensions><speed>1.298940</speed><course>334.977905</course><hAcc>0.881913</hAcc><vAcc>0.694701</vAcc></extensions></trkpt>
      <trkpt lon="-3.149140" lat="53.020768"><ele>406.691223</ele><time>2021-09-01T10:45:49Z</time><extensions><speed>1.296692</speed><course>334.909821</course><hAcc>0.882297</hAcc><vAcc>0.696081</vAcc></extensions></trkpt>
      <trkpt lon="-3.149120" lat="53.020767"><ele>406.845154</ele><time>2021-09-01T10:45:50Z</time><extensions><speed>1.289189</speed><course>335.401093</course><hAcc>0.882659</hAcc><vAcc>0.697344</vAcc></extensions></trkpt>
      <trkpt lon="-3.149102" lat="53.020765"><ele>407.005829</ele><time>2021-09-01T10:45:51Z</time><extensions><speed>1.276693</speed><course>335.416534</course><hAcc>0.882984</hAcc><vAcc>0.698439</vAcc></extensions></trkpt>
      <trkpt lon="-3.149083" lat="53.020764"><ele>407.173126</ele><time>2021-09-01T10:45:52Z</time><extensions><speed>1.259621</speed><course>333.502777</course><hAcc>0.883263</hAcc><vAcc>0.699331</vAcc></extensions></trkpt>
      <trkpt lon="-3.149064" lat="53.020762"><ele>407.347168</ele><time>2021-09-01T10:45:53Z</time><extensions><speed>1.239259</speed><course>334.704010</course><hAcc>0.883490</hAcc><vAcc>0.700007</vAcc></extensions></trkpt>
      <trkpt lon="-3.149046" lat="53.020760"><ele>407.527466</ele><time>2021-09-01T10:45:54Z</time><extensions><speed>1.216956</speed><course>336.400421</course><hAcc>0.883661</hAcc><vAcc>0.700472</vAcc></extensions></trkpt>
      <trkpt lon="-3.149029" lat="53.020759"><ele>407.712860</ele><time>2021-09-01T10:45:55Z</time><extensions><speed>1.193372</speed><course>347.265839</course><hAcc>0.883780</hAcc><vAcc>0.700745</vAcc></extensions></trkpt>
      <trkpt lon="-3.149011" lat="53.020757"><ele>407.901703</ele><time>2021-09-01T10:45:56Z</time><extensions><speed>1.168620</speed><course>344.062927</course><hAcc>0.883851</hAcc><vAcc>0.700856</vAcc></extensions></trkpt>
      <trkpt lon="-3.148994" lat="53.020755"><ele>408.092377</ele><time>2021-09-01T10:45:57Z</time><extensions><speed>1.142878</speed><course>337.032654</course><hAcc>0.883882</hAcc><vAcc>0.700839</vAcc></extensions></trkpt>
      <trkpt lon="-3.148978" lat="53.020754"><ele>408.282990</ele><time>2021-09-01T10:45:58Z</time><extensions><speed>1.116505</speed><course>338.548584</course><hAcc>0.883880</hAcc><vAcc>0.700732</vAcc></extensions></trkpt>
      <trkpt lon="-3.148961" lat="53.020752"><ele>408.471344</ele><time>2021-09-01T10:45:59Z</time><extensions><speed>1.089666</speed><course>340.790558</course><hAcc>0.883855</hAcc><vAcc>0.700564</vAcc></extensions></trkpt>
      <trkpt lon="-3.148945" lat="53.020751"><ele>408.655182</ele><time>2021-09-01T10:46:00Z</time><extensions><speed>1.062590</speed><course>331.528198</course><hAcc>0.883814</hAcc><vAcc>0.700364</vAcc></extensions></trkpt>
      <trkpt lon="-3.148930" lat="53.020750"><ele>408.832825</ele><time>2021-09-01T10:46:01Z</time><extensions><speed>1.035303</speed><course>326.705475</course><hAcc>0.883764</hAcc><vAcc>0.700152</vAcc></extensions></trkpt>
      <trkpt lon="-3.148915" lat="53.020748"><ele>409.003143</ele><time>2021-09-01T10:46:02Z</time><extensions><speed>1.007880</speed><course>334.332062</course><hAcc>0.883711</hAcc><vAcc>0.699942</vAcc></extensions></trkpt>
      <trkpt lon="-3.148900" lat="53.020747"><ele>409.165375</ele><time>2021-09-01T10:46:03Z</time><extensions><speed>0.979870</speed><course>321.684448</course><hAcc>0.883657</hAcc><vAcc>0.699744</vAcc></extensions></trkpt>
      <trkpt lon="-3.148886" lat="53.020746"><ele>409.318939</ele><time>2021-09-01T10:46:04Z</time><extensions><speed>0.950117</speed><course>319.446838</course><hAcc>0.883607</hAcc><vAcc>0.699561</vAcc></extensions></trkpt>
      <trkpt lon="-3.148872" lat="53.020745"><ele>409.463562</ele><time>2021-09-01T10:46:06Z</time><extensions><speed>0.917972</speed><course>327.299927</course><hAcc>0.883539</hAcc><vAcc>0.699378</vAcc></extensions></trkpt>
      <trkpt lon="-3.148859" lat="53.020744"><ele>409.599091</ele><time>2021-09-01T10:46:07Z</time><extensions><speed>0.883390</speed><course>327.362518</course><hAcc>0.883453</hAcc><vAcc>0.699188</vAcc></extensions></trkpt>
      <trkpt lon="-3.148846" lat="53.020743"><ele>409.725800</ele><time>2021-09-01T10:46:08Z</time><extensions><speed>0.846869</speed><course>320.449799</course><hAcc>0.883361</hAcc><vAcc>0.698990</vAcc></extensions></trkpt>
      <trkpt lon="-3.148834" lat="53.020742"><ele>409.843353</ele><time>2021-09-01T10:46:09Z</time><extensions><speed>0.809916</speed><course>323.666901</course><hAcc>0.883258</hAcc><vAcc>0.698765</vAcc></extensions></trkpt>
      <trkpt lon="-3.148822" lat="53.020741"><ele>409.951294</ele><time>2021-09-01T10:46:10Z</time><extensions><speed>0.774676</speed><course>325.310486</course><hAcc>0.883138</hAcc><vAcc>0.698485</vAcc></extensions></trkpt>
      <trkpt lon="-3.148811" lat="53.020740"><ele>410.049408</ele><time>2021-09-01T10:46:11Z</time><extensions><speed>0.743652</speed><course>323.024933</course><hAcc>0.882996</hAcc><vAcc>0.698124</vAcc></extensions></trkpt>
      <trkpt lon="-3.148800" lat="53.020739"><ele>410.138031</ele><time>2021-09-01T10:46:12Z</time><extensions><speed>0.718973</speed><course>321.641022</course><hAcc>0.882828</hAcc><vAcc>0.697652</vAcc></extensions></trkpt>
      <trkpt lon="-3.148790" lat="53.020738"><ele>410.218079</ele><time>2021-09-01T10:46:13Z</time><extensions><speed>0.702445</speed><course>323.471222</course><hAcc>0.882631</hAcc><vAcc>0.697052</vAcc></extensions></trkpt>
      <trkpt lon="-3.148780" lat="53.020736"><ele>410.290955</ele><time>2021-09-01T10:46:14Z</time><extensions><speed>0.695780</speed><course>324.875793</course><hAcc>0.882407</hAcc><vAcc>0.696321</vAcc></extensions></trkpt>
      <trkpt lon="-3.148769" lat="53.020735"><ele>410.358032</ele><time>2021-09-01T10:46:15Z</time><extensions><speed>0.699602</speed><course>318.989594</course><hAcc>0.882158</hAcc><vAcc>0.695474</vAcc></extensions></trkpt>
      <trkpt lon="-3.148759" lat="53.020733"><ele>410.420624</ele><time>2021-09-01T10:46:16Z</time><extensions><speed>0.712648</speed><course>325.887390</course><hAcc>0.881891</hAcc><vAcc>0.694546</vAcc></extensions></trkpt>
      <trkpt lon="-3.148749" lat="53.020732"><ele>410.479980</ele><time>2021-09-01T10:46:17Z</time><extensions><speed>0.732870</speed><course>320.176544</course><hAcc>0.881613</hAcc><vAcc>0.693579</vAcc></extensions></trkpt>
      <trkpt lon="-3.148738" lat="53.020730"><ele>410.537109</ele><time>2021-09-01T10:46:18Z</time><extensions><speed>0.758461</speed><course>316.970215</course><hAcc>0.881331</hAcc><vAcc>0.692620</vAcc></extensions></trkpt>
      <trkpt lon="-3.148727" lat="53.020728"><ele>410.592987</ele><time>2021-09-01T10:46:19Z</time><extensions><speed>0.787795</speed><course>317.579376</course><hAcc>0.881052</hAcc><vAcc>0.691707</vAcc></extensions></trkpt>
      <trkpt lon="-3.148716" lat="53.020726"><ele>410.648590</ele><time>2021-09-01T10:46:19Z</time><extensions><speed>0.819440</speed><course>318.426422</course><hAcc>0.880801</hAcc><vAcc>0.690876</vAcc></extensions></trkpt>
      <trkpt lon="-3.148704" lat="53.020724"><ele>410.705261</ele><time>2021-09-01T10:46:20Z</time><extensions><speed>0.852056</speed><course>326.252594</course><hAcc>0.880580</hAcc><vAcc>0.690135</vAcc></extensions></trkpt>
      <trkpt lon="-3.148691" lat="53.020721"><ele>410.764252</ele><time>2021-09-01T10:46:21Z</time><extensions><speed>0.883903</speed><course>323.145020</course><hAcc>0.880375</hAcc><vAcc>0.689467</vAcc></extensions></trkpt>
      <trkpt lon="-3.148679" lat="53.020719"><ele>410.826355</ele><time>2021-09-01T10:46:22Z</time><extensions><speed>0.913497</speed><course>325.683777</course><hAcc>0.880187</hAcc><vAcc>0.688866</vAcc></extensions></trkpt>
      <trkpt lon="-3.148665" lat="53.020717"><ele>410.891327</ele><time>2021-09-01T10:46:23Z</time><extensions><speed>0.940208</speed><course>328.591705</course><hAcc>0.880016</hAcc><vAcc>0.688327</vAcc></extensions></trkpt>
      <trkpt lon="-3.148652" lat="53.020714"><ele>410.957703</ele><time>2021-09-01T10:46:24Z</time><extensions><speed>0.964571</speed><course>330.002411</course><hAcc>0.879863</hAcc><vAcc>0.687846</vAcc></extensions></trkpt>
      <trkpt lon="-3.148638" lat="53.020712"><ele>411.023376</ele><time>2021-09-01T10:46:25Z</time><extensions><speed>0.987460</speed><course>336.475830</course><hAcc>0.879726</hAcc><vAcc>0.687422</vAcc></extensions></trkpt>
      <trkpt lon="-3.148623" lat="53.020710"><ele>411.085968</ele><time>2021-09-01T10:46:26Z</time><extensions><speed>1.009590</speed><course>344.051849</course><hAcc>0.879604</hAcc><vAcc>0.687051</vAcc></extensions></trkpt>
      <trkpt lon="-3.148609" lat="53.020707"><ele>411.143066</ele><time>2021-09-01T10:46:27Z</time><extensions><speed>1.031465</speed><course>336.407532</course><hAcc>0.879495</hAcc><vAcc>0.686724</vAcc></extensions></trkpt>
      <trkpt lon="-3.148593" lat="53.020705"><ele>411.192291</ele><time>2021-09-01T10:46:28Z</time><extensions><speed>1.053167</speed><course>333.640045</course><hAcc>0.879396</hAcc><vAcc>0.686431</vAcc></extensions></trkpt>
      <trkpt lon="-3.148578" lat="53.020703"><ele>411.231842</ele><time>2021-09-01T10:46:29Z</time><extensions><speed>1.074170</speed><course>342.498993</course><hAcc>0.879306</hAcc><vAcc>0.686161</vAcc></extensions></trkpt>
      <trkpt lon="-3.148562" lat="53.020702"><ele>411.260468</ele><time>2021-09-01T10:46:30Z</time><extensions><speed>1.093300</speed><course>346.370605</course><hAcc>0.879224</hAcc><vAcc>0.685906</vAcc></extensions></trkpt>
      <trkpt lon="-3.148546" lat="53.020700"><ele>411.277710</ele><time>2021-09-01T10:46:31Z</time><extensions><speed>1.109732</speed><course>342.144836</course><hAcc>0.879148</hAcc><vAcc>0.685661</vAcc></extensions></trkpt>
      <trkpt lon="-3.148529" lat="53.020698"><ele>411.283844</ele><time>2021-09-01T10:46:32Z</time><extensions><speed>1.124446</speed><course>335.813446</course><hAcc>0.879079</hAcc><vAcc>0.685427</vAcc></extensions></trkpt>
      <trkpt lon="-3.148513" lat="53.020697"><ele>411.279694</ele><time>2021-09-01T10:46:33Z</time><extensions><speed>1.138878</speed><course>332.699371</course><hAcc>0.879018</hAcc><vAcc>0.685211</vAcc></extensions></trkpt>
      <trkpt lon="-3.148496" lat="53.020695"><ele>411.266327</ele><time>2021-09-01T10:46:34Z</time><extensions><speed>1.153290</speed><course>329.959167</course><hAcc>0.878968</hAcc><vAcc>0.685024</vAcc></extensions></trkpt>
      <trkpt lon="-3.148479" lat="53.020694"><ele>411.245148</ele><time>2021-09-01T10:46:35Z</time><extensions><speed>1.167398</speed><course>328.573547</course><hAcc>0.878931</hAcc><vAcc>0.684881</vAcc></extensions></trkpt>
      <trkpt lon="-3.148461" lat="53.020692"><ele>411.217834</ele><time>2021-09-01T10:46:36Z</time><extensions><speed>1.180814</speed><course>326.699219</course><hAcc>0.878910</hAcc><vAcc>0.684796</vAcc></extensions></trkpt>
      <trkpt lon="-3.148444" lat="53.020690"><ele>411.185883</ele><time>2021-09-01T10:46:37Z</time><extensions><speed>1.192996</speed><course>323.768890</course><hAcc>0.878906</hAcc><vAcc>0.684777</vAcc></extensions></trkpt>
      <trkpt lon="-3.148426" lat="53.020688"><ele>411.150696</ele><time>2021-09-01T10:46:38Z</time><extensions><speed>1.203870</speed><course>323.826019</course><hAcc>0.878919</hAcc><vAcc>0.684828</vAcc></extensions></trkpt>
      <trkpt lon="-3.148409" lat="53.020686"><ele>411.113617</ele><time>2021-09-01T10:46:39Z</time><extensions><speed>1.214095</speed><course>332.271057</course><hAcc>0.878949</hAcc><vAcc>0.684943</vAcc></extensions></trkpt>
      <trkpt lon="-3.148391" lat="53.020684"><ele>411.075745</ele><time>2021-09-01T10:46:40Z</time><extensions><speed>1.224501</speed><course>333.951233</course><hAcc>0.878993</hAcc><vAcc>0.685109</vAcc></extensions></trkpt>
      <trkpt lon="-3.148373" lat="53.020682"><ele>411.038055</ele><time>2021-09-01T10:46:41Z</time><extensions><speed>1.235901</speed><course>329.776917</course><hAcc>0.879046</hAcc><vAcc>0.685309</vAcc></extensions></trkpt>
      <trkpt lon="-3.148355" lat="53.020679"><ele>411.001099</ele><time>2021-09-01T10:46:42Z</time><extensions><speed>1.248864</speed><course>319.463959</course><hAcc>0.879105</hAcc><vAcc>0.685530</vAcc></extensions></trkpt>
      <trkpt lon="-3.148337" lat="53.020676"><ele>410.965393</ele><time>2021-09-01T10:46:43Z</time><extensions><speed>1.263236</speed><course>318.313507</course><hAcc>0.879166</hAcc><vAcc>0.685759</vAcc></extensions></trkpt>
      <trkpt lon="-3.148319" lat="53.020673"><ele>410.931427</ele><time>2021-09-01T10:46:44Z</time><extensions><speed>1.278770</speed><course>318.491211</course><hAcc>0.879225</hAcc><vAcc>0.685984</vAcc></extensions></trkpt>
      <trkpt lon="-3.148301" lat="53.020669"><ele>410.899750</ele><time>2021-09-01T10:46:45Z</time><extensions><speed>1.294550</speed><course>324.025574</course><hAcc>0.879278</hAcc><vAcc>0.686186</vAcc></extensions></trkpt>
      <trkpt lon="-3.148282" lat="53.020666"><ele>410.870850</ele><time>2021-09-01T10:46:46Z</time><extensions><speed>1.308806</speed><course>330.489594</course><hAcc>0.879321</hAcc><vAcc>0.686345</vAcc></extensions></trkpt>
      <trkpt lon="-3.148264" lat="53.020662"><ele>410.845123</ele><time>2021-09-01T10:46:47Z</time><extensions><speed>1.320278</speed><course>319.490967</course><hAcc>0.879351</hAcc><vAcc>0.686445</vAcc></extensions></trkpt>
      <trkpt lon="-3.148245" lat="53.020658"><ele>410.822388</ele><time>2021-09-01T10:46:48Z</time><extensions><speed>1.329022</speed><course>318.785126</course><hAcc>0.879368</hAcc><vAcc>0.686481</vAcc></extensions></trkpt>
      <trkpt lon="-3.148226" lat="53.020654"><ele>410.802216</ele><time>2021-09-01T10:46:49Z</time><extensions><speed>1.336575</speed><course>319.524078</course><hAcc>0.879374</hAcc><vAcc>0.686465</vAcc></extensions></trkpt>
      <trkpt lon="-3.148208" lat="53.020649"><ele>410.784241</ele><time>2021-09-01T10:46:50Z</time><extensions><speed>1.344435</speed><course>320.200592</course><hAcc>0.879371</hAcc><vAcc>0.686415</vAcc></extensions></trkpt>
      <trkpt lon="-3.148189" lat="53.020645"><ele>410.768158</ele><time>2021-09-01T10:46:51Z</time><extensions><speed>1.353229</speed><course>316.905914</course><hAcc>0.879363</hAcc><vAcc>0.686351</vAcc></extensions></trkpt>
      <trkpt lon="-3.148170" lat="53.020640"><ele>410.753754</ele><time>2021-09-01T10:46:52Z</time><extensions><speed>1.362966</speed><course>304.890350</course><hAcc>0.879354</hAcc><vAcc>0.686288</vAcc></extensions></trkpt>
      <trkpt lon="-3.148152" lat="53.020635"><ele>410.740997</ele><time>2021-09-01T10:46:53Z</time><extensions><speed>1.372280</speed><course>307.400696</course><hAcc>0.879347</hAcc><vAcc>0.686241</vAcc></extensions></trkpt>
      <trkpt lon="-3.148133" lat="53.020631"><ele>410.730042</ele><time>2021-09-01T10:46:54Z</time><extensions><speed>1.379619</speed><course>312.802460</course><hAcc>0.879346</hAcc><vAcc>0.686220</vAcc></extensions></trkpt>
      <trkpt lon="-3.148114" lat="53.020626"><ele>410.721313</ele><time>2021-09-01T10:46:55Z</time><extensions><speed>1.385285</speed><course>316.368164</course><hAcc>0.879353</hAcc><vAcc>0.686233</vAcc></extensions></trkpt>
      <trkpt lon="-3.148095" lat="53.020621"><ele>410.715057</ele><time>2021-09-01T10:46:56Z</time><extensions><speed>1.389716</speed><course>316.320160</course><hAcc>0.879371</hAcc><vAcc>0.686284</vAcc></extensions></trkpt>
      <trkpt lon="-3.148076" lat="53.020616"><ele>410.711365</ele><time>2021-09-01T10:46:57Z</time><extensions><speed>1.392826</speed><course>316.450867</course><hAcc>0.879399</hAcc><vAcc>0.686375</vAcc></extensions></trkpt>
      <trkpt lon="-3.148057" lat="53.020610"><ele>410.710388</ele><time>2021-09-01T10:46:58Z</time><extensions><speed>1.394682</speed><course>319.349792</course><hAcc>0.879439</hAcc><vAcc>0.686503</vAcc></extensions></trkpt>
      <trkpt lon="-3.148038" lat="53.020605"><ele>410.712311</ele><time>2021-09-01T10:46:59Z</time><extensions><speed>1.395350</speed><course>313.071381</course><hAcc>0.879490</hAcc><vAcc>0.686668</vAcc></extensions></trkpt>
      <trkpt lon="-3.148020" lat="53.020600"><ele>410.717102</ele><time>2021-09-01T10:47:00Z</time><extensions><speed>1.394966</speed><course>306.006348</course><hAcc>0.879552</hAcc><vAcc>0.686872</vAcc></extensions></trkpt>
      <trkpt lon="-3.148001" lat="53.020594"><ele>410.724915</ele><time>2021-09-01T10:47:01Z</time><extensions><speed>1.393932</speed><course>311.452911</course><hAcc>0.879623</hAcc><vAcc>0.687114</vAcc></extensions></trkpt>
      <trkpt lon="-3.147982" lat="53.020588"><ele>410.736572</ele><time>2021-09-01T10:47:02Z</time><extensions><speed>1.392446</speed><course>310.591675</course><hAcc>0.879701</hAcc><vAcc>0.687386</vAcc></extensions></trkpt>
      <trkpt lon="-3.147964" lat="53.020582"><ele>410.753204</ele><time>2021-09-01T10:47:03Z</time><extensions><speed>1.390370</speed><course>316.620819</course><hAcc>0.879784</hAcc><vAcc>0.687674</vAcc></extensions></trkpt>
      <trkpt lon="-3.147946" lat="53.020576"><ele>410.775787</ele><time>2021-09-01T10:47:04Z</time><extensions><speed>1.387818</speed><course>320.076630</course><hAcc>0.879868</hAcc><vAcc>0.687963</vAcc></extensions></trkpt>
      <trkpt lon="-3.147928" lat="53.020570"><ele>410.804993</ele><time>2021-09-01T10:47:05Z</time><extensions><speed>1.384792</speed><course>314.990906</course><hAcc>0.879951</hAcc><vAcc>0.688244</vAcc></extensions></trkpt>
      <trkpt lon="-3.147911" lat="53.020564"><ele>410.840820</ele><time>2021-09-01T10:47:06Z</time><extensions><speed>1.381577</speed><course>313.547699</course><hAcc>0.880032</hAcc><vAcc>0.688512</vAcc></extensions></trkpt>
      <trkpt lon="-3.147893" lat="53.020557"><ele>410.882477</ele><time>2021-09-01T10:47:07Z</time><extensions><speed>1.378810</speed><course>312.795837</course><hAcc>0.880110</hAcc><vAcc>0.688766</vAcc></extensions></trkpt>
      <trkpt lon="-3.147875" lat="53.020551"><ele>410.928223</ele><time>2021-09-01T10:47:08Z</time><extensions><speed>1.377376</speed><course>316.185669</course><hAcc>0.880185</hAcc><vAcc>0.689006</vAcc></extensions></trkpt>
      <trkpt lon="-3.147858" lat="53.020544"><ele>410.975281</ele><time>2021-09-01T10:47:09Z</time><extensions><speed>1.378014</speed><course>317.614319</course><hAcc>0.880258</hAcc><vAcc>0.689229</vAcc></extensions></trkpt>
      <trkpt lon="-3.147840" lat="53.020538"><ele>411.020355</ele><time>2021-09-01T10:47:10Z</time><extensions><speed>1.381065</speed><course>316.517609</course><hAcc>0.880332</hAcc><vAcc>0.689437</vAcc></extensions></trkpt>
      <trkpt lon="-3.147823" lat="53.020532"><ele>411.060547</ele><time>2021-09-01T10:47:11Z</time><extensions><speed>1.386806</speed><course>310.556824</course><hAcc>0.880409</hAcc><vAcc>0.689638</vAcc></extensions></trkpt>
      <trkpt lon="-3.147805" lat="53.020525"><ele>411.093811</ele><time>2021-09-01T10:47:12Z</time><extensions><speed>1.395348</speed><course>304.635742</course><hAcc>0.880497</hAcc><vAcc>0.689851</vAcc></extensions></trkpt>
      <trkpt lon="-3.147786" lat="53.020519"><ele>411.118835</ele><time>2021-09-01T10:47:13Z</time><extensions><speed>1.406472</speed><course>315.495270</course><hAcc>0.880600</hAcc><vAcc>0.690105</vAcc></extensions></trkpt>
      <trkpt lon="-3.147768" lat="53.020513"><ele>411.135254</ele><time>2021-09-01T10:47:14Z</time><extensions><speed>1.418934</speed><course>313.552460</course><hAcc>0.880726</hAcc><vAcc>0.690435</vAcc></extensions></trkpt>
      <trkpt lon="-3.147749" lat="53.020507"><ele>411.143188</ele><time>2021-09-01T10:47:15Z</time><extensions><speed>1.430832</speed><course>313.420563</course><hAcc>0.880880</hAcc><vAcc>0.690874</vAcc></extensions></trkpt>
      <trkpt lon="-3.147730" lat="53.020501"><ele>411.142944</ele><time>2021-09-01T10:47:16Z</time><extensions><speed>1.440499</speed><course>317.431976</course><hAcc>0.881067</hAcc><vAcc>0.691449</vAcc></extensions></trkpt>
      <trkpt lon="-3.147711" lat="53.020495"><ele>411.135162</ele><time>2021-09-01T10:47:17Z</time><extensions><speed>1.446321</speed><course>314.662933</course><hAcc>0.881289</hAcc><vAcc>0.692177</vAcc></extensions></trkpt>
      <trkpt lon="-3.147692" lat="53.020490"><ele>411.121155</ele><time>2021-09-01T10:47:18Z</time><extensions><speed>1.447746</speed><course>316.217957</course><hAcc>0.881544</hAcc><vAcc>0.693052</vAcc></extensions></trkpt>
      <trkpt lon="-3.147672" lat="53.020484"><ele>411.102661</ele><time>2021-09-01T10:47:19Z</time><extensions><speed>1.445476</speed><course>314.471741</course><hAcc>0.881824</hAcc><vAcc>0.694042</vAcc></extensions></trkpt>
      <trkpt lon="-3.147653" lat="53.020479"><ele>411.081604</ele><time>2021-09-01T10:47:20Z</time><extensions><speed>1.439997</speed><course>317.281403</course><hAcc>0.882122</hAcc><vAcc>0.695099</vAcc></extensions></trkpt>
      <trkpt lon="-3.147633" lat="53.020473"><ele>411.059326</ele><time>2021-09-01T10:47:21Z</time><extensions><speed>1.431075</speed><course>311.230988</course><hAcc>0.882425</hAcc><vAcc>0.696170</vAcc></extensions></trkpt>
      <trkpt lon="-3.147614" lat="53.020468"><ele>411.036652</ele><time>2021-09-01T10:47:22Z</time><extensions><speed>1.418427</speed><course>311.227600</course><hAcc>0.882721</hAcc><vAcc>0.697205</vAcc></extensions></trkpt>
      <trkpt lon="-3.147595" lat="53.020463"><ele>411.014221</ele><time>2021-09-01T10:47:23Z</time><extensions><speed>1.402158</speed><course>310.576416</course><hAcc>0.883000</hAcc><vAcc>0.698163</vAcc></extensions></trkpt>
      <trkpt lon="-3.147576" lat="53.020458"><ele>410.992493</ele><time>2021-09-01T10:47:24Z</time><extensions><speed>1.382542</speed><course>313.656311</course><hAcc>0.883250</hAcc><vAcc>0.699010</vAcc></extensions></trkpt>
      <trkpt lon="-3.147557" lat="53.020452"><ele>410.971802</ele><time>2021-09-01T10:47:25Z</time><extensions><speed>1.360395</speed><course>319.881683</course><hAcc>0.883461</hAcc><vAcc>0.699722</vAcc></extensions></trkpt>
      <trkpt lon="-3.147539" lat="53.020447"><ele>410.952332</ele><time>2021-09-01T10:47:26Z</time><extensions><speed>1.337085</speed><course>322.545044</course><hAcc>0.883626</hAcc><vAcc>0.700276</vAcc></extensions></trkpt>
      <trkpt lon="-3.147521" lat="53.020442"><ele>410.934143</ele><time>2021-09-01T10:47:27Z</time><extensions><speed>1.313862</speed><course>315.377472</course><hAcc>0.883736</hAcc><vAcc>0.700655</vAcc></extensions></trkpt>
      <trkpt lon="-3.147503" lat="53.020437"><ele>410.916992</ele><time>2021-09-01T10:47:28Z</time><extensions><speed>1.291478</speed><course>321.220673</course><hAcc>0.883787</hAcc><vAcc>0.700841</vAcc></extensions></trkpt>
      <trkpt lon="-3.147486" lat="53.020433"><ele>410.900360</ele><time>2021-09-01T10:47:29Z</time><extensions><speed>1.270707</speed><course>319.716766</course><hAcc>0.883775</hAcc><vAcc>0.700824</vAcc></extensions></trkpt>
      <trkpt lon="-3.147469" lat="53.020428"><ele>410.883698</ele><time>2021-09-01T10:47:30Z</time><extensions><speed>1.252295</speed><course>323.703217</course><hAcc>0.883697</hAcc><vAcc>0.700597</vAcc></extensions></trkpt>
      <trkpt lon="-3.147452" lat="53.020423"><ele>410.866302</ele><time>2021-09-01T10:47:31Z</time><extensions><speed>1.236514</speed><course>322.763458</course><hAcc>0.883552</hAcc><vAcc>0.700157</vAcc></extensions></trkpt>
      <trkpt lon="-3.147436" lat="53.020418"><ele>410.847290</ele><time>2021-09-01T10:47:32Z</time><extensions><speed>1.223271</speed><course>321.396271</course><hAcc>0.883343</hAcc><vAcc>0.699504</vAcc></extensions></trkpt>
      <trkpt lon="-3.147419" lat="53.020414"><ele>410.825836</ele><time>2021-09-01T10:47:33Z</time><extensions><speed>1.212570</speed><course>324.253845</course><hAcc>0.883072</hAcc><vAcc>0.698642</vAcc></extensions></trkpt>
      <trkpt lon="-3.147403" lat="53.020409"><ele>410.801300</ele><time>2021-09-01T10:47:34Z</time><extensions><speed>1.204425</speed><course>322.941711</course><hAcc>0.882747</hAcc><vAcc>0.697578</vAcc></extensions></trkpt>
      <trkpt lon="-3.147387" lat="53.020404"><ele>410.773163</ele><time>2021-09-01T10:47:35Z</time><extensions><speed>1.198730</speed><course>324.827728</course><hAcc>0.882377</hAcc><vAcc>0.696333</vAcc></extensions></trkpt>
      <trkpt lon="-3.147371" lat="53.020400"><ele>410.741516</ele><time>2021-09-01T10:47:36Z</time><extensions><speed>1.195658</speed><course>323.315277</course><hAcc>0.881974</hAcc><vAcc>0.694945</vAcc></extensions></trkpt>
      <trkpt lon="-3.147355" lat="53.020395"><ele>410.706970</ele><time>2021-09-01T10:47:37Z</time><extensions><speed>1.195729</speed><course>316.049652</course><hAcc>0.881553</hAcc><vAcc>0.693472</vAcc></extensions></trkpt>
      <trkpt lon="-3.147339" lat="53.020390"><ele>410.670502</ele><time>2021-09-01T10:47:38Z</time><extensions><speed>1.199692</speed><course>321.640442</course><hAcc>0.881133</hAcc><vAcc>0.691982</vAcc></extensions></trkpt>
      <trkpt lon="-3.147322" lat="53.020386"><ele>410.633057</ele><time>2021-09-01T10:47:39Z</time><extensions><speed>1.208350</speed><course>318.527374</course><hAcc>0.880731</hAcc><vAcc>0.690548</vAcc></extensions></trkpt>
      <trkpt lon="-3.147306" lat="53.020381"><ele>410.595581</ele><time>2021-09-01T10:47:40Z</time><extensions><speed>1.221496</speed><course>327.209106</course><hAcc>0.880365</hAcc><vAcc>0.689244</vAcc></extensions></trkpt>
      <trkpt lon="-3.147290" lat="53.020376"><ele>410.559265</ele><time>2021-09-01T10:47:41Z</time><extensions><speed>1.237682</speed><course>321.431091</course><hAcc>0.880053</hAcc><vAcc>0.688136</vAcc></extensions></trkpt>
      <trkpt lon="-3.147273" lat="53.020371"><ele>410.524963</ele><time>2021-09-01T10:47:42Z</time><extensions><speed>1.255888</speed><course>309.255585</course><hAcc>0.879808</hAcc><vAcc>0.687276</vAcc></extensions></trkpt>
      <trkpt lon="-3.147256" lat="53.020366"><ele>410.492920</ele><time>2021-09-01T10:47:43Z</time><extensions><speed>1.275898</speed><course>316.262177</course><hAcc>0.879641</hAcc><vAcc>0.686698</vAcc></extensions></trkpt>
      <trkpt lon="-3.147239" lat="53.020361"><ele>410.463348</ele><time>2021-09-01T10:47:44Z</time><extensions><speed>1.297264</speed><course>318.486328</course><hAcc>0.879557</hAcc><vAcc>0.686417</vAcc></extensions></trkpt>
      <trkpt lon="-3.147221" lat="53.020356"><ele>410.436554</ele><time>2021-09-01T10:47:45Z</time><extensions><speed>1.318899</speed><course>323.918549</course><hAcc>0.879558</hAcc><vAcc>0.686440</vAcc></extensions></trkpt>
      <trkpt lon="-3.147204" lat="53.020351"><ele>410.413055</ele><time>2021-09-01T10:47:46Z</time><extensions><speed>1.339359</speed><course>326.771637</course><hAcc>0.879643</hAcc><vAcc>0.686763</vAcc></extensions></trkpt>
      <trkpt lon="-3.147186" lat="53.020345"><ele>410.393311</ele><time>2021-09-01T10:47:47Z</time><extensions><speed>1.357521</speed><course>322.066162</course><hAcc>0.879806</hAcc><vAcc>0.687370</vAcc></extensions></trkpt>
      <trkpt lon="-3.147167" lat="53.020340"><ele>410.377625</ele><time>2021-09-01T10:47:48Z</time><extensions><speed>1.372688</speed><course>315.897980</course><hAcc>0.880039</hAcc><vAcc>0.688220</vAcc></extensions></trkpt>
      <trkpt lon="-3.147149" lat="53.020334"><ele>410.365906</ele><time>2021-09-01T10:47:49Z</time><extensions><speed>1.384273</speed><course>320.677979</course><hAcc>0.880326</hAcc><vAcc>0.689256</vAcc></extensions></trkpt>
      <trkpt lon="-3.147131" lat="53.020329"><ele>410.357605</ele><time>2021-09-01T10:47:50Z</time><extensions><speed>1.391491</speed><course>328.194458</course><hAcc>0.880653</hAcc><vAcc>0.690410</vAcc></extensions></trkpt>
      <trkpt lon="-3.147112" lat="53.020323"><ele>410.352112</ele><time>2021-09-01T10:47:51Z</time><extensions><speed>1.393221</speed><course>342.191681</course><hAcc>0.881004</hAcc><vAcc>0.691620</vAcc></extensions></trkpt>
      <trkpt lon="-3.147093" lat="53.020318"><ele>410.348877</ele><time>2021-09-01T10:47:52Z</time><extensions><speed>1.387754</speed><course>338.973602</course><hAcc>0.881366</hAcc><vAcc>0.692836</vAcc></extensions></trkpt>
      <trkpt lon="-3.147074" lat="53.020313"><ele>410.347565</ele><time>2021-09-01T10:47:53Z</time><extensions><speed>1.373295</speed><course>338.845032</course><hAcc>0.881728</hAcc><vAcc>0.694024</vAcc></extensions></trkpt>
      <trkpt lon="-3.147056" lat="53.020308"><ele>410.347687</ele><time>2021-09-01T10:47:54Z</time><extensions><speed>1.348627</speed><course>343.294373</course><hAcc>0.882081</hAcc><vAcc>0.695159</vAcc></extensions></trkpt>
      <trkpt lon="-3.147038" lat="53.020303"><ele>410.348694</ele><time>2021-09-01T10:47:55Z</time><extensions><speed>1.313412</speed><course>345.380096</course><hAcc>0.882418</hAcc><vAcc>0.696227</vAcc></extensions></trkpt>
      <trkpt lon="-3.147020" lat="53.020299"><ele>410.349915</ele><time>2021-09-01T10:47:56Z</time><extensions><speed>1.267732</speed><course>336.417389</course><hAcc>0.882735</hAcc><vAcc>0.697220</vAcc></extensions></trkpt>
      <trkpt lon="-3.147003" lat="53.020294"><ele>410.350708</ele><time>2021-09-01T10:47:57Z</time><extensions><speed>1.212164</speed><course>349.627289</course><hAcc>0.883031</hAcc><vAcc>0.698135</vAcc></extensions></trkpt>
      <trkpt lon="-3.146986" lat="53.020291"><ele>410.350342</ele><time>2021-09-01T10:47:58Z</time><extensions><speed>1.148453</speed><course>333.102356</course><hAcc>0.883304</hAcc><vAcc>0.698976</vAcc></extensions></trkpt>
      <trkpt lon="-3.146971" lat="53.020287"><ele>410.348267</ele><time>2021-09-01T10:47:59Z</time><extensions><speed>1.078801</speed><course>345.486877</course><hAcc>0.883555</hAcc><vAcc>0.699745</vAcc></extensions></trkpt>
      <trkpt lon="-3.146956" lat="53.020284"><ele>410.344330</ele><time>2021-09-01T10:48:00Z</time><extensions><speed>1.006065</speed><course>343.184906</course><hAcc>0.883786</hAcc><vAcc>0.700449</vAcc></extensions></trkpt>
      <trkpt lon="-3.146942" lat="53.020281"><ele>410.338684</ele><time>2021-09-01T10:48:01Z</time><extensions><speed>0.934161</speed><course>342.239624</course><hAcc>0.883998</hAcc><vAcc>0.701093</vAcc></extensions></trkpt>
      <trkpt lon="-3.146930" lat="53.020279"><ele>410.331573</ele><time>2021-09-01T10:48:02Z</time><extensions><speed>0.867566</speed><course>352.331055</course><hAcc>0.884195</hAcc><vAcc>0.701686</vAcc></extensions></trkpt>
      <trkpt lon="-3.146918" lat="53.020277"><ele>410.323242</ele><time>2021-09-01T10:48:03Z</time><extensions><speed>0.811002</speed><course>352.560638</course><hAcc>0.884377</hAcc><vAcc>0.702239</vAcc></extensions></trkpt>
      <trkpt lon="-3.146906" lat="53.020275"><ele>410.313934</ele><time>2021-09-01T10:48:04Z</time><extensions><speed>0.768624</speed><course>349.901215</course><hAcc>0.884548</hAcc><vAcc>0.702763</vAcc></extensions></trkpt>
      <trkpt lon="-3.146896" lat="53.020273"><ele>410.303894</ele><time>2021-09-01T10:48:05Z</time><extensions><speed>0.742921</speed><course>347.225525</course><hAcc>0.884708</hAcc><vAcc>0.703267</vAcc></extensions></trkpt>
      <trkpt lon="-3.146885" lat="53.020271"><ele>410.293427</ele><time>2021-09-01T10:48:06Z</time><extensions><speed>0.734846</speed><course>342.525452</course><hAcc>0.884860</hAcc><vAcc>0.703754</vAcc></extensions></trkpt>
      <trkpt lon="-3.146874" lat="53.020269"><ele>410.282623</ele><time>2021-09-01T10:48:07Z</time><extensions><speed>0.743948</speed><course>344.186432</course><hAcc>0.885003</hAcc><vAcc>0.704223</vAcc></extensions></trkpt>
      <trkpt lon="-3.146864" lat="53.020267"><ele>410.271545</ele><time>2021-09-01T10:48:08Z</time><extensions><speed>0.768277</speed><course>344.723938</course><hAcc>0.885138</hAcc><vAcc>0.704663</vAcc></extensions></trkpt>
      <trkpt lon="-3.146853" lat="53.020265"><ele>410.259949</ele><time>2021-09-01T10:48:09Z</time><extensions><speed>0.804587</speed><course>335.783966</course><hAcc>0.885267</hAcc><vAcc>0.705062</vAcc></extensions></trkpt>
      <trkpt lon="-3.146841" lat="53.020262"><ele>410.247650</ele><time>2021-09-01T10:48:10Z</time><extensions><speed>0.848945</speed><course>346.047455</course><hAcc>0.885391</hAcc><vAcc>0.705413</vAcc></extensions></trkpt>
      <trkpt lon="-3.146829" lat="53.020259"><ele>410.234650</ele><time>2021-09-01T10:48:12Z</time><extensions><speed>0.898465</speed><course>348.227631</course><hAcc>0.885492</hAcc><vAcc>0.705704</vAcc></extensions></trkpt>
      <trkpt lon="-3.146816" lat="53.020257"><ele>410.221191</ele><time>2021-09-01T10:48:13Z</time><extensions><speed>0.950740</speed><course>346.562134</course><hAcc>0.885571</hAcc><vAcc>0.705946</vAcc></extensions></trkpt>
      <trkpt lon="-3.146802" lat="53.020254"><ele>410.207703</ele><time>2021-09-01T10:48:14Z</time><extensions><speed>1.003730</speed><course>340.164734</course><hAcc>0.885646</hAcc><vAcc>0.706166</vAcc></extensions></trkpt>
      <trkpt lon="-3.146788" lat="53.020250"><ele>410.194580</ele><time>2021-09-01T10:48:15Z</time><extensions><speed>1.056059</speed><course>340.903290</course><hAcc>0.885717</hAcc><vAcc>0.706378</vAcc></extensions></trkpt>
      <trkpt lon="-3.146773" lat="53.020247"><ele>410.182007</ele><time>2021-09-01T10:48:16Z</time><extensions><speed>1.105910</speed><course>337.951172</course><hAcc>0.885783</hAcc><vAcc>0.706592</vAcc></extensions></trkpt>
      <trkpt lon="-3.146757" lat="53.020243"><ele>410.169861</ele><time>2021-09-01T10:48:17Z</time><extensions><speed>1.150805</speed><course>343.976532</course><hAcc>0.885842</hAcc><vAcc>0.706808</vAcc></extensions></trkpt>
      <trkpt lon="-3.146741" lat="53.020240"><ele>410.157593</ele><time>2021-09-01T10:48:18Z</time><extensions><speed>1.188719</speed><course>344.587616</course><hAcc>0.885889</hAcc><vAcc>0.707017</vAcc></extensions></trkpt>
      <trkpt lon="-3.146724" lat="53.020236"><ele>410.144318</ele><time>2021-09-01T10:48:19Z</time><extensions><speed>1.218366</speed><course>341.405151</course><hAcc>0.885921</hAcc><vAcc>0.707204</vAcc></extensions></trkpt>
      <trkpt lon="-3.146706" lat="53.020232"><ele>410.129028</ele><time>2021-09-01T10:48:20Z</time><extensions><speed>1.239091</speed><course>339.649231</course><hAcc>0.885932</hAcc><vAcc>0.707340</vAcc></extensions></trkpt>
      <trkpt lon="-3.146689" lat="53.020228"><ele>410.110809</ele><time>2021-09-01T10:48:21Z</time><extensions><speed>1.251495</speed><course>334.810822</course><hAcc>0.885917</hAcc><vAcc>0.707399</vAcc></extensions></trkpt>
      <trkpt lon="-3.146672" lat="53.020225"><ele>410.088806</ele><time>2021-09-01T10:48:22Z</time><extensions><speed>1.256875</speed><course>330.628723</course><hAcc>0.885868</hAcc><vAcc>0.707352</vAcc></extensions></trkpt>
      <trkpt lon="-3.146654" lat="53.020221"><ele>410.062561</ele><time>2021-09-01T10:48:23Z</time><extensions><speed>1.255823</speed><course>326.820862</course><hAcc>0.885781</hAcc><vAcc>0.707176</vAcc></extensions></trkpt>
      <trkpt lon="-3.146637" lat="53.020217"><ele>410.032104</ele><time>2021-09-01T10:48:24Z</time><extensions><speed>1.248350</speed><course>329.993256</course><hAcc>0.885652</hAcc><vAcc>0.706851</vAcc></extensions></trkpt>
      <trkpt lon="-3.146619" lat="53.020213"><ele>409.997803</ele><time>2021-09-01T10:48:25Z</time><extensions><speed>1.234679</speed><course>333.108307</course><hAcc>0.885479</hAcc><vAcc>0.706362</vAcc></extensions></trkpt>
      <trkpt lon="-3.146602" lat="53.020208"><ele>409.960297</ele><time>2021-09-01T10:48:25Z</time><extensions><speed>1.216328</speed><course>328.264221</course><hAcc>0.885283</hAcc><vAcc>0.705718</vAcc></extensions></trkpt>
      <trkpt lon="-3.146586" lat="53.020204"><ele>409.920288</ele><time>2021-09-01T10:48:26Z</time><extensions><speed>1.196217</speed><course>336.747131</course><hAcc>0.885068</hAcc><vAcc>0.704925</vAcc></extensions></trkpt>
      <trkpt lon="-3.146570" lat="53.020200"><ele>409.878601</ele><time>2021-09-01T10:48:27Z</time><extensions><speed>1.177766</speed><course>330.065033</course><hAcc>0.884824</hAcc><vAcc>0.704003</vAcc></extensions></trkpt>
      <trkpt lon="-3.146554" lat="53.020196"><ele>409.836151</ele><time>2021-09-01T10:48:28Z</time><extensions><speed>1.163052</speed><course>317.215851</course><hAcc>0.884563</hAcc><vAcc>0.702999</vAcc></extensions></trkpt>
      <trkpt lon="-3.146538" lat="53.020191"><ele>409.794067</ele><time>2021-09-01T10:48:29Z</time><extensions><speed>1.152601</speed><course>321.035828</course><hAcc>0.884297</hAcc><vAcc>0.701973</vAcc></extensions></trkpt>
      <trkpt lon="-3.146523" lat="53.020186"><ele>409.753815</ele><time>2021-09-01T10:48:30Z</time><extensions><speed>1.145750</speed><course>319.935577</course><hAcc>0.884038</hAcc><vAcc>0.700986</vAcc></extensions></trkpt>
      <trkpt lon="-3.146508" lat="53.020182"><ele>409.717163</ele><time>2021-09-01T10:48:31Z</time><extensions><speed>1.141403</speed><course>325.102844</course><hAcc>0.883799</hAcc><vAcc>0.700094</vAcc></extensions></trkpt>
      <trkpt lon="-3.146493" lat="53.020177"><ele>409.686310</ele><time>2021-09-01T10:48:32Z</time><extensions><speed>1.138800</speed><course>327.812073</course><hAcc>0.883591</hAcc><vAcc>0.699340</vAcc></extensions></trkpt>
      <trkpt lon="-3.146478" lat="53.020172"><ele>409.663269</ele><time>2021-09-01T10:48:33Z</time><extensions><speed>1.138140</speed><course>320.427582</course><hAcc>0.883420</hAcc><vAcc>0.698756</vAcc></extensions></trkpt>
      <trkpt lon="-3.146463" lat="53.020167"><ele>409.649536</ele><time>2021-09-01T10:48:34Z</time><extensions><speed>1.140455</speed><course>321.194977</course><hAcc>0.883292</hAcc><vAcc>0.698358</vAcc></extensions></trkpt>
      <trkpt lon="-3.146448" lat="53.020162"><ele>409.645996</ele><time>2021-09-01T10:48:35Z</time><extensions><speed>1.145967</speed><course>318.963165</course><hAcc>0.883207</hAcc><vAcc>0.698144</vAcc></extensions></trkpt>
      <trkpt lon="-3.146433" lat="53.020157"><ele>409.652924</ele><time>2021-09-01T10:48:36Z</time><extensions><speed>1.153752</speed><course>318.221771</course><hAcc>0.883164</hAcc><vAcc>0.698089</vAcc></extensions></trkpt>
      <trkpt lon="-3.146418" lat="53.020152"><ele>409.670349</ele><time>2021-09-01T10:48:37Z</time><extensions><speed>1.162579</speed><course>325.110291</course><hAcc>0.883157</hAcc><vAcc>0.698156</vAcc></extensions></trkpt>
      <trkpt lon="-3.146403" lat="53.020147"><ele>409.697754</ele><time>2021-09-01T10:48:38Z</time><extensions><speed>1.172298</speed><course>325.968475</course><hAcc>0.883180</hAcc><vAcc>0.698308</vAcc></extensions></trkpt>
      <trkpt lon="-3.146388" lat="53.020141"><ele>409.733887</ele><time>2021-09-01T10:48:39Z</time><extensions><speed>1.182939</speed><course>319.629425</course><hAcc>0.883229</hAcc><vAcc>0.698515</vAcc></extensions></trkpt>
      <trkpt lon="-3.146373" lat="53.020136"><ele>409.776917</ele><time>2021-09-01T10:48:40Z</time><extensions><speed>1.193972</speed><course>319.103638</course><hAcc>0.883297</hAcc><vAcc>0.698752</vAcc></extensions></trkpt>
      <trkpt lon="-3.146357" lat="53.020131"><ele>409.824829</ele><time>2021-09-01T10:48:41Z</time><extensions><speed>1.205219</speed><course>314.591980</course><hAcc>0.883380</hAcc><vAcc>0.699007</vAcc></extensions></trkpt>
      <trkpt lon="-3.146341" lat="53.020125"><ele>409.875183</ele><time>2021-09-01T10:48:42Z</time><extensions><speed>1.216403</speed><course>315.007294</course><hAcc>0.883475</hAcc><vAcc>0.699281</vAcc></extensions></trkpt>
      <trkpt lon="-3.146326" lat="53.020120"><ele>409.925537</ele><time>2021-09-01T10:48:43Z</time><extensions><speed>1.226925</speed><course>322.287598</course><hAcc>0.883579</hAcc><vAcc>0.699581</vAcc></extensions></trkpt>
      <trkpt lon="-3.146309" lat="53.020115"><ele>409.973785</ele><time>2021-09-01T10:48:44Z</time><extensions><speed>1.235805</speed><course>320.536743</course><hAcc>0.883689</hAcc><vAcc>0.699920</vAcc></extensions></trkpt>
      <trkpt lon="-3.146293" lat="53.020109"><ele>410.018280</ele><time>2021-09-01T10:48:45Z</time><extensions><speed>1.242146</speed><course>317.691437</course><hAcc>0.883804</hAcc><vAcc>0.700297</vAcc></extensions></trkpt>
      <trkpt lon="-3.146277" lat="53.020104"><ele>410.057648</ele><time>2021-09-01T10:48:46Z</time><extensions><speed>1.245066</speed><course>319.879181</course><hAcc>0.883919</hAcc><vAcc>0.700705</vAcc></extensions></trkpt>
      <trkpt lon="-3.146260" lat="53.020099"><ele>410.091370</ele><time>2021-09-01T10:48:47Z</time><extensions><speed>1.244254</speed><course>320.065887</course><hAcc>0.884029</hAcc><vAcc>0.701124</vAcc></extensions></trkpt>
      <trkpt lon="-3.146244" lat="53.020094"><ele>410.119385</ele><time>2021-09-01T10:48:48Z</time><extensions><speed>1.240814</speed><course>321.533569</course><hAcc>0.884129</hAcc><vAcc>0.701527</vAcc></extensions></trkpt>
      <trkpt lon="-3.146227" lat="53.020089"><ele>410.141876</ele><time>2021-09-01T10:48:49Z</time><extensions><speed>1.236035</speed><course>324.813110</course><hAcc>0.884212</hAcc><vAcc>0.701885</vAcc></extensions></trkpt>
      <trkpt lon="-3.146211" lat="53.020084"><ele>410.159119</ele><time>2021-09-01T10:48:50Z</time><extensions><speed>1.230486</speed><course>329.013580</course><hAcc>0.884274</hAcc><vAcc>0.702164</vAcc></extensions></trkpt>
      <trkpt lon="-3.146194" lat="53.020080"><ele>410.171173</ele><time>2021-09-01T10:48:51Z</time><extensions><speed>1.224690</speed><course>324.901581</course><hAcc>0.884309</hAcc><vAcc>0.702335</vAcc></extensions></trkpt>
      <trkpt lon="-3.146177" lat="53.020075"><ele>410.177856</ele><time>2021-09-01T10:48:52Z</time><extensions><speed>1.219666</speed><course>318.603180</course><hAcc>0.884314</hAcc><vAcc>0.702379</vAcc></extensions></trkpt>
      <trkpt lon="-3.146161" lat="53.020070"><ele>410.178711</ele><time>2021-09-01T10:48:53Z</time><extensions><speed>1.216196</speed><course>314.278656</course><hAcc>0.884288</hAcc><vAcc>0.702285</vAcc></extensions></trkpt>
      <trkpt lon="-3.146144" lat="53.020066"><ele>410.173676</ele><time>2021-09-01T10:48:54Z</time><extensions><speed>1.214249</speed><course>319.463074</course><hAcc>0.884234</hAcc><vAcc>0.702059</vAcc></extensions></trkpt>
      <trkpt lon="-3.146128" lat="53.020062"><ele>410.163208</ele><time>2021-09-01T10:48:55Z</time><extensions><speed>1.213624</speed><course>323.368469</course><hAcc>0.884153</hAcc><vAcc>0.701720</vAcc></extensions></trkpt>
      <trkpt lon="-3.146111" lat="53.020057"><ele>410.147705</ele><time>2021-09-01T10:48:56Z</time><extensions><speed>1.214216</speed><course>324.877350</course><hAcc>0.884052</hAcc><vAcc>0.701298</vAcc></extensions></trkpt>
      <trkpt lon="-3.146095" lat="53.020053"><ele>410.126953</ele><time>2021-09-01T10:48:57Z</time><extensions><speed>1.216032</speed><course>328.239716</course><hAcc>0.883936</hAcc><vAcc>0.700829</vAcc></extensions></trkpt>
      <trkpt lon="-3.146078" lat="53.020049"><ele>410.100739</ele><time>2021-09-01T10:48:58Z</time><extensions><speed>1.219150</speed><course>325.680328</course><hAcc>0.883814</hAcc><vAcc>0.700352</vAcc></extensions></trkpt>
      <trkpt lon="-3.146061" lat="53.020044"><ele>410.068817</ele><time>2021-09-01T10:48:59Z</time><extensions><speed>1.223274</speed><course>329.865967</course><hAcc>0.883689</hAcc><vAcc>0.699901</vAcc></extensions></trkpt>
      <trkpt lon="-3.146045" lat="53.020040"><ele>410.031433</ele><time>2021-09-01T10:49:00Z</time><extensions><speed>1.227836</speed><course>328.590454</course><hAcc>0.883569</hAcc><vAcc>0.699497</vAcc></extensions></trkpt>
      <trkpt lon="-3.146028" lat="53.020035"><ele>409.989227</ele><time>2021-09-01T10:49:01Z</time><extensions><speed>1.232249</speed><course>328.102966</course><hAcc>0.883456</hAcc><vAcc>0.699146</vAcc></extensions></trkpt>
      <trkpt lon="-3.146011" lat="53.020031"><ele>409.943329</ele><time>2021-09-01T10:49:02Z</time><extensions><speed>1.235632</speed><course>314.592194</course><hAcc>0.883352</hAcc><vAcc>0.698842</vAcc></extensions></trkpt>
      <trkpt lon="-3.145994" lat="53.020026"><ele>409.895111</ele><time>2021-09-01T10:49:03Z</time><extensions><speed>1.236536</speed><course>318.557648</course><hAcc>0.883257</hAcc><vAcc>0.698573</vAcc></extensions></trkpt>
      <trkpt lon="-3.145978" lat="53.020021"><ele>409.846130</ele><time>2021-09-01T10:49:04Z</time><extensions><speed>1.233985</speed><course>323.922150</course><hAcc>0.883170</hAcc><vAcc>0.698326</vAcc></extensions></trkpt>
      <trkpt lon="-3.145961" lat="53.020016"><ele>409.797913</ele><time>2021-09-01T10:49:05Z</time><extensions><speed>1.227672</speed><course>321.145691</course><hAcc>0.883092</hAcc><vAcc>0.698094</vAcc></extensions></trkpt>
      <trkpt lon="-3.145945" lat="53.020011"><ele>409.752167</ele><time>2021-09-01T10:49:06Z</time><extensions><speed>1.217650</speed><course>322.786774</course><hAcc>0.883021</hAcc><vAcc>0.697874</vAcc></extensions></trkpt>
      <trkpt lon="-3.145929" lat="53.020006"><ele>409.710510</ele><time>2021-09-01T10:49:07Z</time><extensions><speed>1.205464</speed><course>326.716736</course><hAcc>0.882958</hAcc><vAcc>0.697667</vAcc></extensions></trkpt>
      <trkpt lon="-3.145914" lat="53.020001"><ele>409.674500</ele><time>2021-09-01T10:49:08Z</time><extensions><speed>1.193170</speed><course>329.036499</course><hAcc>0.882902</hAcc><vAcc>0.697479</vAcc></extensions></trkpt>
      <trkpt lon="-3.145899" lat="53.019995"><ele>409.645599</ele><time>2021-09-01T10:49:09Z</time><extensions><speed>1.181994</speed><course>334.350830</course><hAcc>0.882854</hAcc><vAcc>0.697314</vAcc></extensions></trkpt>
      <trkpt lon="-3.145884" lat="53.019990"><ele>409.624664</ele><time>2021-09-01T10:49:10Z</time><extensions><speed>1.172879</speed><course>328.154053</course><hAcc>0.882814</hAcc><vAcc>0.697174</vAcc></extensions></trkpt>
      <trkpt lon="-3.145869" lat="53.019984"><ele>409.611816</ele><time>2021-09-01T10:49:11Z</time><extensions><speed>1.166524</speed><course>334.753510</course><hAcc>0.882784</hAcc><vAcc>0.697064</vAcc></extensions></trkpt>
      <trkpt lon="-3.145855" lat="53.019978"><ele>409.606476</ele><time>2021-09-01T10:49:12Z</time><extensions><speed>1.163277</speed><course>331.588837</course><hAcc>0.882765</hAcc><vAcc>0.696989</vAcc></extensions></trkpt>
      <trkpt lon="-3.145840" lat="53.019972"><ele>409.607605</ele><time>2021-09-01T10:49:13Z</time><extensions><speed>1.163303</speed><course>334.240753</course><hAcc>0.882757</hAcc><vAcc>0.696957</vAcc></extensions></trkpt>
      <trkpt lon="-3.145826" lat="53.019967"><ele>409.614166</ele><time>2021-09-01T10:49:14Z</time><extensions><speed>1.166590</speed><course>338.277435</course><hAcc>0.882761</hAcc><vAcc>0.696968</vAcc></extensions></trkpt>
      <trkpt lon="-3.145811" lat="53.019961"><ele>409.624969</ele><time>2021-09-01T10:49:15Z</time><extensions><speed>1.173064</speed><course>328.841278</course><hAcc>0.882778</hAcc><vAcc>0.697019</vAcc></extensions></trkpt>
      <trkpt lon="-3.145797" lat="53.019955"><ele>409.639252</ele><time>2021-09-01T10:49:16Z</time><extensions><speed>1.182552</speed><course>323.726990</course><hAcc>0.882807</hAcc><vAcc>0.697111</vAcc></extensions></trkpt>
      <trkpt lon="-3.145782" lat="53.019949"><ele>409.656219</ele><time>2021-09-01T10:49:17Z</time><extensions><speed>1.194898</speed><course>317.846680</course><hAcc>0.882849</hAcc><vAcc>0.697246</vAcc></extensions></trkpt>
      <trkpt lon="-3.145767" lat="53.019943"><ele>409.674866</ele><time>2021-09-01T10:49:18Z</time><extensions><speed>1.209781</speed><course>319.877411</course><hAcc>0.882902</hAcc><vAcc>0.697425</vAcc></extensions></trkpt>
      <trkpt lon="-3.145752" lat="53.019937"><ele>409.693878</ele><time>2021-09-01T10:49:19Z</time><extensions><speed>1.226808</speed><course>318.901947</course><hAcc>0.882966</hAcc><vAcc>0.697646</vAcc></extensions></trkpt>
      <trkpt lon="-3.145736" lat="53.019931"><ele>409.711914</ele><time>2021-09-01T10:49:20Z</time><extensions><speed>1.245337</speed><course>320.825470</course><hAcc>0.883040</hAcc><vAcc>0.697901</vAcc></extensions></trkpt>
      <trkpt lon="-3.145720" lat="53.019925"><ele>409.727692</ele><time>2021-09-01T10:49:21Z</time><extensions><speed>1.264418</speed><course>331.940704</course><hAcc>0.883121</hAcc><vAcc>0.698180</vAcc></extensions></trkpt>
      <trkpt lon="-3.145704" lat="53.019919"><ele>409.740387</ele><time>2021-09-01T10:49:22Z</time><extensions><speed>1.283321</speed><course>329.732300</course><hAcc>0.883209</hAcc><vAcc>0.698473</vAcc></extensions></trkpt>
      <trkpt lon="-3.145687" lat="53.019914"><ele>409.749359</ele><time>2021-09-01T10:49:23Z</time><extensions><speed>1.301655</speed><course>330.480469</course><hAcc>0.883301</hAcc><vAcc>0.698772</vAcc></extensions></trkpt>
      <trkpt lon="-3.145670" lat="53.019908"><ele>409.754120</ele><time>2021-09-01T10:49:24Z</time><extensions><speed>1.318992</speed><course>327.453430</course><hAcc>0.883397</hAcc><vAcc>0.699073</vAcc></extensions></trkpt>
      <trkpt lon="-3.145653" lat="53.019902"><ele>409.754120</ele><time>2021-09-01T10:49:25Z</time><extensions><speed>1.334990</speed><course>332.608093</course><hAcc>0.883495</hAcc><vAcc>0.699375</vAcc></extensions></trkpt>
      <trkpt lon="-3.145635" lat="53.019896"><ele>409.748993</ele><time>2021-09-01T10:49:26Z</time><extensions><speed>1.349477</speed><course>330.647522</course><hAcc>0.883596</hAcc><vAcc>0.699682</vAcc></extensions></trkpt>
      <trkpt lon="-3.145617" lat="53.019891"><ele>409.738586</ele><time>2021-09-01T10:49:27Z</time><extensions><speed>1.361719</speed><course>325.179230</course><hAcc>0.883698</hAcc><vAcc>0.699999</vAcc></extensions></trkpt>
      <trkpt lon="-3.145599" lat="53.019885"><ele>409.723175</ele><time>2021-09-01T10:49:28Z</time><extensions><speed>1.371011</speed><course>323.492767</course><hAcc>0.883801</hAcc><vAcc>0.700330</vAcc></extensions></trkpt>
      <trkpt lon="-3.145581" lat="53.019879"><ele>409.702911</ele><time>2021-09-01T10:49:29Z</time><extensions><speed>1.377124</speed><course>319.068512</course><hAcc>0.883903</hAcc><vAcc>0.700673</vAcc></extensions></trkpt>
      <trkpt lon="-3.145563" lat="53.019874"><ele>409.677948</ele><time>2021-09-01T10:49:30Z</time><extensions><speed>1.379977</speed><course>318.607483</course><hAcc>0.884003</hAcc><vAcc>0.701019</vAcc></extensions></trkpt>
      <trkpt lon="-3.145544" lat="53.019868"><ele>409.648865</ele><time>2021-09-01T10:49:31Z</time><extensions><speed>1.379642</speed><course>331.980591</course><hAcc>0.884098</hAcc><vAcc>0.701357</vAcc></extensions></trkpt>
      <trkpt lon="-3.145526" lat="53.019863"><ele>409.616669</ele><time>2021-09-01T10:49:32Z</time><extensions><speed>1.375944</speed><course>339.684753</course><hAcc>0.884186</hAcc><vAcc>0.701673</vAcc></extensions></trkpt>
      <trkpt lon="-3.145508" lat="53.019857"><ele>409.582489</ele><time>2021-09-01T10:49:33Z</time><extensions><speed>1.369502</speed><course>332.990814</course><hAcc>0.884265</hAcc><vAcc>0.701952</vAcc></extensions></trkpt>
      <trkpt lon="-3.145489" lat="53.019852"><ele>409.547638</ele><time>2021-09-01T10:49:34Z</time><extensions><speed>1.361909</speed><course>322.191711</course><hAcc>0.884333</hAcc><vAcc>0.702184</vAcc></extensions></trkpt>
      <trkpt lon="-3.145471" lat="53.019847"><ele>409.513641</ele><time>2021-09-01T10:49:35Z</time><extensions><speed>1.354413</speed><course>322.481537</course><hAcc>0.884390</hAcc><vAcc>0.702364</vAcc></extensions></trkpt>
      <trkpt lon="-3.145453" lat="53.019841"><ele>409.482239</ele><time>2021-09-01T10:49:36Z</time><extensions><speed>1.347653</speed><course>324.494202</course><hAcc>0.884436</hAcc><vAcc>0.702494</vAcc></extensions></trkpt>
      <trkpt lon="-3.145435" lat="53.019836"><ele>409.454834</ele><time>2021-09-01T10:49:37Z</time><extensions><speed>1.341269</speed><course>326.900543</course><hAcc>0.884471</hAcc><vAcc>0.702579</vAcc></extensions></trkpt>
      <trkpt lon="-3.145417" lat="53.019830"><ele>409.432587</ele><time>2021-09-01T10:49:38Z</time><extensions><speed>1.334451</speed><course>327.108612</course><hAcc>0.884497</hAcc><vAcc>0.702631</vAcc></extensions></trkpt>
      <trkpt lon="-3.145400" lat="53.019825"><ele>409.416412</ele><time>2021-09-01T10:49:39Z</time><extensions><speed>1.327112</speed><course>326.961395</course><hAcc>0.884517</hAcc><vAcc>0.702661</vAcc></extensions></trkpt>
      <trkpt lon="-3.145382" lat="53.019820"><ele>409.407074</ele><time>2021-09-01T10:49:40Z</time><extensions><speed>1.320105</speed><course>328.725586</course><hAcc>0.884532</hAcc><vAcc>0.702679</vAcc></extensions></trkpt>
      <trkpt lon="-3.145365" lat="53.019814"><ele>409.404968</ele><time>2021-09-01T10:49:41Z</time><extensions><speed>1.314401</speed><course>324.538879</course><hAcc>0.884546</hAcc><vAcc>0.702693</vAcc></extensions></trkpt>
      <trkpt lon="-3.145347" lat="53.019809"><ele>409.409912</ele><time>2021-09-01T10:49:42Z</time><extensions><speed>1.310410</speed><course>322.792755</course><hAcc>0.884562</hAcc><vAcc>0.702714</vAcc></extensions></trkpt>
      <trkpt lon="-3.145330" lat="53.019804"><ele>409.421448</ele><time>2021-09-01T10:49:43Z</time><extensions><speed>1.308273</speed><course>321.878906</course><hAcc>0.884581</hAcc><vAcc>0.702754</vAcc></extensions></trkpt>
      <trkpt lon="-3.145312" lat="53.019798"><ele>409.439636</ele><time>2021-09-01T10:49:44Z</time><extensions><speed>1.308375</speed><course>332.119232</course><hAcc>0.884605</hAcc><vAcc>0.702819</vAcc></extensions></trkpt>
      <trkpt lon="-3.145295" lat="53.019793"><ele>409.464539</ele><time>2021-09-01T10:49:45Z</time><extensions><speed>1.311404</speed><course>333.921204</course><hAcc>0.884636</hAcc><vAcc>0.702914</vAcc></extensions></trkpt>
      <trkpt lon="-3.145277" lat="53.019788"><ele>409.495972</ele><time>2021-09-01T10:49:46Z</time><extensions><speed>1.317111</speed><course>333.199188</course><hAcc>0.884673</hAcc><vAcc>0.703040</vAcc></extensions></trkpt>
      <trkpt lon="-3.145260" lat="53.019782"><ele>409.533600</ele><time>2021-09-01T10:49:47Z</time><extensions><speed>1.323673</speed><course>332.370575</course><hAcc>0.884716</hAcc><vAcc>0.703193</vAcc></extensions></trkpt>
      <trkpt lon="-3.145242" lat="53.019777"><ele>409.577301</ele><time>2021-09-01T10:49:48Z</time><extensions><speed>1.329239</speed><course>324.975555</course><hAcc>0.884763</hAcc><vAcc>0.703365</vAcc></extensions></trkpt>
      <trkpt lon="-3.145224" lat="53.019772"><ele>409.627045</ele><time>2021-09-01T10:49:49Z</time><extensions><speed>1.332875</speed><course>335.518433</course><hAcc>0.884811</hAcc><vAcc>0.703550</vAcc></extensions></trkpt>
      <trkpt lon="-3.145207" lat="53.019766"><ele>409.682709</ele><time>2021-09-01T10:49:50Z</time><extensions><speed>1.334310</speed><course>325.564209</course><hAcc>0.884858</hAcc><vAcc>0.703737</vAcc></extensions></trkpt>
      <trkpt lon="-3.145189" lat="53.019761"><ele>409.744049</ele><time>2021-09-01T10:49:51Z</time><extensions><speed>1.334087</speed><course>328.563263</course><hAcc>0.884902</hAcc><vAcc>0.703916</vAcc></extensions></trkpt>
      <trkpt lon="-3.145171" lat="53.019756"><ele>409.810516</ele><time>2021-09-01T10:49:52Z</time><extensions><speed>1.333270</speed><course>326.994080</course><hAcc>0.884938</hAcc><vAcc>0.704070</vAcc></extensions></trkpt>
      <trkpt lon="-3.145153" lat="53.019750"><ele>409.881134</ele><time>2021-09-01T10:49:53Z</time><extensions><speed>1.332367</speed><course>318.473267</course><hAcc>0.884964</hAcc><vAcc>0.704187</vAcc></extensions></trkpt>
      <trkpt lon="-3.145135" lat="53.019745"><ele>409.954651</ele><time>2021-09-01T10:49:54Z</time><extensions><speed>1.331326</speed><course>311.042542</course><hAcc>0.884978</hAcc><vAcc>0.704253</vAcc></extensions></trkpt>
      <trkpt lon="-3.145118" lat="53.019740"><ele>410.029816</ele><time>2021-09-01T10:49:55Z</time><extensions><speed>1.330190</speed><course>305.538330</course><hAcc>0.884977</hAcc><vAcc>0.704261</vAcc></extensions></trkpt>
      <trkpt lon="-3.145100" lat="53.019735"><ele>410.105255</ele><time>2021-09-01T10:49:56Z</time><extensions><speed>1.328684</speed><course>315.153778</course><hAcc>0.884961</hAcc><vAcc>0.704205</vAcc></extensions></trkpt>
      <trkpt lon="-3.145082" lat="53.019729"><ele>410.179504</ele><time>2021-09-01T10:49:57Z</time><extensions><speed>1.326749</speed><course>316.503418</course><hAcc>0.884929</hAcc><vAcc>0.704088</vAcc></extensions></trkpt>
      <trkpt lon="-3.145064" lat="53.019724"><ele>410.251343</ele><time>2021-09-01T10:49:58Z</time><extensions><speed>1.324712</speed><course>335.833191</course><hAcc>0.884882</hAcc><vAcc>0.703913</vAcc></extensions></trkpt>
      <trkpt lon="-3.145047" lat="53.019719"><ele>410.319611</ele><time>2021-09-01T10:49:59Z</time><extensions><speed>1.322768</speed><course>327.010254</course><hAcc>0.884822</hAcc><vAcc>0.703690</vAcc></extensions></trkpt>
      <trkpt lon="-3.145029" lat="53.019714"><ele>410.383423</ele><time>2021-09-01T10:50:00Z</time><extensions><speed>1.321293</speed><course>325.252136</course><hAcc>0.884750</hAcc><vAcc>0.703431</vAcc></extensions></trkpt>
      <trkpt lon="-3.145011" lat="53.019708"><ele>410.442169</ele><time>2021-09-01T10:50:01Z</time><extensions><speed>1.320454</speed><course>322.968475</course><hAcc>0.884668</hAcc><vAcc>0.703147</vAcc></extensions></trkpt>
      <trkpt lon="-3.144994" lat="53.019703"><ele>410.495422</ele><time>2021-09-01T10:50:02Z</time><extensions><speed>1.320651</speed><course>323.501465</course><hAcc>0.884577</hAcc><vAcc>0.702850</vAcc></extensions></trkpt>
      <trkpt lon="-3.144976" lat="53.019697"><ele>410.542847</ele><time>2021-09-01T10:50:03Z</time><extensions><speed>1.322888</speed><course>321.425781</course><hAcc>0.884479</hAcc><vAcc>0.702545</vAcc></extensions></trkpt>
      <trkpt lon="-3.144959" lat="53.019692"><ele>410.584167</ele><time>2021-09-01T10:50:04Z</time><extensions><speed>1.327251</speed><course>320.251373</course><hAcc>0.884374</hAcc><vAcc>0.702231</vAcc></extensions></trkpt>
      <trkpt lon="-3.144941" lat="53.019686"><ele>410.619446</ele><time>2021-09-01T10:50:05Z</time><extensions><speed>1.333080</speed><course>324.252075</course><hAcc>0.884263</hAcc><vAcc>0.701901</vAcc></extensions></trkpt>
      <trkpt lon="-3.144923" lat="53.019681"><ele>410.648895</ele><time>2021-09-01T10:50:06Z</time><extensions><speed>1.339672</speed><course>324.152374</course><hAcc>0.884147</hAcc><vAcc>0.701544</vAcc></extensions></trkpt>
      <trkpt lon="-3.144906" lat="53.019676"><ele>410.672882</ele><time>2021-09-01T10:50:07Z</time><extensions><speed>1.346294</speed><course>325.481750</course><hAcc>0.884026</hAcc><vAcc>0.701159</vAcc></extensions></trkpt>
      <trkpt lon="-3.144888" lat="53.019670"><ele>410.691864</ele><time>2021-09-01T10:50:08Z</time><extensions><speed>1.352628</speed><course>319.205566</course><hAcc>0.883900</hAcc><vAcc>0.700748</vAcc></extensions></trkpt>
      <trkpt lon="-3.144870" lat="53.019665"><ele>410.706451</ele><time>2021-09-01T10:50:09Z</time><extensions><speed>1.358083</speed><course>318.376190</course><hAcc>0.883769</hAcc><vAcc>0.700319</vAcc></extensions></trkpt>
      <trkpt lon="-3.144851" lat="53.019659"><ele>410.717072</ele><time>2021-09-01T10:50:10Z</time><extensions><speed>1.362118</speed><course>314.977020</course><hAcc>0.883636</hAcc><vAcc>0.699880</vAcc></extensions></trkpt>
      <trkpt lon="-3.144833" lat="53.019654"><ele>410.724335</ele><time>2021-09-01T10:50:11Z</time><extensions><speed>1.364284</speed><course>311.302399</course><hAcc>0.883498</hAcc><vAcc>0.699436</vAcc></extensions></trkpt>
      <trkpt lon="-3.144815" lat="53.019648"><ele>410.728943</ele><time>2021-09-01T10:50:12Z</time><extensions><speed>1.363996</speed><course>310.834198</course><hAcc>0.883357</hAcc><vAcc>0.698986</vAcc></extensions></trkpt>
      <trkpt lon="-3.144797" lat="53.019643"><ele>410.731873</ele><time>2021-09-01T10:50:13Z</time><extensions><speed>1.360957</speed><course>309.925598</course><hAcc>0.883210</hAcc><vAcc>0.698520</vAcc></extensions></trkpt>
      <trkpt lon="-3.144778" lat="53.019638"><ele>410.734100</ele><time>2021-09-01T10:50:14Z</time><extensions><speed>1.355568</speed><course>306.104523</course><hAcc>0.883055</hAcc><vAcc>0.698027</vAcc></extensions></trkpt>
      <trkpt lon="-3.144760" lat="53.019632"><ele>410.736542</ele><time>2021-09-01T10:50:15Z</time><extensions><speed>1.348560</speed><course>306.130798</course><hAcc>0.882888</hAcc><vAcc>0.697496</vAcc></extensions></trkpt>
      <trkpt lon="-3.144742" lat="53.019627"><ele>410.740356</ele><time>2021-09-01T10:50:16Z</time><extensions><speed>1.340411</speed><course>309.163177</course><hAcc>0.882703</hAcc><vAcc>0.696914</vAcc></extensions></trkpt>
      <trkpt lon="-3.144725" lat="53.019622"><ele>410.746521</ele><time>2021-09-01T10:50:18Z</time><extensions><speed>1.331354</speed><course>311.638824</course><hAcc>0.882474</hAcc><vAcc>0.696248</vAcc></extensions></trkpt>
      <trkpt lon="-3.144707" lat="53.019616"><ele>410.755707</ele><time>2021-09-01T10:50:19Z</time><extensions><speed>1.321565</speed><course>306.319550</course><hAcc>0.882189</hAcc><vAcc>0.695477</vAcc></extensions></trkpt>
      <trkpt lon="-3.144690" lat="53.019611"><ele>410.768127</ele><time>2021-09-01T10:50:20Z</time><extensions><speed>1.311645</speed><course>309.448608</course><hAcc>0.881852</hAcc><vAcc>0.694579</vAcc></extensions></trkpt>
      <trkpt lon="-3.144673" lat="53.019605"><ele>410.783508</ele><time>2021-09-01T10:50:21Z</time><extensions><speed>1.302507</speed><course>307.055084</course><hAcc>0.881445</hAcc><vAcc>0.693510</vAcc></extensions></trkpt>
      <trkpt lon="-3.144656" lat="53.019599"><ele>410.801270</ele><time>2021-09-01T10:50:22Z</time><extensions><speed>1.294823</speed><course>309.609528</course><hAcc>0.880948</hAcc><vAcc>0.692207</vAcc></extensions></trkpt>
      <trkpt lon="-3.144639" lat="53.019594"><ele>410.820770</ele><time>2021-09-01T10:50:23Z</time><extensions><speed>1.289180</speed><course>304.747925</course><hAcc>0.880340</hAcc><vAcc>0.690592</vAcc></extensions></trkpt>
      <trkpt lon="-3.144622" lat="53.019588"><ele>410.841553</ele><time>2021-09-01T10:50:23Z</time><extensions><speed>1.286697</speed><course>298.413086</course><hAcc>0.879621</hAcc><vAcc>0.688600</vAcc></extensions></trkpt>
      <trkpt lon="-3.144606" lat="53.019582"><ele>410.863708</ele><time>2021-09-01T10:50:24Z</time><extensions><speed>1.287982</speed><course>304.495026</course><hAcc>0.878773</hAcc><vAcc>0.686143</vAcc></extensions></trkpt>
      <trkpt lon="-3.144589" lat="53.019576"><ele>410.887390</ele><time>2021-09-01T10:50:26Z</time><extensions><speed>1.292726</speed><course>308.805939</course><hAcc>0.877750</hAcc><vAcc>0.683128</vAcc></extensions></trkpt>
      <trkpt lon="-3.144573" lat="53.019570"><ele>410.912720</ele><time>2021-09-01T10:50:27Z</time><extensions><speed>1.300093</speed><course>311.789917</course><hAcc>0.876551</hAcc><vAcc>0.679520</vAcc></extensions></trkpt>
      <trkpt lon="-3.144557" lat="53.019564"><ele>410.939880</ele><time>2021-09-01T10:50:27Z</time><extensions><speed>1.308766</speed><course>310.886353</course><hAcc>0.875222</hAcc><vAcc>0.675356</vAcc></extensions></trkpt>
      <trkpt lon="-3.144540" lat="53.019557"><ele>410.968781</ele><time>2021-09-01T10:50:28Z</time><extensions><speed>1.318065</speed><course>314.533539</course><hAcc>0.873780</hAcc><vAcc>0.670693</vAcc></extensions></trkpt>
      <trkpt lon="-3.144524" lat="53.019551"><ele>410.998901</ele><time>2021-09-01T10:50:29Z</time><extensions><speed>1.328148</speed><course>315.680542</course><hAcc>0.872240</hAcc><vAcc>0.665642</vAcc></extensions></trkpt>
      <trkpt lon="-3.144507" lat="53.019544"><ele>411.029602</ele><time>2021-09-01T10:50:30Z</time><extensions><speed>1.338999</speed><course>318.090881</course><hAcc>0.870640</hAcc><vAcc>0.660348</vAcc></extensions></trkpt>
      <trkpt lon="-3.144491" lat="53.019537"><ele>411.060303</ele><time>2021-09-01T10:50:31Z</time><extensions><speed>1.349933</speed><course>322.434174</course><hAcc>0.869022</hAcc><vAcc>0.654951</vAcc></extensions></trkpt>
      <trkpt lon="-3.144474" lat="53.019530"><ele>411.090302</ele><time>2021-09-01T10:50:32Z</time><extensions><speed>1.360166</speed><course>326.481506</course><hAcc>0.867429</hAcc><vAcc>0.649552</vAcc></extensions></trkpt>
      <trkpt lon="-3.144457" lat="53.019523"><ele>411.118713</ele><time>2021-09-01T10:50:33Z</time><extensions><speed>1.369162</speed><course>309.522247</course><hAcc>0.865899</hAcc><vAcc>0.644204</vAcc></extensions></trkpt>
      <trkpt lon="-3.144440" lat="53.019516"><ele>411.144409</ele><time>2021-09-01T10:50:34Z</time><extensions><speed>1.376612</speed><course>317.105560</course><hAcc>0.864468</hAcc><vAcc>0.638900</vAcc></extensions></trkpt>
      <trkpt lon="-3.144423" lat="53.019509"><ele>411.166565</ele><time>2021-09-01T10:50:35Z</time><extensions><speed>1.382119</speed><course>325.631348</course><hAcc>0.863173</hAcc><vAcc>0.633589</vAcc></extensions></trkpt>
      <trkpt lon="-3.144406" lat="53.019502"><ele>411.184784</ele><time>2021-09-01T10:50:36Z</time><extensions><speed>1.385611</speed><course>323.961853</course><hAcc>0.862065</hAcc><vAcc>0.628203</vAcc></extensions></trkpt>
      <trkpt lon="-3.144389" lat="53.019496"><ele>411.199097</ele><time>2021-09-01T10:50:37Z</time><extensions><speed>1.387903</speed><course>321.394775</course><hAcc>0.861205</hAcc><vAcc>0.622684</vAcc></extensions></trkpt>
      <trkpt lon="-3.144372" lat="53.019489"><ele>411.209900</ele><time>2021-09-01T10:50:38Z</time><extensions><speed>1.389962</speed><course>321.108948</course><hAcc>0.860672</hAcc><vAcc>0.617001</vAcc></extensions></trkpt>
      <trkpt lon="-3.144354" lat="53.019482"><ele>411.217957</ele><time>2021-09-01T10:50:39Z</time><extensions><speed>1.392347</speed><course>321.170013</course><hAcc>0.860551</hAcc><vAcc>0.611180</vAcc></extensions></trkpt>
      <trkpt lon="-3.144336" lat="53.019476"><ele>411.223724</ele><time>2021-09-01T10:50:40Z</time><extensions><speed>1.395523</speed><course>306.176178</course><hAcc>0.860927</hAcc><vAcc>0.605312</vAcc></extensions></trkpt>
      <trkpt lon="-3.144318" lat="53.019469"><ele>411.227173</ele><time>2021-09-01T10:50:41Z</time><extensions><speed>1.399626</speed><course>315.376495</course><hAcc>0.861861</hAcc><vAcc>0.599559</vAcc></extensions></trkpt>
      <trkpt lon="-3.144300" lat="53.019463"><ele>411.229034</ele><time>2021-09-01T10:50:42Z</time><extensions><speed>1.404573</speed><course>318.757812</course><hAcc>0.863355</hAcc><vAcc>0.594110</vAcc></extensions></trkpt>
      <trkpt lon="-3.144282" lat="53.019457"><ele>411.231079</ele><time>2021-09-01T10:50:43Z</time><extensions><speed>1.410367</speed><course>302.990356</course><hAcc>0.865322</hAcc><vAcc>0.589127</vAcc></extensions></trkpt>
      <trkpt lon="-3.144263" lat="53.019451"><ele>411.235107</ele><time>2021-09-01T10:50:44Z</time><extensions><speed>1.416815</speed><course>313.317535</course><hAcc>0.867595</hAcc><vAcc>0.584700</vAcc></extensions></trkpt>
      <trkpt lon="-3.144245" lat="53.019445"><ele>411.242645</ele><time>2021-09-01T10:50:45Z</time><extensions><speed>1.423541</speed><course>312.441528</course><hAcc>0.869966</hAcc><vAcc>0.580834</vAcc></extensions></trkpt>
      <trkpt lon="-3.144226" lat="53.019439"><ele>411.254730</ele><time>2021-09-01T10:50:46Z</time><extensions><speed>1.429842</speed><course>316.780334</course><hAcc>0.872237</hAcc><vAcc>0.577480</vAcc></extensions></trkpt>
      <trkpt lon="-3.144206" lat="53.019434"><ele>411.271729</ele><time>2021-09-01T10:50:47Z</time><extensions><speed>1.434689</speed><course>316.095612</course><hAcc>0.874254</hAcc><vAcc>0.574567</vAcc></extensions></trkpt>
      <trkpt lon="-3.144187" lat="53.019428"><ele>411.293579</ele><time>2021-09-01T10:50:48Z</time><extensions><speed>1.437830</speed><course>314.234863</course><hAcc>0.875927</hAcc><vAcc>0.572036</vAcc></extensions></trkpt>
      <trkpt lon="-3.144167" lat="53.019423"><ele>411.320526</ele><time>2021-09-01T10:50:49Z</time><extensions><speed>1.439773</speed><course>308.545959</course><hAcc>0.877217</hAcc><vAcc>0.569860</vAcc></extensions></trkpt>
      <trkpt lon="-3.144148" lat="53.019417"><ele>411.352783</ele><time>2021-09-01T10:50:50Z</time><extensions><speed>1.441133</speed><course>317.115723</course><hAcc>0.878133</hAcc><vAcc>0.568051</vAcc></extensions></trkpt>
      <trkpt lon="-3.144128" lat="53.019412"><ele>411.390503</ele><time>2021-09-01T10:50:51Z</time><extensions><speed>1.442543</speed><course>324.999634</course><hAcc>0.878712</hAcc><vAcc>0.566640</vAcc></extensions></trkpt>
      <trkpt lon="-3.144109" lat="53.019407"><ele>411.433838</ele><time>2021-09-01T10:50:52Z</time><extensions><speed>1.444195</speed><course>317.924194</course><hAcc>0.879004</hAcc><vAcc>0.565666</vAcc></extensions></trkpt>
      <trkpt lon="-3.144089" lat="53.019401"><ele>411.482178</ele><time>2021-09-01T10:50:53Z</time><extensions><speed>1.446199</speed><course>315.987152</course><hAcc>0.879062</hAcc><vAcc>0.565166</vAcc></extensions></trkpt>
      <trkpt lon="-3.144070" lat="53.019396"><ele>411.534180</ele><time>2021-09-01T10:50:54Z</time><extensions><speed>1.448520</speed><course>314.734009</course><hAcc>0.878937</hAcc><vAcc>0.565185</vAcc></extensions></trkpt>
      <trkpt lon="-3.144051" lat="53.019390"><ele>411.588165</ele><time>2021-09-01T10:50:55Z</time><extensions><speed>1.450290</speed><course>317.632782</course><hAcc>0.878661</hAcc><vAcc>0.565753</vAcc></extensions></trkpt>
      <trkpt lon="-3.144031" lat="53.019384"><ele>411.642792</ele><time>2021-09-01T10:50:56Z</time><extensions><speed>1.450260</speed><course>301.352448</course><hAcc>0.878264</hAcc><vAcc>0.566859</vAcc></extensions></trkpt>
      <trkpt lon="-3.144012" lat="53.019378"><ele>411.697144</ele><time>2021-09-01T10:50:57Z</time><extensions><speed>1.447124</speed><course>311.835449</course><hAcc>0.877784</hAcc><vAcc>0.568439</vAcc></extensions></trkpt>
      <trkpt lon="-3.143994" lat="53.019371"><ele>411.751556</ele><time>2021-09-01T10:50:58Z</time><extensions><speed>1.439920</speed><course>314.400024</course><hAcc>0.877281</hAcc><vAcc>0.570391</vAcc></extensions></trkpt>
      <trkpt lon="-3.143975" lat="53.019365"><ele>411.807098</ele><time>2021-09-01T10:50:59Z</time><extensions><speed>1.428573</speed><course>314.080444</course><hAcc>0.876857</hAcc><vAcc>0.572597</vAcc></extensions></trkpt>
      <trkpt lon="-3.143957" lat="53.019358"><ele>411.864410</ele><time>2021-09-01T10:51:00Z</time><extensions><speed>1.413757</speed><course>307.602600</course><hAcc>0.876639</hAcc><vAcc>0.574945</vAcc></extensions></trkpt>
      <trkpt lon="-3.143939" lat="53.019352"><ele>411.923126</ele><time>2021-09-01T10:51:01Z</time><extensions><speed>1.396858</speed><course>311.268951</course><hAcc>0.876738</hAcc><vAcc>0.577338</vAcc></extensions></trkpt>
      <trkpt lon="-3.143921" lat="53.019345"><ele>411.982849</ele><time>2021-09-01T10:51:02Z</time><extensions><speed>1.379757</speed><course>316.568695</course><hAcc>0.877205</hAcc><vAcc>0.579699</vAcc></extensions></trkpt>
      <trkpt lon="-3.143904" lat="53.019339"><ele>412.043213</ele><time>2021-09-01T10:51:03Z</time><extensions><speed>1.364396</speed><course>324.849396</course><hAcc>0.878030</hAcc><vAcc>0.581957</vAcc></extensions></trkpt>
      <trkpt lon="-3.143887" lat="53.019332"><ele>412.103851</ele><time>2021-09-01T10:51:04Z</time><extensions><speed>1.352237</speed><course>318.929504</course><hAcc>0.879151</hAcc><vAcc>0.584050</vAcc></extensions></trkpt>
      <trkpt lon="-3.143870" lat="53.019325"><ele>412.164185</ele><time>2021-09-01T10:51:05Z</time><extensions><speed>1.344098</speed><course>315.514008</course><hAcc>0.880473</hAcc><vAcc>0.585925</vAcc></extensions></trkpt>
      <trkpt lon="-3.143853" lat="53.019319"><ele>412.222870</ele><time>2021-09-01T10:51:06Z</time><extensions><speed>1.340179</speed><course>309.432922</course><hAcc>0.881879</hAcc><vAcc>0.587550</vAcc></extensions></trkpt>
      <trkpt lon="-3.143837" lat="53.019312"><ele>412.278442</ele><time>2021-09-01T10:51:07Z</time><extensions><speed>1.339616</speed><course>306.068817</course><hAcc>0.883243</hAcc><vAcc>0.588915</vAcc></extensions></trkpt>
      <trkpt lon="-3.143820" lat="53.019306"><ele>412.329559</ele><time>2021-09-01T10:51:08Z</time><extensions><speed>1.340813</speed><course>319.983490</course><hAcc>0.884470</hAcc><vAcc>0.590022</vAcc></extensions></trkpt>
      <trkpt lon="-3.143803" lat="53.019299"><ele>412.375214</ele><time>2021-09-01T10:51:09Z</time><extensions><speed>1.342376</speed><course>315.606720</course><hAcc>0.885509</hAcc><vAcc>0.590880</vAcc></extensions></trkpt>
      <trkpt lon="-3.143787" lat="53.019292"><ele>412.414459</ele><time>2021-09-01T10:51:10Z</time><extensions><speed>1.343735</speed><course>317.784515</course><hAcc>0.886363</hAcc><vAcc>0.591509</vAcc></extensions></trkpt>
      <trkpt lon="-3.143770" lat="53.019286"><ele>412.446198</ele><time>2021-09-01T10:51:11Z</time><extensions><speed>1.344874</speed><course>313.524780</course><hAcc>0.887069</hAcc><vAcc>0.591935</vAcc></extensions></trkpt>
      <trkpt lon="-3.143753" lat="53.019279"><ele>412.469269</ele><time>2021-09-01T10:51:12Z</time><extensions><speed>1.345441</speed><course>310.903687</course><hAcc>0.887667</hAcc><vAcc>0.592184</vAcc></extensions></trkpt>
      <trkpt lon="-3.143736" lat="53.019273"><ele>412.483429</ele><time>2021-09-01T10:51:13Z</time><extensions><speed>1.344996</speed><course>315.823334</course><hAcc>0.888172</hAcc><vAcc>0.592269</vAcc></extensions></trkpt>
      <trkpt lon="-3.143719" lat="53.019266"><ele>412.488983</ele><time>2021-09-01T10:51:14Z</time><extensions><speed>1.342985</speed><course>318.320831</course><hAcc>0.888558</hAcc><vAcc>0.592186</vAcc></extensions></trkpt>
      <trkpt lon="-3.143702" lat="53.019260"><ele>412.486694</ele><time>2021-09-01T10:51:15Z</time><extensions><speed>1.338418</speed><course>306.579529</course><hAcc>0.888758</hAcc><vAcc>0.591916</vAcc></extensions></trkpt>
      <trkpt lon="-3.143686" lat="53.019253"><ele>412.477783</ele><time>2021-09-01T10:51:16Z</time><extensions><speed>1.331019</speed><course>308.750916</course><hAcc>0.888682</hAcc><vAcc>0.591430</vAcc></extensions></trkpt>
      <trkpt lon="-3.143669" lat="53.019247"><ele>412.463287</ele><time>2021-09-01T10:51:17Z</time><extensions><speed>1.321473</speed><course>310.705475</course><hAcc>0.888233</hAcc><vAcc>0.590708</vAcc></extensions></trkpt>
      <trkpt lon="-3.143652" lat="53.019241"><ele>412.444061</ele><time>2021-09-01T10:51:18Z</time><extensions><speed>1.310652</speed><course>309.681793</course><hAcc>0.887346</hAcc><vAcc>0.589760</vAcc></extensions></trkpt>
      <trkpt lon="-3.143635" lat="53.019236"><ele>412.420990</ele><time>2021-09-01T10:51:19Z</time><extensions><speed>1.299877</speed><course>322.348389</course><hAcc>0.886034</hAcc><vAcc>0.588643</vAcc></extensions></trkpt>
      <trkpt lon="-3.143618" lat="53.019230"><ele>412.394379</ele><time>2021-09-01T10:51:20Z</time><extensions><speed>1.290584</speed><course>326.702148</course><hAcc>0.884409</hAcc><vAcc>0.587457</vAcc></extensions></trkpt>
      <trkpt lon="-3.143601" lat="53.019225"><ele>412.363800</ele><time>2021-09-01T10:51:21Z</time><extensions><speed>1.283631</speed><course>331.813965</course><hAcc>0.882630</hAcc><vAcc>0.586308</vAcc></extensions></trkpt>
      <trkpt lon="-3.143584" lat="53.019220"><ele>412.328400</ele><time>2021-09-01T10:51:22Z</time><extensions><speed>1.279207</speed><course>329.095581</course><hAcc>0.880864</hAcc><vAcc>0.585296</vAcc></extensions></trkpt>
      <trkpt lon="-3.143566" lat="53.019215"><ele>412.287628</ele><time>2021-09-01T10:51:23Z</time><extensions><speed>1.277217</speed><course>317.013092</course><hAcc>0.879253</hAcc><vAcc>0.584507</vAcc></extensions></trkpt>
      <trkpt lon="-3.143549" lat="53.019210"><ele>412.241333</ele><time>2021-09-01T10:51:24Z</time><extensions><speed>1.277448</speed><course>304.237976</course><hAcc>0.877895</hAcc><vAcc>0.583997</vAcc></extensions></trkpt>
      <trkpt lon="-3.143532" lat="53.019205"><ele>412.189819</ele><time>2021-09-01T10:51:25Z</time><extensions><speed>1.279580</speed><course>306.732727</course><hAcc>0.876814</hAcc><vAcc>0.583806</vAcc></extensions></trkpt>
      <trkpt lon="-3.143515" lat="53.019200"><ele>412.133606</ele><time>2021-09-01T10:51:26Z</time><extensions><speed>1.283440</speed><course>314.620697</course><hAcc>0.875981</hAcc><vAcc>0.583967</vAcc></extensions></trkpt>
      <trkpt lon="-3.143497" lat="53.019195"><ele>412.073334</ele><time>2021-09-01T10:51:27Z</time><extensions><speed>1.289030</speed><course>308.721527</course><hAcc>0.875328</hAcc><vAcc>0.584509</vAcc></extensions></trkpt>
      <trkpt lon="-3.143480" lat="53.019190"><ele>412.009644</ele><time>2021-09-01T10:51:28Z</time><extensions><speed>1.296412</speed><course>324.142334</course><hAcc>0.874765</hAcc><vAcc>0.585453</vAcc></extensions></trkpt>
      <trkpt lon="-3.143462" lat="53.019186"><ele>411.943237</ele><time>2021-09-01T10:51:29Z</time><extensions><speed>1.305783</speed><course>320.497589</course><hAcc>0.874190</hAcc><vAcc>0.586804</vAcc></extensions></trkpt>
      <trkpt lon="-3.143444" lat="53.019181"><ele>411.874847</ele><time>2021-09-01T10:51:30Z</time><extensions><speed>1.317147</speed><course>317.760712</course><hAcc>0.873498</hAcc><vAcc>0.588547</vAcc></extensions></trkpt>
      <trkpt lon="-3.143426" lat="53.019176"><ele>411.805115</ele><time>2021-09-01T10:51:31Z</time><extensions><speed>1.329423</speed><course>320.404846</course><hAcc>0.872617</hAcc><vAcc>0.590653</vAcc></extensions></trkpt>
      <trkpt lon="-3.143408" lat="53.019171"><ele>411.734589</ele><time>2021-09-01T10:51:32Z</time><extensions><speed>1.341100</speed><course>325.015778</course><hAcc>0.871537</hAcc><vAcc>0.593099</vAcc></extensions></trkpt>
      <trkpt lon="-3.143390" lat="53.019166"><ele>411.664215</ele><time>2021-09-01T10:51:33Z</time><extensions><speed>1.351406</speed><course>317.077057</course><hAcc>0.870326</hAcc><vAcc>0.595869</vAcc></extensions></trkpt>
      <trkpt lon="-3.143372" lat="53.019160"><ele>411.595001</ele><time>2021-09-01T10:51:34Z</time><extensions><speed>1.359798</speed><course>311.682465</course><hAcc>0.869108</hAcc><vAcc>0.598953</vAcc></extensions></trkpt>
      <trkpt lon="-3.143353" lat="53.019155"><ele>411.527954</ele><time>2021-09-01T10:51:35Z</time><extensions><speed>1.365463</speed><course>306.448975</course><hAcc>0.868016</hAcc><vAcc>0.602331</vAcc></extensions></trkpt>
      <trkpt lon="-3.143335" lat="53.019150"><ele>411.464081</ele><time>2021-09-01T10:51:36Z</time><extensions><speed>1.367766</speed><course>313.316711</course><hAcc>0.867147</hAcc><vAcc>0.605965</vAcc></extensions></trkpt>
      <trkpt lon="-3.143316" lat="53.019145"><ele>411.404938</ele><time>2021-09-01T10:51:37Z</time><extensions><speed>1.366096</speed><course>315.373596</course><hAcc>0.866541</hAcc><vAcc>0.609802</vAcc></extensions></trkpt>
      <trkpt lon="-3.143298" lat="53.019140"><ele>411.351898</ele><time>2021-09-01T10:51:38Z</time><extensions><speed>1.359855</speed><course>312.668671</course><hAcc>0.866180</hAcc><vAcc>0.613780</vAcc></extensions></trkpt>
      <trkpt lon="-3.143280" lat="53.019134"><ele>411.305542</ele><time>2021-09-01T10:51:39Z</time><extensions><speed>1.348917</speed><course>309.354675</course><hAcc>0.866004</hAcc><vAcc>0.617847</vAcc></extensions></trkpt>
      <trkpt lon="-3.143262" lat="53.019129"><ele>411.265778</ele><time>2021-09-01T10:51:40Z</time><extensions><speed>1.334052</speed><course>313.043518</course><hAcc>0.865936</hAcc><vAcc>0.621947</vAcc></extensions></trkpt>
      <trkpt lon="-3.143244" lat="53.019124"><ele>411.232391</ele><time>2021-09-01T10:51:41Z</time><extensions><speed>1.316300</speed><course>317.199493</course><hAcc>0.865921</hAcc><vAcc>0.626011</vAcc></extensions></trkpt>
      <trkpt lon="-3.143227" lat="53.019119"><ele>411.205475</ele><time>2021-09-01T10:51:42Z</time><extensions><speed>1.295440</speed><course>310.331177</course><hAcc>0.865946</hAcc><vAcc>0.629947</vAcc></extensions></trkpt>
      <trkpt lon="-3.143209" lat="53.019114"><ele>411.185364</ele><time>2021-09-01T10:51:43Z</time><extensions><speed>1.269935</speed><course>317.756012</course><hAcc>0.866022</hAcc><vAcc>0.633653</vAcc></extensions></trkpt>
      <trkpt lon="-3.143193" lat="53.019109"><ele>411.172363</ele><time>2021-09-01T10:51:44Z</time><extensions><speed>1.238362</speed><course>318.781036</course><hAcc>0.866162</hAcc><vAcc>0.637041</vAcc></extensions></trkpt>
      <trkpt lon="-3.143176" lat="53.019104"><ele>411.166809</ele><time>2021-09-01T10:51:45Z</time><extensions><speed>1.199845</speed><course>314.656464</course><hAcc>0.866365</hAcc><vAcc>0.640061</vAcc></extensions></trkpt>
      <trkpt lon="-3.143161" lat="53.019099"><ele>411.168762</ele><time>2021-09-01T10:51:46Z</time><extensions><speed>1.153597</speed><course>319.512268</course><hAcc>0.866629</hAcc><vAcc>0.642730</vAcc></extensions></trkpt>
      <trkpt lon="-3.143145" lat="53.019095"><ele>411.177551</ele><time>2021-09-01T10:51:47Z</time><extensions><speed>1.098946</speed><course>322.101624</course><hAcc>0.866958</hAcc><vAcc>0.645137</vAcc></extensions></trkpt>
      <trkpt lon="-3.143131" lat="53.019091"><ele>411.191406</ele><time>2021-09-01T10:51:48Z</time><extensions><speed>1.035349</speed><course>318.612640</course><hAcc>0.867365</hAcc><vAcc>0.647427</vAcc></extensions></trkpt>
      <trkpt lon="-3.143118" lat="53.019087"><ele>411.208527</ele><time>2021-09-01T10:51:49Z</time><extensions><speed>0.963216</speed><course>318.709808</course><hAcc>0.867868</hAcc><vAcc>0.649766</vAcc></extensions></trkpt>
      <trkpt lon="-3.143105" lat="53.019084"><ele>411.227722</ele><time>2021-09-01T10:51:50Z</time><extensions><speed>0.884074</speed><course>309.168610</course><hAcc>0.868487</hAcc><vAcc>0.652317</vAcc></extensions></trkpt>
      <trkpt lon="-3.143094" lat="53.019081"><ele>411.248230</ele><time>2021-09-01T10:51:51Z</time><extensions><speed>0.799946</speed><course>318.520874</course><hAcc>0.869236</hAcc><vAcc>0.655196</vAcc></extensions></trkpt>
      <trkpt lon="-3.143083" lat="53.019078"><ele>411.269257</ele><time>2021-09-01T10:51:52Z</time><extensions><speed>0.713707</speed><course>322.226654</course><hAcc>0.870113</hAcc><vAcc>0.658419</vAcc></extensions></trkpt>
      <trkpt lon="-3.143074" lat="53.019076"><ele>411.289734</ele><time>2021-09-01T10:51:53Z</time><extensions><speed>0.628597</speed><course>319.023285</course><hAcc>0.871083</hAcc><vAcc>0.661859</vAcc></extensions></trkpt>
      <trkpt lon="-3.143065" lat="53.019074"><ele>411.308563</ele><time>2021-09-01T10:51:54Z</time><extensions><speed>0.546740</speed><course>325.928833</course><hAcc>0.872083</hAcc><vAcc>0.665269</vAcc></extensions></trkpt>
      <trkpt lon="-3.143058" lat="53.019073"><ele>411.324738</ele><time>2021-09-01T10:51:55Z</time><extensions><speed>0.468479</speed><course>330.973969</course><hAcc>0.873049</hAcc><vAcc>0.668402</vAcc></extensions></trkpt>
      <trkpt lon="-3.143052" lat="53.019072"><ele>411.337494</ele><time>2021-09-01T10:51:56Z</time><extensions><speed>0.394693</speed><course>325.462158</course><hAcc>0.873932</hAcc><vAcc>0.671100</vAcc></extensions></trkpt>
      <trkpt lon="-3.143047" lat="53.019071"><ele>411.346344</ele><time>2021-09-01T10:51:57Z</time><extensions><speed>0.327511</speed><course>319.000732</course><hAcc>0.874704</hAcc><vAcc>0.673305</vAcc></extensions></trkpt>
      <trkpt lon="-3.143042" lat="53.019071"><ele>411.351318</ele><time>2021-09-01T10:51:58Z</time><extensions><speed>0.268559</speed><course>324.049713</course><hAcc>0.875358</hAcc><vAcc>0.675050</vAcc></extensions></trkpt>
      <trkpt lon="-3.143039" lat="53.019071"><ele>411.352631</ele><time>2021-09-01T10:51:59Z</time><extensions><speed>0.217993</speed><course>322.275696</course><hAcc>0.875902</hAcc><vAcc>0.676418</vAcc></extensions></trkpt>
      <trkpt lon="-3.143036" lat="53.019071"><ele>411.350677</ele><time>2021-09-01T10:52:00Z</time><extensions><speed>0.175191</speed><course>319.519531</course><hAcc>0.876353</hAcc><vAcc>0.677511</vAcc></extensions></trkpt>
      <trkpt lon="-3.143034" lat="53.019071"><ele>411.345734</ele><time>2021-09-01T10:52:01Z</time><extensions><speed>0.139099</speed><course>317.980042</course><hAcc>0.876734</hAcc><vAcc>0.678428</vAcc></extensions></trkpt>
      <trkpt lon="-3.143032" lat="53.019071"><ele>411.338074</ele><time>2021-09-01T10:52:02Z</time><extensions><speed>0.108226</speed><course>318.102478</course><hAcc>0.877072</hAcc><vAcc>0.679261</vAcc></extensions></trkpt>
      <trkpt lon="-3.143031" lat="53.019072"><ele>411.327820</ele><time>2021-09-01T10:52:03Z</time><extensions><speed>0.082517</speed><course>303.135742</course><hAcc>0.877392</hAcc><vAcc>0.680089</vAcc></extensions></trkpt>
      <trkpt lon="-3.143030" lat="53.019072"><ele>411.315338</ele><time>2021-09-01T10:52:04Z</time><extensions><speed>0.063316</speed><course>309.585754</course><hAcc>0.877717</hAcc><vAcc>0.680979</vAcc></extensions></trkpt>
      <trkpt lon="-3.143029" lat="53.019073"><ele>411.301178</ele><time>2021-09-01T10:52:05Z</time><extensions><speed>0.052303</speed><course>312.043945</course><hAcc>0.878067</hAcc><vAcc>0.681991</vAcc></extensions></trkpt>
      <trkpt lon="-3.143030" lat="53.019073"><ele>411.286133</ele><time>2021-09-01T10:52:06Z</time><extensions><speed>0.050270</speed><course>296.473785</course><hAcc>0.878460</hAcc><vAcc>0.683185</vAcc></extensions></trkpt>
      <trkpt lon="-3.143030" lat="53.019074"><ele>411.271332</ele><time>2021-09-01T10:52:07Z</time><extensions><speed>0.055029</speed><course>304.000305</course><hAcc>0.878910</hAcc><vAcc>0.684612</vAcc></extensions></trkpt>
      <trkpt lon="-3.143031" lat="53.019074"><ele>411.258270</ele><time>2021-09-01T10:52:08Z</time><extensions><speed>0.063140</speed><course>310.101471</course><hAcc>0.879423</hAcc><vAcc>0.686294</vAcc></extensions></trkpt>
      <trkpt lon="-3.143032" lat="53.019074"><ele>411.248505</ele><time>2021-09-01T10:52:09Z</time><extensions><speed>0.073609</speed><course>314.593170</course><hAcc>0.879996</hAcc><vAcc>0.688207</vAcc></extensions></trkpt>
      <trkpt lon="-3.143033" lat="53.019074"><ele>411.243347</ele><time>2021-09-01T10:52:10Z</time><extensions><speed>0.087495</speed><course>319.388824</course><hAcc>0.880620</hAcc><vAcc>0.690305</vAcc></extensions></trkpt>
      <trkpt lon="-3.143034" lat="53.019074"><ele>411.243652</ele><time>2021-09-01T10:52:11Z</time><extensions><speed>0.105170</speed><course>321.438110</course><hAcc>0.881280</hAcc><vAcc>0.692531</vAcc></extensions></trkpt>
      <trkpt lon="-3.143036" lat="53.019074"><ele>411.249878</ele><time>2021-09-01T10:52:12Z</time><extensions><speed>0.125832</speed><course>328.475067</course><hAcc>0.881964</hAcc><vAcc>0.694828</vAcc></extensions></trkpt>
      <trkpt lon="-3.143038" lat="53.019073"><ele>411.262268</ele><time>2021-09-01T10:52:13Z</time><extensions><speed>0.148084</speed><course>323.126923</course><hAcc>0.882656</hAcc><vAcc>0.697144</vAcc></extensions></trkpt>
      <trkpt lon="-3.143040" lat="53.019072"><ele>411.280823</ele><time>2021-09-01T10:52:14Z</time><extensions><speed>0.170796</speed><course>317.031311</course><hAcc>0.883342</hAcc><vAcc>0.699427</vAcc></extensions></trkpt>
      <trkpt lon="-3.143042" lat="53.019071"><ele>411.305542</ele><time>2021-09-01T10:52:15Z</time><extensions><speed>0.192937</speed><course>312.376312</course><hAcc>0.884009</hAcc><vAcc>0.701631</vAcc></extensions></trkpt>
      <trkpt lon="-3.143044" lat="53.019070"><ele>411.336182</ele><time>2021-09-01T10:52:16Z</time><extensions><speed>0.213585</speed><course>318.822571</course><hAcc>0.884649</hAcc><vAcc>0.703711</vAcc></extensions></trkpt>
      <trkpt lon="-3.143047" lat="53.019069"><ele>411.372345</ele><time>2021-09-01T10:52:17Z</time><extensions><speed>0.231696</speed><course>319.617462</course><hAcc>0.885255</hAcc><vAcc>0.705625</vAcc></extensions></trkpt>
      <trkpt lon="-3.143049" lat="53.019067"><ele>411.413330</ele><time>2021-09-01T10:52:18Z</time><extensions><speed>0.245743</speed><course>313.608459</course><hAcc>0.885823</hAcc><vAcc>0.707351</vAcc></extensions></trkpt>
      <trkpt lon="-3.143052" lat="53.019066"><ele>411.457947</ele><time>2021-09-01T10:52:19Z</time><extensions><speed>0.253925</speed><course>304.402069</course><hAcc>0.886356</hAcc><vAcc>0.708900</vAcc></extensions></trkpt>
      <trkpt lon="-3.143055" lat="53.019064"><ele>411.504639</ele><time>2021-09-01T10:52:20Z</time><extensions><speed>0.254154</speed><course>313.372192</course><hAcc>0.886857</hAcc><vAcc>0.710306</vAcc></extensions></trkpt>
      <trkpt lon="-3.143057" lat="53.019063"><ele>411.551483</ele><time>2021-09-01T10:52:21Z</time><extensions><speed>0.245152</speed><course>314.449158</course><hAcc>0.887337</hAcc><vAcc>0.711622</vAcc></extensions></trkpt>
      <trkpt lon="-3.143059" lat="53.019061"><ele>411.596558</ele><time>2021-09-01T10:52:22Z</time><extensions><speed>0.227075</speed><course>316.455048</course><hAcc>0.887809</hAcc><vAcc>0.712903</vAcc></extensions></trkpt>
      <trkpt lon="-3.143062" lat="53.019059"><ele>411.638123</ele><time>2021-09-01T10:52:24Z</time><extensions><speed>0.201675</speed><course>322.827759</course><hAcc>0.888272</hAcc><vAcc>0.714190</vAcc></extensions></trkpt>
      <trkpt lon="-3.143063" lat="53.019058"><ele>411.674896</ele><time>2021-09-01T10:52:25Z</time><extensions><speed>0.172245</speed><course>335.256775</course><hAcc>0.888749</hAcc><vAcc>0.715509</vAcc></extensions></trkpt>
      <trkpt lon="-3.143065" lat="53.019057"><ele>411.706024</ele><time>2021-09-01T10:52:26Z</time><extensions><speed>0.142084</speed><course>334.470093</course><hAcc>0.889285</hAcc><vAcc>0.716891</vAcc></extensions></trkpt>
      <trkpt lon="-3.143065" lat="53.019056"><ele>411.731110</ele><time>2021-09-01T10:52:27Z</time><extensions><speed>0.114382</speed><course>329.142944</course><hAcc>0.889911</hAcc><vAcc>0.718342</vAcc></extensions></trkpt>
      <trkpt lon="-3.143066" lat="53.019055"><ele>411.750031</ele><time>2021-09-01T10:52:28Z</time><extensions><speed>0.092141</speed><course>330.236481</course><hAcc>0.890660</hAcc><vAcc>0.719872</vAcc></extensions></trkpt>
      <trkpt lon="-3.143066" lat="53.019054"><ele>411.762909</ele><time>2021-09-01T10:52:29Z</time><extensions><speed>0.077572</speed><course>327.126953</course><hAcc>0.891573</hAcc><vAcc>0.721495</vAcc></extensions></trkpt>
      <trkpt lon="-3.143066" lat="53.019054"><ele>411.770142</ele><time>2021-09-01T10:52:30Z</time><extensions><speed>0.070756</speed><course>324.196686</course><hAcc>0.892684</hAcc><vAcc>0.723224</vAcc></extensions></trkpt>
      <trkpt lon="-3.143066" lat="53.019053"><ele>411.772247</ele><time>2021-09-01T10:52:31Z</time><extensions><speed>0.069573</speed><course>323.671265</course><hAcc>0.894027</hAcc><vAcc>0.725067</vAcc></extensions></trkpt>
      <trkpt lon="-3.143066" lat="53.019052"><ele>411.769958</ele><time>2021-09-01T10:52:32Z</time><extensions><speed>0.072906</speed><course>327.262970</course><hAcc>0.895622</hAcc><vAcc>0.727016</vAcc></extensions></trkpt>
      <trkpt lon="-3.143066" lat="53.019052"><ele>411.764130</ele><time>2021-09-01T10:52:33Z</time><extensions><speed>0.084107</speed><course>327.549561</course><hAcc>0.897465</hAcc><vAcc>0.729041</vAcc></extensions></trkpt>
      <trkpt lon="-3.143066" lat="53.019051"><ele>411.755768</ele><time>2021-09-01T10:52:33Z</time><extensions><speed>0.109976</speed><course>319.078094</course><hAcc>0.899538</hAcc><vAcc>0.731092</vAcc></extensions></trkpt>
      <trkpt lon="-3.143067" lat="53.019050"><ele>411.746033</ele><time>2021-09-01T10:52:34Z</time><extensions><speed>0.155836</speed><course>327.008026</course><hAcc>0.901767</hAcc><vAcc>0.733078</vAcc></extensions></trkpt>
      <trkpt lon="-3.143069" lat="53.019049"><ele>411.736145</ele><time>2021-09-01T10:52:35Z</time><extensions><speed>0.223564</speed><course>328.155212</course><hAcc>0.904007</hAcc><vAcc>0.734865</vAcc></extensions></trkpt>
      <trkpt lon="-3.143072" lat="53.019047"><ele>411.727509</ele><time>2021-09-01T10:52:36Z</time><extensions><speed>0.313733</speed><course>325.350311</course><hAcc>0.906087</hAcc><vAcc>0.736317</vAcc></extensions></trkpt>
      <trkpt lon="-3.143076" lat="53.019045"><ele>411.721588</ele><time>2021-09-01T10:52:38Z</time><extensions><speed>0.426807</speed><course>322.145447</course><hAcc>0.907800</hAcc><vAcc>0.737315</vAcc></extensions></trkpt>
      <trkpt lon="-3.143082" lat="53.019042"><ele>411.719879</ele><time>2021-09-01T10:52:39Z</time><extensions><speed>0.562118</speed><course>312.279083</course><hAcc>0.908980</hAcc><vAcc>0.737836</vAcc></extensions></trkpt>
      <trkpt lon="-3.143090" lat="53.019039"><ele>411.723969</ele><time>2021-09-01T10:52:39Z</time><extensions><speed>0.718531</speed><course>313.047180</course><hAcc>0.909639</hAcc><vAcc>0.738072</vAcc></extensions></trkpt>
      <trkpt lon="-3.143100" lat="53.019035"><ele>411.735291</ele><time>2021-09-01T10:52:40Z</time><extensions><speed>0.894421</speed><course>316.630066</course><hAcc>0.910050</hAcc><vAcc>0.738521</vAcc></extensions></trkpt>
      <trkpt lon="-3.143113" lat="53.019031"><ele>411.755249</ele><time>2021-09-01T10:52:41Z</time><extensions><speed>1.085563</speed><course>322.903290</course><hAcc>0.911023</hAcc><vAcc>0.740189</vAcc></extensions></trkpt>
      <trkpt lon="-3.143128" lat="53.019025"><ele>411.784882</ele><time>2021-09-01T10:52:42Z</time><extensions><speed>1.285904</speed><course>317.613495</course><hAcc>0.914296</hAcc><vAcc>0.744859</vAcc></extensions></trkpt>
      <trkpt lon="-3.143146" lat="53.019019"><ele>411.824890</ele><time>2021-09-01T10:52:43Z</time><extensions><speed>1.486757</speed><course>317.406921</course><hAcc>0.922950</hAcc><vAcc>0.755301</vAcc></extensions></trkpt>
      <trkpt lon="-3.143167" lat="53.019013"><ele>411.875336</ele><time>2021-09-01T10:52:44Z</time><extensions><speed>1.676295</speed><course>309.276642</course><hAcc>0.941809</hAcc><vAcc>0.775394</vAcc></extensions></trkpt>
      <trkpt lon="-3.143190" lat="53.019005"><ele>411.935455</ele><time>2021-09-01T10:52:45Z</time><extensions><speed>1.839057</speed><course>302.809937</course><hAcc>0.977555</hAcc><vAcc>0.809982</vAcc></extensions></trkpt>
      <trkpt lon="-3.143218" lat="53.018995"><ele>412.007965</ele><time>2021-09-01T10:52:46Z</time><extensions><speed>2.389919</speed><course>-1.000000</course><hAcc>0.938660</hAcc><vAcc>0.772799</vAcc></extensions></trkpt>
      <trkpt lon="-3.143249" lat="53.018985"><ele>412.117096</ele><time>2021-09-01T10:52:47Z</time><extensions><speed>2.311339</speed><course>-1.000000</course><hAcc>0.918471</hAcc><vAcc>0.749936</vAcc></extensions></trkpt>
      <trkpt lon="-3.143278" lat="53.018975"><ele>412.225830</ele><time>2021-09-01T10:52:48Z</time><extensions><speed>2.211989</speed><course>-1.000000</course><hAcc>0.909634</hAcc><vAcc>0.737596</vAcc></extensions></trkpt>
      <trkpt lon="-3.143306" lat="53.018966"><ele>412.333832</ele><time>2021-09-01T10:52:49Z</time><extensions><speed>2.102916</speed><course>-1.000000</course><hAcc>0.906664</hAcc><vAcc>0.731475</vAcc></extensions></trkpt>
      <trkpt lon="-3.143333" lat="53.018957"><ele>412.441223</ele><time>2021-09-01T10:52:50Z</time><extensions><speed>1.992260</speed><course>-1.000000</course><hAcc>0.906063</hAcc><vAcc>0.728489</vAcc></extensions></trkpt>
      <trkpt lon="-3.143358" lat="53.018948"><ele>412.548309</ele><time>2021-09-01T10:52:51Z</time><extensions><speed>1.885389</speed><course>-1.000000</course><hAcc>0.905876</hAcc><vAcc>0.726672</vAcc></extensions></trkpt>
      <trkpt lon="-3.143382" lat="53.018941"><ele>412.655487</ele><time>2021-09-01T10:52:52Z</time><extensions><speed>1.785530</speed><course>-1.000000</course><hAcc>0.905199</hAcc><vAcc>0.724925</vAcc></extensions></trkpt>
      <trkpt lon="-3.143405" lat="53.018933"><ele>412.762817</ele><time>2021-09-01T10:52:53Z</time><extensions><speed>1.693629</speed><course>-1.000000</course><hAcc>0.903767</hAcc><vAcc>0.722759</vAcc></extensions></trkpt>
      <trkpt lon="-3.143427" lat="53.018926"><ele>412.870178</ele><time>2021-09-01T10:52:54Z</time><extensions><speed>1.609212</speed><course>-1.000000</course><hAcc>0.901656</hAcc><vAcc>0.720065</vAcc></extensions></trkpt>
      <trkpt lon="-3.143448" lat="53.018920"><ele>412.977173</ele><time>2021-09-01T10:52:55Z</time><extensions><speed>1.532334</speed><course>184.559082</course><hAcc>0.899097</hAcc><vAcc>0.716948</vAcc></extensions></trkpt>
      <trkpt lon="-3.143468" lat="53.018914"><ele>413.083740</ele><time>2021-09-01T10:52:56Z</time><extensions><speed>1.463275</speed><course>-1.000000</course><hAcc>0.896350</hAcc><vAcc>0.713612</vAcc></extensions></trkpt>
      <trkpt lon="-3.143487" lat="53.018909"><ele>413.190033</ele><time>2021-09-01T10:52:57Z</time><extensions><speed>1.402179</speed><course>-1.000000</course><hAcc>0.893646</hAcc><vAcc>0.710278</vAcc></extensions></trkpt>
      <trkpt lon="-3.143506" lat="53.018904"><ele>413.296356</ele><time>2021-09-01T10:52:58Z</time><extensions><speed>1.348938</speed><course>-1.000000</course><hAcc>0.891159</hAcc><vAcc>0.707145</vAcc></extensions></trkpt>
      <trkpt lon="-3.143524" lat="53.018899"><ele>413.403076</ele><time>2021-09-01T10:52:59Z</time><extensions><speed>1.302830</speed><course>-1.000000</course><hAcc>0.888998</hAcc><vAcc>0.704369</vAcc></extensions></trkpt>
      <trkpt lon="-3.143542" lat="53.018895"><ele>413.510620</ele><time>2021-09-01T10:53:00Z</time><extensions><speed>1.262591</speed><course>53.307610</course><hAcc>0.887215</hAcc><vAcc>0.702058</vAcc></extensions></trkpt>
      <trkpt lon="-3.143559" lat="53.018891"><ele>413.619507</ele><time>2021-09-01T10:53:01Z</time><extensions><speed>1.227419</speed><course>-1.000000</course><hAcc>0.885819</hAcc><vAcc>0.700263</vAcc></extensions></trkpt>
      <trkpt lon="-3.143576" lat="53.018887"><ele>413.730469</ele><time>2021-09-01T10:53:02Z</time><extensions><speed>1.196603</speed><course>-1.000000</course><hAcc>0.884783</hAcc><vAcc>0.698985</vAcc></extensions></trkpt>
      <trkpt lon="-3.143593" lat="53.018883"><ele>413.844330</ele><time>2021-09-01T10:53:03Z</time><extensions><speed>1.169249</speed><course>-1.000000</course><hAcc>0.884064</hAcc><vAcc>0.698187</vAcc></extensions></trkpt>
      <trkpt lon="-3.143609" lat="53.018879"><ele>413.961578</ele><time>2021-09-01T10:53:04Z</time><extensions><speed>1.145293</speed><course>120.394302</course><hAcc>0.883608</hAcc><vAcc>0.697803</vAcc></extensions></trkpt>
      <trkpt lon="-3.143625" lat="53.018876"><ele>414.082642</ele><time>2021-09-01T10:53:05Z</time><extensions><speed>1.124947</speed><course>-1.000000</course><hAcc>0.883358</hAcc><vAcc>0.697758</vAcc></extensions></trkpt>
      <trkpt lon="-3.143640" lat="53.018872"><ele>414.207611</ele><time>2021-09-01T10:53:06Z</time><extensions><speed>1.108525</speed><course>-1.000000</course><hAcc>0.883262</hAcc><vAcc>0.697965</vAcc></extensions></trkpt>
      <trkpt lon="-3.143656" lat="53.018869"><ele>414.336090</ele><time>2021-09-01T10:53:07Z</time><extensions><speed>1.096747</speed><course>-1.000000</course><hAcc>0.883274</hAcc><vAcc>0.698344</vAcc></extensions></trkpt>
      <trkpt lon="-3.143671" lat="53.018866"><ele>414.467010</ele><time>2021-09-01T10:53:08Z</time><extensions><speed>1.089751</speed><course>-1.000000</course><hAcc>0.883352</hAcc><vAcc>0.698821</vAcc></extensions></trkpt>
      <trkpt lon="-3.143686" lat="53.018862"><ele>414.599091</ele><time>2021-09-01T10:53:09Z</time><extensions><speed>1.086785</speed><course>-1.000000</course><hAcc>0.883464</hAcc><vAcc>0.699331</vAcc></extensions></trkpt>
      <trkpt lon="-3.143702" lat="53.018859"><ele>414.731506</ele><time>2021-09-01T10:53:10Z</time><extensions><speed>1.087491</speed><course>-1.000000</course><hAcc>0.883585</hAcc><vAcc>0.699818</vAcc></extensions></trkpt>
      <trkpt lon="-3.143717" lat="53.018856"><ele>414.863708</ele><time>2021-09-01T10:53:11Z</time><extensions><speed>1.091917</speed><course>-1.000000</course><hAcc>0.883696</hAcc><vAcc>0.700240</vAcc></extensions></trkpt>
      <trkpt lon="-3.143733" lat="53.018853"><ele>414.995422</ele><time>2021-09-01T10:53:12Z</time><extensions><speed>1.100038</speed><course>-1.000000</course><hAcc>0.883783</hAcc><vAcc>0.700564</vAcc></extensions></trkpt>
      <trkpt lon="-3.143749" lat="53.018851"><ele>415.126434</ele><time>2021-09-01T10:53:13Z</time><extensions><speed>1.111036</speed><course>-1.000000</course><hAcc>0.883837</hAcc><vAcc>0.700765</vAcc></extensions></trkpt>
      <trkpt lon="-3.143765" lat="53.018848"><ele>415.256409</ele><time>2021-09-01T10:53:14Z</time><extensions><speed>1.123372</speed><course>-1.000000</course><hAcc>0.883853</hAcc><vAcc>0.700828</vAcc></extensions></trkpt>
      <trkpt lon="-3.143781" lat="53.018846"><ele>415.384613</ele><time>2021-09-01T10:53:15Z</time><extensions><speed>1.135404</speed><course>-1.000000</course><hAcc>0.883830</hAcc><vAcc>0.700745</vAcc></extensions></trkpt>
      <trkpt lon="-3.143798" lat="53.018843"><ele>415.510529</ele><time>2021-09-01T10:53:16Z</time><extensions><speed>1.146026</speed><course>-1.000000</course><hAcc>0.883769</hAcc><vAcc>0.700520</vAcc></extensions></trkpt>
      <trkpt lon="-3.143814" lat="53.018841"><ele>415.633942</ele><time>2021-09-01T10:53:17Z</time><extensions><speed>1.154402</speed><course>-1.000000</course><hAcc>0.883675</hAcc><vAcc>0.700168</vAcc></extensions></trkpt>
      <trkpt lon="-3.143831" lat="53.018839"><ele>415.754669</ele><time>2021-09-01T10:53:18Z</time><extensions><speed>1.159901</speed><course>-1.000000</course><hAcc>0.883552</hAcc><vAcc>0.699714</vAcc></extensions></trkpt>
      <trkpt lon="-3.143848" lat="53.018838"><ele>415.872803</ele><time>2021-09-01T10:53:19Z</time><extensions><speed>1.162726</speed><course>-1.000000</course><hAcc>0.883409</hAcc><vAcc>0.699188</vAcc></extensions></trkpt>
      <trkpt lon="-3.143865" lat="53.018836"><ele>415.988556</ele><time>2021-09-01T10:53:20Z</time><extensions><speed>1.163333</speed><course>-1.000000</course><hAcc>0.883253</hAcc><vAcc>0.698623</vAcc></extensions></trkpt>
      <trkpt lon="-3.143883" lat="53.018834"><ele>416.102173</ele><time>2021-09-01T10:53:21Z</time><extensions><speed>1.162619</speed><course>-1.000000</course><hAcc>0.883093</hAcc><vAcc>0.698050</vAcc></extensions></trkpt>
      <trkpt lon="-3.143900" lat="53.018833"><ele>416.213593</ele><time>2021-09-01T10:53:22Z</time><extensions><speed>1.161579</speed><course>-1.000000</course><hAcc>0.882935</hAcc><vAcc>0.697500</vAcc></extensions></trkpt>
      <trkpt lon="-3.143917" lat="53.018831"><ele>416.322601</ele><time>2021-09-01T10:53:23Z</time><extensions><speed>1.160596</speed><course>-1.000000</course><hAcc>0.882787</hAcc><vAcc>0.696994</vAcc></extensions></trkpt>
      <trkpt lon="-3.143934" lat="53.018830"><ele>416.429230</ele><time>2021-09-01T10:53:24Z</time><extensions><speed>1.159318</speed><course>116.725777</course><hAcc>0.882655</hAcc><vAcc>0.696550</vAcc></extensions></trkpt>
      <trkpt lon="-3.143951" lat="53.018828"><ele>416.533630</ele><time>2021-09-01T10:53:25Z</time><extensions><speed>1.157164</speed><course>116.725777</course><hAcc>0.882543</hAcc><vAcc>0.696180</vAcc></extensions></trkpt>
      <trkpt lon="-3.143968" lat="53.018827"><ele>416.636200</ele><time>2021-09-01T10:53:26Z</time><extensions><speed>1.154332</speed><course>116.725777</course><hAcc>0.882453</hAcc><vAcc>0.695893</vAcc></extensions></trkpt>
      <trkpt lon="-3.143985" lat="53.018825"><ele>416.737427</ele><time>2021-09-01T10:53:27Z</time><extensions><speed>1.151801</speed><course>116.725777</course><hAcc>0.882389</hAcc><vAcc>0.695691</vAcc></extensions></trkpt>
      <trkpt lon="-3.144002" lat="53.018824"><ele>416.838196</ele><time>2021-09-01T10:53:28Z</time><extensions><speed>1.150703</speed><course>116.725777</course><hAcc>0.882350</hAcc><vAcc>0.695575</vAcc></extensions></trkpt>
      <trkpt lon="-3.144019" lat="53.018822"><ele>416.939545</ele><time>2021-09-01T10:53:29Z</time><extensions><speed>1.151861</speed><course>116.725784</course><hAcc>0.882336</hAcc><vAcc>0.695539</vAcc></extensions></trkpt>
      <trkpt lon="-3.144036" lat="53.018821"><ele>417.042603</ele><time>2021-09-01T10:53:30Z</time><extensions><speed>1.155671</speed><course>116.725784</course><hAcc>0.882345</hAcc><vAcc>0.695580</vAcc></extensions></trkpt>
      <trkpt lon="-3.144053" lat="53.018819"><ele>417.148651</ele><time>2021-09-01T10:53:31Z</time><extensions><speed>1.162026</speed><course>116.725784</course><hAcc>0.882375</hAcc><vAcc>0.695695</vAcc></extensions></trkpt>
      <trkpt lon="-3.144070" lat="53.018817"><ele>417.258698</ele><time>2021-09-01T10:53:32Z</time><extensions><speed>1.169839</speed><course>116.725784</course><hAcc>0.882421</hAcc><vAcc>0.695874</vAcc></extensions></trkpt>
      <trkpt lon="-3.144087" lat="53.018815"><ele>417.373077</ele><time>2021-09-01T10:53:33Z</time><extensions><speed>1.177331</speed><course>116.725784</course><hAcc>0.882480</hAcc><vAcc>0.696102</vAcc></extensions></trkpt>
      <trkpt lon="-3.144105" lat="53.018813"><ele>417.490936</ele><time>2021-09-01T10:53:34Z</time><extensions><speed>1.183324</speed><course>116.725784</course><hAcc>0.882546</hAcc><vAcc>0.696362</vAcc></extensions></trkpt>
      <trkpt lon="-3.144122" lat="53.018811"><ele>417.611053</ele><time>2021-09-01T10:53:35Z</time><extensions><speed>1.187527</speed><course>116.725784</course><hAcc>0.882611</hAcc><vAcc>0.696632</vAcc></extensions></trkpt>
      <trkpt lon="-3.144139" lat="53.018810"><ele>417.732300</ele><time>2021-09-01T10:53:36Z</time><extensions><speed>1.190060</speed><course>116.725784</course><hAcc>0.882671</hAcc><vAcc>0.696890</vAcc></extensions></trkpt>
      <trkpt lon="-3.144157" lat="53.018808"><ele>417.853973</ele><time>2021-09-01T10:53:37Z</time><extensions><speed>1.191217</speed><course>116.725784</course><hAcc>0.882717</hAcc><vAcc>0.697106</vAcc></extensions></trkpt>
      <trkpt lon="-3.144174" lat="53.018806"><ele>417.975800</ele><time>2021-09-01T10:53:38Z</time><extensions><speed>1.191267</speed><course>116.725784</course><hAcc>0.882746</hAcc><vAcc>0.697253</vAcc></extensions></trkpt>
      <trkpt lon="-3.144192" lat="53.018804"><ele>418.097717</ele><time>2021-09-01T10:53:39Z</time><extensions><speed>1.190410</speed><course>116.725784</course><hAcc>0.882751</hAcc><vAcc>0.697307</vAcc></extensions></trkpt>
      <trkpt lon="-3.144210" lat="53.018803"><ele>418.219604</ele><time>2021-09-01T10:53:40Z</time><extensions><speed>1.188740</speed><course>116.725784</course><hAcc>0.882730</hAcc><vAcc>0.697254</vAcc></extensions></trkpt>
      <trkpt lon="-3.144227" lat="53.018802"><ele>418.341644</ele><time>2021-09-01T10:53:41Z</time><extensions><speed>1.186058</speed><course>116.725784</course><hAcc>0.882683</hAcc><vAcc>0.697091</vAcc></extensions></trkpt>
      <trkpt lon="-3.144245" lat="53.018801"><ele>418.464203</ele><time>2021-09-01T10:53:42Z</time><extensions><speed>1.182174</speed><course>116.725784</course><hAcc>0.882611</hAcc><vAcc>0.696824</vAcc></extensions></trkpt>
      <trkpt lon="-3.144262" lat="53.018800"><ele>418.587799</ele><time>2021-09-01T10:53:43Z</time><extensions><speed>1.177170</speed><course>116.725784</course><hAcc>0.882519</hAcc><vAcc>0.696468</vAcc></extensions></trkpt>
      <trkpt lon="-3.144280" lat="53.018799"><ele>418.712402</ele><time>2021-09-01T10:53:44Z</time><extensions><speed>1.171772</speed><course>116.725784</course><hAcc>0.882410</hAcc><vAcc>0.696050</vAcc></extensions></trkpt>
      <trkpt lon="-3.144297" lat="53.018798"><ele>418.837891</ele><time>2021-09-01T10:53:45Z</time><extensions><speed>1.166774</speed><course>116.725784</course><hAcc>0.882293</hAcc><vAcc>0.695599</vAcc></extensions></trkpt>
      <trkpt lon="-3.144314" lat="53.018798"><ele>418.963898</ele><time>2021-09-01T10:53:46Z</time><extensions><speed>1.161961</speed><course>116.725777</course><hAcc>0.882174</hAcc><vAcc>0.695149</vAcc></extensions></trkpt>
      <trkpt lon="-3.144332" lat="53.018797"><ele>419.090393</ele><time>2021-09-01T10:53:47Z</time><extensions><speed>1.156510</speed><course>116.725769</course><hAcc>0.882060</hAcc><vAcc>0.694729</vAcc></extensions></trkpt>
      <trkpt lon="-3.144349" lat="53.018797"><ele>419.217682</ele><time>2021-09-01T10:53:48Z</time><extensions><speed>1.149575</speed><course>116.725769</course><hAcc>0.881958</hAcc><vAcc>0.694361</vAcc></extensions></trkpt>
      <trkpt lon="-3.144366" lat="53.018796"><ele>419.346191</ele><time>2021-09-01T10:53:49Z</time><extensions><speed>1.140956</speed><course>116.725761</course><hAcc>0.881871</hAcc><vAcc>0.694061</vAcc></extensions></trkpt>
      <trkpt lon="-3.144383" lat="53.018795"><ele>419.476349</ele><time>2021-09-01T10:53:50Z</time><extensions><speed>1.130935</speed><course>116.725754</course><hAcc>0.881803</hAcc><vAcc>0.693837</vAcc></extensions></trkpt>
      <trkpt lon="-3.144399" lat="53.018795"><ele>419.608185</ele><time>2021-09-01T10:53:51Z</time><extensions><speed>1.119705</speed><course>116.725746</course><hAcc>0.881756</hAcc><vAcc>0.693694</vAcc></extensions></trkpt>
      <trkpt lon="-3.144416" lat="53.018794"><ele>419.741638</ele><time>2021-09-01T10:53:52Z</time><extensions><speed>1.107756</speed><course>116.725746</course><hAcc>0.881730</hAcc><vAcc>0.693631</vAcc></extensions></trkpt>
      <trkpt lon="-3.144432" lat="53.018793"><ele>419.876312</ele><time>2021-09-01T10:53:53Z</time><extensions><speed>1.096011</speed><course>116.725731</course><hAcc>0.881722</hAcc><vAcc>0.693642</vAcc></extensions></trkpt>
      <trkpt lon="-3.144448" lat="53.018791"><ele>420.011536</ele><time>2021-09-01T10:53:54Z</time><extensions><speed>1.084864</speed><course>116.725723</course><hAcc>0.881729</hAcc><vAcc>0.693714</vAcc></extensions></trkpt>
      <trkpt lon="-3.144464" lat="53.018790"><ele>420.146423</ele><time>2021-09-01T10:53:55Z</time><extensions><speed>1.073818</speed><course>116.725723</course><hAcc>0.881747</hAcc><vAcc>0.693827</vAcc></extensions></trkpt>
      <trkpt lon="-3.144480" lat="53.018789"><ele>420.280060</ele><time>2021-09-01T10:53:56Z</time><extensions><speed>1.062479</speed><course>116.725708</course><hAcc>0.881772</hAcc><vAcc>0.693959</vAcc></extensions></trkpt>
      <trkpt lon="-3.144496" lat="53.018787"><ele>420.411438</ele><time>2021-09-01T10:53:57Z</time><extensions><speed>1.051234</speed><course>116.725700</course><hAcc>0.881797</hAcc><vAcc>0.694087</vAcc></extensions></trkpt>
      <trkpt lon="-3.144511" lat="53.018786"><ele>420.539948</ele><time>2021-09-01T10:53:58Z</time><extensions><speed>1.040754</speed><course>116.725693</course><hAcc>0.881819</hAcc><vAcc>0.694189</vAcc></extensions></trkpt>
      <trkpt lon="-3.144526" lat="53.018784"><ele>420.665222</ele><time>2021-09-01T10:53:59Z</time><extensions><speed>1.031569</speed><course>116.725685</course><hAcc>0.881834</hAcc><vAcc>0.694251</vAcc></extensions></trkpt>
      <trkpt lon="-3.144541" lat="53.018783"><ele>420.786987</ele><time>2021-09-01T10:54:00Z</time><extensions><speed>1.024114</speed><course>116.725670</course><hAcc>0.881840</hAcc><vAcc>0.694268</vAcc></extensions></trkpt>
      <trkpt lon="-3.144557" lat="53.018782"><ele>420.905182</ele><time>2021-09-01T10:54:01Z</time><extensions><speed>1.018324</speed><course>116.725670</course><hAcc>0.881838</hAcc><vAcc>0.694243</vAcc></extensions></trkpt>
      <trkpt lon="-3.144571" lat="53.018780"><ele>421.020020</ele><time>2021-09-01T10:54:02Z</time><extensions><speed>1.013615</speed><course>116.725662</course><hAcc>0.881828</hAcc><vAcc>0.694182</vAcc></extensions></trkpt>
      <trkpt lon="-3.144586" lat="53.018779"><ele>421.131805</ele><time>2021-09-01T10:54:03Z</time><extensions><speed>1.009416</speed><course>316.510925</course><hAcc>0.881812</hAcc><vAcc>0.694095</vAcc></extensions></trkpt>
      <trkpt lon="-3.144601" lat="53.018778"><ele>421.240753</ele><time>2021-09-01T10:54:04Z</time><extensions><speed>1.005757</speed><course>325.771881</course><hAcc>0.881794</hAcc><vAcc>0.693995</vAcc></extensions></trkpt>
      <trkpt lon="-3.144616" lat="53.018777"><ele>421.346832</ele><time>2021-09-01T10:54:05Z</time><extensions><speed>1.002958</speed><course>329.412018</course><hAcc>0.881776</hAcc><vAcc>0.693897</vAcc></extensions></trkpt>
      <trkpt lon="-3.144631" lat="53.018775"><ele>421.449829</ele><time>2021-09-01T10:54:06Z</time><extensions><speed>1.000823</speed><course>328.807678</course><hAcc>0.881763</hAcc><vAcc>0.693817</vAcc></extensions></trkpt>
      <trkpt lon="-3.144646" lat="53.018774"><ele>421.549438</ele><time>2021-09-01T10:54:07Z</time><extensions><speed>0.999428</speed><course>328.238739</course><hAcc>0.881758</hAcc><vAcc>0.693771</vAcc></extensions></trkpt>
      <trkpt lon="-3.144660" lat="53.018773"><ele>421.645752</ele><time>2021-09-01T10:54:08Z</time><extensions><speed>0.999207</speed><course>328.754333</course><hAcc>0.881763</hAcc><vAcc>0.693773</vAcc></extensions></trkpt>
      <trkpt lon="-3.144675" lat="53.018771"><ele>421.739197</ele><time>2021-09-01T10:54:09Z</time><extensions><speed>1.000817</speed><course>321.291412</course><hAcc>0.881780</hAcc><vAcc>0.693831</vAcc></extensions></trkpt>
      <trkpt lon="-3.144690" lat="53.018769"><ele>421.830231</ele><time>2021-09-01T10:54:10Z</time><extensions><speed>1.004896</speed><course>315.163422</course><hAcc>0.881808</hAcc><vAcc>0.693942</vAcc></extensions></trkpt>
      <trkpt lon="-3.144704" lat="53.018767"><ele>421.919189</ele><time>2021-09-01T10:54:11Z</time><extensions><speed>1.010868</speed><course>320.356079</course><hAcc>0.881847</hAcc><vAcc>0.694097</vAcc></extensions></trkpt>
      <trkpt lon="-3.144719" lat="53.018765"><ele>422.006317</ele><time>2021-09-01T10:54:12Z</time><extensions><speed>1.017732</speed><course>314.759003</course><hAcc>0.881893</hAcc><vAcc>0.694281</vAcc></extensions></trkpt>
      <trkpt lon="-3.144734" lat="53.018763"><ele>422.092194</ele><time>2021-09-01T10:54:13Z</time><extensions><speed>1.024988</speed><course>306.430359</course><hAcc>0.881943</hAcc><vAcc>0.694479</vAcc></extensions></trkpt>
      <trkpt lon="-3.144749" lat="53.018761"><ele>422.177673</ele><time>2021-09-01T10:54:14Z</time><extensions><speed>1.032041</speed><course>312.642456</course><hAcc>0.881995</hAcc><vAcc>0.694677</vAcc></extensions></trkpt>
      <trkpt lon="-3.144764" lat="53.018759"><ele>422.263519</ele><time>2021-09-01T10:54:15Z</time><extensions><speed>1.038873</speed><course>309.329712</course><hAcc>0.882045</hAcc><vAcc>0.694859</vAcc></extensions></trkpt>
      <trkpt lon="-3.144779" lat="53.018756"><ele>422.350311</ele><time>2021-09-01T10:54:16Z</time><extensions><speed>1.045357</speed><course>306.517120</course><hAcc>0.882091</hAcc><vAcc>0.695017</vAcc></extensions></trkpt>
      <trkpt lon="-3.144794" lat="53.018754"><ele>422.438599</ele><time>2021-09-01T10:54:17Z</time><extensions><speed>1.051021</speed><course>302.169647</course><hAcc>0.882132</hAcc><vAcc>0.695145</vAcc></extensions></trkpt>
      <trkpt lon="-3.144809" lat="53.018752"><ele>422.528717</ele><time>2021-09-01T10:54:18Z</time><extensions><speed>1.056113</speed><course>299.953156</course><hAcc>0.882167</hAcc><vAcc>0.695243</vAcc></extensions></trkpt>
      <trkpt lon="-3.144824" lat="53.018749"><ele>422.620758</ele><time>2021-09-01T10:54:19Z</time><extensions><speed>1.060822</speed><course>299.473511</course><hAcc>0.882197</hAcc><vAcc>0.695317</vAcc></extensions></trkpt>
      <trkpt lon="-3.144840" lat="53.018747"><ele>422.714478</ele><time>2021-09-01T10:54:20Z</time><extensions><speed>1.065006</speed><course>298.103729</course><hAcc>0.882224</hAcc><vAcc>0.695376</vAcc></extensions></trkpt>
      <trkpt lon="-3.144855" lat="53.018744"><ele>422.809540</ele><time>2021-09-01T10:54:21Z</time><extensions><speed>1.068520</speed><course>294.101929</course><hAcc>0.882249</hAcc><vAcc>0.695428</vAcc></extensions></trkpt>
      <trkpt lon="-3.144870" lat="53.018742"><ele>422.905823</ele><time>2021-09-01T10:54:22Z</time><extensions><speed>1.071522</speed><course>298.669067</course><hAcc>0.882275</hAcc><vAcc>0.695481</vAcc></extensions></trkpt>
      <trkpt lon="-3.144886" lat="53.018739"><ele>423.003479</ele><time>2021-09-01T10:54:23Z</time><extensions><speed>1.074101</speed><course>297.460327</course><hAcc>0.882305</hAcc><vAcc>0.695543</vAcc></extensions></trkpt>
      <trkpt lon="-3.144901" lat="53.018736"><ele>423.102844</ele><time>2021-09-01T10:54:24Z</time><extensions><speed>1.076416</speed><course>300.643127</course><hAcc>0.882342</hAcc><vAcc>0.695624</vAcc></extensions></trkpt>
      <trkpt lon="-3.144916" lat="53.018734"><ele>423.203979</ele><time>2021-09-01T10:54:25Z</time><extensions><speed>1.078648</speed><course>300.762909</course><hAcc>0.882388</hAcc><vAcc>0.695735</vAcc></extensions></trkpt>
      <trkpt lon="-3.144932" lat="53.018730"><ele>423.306732</ele><time>2021-09-01T10:54:26Z</time><extensions><speed>1.080612</speed><course>306.221161</course><hAcc>0.882447</hAcc><vAcc>0.695887</vAcc></extensions></trkpt>
      <trkpt lon="-3.144947" lat="53.018727"><ele>423.410797</ele><time>2021-09-01T10:54:27Z</time><extensions><speed>1.081806</speed><course>311.753571</course><hAcc>0.882520</hAcc><vAcc>0.696088</vAcc></extensions></trkpt>
      <trkpt lon="-3.144962" lat="53.018724"><ele>423.516052</ele><time>2021-09-01T10:54:28Z</time><extensions><speed>1.081497</speed><course>314.039551</course><hAcc>0.882609</hAcc><vAcc>0.696346</vAcc></extensions></trkpt>
      <trkpt lon="-3.144977" lat="53.018720"><ele>423.622253</ele><time>2021-09-01T10:54:30Z</time><extensions><speed>1.079850</speed><course>316.125336</course><hAcc>0.882696</hAcc><vAcc>0.696650</vAcc></extensions></trkpt>
      <trkpt lon="-3.144992" lat="53.018716"><ele>423.728668</ele><time>2021-09-01T10:54:31Z</time><extensions><speed>1.076581</speed><course>313.054962</course><hAcc>0.882778</hAcc><vAcc>0.696991</vAcc></extensions></trkpt>
      <trkpt lon="-3.145006" lat="53.018712"><ele>423.834930</ele><time>2021-09-01T10:54:32Z</time><extensions><speed>1.070461</speed><course>309.718231</course><hAcc>0.882872</hAcc><vAcc>0.697367</vAcc></extensions></trkpt>
      <trkpt lon="-3.145020" lat="53.018708"><ele>423.940338</ele><time>2021-09-01T10:54:33Z</time><extensions><speed>1.060826</speed><course>315.993652</course><hAcc>0.882972</hAcc><vAcc>0.697758</vAcc></extensions></trkpt>
      <trkpt lon="-3.145034" lat="53.018703"><ele>424.043976</ele><time>2021-09-01T10:54:34Z</time><extensions><speed>1.047568</speed><course>314.639465</course><hAcc>0.883075</hAcc><vAcc>0.698149</vAcc></extensions></trkpt>
      <trkpt lon="-3.145048" lat="53.018699"><ele>424.144897</ele><time>2021-09-01T10:54:35Z</time><extensions><speed>1.032126</speed><course>314.699524</course><hAcc>0.883177</hAcc><vAcc>0.698529</vAcc></extensions></trkpt>
      <trkpt lon="-3.145061" lat="53.018695"><ele>424.242218</ele><time>2021-09-01T10:54:35Z</time><extensions><speed>1.016293</speed><course>315.537170</course><hAcc>0.883293</hAcc><vAcc>0.698903</vAcc></extensions></trkpt>
      <trkpt lon="-3.145074" lat="53.018690"><ele>424.335876</ele><time>2021-09-01T10:54:36Z</time><extensions><speed>1.000783</speed><course>315.384186</course><hAcc>0.883423</hAcc><vAcc>0.699273</vAcc></extensions></trkpt>
      <trkpt lon="-3.145087" lat="53.018686"><ele>424.426208</ele><time>2021-09-01T10:54:37Z</time><extensions><speed>0.985885</speed><course>316.068207</course><hAcc>0.883546</hAcc><vAcc>0.699633</vAcc></extensions></trkpt>
      <trkpt lon="-3.145099" lat="53.018681"><ele>424.514282</ele><time>2021-09-01T10:54:38Z</time><extensions><speed>0.971187</speed><course>319.526184</course><hAcc>0.883664</hAcc><vAcc>0.699983</vAcc></extensions></trkpt>
      <trkpt lon="-3.145112" lat="53.018676"><ele>424.601166</ele><time>2021-09-01T10:54:39Z</time><extensions><speed>0.955722</speed><course>322.032959</course><hAcc>0.883775</hAcc><vAcc>0.700320</vAcc></extensions></trkpt>
      <trkpt lon="-3.145123" lat="53.018672"><ele>424.687866</ele><time>2021-09-01T10:54:40Z</time><extensions><speed>0.938575</speed><course>326.209290</course><hAcc>0.883881</hAcc><vAcc>0.700639</vAcc></extensions></trkpt>
      <trkpt lon="-3.145135" lat="53.018667"><ele>424.775146</ele><time>2021-09-01T10:54:41Z</time><extensions><speed>0.920184</speed><course>324.142303</course><hAcc>0.883980</hAcc><vAcc>0.700937</vAcc></extensions></trkpt>
      <trkpt lon="-3.145146" lat="53.018663"><ele>424.863617</ele><time>2021-09-01T10:54:42Z</time><extensions><speed>0.901848</speed><course>332.193542</course><hAcc>0.884072</hAcc><vAcc>0.701212</vAcc></extensions></trkpt>
      <trkpt lon="-3.145157" lat="53.018658"><ele>424.953766</ele><time>2021-09-01T10:54:44Z</time><extensions><speed>0.884834</speed><course>329.558014</course><hAcc>0.884136</hAcc><vAcc>0.701450</vAcc></extensions></trkpt>
      <trkpt lon="-3.145168" lat="53.018653"><ele>425.045807</ele><time>2021-09-01T10:54:45Z</time><extensions><speed>0.870611</speed><course>323.309692</course><hAcc>0.884171</hAcc><vAcc>0.701646</vAcc></extensions></trkpt>
      <trkpt lon="-3.145178" lat="53.018649"><ele>425.140167</ele><time>2021-09-01T10:54:45Z</time><extensions><speed>0.860584</speed><course>319.992767</course><hAcc>0.884210</hAcc><vAcc>0.701821</vAcc></extensions></trkpt>
      <trkpt lon="-3.145188" lat="53.018644"><ele>425.237305</ele><time>2021-09-01T10:54:46Z</time><extensions><speed>0.856053</speed><course>322.539886</course><hAcc>0.884250</hAcc><vAcc>0.701966</vAcc></extensions></trkpt>
      <trkpt lon="-3.145199" lat="53.018639"><ele>425.337402</ele><time>2021-09-01T10:54:47Z</time><extensions><speed>0.858052</speed><course>317.532928</course><hAcc>0.884270</hAcc><vAcc>0.702054</vAcc></extensions></trkpt>
      <trkpt lon="-3.145209" lat="53.018635"><ele>425.440887</ele><time>2021-09-01T10:54:48Z</time><extensions><speed>0.866466</speed><course>314.725220</course><hAcc>0.884268</hAcc><vAcc>0.702071</vAcc></extensions></trkpt>
      <trkpt lon="-3.145219" lat="53.018630"><ele>425.548157</ele><time>2021-09-01T10:54:49Z</time><extensions><speed>0.879484</speed><course>325.463684</course><hAcc>0.884243</hAcc><vAcc>0.702004</vAcc></extensions></trkpt>
      <trkpt lon="-3.145230" lat="53.018626"><ele>425.659363</ele><time>2021-09-01T10:54:50Z</time><extensions><speed>0.894744</speed><course>326.490570</course><hAcc>0.884194</hAcc><vAcc>0.701849</vAcc></extensions></trkpt>
      <trkpt lon="-3.145241" lat="53.018621"><ele>425.774384</ele><time>2021-09-01T10:54:51Z</time><extensions><speed>0.910389</speed><course>316.111328</course><hAcc>0.884123</hAcc><vAcc>0.701610</vAcc></extensions></trkpt>
      <trkpt lon="-3.145252" lat="53.018616"><ele>425.893097</ele><time>2021-09-01T10:54:52Z</time><extensions><speed>0.925001</speed><course>316.470520</course><hAcc>0.884032</hAcc><vAcc>0.701294</vAcc></extensions></trkpt>
      <trkpt lon="-3.145264" lat="53.018612"><ele>426.015350</ele><time>2021-09-01T10:54:53Z</time><extensions><speed>0.938078</speed><course>317.921600</course><hAcc>0.883922</hAcc><vAcc>0.700908</vAcc></extensions></trkpt>
      <trkpt lon="-3.145276" lat="53.018607"><ele>426.140900</ele><time>2021-09-01T10:54:54Z</time><extensions><speed>0.950453</speed><course>317.925903</course><hAcc>0.883799</hAcc><vAcc>0.700466</vAcc></extensions></trkpt>
      <trkpt lon="-3.145288" lat="53.018603"><ele>426.269501</ele><time>2021-09-01T10:54:55Z</time><extensions><speed>0.963220</speed><course>316.840515</course><hAcc>0.883668</hAcc><vAcc>0.699985</vAcc></extensions></trkpt>
      <trkpt lon="-3.145301" lat="53.018599"><ele>426.401184</ele><time>2021-09-01T10:54:56Z</time><extensions><speed>0.977170</speed><course>321.987762</course><hAcc>0.883534</hAcc><vAcc>0.699491</vAcc></extensions></trkpt>
      <trkpt lon="-3.145314" lat="53.018594"><ele>426.535797</ele><time>2021-09-01T10:54:57Z</time><extensions><speed>0.992649</speed><course>314.291290</course><hAcc>0.883406</hAcc><vAcc>0.699012</vAcc></extensions></trkpt>
      <trkpt lon="-3.145327" lat="53.018590"><ele>426.672821</ele><time>2021-09-01T10:54:58Z</time><extensions><speed>1.009037</speed><course>311.665222</course><hAcc>0.883289</hAcc><vAcc>0.698579</vAcc></extensions></trkpt>
      <trkpt lon="-3.145341" lat="53.018586"><ele>426.811737</ele><time>2021-09-01T10:54:59Z</time><extensions><speed>1.026034</speed><course>315.645782</course><hAcc>0.883190</hAcc><vAcc>0.698217</vAcc></extensions></trkpt>
      <trkpt lon="-3.145354" lat="53.018582"><ele>426.952362</ele><time>2021-09-01T10:55:00Z</time><extensions><speed>1.043664</speed><course>312.390594</course><hAcc>0.883112</hAcc><vAcc>0.697943</vAcc></extensions></trkpt>
      <trkpt lon="-3.145369" lat="53.018578"><ele>427.094727</ele><time>2021-09-01T10:55:01Z</time><extensions><speed>1.061951</speed><course>315.968140</course><hAcc>0.883060</hAcc><vAcc>0.697768</vAcc></extensions></trkpt>
      <trkpt lon="-3.145383" lat="53.018574"><ele>427.238983</ele><time>2021-09-01T10:55:02Z</time><extensions><speed>1.080831</speed><course>305.843231</course><hAcc>0.883035</hAcc><vAcc>0.697691</vAcc></extensions></trkpt>
      <trkpt lon="-3.145398" lat="53.018570"><ele>427.385468</ele><time>2021-09-01T10:55:03Z</time><extensions><speed>1.099922</speed><course>307.428955</course><hAcc>0.883037</hAcc><vAcc>0.697712</vAcc></extensions></trkpt>
      <trkpt lon="-3.145413" lat="53.018566"><ele>427.534821</ele><time>2021-09-01T10:55:04Z</time><extensions><speed>1.118872</speed><course>303.591888</course><hAcc>0.883066</hAcc><vAcc>0.697825</vAcc></extensions></trkpt>
      <trkpt lon="-3.145429" lat="53.018562"><ele>427.687866</ele><time>2021-09-01T10:55:05Z</time><extensions><speed>1.136948</speed><course>302.311584</course><hAcc>0.883118</hAcc><vAcc>0.698022</vAcc></extensions></trkpt>
      <trkpt lon="-3.145445" lat="53.018558"><ele>427.845215</ele><time>2021-09-01T10:55:06Z</time><extensions><speed>1.153077</speed><course>296.010498</course><hAcc>0.883190</hAcc><vAcc>0.698289</vAcc></extensions></trkpt>
      <trkpt lon="-3.145460" lat="53.018554"><ele>428.007019</ele><time>2021-09-01T10:55:07Z</time><extensions><speed>1.166659</speed><course>298.597748</course><hAcc>0.883277</hAcc><vAcc>0.698608</vAcc></extensions></trkpt>
      <trkpt lon="-3.145476" lat="53.018550"><ele>428.173462</ele><time>2021-09-01T10:55:08Z</time><extensions><speed>1.177384</speed><course>307.419373</course><hAcc>0.883375</hAcc><vAcc>0.698961</vAcc></extensions></trkpt>
      <trkpt lon="-3.145493" lat="53.018546"><ele>428.344788</ele><time>2021-09-01T10:55:09Z</time><extensions><speed>1.184381</speed><course>311.127045</course><hAcc>0.883476</hAcc><vAcc>0.699329</vAcc></extensions></trkpt>
      <trkpt lon="-3.145509" lat="53.018541"><ele>428.520935</ele><time>2021-09-01T10:55:10Z</time><extensions><speed>1.186897</speed><course>308.779785</course><hAcc>0.883575</hAcc><vAcc>0.699696</vAcc></extensions></trkpt>
      <trkpt lon="-3.145525" lat="53.018537"><ele>428.701233</ele><time>2021-09-01T10:55:11Z</time><extensions><speed>1.184365</speed><course>310.817932</course><hAcc>0.883664</hAcc><vAcc>0.700040</vAcc></extensions></trkpt>
      <trkpt lon="-3.145541" lat="53.018533"><ele>428.884613</ele><time>2021-09-01T10:55:12Z</time><extensions><speed>1.177038</speed><course>313.903961</course><hAcc>0.883740</hAcc><vAcc>0.700341</vAcc></extensions></trkpt>
      <trkpt lon="-3.145557" lat="53.018529"><ele>429.069366</ele><time>2021-09-01T10:55:13Z</time><extensions><speed>1.166173</speed><course>312.113068</course><hAcc>0.883794</hAcc><vAcc>0.700574</vAcc></extensions></trkpt>
      <trkpt lon="-3.145573" lat="53.018525"><ele>429.253510</ele><time>2021-09-01T10:55:14Z</time><extensions><speed>1.152877</speed><course>298.693726</course><hAcc>0.883824</hAcc><vAcc>0.700716</vAcc></extensions></trkpt>
      <trkpt lon="-3.145589" lat="53.018521"><ele>429.435547</ele><time>2021-09-01T10:55:15Z</time><extensions><speed>1.137569</speed><course>304.126526</course><hAcc>0.883825</hAcc><vAcc>0.700749</vAcc></extensions></trkpt>
      <trkpt lon="-3.145604" lat="53.018517"><ele>429.614532</ele><time>2021-09-01T10:55:16Z</time><extensions><speed>1.120490</speed><course>307.202972</course><hAcc>0.883797</hAcc><vAcc>0.700661</vAcc></extensions></trkpt>
      <trkpt lon="-3.145620" lat="53.018513"><ele>429.789673</ele><time>2021-09-01T10:55:17Z</time><extensions><speed>1.102704</speed><course>306.849365</course><hAcc>0.883740</hAcc><vAcc>0.700454</vAcc></extensions></trkpt>
      <trkpt lon="-3.145635" lat="53.018510"><ele>429.960358</ele><time>2021-09-01T10:55:18Z</time><extensions><speed>1.084882</speed><course>311.228149</course><hAcc>0.883657</hAcc><vAcc>0.700137</vAcc></extensions></trkpt>
      <trkpt lon="-3.145650" lat="53.018507"><ele>430.126251</ele><time>2021-09-01T10:55:19Z</time><extensions><speed>1.067122</speed><course>314.984741</course><hAcc>0.883553</hAcc><vAcc>0.699733</vAcc></extensions></trkpt>
      <trkpt lon="-3.145665" lat="53.018504"><ele>430.287262</ele><time>2021-09-01T10:55:20Z</time><extensions><speed>1.049753</speed><course>312.149628</course><hAcc>0.883433</hAcc><vAcc>0.699273</vAcc></extensions></trkpt>
      <trkpt lon="-3.145680" lat="53.018501"><ele>430.443542</ele><time>2021-09-01T10:55:21Z</time><extensions><speed>1.033469</speed><course>303.811646</course><hAcc>0.883305</hAcc><vAcc>0.698789</vAcc></extensions></trkpt>
      <trkpt lon="-3.145694" lat="53.018498"><ele>430.595245</ele><time>2021-09-01T10:55:22Z</time><extensions><speed>1.019116</speed><course>306.939087</course><hAcc>0.883176</hAcc><vAcc>0.698310</vAcc></extensions></trkpt>
      <trkpt lon="-3.145709" lat="53.018495"><ele>430.742462</ele><time>2021-09-01T10:55:23Z</time><extensions><speed>1.007041</speed><course>305.149933</course><hAcc>0.883053</hAcc><vAcc>0.697861</vAcc></extensions></trkpt>
      <trkpt lon="-3.145723" lat="53.018492"><ele>430.885254</ele><time>2021-09-01T10:55:24Z</time><extensions><speed>0.996849</speed><course>307.460999</course><hAcc>0.882944</hAcc><vAcc>0.697464</vAcc></extensions></trkpt>
      <trkpt lon="-3.145737" lat="53.018489"><ele>431.023804</ele><time>2021-09-01T10:55:25Z</time><extensions><speed>0.987584</speed><course>310.556549</course><hAcc>0.882853</hAcc><vAcc>0.697138</vAcc></extensions></trkpt>
      <trkpt lon="-3.145750" lat="53.018486"><ele>431.158539</ele><time>2021-09-01T10:55:26Z</time><extensions><speed>0.978795</speed><course>316.643463</course><hAcc>0.882786</hAcc><vAcc>0.696900</vAcc></extensions></trkpt>
      <trkpt lon="-3.145764" lat="53.018483"><ele>431.290039</ele><time>2021-09-01T10:55:27Z</time><extensions><speed>0.970638</speed><course>310.111420</course><hAcc>0.882745</hAcc><vAcc>0.696764</vAcc></extensions></trkpt>
      <trkpt lon="-3.145777" lat="53.018479"><ele>431.418457</ele><time>2021-09-01T10:55:28Z</time><extensions><speed>0.963371</speed><course>309.394775</course><hAcc>0.882732</hAcc><vAcc>0.696732</vAcc></extensions></trkpt>
      <trkpt lon="-3.145790" lat="53.018476"><ele>431.543701</ele><time>2021-09-01T10:55:29Z</time><extensions><speed>0.957517</speed><course>312.734375</course><hAcc>0.882747</hAcc><vAcc>0.696801</vAcc></extensions></trkpt>
      <trkpt lon="-3.145803" lat="53.018472"><ele>431.665710</ele><time>2021-09-01T10:55:30Z</time><extensions><speed>0.953922</speed><course>307.110260</course><hAcc>0.882787</hAcc><vAcc>0.696960</vAcc></extensions></trkpt>
      <trkpt lon="-3.145816" lat="53.018468"><ele>431.784546</ele><time>2021-09-01T10:55:31Z</time><extensions><speed>0.952538</speed><course>304.794312</course><hAcc>0.882848</hAcc><vAcc>0.697195</vAcc></extensions></trkpt>
      <trkpt lon="-3.145828" lat="53.018464"><ele>431.900269</ele><time>2021-09-01T10:55:32Z</time><extensions><speed>0.952067</speed><course>309.669006</course><hAcc>0.882927</hAcc><vAcc>0.697490</vAcc></extensions></trkpt>
      <trkpt lon="-3.145841" lat="53.018460"><ele>432.012726</ele><time>2021-09-01T10:55:33Z</time><extensions><speed>0.951317</speed><course>309.747101</course><hAcc>0.883018</hAcc><vAcc>0.697829</vAcc></extensions></trkpt>
      <trkpt lon="-3.145853" lat="53.018456"><ele>432.121674</ele><time>2021-09-01T10:55:34Z</time><extensions><speed>0.949475</speed><course>308.451904</course><hAcc>0.883115</hAcc><vAcc>0.698193</vAcc></extensions></trkpt>
      <trkpt lon="-3.145865" lat="53.018451"><ele>432.226868</ele><time>2021-09-01T10:55:35Z</time><extensions><speed>0.945796</speed><course>313.674774</course><hAcc>0.883213</hAcc><vAcc>0.698559</vAcc></extensions></trkpt>
      <trkpt lon="-3.145876" lat="53.018446"><ele>432.328064</ele><time>2021-09-01T10:55:36Z</time><extensions><speed>0.939688</speed><course>310.174561</course><hAcc>0.883304</hAcc><vAcc>0.698905</vAcc></extensions></trkpt>
      <trkpt lon="-3.145888" lat="53.018442"><ele>432.425262</ele><time>2021-09-01T10:55:37Z</time><extensions><speed>0.930835</speed><course>312.894348</course><hAcc>0.883385</hAcc><vAcc>0.699206</vAcc></extensions></trkpt>
      <trkpt lon="-3.145900" lat="53.018437"><ele>432.518646</ele><time>2021-09-01T10:55:38Z</time><extensions><speed>0.919517</speed><course>309.740997</course><hAcc>0.883449</hAcc><vAcc>0.699440</vAcc></extensions></trkpt>
      <trkpt lon="-3.145911" lat="53.018433"><ele>432.608856</ele><time>2021-09-01T10:55:39Z</time><extensions><speed>0.906402</speed><course>309.271240</course><hAcc>0.883492</hAcc><vAcc>0.699592</vAcc></extensions></trkpt>
      <trkpt lon="-3.145923" lat="53.018429"><ele>432.696960</ele><time>2021-09-01T10:55:40Z</time><extensions><speed>0.891962</speed><course>309.840485</course><hAcc>0.883514</hAcc><vAcc>0.699657</vAcc></extensions></trkpt>
      <trkpt lon="-3.145934" lat="53.018425"><ele>432.783569</ele><time>2021-09-01T10:55:41Z</time><extensions><speed>0.876999</speed><course>308.054108</course><hAcc>0.883511</hAcc><vAcc>0.699635</vAcc></extensions></trkpt>
      <trkpt lon="-3.145945" lat="53.018421"><ele>432.868713</ele><time>2021-09-01T10:55:42Z</time><extensions><speed>0.863026</speed><course>306.226685</course><hAcc>0.883483</hAcc><vAcc>0.699531</vAcc></extensions></trkpt>
      <trkpt lon="-3.145956" lat="53.018417"><ele>432.952271</ele><time>2021-09-01T10:55:43Z</time><extensions><speed>0.851398</speed><course>316.211884</course><hAcc>0.883431</hAcc><vAcc>0.699350</vAcc></extensions></trkpt>
      <trkpt lon="-3.145968" lat="53.018413"><ele>433.034912</ele><time>2021-09-01T10:55:44Z</time><extensions><speed>0.843085</speed><course>312.798523</course><hAcc>0.883357</hAcc><vAcc>0.699101</vAcc></extensions></trkpt>
      <trkpt lon="-3.145979" lat="53.018410"><ele>433.117798</ele><time>2021-09-01T10:55:45Z</time><extensions><speed>0.839415</speed><course>314.823364</course><hAcc>0.883262</hAcc><vAcc>0.698788</vAcc></extensions></trkpt>
      <trkpt lon="-3.145990" lat="53.018407"><ele>433.202209</ele><time>2021-09-01T10:55:46Z</time><extensions><speed>0.841644</speed><course>317.560303</course><hAcc>0.883149</hAcc><vAcc>0.698417</vAcc></extensions></trkpt>
      <trkpt lon="-3.146001" lat="53.018404"><ele>433.289551</ele><time>2021-09-01T10:55:47Z</time><extensions><speed>0.849575</speed><course>313.870911</course><hAcc>0.883020</hAcc><vAcc>0.697995</vAcc></extensions></trkpt>
      <trkpt lon="-3.146013" lat="53.018401"><ele>433.381042</ele><time>2021-09-01T10:55:48Z</time><extensions><speed>0.861670</speed><course>320.858917</course><hAcc>0.882881</hAcc><vAcc>0.697528</vAcc></extensions></trkpt>
      <trkpt lon="-3.146025" lat="53.018397"><ele>433.477448</ele><time>2021-09-01T10:55:49Z</time><extensions><speed>0.876255</speed><course>322.110107</course><hAcc>0.882736</hAcc><vAcc>0.697027</vAcc></extensions></trkpt>
      <trkpt lon="-3.146037" lat="53.018394"><ele>433.579163</ele><time>2021-09-01T10:55:50Z</time><extensions><speed>0.892596</speed><course>322.258118</course><hAcc>0.882589</hAcc><vAcc>0.696513</vAcc></extensions></trkpt>
      <trkpt lon="-3.146050" lat="53.018391"><ele>433.686310</ele><time>2021-09-01T10:55:51Z</time><extensions><speed>0.910469</speed><course>323.751770</course><hAcc>0.882447</hAcc><vAcc>0.696006</vAcc></extensions></trkpt>
      <trkpt lon="-3.146062" lat="53.018388"><ele>433.798340</ele><time>2021-09-01T10:55:52Z</time><extensions><speed>0.929433</speed><course>311.017761</course><hAcc>0.882317</hAcc><vAcc>0.695536</vAcc></extensions></trkpt>
      <trkpt lon="-3.146075" lat="53.018385"><ele>433.914368</ele><time>2021-09-01T10:55:53Z</time><extensions><speed>0.949213</speed><course>303.134949</course><hAcc>0.882202</hAcc><vAcc>0.695125</vAcc></extensions></trkpt>
      <trkpt lon="-3.146088" lat="53.018381"><ele>434.033600</ele><time>2021-09-01T10:55:54Z</time><extensions><speed>0.969668</speed><course>305.266266</course><hAcc>0.882110</hAcc><vAcc>0.694796</vAcc></extensions></trkpt>
      <trkpt lon="-3.146102" lat="53.018378"><ele>434.155426</ele><time>2021-09-01T10:55:55Z</time><extensions><speed>0.990398</speed><course>306.244568</course><hAcc>0.882042</hAcc><vAcc>0.694562</vAcc></extensions></trkpt>
      <trkpt lon="-3.146115" lat="53.018374"><ele>434.279083</ele><time>2021-09-01T10:55:56Z</time><extensions><speed>1.010836</speed><course>311.028961</course><hAcc>0.882002</hAcc><vAcc>0.694430</vAcc></extensions></trkpt>
      <trkpt lon="-3.146129" lat="53.018371"><ele>434.403870</ele><time>2021-09-01T10:55:57Z</time><extensions><speed>1.031160</speed><course>304.990997</course><hAcc>0.881991</hAcc><vAcc>0.694397</vAcc></extensions></trkpt>
      <trkpt lon="-3.146144" lat="53.018367"><ele>434.529388</ele><time>2021-09-01T10:55:58Z</time><extensions><speed>1.051986</speed><course>305.619354</course><hAcc>0.882006</hAcc><vAcc>0.694459</vAcc></extensions></trkpt>
      <trkpt lon="-3.146158" lat="53.018363"><ele>434.655487</ele><time>2021-09-01T10:55:59Z</time><extensions><speed>1.073103</speed><course>319.038269</course><hAcc>0.882047</hAcc><vAcc>0.694609</vAcc></extensions></trkpt>
      <trkpt lon="-3.146173" lat="53.018360"><ele>434.782013</ele><time>2021-09-01T10:56:00Z</time><extensions><speed>1.093292</speed><course>314.772644</course><hAcc>0.882110</hAcc><vAcc>0.694839</vAcc></extensions></trkpt>
      <trkpt lon="-3.146188" lat="53.018356"><ele>434.908722</ele><time>2021-09-01T10:56:01Z</time><extensions><speed>1.111402</speed><course>314.865356</course><hAcc>0.882189</hAcc><vAcc>0.695139</vAcc></extensions></trkpt>
      <trkpt lon="-3.146204" lat="53.018352"><ele>435.035370</ele><time>2021-09-01T10:56:02Z</time><extensions><speed>1.127447</speed><course>315.584076</course><hAcc>0.882280</hAcc><vAcc>0.695494</vAcc></extensions></trkpt>
      <trkpt lon="-3.146220" lat="53.018349"><ele>435.161743</ele><time>2021-09-01T10:56:03Z</time><extensions><speed>1.141804</speed><course>318.301117</course><hAcc>0.882376</hAcc><vAcc>0.695879</vAcc></extensions></trkpt>
      <trkpt lon="-3.146236" lat="53.018345"><ele>435.287781</ele><time>2021-09-01T10:56:04Z</time><extensions><speed>1.154446</speed><course>308.957520</course><hAcc>0.882468</hAcc><vAcc>0.696262</vAcc></extensions></trkpt>
      <trkpt lon="-3.146252" lat="53.018342"><ele>435.413269</ele><time>2021-09-01T10:56:05Z</time><extensions><speed>1.165013</speed><course>309.679749</course><hAcc>0.882551</hAcc><vAcc>0.696606</vAcc></extensions></trkpt>
      <trkpt lon="-3.146269" lat="53.018339"><ele>435.537659</ele><time>2021-09-01T10:56:06Z</time><extensions><speed>1.172868</speed><course>315.508118</course><hAcc>0.882617</hAcc><vAcc>0.696876</vAcc></extensions></trkpt>
      <trkpt lon="-3.146285" lat="53.018335"><ele>435.660217</ele><time>2021-09-01T10:56:07Z</time><extensions><speed>1.177572</speed><course>315.740204</course><hAcc>0.882661</hAcc><vAcc>0.697044</vAcc></extensions></trkpt>
      <trkpt lon="-3.146302" lat="53.018332"><ele>435.780426</ele><time>2021-09-01T10:56:08Z</time><extensions><speed>1.179020</speed><course>310.654785</course><hAcc>0.882683</hAcc><vAcc>0.697100</vAcc></extensions></trkpt>
      <trkpt lon="-3.146319" lat="53.018329"><ele>435.898010</ele><time>2021-09-01T10:56:09Z</time><extensions><speed>1.176693</speed><course>314.784058</course><hAcc>0.882683</hAcc><vAcc>0.697048</vAcc></extensions></trkpt>
      <trkpt lon="-3.146336" lat="53.018326"><ele>436.013000</ele><time>2021-09-01T10:56:10Z</time><extensions><speed>1.169683</speed><course>306.836517</course><hAcc>0.882664</hAcc><vAcc>0.696912</vAcc></extensions></trkpt>
      <trkpt lon="-3.146352" lat="53.018323"><ele>436.125671</ele><time>2021-09-01T10:56:11Z</time><extensions><speed>1.158773</speed><course>319.014709</course><hAcc>0.882633</hAcc><vAcc>0.696722</vAcc></extensions></trkpt>
      <trkpt lon="-3.146368" lat="53.018319"><ele>436.236206</ele><time>2021-09-01T10:56:12Z</time><extensions><speed>1.145837</speed><course>316.668060</course><hAcc>0.882595</hAcc><vAcc>0.696514</vAcc></extensions></trkpt>
      <trkpt lon="-3.146384" lat="53.018316"><ele>436.344849</ele><time>2021-09-01T10:56:13Z</time><extensions><speed>1.131641</speed><course>317.381256</course><hAcc>0.882558</hAcc><vAcc>0.696321</vAcc></extensions></trkpt>
      <trkpt lon="-3.146400" lat="53.018313"><ele>436.451538</ele><time>2021-09-01T10:56:14Z</time><extensions><speed>1.116621</speed><course>315.522644</course><hAcc>0.882530</hAcc><vAcc>0.696172</vAcc></extensions></trkpt>
      <trkpt lon="-3.146416" lat="53.018309"><ele>436.556061</ele><time>2021-09-01T10:56:15Z</time><extensions><speed>1.101435</speed><course>313.748596</course><hAcc>0.882517</hAcc><vAcc>0.696088</vAcc></extensions></trkpt>
      <trkpt lon="-3.146430" lat="53.018305"><ele>436.658325</ele><time>2021-09-01T10:56:16Z</time><extensions><speed>1.086901</speed><course>311.298676</course><hAcc>0.882524</hAcc><vAcc>0.696084</vAcc></extensions></trkpt>
      <trkpt lon="-3.146445" lat="53.018301"><ele>436.758209</ele><time>2021-09-01T10:56:17Z</time><extensions><speed>1.074040</speed><course>307.453308</course><hAcc>0.882555</hAcc><vAcc>0.696174</vAcc></extensions></trkpt>
      <trkpt lon="-3.146459" lat="53.018296"><ele>436.855743</ele><time>2021-09-01T10:56:18Z</time><extensions><speed>1.064204</speed><course>308.937561</course><hAcc>0.882612</hAcc><vAcc>0.696360</vAcc></extensions></trkpt>
      <trkpt lon="-3.146473" lat="53.018292"><ele>436.951263</ele><time>2021-09-01T10:56:19Z</time><extensions><speed>1.058420</speed><course>304.505646</course><hAcc>0.882695</hAcc><vAcc>0.696641</vAcc></extensions></trkpt>
      <trkpt lon="-3.146486" lat="53.018287"><ele>437.045074</ele><time>2021-09-01T10:56:20Z</time><extensions><speed>1.056845</speed><course>299.094574</course><hAcc>0.882802</hAcc><vAcc>0.697007</vAcc></extensions></trkpt>
      <trkpt lon="-3.146500" lat="53.018282"><ele>437.137054</ele><time>2021-09-01T10:56:21Z</time><extensions><speed>1.059316</speed><course>310.704071</course><hAcc>0.882930</hAcc><vAcc>0.697447</vAcc></extensions></trkpt>
      <trkpt lon="-3.146513" lat="53.018277"><ele>437.227448</ele><time>2021-09-01T10:56:22Z</time><extensions><speed>1.065812</speed><course>308.713898</course><hAcc>0.883075</hAcc><vAcc>0.697945</vAcc></extensions></trkpt>
      <trkpt lon="-3.146526" lat="53.018271"><ele>437.316833</ele><time>2021-09-01T10:56:23Z</time><extensions><speed>1.075778</speed><course>315.990417</course><hAcc>0.883231</hAcc><vAcc>0.698486</vAcc></extensions></trkpt>
      <trkpt lon="-3.146539" lat="53.018265"><ele>437.406006</ele><time>2021-09-01T10:56:24Z</time><extensions><speed>1.087617</speed><course>316.941956</course><hAcc>0.883393</hAcc><vAcc>0.699052</vAcc></extensions></trkpt>
      <trkpt lon="-3.146553" lat="53.018260"><ele>437.495422</ele><time>2021-09-01T10:56:25Z</time><extensions><speed>1.099140</speed><course>326.025696</course><hAcc>0.883552</hAcc><vAcc>0.699621</vAcc></extensions></trkpt>
      <trkpt lon="-3.146566" lat="53.018254"><ele>437.585144</ele><time>2021-09-01T10:56:26Z</time><extensions><speed>1.108627</speed><course>316.997101</course><hAcc>0.883703</hAcc><vAcc>0.700168</vAcc></extensions></trkpt>
      <trkpt lon="-3.146580" lat="53.018249"><ele>437.675079</ele><time>2021-09-01T10:56:27Z</time><extensions><speed>1.115364</speed><course>307.396637</course><hAcc>0.883836</hAcc><vAcc>0.700669</vAcc></extensions></trkpt>
      <trkpt lon="-3.146594" lat="53.018243"><ele>437.765137</ele><time>2021-09-01T10:56:28Z</time><extensions><speed>1.119468</speed><course>307.245117</course><hAcc>0.883946</hAcc><vAcc>0.701092</vAcc></extensions></trkpt>
      <trkpt lon="-3.146608" lat="53.018238"><ele>437.855347</ele><time>2021-09-01T10:56:29Z</time><extensions><speed>1.121491</speed><course>302.943970</course><hAcc>0.884027</hAcc><vAcc>0.701410</vAcc></extensions></trkpt>
      <trkpt lon="-3.146623" lat="53.018233"><ele>437.945892</ele><time>2021-09-01T10:56:30Z</time><extensions><speed>1.121928</speed><course>310.986115</course><hAcc>0.884074</hAcc><vAcc>0.701595</vAcc></extensions></trkpt>
      <trkpt lon="-3.146638" lat="53.018229"><ele>438.037170</ele><time>2021-09-01T10:56:31Z</time><extensions><speed>1.121156</speed><course>317.229156</course><hAcc>0.884086</hAcc><vAcc>0.701631</vAcc></extensions></trkpt>
      <trkpt lon="-3.146653" lat="53.018225"><ele>438.129547</ele><time>2021-09-01T10:56:32Z</time><extensions><speed>1.119739</speed><course>310.287506</course><hAcc>0.884065</hAcc><vAcc>0.701517</vAcc></extensions></trkpt>
      <trkpt lon="-3.146669" lat="53.018221"><ele>438.223297</ele><time>2021-09-01T10:56:33Z</time><extensions><speed>1.117904</speed><course>314.657898</course><hAcc>0.884015</hAcc><vAcc>0.701264</vAcc></extensions></trkpt>
      <trkpt lon="-3.146684" lat="53.018218"><ele>438.318207</ele><time>2021-09-01T10:56:34Z</time><extensions><speed>1.115397</speed><course>316.163879</course><hAcc>0.883941</hAcc><vAcc>0.700900</vAcc></extensions></trkpt>
      <trkpt lon="-3.146700" lat="53.018215"><ele>438.413696</ele><time>2021-09-01T10:56:36Z</time><extensions><speed>1.112230</speed><course>315.280670</course><hAcc>0.883836</hAcc><vAcc>0.700449</vAcc></extensions></trkpt>
      <trkpt lon="-3.146716" lat="53.018212"><ele>438.508881</ele><time>2021-09-01T10:56:37Z</time><extensions><speed>1.108124</speed><course>323.358459</course><hAcc>0.883708</hAcc><vAcc>0.699954</vAcc></extensions></trkpt>
      <trkpt lon="-3.146732" lat="53.018210"><ele>438.603241</ele><time>2021-09-01T10:56:38Z</time><extensions><speed>1.102521</speed><course>323.478973</course><hAcc>0.883586</hAcc><vAcc>0.699477</vAcc></extensions></trkpt>
      <trkpt lon="-3.146748" lat="53.018208"><ele>438.696075</ele><time>2021-09-01T10:56:39Z</time><extensions><speed>1.094971</speed><course>327.884216</course><hAcc>0.883480</hAcc><vAcc>0.699063</vAcc></extensions></trkpt>
      <trkpt lon="-3.146764" lat="53.018206"><ele>438.786957</ele><time>2021-09-01T10:56:40Z</time><extensions><speed>1.085387</speed><course>318.187775</course><hAcc>0.883396</hAcc><vAcc>0.698749</vAcc></extensions></trkpt>
      <trkpt lon="-3.146780" lat="53.018204"><ele>438.875702</ele><time>2021-09-01T10:56:41Z</time><extensions><speed>1.074006</speed><course>318.936035</course><hAcc>0.883342</hAcc><vAcc>0.698562</vAcc></extensions></trkpt>
      <trkpt lon="-3.146796" lat="53.018203"><ele>438.962219</ele><time>2021-09-01T10:56:42Z</time><extensions><speed>1.060897</speed><course>326.780121</course><hAcc>0.883322</hAcc><vAcc>0.698512</vAcc></extensions></trkpt>
      <trkpt lon="-3.146811" lat="53.018201"><ele>439.046661</ele><time>2021-09-01T10:56:43Z</time><extensions><speed>1.046398</speed><course>314.218445</course><hAcc>0.883336</hAcc><vAcc>0.698601</vAcc></extensions></trkpt>
      <trkpt lon="-3.146826" lat="53.018199"><ele>439.129547</ele><time>2021-09-01T10:56:44Z</time><extensions><speed>1.031882</speed><course>317.554047</course><hAcc>0.883384</hAcc><vAcc>0.698823</vAcc></extensions></trkpt>
      <trkpt lon="-3.146841" lat="53.018197"><ele>439.211487</ele><time>2021-09-01T10:56:45Z</time><extensions><speed>1.019261</speed><course>317.225586</course><hAcc>0.883462</hAcc><vAcc>0.699169</vAcc></extensions></trkpt>
      <trkpt lon="-3.146856" lat="53.018194"><ele>439.293091</ele><time>2021-09-01T10:56:45Z</time><extensions><speed>1.009991</speed><course>318.371796</course><hAcc>0.883585</hAcc><vAcc>0.699635</vAcc></extensions></trkpt>
      <trkpt lon="-3.146870" lat="53.018192"><ele>439.375122</ele><time>2021-09-01T10:56:46Z</time><extensions><speed>1.004481</speed><course>319.534454</course><hAcc>0.883748</hAcc><vAcc>0.700199</vAcc></extensions></trkpt>
      <trkpt lon="-3.146884" lat="53.018189"><ele>439.457855</ele><time>2021-09-01T10:56:47Z</time><extensions><speed>1.002392</speed><course>319.948578</course><hAcc>0.883927</hAcc><vAcc>0.700815</vAcc></extensions></trkpt>
      <trkpt lon="-3.146898" lat="53.018186"><ele>439.541046</ele><time>2021-09-01T10:56:48Z</time><extensions><speed>1.002874</speed><course>326.867279</course><hAcc>0.884120</hAcc><vAcc>0.701447</vAcc></extensions></trkpt>
      <trkpt lon="-3.146912" lat="53.018182"><ele>439.624329</ele><time>2021-09-01T10:56:49Z</time><extensions><speed>1.004440</speed><course>319.995087</course><hAcc>0.884322</hAcc><vAcc>0.702071</vAcc></extensions></trkpt>
      <trkpt lon="-3.146926" lat="53.018179"><ele>439.707184</ele><time>2021-09-01T10:56:50Z</time><extensions><speed>1.005501</speed><course>323.754486</course><hAcc>0.884533</hAcc><vAcc>0.702679</vAcc></extensions></trkpt>
      <trkpt lon="-3.146939" lat="53.018175"><ele>439.789154</ele><time>2021-09-01T10:56:51Z</time><extensions><speed>1.005777</speed><course>327.994751</course><hAcc>0.884752</hAcc><vAcc>0.703280</vAcc></extensions></trkpt>
      <trkpt lon="-3.146953" lat="53.018171"><ele>439.870056</ele><time>2021-09-01T10:56:52Z</time><extensions><speed>1.006159</speed><course>338.740143</course><hAcc>0.884980</hAcc><vAcc>0.703898</vAcc></extensions></trkpt>
      <trkpt lon="-3.146966" lat="53.018166"><ele>439.949829</ele><time>2021-09-01T10:56:54Z</time><extensions><speed>1.007143</speed><course>336.648224</course><hAcc>0.885201</hAcc><vAcc>0.704549</vAcc></extensions></trkpt>
      <trkpt lon="-3.146979" lat="53.018162"><ele>440.028503</ele><time>2021-09-01T10:56:55Z</time><extensions><speed>1.008754</speed><course>335.818359</course><hAcc>0.885413</hAcc><vAcc>0.705249</vAcc></extensions></trkpt>
      <trkpt lon="-3.146992" lat="53.018157"><ele>440.106354</ele><time>2021-09-01T10:56:56Z</time><extensions><speed>1.010517</speed><course>332.183533</course><hAcc>0.885635</hAcc><vAcc>0.706011</vAcc></extensions></trkpt>
      <trkpt lon="-3.147005" lat="53.018152"><ele>440.183319</ele><time>2021-09-01T10:56:57Z</time><extensions><speed>1.011850</speed><course>329.123840</course><hAcc>0.885863</hAcc><vAcc>0.706819</vAcc></extensions></trkpt>
      <trkpt lon="-3.147017" lat="53.018147"><ele>440.259155</ele><time>2021-09-01T10:56:58Z</time><extensions><speed>1.013117</speed><course>331.386230</course><hAcc>0.886093</hAcc><vAcc>0.707644</vAcc></extensions></trkpt>
      <trkpt lon="-3.147030" lat="53.018142"><ele>440.333405</ele><time>2021-09-01T10:56:59Z</time><extensions><speed>1.014786</speed><course>327.161377</course><hAcc>0.886321</hAcc><vAcc>0.708454</vAcc></extensions></trkpt>
      <trkpt lon="-3.147042" lat="53.018137"><ele>440.405823</ele><time>2021-09-01T10:57:00Z</time><extensions><speed>1.016622</speed><course>327.868042</course><hAcc>0.886542</hAcc><vAcc>0.709224</vAcc></extensions></trkpt>
      <trkpt lon="-3.147055" lat="53.018132"><ele>440.476440</ele><time>2021-09-01T10:57:01Z</time><extensions><speed>1.018191</speed><course>323.627838</course><hAcc>0.886752</hAcc><vAcc>0.709935</vAcc></extensions></trkpt>
      <trkpt lon="-3.147067" lat="53.018127"><ele>440.545776</ele><time>2021-09-01T10:57:02Z</time><extensions><speed>1.018864</speed><course>324.612000</course><hAcc>0.886947</hAcc><vAcc>0.710574</vAcc></extensions></trkpt>
      <trkpt lon="-3.147079" lat="53.018121"><ele>440.614349</ele><time>2021-09-01T10:57:03Z</time><extensions><speed>1.018365</speed><course>314.250275</course><hAcc>0.887124</hAcc><vAcc>0.711137</vAcc></extensions></trkpt>
      <trkpt lon="-3.147091" lat="53.018116"><ele>440.682709</ele><time>2021-09-01T10:57:04Z</time><extensions><speed>1.016973</speed><course>324.325928</course><hAcc>0.887280</hAcc><vAcc>0.711622</vAcc></extensions></trkpt>
      <trkpt lon="-3.147103" lat="53.018110"><ele>440.751373</ele><time>2021-09-01T10:57:05Z</time><extensions><speed>1.015028</speed><course>323.620239</course><hAcc>0.887415</hAcc><vAcc>0.712031</vAcc></extensions></trkpt>
      <trkpt lon="-3.147115" lat="53.018105"><ele>440.820526</ele><time>2021-09-01T10:57:06Z</time><extensions><speed>1.013213</speed><course>318.647095</course><hAcc>0.887530</hAcc><vAcc>0.712369</vAcc></extensions></trkpt>
      <trkpt lon="-3.147127" lat="53.018099"><ele>440.889893</ele><time>2021-09-01T10:57:07Z</time><extensions><speed>1.012645</speed><course>325.356964</course><hAcc>0.887624</hAcc><vAcc>0.712643</vAcc></extensions></trkpt>
      <trkpt lon="-3.147139" lat="53.018093"><ele>440.958893</ele><time>2021-09-01T10:57:08Z</time><extensions><speed>1.014524</speed><course>319.826599</course><hAcc>0.887700</hAcc><vAcc>0.712860</vAcc></extensions></trkpt>
      <trkpt lon="-3.147151" lat="53.018087"><ele>441.027222</ele><time>2021-09-01T10:57:09Z</time><extensions><speed>1.018999</speed><course>314.735016</course><hAcc>0.887758</hAcc><vAcc>0.713029</vAcc></extensions></trkpt>
      <trkpt lon="-3.147162" lat="53.018082"><ele>441.094940</ele><time>2021-09-01T10:57:10Z</time><extensions><speed>1.025473</speed><course>309.478760</course><hAcc>0.887802</hAcc><vAcc>0.713155</vAcc></extensions></trkpt>
      <trkpt lon="-3.147174" lat="53.018076"><ele>441.162109</ele><time>2021-09-01T10:57:11Z</time><extensions><speed>1.033800</speed><course>319.543488</course><hAcc>0.887833</hAcc><vAcc>0.713243</vAcc></extensions></trkpt>
      <trkpt lon="-3.147186" lat="53.018070"><ele>441.228546</ele><time>2021-09-01T10:57:12Z</time><extensions><speed>1.044010</speed><course>324.087982</course><hAcc>0.887855</hAcc><vAcc>0.713297</vAcc></extensions></trkpt>
      <trkpt lon="-3.147198" lat="53.018064"><ele>441.294159</ele><time>2021-09-01T10:57:13Z</time><extensions><speed>1.055832</speed><course>317.628326</course><hAcc>0.887870</hAcc><vAcc>0.713323</vAcc></extensions></trkpt>
      <trkpt lon="-3.147210" lat="53.018058"><ele>441.358795</ele><time>2021-09-01T10:57:14Z</time><extensions><speed>1.068671</speed><course>311.843903</course><hAcc>0.887880</hAcc><vAcc>0.713327</vAcc></extensions></trkpt>
      <trkpt lon="-3.147223" lat="53.018051"><ele>441.422577</ele><time>2021-09-01T10:57:15Z</time><extensions><speed>1.081989</speed><course>320.026215</course><hAcc>0.887887</hAcc><vAcc>0.713318</vAcc></extensions></trkpt>
      <trkpt lon="-3.147235" lat="53.018045"><ele>441.485840</ele><time>2021-09-01T10:57:16Z</time><extensions><speed>1.094930</speed><course>320.448669</course><hAcc>0.887894</hAcc><vAcc>0.713308</vAcc></extensions></trkpt>
      <trkpt lon="-3.147248" lat="53.018039"><ele>441.548950</ele><time>2021-09-01T10:57:17Z</time><extensions><speed>1.106652</speed><course>324.626526</course><hAcc>0.887902</hAcc><vAcc>0.713309</vAcc></extensions></trkpt>
      <trkpt lon="-3.147261" lat="53.018033"><ele>441.611877</ele><time>2021-09-01T10:57:18Z</time><extensions><speed>1.116907</speed><course>326.167938</course><hAcc>0.887913</hAcc><vAcc>0.713328</vAcc></extensions></trkpt>
      <trkpt lon="-3.147274" lat="53.018027"><ele>441.674713</ele><time>2021-09-01T10:57:19Z</time><extensions><speed>1.126005</speed><course>325.390656</course><hAcc>0.887925</hAcc><vAcc>0.713373</vAcc></extensions></trkpt>
      <trkpt lon="-3.147287" lat="53.018020"><ele>441.737610</ele><time>2021-09-01T10:57:20Z</time><extensions><speed>1.134236</speed><course>314.974457</course><hAcc>0.887939</hAcc><vAcc>0.713440</vAcc></extensions></trkpt>
      <trkpt lon="-3.147301" lat="53.018014"><ele>441.800720</ele><time>2021-09-01T10:57:21Z</time><extensions><speed>1.141367</speed><course>325.724579</course><hAcc>0.887954</hAcc><vAcc>0.713521</vAcc></extensions></trkpt>
      <trkpt lon="-3.147314" lat="53.018008"><ele>441.864105</ele><time>2021-09-01T10:57:22Z</time><extensions><speed>1.147152</speed><course>318.034210</course><hAcc>0.887969</hAcc><vAcc>0.713602</vAcc></extensions></trkpt>
      <trkpt lon="-3.147327" lat="53.018001"><ele>441.927734</ele><time>2021-09-01T10:57:23Z</time><extensions><speed>1.151959</speed><course>313.475250</course><hAcc>0.887981</hAcc><vAcc>0.713671</vAcc></extensions></trkpt>
      <trkpt lon="-3.147341" lat="53.017995"><ele>441.991364</ele><time>2021-09-01T10:57:24Z</time><extensions><speed>1.156307</speed><course>321.089203</course><hAcc>0.887987</hAcc><vAcc>0.713717</vAcc></extensions></trkpt>
      <trkpt lon="-3.147355" lat="53.017989"><ele>442.054932</ele><time>2021-09-01T10:57:25Z</time><extensions><speed>1.160235</speed><course>329.810181</course><hAcc>0.887983</hAcc><vAcc>0.713731</vAcc></extensions></trkpt>
      <trkpt lon="-3.147369" lat="53.017983"><ele>442.118408</ele><time>2021-09-01T10:57:26Z</time><extensions><speed>1.163803</speed><course>327.314850</course><hAcc>0.887965</hAcc><vAcc>0.713704</vAcc></extensions></trkpt>
      <trkpt lon="-3.147383" lat="53.017976"><ele>442.181915</ele><time>2021-09-01T10:57:27Z</time><extensions><speed>1.167560</speed><course>321.503876</course><hAcc>0.887929</hAcc><vAcc>0.713625</vAcc></extensions></trkpt>
      <trkpt lon="-3.147397" lat="53.017970"><ele>442.245850</ele><time>2021-09-01T10:57:28Z</time><extensions><speed>1.171602</speed><course>323.534607</course><hAcc>0.887871</hAcc><vAcc>0.713484</vAcc></extensions></trkpt>
      <trkpt lon="-3.147412" lat="53.017964"><ele>442.310822</ele><time>2021-09-01T10:57:29Z</time><extensions><speed>1.175102</speed><course>325.158722</course><hAcc>0.887785</hAcc><vAcc>0.713265</vAcc></extensions></trkpt>
      <trkpt lon="-3.147426" lat="53.017959"><ele>442.377380</ele><time>2021-09-01T10:57:30Z</time><extensions><speed>1.177289</speed><course>329.447083</course><hAcc>0.887669</hAcc><vAcc>0.712955</vAcc></extensions></trkpt>
      <trkpt lon="-3.147441" lat="53.017953"><ele>442.445984</ele><time>2021-09-01T10:57:31Z</time><extensions><speed>1.177928</speed><course>331.191650</course><hAcc>0.887518</hAcc><vAcc>0.712538</vAcc></extensions></trkpt>
      <trkpt lon="-3.147456" lat="53.017947"><ele>442.516479</ele><time>2021-09-01T10:57:32Z</time><extensions><speed>1.176682</speed><course>334.557068</course><hAcc>0.887331</hAcc><vAcc>0.711998</vAcc></extensions></trkpt>
      <trkpt lon="-3.147470" lat="53.017941"><ele>442.588623</ele><time>2021-09-01T10:57:33Z</time><extensions><speed>1.172939</speed><course>336.690918</course><hAcc>0.887107</hAcc><vAcc>0.711322</vAcc></extensions></trkpt>
      <trkpt lon="-3.147485" lat="53.017936"><ele>442.661865</ele><time>2021-09-01T10:57:34Z</time><extensions><speed>1.166418</speed><course>337.183258</course><hAcc>0.886847</hAcc><vAcc>0.710504</vAcc></extensions></trkpt>
      <trkpt lon="-3.147500" lat="53.017930"><ele>442.735596</ele><time>2021-09-01T10:57:35Z</time><extensions><speed>1.157381</speed><course>318.997711</course><hAcc>0.886554</hAcc><vAcc>0.709542</vAcc></extensions></trkpt>
      <trkpt lon="-3.147514" lat="53.017924"><ele>442.809143</ele><time>2021-09-01T10:57:36Z</time><extensions><speed>1.146701</speed><course>315.791901</course><hAcc>0.886234</hAcc><vAcc>0.708451</vAcc></extensions></trkpt>
      <trkpt lon="-3.147528" lat="53.017919"><ele>442.881744</ele><time>2021-09-01T10:57:37Z</time><extensions><speed>1.135362</speed><course>315.791901</course><hAcc>0.885892</hAcc><vAcc>0.707257</vAcc></extensions></trkpt>
      <trkpt lon="-3.147543" lat="53.017913"><ele>442.953247</ele><time>2021-09-01T10:57:38Z</time><extensions><speed>1.124410</speed><course>315.791901</course><hAcc>0.885537</hAcc><vAcc>0.706000</vAcc></extensions></trkpt>
      <trkpt lon="-3.147556" lat="53.017908"><ele>443.023773</ele><time>2021-09-01T10:57:39Z</time><extensions><speed>1.114801</speed><course>315.791901</course><hAcc>0.885178</hAcc><vAcc>0.704726</vAcc></extensions></trkpt>
      <trkpt lon="-3.147570" lat="53.017902"><ele>443.093414</ele><time>2021-09-01T10:57:40Z</time><extensions><speed>1.107342</speed><course>315.791901</course><hAcc>0.884823</hAcc><vAcc>0.703479</vAcc></extensions></trkpt>
      <trkpt lon="-3.147584" lat="53.017897"><ele>443.162537</ele><time>2021-09-01T10:57:41Z</time><extensions><speed>1.102114</speed><course>315.791901</course><hAcc>0.884481</hAcc><vAcc>0.702300</vAcc></extensions></trkpt>
      <trkpt lon="-3.147597" lat="53.017891"><ele>443.231567</ele><time>2021-09-01T10:57:42Z</time><extensions><speed>1.099114</speed><course>315.791901</course><hAcc>0.884158</hAcc><vAcc>0.701219</vAcc></extensions></trkpt>
      <trkpt lon="-3.147611" lat="53.017885"><ele>443.301025</ele><time>2021-09-01T10:57:43Z</time><extensions><speed>1.098545</speed><course>315.791901</course><hAcc>0.883859</hAcc><vAcc>0.700253</vAcc></extensions></trkpt>
      <trkpt lon="-3.147624" lat="53.017879"><ele>443.371368</ele><time>2021-09-01T10:57:44Z</time><extensions><speed>1.100672</speed><course>315.791901</course><hAcc>0.883586</hAcc><vAcc>0.699404</vAcc></extensions></trkpt>
      <trkpt lon="-3.147637" lat="53.017874"><ele>443.442932</ele><time>2021-09-01T10:57:45Z</time><extensions><speed>1.106165</speed><course>315.791901</course><hAcc>0.883339</hAcc><vAcc>0.698660</vAcc></extensions></trkpt>
      <trkpt lon="-3.147650" lat="53.017868"><ele>443.515808</ele><time>2021-09-01T10:57:46Z</time><extensions><speed>1.115343</speed><course>315.791901</course><hAcc>0.883118</hAcc><vAcc>0.698005</vAcc></extensions></trkpt>
      <trkpt lon="-3.147664" lat="53.017862"><ele>443.589844</ele><time>2021-09-01T10:57:47Z</time><extensions><speed>1.127940</speed><course>315.791901</course><hAcc>0.882920</hAcc><vAcc>0.697417</vAcc></extensions></trkpt>
      <trkpt lon="-3.147677" lat="53.017855"><ele>443.664917</ele><time>2021-09-01T10:57:48Z</time><extensions><speed>1.144042</speed><course>315.791901</course><hAcc>0.882744</hAcc><vAcc>0.696869</vAcc></extensions></trkpt>
      <trkpt lon="-3.147691" lat="53.017849"><ele>443.740784</ele><time>2021-09-01T10:57:49Z</time><extensions><speed>1.163966</speed><course>315.791901</course><hAcc>0.882590</hAcc><vAcc>0.696336</vAcc></extensions></trkpt>
      <trkpt lon="-3.147705" lat="53.017843"><ele>443.817322</ele><time>2021-09-01T10:57:50Z</time><extensions><speed>1.186927</speed><course>315.791901</course><hAcc>0.882458</hAcc><vAcc>0.695798</vAcc></extensions></trkpt>
      <trkpt lon="-3.147719" lat="53.017836"><ele>443.894409</ele><time>2021-09-01T10:57:51Z</time><extensions><speed>1.211914</speed><course>324.368835</course><hAcc>0.882351</hAcc><vAcc>0.695238</vAcc></extensions></trkpt>
      <trkpt lon="-3.147733" lat="53.017829"><ele>443.972015</ele><time>2021-09-01T10:57:52Z</time><extensions><speed>1.238312</speed><course>336.936340</course><hAcc>0.882274</hAcc><vAcc>0.694645</vAcc></extensions></trkpt>
      <trkpt lon="-3.147748" lat="53.017822"><ele>444.050079</ele><time>2021-09-01T10:57:53Z</time><extensions><speed>1.265203</speed><course>334.067902</course><hAcc>0.882232</hAcc><vAcc>0.694016</vAcc></extensions></trkpt>
      <trkpt lon="-3.147762" lat="53.017815"><ele>444.128632</ele><time>2021-09-01T10:57:54Z</time><extensions><speed>1.291290</speed><course>335.500000</course><hAcc>0.882230</hAcc><vAcc>0.693353</vAcc></extensions></trkpt>
      <trkpt lon="-3.147777" lat="53.017807"><ele>444.208008</ele><time>2021-09-01T10:57:55Z</time><extensions><speed>1.315325</speed><course>331.822205</course><hAcc>0.882268</hAcc><vAcc>0.692667</vAcc></extensions></trkpt>
      <trkpt lon="-3.147792" lat="53.017800"><ele>444.288452</ele><time>2021-09-01T10:57:56Z</time><extensions><speed>1.336243</speed><course>332.566284</course><hAcc>0.882340</hAcc><vAcc>0.691968</vAcc></extensions></trkpt>
      <trkpt lon="-3.147808" lat="53.017792"><ele>444.369324</ele><time>2021-09-01T10:57:57Z</time><extensions><speed>1.353455</speed><course>322.442413</course><hAcc>0.882429</hAcc><vAcc>0.691270</vAcc></extensions></trkpt>
      <trkpt lon="-3.147823" lat="53.017784"><ele>444.449249</ele><time>2021-09-01T10:57:58Z</time><extensions><speed>1.367159</speed><course>328.923309</course><hAcc>0.882508</hAcc><vAcc>0.690579</vAcc></extensions></trkpt>
      <trkpt lon="-3.147838" lat="53.017775"><ele>444.526764</ele><time>2021-09-01T10:57:59Z</time><extensions><speed>1.377614</speed><course>332.979462</course><hAcc>0.882540</hAcc><vAcc>0.689902</vAcc></extensions></trkpt>
      <trkpt lon="-3.147853" lat="53.017767"><ele>444.601074</ele><time>2021-09-01T10:58:00Z</time><extensions><speed>1.384712</speed><course>326.583588</course><hAcc>0.882496</hAcc><vAcc>0.689238</vAcc></extensions></trkpt>
      <trkpt lon="-3.147868" lat="53.017758"><ele>444.672241</ele><time>2021-09-01T10:58:01Z</time><extensions><speed>1.389212</speed><course>333.004852</course><hAcc>0.882379</hAcc><vAcc>0.688586</vAcc></extensions></trkpt>
      <trkpt lon="-3.147883" lat="53.017750"><ele>444.740967</ele><time>2021-09-01T10:58:02Z</time><extensions><speed>1.392100</speed><course>328.891602</course><hAcc>0.882222</hAcc><vAcc>0.687955</vAcc></extensions></trkpt>
      <trkpt lon="-3.147898" lat="53.017741"><ele>444.808044</ele><time>2021-09-01T10:58:03Z</time><extensions><speed>1.393482</speed><course>329.156494</course><hAcc>0.882060</hAcc><vAcc>0.687364</vAcc></extensions></trkpt>
      <trkpt lon="-3.147912" lat="53.017732"><ele>444.873779</ele><time>2021-09-01T10:58:04Z</time><extensions><speed>1.392827</speed><course>329.450256</course><hAcc>0.881906</hAcc><vAcc>0.686844</vAcc></extensions></trkpt>
      <trkpt lon="-3.147927" lat="53.017723"><ele>444.938324</ele><time>2021-09-01T10:58:05Z</time><extensions><speed>1.389266</speed><course>329.886902</course><hAcc>0.881756</hAcc><vAcc>0.686424</vAcc></extensions></trkpt>
      <trkpt lon="-3.147942" lat="53.017714"><ele>445.001648</ele><time>2021-09-01T10:58:06Z</time><extensions><speed>1.382597</speed><course>332.708923</course><hAcc>0.881603</hAcc><vAcc>0.686128</vAcc></extensions></trkpt>
      <trkpt lon="-3.147956" lat="53.017706"><ele>445.063660</ele><time>2021-09-01T10:58:07Z</time><extensions><speed>1.373397</speed><course>337.086456</course><hAcc>0.881446</hAcc><vAcc>0.685972</vAcc></extensions></trkpt>
      <trkpt lon="-3.147971" lat="53.017697"><ele>445.124481</ele><time>2021-09-01T10:58:08Z</time><extensions><speed>1.362579</speed><course>335.947693</course><hAcc>0.881285</hAcc><vAcc>0.685972</vAcc></extensions></trkpt>
      <trkpt lon="-3.147986" lat="53.017689"><ele>445.184387</ele><time>2021-09-01T10:58:09Z</time><extensions><speed>1.350872</speed><course>332.293579</course><hAcc>0.881119</hAcc><vAcc>0.686131</vAcc></extensions></trkpt>
      <trkpt lon="-3.148000" lat="53.017681"><ele>445.243561</ele><time>2021-09-01T10:58:10Z</time><extensions><speed>1.338150</speed><course>330.673279</course><hAcc>0.880952</hAcc><vAcc>0.686439</vAcc></extensions></trkpt>
      <trkpt lon="-3.148015" lat="53.017673"><ele>445.302246</ele><time>2021-09-01T10:58:11Z</time><extensions><speed>1.323926</speed><course>325.868774</course><hAcc>0.880796</hAcc><vAcc>0.686872</vAcc></extensions></trkpt>
      <trkpt lon="-3.148030" lat="53.017665"><ele>445.360626</ele><time>2021-09-01T10:58:12Z</time><extensions><speed>1.308586</speed><course>320.652771</course><hAcc>0.880669</hAcc><vAcc>0.687388</vAcc></extensions></trkpt>
      <trkpt lon="-3.148044" lat="53.017657"><ele>445.418823</ele><time>2021-09-01T10:58:13Z</time><extensions><speed>1.293179</speed><course>317.759430</course><hAcc>0.880581</hAcc><vAcc>0.687943</vAcc></extensions></trkpt>
      <trkpt lon="-3.148059" lat="53.017650"><ele>445.477203</ele><time>2021-09-01T10:58:14Z</time><extensions><speed>1.278710</speed><course>312.631989</course><hAcc>0.880532</hAcc><vAcc>0.688493</vAcc></extensions></trkpt>
      <trkpt lon="-3.148074" lat="53.017642"><ele>445.536102</ele><time>2021-09-01T10:58:15Z</time><extensions><speed>1.266627</speed><course>318.114197</course><hAcc>0.880518</hAcc><vAcc>0.689003</vAcc></extensions></trkpt>
      <trkpt lon="-3.148089" lat="53.017635"><ele>445.595703</ele><time>2021-09-01T10:58:16Z</time><extensions><speed>1.257602</speed><course>324.507172</course><hAcc>0.880529</hAcc><vAcc>0.689449</vAcc></extensions></trkpt>
      <trkpt lon="-3.148103" lat="53.017629"><ele>445.656006</ele><time>2021-09-01T10:58:17Z</time><extensions><speed>1.251397</speed><course>327.082703</course><hAcc>0.880556</hAcc><vAcc>0.689818</vAcc></extensions></trkpt>
      <trkpt lon="-3.148118" lat="53.017622"><ele>445.717041</ele><time>2021-09-01T10:58:18Z</time><extensions><speed>1.248378</speed><course>329.958954</course><hAcc>0.880589</hAcc><vAcc>0.690102</vAcc></extensions></trkpt>
      <trkpt lon="-3.148133" lat="53.017615"><ele>445.779114</ele><time>2021-09-01T10:58:19Z</time><extensions><speed>1.248363</speed><course>328.035645</course><hAcc>0.880621</hAcc><vAcc>0.690305</vAcc></extensions></trkpt>
      <trkpt lon="-3.148148" lat="53.017609"><ele>445.842590</ele><time>2021-09-01T10:58:20Z</time><extensions><speed>1.251178</speed><course>327.514526</course><hAcc>0.880647</hAcc><vAcc>0.690434</vAcc></extensions></trkpt>
      <trkpt lon="-3.148164" lat="53.017602"><ele>445.907745</ele><time>2021-09-01T10:58:21Z</time><extensions><speed>1.255731</speed><course>320.027710</course><hAcc>0.880664</hAcc><vAcc>0.690500</vAcc></extensions></trkpt>
      <trkpt lon="-3.148179" lat="53.017596"><ele>445.974335</ele><time>2021-09-01T10:58:22Z</time><extensions><speed>1.259927</speed><course>323.596710</course><hAcc>0.880671</hAcc><vAcc>0.690513</vAcc></extensions></trkpt>
      <trkpt lon="-3.148195" lat="53.017589"><ele>446.041595</ele><time>2021-09-01T10:58:23Z</time><extensions><speed>1.262993</speed><course>326.277405</course><hAcc>0.880670</hAcc><vAcc>0.690484</vAcc></extensions></trkpt>
      <trkpt lon="-3.148210" lat="53.017583"><ele>446.108978</ele><time>2021-09-01T10:58:24Z</time><extensions><speed>1.265041</speed><course>327.083344</course><hAcc>0.880662</hAcc><vAcc>0.690427</vAcc></extensions></trkpt>
      <trkpt lon="-3.148226" lat="53.017577"><ele>446.176361</ele><time>2021-09-01T10:58:25Z</time><extensions><speed>1.266503</speed><course>330.723541</course><hAcc>0.880650</hAcc><vAcc>0.690358</vAcc></extensions></trkpt>
      <trkpt lon="-3.148242" lat="53.017571"><ele>446.243835</ele><time>2021-09-01T10:58:26Z</time><extensions><speed>1.267887</speed><course>328.902985</course><hAcc>0.880637</hAcc><vAcc>0.690292</vAcc></extensions></trkpt>
      <trkpt lon="-3.148259" lat="53.017565"><ele>446.311646</ele><time>2021-09-01T10:58:27Z</time><extensions><speed>1.269382</speed><course>325.540680</course><hAcc>0.880625</hAcc><vAcc>0.690239</vAcc></extensions></trkpt>
      <trkpt lon="-3.148275" lat="53.017560"><ele>446.380219</ele><time>2021-09-01T10:58:28Z</time><extensions><speed>1.270765</speed><course>326.969879</course><hAcc>0.880616</hAcc><vAcc>0.690207</vAcc></extensions></trkpt>
      <trkpt lon="-3.148292" lat="53.017554"><ele>446.449860</ele><time>2021-09-01T10:58:29Z</time><extensions><speed>1.271620</speed><course>320.316467</course><hAcc>0.880611</hAcc><vAcc>0.690202</vAcc></extensions></trkpt>
      <trkpt lon="-3.148308" lat="53.017548"><ele>446.520905</ele><time>2021-09-01T10:58:30Z</time><extensions><speed>1.271665</speed><course>319.871765</course><hAcc>0.880608</hAcc><vAcc>0.690225</vAcc></extensions></trkpt>
      <trkpt lon="-3.148325" lat="53.017543"><ele>446.593842</ele><time>2021-09-01T10:58:31Z</time><extensions><speed>1.270292</speed><course>316.990692</course><hAcc>0.880606</hAcc><vAcc>0.690262</vAcc></extensions></trkpt>
      <trkpt lon="-3.148341" lat="53.017537"><ele>446.669006</ele><time>2021-09-01T10:58:32Z</time><extensions><speed>1.266582</speed><course>317.272278</course><hAcc>0.880601</hAcc><vAcc>0.690289</vAcc></extensions></trkpt>
      <trkpt lon="-3.148357" lat="53.017532"><ele>446.746399</ele><time>2021-09-01T10:58:33Z</time><extensions><speed>1.259741</speed><course>317.305878</course><hAcc>0.880588</hAcc><vAcc>0.690284</vAcc></extensions></trkpt>
      <trkpt lon="-3.148373" lat="53.017526"><ele>446.825867</ele><time>2021-09-01T10:58:34Z</time><extensions><speed>1.249668</speed><course>319.626617</course><hAcc>0.880563</hAcc><vAcc>0.690232</vAcc></extensions></trkpt>
      <trkpt lon="-3.148389" lat="53.017520"><ele>446.906830</ele><time>2021-09-01T10:58:35Z</time><extensions><speed>1.237516</speed><course>316.946777</course><hAcc>0.880525</hAcc><vAcc>0.690124</vAcc></extensions></trkpt>
      <trkpt lon="-3.148404" lat="53.017514"><ele>446.988464</ele><time>2021-09-01T10:58:36Z</time><extensions><speed>1.224548</speed><course>316.848175</course><hAcc>0.880469</hAcc><vAcc>0.689955</vAcc></extensions></trkpt>
      <trkpt lon="-3.148419" lat="53.017507"><ele>447.070068</ele><time>2021-09-01T10:58:37Z</time><extensions><speed>1.212078</speed><course>306.129730</course><hAcc>0.880394</hAcc><vAcc>0.689721</vAcc></extensions></trkpt>
      <trkpt lon="-3.148433" lat="53.017501"><ele>447.151550</ele><time>2021-09-01T10:58:38Z</time><extensions><speed>1.201231</speed><course>311.287872</course><hAcc>0.880300</hAcc><vAcc>0.689426</vAcc></extensions></trkpt>
      <trkpt lon="-3.148447" lat="53.017493"><ele>447.233215</ele><time>2021-09-01T10:58:39Z</time><extensions><speed>1.192256</speed><course>316.150696</course><hAcc>0.880186</hAcc><vAcc>0.689074</vAcc></extensions></trkpt>
      <trkpt lon="-3.148459" lat="53.017486"><ele>447.315063</ele><time>2021-09-01T10:58:40Z</time><extensions><speed>1.185193</speed><course>319.589172</course><hAcc>0.880053</hAcc><vAcc>0.688672</vAcc></extensions></trkpt>
      <trkpt lon="-3.148472" lat="53.017478"><ele>447.396362</ele><time>2021-09-01T10:58:41Z</time><extensions><speed>1.179853</speed><course>317.826752</course><hAcc>0.879903</hAcc><vAcc>0.688219</vAcc></extensions></trkpt>
      <trkpt lon="-3.148483" lat="53.017471"><ele>447.476135</ele><time>2021-09-01T10:58:42Z</time><extensions><speed>1.176060</speed><course>316.582428</course><hAcc>0.879736</hAcc><vAcc>0.687706</vAcc></extensions></trkpt>
      <trkpt lon="-3.148494" lat="53.017462"><ele>447.553497</ele><time>2021-09-01T10:58:43Z</time><extensions><speed>1.173886</speed><course>322.533203</course><hAcc>0.879555</hAcc><vAcc>0.687126</vAcc></extensions></trkpt>
      <trkpt lon="-3.148505" lat="53.017454"><ele>447.627930</ele><time>2021-09-01T10:58:44Z</time><extensions><speed>1.173530</speed><course>322.533203</course><hAcc>0.879366</hAcc><vAcc>0.686486</vAcc></extensions></trkpt>
      <trkpt lon="-3.148515" lat="53.017445"><ele>447.699310</ele><time>2021-09-01T10:58:45Z</time><extensions><speed>1.174998</speed><course>322.533203</course><hAcc>0.879177</hAcc><vAcc>0.685820</vAcc></extensions></trkpt>
      <trkpt lon="-3.148524" lat="53.017436"><ele>447.767731</ele><time>2021-09-01T10:58:46Z</time><extensions><speed>1.177987</speed><course>322.533203</course><hAcc>0.879001</hAcc><vAcc>0.685180</vAcc></extensions></trkpt>
      <trkpt lon="-3.148533" lat="53.017427"><ele>447.833435</ele><time>2021-09-01T10:58:47Z</time><extensions><speed>1.182120</speed><course>322.533203</course><hAcc>0.878851</hAcc><vAcc>0.684627</vAcc></extensions></trkpt>
      <trkpt lon="-3.148542" lat="53.017418"><ele>447.896423</ele><time>2021-09-01T10:58:47Z</time><extensions><speed>1.186787</speed><course>310.635162</course><hAcc>0.878757</hAcc><vAcc>0.684225</vAcc></extensions></trkpt>
      <trkpt lon="-3.148551" lat="53.017409"><ele>447.956757</ele><time>2021-09-01T10:58:48Z</time><extensions><speed>1.191502</speed><course>317.610291</course><hAcc>0.878732</hAcc><vAcc>0.684015</vAcc></extensions></trkpt>
      <trkpt lon="-3.148559" lat="53.017399"><ele>448.013947</ele><time>2021-09-01T10:58:49Z</time><extensions><speed>1.195970</speed><course>306.125671</course><hAcc>0.878768</hAcc><vAcc>0.684018</vAcc></extensions></trkpt>
      <trkpt lon="-3.148567" lat="53.017390"><ele>448.067261</ele><time>2021-09-01T10:58:51Z</time><extensions><speed>1.200149</speed><course>318.134308</course><hAcc>0.878858</hAcc><vAcc>0.684250</vAcc></extensions></trkpt>
      <trkpt lon="-3.148575" lat="53.017380"><ele>448.115875</ele><time>2021-09-01T10:58:52Z</time><extensions><speed>1.203819</speed><course>310.926819</course><hAcc>0.879008</hAcc><vAcc>0.684733</vAcc></extensions></trkpt>
      <trkpt lon="-3.148582" lat="53.017370"><ele>448.159454</ele><time>2021-09-01T10:58:53Z</time><extensions><speed>1.206249</speed><course>312.939606</course><hAcc>0.879240</hAcc><vAcc>0.685496</vAcc></extensions></trkpt>
      <trkpt lon="-3.148590" lat="53.017360"><ele>448.197845</ele><time>2021-09-01T10:58:54Z</time><extensions><speed>1.206667</speed><course>305.606995</course><hAcc>0.879554</hAcc><vAcc>0.686545</vAcc></extensions></trkpt>
      <trkpt lon="-3.148597" lat="53.017350"><ele>448.231140</ele><time>2021-09-01T10:58:55Z</time><extensions><speed>1.204769</speed><course>302.541321</course><hAcc>0.879947</hAcc><vAcc>0.687878</vAcc></extensions></trkpt>
      <trkpt lon="-3.148605" lat="53.017340"><ele>448.259552</ele><time>2021-09-01T10:58:55Z</time><extensions><speed>1.200565</speed><course>303.802917</course><hAcc>0.880431</hAcc><vAcc>0.689499</vAcc></extensions></trkpt>
      <trkpt lon="-3.148612" lat="53.017331"><ele>448.283173</ele><time>2021-09-01T10:58:56Z</time><extensions><speed>1.194532</speed><course>300.395538</course><hAcc>0.880998</hAcc><vAcc>0.691393</vAcc></extensions></trkpt>
      <trkpt lon="-3.148619" lat="53.017321"><ele>448.302002</ele><time>2021-09-01T10:58:57Z</time><extensions><speed>1.187931</speed><course>303.076660</course><hAcc>0.881617</hAcc><vAcc>0.693508</vAcc></extensions></trkpt>
      <trkpt lon="-3.148627" lat="53.017311"><ele>448.316071</ele><time>2021-09-01T10:58:58Z</time><extensions><speed>1.181962</speed><course>301.521118</course><hAcc>0.882274</hAcc><vAcc>0.695782</vAcc></extensions></trkpt>
      <trkpt lon="-3.148634" lat="53.017302"><ele>448.325409</ele><time>2021-09-01T10:58:59Z</time><extensions><speed>1.177091</speed><course>315.953857</course><hAcc>0.882950</hAcc><vAcc>0.698130</vAcc></extensions></trkpt>
      <trkpt lon="-3.148642" lat="53.017292"><ele>448.330292</ele><time>2021-09-01T10:59:00Z</time><extensions><speed>1.173623</speed><course>321.613922</course><hAcc>0.883625</hAcc><vAcc>0.700454</vAcc></extensions></trkpt>
      <trkpt lon="-3.148650" lat="53.017283"><ele>448.331238</ele><time>2021-09-01T10:59:01Z</time><extensions><speed>1.171911</speed><course>320.530426</course><hAcc>0.884279</hAcc><vAcc>0.702667</vAcc></extensions></trkpt>
      <trkpt lon="-3.148657" lat="53.017273"><ele>448.328339</ele><time>2021-09-01T10:59:02Z</time><extensions><speed>1.172151</speed><course>319.105469</course><hAcc>0.884895</hAcc><vAcc>0.704701</vAcc></extensions></trkpt>
      <trkpt lon="-3.148665" lat="53.017264"><ele>448.321747</ele><time>2021-09-01T10:59:03Z</time><extensions><speed>1.174138</speed><course>320.005280</course><hAcc>0.885459</hAcc><vAcc>0.706510</vAcc></extensions></trkpt>
      <trkpt lon="-3.148673" lat="53.017255"><ele>448.311890</ele><time>2021-09-01T10:59:04Z</time><extensions><speed>1.177097</speed><course>320.540527</course><hAcc>0.885959</hAcc><vAcc>0.708071</vAcc></extensions></trkpt>
      <trkpt lon="-3.148682" lat="53.017245"><ele>448.299530</ele><time>2021-09-01T10:59:05Z</time><extensions><speed>1.180048</speed><course>316.635681</course><hAcc>0.886388</hAcc><vAcc>0.709380</vAcc></extensions></trkpt>
      <trkpt lon="-3.148690" lat="53.017236"><ele>448.285614</ele><time>2021-09-01T10:59:06Z</time><extensions><speed>1.182488</speed><course>319.322998</course><hAcc>0.886742</hAcc><vAcc>0.710442</vAcc></extensions></trkpt>
      <trkpt lon="-3.148699" lat="53.017227"><ele>448.270996</ele><time>2021-09-01T10:59:07Z</time><extensions><speed>1.184473</speed><course>319.244141</course><hAcc>0.887019</hAcc><vAcc>0.711266</vAcc></extensions></trkpt>
      <trkpt lon="-3.148708" lat="53.017217"><ele>448.255981</ele><time>2021-09-01T10:59:08Z</time><extensions><speed>1.185937</speed><course>315.425568</course><hAcc>0.887220</hAcc><vAcc>0.711861</vAcc></extensions></trkpt>
      <trkpt lon="-3.148717" lat="53.017208"><ele>448.240875</ele><time>2021-09-01T10:59:09Z</time><extensions><speed>1.187136</speed><course>318.059448</course><hAcc>0.887349</hAcc><vAcc>0.712235</vAcc></extensions></trkpt>
      <trkpt lon="-3.148726" lat="53.017199"><ele>448.226471</ele><time>2021-09-01T10:59:10Z</time><extensions><speed>1.188724</speed><course>318.243683</course><hAcc>0.887409</hAcc><vAcc>0.712395</vAcc></extensions></trkpt>
      <trkpt lon="-3.148735" lat="53.017190"><ele>448.213623</ele><time>2021-09-01T10:59:11Z</time><extensions><speed>1.191099</speed><course>319.840027</course><hAcc>0.887406</hAcc><vAcc>0.712351</vAcc></extensions></trkpt>
      <trkpt lon="-3.148744" lat="53.017181"><ele>448.202972</ele><time>2021-09-01T10:59:12Z</time><extensions><speed>1.194123</speed><course>320.630524</course><hAcc>0.887347</hAcc><vAcc>0.712116</vAcc></extensions></trkpt>
      <trkpt lon="-3.148753" lat="53.017171"><ele>448.194427</ele><time>2021-09-01T10:59:13Z</time><extensions><speed>1.197305</speed><course>318.435181</course><hAcc>0.887239</hAcc><vAcc>0.711711</vAcc></extensions></trkpt>
      <trkpt lon="-3.148762" lat="53.017162"><ele>448.187714</ele><time>2021-09-01T10:59:14Z</time><extensions><speed>1.200016</speed><course>313.959320</course><hAcc>0.887090</hAcc><vAcc>0.711159</vAcc></extensions></trkpt>
      <trkpt lon="-3.148771" lat="53.017153"><ele>448.182556</ele><time>2021-09-01T10:59:15Z</time><extensions><speed>1.201528</speed><course>314.005951</course><hAcc>0.886909</hAcc><vAcc>0.710489</vAcc></extensions></trkpt>
      <trkpt lon="-3.148780" lat="53.017143"><ele>448.178680</ele><time>2021-09-01T10:59:16Z</time><extensions><speed>1.201314</speed><course>315.776367</course><hAcc>0.886706</hAcc><vAcc>0.709734</vAcc></extensions></trkpt>
      <trkpt lon="-3.148789" lat="53.017134"><ele>448.175903</ele><time>2021-09-01T10:59:17Z</time><extensions><speed>1.199297</speed><course>317.643280</course><hAcc>0.886490</hAcc><vAcc>0.708931</vAcc></extensions></trkpt>
      <trkpt lon="-3.148798" lat="53.017125"><ele>448.174194</ele><time>2021-09-01T10:59:18Z</time><extensions><speed>1.195845</speed><course>316.187012</course><hAcc>0.886271</hAcc><vAcc>0.708121</vAcc></extensions></trkpt>
      <trkpt lon="-3.148807" lat="53.017116"><ele>448.173248</ele><time>2021-09-01T10:59:19Z</time><extensions><speed>1.191168</speed><course>313.238525</course><hAcc>0.886056</hAcc><vAcc>0.707343</vAcc></extensions></trkpt>
      <trkpt lon="-3.148816" lat="53.017106"><ele>448.172516</ele><time>2021-09-01T10:59:20Z</time><extensions><speed>1.185461</speed><course>309.102142</course><hAcc>0.885853</hAcc><vAcc>0.706631</vAcc></extensions></trkpt>
      <trkpt lon="-3.148825" lat="53.017097"><ele>448.171631</ele><time>2021-09-01T10:59:21Z</time><extensions><speed>1.179784</speed><course>313.839325</course><hAcc>0.885668</hAcc><vAcc>0.706009</vAcc></extensions></trkpt>
      <trkpt lon="-3.148834" lat="53.017088"><ele>448.170227</ele><time>2021-09-01T10:59:22Z</time><extensions><speed>1.175171</speed><course>315.040405</course><hAcc>0.885504</hAcc><vAcc>0.705486</vAcc></extensions></trkpt>
      <trkpt lon="-3.148844" lat="53.017079"><ele>448.168335</ele><time>2021-09-01T10:59:23Z</time><extensions><speed>1.172153</speed><course>315.010925</course><hAcc>0.885362</hAcc><vAcc>0.705062</vAcc></extensions></trkpt>
      <trkpt lon="-3.148853" lat="53.017071"><ele>448.166290</ele><time>2021-09-01T10:59:24Z</time><extensions><speed>1.171109</speed><course>312.357758</course><hAcc>0.885243</hAcc><vAcc>0.704728</vAcc></extensions></trkpt>
      <trkpt lon="-3.148863" lat="53.017062"><ele>448.164307</ele><time>2021-09-01T10:59:25Z</time><extensions><speed>1.172443</speed><course>316.888885</course><hAcc>0.885146</hAcc><vAcc>0.704468</vAcc></extensions></trkpt>
      <trkpt lon="-3.148874" lat="53.017054"><ele>448.162415</ele><time>2021-09-01T10:59:26Z</time><extensions><speed>1.176896</speed><course>320.096283</course><hAcc>0.885068</hAcc><vAcc>0.704264</vAcc></extensions></trkpt>
      <trkpt lon="-3.148885" lat="53.017045"><ele>448.160797</ele><time>2021-09-01T10:59:27Z</time><extensions><speed>1.184894</speed><course>330.452972</course><hAcc>0.885007</hAcc><vAcc>0.704099</vAcc></extensions></trkpt>
      <trkpt lon="-3.148897" lat="53.017037"><ele>448.159790</ele><time>2021-09-01T10:59:28Z</time><extensions><speed>1.196356</speed><course>325.892334</course><hAcc>0.884960</hAcc><vAcc>0.703965</vAcc></extensions></trkpt>
      <trkpt lon="-3.148909" lat="53.017030"><ele>448.159760</ele><time>2021-09-01T10:59:29Z</time><extensions><speed>1.210762</speed><course>323.150330</course><hAcc>0.884924</hAcc><vAcc>0.703857</vAcc></extensions></trkpt>
      <trkpt lon="-3.148922" lat="53.017022"><ele>448.161133</ele><time>2021-09-01T10:59:30Z</time><extensions><speed>1.227444</speed><course>318.355499</course><hAcc>0.884899</hAcc><vAcc>0.703774</vAcc></extensions></trkpt>
      <trkpt lon="-3.148936" lat="53.017015"><ele>448.164276</ele><time>2021-09-01T10:59:31Z</time><extensions><speed>1.245529</speed><course>319.900726</course><hAcc>0.884882</hAcc><vAcc>0.703713</vAcc></extensions></trkpt>
      <trkpt lon="-3.148950" lat="53.017007"><ele>448.169373</ele><time>2021-09-01T10:59:32Z</time><extensions><speed>1.263235</speed><course>327.705719</course><hAcc>0.884871</hAcc><vAcc>0.703669</vAcc></extensions></trkpt>
      <trkpt lon="-3.148965" lat="53.017000"><ele>448.176727</ele><time>2021-09-01T10:59:33Z</time><extensions><speed>1.278464</speed><course>325.864380</course><hAcc>0.884864</hAcc><vAcc>0.703642</vAcc></extensions></trkpt>
      <trkpt lon="-3.148981" lat="53.016993"><ele>448.186798</ele><time>2021-09-01T10:59:34Z</time><extensions><speed>1.289016</speed><course>316.016541</course><hAcc>0.884860</hAcc><vAcc>0.703634</vAcc></extensions></trkpt>
      <trkpt lon="-3.148996" lat="53.016987"><ele>448.200104</ele><time>2021-09-01T10:59:35Z</time><extensions><speed>1.293830</speed><course>317.886536</course><hAcc>0.884855</hAcc><vAcc>0.703640</vAcc></extensions></trkpt>
      <trkpt lon="-3.149012" lat="53.016980"><ele>448.217194</ele><time>2021-09-01T10:59:36Z</time><extensions><speed>1.293082</speed><course>327.267029</course><hAcc>0.884847</hAcc><vAcc>0.703653</vAcc></extensions></trkpt>
      <trkpt lon="-3.149028" lat="53.016973"><ele>448.237946</ele><time>2021-09-01T10:59:37Z</time><extensions><speed>1.287094</speed><course>326.251373</course><hAcc>0.884831</hAcc><vAcc>0.703657</vAcc></extensions></trkpt>
      <trkpt lon="-3.149044" lat="53.016967"><ele>448.261597</ele><time>2021-09-01T10:59:38Z</time><extensions><speed>1.277081</speed><course>330.160339</course><hAcc>0.884803</hAcc><vAcc>0.703631</vAcc></extensions></trkpt>
      <trkpt lon="-3.149059" lat="53.016961"><ele>448.287842</ele><time>2021-09-01T10:59:39Z</time><extensions><speed>1.264339</speed><course>329.350830</course><hAcc>0.884758</hAcc><vAcc>0.703555</vAcc></extensions></trkpt>
      <trkpt lon="-3.149075" lat="53.016954"><ele>448.316956</ele><time>2021-09-01T10:59:40Z</time><extensions><speed>1.250087</speed><course>328.046906</course><hAcc>0.884694</hAcc><vAcc>0.703410</vAcc></extensions></trkpt>
      <trkpt lon="-3.149090" lat="53.016948"><ele>448.349365</ele><time>2021-09-01T10:59:41Z</time><extensions><speed>1.235137</speed><course>328.036682</course><hAcc>0.884607</hAcc><vAcc>0.703180</vAcc></extensions></trkpt>
      <trkpt lon="-3.149105" lat="53.016941"><ele>448.385071</ele><time>2021-09-01T10:59:42Z</time><extensions><speed>1.219590</speed><course>328.321899</course><hAcc>0.884495</hAcc><vAcc>0.702851</vAcc></extensions></trkpt>
      <trkpt lon="-3.149120" lat="53.016935"><ele>448.423370</ele><time>2021-09-01T10:59:43Z</time><extensions><speed>1.203841</speed><course>326.366882</course><hAcc>0.884359</hAcc><vAcc>0.702415</vAcc></extensions></trkpt>
      <trkpt lon="-3.149134" lat="53.016929"><ele>448.463318</ele><time>2021-09-01T10:59:44Z</time><extensions><speed>1.188994</speed><course>331.362152</course><hAcc>0.884203</hAcc><vAcc>0.701876</vAcc></extensions></trkpt>
      <trkpt lon="-3.149148" lat="53.016922"><ele>448.504395</ele><time>2021-09-01T10:59:45Z</time><extensions><speed>1.176124</speed><course>329.394318</course><hAcc>0.884029</hAcc><vAcc>0.701251</vAcc></extensions></trkpt>
      <trkpt lon="-3.149162" lat="53.016916"><ele>448.546173</ele><time>2021-09-01T10:59:46Z</time><extensions><speed>1.165891</speed><course>332.464355</course><hAcc>0.883845</hAcc><vAcc>0.700570</vAcc></extensions></trkpt>
      <trkpt lon="-3.149176" lat="53.016909"><ele>448.588318</ele><time>2021-09-01T10:59:47Z</time><extensions><speed>1.158864</speed><course>335.973755</course><hAcc>0.883658</hAcc><vAcc>0.699872</vAcc></extensions></trkpt>
      <trkpt lon="-3.149189" lat="53.016903"><ele>448.630829</ele><time>2021-09-01T10:59:48Z</time><extensions><speed>1.155311</speed><course>334.588074</course><hAcc>0.883476</hAcc><vAcc>0.699201</vAcc></extensions></trkpt>
      <trkpt lon="-3.149202" lat="53.016896"><ele>448.673187</ele><time>2021-09-01T10:59:49Z</time><extensions><speed>1.154892</speed><course>337.558624</course><hAcc>0.883307</hAcc><vAcc>0.698593</vAcc></extensions></trkpt>
      <trkpt lon="-3.149215" lat="53.016889"><ele>448.714020</ele><time>2021-09-01T10:59:50Z</time><extensions><speed>1.156936</speed><course>337.377197</course><hAcc>0.883157</hAcc><vAcc>0.698075</vAcc></extensions></trkpt>
      <trkpt lon="-3.149228" lat="53.016882"><ele>448.752258</ele><time>2021-09-01T10:59:51Z</time><extensions><speed>1.161015</speed><course>334.236908</course><hAcc>0.883032</hAcc><vAcc>0.697657</vAcc></extensions></trkpt>
      <trkpt lon="-3.149241" lat="53.016875"><ele>448.787781</ele><time>2021-09-01T10:59:52Z</time><extensions><speed>1.166311</speed><course>333.116516</course><hAcc>0.882933</hAcc><vAcc>0.697341</vAcc></extensions></trkpt>
      <trkpt lon="-3.149253" lat="53.016868"><ele>448.820892</ele><time>2021-09-01T10:59:53Z</time><extensions><speed>1.172302</speed><course>331.193451</course><hAcc>0.882861</hAcc><vAcc>0.697125</vAcc></extensions></trkpt>
      <trkpt lon="-3.149266" lat="53.016861"><ele>448.852234</ele><time>2021-09-01T10:59:54Z</time><extensions><speed>1.179358</speed><course>327.071960</course><hAcc>0.882816</hAcc><vAcc>0.697005</vAcc></extensions></trkpt>
      <trkpt lon="-3.149278" lat="53.016853"><ele>448.882660</ele><time>2021-09-01T10:59:55Z</time><extensions><speed>1.187770</speed><course>323.969269</course><hAcc>0.882796</hAcc><vAcc>0.696973</vAcc></extensions></trkpt>
      <trkpt lon="-3.149290" lat="53.016845"><ele>448.913208</ele><time>2021-09-01T10:59:56Z</time><extensions><speed>1.197250</speed><course>325.035614</course><hAcc>0.882796</hAcc><vAcc>0.697019</vAcc></extensions></trkpt>
      <trkpt lon="-3.149301" lat="53.016837"><ele>448.944824</ele><time>2021-09-01T10:59:57Z</time><extensions><speed>1.207355</speed><course>325.080109</course><hAcc>0.882811</hAcc><vAcc>0.697123</vAcc></extensions></trkpt>
      <trkpt lon="-3.149313" lat="53.016828"><ele>448.978546</ele><time>2021-09-01T10:59:58Z</time><extensions><speed>1.217292</speed><course>320.596710</course><hAcc>0.882834</hAcc><vAcc>0.697260</vAcc></extensions></trkpt>
      <trkpt lon="-3.149324" lat="53.016819"><ele>449.014954</ele><time>2021-09-01T10:59:59Z</time><extensions><speed>1.226307</speed><course>325.164429</course><hAcc>0.882857</hAcc><vAcc>0.697404</vAcc></extensions></trkpt>
      <trkpt lon="-3.149334" lat="53.016810"><ele>449.054352</ele><time>2021-09-01T11:00:00Z</time><extensions><speed>1.234759</speed><course>323.691345</course><hAcc>0.882873</hAcc><vAcc>0.697524</vAcc></extensions></trkpt>
      <trkpt lon="-3.149344" lat="53.016801"><ele>449.097107</ele><time>2021-09-01T11:00:01Z</time><extensions><speed>1.242831</speed><course>332.829010</course><hAcc>0.882875</hAcc><vAcc>0.697595</vAcc></extensions></trkpt>
      <trkpt lon="-3.149354" lat="53.016792"><ele>449.142792</ele><time>2021-09-01T11:00:02Z</time><extensions><speed>1.250048</speed><course>333.287506</course><hAcc>0.882855</hAcc><vAcc>0.697592</vAcc></extensions></trkpt>
      <trkpt lon="-3.149364" lat="53.016782"><ele>449.190613</ele><time>2021-09-01T11:00:03Z</time><extensions><speed>1.256198</speed><course>320.664337</course><hAcc>0.882809</hAcc><vAcc>0.697494</vAcc></extensions></trkpt>
      <trkpt lon="-3.149373" lat="53.016772"><ele>449.240021</ele><time>2021-09-01T11:00:04Z</time><extensions><speed>1.261184</speed><course>319.581818</course><hAcc>0.882732</hAcc><vAcc>0.697282</vAcc></extensions></trkpt>
      <trkpt lon="-3.149381" lat="53.016762"><ele>449.290497</ele><time>2021-09-01T11:00:05Z</time><extensions><speed>1.264977</speed><course>320.113190</course><hAcc>0.882622</hAcc><vAcc>0.696946</vAcc></extensions></trkpt>
      <trkpt lon="-3.149389" lat="53.016752"><ele>449.341370</ele><time>2021-09-01T11:00:06Z</time><extensions><speed>1.267763</speed><course>325.625488</course><hAcc>0.882481</hAcc><vAcc>0.696480</vAcc></extensions></trkpt>
      <trkpt lon="-3.149397" lat="53.016741"><ele>449.391968</ele><time>2021-09-01T11:00:07Z</time><extensions><speed>1.269408</speed><course>320.008789</course><hAcc>0.882310</hAcc><vAcc>0.695892</vAcc></extensions></trkpt>
      <trkpt lon="-3.149405" lat="53.016731"><ele>449.441467</ele><time>2021-09-01T11:00:08Z</time><extensions><speed>1.269518</speed><course>318.909088</course><hAcc>0.882115</hAcc><vAcc>0.695206</vAcc></extensions></trkpt>
      <trkpt lon="-3.149412" lat="53.016720"><ele>449.489197</ele><time>2021-09-01T11:00:09Z</time><extensions><speed>1.267972</speed><course>323.298828</course><hAcc>0.881903</hAcc><vAcc>0.694454</vAcc></extensions></trkpt>
      <trkpt lon="-3.149419" lat="53.016710"><ele>449.534546</ele><time>2021-09-01T11:00:10Z</time><extensions><speed>1.264644</speed><course>319.843567</course><hAcc>0.881682</hAcc><vAcc>0.693672</vAcc></extensions></trkpt>
      <trkpt lon="-3.149426" lat="53.016699"><ele>449.577026</ele><time>2021-09-01T11:00:11Z</time><extensions><speed>1.259593</speed><course>314.311829</course><hAcc>0.881462</hAcc><vAcc>0.692897</vAcc></extensions></trkpt>
      <trkpt lon="-3.149433" lat="53.016689"><ele>449.616028</ele><time>2021-09-01T11:00:12Z</time><extensions><speed>1.253254</speed><course>319.089264</course><hAcc>0.881250</hAcc><vAcc>0.692160</vAcc></extensions></trkpt>
      <trkpt lon="-3.149440" lat="53.016678"><ele>449.651123</ele><time>2021-09-01T11:00:13Z</time><extensions><speed>1.246174</speed><course>322.114319</course><hAcc>0.881056</hAcc><vAcc>0.691491</vAcc></extensions></trkpt>
      <trkpt lon="-3.149447" lat="53.016668"><ele>449.681793</ele><time>2021-09-01T11:00:14Z</time><extensions><speed>1.239022</speed><course>313.771057</course><hAcc>0.880887</hAcc><vAcc>0.690910</vAcc></extensions></trkpt>
      <trkpt lon="-3.149454" lat="53.016658"><ele>449.707275</ele><time>2021-09-01T11:00:15Z</time><extensions><speed>1.232099</speed><course>306.383820</course><hAcc>0.880747</hAcc><vAcc>0.690435</vAcc></extensions></trkpt>
      <trkpt lon="-3.149462" lat="53.016648"><ele>449.726868</ele><time>2021-09-01T11:00:16Z</time><extensions><speed>1.225820</speed><course>308.594727</course><hAcc>0.880643</hAcc><vAcc>0.690081</vAcc></extensions></trkpt>
      <trkpt lon="-3.149470" lat="53.016638"><ele>449.740234</ele><time>2021-09-01T11:00:17Z</time><extensions><speed>1.220855</speed><course>313.438293</course><hAcc>0.880577</hAcc><vAcc>0.689864</vAcc></extensions></trkpt>
      <trkpt lon="-3.149478" lat="53.016628"><ele>449.747498</ele><time>2021-09-01T11:00:18Z</time><extensions><speed>1.217610</speed><course>315.261749</course><hAcc>0.880550</hAcc><vAcc>0.689797</vAcc></extensions></trkpt>
      <trkpt lon="-3.149486" lat="53.016618"><ele>449.749115</ele><time>2021-09-01T11:00:19Z</time><extensions><speed>1.216624</speed><course>314.962799</course><hAcc>0.880560</hAcc><vAcc>0.689871</vAcc></extensions></trkpt>
      <trkpt lon="-3.149495" lat="53.016609"><ele>449.745697</ele><time>2021-09-01T11:00:20Z</time><extensions><speed>1.218299</speed><course>311.864380</course><hAcc>0.880602</hAcc><vAcc>0.690064</vAcc></extensions></trkpt>
      <trkpt lon="-3.149505" lat="53.016599"><ele>449.737610</ele><time>2021-09-01T11:00:21Z</time><extensions><speed>1.222744</speed><course>305.555115</course><hAcc>0.880671</hAcc><vAcc>0.690344</vAcc></extensions></trkpt>
      <trkpt lon="-3.149515" lat="53.016590"><ele>449.725098</ele><time>2021-09-01T11:00:22Z</time><extensions><speed>1.230068</speed><course>309.414368</course><hAcc>0.880758</hAcc><vAcc>0.690681</vAcc></extensions></trkpt>
      <trkpt lon="-3.149525" lat="53.016581"><ele>449.708710</ele><time>2021-09-01T11:00:23Z</time><extensions><speed>1.240705</speed><course>312.426361</course><hAcc>0.880859</hAcc><vAcc>0.691049</vAcc></extensions></trkpt>
      <trkpt lon="-3.149537" lat="53.016572"><ele>449.689514</ele><time>2021-09-01T11:00:24Z</time><extensions><speed>1.254986</speed><course>315.779877</course><hAcc>0.880965</hAcc><vAcc>0.691421</vAcc></extensions></trkpt>
      <trkpt lon="-3.149549" lat="53.016564"><ele>449.668701</ele><time>2021-09-01T11:00:25Z</time><extensions><speed>1.272442</speed><course>309.393494</course><hAcc>0.881073</hAcc><vAcc>0.691780</vAcc></extensions></trkpt>
      <trkpt lon="-3.149561" lat="53.016555"><ele>449.647400</ele><time>2021-09-01T11:00:26Z</time><extensions><speed>1.292224</speed><course>315.161163</course><hAcc>0.881178</hAcc><vAcc>0.692115</vAcc></extensions></trkpt>
      <trkpt lon="-3.149574" lat="53.016546"><ele>449.626984</ele><time>2021-09-01T11:00:27Z</time><extensions><speed>1.313032</speed><course>313.978088</course><hAcc>0.881278</hAcc><vAcc>0.692425</vAcc></extensions></trkpt>
      <trkpt lon="-3.149588" lat="53.016538"><ele>449.608734</ele><time>2021-09-01T11:00:28Z</time><extensions><speed>1.333765</speed><course>310.683502</course><hAcc>0.881372</hAcc><vAcc>0.692714</vAcc></extensions></trkpt>
      <trkpt lon="-3.149602" lat="53.016529"><ele>449.593994</ele><time>2021-09-01T11:00:29Z</time><extensions><speed>1.353740</speed><course>311.301880</course><hAcc>0.881460</hAcc><vAcc>0.692983</vAcc></extensions></trkpt>
      <trkpt lon="-3.149616" lat="53.016520"><ele>449.584015</ele><time>2021-09-01T11:00:30Z</time><extensions><speed>1.371713</speed><course>311.208435</course><hAcc>0.881541</hAcc><vAcc>0.693231</vAcc></extensions></trkpt>
      <trkpt lon="-3.149630" lat="53.016511"><ele>449.579346</ele><time>2021-09-01T11:00:31Z</time><extensions><speed>1.386269</speed><course>309.569458</course><hAcc>0.881617</hAcc><vAcc>0.693458</vAcc></extensions></trkpt>
      <trkpt lon="-3.149645" lat="53.016503"><ele>449.579987</ele><time>2021-09-01T11:00:32Z</time><extensions><speed>1.396292</speed><course>310.187012</course><hAcc>0.881689</hAcc><vAcc>0.693670</vAcc></extensions></trkpt>
      <trkpt lon="-3.149660" lat="53.016494"><ele>449.585876</ele><time>2021-09-01T11:00:33Z</time><extensions><speed>1.400008</speed><course>310.459808</course><hAcc>0.881759</hAcc><vAcc>0.693874</vAcc></extensions></trkpt>
      <trkpt lon="-3.149675" lat="53.016485"><ele>449.596741</ele><time>2021-09-01T11:00:34Z</time><extensions><speed>1.395605</speed><course>310.191071</course><hAcc>0.881829</hAcc><vAcc>0.694076</vAcc></extensions></trkpt>
      <trkpt lon="-3.149690" lat="53.016476"><ele>449.612488</ele><time>2021-09-01T11:00:35Z</time><extensions><speed>1.382204</speed><course>313.202332</course><hAcc>0.881901</hAcc><vAcc>0.694285</vAcc></extensions></trkpt>
      <trkpt lon="-3.149704" lat="53.016467"><ele>449.633026</ele><time>2021-09-01T11:00:36Z</time><extensions><speed>1.359388</speed><course>317.375305</course><hAcc>0.881976</hAcc><vAcc>0.694507</vAcc></extensions></trkpt>
      <trkpt lon="-3.149718" lat="53.016459"><ele>449.657593</ele><time>2021-09-01T11:00:37Z</time><extensions><speed>1.327352</speed><course>320.965942</course><hAcc>0.882057</hAcc><vAcc>0.694749</vAcc></extensions></trkpt>
      <trkpt lon="-3.149731" lat="53.016450"><ele>449.684906</ele><time>2021-09-01T11:00:38Z</time><extensions><speed>1.286675</speed><course>318.335114</course><hAcc>0.882145</hAcc><vAcc>0.695018</vAcc></extensions></trkpt>
      <trkpt lon="-3.149744" lat="53.016442"><ele>449.713623</ele><time>2021-09-01T11:00:39Z</time><extensions><speed>1.238095</speed><course>322.780487</course><hAcc>0.882240</hAcc><vAcc>0.695317</vAcc></extensions></trkpt>
      <trkpt lon="-3.149756" lat="53.016434"><ele>449.742676</ele><time>2021-09-01T11:00:40Z</time><extensions><speed>1.182044</speed><course>321.324005</course><hAcc>0.882343</hAcc><vAcc>0.695640</vAcc></extensions></trkpt>
      <trkpt lon="-3.149768" lat="53.016426"><ele>449.771088</ele><time>2021-09-01T11:00:41Z</time><extensions><speed>1.119093</speed><course>322.516296</course><hAcc>0.882452</hAcc><vAcc>0.695983</vAcc></extensions></trkpt>
      <trkpt lon="-3.149778" lat="53.016419"><ele>449.798248</ele><time>2021-09-01T11:00:42Z</time><extensions><speed>1.050783</speed><course>319.995483</course><hAcc>0.882565</hAcc><vAcc>0.696345</vAcc></extensions></trkpt>
      <trkpt lon="-3.149788" lat="53.016412"><ele>449.823364</ele><time>2021-09-01T11:00:43Z</time><extensions><speed>0.979194</speed><course>324.182892</course><hAcc>0.882681</hAcc><vAcc>0.696727</vAcc></extensions></trkpt>
      <trkpt lon="-3.149796" lat="53.016405"><ele>449.845551</ele><time>2021-09-01T11:00:44Z</time><extensions><speed>0.906893</speed><course>328.616821</course><hAcc>0.882798</hAcc><vAcc>0.697123</vAcc></extensions></trkpt>
      <trkpt lon="-3.149804" lat="53.016399"><ele>449.864502</ele><time>2021-09-01T11:00:45Z</time><extensions><speed>0.836909</speed><course>324.016815</course><hAcc>0.882913</hAcc><vAcc>0.697518</vAcc></extensions></trkpt>
      <trkpt lon="-3.149811" lat="53.016393"><ele>449.880432</ele><time>2021-09-01T11:00:46Z</time><extensions><speed>0.772831</speed><course>329.825897</course><hAcc>0.883022</hAcc><vAcc>0.697889</vAcc></extensions></trkpt>
      <trkpt lon="-3.149817" lat="53.016387"><ele>449.894043</ele><time>2021-09-01T11:00:48Z</time><extensions><speed>0.718620</speed><course>327.868408</course><hAcc>0.883104</hAcc><vAcc>0.698196</vAcc></extensions></trkpt>
      <trkpt lon="-3.149823" lat="53.016382"><ele>449.906372</ele><time>2021-09-01T11:00:49Z</time><extensions><speed>0.678399</speed><course>336.001526</course><hAcc>0.883156</hAcc><vAcc>0.698420</vAcc></extensions></trkpt>
      <trkpt lon="-3.149828" lat="53.016377"><ele>449.918793</ele><time>2021-09-01T11:00:50Z</time><extensions><speed>0.654353</speed><course>319.189575</course><hAcc>0.883195</hAcc><vAcc>0.698561</vAcc></extensions></trkpt>
      <trkpt lon="-3.149833" lat="53.016372"><ele>449.932861</ele><time>2021-09-01T11:00:51Z</time><extensions><speed>0.647030</speed><course>314.045624</course><hAcc>0.883222</hAcc><vAcc>0.698627</vAcc></extensions></trkpt>
      <trkpt lon="-3.149839" lat="53.016367"><ele>449.949982</ele><time>2021-09-01T11:00:52Z</time><extensions><speed>0.656017</speed><course>316.798950</course><hAcc>0.883239</hAcc><vAcc>0.698632</vAcc></extensions></trkpt>
      <trkpt lon="-3.149844" lat="53.016362"><ele>449.971497</ele><time>2021-09-01T11:00:53Z</time><extensions><speed>0.679926</speed><course>316.381958</course><hAcc>0.883249</hAcc><vAcc>0.698601</vAcc></extensions></trkpt>
      <trkpt lon="-3.149849" lat="53.016357"><ele>449.998413</ele><time>2021-09-01T11:00:54Z</time><extensions><speed>0.716599</speed><course>324.109985</course><hAcc>0.883256</hAcc><vAcc>0.698558</vAcc></extensions></trkpt>
      <trkpt lon="-3.149855" lat="53.016351"><ele>450.031555</ele><time>2021-09-01T11:00:55Z</time><extensions><speed>0.762638</speed><course>319.248718</course><hAcc>0.883268</hAcc><vAcc>0.698533</vAcc></extensions></trkpt>
      <trkpt lon="-3.149862" lat="53.016345"><ele>450.071442</ele><time>2021-09-01T11:00:56Z</time><extensions><speed>0.813980</speed><course>322.755310</course><hAcc>0.883288</hAcc><vAcc>0.698548</vAcc></extensions></trkpt>
      <trkpt lon="-3.149869" lat="53.016339"><ele>450.118073</ele><time>2021-09-01T11:00:57Z</time><extensions><speed>0.866981</speed><course>326.625031</course><hAcc>0.883321</hAcc><vAcc>0.698624</vAcc></extensions></trkpt>
      <trkpt lon="-3.149876" lat="53.016332"><ele>450.170807</ele><time>2021-09-01T11:00:58Z</time><extensions><speed>0.919058</speed><course>328.024994</course><hAcc>0.883371</hAcc><vAcc>0.698775</vAcc></extensions></trkpt>
      <trkpt lon="-3.149884" lat="53.016325"><ele>450.229065</ele><time>2021-09-01T11:00:59Z</time><extensions><speed>0.968810</speed><course>332.378082</course><hAcc>0.883439</hAcc><vAcc>0.699009</vAcc></extensions></trkpt>
      <trkpt lon="-3.149892" lat="53.016318"><ele>450.292358</ele><time>2021-09-01T11:01:00Z</time><extensions><speed>1.014729</speed><course>332.526154</course><hAcc>0.883523</hAcc><vAcc>0.699322</vAcc></extensions></trkpt>
      <trkpt lon="-3.149901" lat="53.016310"><ele>450.360168</ele><time>2021-09-01T11:01:01Z</time><extensions><speed>1.055429</speed><course>335.486633</course><hAcc>0.883624</hAcc><vAcc>0.699702</vAcc></extensions></trkpt>
      <trkpt lon="-3.149910" lat="53.016302"><ele>450.432190</ele><time>2021-09-01T11:01:02Z</time><extensions><speed>1.090299</speed><course>336.016846</course><hAcc>0.883737</hAcc><vAcc>0.700132</vAcc></extensions></trkpt>
      <trkpt lon="-3.149919" lat="53.016294"><ele>450.507935</ele><time>2021-09-01T11:01:03Z</time><extensions><speed>1.119098</speed><course>334.888000</course><hAcc>0.883858</hAcc><vAcc>0.700589</vAcc></extensions></trkpt>
      <trkpt lon="-3.149928" lat="53.016285"><ele>450.586670</ele><time>2021-09-01T11:01:04Z</time><extensions><speed>1.142020</speed><course>333.393311</course><hAcc>0.883982</hAcc><vAcc>0.701052</vAcc></extensions></trkpt>
      <trkpt lon="-3.149937" lat="53.016276"><ele>450.667603</ele><time>2021-09-01T11:01:05Z</time><extensions><speed>1.159881</speed><course>318.935883</course><hAcc>0.884106</hAcc><vAcc>0.701503</vAcc></extensions></trkpt>
      <trkpt lon="-3.149946" lat="53.016268"><ele>450.749939</ele><time>2021-09-01T11:01:05Z</time><extensions><speed>1.173250</speed><course>311.891724</course><hAcc>0.884243</hAcc><vAcc>0.701943</vAcc></extensions></trkpt>
      <trkpt lon="-3.149955" lat="53.016259"><ele>450.833191</ele><time>2021-09-01T11:01:06Z</time><extensions><speed>1.182500</speed><course>312.578461</course><hAcc>0.884391</hAcc><vAcc>0.702366</vAcc></extensions></trkpt>
      <trkpt lon="-3.149965" lat="53.016250"><ele>450.916382</ele><time>2021-09-01T11:01:07Z</time><extensions><speed>1.187992</speed><course>320.602325</course><hAcc>0.884531</hAcc><vAcc>0.702763</vAcc></extensions></trkpt>
      <trkpt lon="-3.149974" lat="53.016241"><ele>450.998688</ele><time>2021-09-01T11:01:08Z</time><extensions><speed>1.189940</speed><course>323.639648</course><hAcc>0.884660</hAcc><vAcc>0.703140</vAcc></extensions></trkpt>
      <trkpt lon="-3.149984" lat="53.016232"><ele>451.079956</ele><time>2021-09-01T11:01:09Z</time><extensions><speed>1.189237</speed><course>325.641083</course><hAcc>0.884779</hAcc><vAcc>0.703500</vAcc></extensions></trkpt>
      <trkpt lon="-3.149994" lat="53.016223"><ele>451.160797</ele><time>2021-09-01T11:01:10Z</time><extensions><speed>1.187184</speed><course>324.286163</course><hAcc>0.884885</hAcc><vAcc>0.703842</vAcc></extensions></trkpt>
      <trkpt lon="-3.150004" lat="53.016214"><ele>451.242188</ele><time>2021-09-01T11:01:11Z</time><extensions><speed>1.185103</speed><course>330.884674</course><hAcc>0.884975</hAcc><vAcc>0.704160</vAcc></extensions></trkpt>
      <trkpt lon="-3.150015" lat="53.016206"><ele>451.325256</ele><time>2021-09-01T11:01:12Z</time><extensions><speed>1.184662</speed><course>342.591980</course><hAcc>0.885048</hAcc><vAcc>0.704444</vAcc></extensions></trkpt>
      <trkpt lon="-3.150026" lat="53.016197"><ele>451.411041</ele><time>2021-09-01T11:01:13Z</time><extensions><speed>1.187171</speed><course>340.473694</course><hAcc>0.885101</hAcc><vAcc>0.704677</vAcc></extensions></trkpt>
      <trkpt lon="-3.150037" lat="53.016189"><ele>451.500549</ele><time>2021-09-01T11:01:14Z</time><extensions><speed>1.193122</speed><course>337.459930</course><hAcc>0.885129</hAcc><vAcc>0.704836</vAcc></extensions></trkpt>
      <trkpt lon="-3.150049" lat="53.016181"><ele>451.594727</ele><time>2021-09-01T11:01:15Z</time><extensions><speed>1.202106</speed><course>334.977905</course><hAcc>0.885133</hAcc><vAcc>0.704899</vAcc></extensions></trkpt>
      <trkpt lon="-3.150061" lat="53.016173"><ele>451.694458</ele><time>2021-09-01T11:01:16Z</time><extensions><speed>1.212920</speed><course>334.909821</course><hAcc>0.885112</hAcc><vAcc>0.704850</vAcc></extensions></trkpt>
      <trkpt lon="-3.150074" lat="53.016165"><ele>451.800171</ele><time>2021-09-01T11:01:17Z</time><extensions><speed>1.224428</speed><course>335.401093</course><hAcc>0.885067</hAcc><vAcc>0.704681</vAcc></extensions></trkpt>
      <trkpt lon="-3.150087" lat="53.016158"><ele>451.911621</ele><time>2021-09-01T11:01:18Z</time><extensions><speed>1.235364</speed><course>335.416534</course><hAcc>0.885002</hAcc><vAcc>0.704404</vAcc></extensions></trkpt>
      <trkpt lon="-3.150101" lat="53.016150"><ele>452.028107</ele><time>2021-09-01T11:01:19Z</time><extensions><speed>1.244204</speed><course>333.502777</course><hAcc>0.884923</hAcc><vAcc>0.704043</vAcc></extensions></trkpt>
      <trkpt lon="-3.150115" lat="53.016143"><ele>452.148529</ele><time>2021-09-01T11:01:20Z</time><extensions><speed>1.250075</speed><course>334.704010</course><hAcc>0.884837</hAcc><vAcc>0.703639</vAcc></extensions></trkpt>
      <trkpt lon="-3.150129" lat="53.016136"><ele>452.271576</ele><time>2021-09-01T11:01:21Z</time><extensions><speed>1.252473</speed><course>336.400421</course><hAcc>0.884751</hAcc><vAcc>0.703238</vAcc></extensions></trkpt>
      <trkpt lon="-3.150144" lat="53.016128"><ele>452.396088</ele><time>2021-09-01T11:01:22Z</time><extensions><speed>1.251734</speed><course>347.265839</course><hAcc>0.884672</hAcc><vAcc>0.702888</vAcc></extensions></trkpt>
      <trkpt lon="-3.150158" lat="53.016121"><ele>452.521179</ele><time>2021-09-01T11:01:23Z</time><extensions><speed>1.249103</speed><course>344.062927</course><hAcc>0.884608</hAcc><vAcc>0.702623</vAcc></extensions></trkpt>
      <trkpt lon="-3.150172" lat="53.016114"><ele>452.646637</ele><time>2021-09-01T11:01:24Z</time><extensions><speed>1.245054</speed><course>337.032654</course><hAcc>0.884563</hAcc><vAcc>0.702465</vAcc></extensions></trkpt>
      <trkpt lon="-3.150186" lat="53.016106"><ele>452.772186</ele><time>2021-09-01T11:01:25Z</time><extensions><speed>1.239483</speed><course>338.548584</course><hAcc>0.884539</hAcc><vAcc>0.702419</vAcc></extensions></trkpt>
      <trkpt lon="-3.150199" lat="53.016099"><ele>452.897003</ele><time>2021-09-01T11:01:26Z</time><extensions><speed>1.232176</speed><course>340.790558</course><hAcc>0.884536</hAcc><vAcc>0.702474</vAcc></extensions></trkpt>
      <trkpt lon="-3.150212" lat="53.016091"><ele>453.019836</ele><time>2021-09-01T11:01:27Z</time><extensions><speed>1.222757</speed><course>331.528198</course><hAcc>0.884553</hAcc><vAcc>0.702604</vAcc></extensions></trkpt>
      <trkpt lon="-3.150225" lat="53.016083"><ele>453.139160</ele><time>2021-09-01T11:01:28Z</time><extensions><speed>1.211861</speed><course>326.705475</course><hAcc>0.884586</hAcc><vAcc>0.702781</vAcc></extensions></trkpt>
      <trkpt lon="-3.150237" lat="53.016075"><ele>453.253479</ele><time>2021-09-01T11:01:29Z</time><extensions><speed>1.200604</speed><course>334.332062</course><hAcc>0.884632</hAcc><vAcc>0.702976</vAcc></extensions></trkpt>
      <trkpt lon="-3.150249" lat="53.016067"><ele>453.361572</ele><time>2021-09-01T11:01:30Z</time><extensions><speed>1.189762</speed><course>321.684448</course><hAcc>0.884688</hAcc><vAcc>0.703171</vAcc></extensions></trkpt>
      <trkpt lon="-3.150261" lat="53.016059"><ele>453.463074</ele><time>2021-09-01T11:01:31Z</time><extensions><speed>1.179985</speed><course>319.446838</course><hAcc>0.884749</hAcc><vAcc>0.703362</vAcc></extensions></trkpt>
      <trkpt lon="-3.150271" lat="53.016051"><ele>453.558411</ele><time>2021-09-01T11:01:32Z</time><extensions><speed>1.171697</speed><course>327.299927</course><hAcc>0.884816</hAcc><vAcc>0.703553</vAcc></extensions></trkpt>
      <trkpt lon="-3.150282" lat="53.016043"><ele>453.648071</ele><time>2021-09-01T11:01:33Z</time><extensions><speed>1.164745</speed><course>327.362518</course><hAcc>0.884885</hAcc><vAcc>0.703749</vAcc></extensions></trkpt>
      <trkpt lon="-3.150292" lat="53.016034"><ele>453.732697</ele><time>2021-09-01T11:01:34Z</time><extensions><speed>1.158368</speed><course>320.449799</course><hAcc>0.884957</hAcc><vAcc>0.703957</vAcc></extensions></trkpt>
      <trkpt lon="-3.150302" lat="53.016026"><ele>453.812714</ele><time>2021-09-01T11:01:35Z</time><extensions><speed>1.151636</speed><course>323.666901</course><hAcc>0.885030</hAcc><vAcc>0.704182</vAcc></extensions></trkpt>
      <trkpt lon="-3.150311" lat="53.016017"><ele>453.888397</ele><time>2021-09-01T11:01:36Z</time><extensions><speed>1.144099</speed><course>325.310486</course><hAcc>0.885105</hAcc><vAcc>0.704422</vAcc></extensions></trkpt>
      <trkpt lon="-3.150320" lat="53.016008"><ele>453.960144</ele><time>2021-09-01T11:01:37Z</time><extensions><speed>1.135500</speed><course>323.024933</course><hAcc>0.885180</hAcc><vAcc>0.704675</vAcc></extensions></trkpt>
      <trkpt lon="-3.150328" lat="53.015999"><ele>454.028534</ele><time>2021-09-01T11:01:38Z</time><extensions><speed>1.125726</speed><course>321.641022</course><hAcc>0.885255</hAcc><vAcc>0.704932</vAcc></extensions></trkpt>
      <trkpt lon="-3.150336" lat="53.015990"><ele>454.094360</ele><time>2021-09-01T11:01:39Z</time><extensions><speed>1.114965</speed><course>323.471222</course><hAcc>0.885327</hAcc><vAcc>0.705184</vAcc></extensions></trkpt>
      <trkpt lon="-3.150344" lat="53.015982"><ele>454.158295</ele><time>2021-09-01T11:01:40Z</time><extensions><speed>1.103739</speed><course>324.875793</course><hAcc>0.885397</hAcc><vAcc>0.705427</vAcc></extensions></trkpt>
      <trkpt lon="-3.150351" lat="53.015973"><ele>454.220551</ele><time>2021-09-01T11:01:41Z</time><extensions><speed>1.092356</speed><course>318.989594</course><hAcc>0.885463</hAcc><vAcc>0.705655</vAcc></extensions></trkpt>
      <trkpt lon="-3.150358" lat="53.015964"><ele>454.281158</ele><time>2021-09-01T11:01:42Z</time><extensions><speed>1.080748</speed><course>325.887390</course><hAcc>0.885523</hAcc><vAcc>0.705860</vAcc></extensions></trkpt>
      <trkpt lon="-3.150364" lat="53.015955"><ele>454.340210</ele><time>2021-09-01T11:01:43Z</time><extensions><speed>1.069119</speed><course>320.176544</course><hAcc>0.885577</hAcc><vAcc>0.706041</vAcc></extensions></trkpt>
      <trkpt lon="-3.150370" lat="53.015946"><ele>454.397766</ele><time>2021-09-01T11:01:44Z</time><extensions><speed>1.057788</speed><course>316.970215</course><hAcc>0.885624</hAcc><vAcc>0.706195</vAcc></extensions></trkpt>
      <trkpt lon="-3.150377" lat="53.015938"><ele>454.453888</ele><time>2021-09-01T11:01:45Z</time><extensions><speed>1.047342</speed><course>317.579376</course><hAcc>0.885663</hAcc><vAcc>0.706324</vAcc></extensions></trkpt>
      <trkpt lon="-3.150383" lat="53.015929"><ele>454.508972</ele><time>2021-09-01T11:01:46Z</time><extensions><speed>1.038608</speed><course>318.426422</course><hAcc>0.885696</hAcc><vAcc>0.706426</vAcc></extensions></trkpt>
      <trkpt lon="-3.150389" lat="53.015920"><ele>454.563446</ele><time>2021-09-01T11:01:47Z</time><extensions><speed>1.032509</speed><course>326.252594</course><hAcc>0.885724</hAcc><vAcc>0.706498</vAcc></extensions></trkpt>
      <trkpt lon="-3.150394" lat="53.015912"><ele>454.617737</ele><time>2021-09-01T11:01:48Z</time><extensions><speed>1.030238</speed><course>323.145020</course><hAcc>0.885747</hAcc><vAcc>0.706541</vAcc></extensions></trkpt>
      <trkpt lon="-3.150400" lat="53.015903"><ele>454.672180</ele><time>2021-09-01T11:01:49Z</time><extensions><speed>1.033000</speed><course>325.683777</course><hAcc>0.885767</hAcc><vAcc>0.706564</vAcc></extensions></trkpt>
      <trkpt lon="-3.150406" lat="53.015894"><ele>454.727325</ele><time>2021-09-01T11:01:50Z</time><extensions><speed>1.041012</speed><course>328.591705</course><hAcc>0.885786</hAcc><vAcc>0.706580</vAcc></extensions></trkpt>
      <trkpt lon="-3.150411" lat="53.015886"><ele>454.783844</ele><time>2021-09-01T11:01:51Z</time><extensions><speed>1.053175</speed><course>330.002411</course><hAcc>0.885804</hAcc><vAcc>0.706604</vAcc></extensions></trkpt>
      <trkpt lon="-3.150417" lat="53.015877"><ele>454.842133</ele><time>2021-09-01T11:01:52Z</time><extensions><speed>1.068106</speed><course>336.475830</course><hAcc>0.885823</hAcc><vAcc>0.706644</vAcc></extensions></trkpt>
      <trkpt lon="-3.150422" lat="53.015868"><ele>454.902283</ele><time>2021-09-01T11:01:53Z</time><extensions><speed>1.085069</speed><course>344.051849</course><hAcc>0.885840</hAcc><vAcc>0.706701</vAcc></extensions></trkpt>
      <trkpt lon="-3.150428" lat="53.015858"><ele>454.964050</ele><time>2021-09-01T11:01:54Z</time><extensions><speed>1.103454</speed><course>336.407532</course><hAcc>0.885854</hAcc><vAcc>0.706773</vAcc></extensions></trkpt>
      <trkpt lon="-3.150433" lat="53.015849"><ele>455.026581</ele><time>2021-09-01T11:01:55Z</time><extensions><speed>1.122314</speed><course>333.640045</course><hAcc>0.885862</hAcc><vAcc>0.706848</vAcc></extensions></trkpt>
      <trkpt lon="-3.150439" lat="53.015839"><ele>455.088531</ele><time>2021-09-01T11:01:56Z</time><extensions><speed>1.140587</speed><course>342.498993</course><hAcc>0.885858</hAcc><vAcc>0.706909</vAcc></extensions></trkpt>
      <trkpt lon="-3.150444" lat="53.015830"><ele>455.148285</ele><time>2021-09-01T11:01:57Z</time><extensions><speed>1.157643</speed><course>346.370605</course><hAcc>0.885839</hAcc><vAcc>0.706934</vAcc></extensions></trkpt>
      <trkpt lon="-3.150450" lat="53.015820"><ele>455.204407</ele><time>2021-09-01T11:01:58Z</time><extensions><speed>1.173515</speed><course>342.144836</course><hAcc>0.885800</hAcc><vAcc>0.706892</vAcc></extensions></trkpt>
      <trkpt lon="-3.150455" lat="53.015810"><ele>455.255920</ele><time>2021-09-01T11:01:59Z</time><extensions><speed>1.188595</speed><course>335.813446</course><hAcc>0.885736</hAcc><vAcc>0.706755</vAcc></extensions></trkpt>
      <trkpt lon="-3.150460" lat="53.015799"><ele>455.302429</ele><time>2021-09-01T11:02:00Z</time><extensions><speed>1.203154</speed><course>332.699371</course><hAcc>0.885645</hAcc><vAcc>0.706497</vAcc></extensions></trkpt>
      <trkpt lon="-3.150465" lat="53.015789"><ele>455.344177</ele><time>2021-09-01T11:02:01Z</time><extensions><speed>1.217012</speed><course>329.959167</course><hAcc>0.885527</hAcc><vAcc>0.706109</vAcc></extensions></trkpt>
      <trkpt lon="-3.150471" lat="53.015778"><ele>455.382080</ele><time>2021-09-01T11:02:02Z</time><extensions><speed>1.229755</speed><course>328.573547</course><hAcc>0.885385</hAcc><vAcc>0.705600</vAcc></extensions></trkpt>
      <trkpt lon="-3.150476" lat="53.015768"><ele>455.417267</ele><time>2021-09-01T11:02:03Z</time><extensions><speed>1.240844</speed><course>326.699219</course><hAcc>0.885225</hAcc><vAcc>0.704995</vAcc></extensions></trkpt>
      <trkpt lon="-3.150481" lat="53.015757"><ele>455.450439</ele><time>2021-09-01T11:02:04Z</time><extensions><speed>1.249665</speed><course>323.768890</course><hAcc>0.885056</hAcc><vAcc>0.704332</vAcc></extensions></trkpt>
      <trkpt lon="-3.150487" lat="53.015746"><ele>455.481567</ele><time>2021-09-01T11:02:05Z</time><extensions><speed>1.255937</speed><course>323.826019</course><hAcc>0.884894</hAcc><vAcc>0.703655</vAcc></extensions></trkpt>
      <trkpt lon="-3.150492" lat="53.015735"><ele>455.510193</ele><time>2021-09-01T11:02:06Z</time><extensions><speed>1.259841</speed><course>332.271057</course><hAcc>0.884758</hAcc><vAcc>0.703014</vAcc></extensions></trkpt>
      <trkpt lon="-3.150498" lat="53.015725"><ele>455.535767</ele><time>2021-09-01T11:02:07Z</time><extensions><speed>1.261879</speed><course>333.951233</course><hAcc>0.884673</hAcc><vAcc>0.702460</vAcc></extensions></trkpt>
      <trkpt lon="-3.150504" lat="53.015714"><ele>455.558075</ele><time>2021-09-01T11:02:08Z</time><extensions><speed>1.262643</speed><course>329.776917</course><hAcc>0.884667</hAcc><vAcc>0.702039</vAcc></extensions></trkpt>
      <trkpt lon="-3.150510" lat="53.015703"><ele>455.577271</ele><time>2021-09-01T11:02:09Z</time><extensions><speed>1.262841</speed><course>319.463959</course><hAcc>0.884776</hAcc><vAcc>0.701796</vAcc></extensions></trkpt>
      <trkpt lon="-3.150516" lat="53.015692"><ele>455.593689</ele><time>2021-09-01T11:02:10Z</time><extensions><speed>1.262996</speed><course>318.313507</course><hAcc>0.885042</hAcc><vAcc>0.701778</vAcc></extensions></trkpt>
      <trkpt lon="-3.150522" lat="53.015682"><ele>455.607483</ele><time>2021-09-01T11:02:11Z</time><extensions><speed>1.263127</speed><course>318.491211</course><hAcc>0.885508</hAcc><vAcc>0.702021</vAcc></extensions></trkpt>
      <trkpt lon="-3.150529" lat="53.015671"><ele>455.618683</ele><time>2021-09-01T11:02:12Z</time><extensions><speed>1.262974</speed><course>324.025574</course><hAcc>0.886219</hAcc><vAcc>0.702548</vAcc></extensions></trkpt>
      <trkpt lon="-3.150536" lat="53.015660"><ele>455.627441</ele><time>2021-09-01T11:02:13Z</time><extensions><speed>1.262506</speed><course>330.489594</course><hAcc>0.887215</hAcc><vAcc>0.703361</vAcc></extensions></trkpt>
      <trkpt lon="-3.150543" lat="53.015650"><ele>455.634186</ele><time>2021-09-01T11:02:14Z</time><extensions><speed>1.261725</speed><course>319.490967</course><hAcc>0.888523</hAcc><vAcc>0.704448</vAcc></extensions></trkpt>
      <trkpt lon="-3.150550" lat="53.015640"><ele>455.639160</ele><time>2021-09-01T11:02:15Z</time><extensions><speed>1.259479</speed><course>318.785126</course><hAcc>0.890151</hAcc><vAcc>0.705782</vAcc></extensions></trkpt>
      <trkpt lon="-3.150558" lat="53.015629"><ele>455.642090</ele><time>2021-09-01T11:02:16Z</time><extensions><speed>1.253106</speed><course>319.524078</course><hAcc>0.892071</hAcc><vAcc>0.707314</vAcc></extensions></trkpt>
      <trkpt lon="-3.150565" lat="53.015619"><ele>455.642487</ele><time>2021-09-01T11:02:17Z</time><extensions><speed>1.240743</speed><course>320.200592</course><hAcc>0.894210</hAcc><vAcc>0.708959</vAcc></extensions></trkpt>
      <trkpt lon="-3.150573" lat="53.015609"><ele>455.640015</ele><time>2021-09-01T11:02:18Z</time><extensions><speed>1.222213</speed><course>316.905914</course><hAcc>0.896442</hAcc><vAcc>0.710610</vAcc></extensions></trkpt>
      <trkpt lon="-3.150581" lat="53.015599"><ele>455.634491</ele><time>2021-09-01T11:02:19Z</time><extensions><speed>1.197761</speed><course>304.890350</course><hAcc>0.898589</hAcc><vAcc>0.712146</vAcc></extensions></trkpt>
      <trkpt lon="-3.150588" lat="53.015590"><ele>455.625671</ele><time>2021-09-01T11:02:20Z</time><extensions><speed>1.167944</speed><course>307.400696</course><hAcc>0.900444</hAcc><vAcc>0.713459</vAcc></extensions></trkpt>
      <trkpt lon="-3.150596" lat="53.015580"><ele>455.613098</ele><time>2021-09-01T11:02:21Z</time><extensions><speed>1.133547</speed><course>312.802460</course><hAcc>0.901822</hAcc><vAcc>0.714501</vAcc></extensions></trkpt>
      <trkpt lon="-3.150603" lat="53.015571"><ele>455.596405</ele><time>2021-09-01T11:02:22Z</time><extensions><speed>1.095613</speed><course>316.368164</course><hAcc>0.902659</hAcc><vAcc>0.715369</vAcc></extensions></trkpt>
      <trkpt lon="-3.150610" lat="53.015563"><ele>455.575348</ele><time>2021-09-01T11:02:23Z</time><extensions><speed>1.055303</speed><course>316.320160</course><hAcc>0.903182</hAcc><vAcc>0.716457</vAcc></extensions></trkpt>
      <trkpt lon="-3.150617" lat="53.015554"><ele>455.550110</ele><time>2021-09-01T11:02:24Z</time><extensions><speed>1.013829</speed><course>316.450867</course><hAcc>0.904169</hAcc><vAcc>0.718652</vAcc></extensions></trkpt>
      <trkpt lon="-3.150624" lat="53.015546"><ele>455.521149</ele><time>2021-09-01T11:02:25Z</time><extensions><speed>0.972363</speed><course>319.349792</course><hAcc>0.907310</hAcc><vAcc>0.723582</vAcc></extensions></trkpt>
      <trkpt lon="-3.150630" lat="53.015539"><ele>455.489075</ele><time>2021-09-01T11:02:26Z</time><extensions><speed>0.932250</speed><course>313.071381</course><hAcc>0.915650</hAcc><vAcc>0.733862</vAcc></extensions></trkpt>
      <trkpt lon="-3.150636" lat="53.015531"><ele>455.454376</ele><time>2021-09-01T11:02:27Z</time><extensions><speed>0.895189</speed><course>306.006348</course><hAcc>0.934006</hAcc><vAcc>0.753249</vAcc></extensions></trkpt>
      <trkpt lon="-3.150641" lat="53.015524"><ele>455.417206</ele><time>2021-09-01T11:02:28Z</time><extensions><speed>0.862830</speed><course>311.452911</course><hAcc>0.969101</hAcc><vAcc>0.786543</vAcc></extensions></trkpt>
      <trkpt lon="-3.150645" lat="53.015521"><ele>455.433136</ele><time>2021-09-01T11:02:29Z</time><extensions><speed>0.378277</speed><course>-1.000000</course><hAcc>0.931865</hAcc><vAcc>0.753457</vAcc></extensions></trkpt>
      <trkpt lon="-3.150647" lat="53.015518"><ele>455.435333</ele><time>2021-09-01T11:02:30Z</time><extensions><speed>0.353698</speed><course>-1.000000</course><hAcc>0.912945</hAcc><vAcc>0.733575</vAcc></extensions></trkpt>
      <trkpt lon="-3.150649" lat="53.015515"><ele>455.436890</ele><time>2021-09-01T11:02:31Z</time><extensions><speed>0.327411</speed><course>-1.000000</course><hAcc>0.905271</hAcc><vAcc>0.723941</vAcc></extensions></trkpt>
      <trkpt lon="-3.150651" lat="53.015513"><ele>455.437744</ele><time>2021-09-01T11:02:32Z</time><extensions><speed>0.300295</speed><course>-1.000000</course><hAcc>0.903331</hAcc><vAcc>0.720317</vAcc></extensions></trkpt>
      <trkpt lon="-3.150653" lat="53.015511"><ele>455.437866</ele><time>2021-09-01T11:02:33Z</time><extensions><speed>0.273444</speed><course>-1.000000</course><hAcc>0.903637</hAcc><vAcc>0.719727</vAcc></extensions></trkpt>
      <trkpt lon="-3.150655" lat="53.015509"><ele>455.437286</ele><time>2021-09-01T11:02:34Z</time><extensions><speed>0.247870</speed><course>-1.000000</course><hAcc>0.904264</hAcc><vAcc>0.720298</vAcc></extensions></trkpt>
      <trkpt lon="-3.150657" lat="53.015507"><ele>455.435760</ele><time>2021-09-01T11:02:35Z</time><extensions><speed>0.224507</speed><course>-1.000000</course><hAcc>0.904333</hAcc><vAcc>0.720974</vAcc></extensions></trkpt>
      <trkpt lon="-3.150658" lat="53.015505"><ele>455.432983</ele><time>2021-09-01T11:02:36Z</time><extensions><speed>0.204546</speed><course>-1.000000</course><hAcc>0.903599</hAcc><vAcc>0.721256</vAcc></extensions></trkpt>
      <trkpt lon="-3.150660" lat="53.015504"><ele>455.428772</ele><time>2021-09-01T11:02:37Z</time><extensions><speed>0.189045</speed><course>-1.000000</course><hAcc>0.902148</hAcc><vAcc>0.720989</vAcc></extensions></trkpt>
      <trkpt lon="-3.150661" lat="53.015502"><ele>455.423065</ele><time>2021-09-01T11:02:38Z</time><extensions><speed>0.178522</speed><course>184.559082</course><hAcc>0.900203</hAcc><vAcc>0.720201</vAcc></extensions></trkpt>
      <trkpt lon="-3.150663" lat="53.015501"><ele>455.415649</ele><time>2021-09-01T11:02:39Z</time><extensions><speed>0.173232</speed><course>-1.000000</course><hAcc>0.898014</hAcc><vAcc>0.719007</vAcc></extensions></trkpt>
      <trkpt lon="-3.150665" lat="53.015500"><ele>455.406464</ele><time>2021-09-01T11:02:40Z</time><extensions><speed>0.173488</speed><course>-1.000000</course><hAcc>0.895794</hAcc><vAcc>0.717542</vAcc></extensions></trkpt>
      <trkpt lon="-3.150666" lat="53.015498"><ele>455.395538</ele><time>2021-09-01T11:02:41Z</time><extensions><speed>0.179264</speed><course>-1.000000</course><hAcc>0.893699</hAcc><vAcc>0.715924</vAcc></extensions></trkpt>
      <trkpt lon="-3.150668" lat="53.015497"><ele>455.382965</ele><time>2021-09-01T11:02:42Z</time><extensions><speed>0.190108</speed><course>-1.000000</course><hAcc>0.891822</hAcc><vAcc>0.714247</vAcc></extensions></trkpt>
      <trkpt lon="-3.150670" lat="53.015496"><ele>455.368866</ele><time>2021-09-01T11:02:43Z</time><extensions><speed>0.205471</speed><course>53.307610</course><hAcc>0.890206</hAcc><vAcc>0.712569</vAcc></extensions></trkpt>
      <trkpt lon="-3.150672" lat="53.015494"><ele>455.353333</ele><time>2021-09-01T11:02:44Z</time><extensions><speed>0.225073</speed><course>-1.000000</course><hAcc>0.888856</hAcc><vAcc>0.710926</vAcc></extensions></trkpt>
      <trkpt lon="-3.150675" lat="53.015493"><ele>455.336700</ele><time>2021-09-01T11:02:45Z</time><extensions><speed>0.249123</speed><course>-1.000000</course><hAcc>0.887754</hAcc><vAcc>0.709337</vAcc></extensions></trkpt>
      <trkpt lon="-3.150677" lat="53.015491"><ele>455.319458</ele><time>2021-09-01T11:02:46Z</time><extensions><speed>0.277968</speed><course>-1.000000</course><hAcc>0.886870</hAcc><vAcc>0.707818</vAcc></extensions></trkpt>
      <trkpt lon="-3.150680" lat="53.015489"><ele>455.302429</ele><time>2021-09-01T11:02:47Z</time><extensions><speed>0.311616</speed><course>120.394302</course><hAcc>0.886170</hAcc><vAcc>0.706392</vAcc></extensions></trkpt>
      <trkpt lon="-3.150684" lat="53.015487"><ele>455.286621</ele><time>2021-09-01T11:02:48Z</time><extensions><speed>0.349558</speed><course>-1.000000</course><hAcc>0.885625</hAcc><vAcc>0.705097</vAcc></extensions></trkpt>
      <trkpt lon="-3.150688" lat="53.015485"><ele>455.272919</ele><time>2021-09-01T11:02:49Z</time><extensions><speed>0.390556</speed><course>-1.000000</course><hAcc>0.885210</hAcc><vAcc>0.703981</vAcc></extensions></trkpt>
      <trkpt lon="-3.150692" lat="53.015482"><ele>455.261932</ele><time>2021-09-01T11:02:50Z</time><extensions><speed>0.433123</speed><course>-1.000000</course><hAcc>0.884906</hAcc><vAcc>0.703084</vAcc></extensions></trkpt>
      <trkpt lon="-3.150696" lat="53.015479"><ele>455.254059</ele><time>2021-09-01T11:02:51Z</time><extensions><speed>0.477480</speed><course>-1.000000</course><hAcc>0.884700</hAcc><vAcc>0.702429</vAcc></extensions></trkpt>
      <trkpt lon="-3.150702" lat="53.015476"><ele>455.249725</ele><time>2021-09-01T11:02:52Z</time><extensions><speed>0.524460</speed><course>-1.000000</course><hAcc>0.884581</hAcc><vAcc>0.702024</vAcc></extensions></trkpt>
      <trkpt lon="-3.150707" lat="53.015472"><ele>455.249329</ele><time>2021-09-01T11:02:54Z</time><extensions><speed>0.573730</speed><course>-1.000000</course><hAcc>0.884525</hAcc><vAcc>0.701860</vAcc></extensions></trkpt>
      <trkpt lon="-3.150713" lat="53.015468"><ele>455.253082</ele><time>2021-09-01T11:02:55Z</time><extensions><speed>0.623698</speed><course>-1.000000</course><hAcc>0.884525</hAcc><vAcc>0.701932</vAcc></extensions></trkpt>
      <trkpt lon="-3.150720" lat="53.015464"><ele>455.260956</ele><time>2021-09-01T11:02:56Z</time><extensions><speed>0.672337</speed><course>-1.000000</course><hAcc>0.884593</hAcc><vAcc>0.702236</vAcc></extensions></trkpt>
      <trkpt lon="-3.150727" lat="53.015459"><ele>455.272797</ele><time>2021-09-01T11:02:57Z</time><extensions><speed>0.717802</speed><course>-1.000000</course><hAcc>0.884719</hAcc><vAcc>0.702744</vAcc></extensions></trkpt>
      <trkpt lon="-3.150735" lat="53.015455"><ele>455.288513</ele><time>2021-09-01T11:02:58Z</time><extensions><speed>0.759304</speed><course>-1.000000</course><hAcc>0.884895</hAcc><vAcc>0.703428</vAcc></extensions></trkpt>
      <trkpt lon="-3.150743" lat="53.015450"><ele>455.308167</ele><time>2021-09-01T11:02:59Z</time><extensions><speed>0.797419</speed><course>-1.000000</course><hAcc>0.885109</hAcc><vAcc>0.704257</vAcc></extensions></trkpt>
      <trkpt lon="-3.150752" lat="53.015445"><ele>455.331787</ele><time>2021-09-01T11:03:00Z</time><extensions><speed>0.833495</speed><course>-1.000000</course><hAcc>0.885351</hAcc><vAcc>0.705194</vAcc></extensions></trkpt>
      <trkpt lon="-3.150761" lat="53.015439"><ele>455.359314</ele><time>2021-09-01T11:03:01Z</time><extensions><speed>0.868277</speed><course>-1.000000</course><hAcc>0.885608</hAcc><vAcc>0.706191</vAcc></extensions></trkpt>
      <trkpt lon="-3.150770" lat="53.015434"><ele>455.390289</ele><time>2021-09-01T11:03:01Z</time><extensions><speed>0.901528</speed><course>-1.000000</course><hAcc>0.885888</hAcc><vAcc>0.707209</vAcc></extensions></trkpt>
      <trkpt lon="-3.150780" lat="53.015428"><ele>455.424164</ele><time>2021-09-01T11:03:02Z</time><extensions><speed>0.933187</speed><course>-1.000000</course><hAcc>0.886180</hAcc><vAcc>0.708203</vAcc></extensions></trkpt>
      <trkpt lon="-3.150791" lat="53.015423"><ele>455.460388</ele><time>2021-09-01T11:03:03Z</time><extensions><speed>0.963395</speed><course>-1.000000</course><hAcc>0.886458</hAcc><vAcc>0.709123</vAcc></extensions></trkpt>
      <trkpt lon="-3.150802" lat="53.015417"><ele>455.498260</ele><time>2021-09-01T11:03:04Z</time><extensions><speed>0.992277</speed><course>-1.000000</course><hAcc>0.886716</hAcc><vAcc>0.709946</vAcc></extensions></trkpt>
      <trkpt lon="-3.150813" lat="53.015411"><ele>455.536987</ele><time>2021-09-01T11:03:05Z</time><extensions><speed>1.019607</speed><course>-1.000000</course><hAcc>0.886948</hAcc><vAcc>0.710662</vAcc></extensions></trkpt>
      <trkpt lon="-3.150825" lat="53.015405"><ele>455.575836</ele><time>2021-09-01T11:03:06Z</time><extensions><speed>1.045367</speed><course>-1.000000</course><hAcc>0.887153</hAcc><vAcc>0.711269</vAcc></extensions></trkpt>
      <trkpt lon="-3.150837" lat="53.015399"><ele>455.614410</ele><time>2021-09-01T11:03:07Z</time><extensions><speed>1.069723</speed><course>116.725777</course><hAcc>0.887327</hAcc><vAcc>0.711772</vAcc></extensions></trkpt>
      <trkpt lon="-3.150850" lat="53.015393"><ele>455.652100</ele><time>2021-09-01T11:03:08Z</time><extensions><speed>1.092780</speed><course>116.725777</course><hAcc>0.887471</hAcc><vAcc>0.712178</vAcc></extensions></trkpt>
      <trkpt lon="-3.150862" lat="53.015387"><ele>455.688507</ele><time>2021-09-01T11:03:10Z</time><extensions><speed>1.114425</speed><course>116.725777</course><hAcc>0.887568</hAcc><vAcc>0.712482</vAcc></extensions></trkpt>
      <trkpt lon="-3.150876" lat="53.015380"><ele>455.723297</ele><time>2021-09-01T11:03:11Z</time><extensions><speed>1.134260</speed><course>116.725777</course><hAcc>0.887616</hAcc><vAcc>0.712686</vAcc></extensions></trkpt>
      <trkpt lon="-3.150889" lat="53.015374"><ele>455.756378</ele><time>2021-09-01T11:03:11Z</time><extensions><speed>1.151989</speed><course>116.725777</course><hAcc>0.887653</hAcc><vAcc>0.712819</vAcc></extensions></trkpt>
      <trkpt lon="-3.150903" lat="53.015368"><ele>455.787903</ele><time>2021-09-01T11:03:12Z</time><extensions><speed>1.167319</speed><course>116.725784</course><hAcc>0.887679</hAcc><vAcc>0.712884</vAcc></extensions></trkpt>
      <trkpt lon="-3.150918" lat="53.015362"><ele>455.818054</ele><time>2021-09-01T11:03:13Z</time><extensions><speed>1.180372</speed><course>116.725784</course><hAcc>0.887676</hAcc><vAcc>0.712872</vAcc></extensions></trkpt>
      <trkpt lon="-3.150932" lat="53.015356"><ele>455.847443</ele><time>2021-09-01T11:03:14Z</time><extensions><speed>1.192056</speed><course>116.725784</course><hAcc>0.887645</hAcc><vAcc>0.712781</vAcc></extensions></trkpt>
      <trkpt lon="-3.150947" lat="53.015350"><ele>455.876740</ele><time>2021-09-01T11:03:15Z</time><extensions><speed>1.203583</speed><course>116.725784</course><hAcc>0.887589</hAcc><vAcc>0.712610</vAcc></extensions></trkpt>
      <trkpt lon="-3.150962" lat="53.015344"><ele>455.906342</ele><time>2021-09-01T11:03:16Z</time><extensions><speed>1.215774</speed><course>116.725784</course><hAcc>0.887510</hAcc><vAcc>0.712358</vAcc></extensions></trkpt>
      <trkpt lon="-3.150978" lat="53.015339"><ele>455.936432</ele><time>2021-09-01T11:03:17Z</time><extensions><speed>1.229514</speed><course>116.725784</course><hAcc>0.887409</hAcc><vAcc>0.712028</vAcc></extensions></trkpt>
      <trkpt lon="-3.150994" lat="53.015333"><ele>455.967285</ele><time>2021-09-01T11:03:18Z</time><extensions><speed>1.245148</speed><course>116.725784</course><hAcc>0.887289</hAcc><vAcc>0.711625</vAcc></extensions></trkpt>
      <trkpt lon="-3.151010" lat="53.015328"><ele>455.999268</ele><time>2021-09-01T11:03:19Z</time><extensions><speed>1.261921</speed><course>116.725784</course><hAcc>0.887156</hAcc><vAcc>0.711157</vAcc></extensions></trkpt>
      <trkpt lon="-3.151027" lat="53.015323"><ele>456.032806</ele><time>2021-09-01T11:03:20Z</time><extensions><speed>1.278282</speed><course>116.725784</course><hAcc>0.887013</hAcc><vAcc>0.710635</vAcc></extensions></trkpt>
      <trkpt lon="-3.151045" lat="53.015318"><ele>456.067841</ele><time>2021-09-01T11:03:21Z</time><extensions><speed>1.292813</speed><course>116.725784</course><hAcc>0.886866</hAcc><vAcc>0.710082</vAcc></extensions></trkpt>
      <trkpt lon="-3.151062" lat="53.015313"><ele>456.103882</ele><time>2021-09-01T11:03:22Z</time><extensions><speed>1.305565</speed><course>116.725784</course><hAcc>0.886719</hAcc><vAcc>0.709526</vAcc></extensions></trkpt>
      <trkpt lon="-3.151080" lat="53.015308"><ele>456.140198</ele><time>2021-09-01T11:03:23Z</time><extensions><speed>1.316633</speed><course>116.725784</course><hAcc>0.886579</hAcc><vAcc>0.708997</vAcc></extensions></trkpt>
      <trkpt lon="-3.151098" lat="53.015304"><ele>456.176239</ele><time>2021-09-01T11:03:24Z</time><extensions><speed>1.325937</speed><course>116.725784</course><hAcc>0.886448</hAcc><vAcc>0.708525</vAcc></extensions></trkpt>
      <trkpt lon="-3.151117" lat="53.015299"><ele>456.211609</ele><time>2021-09-01T11:03:25Z</time><extensions><speed>1.333342</speed><course>116.725784</course><hAcc>0.886330</hAcc><vAcc>0.708128</vAcc></extensions></trkpt>
      <trkpt lon="-3.151135" lat="53.015295"><ele>456.246277</ele><time>2021-09-01T11:03:26Z</time><extensions><speed>1.338512</speed><course>116.725784</course><hAcc>0.886227</hAcc><vAcc>0.707810</vAcc></extensions></trkpt>
      <trkpt lon="-3.151154" lat="53.015291"><ele>456.280457</ele><time>2021-09-01T11:03:27Z</time><extensions><speed>1.341698</speed><course>116.725784</course><hAcc>0.886140</hAcc><vAcc>0.707566</vAcc></extensions></trkpt>
      <trkpt lon="-3.151173" lat="53.015286"><ele>456.314453</ele><time>2021-09-01T11:03:28Z</time><extensions><speed>1.343481</speed><course>116.725784</course><hAcc>0.886067</hAcc><vAcc>0.707379</vAcc></extensions></trkpt>
      <trkpt lon="-3.151191" lat="53.015282"><ele>456.348267</ele><time>2021-09-01T11:03:29Z</time><extensions><speed>1.343966</speed><course>116.725777</course><hAcc>0.886008</hAcc><vAcc>0.707235</vAcc></extensions></trkpt>
      <trkpt lon="-3.151210" lat="53.015278"><ele>456.381897</ele><time>2021-09-01T11:03:30Z</time><extensions><speed>1.343115</speed><course>116.725769</course><hAcc>0.885958</hAcc><vAcc>0.707120</vAcc></extensions></trkpt>
      <trkpt lon="-3.151229" lat="53.015274"><ele>456.415527</ele><time>2021-09-01T11:03:31Z</time><extensions><speed>1.341637</speed><course>116.725769</course><hAcc>0.885916</hAcc><vAcc>0.707022</vAcc></extensions></trkpt>
      <trkpt lon="-3.151248" lat="53.015271"><ele>456.449677</ele><time>2021-09-01T11:03:32Z</time><extensions><speed>1.340486</speed><course>116.725761</course><hAcc>0.885878</hAcc><vAcc>0.706930</vAcc></extensions></trkpt>
      <trkpt lon="-3.151267" lat="53.015267"><ele>456.484741</ele><time>2021-09-01T11:03:33Z</time><extensions><speed>1.340728</speed><course>116.725754</course><hAcc>0.885843</hAcc><vAcc>0.706834</vAcc></extensions></trkpt>
      <trkpt lon="-3.151286" lat="53.015263"><ele>456.520813</ele><time>2021-09-01T11:03:34Z</time><extensions><speed>1.342716</speed><course>116.725746</course><hAcc>0.885807</hAcc><vAcc>0.706728</vAcc></extensions></trkpt>
      <trkpt lon="-3.151306" lat="53.015260"><ele>456.558075</ele><time>2021-09-01T11:03:35Z</time><extensions><speed>1.346187</speed><course>116.725746</course><hAcc>0.885771</hAcc><vAcc>0.706609</vAcc></extensions></trkpt>
      <trkpt lon="-3.151325" lat="53.015257"><ele>456.596954</ele><time>2021-09-01T11:03:36Z</time><extensions><speed>1.351004</speed><course>116.725731</course><hAcc>0.885733</hAcc><vAcc>0.706477</vAcc></extensions></trkpt>
      <trkpt lon="-3.151344" lat="53.015253"><ele>456.637970</ele><time>2021-09-01T11:03:37Z</time><extensions><speed>1.356629</speed><course>116.725723</course><hAcc>0.885693</hAcc><vAcc>0.706332</vAcc></extensions></trkpt>
      <trkpt lon="-3.151364" lat="53.015250"><ele>456.681885</ele><time>2021-09-01T11:03:38Z</time><extensions><speed>1.362905</speed><course>116.725723</course><hAcc>0.885653</hAcc><vAcc>0.706181</vAcc></extensions></trkpt>
      <trkpt lon="-3.151384" lat="53.015247"><ele>456.729584</ele><time>2021-09-01T11:03:39Z</time><extensions><speed>1.369273</speed><course>116.725708</course><hAcc>0.885613</hAcc><vAcc>0.706029</vAcc></extensions></trkpt>
      <trkpt lon="-3.151403" lat="53.015244"><ele>456.781830</ele><time>2021-09-01T11:03:40Z</time><extensions><speed>1.374235</speed><course>116.725700</course><hAcc>0.885574</hAcc><vAcc>0.705886</vAcc></extensions></trkpt>
      <trkpt lon="-3.151423" lat="53.015241"><ele>456.839081</ele><time>2021-09-01T11:03:41Z</time><extensions><speed>1.376914</speed><course>116.725693</course><hAcc>0.885536</hAcc><vAcc>0.705756</vAcc></extensions></trkpt>
      <trkpt lon="-3.151443" lat="53.015238"><ele>456.901581</ele><time>2021-09-01T11:03:42Z</time><extensions><speed>1.376966</speed><course>116.725685</course><hAcc>0.885500</hAcc><vAcc>0.705642</vAcc></extensions></trkpt>
      <trkpt lon="-3.151463" lat="53.015235"><ele>456.969849</ele><time>2021-09-01T11:03:43Z</time><extensions><speed>1.374209</speed><course>116.725670</course><hAcc>0.885466</hAcc><vAcc>0.705544</vAcc></extensions></trkpt>
      <trkpt lon="-3.151483" lat="53.015232"><ele>457.044464</ele><time>2021-09-01T11:03:44Z</time><extensions><speed>1.368819</speed><course>116.725670</course><hAcc>0.885433</hAcc><vAcc>0.705460</vAcc></extensions></trkpt>
      <trkpt lon="-3.151503" lat="53.015229"><ele>457.125458</ele><time>2021-09-01T11:03:45Z</time><extensions><speed>1.360618</speed><course>116.725662</course><hAcc>0.885402</hAcc><vAcc>0.705385</vAcc></extensions></trkpt>
      <trkpt lon="-3.151522" lat="53.015226"><ele>457.212646</ele><time>2021-09-01T11:03:46Z</time><extensions><speed>1.348817</speed><course>316.510925</course><hAcc>0.885371</hAcc><vAcc>0.705312</vAcc></extensions></trkpt>
      <trkpt lon="-3.151541" lat="53.015223"><ele>457.305511</ele><time>2021-09-01T11:03:47Z</time><extensions><speed>1.332642</speed><course>325.771881</course><hAcc>0.885340</hAcc><vAcc>0.705233</vAcc></extensions></trkpt>
      <trkpt lon="-3.151561" lat="53.015220"><ele>457.403015</ele><time>2021-09-01T11:03:48Z</time><extensions><speed>1.312077</speed><course>329.412018</course><hAcc>0.885309</hAcc><vAcc>0.705142</vAcc></extensions></trkpt>
      <trkpt lon="-3.151579" lat="53.015217"><ele>457.503906</ele><time>2021-09-01T11:03:49Z</time><extensions><speed>1.287454</speed><course>328.807678</course><hAcc>0.885279</hAcc><vAcc>0.705040</vAcc></extensions></trkpt>
      <trkpt lon="-3.151598" lat="53.015214"><ele>457.606812</ele><time>2021-09-01T11:03:50Z</time><extensions><speed>1.258942</speed><course>328.238739</course><hAcc>0.885251</hAcc><vAcc>0.704929</vAcc></extensions></trkpt>
      <trkpt lon="-3.151616" lat="53.015211"><ele>457.710327</ele><time>2021-09-01T11:03:51Z</time><extensions><speed>1.226946</speed><course>328.754333</course><hAcc>0.885228</hAcc><vAcc>0.704820</vAcc></extensions></trkpt>
      <trkpt lon="-3.151633" lat="53.015209"><ele>457.812805</ele><time>2021-09-01T11:03:52Z</time><extensions><speed>1.191836</speed><course>321.291412</course><hAcc>0.885212</hAcc><vAcc>0.704724</vAcc></extensions></trkpt>
      <trkpt lon="-3.151650" lat="53.015206"><ele>457.912354</ele><time>2021-09-01T11:03:53Z</time><extensions><speed>1.154292</speed><course>315.163422</course><hAcc>0.885207</hAcc><vAcc>0.704657</vAcc></extensions></trkpt>
      <trkpt lon="-3.151666" lat="53.015203"><ele>458.007416</ele><time>2021-09-01T11:03:54Z</time><extensions><speed>1.115331</speed><course>320.356079</course><hAcc>0.885216</hAcc><vAcc>0.704635</vAcc></extensions></trkpt>
      <trkpt lon="-3.151682" lat="53.015201"><ele>458.096832</ele><time>2021-09-01T11:03:55Z</time><extensions><speed>1.075595</speed><course>314.759003</course><hAcc>0.885243</hAcc><vAcc>0.704676</vAcc></extensions></trkpt>
      <trkpt lon="-3.151697" lat="53.015198"><ele>458.179749</ele><time>2021-09-01T11:03:56Z</time><extensions><speed>1.035826</speed><course>306.430359</course><hAcc>0.885291</hAcc><vAcc>0.704792</vAcc></extensions></trkpt>
      <trkpt lon="-3.151712" lat="53.015196"><ele>458.255707</ele><time>2021-09-01T11:03:57Z</time><extensions><speed>0.997083</speed><course>312.642456</course><hAcc>0.885361</hAcc><vAcc>0.704993</vAcc></extensions></trkpt>
      <trkpt lon="-3.151726" lat="53.015193"><ele>458.324493</ele><time>2021-09-01T11:03:58Z</time><extensions><speed>0.960327</speed><course>309.329712</course><hAcc>0.885453</hAcc><vAcc>0.705284</vAcc></extensions></trkpt>
      <trkpt lon="-3.151739" lat="53.015191"><ele>458.385986</ele><time>2021-09-01T11:03:59Z</time><extensions><speed>0.926896</speed><course>306.517120</course><hAcc>0.885565</hAcc><vAcc>0.705661</vAcc></extensions></trkpt>
      <trkpt lon="-3.151753" lat="53.015189"><ele>458.440247</ele><time>2021-09-01T11:04:00Z</time><extensions><speed>0.898677</speed><course>302.169647</course><hAcc>0.885692</hAcc><vAcc>0.706116</vAcc></extensions></trkpt>
      <trkpt lon="-3.151765" lat="53.015187"><ele>458.487579</ele><time>2021-09-01T11:04:01Z</time><extensions><speed>0.878094</speed><course>299.953156</course><hAcc>0.885831</hAcc><vAcc>0.706632</vAcc></extensions></trkpt>
      <trkpt lon="-3.151778" lat="53.015185"><ele>458.528656</ele><time>2021-09-01T11:04:02Z</time><extensions><speed>0.868295</speed><course>299.473511</course><hAcc>0.885974</hAcc><vAcc>0.707184</vAcc></extensions></trkpt>
      <trkpt lon="-3.151791" lat="53.015183"><ele>458.564209</ele><time>2021-09-01T11:04:03Z</time><extensions><speed>0.872856</speed><course>298.103729</course><hAcc>0.886112</hAcc><vAcc>0.707736</vAcc></extensions></trkpt>
      <trkpt lon="-3.151803" lat="53.015181"><ele>458.595276</ele><time>2021-09-01T11:04:04Z</time><extensions><speed>0.894126</speed><course>294.101929</course><hAcc>0.886239</hAcc><vAcc>0.708249</vAcc></extensions></trkpt>
      <trkpt lon="-3.151817" lat="53.015179"><ele>458.623230</ele><time>2021-09-01T11:04:05Z</time><extensions><speed>0.931842</speed><course>298.669067</course><hAcc>0.886347</hAcc><vAcc>0.708684</vAcc></extensions></trkpt>
      <trkpt lon="-3.151830" lat="53.015178"><ele>458.649628</ele><time>2021-09-01T11:04:06Z</time><extensions><speed>0.983170</speed><course>297.460327</course><hAcc>0.886430</hAcc><vAcc>0.709009</vAcc></extensions></trkpt>
      <trkpt lon="-3.151845" lat="53.015175"><ele>458.675995</ele><time>2021-09-01T11:04:07Z</time><extensions><speed>1.042892</speed><course>300.643127</course><hAcc>0.886486</hAcc><vAcc>0.709206</vAcc></extensions></trkpt>
      <trkpt lon="-3.151861" lat="53.015173"><ele>458.703461</ele><time>2021-09-01T11:04:08Z</time><extensions><speed>1.104828</speed><course>300.762909</course><hAcc>0.886514</hAcc><vAcc>0.709268</vAcc></extensions></trkpt>
      <trkpt lon="-3.151877" lat="53.015171"><ele>458.732971</ele><time>2021-09-01T11:04:09Z</time><extensions><speed>1.163844</speed><course>306.221161</course><hAcc>0.886520</hAcc><vAcc>0.709207</vAcc></extensions></trkpt>
      <trkpt lon="-3.151894" lat="53.015168"><ele>458.765320</ele><time>2021-09-01T11:04:10Z</time><extensions><speed>1.216402</speed><course>311.753571</course><hAcc>0.886513</hAcc><vAcc>0.709047</vAcc></extensions></trkpt>
      <trkpt lon="-3.151912" lat="53.015166"><ele>458.800903</ele><time>2021-09-01T11:04:11Z</time><extensions><speed>1.260396</speed><course>314.039551</course><hAcc>0.886507</hAcc><vAcc>0.708823</vAcc></extensions></trkpt>
      <trkpt lon="-3.151931" lat="53.015163"><ele>458.839630</ele><time>2021-09-01T11:04:12Z</time><extensions><speed>1.294844</speed><course>316.125336</course><hAcc>0.886524</hAcc><vAcc>0.708580</vAcc></extensions></trkpt>
      <trkpt lon="-3.151950" lat="53.015160"><ele>458.881439</ele><time>2021-09-01T11:04:13Z</time><extensions><speed>1.320222</speed><course>313.054962</course><hAcc>0.886592</hAcc><vAcc>0.708367</vAcc></extensions></trkpt>
      <trkpt lon="-3.151969" lat="53.015157"><ele>458.926331</ele><time>2021-09-01T11:04:14Z</time><extensions><speed>1.338123</speed><course>309.718231</course><hAcc>0.886745</hAcc><vAcc>0.708230</vAcc></extensions></trkpt>
      <trkpt lon="-3.151988" lat="53.015154"><ele>458.974365</ele><time>2021-09-01T11:04:15Z</time><extensions><speed>1.350421</speed><course>315.993652</course><hAcc>0.887022</hAcc><vAcc>0.708216</vAcc></extensions></trkpt>
      <trkpt lon="-3.152008" lat="53.015151"><ele>459.025452</ele><time>2021-09-01T11:04:16Z</time><extensions><speed>1.358183</speed><course>314.639465</course><hAcc>0.887469</hAcc><vAcc>0.708360</vAcc></extensions></trkpt>
      <trkpt lon="-3.152027" lat="53.015148"><ele>459.079346</ele><time>2021-09-01T11:04:17Z</time><extensions><speed>1.361936</speed><course>314.699524</course><hAcc>0.888130</hAcc><vAcc>0.708692</vAcc></extensions></trkpt>
      <trkpt lon="-3.152047" lat="53.015145"><ele>459.135468</ele><time>2021-09-01T11:04:18Z</time><extensions><speed>1.362460</speed><course>315.537170</course><hAcc>0.889046</hAcc><vAcc>0.709225</vAcc></extensions></trkpt>
      <trkpt lon="-3.152067" lat="53.015141"><ele>459.193298</ele><time>2021-09-01T11:04:19Z</time><extensions><speed>1.360272</speed><course>315.384186</course><hAcc>0.890245</hAcc><vAcc>0.709954</vAcc></extensions></trkpt>
      <trkpt lon="-3.152086" lat="53.015138"><ele>459.252411</ele><time>2021-09-01T11:04:20Z</time><extensions><speed>1.355398</speed><course>316.068207</course><hAcc>0.891733</hAcc><vAcc>0.710848</vAcc></extensions></trkpt>
      <trkpt lon="-3.152105" lat="53.015135"><ele>459.312195</ele><time>2021-09-01T11:04:21Z</time><extensions><speed>1.348067</speed><course>319.526184</course><hAcc>0.893482</hAcc><vAcc>0.711848</vAcc></extensions></trkpt>
      <trkpt lon="-3.152125" lat="53.015131"><ele>459.371948</ele><time>2021-09-01T11:04:22Z</time><extensions><speed>1.338325</speed><course>322.032959</course><hAcc>0.895418</hAcc><vAcc>0.712865</vAcc></extensions></trkpt>
      <trkpt lon="-3.152144" lat="53.015128"><ele>459.431183</ele><time>2021-09-01T11:04:23Z</time><extensions><speed>1.325914</speed><course>326.209290</course><hAcc>0.897414</hAcc><vAcc>0.713782</vAcc></extensions></trkpt>
      <trkpt lon="-3.152162" lat="53.015125"><ele>459.489594</ele><time>2021-09-01T11:04:24Z</time><extensions><speed>1.311381</speed><course>324.142303</course><hAcc>0.899293</hAcc><vAcc>0.714464</vAcc></extensions></trkpt>
      <trkpt lon="-3.152181" lat="53.015121"><ele>459.546814</ele><time>2021-09-01T11:04:25Z</time><extensions><speed>1.294949</speed><course>332.193542</course><hAcc>0.900847</hAcc><vAcc>0.714794</vAcc></extensions></trkpt>
      <trkpt lon="-3.152199" lat="53.015118"><ele>459.602905</ele><time>2021-09-01T11:04:26Z</time><extensions><speed>1.276785</speed><course>329.558014</course><hAcc>0.901893</hAcc><vAcc>0.714724</vAcc></extensions></trkpt>
      <trkpt lon="-3.152218" lat="53.015115"><ele>459.658203</ele><time>2021-09-01T11:04:27Z</time><extensions><speed>1.256800</speed><course>323.309692</course><hAcc>0.902368</hAcc><vAcc>0.714371</vAcc></extensions></trkpt>
      <trkpt lon="-3.152235" lat="53.015112"><ele>459.713074</ele><time>2021-09-01T11:04:28Z</time><extensions><speed>1.234749</speed><course>319.992767</course><hAcc>0.902504</hAcc><vAcc>0.714159</vAcc></extensions></trkpt>
      <trkpt lon="-3.152253" lat="53.015108"><ele>459.767792</ele><time>2021-09-01T11:04:29Z</time><extensions><speed>1.211226</speed><course>322.539886</course><hAcc>0.903082</hAcc><vAcc>0.715013</vAcc></extensions></trkpt>
      <trkpt lon="-3.152270" lat="53.015105"><ele>459.822418</ele><time>2021-09-01T11:04:30Z</time><extensions><speed>1.187447</speed><course>317.532928</course><hAcc>0.905802</hAcc><vAcc>0.718609</vAcc></extensions></trkpt>
      <trkpt lon="-3.152286" lat="53.015102"><ele>459.876984</ele><time>2021-09-01T11:04:31Z</time><extensions><speed>1.164407</speed><course>314.725220</course><hAcc>0.913721</hAcc><vAcc>0.727627</vAcc></extensions></trkpt>
      <trkpt lon="-3.152303" lat="53.015098"><ele>459.931458</ele><time>2021-09-01T11:04:32Z</time><extensions><speed>1.143055</speed><course>325.463684</course><hAcc>0.931681</hAcc><vAcc>0.745917</vAcc></extensions></trkpt>
      <trkpt lon="-3.152318" lat="53.015095"><ele>459.985809</ele><time>2021-09-01T11:04:33Z</time><extensions><speed>1.124969</speed><course>326.490570</course><hAcc>0.966442</hAcc><vAcc>0.778379</vAcc></extensions></trkpt>
      <trkpt lon="-3.152332" lat="53.015089"><ele>460.001801</ele><time>2021-09-01T11:04:34Z</time><extensions><speed>1.090200</speed><course>-1.000000</course><hAcc>0.928935</hAcc><vAcc>0.744809</vAcc></extensions></trkpt>
      <trkpt lon="-3.152344" lat="53.015082"><ele>460.009247</ele><time>2021-09-01T11:04:35Z</time><extensions><speed>1.098043</speed><course>-1.000000</course><hAcc>0.910428</hAcc><vAcc>0.726054</vAcc></extensions></trkpt>
      <trkpt lon="-3.152355" lat="53.015075"><ele>460.019745</ele><time>2021-09-01T11:04:36Z</time><extensions><speed>1.108255</speed><course>-1.000000</course><hAcc>0.903108</hAcc><vAcc>0.717449</vAcc></extensions></trkpt>
      <trkpt lon="-3.152367" lat="53.015068"><ele>460.033630</ele><time>2021-09-01T11:04:37Z</time><extensions><speed>1.120037</speed><course>-1.000000</course><hAcc>0.901446</hAcc><vAcc>0.714675</vAcc></extensions></trkpt>
      <trkpt lon="-3.152378" lat="53.015060"><ele>460.050964</ele><time>2021-09-01T11:04:38Z</time><extensions><speed>1.132458</speed><course>-1.000000</course><hAcc>0.901953</hAcc><vAcc>0.714709</vAcc></extensions></trkpt>
      <trkpt lon="-3.152389" lat="53.015052"><ele>460.071991</ele><time>2021-09-01T11:04:39Z</time><extensions><speed>1.144984</speed><course>-1.000000</course><hAcc>0.902710</hAcc><vAcc>0.715671</vAcc></extensions></trkpt>
      <trkpt lon="-3.152400" lat="53.015044"><ele>460.096954</ele><time>2021-09-01T11:04:40Z</time><extensions><speed>1.157059</speed><course>-1.000000</course><hAcc>0.902855</hAcc><vAcc>0.716533</vAcc></extensions></trkpt>
      <trkpt lon="-3.152410" lat="53.015036"><ele>460.126282</ele><time>2021-09-01T11:04:41Z</time><extensions><speed>1.168774</speed><course>-1.000000</course><hAcc>0.902158</hAcc><vAcc>0.716849</vAcc></extensions></trkpt>
      <trkpt lon="-3.152421" lat="53.015028"><ele>460.160095</ele><time>2021-09-01T11:04:42Z</time><extensions><speed>1.180421</speed><course>-1.000000</course><hAcc>0.900720</hAcc><vAcc>0.716519</vAcc></extensions></trkpt>
      <trkpt lon="-3.152431" lat="53.015019"><ele>460.198303</ele><time>2021-09-01T11:04:43Z</time><extensions><speed>1.191636</speed><course>184.559082</course><hAcc>0.898784</hAcc><vAcc>0.715635</vAcc></extensions></trkpt>
      <trkpt lon="-3.152441" lat="53.015010"><ele>460.240448</ele><time>2021-09-01T11:04:44Z</time><extensions><speed>1.202128</speed><course>-1.000000</course><hAcc>0.896612</hAcc><vAcc>0.714368</vAcc></extensions></trkpt>
      <trkpt lon="-3.152452" lat="53.015001"><ele>460.286285</ele><time>2021-09-01T11:04:45Z</time><extensions><speed>1.212100</speed><course>-1.000000</course><hAcc>0.894432</hAcc><vAcc>0.712909</vAcc></extensions></trkpt>
      <trkpt lon="-3.152462" lat="53.014992"><ele>460.335754</ele><time>2021-09-01T11:04:46Z</time><extensions><speed>1.221845</speed><course>-1.000000</course><hAcc>0.892409</hAcc><vAcc>0.711424</vAcc></extensions></trkpt>
      <trkpt lon="-3.152473" lat="53.014983"><ele>460.388855</ele><time>2021-09-01T11:04:47Z</time><extensions><speed>1.231074</speed><course>-1.000000</course><hAcc>0.890642</hAcc><vAcc>0.710036</vAcc></extensions></trkpt>
      <trkpt lon="-3.152483" lat="53.014974"><ele>460.445099</ele><time>2021-09-01T11:04:48Z</time><extensions><speed>1.239456</speed><course>53.307610</course><hAcc>0.889178</hAcc><vAcc>0.708821</vAcc></extensions></trkpt>
      <trkpt lon="-3.152494" lat="53.014965"><ele>460.503845</ele><time>2021-09-01T11:04:49Z</time><extensions><speed>1.247161</speed><course>-1.000000</course><hAcc>0.888018</hAcc><vAcc>0.707813</vAcc></extensions></trkpt>
      <trkpt lon="-3.152505" lat="53.014956"><ele>460.564484</ele><time>2021-09-01T11:04:50Z</time><extensions><speed>1.255059</speed><course>-1.000000</course><hAcc>0.887138</hAcc><vAcc>0.707013</vAcc></extensions></trkpt>
      <trkpt lon="-3.152517" lat="53.014947"><ele>460.626740</ele><time>2021-09-01T11:04:51Z</time><extensions><speed>1.263764</speed><course>-1.000000</course><hAcc>0.886498</hAcc><vAcc>0.706399</vAcc></extensions></trkpt>
      <trkpt lon="-3.152528" lat="53.014938"><ele>460.690582</ele><time>2021-09-01T11:04:52Z</time><extensions><speed>1.273094</speed><course>120.394302</course><hAcc>0.886053</hAcc><vAcc>0.705942</vAcc></extensions></trkpt>
      <trkpt lon="-3.152540" lat="53.014929"><ele>460.756104</ele><time>2021-09-01T11:04:53Z</time><extensions><speed>1.282510</speed><course>-1.000000</course><hAcc>0.885758</hAcc><vAcc>0.705614</vAcc></extensions></trkpt>
      <trkpt lon="-3.152552" lat="53.014920"><ele>460.822968</ele><time>2021-09-01T11:04:54Z</time><extensions><speed>1.291343</speed><course>-1.000000</course><hAcc>0.885575</hAcc><vAcc>0.705388</vAcc></extensions></trkpt>
      <trkpt lon="-3.152565" lat="53.014911"><ele>460.890900</ele><time>2021-09-01T11:04:55Z</time><extensions><speed>1.299590</speed><course>-1.000000</course><hAcc>0.885471</hAcc><vAcc>0.705246</vAcc></extensions></trkpt>
      <trkpt lon="-3.152577" lat="53.014902"><ele>460.959625</ele><time>2021-09-01T11:04:56Z</time><extensions><speed>1.307435</speed><course>-1.000000</course><hAcc>0.885424</hAcc><vAcc>0.705173</vAcc></extensions></trkpt>
      <trkpt lon="-3.152590" lat="53.014894"><ele>461.029114</ele><time>2021-09-01T11:04:57Z</time><extensions><speed>1.314484</speed><course>-1.000000</course><hAcc>0.885414</hAcc><vAcc>0.705160</vAcc></extensions></trkpt>
      <trkpt lon="-3.152604" lat="53.014885"><ele>461.098846</ele><time>2021-09-01T11:04:58Z</time><extensions><speed>1.320137</speed><course>-1.000000</course><hAcc>0.885429</hAcc><vAcc>0.705201</vAcc></extensions></trkpt>
      <trkpt lon="-3.152617" lat="53.014876"><ele>461.167908</ele><time>2021-09-01T11:05:00Z</time><extensions><speed>1.324008</speed><course>-1.000000</course><hAcc>0.885443</hAcc><vAcc>0.705273</vAcc></extensions></trkpt>
      <trkpt lon="-3.152631" lat="53.014868"><ele>461.235138</ele><time>2021-09-01T11:05:01Z</time><extensions><speed>1.325522</speed><course>-1.000000</course><hAcc>0.885448</hAcc><vAcc>0.705365</vAcc></extensions></trkpt>
      <trkpt lon="-3.152646" lat="53.014860"><ele>461.299866</ele><time>2021-09-01T11:05:02Z</time><extensions><speed>1.324542</speed><course>-1.000000</course><hAcc>0.885459</hAcc><vAcc>0.705472</vAcc></extensions></trkpt>
      <trkpt lon="-3.152660" lat="53.014851"><ele>461.361572</ele><time>2021-09-01T11:05:03Z</time><extensions><speed>1.321223</speed><course>-1.000000</course><hAcc>0.885471</hAcc><vAcc>0.705578</vAcc></extensions></trkpt>
      <trkpt lon="-3.152674" lat="53.014843"><ele>461.419556</ele><time>2021-09-01T11:05:04Z</time><extensions><speed>1.315844</speed><course>-1.000000</course><hAcc>0.885480</hAcc><vAcc>0.705671</vAcc></extensions></trkpt>
      <trkpt lon="-3.152688" lat="53.014835"><ele>461.472931</ele><time>2021-09-01T11:05:05Z</time><extensions><speed>1.308866</speed><course>-1.000000</course><hAcc>0.885486</hAcc><vAcc>0.705745</vAcc></extensions></trkpt>
      <trkpt lon="-3.152702" lat="53.014827"><ele>461.520996</ele><time>2021-09-01T11:05:05Z</time><extensions><speed>1.301027</speed><course>-1.000000</course><hAcc>0.885505</hAcc><vAcc>0.705808</vAcc></extensions></trkpt>
      <trkpt lon="-3.152716" lat="53.014819"><ele>461.563934</ele><time>2021-09-01T11:05:06Z</time><extensions><speed>1.293391</speed><course>-1.000000</course><hAcc>0.885540</hAcc><vAcc>0.705858</vAcc></extensions></trkpt>
      <trkpt lon="-3.152730" lat="53.014811"><ele>461.602356</ele><time>2021-09-01T11:05:08Z</time><extensions><speed>1.286693</speed><course>-1.000000</course><hAcc>0.885553</hAcc><vAcc>0.705881</vAcc></extensions></trkpt>
      <trkpt lon="-3.152743" lat="53.014803"><ele>461.637543</ele><time>2021-09-01T11:05:09Z</time><extensions><speed>1.281589</speed><course>-1.000000</course><hAcc>0.885546</hAcc><vAcc>0.705890</vAcc></extensions></trkpt>
      <trkpt lon="-3.152756" lat="53.014794"><ele>461.671326</ele><time>2021-09-01T11:05:09Z</time><extensions><speed>1.278095</speed><course>-1.000000</course><hAcc>0.885557</hAcc><vAcc>0.705925</vAcc></extensions></trkpt>
      <trkpt lon="-3.152769" lat="53.014786"><ele>461.705780</ele><time>2021-09-01T11:05:10Z</time><extensions><speed>1.275663</speed><course>-1.000000</course><hAcc>0.885587</hAcc><vAcc>0.705992</vAcc></extensions></trkpt>
      <trkpt lon="-3.152781" lat="53.014777"><ele>461.742462</ele><time>2021-09-01T11:05:11Z</time><extensions><speed>1.273490</speed><course>-1.000000</course><hAcc>0.885619</hAcc><vAcc>0.706079</vAcc></extensions></trkpt>
      <trkpt lon="-3.152793" lat="53.014768"><ele>461.782257</ele><time>2021-09-01T11:05:12Z</time><extensions><speed>1.270655</speed><course>116.725777</course><hAcc>0.885653</hAcc><vAcc>0.706186</vAcc></extensions></trkpt>
      <trkpt lon="-3.152805" lat="53.014759"><ele>461.825378</ele><time>2021-09-01T11:05:13Z</time><extensions><speed>1.267069</speed><course>116.725777</course><hAcc>0.885693</hAcc><vAcc>0.706308</vAcc></extensions></trkpt>
      <trkpt lon="-3.152816" lat="53.014750"><ele>461.872101</ele><time>2021-09-01T11:05:14Z</time><extensions><speed>1.263113</speed><course>116.725777</course><hAcc>0.885736</hAcc><vAcc>0.706441</vAcc></extensions></trkpt>
      <trkpt lon="-3.152826" lat="53.014741"><ele>461.923157</ele><time>2021-09-01T11:05:15Z</time><extensions><speed>1.258612</speed><course>116.725777</course><hAcc>0.885784</hAcc><vAcc>0.706582</vAcc></extensions></trkpt>
      <trkpt lon="-3.152836" lat="53.014731"><ele>461.979126</ele><time>2021-09-01T11:05:16Z</time><extensions><speed>1.252424</speed><course>116.725777</course><hAcc>0.885834</hAcc><vAcc>0.706730</vAcc></extensions></trkpt>
      <trkpt lon="-3.152846" lat="53.014721"><ele>462.040100</ele><time>2021-09-01T11:05:17Z</time><extensions><speed>1.243087</speed><course>116.725784</course><hAcc>0.885884</hAcc><vAcc>0.706884</vAcc></extensions></trkpt>
      <trkpt lon="-3.152855" lat="53.014712"><ele>462.105774</ele><time>2021-09-01T11:05:18Z</time><extensions><speed>1.230086</speed><course>116.725784</course><hAcc>0.885930</hAcc><vAcc>0.707045</vAcc></extensions></trkpt>
      <trkpt lon="-3.152863" lat="53.014702"><ele>462.175873</ele><time>2021-09-01T11:05:19Z</time><extensions><speed>1.213549</speed><course>116.725784</course><hAcc>0.885967</hAcc><vAcc>0.707207</vAcc></extensions></trkpt>
      <trkpt lon="-3.152871" lat="53.014692"><ele>462.250488</ele><time>2021-09-01T11:05:20Z</time><extensions><speed>1.193686</speed><course>116.725784</course><hAcc>0.885986</hAcc><vAcc>0.707351</vAcc></extensions></trkpt>
      <trkpt lon="-3.152878" lat="53.014683"><ele>462.329956</ele><time>2021-09-01T11:05:21Z</time><extensions><speed>1.170815</speed><course>116.725784</course><hAcc>0.885980</hAcc><vAcc>0.707447</vAcc></extensions></trkpt>
      <trkpt lon="-3.152885" lat="53.014673"><ele>462.414276</ele><time>2021-09-01T11:05:22Z</time><extensions><speed>1.145323</speed><course>116.725784</course><hAcc>0.885938</hAcc><vAcc>0.707460</vAcc></extensions></trkpt>
      <trkpt lon="-3.152892" lat="53.014664"><ele>462.503082</ele><time>2021-09-01T11:05:23Z</time><extensions><speed>1.117712</speed><course>116.725784</course><hAcc>0.885849</hAcc><vAcc>0.707346</vAcc></extensions></trkpt>
      <trkpt lon="-3.152898" lat="53.014654"><ele>462.595825</ele><time>2021-09-01T11:05:24Z</time><extensions><speed>1.088928</speed><course>116.725784</course><hAcc>0.885704</hAcc><vAcc>0.707057</vAcc></extensions></trkpt>
      <trkpt lon="-3.152903" lat="53.014645"><ele>462.691803</ele><time>2021-09-01T11:05:25Z</time><extensions><speed>1.061162</speed><course>116.725784</course><hAcc>0.885494</hAcc><vAcc>0.706543</vAcc></extensions></trkpt>
      <trkpt lon="-3.152908" lat="53.014636"><ele>462.790283</ele><time>2021-09-01T11:05:26Z</time><extensions><speed>1.036822</speed><course>116.725784</course><hAcc>0.885214</hAcc><vAcc>0.705764</vAcc></extensions></trkpt>
      <trkpt lon="-3.152913" lat="53.014628"><ele>462.890503</ele><time>2021-09-01T11:05:27Z</time><extensions><speed>1.017295</speed><course>116.725784</course><hAcc>0.884860</hAcc><vAcc>0.704694</vAcc></extensions></trkpt>
      <trkpt lon="-3.152918" lat="53.014619"><ele>462.991882</ele><time>2021-09-01T11:05:28Z</time><extensions><speed>1.003068</speed><course>116.725784</course><hAcc>0.884436</hAcc><vAcc>0.703331</vAcc></extensions></trkpt>
      <trkpt lon="-3.152922" lat="53.014610"><ele>463.093872</ele><time>2021-09-01T11:05:29Z</time><extensions><speed>0.993889</speed><course>116.725784</course><hAcc>0.883947</hAcc><vAcc>0.701688</vAcc></extensions></trkpt>
      <trkpt lon="-3.152926" lat="53.014602"><ele>463.195953</ele><time>2021-09-01T11:05:30Z</time><extensions><speed>0.989523</speed><course>116.725784</course><hAcc>0.883404</hAcc><vAcc>0.699807</vAcc></extensions></trkpt>
      <trkpt lon="-3.152930" lat="53.014593"><ele>463.297607</ele><time>2021-09-01T11:05:31Z</time><extensions><speed>0.990254</speed><course>116.725784</course><hAcc>0.882822</hAcc><vAcc>0.697758</vAcc></extensions></trkpt>
      <trkpt lon="-3.152935" lat="53.014585"><ele>463.398529</ele><time>2021-09-01T11:05:32Z</time><extensions><speed>0.996836</speed><course>116.725784</course><hAcc>0.882218</hAcc><vAcc>0.695625</vAcc></extensions></trkpt>
      <trkpt lon="-3.152939" lat="53.014576"><ele>463.498627</ele><time>2021-09-01T11:05:33Z</time><extensions><speed>1.009997</speed><course>116.725784</course><hAcc>0.881608</hAcc><vAcc>0.693497</vAcc></extensions></trkpt>
      <trkpt lon="-3.152943" lat="53.014567"><ele>463.597870</ele><time>2021-09-01T11:05:34Z</time><extensions><speed>1.029688</speed><course>116.725777</course><hAcc>0.881009</hAcc><vAcc>0.691447</vAcc></extensions></trkpt>
      <trkpt lon="-3.152948" lat="53.014558"><ele>463.696808</ele><time>2021-09-01T11:05:35Z</time><extensions><speed>1.055188</speed><course>116.725769</course><hAcc>0.880434</hAcc><vAcc>0.689527</vAcc></extensions></trkpt>
      <trkpt lon="-3.152953" lat="53.014549"><ele>463.796570</ele><time>2021-09-01T11:05:36Z</time><extensions><speed>1.085326</speed><course>116.725769</course><hAcc>0.879892</hAcc><vAcc>0.687765</vAcc></extensions></trkpt>
      <trkpt lon="-3.152958" lat="53.014540"><ele>463.897827</ele><time>2021-09-01T11:05:37Z</time><extensions><speed>1.118398</speed><course>116.725761</course><hAcc>0.879388</hAcc><vAcc>0.686168</vAcc></extensions></trkpt>
      <trkpt lon="-3.152963" lat="53.014530"><ele>464.000854</ele><time>2021-09-01T11:05:38Z</time><extensions><speed>1.152478</speed><course>116.725754</course><hAcc>0.878924</hAcc><vAcc>0.684726</vAcc></extensions></trkpt>
      <trkpt lon="-3.152969" lat="53.014520"><ele>464.105469</ele><time>2021-09-01T11:05:39Z</time><extensions><speed>1.185656</speed><course>116.725746</course><hAcc>0.878500</hAcc><vAcc>0.683422</vAcc></extensions></trkpt>
      <trkpt lon="-3.152975" lat="53.014510"><ele>464.211456</ele><time>2021-09-01T11:05:40Z</time><extensions><speed>1.216417</speed><course>116.725746</course><hAcc>0.878113</hAcc><vAcc>0.682234</vAcc></extensions></trkpt>
      <trkpt lon="-3.152981" lat="53.014500"><ele>464.318420</ele><time>2021-09-01T11:05:41Z</time><extensions><speed>1.243640</speed><course>116.725731</course><hAcc>0.877762</hAcc><vAcc>0.681146</vAcc></extensions></trkpt>
      <trkpt lon="-3.152987" lat="53.014489"><ele>464.426147</ele><time>2021-09-01T11:05:42Z</time><extensions><speed>1.266788</speed><course>116.725723</course><hAcc>0.877446</hAcc><vAcc>0.680158</vAcc></extensions></trkpt>
      <trkpt lon="-3.152993" lat="53.014478"><ele>464.534302</ele><time>2021-09-01T11:05:43Z</time><extensions><speed>1.285941</speed><course>116.725723</course><hAcc>0.877164</hAcc><vAcc>0.679276</vAcc></extensions></trkpt>
      <trkpt lon="-3.152999" lat="53.014467"><ele>464.642456</ele><time>2021-09-01T11:05:44Z</time><extensions><speed>1.301210</speed><course>116.725708</course><hAcc>0.876919</hAcc><vAcc>0.678506</vAcc></extensions></trkpt>
      <trkpt lon="-3.153005" lat="53.014456"><ele>464.750031</ele><time>2021-09-01T11:05:45Z</time><extensions><speed>1.312570</speed><course>116.725700</course><hAcc>0.876709</hAcc><vAcc>0.677846</vAcc></extensions></trkpt>
      <trkpt lon="-3.153011" lat="53.014445"><ele>464.856812</ele><time>2021-09-01T11:05:46Z</time><extensions><speed>1.319982</speed><course>116.725693</course><hAcc>0.876537</hAcc><vAcc>0.677297</vAcc></extensions></trkpt>
      <trkpt lon="-3.153016" lat="53.014433"><ele>464.962677</ele><time>2021-09-01T11:05:47Z</time><extensions><speed>1.323318</speed><course>116.725685</course><hAcc>0.876406</hAcc><vAcc>0.676862</vAcc></extensions></trkpt>
      <trkpt lon="-3.153022" lat="53.014422"><ele>465.067596</ele><time>2021-09-01T11:05:48Z</time><extensions><speed>1.322455</speed><course>116.725670</course><hAcc>0.876323</hAcc><vAcc>0.676554</vAcc></extensions></trkpt>
      <trkpt lon="-3.153026" lat="53.014410"><ele>465.171387</ele><time>2021-09-01T11:05:49Z</time><extensions><speed>1.317278</speed><course>116.725670</course><hAcc>0.876295</hAcc><vAcc>0.676398</vAcc></extensions></trkpt>
      <trkpt lon="-3.153031" lat="53.014399"><ele>465.273590</ele><time>2021-09-01T11:05:50Z</time><extensions><speed>1.307577</speed><course>116.725662</course><hAcc>0.876334</hAcc><vAcc>0.676437</vAcc></extensions></trkpt>
      <trkpt lon="-3.153035" lat="53.014387"><ele>465.373383</ele><time>2021-09-01T11:05:51Z</time><extensions><speed>1.292953</speed><course>316.510925</course><hAcc>0.876456</hAcc><vAcc>0.676735</vAcc></extensions></trkpt>
      <trkpt lon="-3.153039" lat="53.014376"><ele>465.469604</ele><time>2021-09-01T11:05:52Z</time><extensions><speed>1.272893</speed><course>325.771881</course><hAcc>0.876675</hAcc><vAcc>0.677361</vAcc></extensions></trkpt>
      <trkpt lon="-3.153043" lat="53.014365"><ele>465.561066</ele><time>2021-09-01T11:05:53Z</time><extensions><speed>1.247070</speed><course>329.412018</course><hAcc>0.877002</hAcc><vAcc>0.678374</vAcc></extensions></trkpt>
      <trkpt lon="-3.153046" lat="53.014354"><ele>465.647003</ele><time>2021-09-01T11:05:54Z</time><extensions><speed>1.215357</speed><course>328.807678</course><hAcc>0.877446</hAcc><vAcc>0.679815</vAcc></extensions></trkpt>
      <trkpt lon="-3.153049" lat="53.014344"><ele>465.727112</ele><time>2021-09-01T11:05:55Z</time><extensions><speed>1.177927</speed><course>328.238739</course><hAcc>0.878006</hAcc><vAcc>0.681704</vAcc></extensions></trkpt>
      <trkpt lon="-3.153053" lat="53.014333"><ele>465.801605</ele><time>2021-09-01T11:05:56Z</time><extensions><speed>1.135441</speed><course>328.754333</course><hAcc>0.878676</hAcc><vAcc>0.684033</vAcc></extensions></trkpt>
      <trkpt lon="-3.153056" lat="53.014323"><ele>465.870972</ele><time>2021-09-01T11:05:57Z</time><extensions><speed>1.088960</speed><course>321.291412</course><hAcc>0.879443</hAcc><vAcc>0.686752</vAcc></extensions></trkpt>
      <trkpt lon="-3.153058" lat="53.014314"><ele>465.935669</ele><time>2021-09-01T11:05:58Z</time><extensions><speed>1.039083</speed><course>315.163422</course><hAcc>0.880282</hAcc><vAcc>0.689757</vAcc></extensions></trkpt>
      <trkpt lon="-3.153061" lat="53.014305"><ele>465.996033</ele><time>2021-09-01T11:05:59Z</time><extensions><speed>0.985222</speed><course>320.356079</course><hAcc>0.881162</hAcc><vAcc>0.692897</vAcc></extensions></trkpt>
      <trkpt lon="-3.153063" lat="53.014297"><ele>466.052155</ele><time>2021-09-01T11:06:00Z</time><extensions><speed>0.927239</speed><course>314.759003</course><hAcc>0.882047</hAcc><vAcc>0.696005</vAcc></extensions></trkpt>
      <trkpt lon="-3.153066" lat="53.014289"><ele>466.103882</ele><time>2021-09-01T11:06:01Z</time><extensions><speed>0.866348</speed><course>306.430359</course><hAcc>0.882905</hAcc><vAcc>0.698931</vAcc></extensions></trkpt>
      <trkpt lon="-3.153068" lat="53.014281"><ele>466.150940</ele><time>2021-09-01T11:06:02Z</time><extensions><speed>0.804134</speed><course>312.642456</course><hAcc>0.883710</hAcc><vAcc>0.701566</vAcc></extensions></trkpt>
      <trkpt lon="-3.153069" lat="53.014274"><ele>466.193237</ele><time>2021-09-01T11:06:03Z</time><extensions><speed>0.742974</speed><course>309.329712</course><hAcc>0.884441</hAcc><vAcc>0.703844</vAcc></extensions></trkpt>
      <trkpt lon="-3.153071" lat="53.014268"><ele>466.231079</ele><time>2021-09-01T11:06:04Z</time><extensions><speed>0.685971</speed><course>306.517120</course><hAcc>0.885087</hAcc><vAcc>0.705744</vAcc></extensions></trkpt>
      <trkpt lon="-3.153072" lat="53.014262"><ele>466.264801</ele><time>2021-09-01T11:06:05Z</time><extensions><speed>0.636329</speed><course>302.169647</course><hAcc>0.885642</hAcc><vAcc>0.707283</vAcc></extensions></trkpt>
      <trkpt lon="-3.153074" lat="53.014257"><ele>466.294861</ele><time>2021-09-01T11:06:06Z</time><extensions><speed>0.597317</speed><course>299.953156</course><hAcc>0.886109</hAcc><vAcc>0.708505</vAcc></extensions></trkpt>
      <trkpt lon="-3.153075" lat="53.014252"><ele>466.321960</ele><time>2021-09-01T11:06:07Z</time><extensions><speed>0.571563</speed><course>299.473511</course><hAcc>0.886496</hAcc><vAcc>0.709472</vAcc></extensions></trkpt>
      <trkpt lon="-3.153076" lat="53.014246"><ele>466.347321</ele><time>2021-09-01T11:06:08Z</time><extensions><speed>0.560494</speed><course>298.103729</course><hAcc>0.886812</hAcc><vAcc>0.710250</vAcc></extensions></trkpt>
      <trkpt lon="-3.153077" lat="53.014241"><ele>466.372314</ele><time>2021-09-01T11:06:09Z</time><extensions><speed>0.564531</speed><course>294.101929</course><hAcc>0.887072</hAcc><vAcc>0.710899</vAcc></extensions></trkpt>
      <trkpt lon="-3.153078" lat="53.014236"><ele>466.398407</ele><time>2021-09-01T11:06:10Z</time><extensions><speed>0.583266</speed><course>298.669067</course><hAcc>0.887288</hAcc><vAcc>0.711464</vAcc></extensions></trkpt>
      <trkpt lon="-3.153079" lat="53.014231"><ele>466.427155</ele><time>2021-09-01T11:06:11Z</time><extensions><speed>0.615587</speed><course>297.460327</course><hAcc>0.887474</hAcc><vAcc>0.711978</vAcc></extensions></trkpt>
      <trkpt lon="-3.153080" lat="53.014225"><ele>466.459808</ele><time>2021-09-01T11:06:12Z</time><extensions><speed>0.659687</speed><course>300.643127</course><hAcc>0.887638</hAcc><vAcc>0.712463</vAcc></extensions></trkpt>
      <trkpt lon="-3.153081" lat="53.014219"><ele>466.497253</ele><time>2021-09-01T11:06:13Z</time><extensions><speed>0.713041</speed><course>300.762909</course><hAcc>0.887789</hAcc><vAcc>0.712938</vAcc></extensions></trkpt>
      <trkpt lon="-3.153082" lat="53.014212"><ele>466.539948</ele><time>2021-09-01T11:06:14Z</time><extensions><speed>0.772255</speed><course>306.221161</course><hAcc>0.887932</hAcc><vAcc>0.713409</vAcc></extensions></trkpt>
      <trkpt lon="-3.153083" lat="53.014205"><ele>466.587952</ele><time>2021-09-01T11:06:15Z</time><extensions><speed>0.834182</speed><course>311.753571</course><hAcc>0.888071</hAcc><vAcc>0.713879</vAcc></extensions></trkpt>
      <trkpt lon="-3.153084" lat="53.014198"><ele>466.641266</ele><time>2021-09-01T11:06:16Z</time><extensions><speed>0.896700</speed><course>314.039551</course><hAcc>0.888205</hAcc><vAcc>0.714342</vAcc></extensions></trkpt>
      <trkpt lon="-3.153085" lat="53.014189"><ele>466.699585</ele><time>2021-09-01T11:06:17Z</time><extensions><speed>0.957952</speed><course>316.125336</course><hAcc>0.888335</hAcc><vAcc>0.714792</vAcc></extensions></trkpt>
      <trkpt lon="-3.153085" lat="53.014180"><ele>466.762390</ele><time>2021-09-01T11:06:18Z</time><extensions><speed>1.016137</speed><course>313.054962</course><hAcc>0.888458</hAcc><vAcc>0.715221</vAcc></extensions></trkpt>
      <trkpt lon="-3.153086" lat="53.014171"><ele>466.828796</ele><time>2021-09-01T11:06:19Z</time><extensions><speed>1.069907</speed><course>309.718231</course><hAcc>0.888574</hAcc><vAcc>0.715622</vAcc></extensions></trkpt>
      <trkpt lon="-3.153086" lat="53.014161"><ele>466.898254</ele><time>2021-09-01T11:06:20Z</time><extensions><speed>1.118551</speed><course>315.993652</course><hAcc>0.888677</hAcc><vAcc>0.715984</vAcc></extensions></trkpt>
      <trkpt lon="-3.153086" lat="53.014151"><ele>466.970642</ele><time>2021-09-01T11:06:21Z</time><extensions><speed>1.161595</speed><course>314.639465</course><hAcc>0.888768</hAcc><vAcc>0.716296</vAcc></extensions></trkpt>
      <trkpt lon="-3.153086" lat="53.014140"><ele>467.045929</ele><time>2021-09-01T11:06:22Z</time><extensions><speed>1.198499</speed><course>314.699524</course><hAcc>0.888842</hAcc><vAcc>0.716547</vAcc></extensions></trkpt>
      <trkpt lon="-3.153085" lat="53.014129"><ele>467.123840</ele><time>2021-09-01T11:06:23Z</time><extensions><speed>1.229138</speed><course>315.537170</course><hAcc>0.888898</hAcc><vAcc>0.716733</vAcc></extensions></trkpt>
      <trkpt lon="-3.153084" lat="53.014118"><ele>467.203583</ele><time>2021-09-01T11:06:24Z</time><extensions><speed>1.253985</speed><course>315.384186</course><hAcc>0.888934</hAcc><vAcc>0.716849</vAcc></extensions></trkpt>
      <trkpt lon="-3.153082" lat="53.014107"><ele>467.284210</ele><time>2021-09-01T11:06:25Z</time><extensions><speed>1.273386</speed><course>316.068207</course><hAcc>0.888949</hAcc><vAcc>0.716895</vAcc></extensions></trkpt>
      <trkpt lon="-3.153080" lat="53.014096"><ele>467.364807</ele><time>2021-09-01T11:06:26Z</time><extensions><speed>1.287377</speed><course>319.526184</course><hAcc>0.888942</hAcc><vAcc>0.716870</vAcc></extensions></trkpt>
      <trkpt lon="-3.153078" lat="53.014084"><ele>467.444641</ele><time>2021-09-01T11:06:27Z</time><extensions><speed>1.296280</speed><course>322.032959</course><hAcc>0.888914</hAcc><vAcc>0.716777</vAcc></extensions></trkpt>
      <trkpt lon="-3.153075" lat="53.014073"><ele>467.523376</ele><time>2021-09-01T11:06:28Z</time><extensions><speed>1.300461</speed><course>326.209290</course><hAcc>0.888865</hAcc><vAcc>0.716613</vAcc></extensions></trkpt>
      <trkpt lon="-3.153071" lat="53.014061"><ele>467.601044</ele><time>2021-09-01T11:06:29Z</time><extensions><speed>1.300281</speed><course>324.142303</course><hAcc>0.888796</hAcc><vAcc>0.716381</vAcc></extensions></trkpt>
      <trkpt lon="-3.153067" lat="53.014050"><ele>467.677856</ele><time>2021-09-01T11:06:30Z</time><extensions><speed>1.296447</speed><course>332.193542</course><hAcc>0.888709</hAcc><vAcc>0.716087</vAcc></extensions></trkpt>
      <trkpt lon="-3.153063" lat="53.014038"><ele>467.753937</ele><time>2021-09-01T11:06:31Z</time><extensions><speed>1.290254</speed><course>329.558014</course><hAcc>0.888608</hAcc><vAcc>0.715735</vAcc></extensions></trkpt>
      <trkpt lon="-3.153058" lat="53.014027"><ele>467.829468</ele><time>2021-09-01T11:06:32Z</time><extensions><speed>1.282524</speed><course>323.309692</course><hAcc>0.888494</hAcc><vAcc>0.715334</vAcc></extensions></trkpt>
      <trkpt lon="-3.153053" lat="53.014016"><ele>467.904358</ele><time>2021-09-01T11:06:33Z</time><extensions><speed>1.273013</speed><course>319.992767</course><hAcc>0.888371</hAcc><vAcc>0.714895</vAcc></extensions></trkpt>
      <trkpt lon="-3.153048" lat="53.014005"><ele>467.978638</ele><time>2021-09-01T11:06:34Z</time><extensions><speed>1.261517</speed><course>322.539886</course><hAcc>0.888243</hAcc><vAcc>0.714435</vAcc></extensions></trkpt>
      <trkpt lon="-3.153043" lat="53.013994"><ele>468.052246</ele><time>2021-09-01T11:06:35Z</time><extensions><speed>1.247749</speed><course>317.532928</course><hAcc>0.888112</hAcc><vAcc>0.713972</vAcc></extensions></trkpt>
      <trkpt lon="-3.153038" lat="53.013984"><ele>468.125153</ele><time>2021-09-01T11:06:36Z</time><extensions><speed>1.231449</speed><course>314.725220</course><hAcc>0.887981</hAcc><vAcc>0.713519</vAcc></extensions></trkpt>
      <trkpt lon="-3.153033" lat="53.013973"><ele>468.197449</ele><time>2021-09-01T11:06:37Z</time><extensions><speed>1.213009</speed><course>325.463684</course><hAcc>0.887854</hAcc><vAcc>0.713088</vAcc></extensions></trkpt>
      <trkpt lon="-3.153029" lat="53.013962"><ele>468.269196</ele><time>2021-09-01T11:06:38Z</time><extensions><speed>1.193182</speed><course>326.490570</course><hAcc>0.887734</hAcc><vAcc>0.712686</vAcc></extensions></trkpt>
      <trkpt lon="-3.153025" lat="53.013952"><ele>468.340393</ele><time>2021-09-01T11:06:39Z</time><extensions><speed>1.173064</speed><course>316.111328</course><hAcc>0.887623</hAcc><vAcc>0.712319</vAcc></extensions></trkpt>
      <trkpt lon="-3.153023" lat="53.013942"><ele>468.411011</ele><time>2021-09-01T11:06:40Z</time><extensions><speed>1.154048</speed><course>316.470520</course><hAcc>0.887524</hAcc><vAcc>0.711991</vAcc></extensions></trkpt>
      <trkpt lon="-3.153021" lat="53.013931"><ele>468.481140</ele><time>2021-09-01T11:06:41Z</time><extensions><speed>1.137290</speed><course>317.921600</course><hAcc>0.887438</hAcc><vAcc>0.711708</vAcc></extensions></trkpt>
      <trkpt lon="-3.153020" lat="53.013921"><ele>468.550476</ele><time>2021-09-01T11:06:42Z</time><extensions><speed>1.123812</speed><course>317.925903</course><hAcc>0.887366</hAcc><vAcc>0.711474</vAcc></extensions></trkpt>
      <trkpt lon="-3.153021" lat="53.013911"><ele>468.618500</ele><time>2021-09-01T11:06:43Z</time><extensions><speed>1.114174</speed><course>316.840515</course><hAcc>0.887309</hAcc><vAcc>0.711292</vAcc></extensions></trkpt>
      <trkpt lon="-3.153022" lat="53.013901"><ele>468.684326</ele><time>2021-09-01T11:06:44Z</time><extensions><speed>1.108580</speed><course>321.987762</course><hAcc>0.887268</hAcc><vAcc>0.711161</vAcc></extensions></trkpt>
      <trkpt lon="-3.153024" lat="53.013891"><ele>468.747101</ele><time>2021-09-01T11:06:45Z</time><extensions><speed>1.107152</speed><course>314.291290</course><hAcc>0.887242</hAcc><vAcc>0.711083</vAcc></extensions></trkpt>
      <trkpt lon="-3.153028" lat="53.013882"><ele>468.806183</ele><time>2021-09-01T11:06:46Z</time><extensions><speed>1.109827</speed><course>311.665222</course><hAcc>0.887232</hAcc><vAcc>0.711054</vAcc></extensions></trkpt>
      <trkpt lon="-3.153032" lat="53.013872"><ele>468.860931</ele><time>2021-09-01T11:06:47Z</time><extensions><speed>1.116637</speed><course>315.645782</course><hAcc>0.887237</hAcc><vAcc>0.711071</vAcc></extensions></trkpt>
      <trkpt lon="-3.153037" lat="53.013862"><ele>468.910828</ele><time>2021-09-01T11:06:48Z</time><extensions><speed>1.127618</speed><course>312.390594</course><hAcc>0.887256</hAcc><vAcc>0.711135</vAcc></extensions></trkpt>
      <trkpt lon="-3.153042" lat="53.013853"><ele>468.955658</ele><time>2021-09-01T11:06:49Z</time><extensions><speed>1.142507</speed><course>315.968140</course><hAcc>0.887289</hAcc><vAcc>0.711242</vAcc></extensions></trkpt>
      <trkpt lon="-3.153049" lat="53.013843"><ele>468.995941</ele><time>2021-09-01T11:06:50Z</time><extensions><speed>1.160553</speed><course>305.843231</course><hAcc>0.887333</hAcc><vAcc>0.711393</vAcc></extensions></trkpt>
      <trkpt lon="-3.153056" lat="53.013834"><ele>469.032806</ele><time>2021-09-01T11:06:51Z</time><extensions><speed>1.180894</speed><course>307.428955</course><hAcc>0.887387</hAcc><vAcc>0.711583</vAcc></extensions></trkpt>
      <trkpt lon="-3.153064" lat="53.013824"><ele>469.067749</ele><time>2021-09-01T11:06:52Z</time><extensions><speed>1.202713</speed><course>303.591888</course><hAcc>0.887448</hAcc><vAcc>0.711806</vAcc></extensions></trkpt>
      <trkpt lon="-3.153073" lat="53.013815"><ele>469.102051</ele><time>2021-09-01T11:06:53Z</time><extensions><speed>1.224356</speed><course>302.311584</course><hAcc>0.887514</hAcc><vAcc>0.712052</vAcc></extensions></trkpt>
      <trkpt lon="-3.153083" lat="53.013805"><ele>469.136292</ele><time>2021-09-01T11:06:54Z</time><extensions><speed>1.243860</speed><course>296.010498</course><hAcc>0.887583</hAcc><vAcc>0.712311</vAcc></extensions></trkpt>
      <trkpt lon="-3.153093" lat="53.013796"><ele>469.170654</ele><time>2021-09-01T11:06:55Z</time><extensions><speed>1.260500</speed><course>298.597748</course><hAcc>0.887651</hAcc><vAcc>0.712571</vAcc></extensions></trkpt>
      <trkpt lon="-3.153103" lat="53.013786"><ele>469.205170</ele><time>2021-09-01T11:06:56Z</time><extensions><speed>1.274271</speed><course>307.419373</course><hAcc>0.887716</hAcc><vAcc>0.712817</vAcc></extensions></trkpt>
      <trkpt lon="-3.153114" lat="53.013777"><ele>469.240112</ele><time>2021-09-01T11:06:57Z</time><extensions><speed>1.285815</speed><course>311.127045</course><hAcc>0.887776</hAcc><vAcc>0.713036</vAcc></extensions></trkpt>
      <trkpt lon="-3.153126" lat="53.013768"><ele>469.275787</ele><time>2021-09-01T11:06:58Z</time><extensions><speed>1.295839</speed><course>308.779785</course><hAcc>0.887831</hAcc><vAcc>0.713215</vAcc></extensions></trkpt>
      <trkpt lon="-3.153137" lat="53.013758"><ele>469.312469</ele><time>2021-09-01T11:06:59Z</time><extensions><speed>1.304214</speed><course>310.817932</course><hAcc>0.887878</hAcc><vAcc>0.713354</vAcc></extensions></trkpt>
      <trkpt lon="-3.153149" lat="53.013749"><ele>469.349915</ele><time>2021-09-01T11:07:00Z</time><extensions><speed>1.310865</speed><course>313.903961</course><hAcc>0.887918</hAcc><vAcc>0.713456</vAcc></extensions></trkpt>
      <trkpt lon="-3.153161" lat="53.013740"><ele>469.387573</ele><time>2021-09-01T11:07:01Z</time><extensions><speed>1.315879</speed><course>312.113068</course><hAcc>0.887950</hAcc><vAcc>0.713524</vAcc></extensions></trkpt>
      <trkpt lon="-3.153174" lat="53.013730"><ele>469.425110</ele><time>2021-09-01T11:07:02Z</time><extensions><speed>1.319050</speed><course>298.693726</course><hAcc>0.887977</hAcc><vAcc>0.713563</vAcc></extensions></trkpt>
      <trkpt lon="-3.153186" lat="53.013721"><ele>469.462463</ele><time>2021-09-01T11:07:03Z</time><extensions><speed>1.320339</speed><course>304.126526</course><hAcc>0.887998</hAcc><vAcc>0.713579</vAcc></extensions></trkpt>
      <trkpt lon="-3.153198" lat="53.013712"><ele>469.500092</ele><time>2021-09-01T11:07:04Z</time><extensions><speed>1.319837</speed><course>307.202972</course><hAcc>0.888016</hAcc><vAcc>0.713581</vAcc></extensions></trkpt>
      <trkpt lon="-3.153210" lat="53.013702"><ele>469.538574</ele><time>2021-09-01T11:07:06Z</time><extensions><speed>1.317600</speed><course>306.849365</course><hAcc>0.888013</hAcc><vAcc>0.713565</vAcc></extensions></trkpt>
      <trkpt lon="-3.153222" lat="53.013693"><ele>469.578430</ele><time>2021-09-01T11:07:07Z</time><extensions><speed>1.313477</speed><course>311.228149</course><hAcc>0.887988</hAcc><vAcc>0.713534</vAcc></extensions></trkpt>
      <trkpt lon="-3.153234" lat="53.013684"><ele>469.619904</ele><time>2021-09-01T11:07:08Z</time><extensions><speed>1.307641</speed><course>314.984741</course><hAcc>0.887957</hAcc><vAcc>0.713502</vAcc></extensions></trkpt>
      <trkpt lon="-3.153246" lat="53.013674"><ele>469.662811</ele><time>2021-09-01T11:07:09Z</time><extensions><speed>1.300966</speed><course>312.149628</course><hAcc>0.887918</hAcc><vAcc>0.713461</vAcc></extensions></trkpt>
      <trkpt lon="-3.153257" lat="53.013665"><ele>469.706940</ele><time>2021-09-01T11:07:09Z</time><extensions><speed>1.294144</speed><course>303.811646</course><hAcc>0.887886</hAcc><vAcc>0.713412</vAcc></extensions></trkpt>
      <trkpt lon="-3.153268" lat="53.013655"><ele>469.752319</ele><time>2021-09-01T11:07:10Z</time><extensions><speed>1.287268</speed><course>306.939087</course><hAcc>0.887859</hAcc><vAcc>0.713340</vAcc></extensions></trkpt>
      <trkpt lon="-3.153279" lat="53.013646"><ele>469.798462</ele><time>2021-09-01T11:07:11Z</time><extensions><speed>1.279820</speed><course>305.149933</course><hAcc>0.887818</hAcc><vAcc>0.713219</vAcc></extensions></trkpt>
      <trkpt lon="-3.153289" lat="53.013636"><ele>469.844696</ele><time>2021-09-01T11:07:12Z</time><extensions><speed>1.271405</speed><course>307.460999</course><hAcc>0.887763</hAcc><vAcc>0.713037</vAcc></extensions></trkpt>
      <trkpt lon="-3.153299" lat="53.013627"><ele>469.890259</ele><time>2021-09-01T11:07:14Z</time><extensions><speed>1.262443</speed><course>310.556549</course><hAcc>0.887677</hAcc><vAcc>0.712769</vAcc></extensions></trkpt>
      <trkpt lon="-3.153309" lat="53.013617"><ele>469.934387</ele><time>2021-09-01T11:07:15Z</time><extensions><speed>1.253619</speed><course>316.643463</course><hAcc>0.887559</hAcc><vAcc>0.712408</vAcc></extensions></trkpt>
      <trkpt lon="-3.153318" lat="53.013607"><ele>469.976715</ele><time>2021-09-01T11:07:16Z</time><extensions><speed>1.245707</speed><course>310.111420</course><hAcc>0.887431</hAcc><vAcc>0.711972</vAcc></extensions></trkpt>
      <trkpt lon="-3.153326" lat="53.013597"><ele>470.016937</ele><time>2021-09-01T11:07:17Z</time><extensions><speed>1.239637</speed><course>309.394775</course><hAcc>0.887293</hAcc><vAcc>0.711478</vAcc></extensions></trkpt>
      <trkpt lon="-3.153334" lat="53.013587"><ele>470.055054</ele><time>2021-09-01T11:07:18Z</time><extensions><speed>1.235299</speed><course>312.734375</course><hAcc>0.887149</hAcc><vAcc>0.710949</vAcc></extensions></trkpt>
      <trkpt lon="-3.153341" lat="53.013577"><ele>470.091156</ele><time>2021-09-01T11:07:19Z</time><extensions><speed>1.232087</speed><course>307.110260</course><hAcc>0.887001</hAcc><vAcc>0.710410</vAcc></extensions></trkpt>
      <trkpt lon="-3.153348" lat="53.013567"><ele>470.125244</ele><time>2021-09-01T11:07:20Z</time><extensions><speed>1.230226</speed><course>304.794312</course><hAcc>0.886854</hAcc><vAcc>0.709885</vAcc></extensions></trkpt>
      <trkpt lon="-3.153354" lat="53.013556"><ele>470.157318</ele><time>2021-09-01T11:07:21Z</time><extensions><speed>1.230187</speed><course>309.669006</course><hAcc>0.886712</hAcc><vAcc>0.709395</vAcc></extensions></trkpt>
      <trkpt lon="-3.153359" lat="53.013545"><ele>470.186981</ele><time>2021-09-01T11:07:22Z</time><extensions><speed>1.232111</speed><course>309.747101</course><hAcc>0.886579</hAcc><vAcc>0.708954</vAcc></extensions></trkpt>
      <trkpt lon="-3.153363" lat="53.013535"><ele>470.213470</ele><time>2021-09-01T11:07:23Z</time><extensions><speed>1.235648</speed><course>308.451904</course><hAcc>0.886459</hAcc><vAcc>0.708570</vAcc></extensions></trkpt>
      <trkpt lon="-3.153368" lat="53.013524"><ele>470.235870</ele><time>2021-09-01T11:07:24Z</time><extensions><speed>1.240137</speed><course>313.674774</course><hAcc>0.886355</hAcc><vAcc>0.708248</vAcc></extensions></trkpt>
      <trkpt lon="-3.153371" lat="53.013513"><ele>470.253418</ele><time>2021-09-01T11:07:25Z</time><extensions><speed>1.244918</speed><course>310.174561</course><hAcc>0.886270</hAcc><vAcc>0.707985</vAcc></extensions></trkpt>
      <trkpt lon="-3.153375" lat="53.013502"><ele>470.265656</ele><time>2021-09-01T11:07:26Z</time><extensions><speed>1.249304</speed><course>312.894348</course><hAcc>0.886206</hAcc><vAcc>0.707783</vAcc></extensions></trkpt>
      <trkpt lon="-3.153378" lat="53.013491"><ele>470.272430</ele><time>2021-09-01T11:07:27Z</time><extensions><speed>1.252556</speed><course>309.740997</course><hAcc>0.886167</hAcc><vAcc>0.707641</vAcc></extensions></trkpt>
      <trkpt lon="-3.153381" lat="53.013480"><ele>470.273865</ele><time>2021-09-01T11:07:28Z</time><extensions><speed>1.254292</speed><course>309.271240</course><hAcc>0.886155</hAcc><vAcc>0.707567</vAcc></extensions></trkpt>
      <trkpt lon="-3.153385" lat="53.013469"><ele>470.270355</ele><time>2021-09-01T11:07:29Z</time><extensions><speed>1.255043</speed><course>309.840485</course><hAcc>0.886173</hAcc><vAcc>0.707571</vAcc></extensions></trkpt>
      <trkpt lon="-3.153388" lat="53.013458"><ele>470.262451</ele><time>2021-09-01T11:07:30Z</time><extensions><speed>1.255601</speed><course>308.054108</course><hAcc>0.886222</hAcc><vAcc>0.707671</vAcc></extensions></trkpt>
      <trkpt lon="-3.153391" lat="53.013446"><ele>470.250732</ele><time>2021-09-01T11:07:31Z</time><extensions><speed>1.256566</speed><course>306.226685</course><hAcc>0.886304</hAcc><vAcc>0.707889</vAcc></extensions></trkpt>
      <trkpt lon="-3.153394" lat="53.013435"><ele>470.235626</ele><time>2021-09-01T11:07:32Z</time><extensions><speed>1.258113</speed><course>316.211884</course><hAcc>0.886418</hAcc><vAcc>0.708245</vAcc></extensions></trkpt>
      <trkpt lon="-3.153397" lat="53.013424"><ele>470.217163</ele><time>2021-09-01T11:07:33Z</time><extensions><speed>1.260414</speed><course>312.798523</course><hAcc>0.886562</hAcc><vAcc>0.708747</vAcc></extensions></trkpt>
      <trkpt lon="-3.153400" lat="53.013413"><ele>470.195282</ele><time>2021-09-01T11:07:34Z</time><extensions><speed>1.263861</speed><course>314.823364</course><hAcc>0.886731</hAcc><vAcc>0.709377</vAcc></extensions></trkpt>
      <trkpt lon="-3.153402" lat="53.013402"><ele>470.170044</ele><time>2021-09-01T11:07:35Z</time><extensions><speed>1.268486</speed><course>317.560303</course><hAcc>0.886919</hAcc><vAcc>0.710102</vAcc></extensions></trkpt>
      <trkpt lon="-3.153405" lat="53.013390"><ele>470.141907</ele><time>2021-09-01T11:07:36Z</time><extensions><speed>1.273819</speed><course>313.870911</course><hAcc>0.887118</hAcc><vAcc>0.710878</vAcc></extensions></trkpt>
      <trkpt lon="-3.153408" lat="53.013379"><ele>470.111603</ele><time>2021-09-01T11:07:37Z</time><extensions><speed>1.279083</speed><course>320.858917</course><hAcc>0.887320</hAcc><vAcc>0.711659</vAcc></extensions></trkpt>
      <trkpt lon="-3.153411" lat="53.013368"><ele>470.080048</ele><time>2021-09-01T11:07:38Z</time><extensions><speed>1.283704</speed><course>322.110107</course><hAcc>0.887516</hAcc><vAcc>0.712402</vAcc></extensions></trkpt>
      <trkpt lon="-3.153414" lat="53.013356"><ele>470.048126</ele><time>2021-09-01T11:07:39Z</time><extensions><speed>1.287816</speed><course>322.258118</course><hAcc>0.887700</hAcc><vAcc>0.713067</vAcc></extensions></trkpt>
      <trkpt lon="-3.153416" lat="53.013345"><ele>470.016174</ele><time>2021-09-01T11:07:40Z</time><extensions><speed>1.291831</speed><course>323.751770</course><hAcc>0.887865</hAcc><vAcc>0.713625</vAcc></extensions></trkpt>
      <trkpt lon="-3.153419" lat="53.013333"><ele>469.984467</ele><time>2021-09-01T11:07:41Z</time><extensions><speed>1.295676</speed><course>311.017761</course><hAcc>0.888006</hAcc><vAcc>0.714064</vAcc></extensions></trkpt>
      <trkpt lon="-3.153421" lat="53.013322"><ele>469.953400</ele><time>2021-09-01T11:07:42Z</time><extensions><speed>1.299094</speed><course>303.134949</course><hAcc>0.888120</hAcc><vAcc>0.714385</vAcc></extensions></trkpt>
      <trkpt lon="-3.153422" lat="53.013310"><ele>469.923676</ele><time>2021-09-01T11:07:43Z</time><extensions><speed>1.302109</speed><course>305.266266</course><hAcc>0.888206</hAcc><vAcc>0.714598</vAcc></extensions></trkpt>
      <trkpt lon="-3.153424" lat="53.013298"><ele>469.896118</ele><time>2021-09-01T11:07:44Z</time><extensions><speed>1.304825</speed><course>306.244568</course><hAcc>0.888266</hAcc><vAcc>0.714719</vAcc></extensions></trkpt>
      <trkpt lon="-3.153425" lat="53.013287"><ele>469.871338</ele><time>2021-09-01T11:07:45Z</time><extensions><speed>1.307174</speed><course>311.028961</course><hAcc>0.888302</hAcc><vAcc>0.714764</vAcc></extensions></trkpt>
      <trkpt lon="-3.153425" lat="53.013275"><ele>469.849640</ele><time>2021-09-01T11:07:46Z</time><extensions><speed>1.309126</speed><course>304.990997</course><hAcc>0.888318</hAcc><vAcc>0.714752</vAcc></extensions></trkpt>
      <trkpt lon="-3.153426" lat="53.013263"><ele>469.831238</ele><time>2021-09-01T11:07:47Z</time><extensions><speed>1.310589</speed><course>305.619354</course><hAcc>0.888318</hAcc><vAcc>0.714700</vAcc></extensions></trkpt>
      <trkpt lon="-3.153426" lat="53.013251"><ele>469.816071</ele><time>2021-09-01T11:07:48Z</time><extensions><speed>1.311278</speed><course>319.038269</course><hAcc>0.888308</hAcc><vAcc>0.714623</vAcc></extensions></trkpt>
      <trkpt lon="-3.153425" lat="53.013239"><ele>469.803925</ele><time>2021-09-01T11:07:49Z</time><extensions><speed>1.311164</speed><course>314.772644</course><hAcc>0.888291</hAcc><vAcc>0.714535</vAcc></extensions></trkpt>
      <trkpt lon="-3.153425" lat="53.013228"><ele>469.794312</ele><time>2021-09-01T11:07:50Z</time><extensions><speed>1.310610</speed><course>314.865356</course><hAcc>0.888273</hAcc><vAcc>0.714446</vAcc></extensions></trkpt>
      <trkpt lon="-3.153424" lat="53.013216"><ele>469.786407</ele><time>2021-09-01T11:07:51Z</time><extensions><speed>1.309825</speed><course>315.584076</course><hAcc>0.888257</hAcc><vAcc>0.714368</vAcc></extensions></trkpt>
      <trkpt lon="-3.153424" lat="53.013204"><ele>469.779419</ele><time>2021-09-01T11:07:52Z</time><extensions><speed>1.308902</speed><course>318.301117</course><hAcc>0.888247</hAcc><vAcc>0.714311</vAcc></extensions></trkpt>
      <trkpt lon="-3.153423" lat="53.013192"><ele>469.772308</ele><time>2021-09-01T11:07:53Z</time><extensions><speed>1.307801</speed><course>308.957520</course><hAcc>0.888244</hAcc><vAcc>0.714285</vAcc></extensions></trkpt>
      <trkpt lon="-3.153423" lat="53.013181"><ele>469.764069</ele><time>2021-09-01T11:07:54Z</time><extensions><speed>1.306529</speed><course>309.679749</course><hAcc>0.888251</hAcc><vAcc>0.714296</vAcc></extensions></trkpt>
      <trkpt lon="-3.153423" lat="53.013169"><ele>469.753601</ele><time>2021-09-01T11:07:55Z</time><extensions><speed>1.305273</speed><course>315.508118</course><hAcc>0.888268</hAcc><vAcc>0.714350</vAcc></extensions></trkpt>
      <trkpt lon="-3.153423" lat="53.013157"><ele>469.739624</ele><time>2021-09-01T11:07:56Z</time><extensions><speed>1.303851</speed><course>315.740204</course><hAcc>0.888295</hAcc><vAcc>0.714449</vAcc></extensions></trkpt>
      <trkpt lon="-3.153423" lat="53.013145"><ele>469.720703</ele><time>2021-09-01T11:07:57Z</time><extensions><speed>1.301754</speed><course>310.654785</course><hAcc>0.888334</hAcc><vAcc>0.714590</vAcc></extensions></trkpt>
      <trkpt lon="-3.153423" lat="53.013134"><ele>469.695496</ele><time>2021-09-01T11:07:58Z</time><extensions><speed>1.298492</speed><course>314.784058</course><hAcc>0.888382</hAcc><vAcc>0.714768</vAcc></extensions></trkpt>
      <trkpt lon="-3.153423" lat="53.013122"><ele>469.663055</ele><time>2021-09-01T11:07:59Z</time><extensions><speed>1.294542</speed><course>306.836517</course><hAcc>0.888439</hAcc><vAcc>0.714973</vAcc></extensions></trkpt>
      <trkpt lon="-3.153423" lat="53.013111"><ele>469.622711</ele><time>2021-09-01T11:08:00Z</time><extensions><speed>1.290792</speed><course>319.014709</course><hAcc>0.888503</hAcc><vAcc>0.715195</vAcc></extensions></trkpt>
      <trkpt lon="-3.153423" lat="53.013099"><ele>469.574036</ele><time>2021-09-01T11:08:01Z</time><extensions><speed>1.287533</speed><course>316.668060</course><hAcc>0.888572</hAcc><vAcc>0.715430</vAcc></extensions></trkpt>
      <trkpt lon="-3.153422" lat="53.013087"><ele>469.516907</ele><time>2021-09-01T11:08:02Z</time><extensions><speed>1.285045</speed><course>317.381256</course><hAcc>0.888645</hAcc><vAcc>0.715676</vAcc></extensions></trkpt>
      <trkpt lon="-3.153422" lat="53.013076"><ele>469.451233</ele><time>2021-09-01T11:08:03Z</time><extensions><speed>1.283779</speed><course>315.522644</course><hAcc>0.888718</hAcc><vAcc>0.715930</vAcc></extensions></trkpt>
      <trkpt lon="-3.153421" lat="53.013064"><ele>469.376984</ele><time>2021-09-01T11:08:04Z</time><extensions><speed>1.284169</speed><course>313.748596</course><hAcc>0.888790</hAcc><vAcc>0.716184</vAcc></extensions></trkpt>
      <trkpt lon="-3.153420" lat="53.013053"><ele>469.294434</ele><time>2021-09-01T11:08:05Z</time><extensions><speed>1.286666</speed><course>311.298676</course><hAcc>0.888858</hAcc><vAcc>0.716427</vAcc></extensions></trkpt>
      <trkpt lon="-3.153419" lat="53.013041"><ele>469.204132</ele><time>2021-09-01T11:08:06Z</time><extensions><speed>1.291462</speed><course>307.453308</course><hAcc>0.888923</hAcc><vAcc>0.716649</vAcc></extensions></trkpt>
      <trkpt lon="-3.153418" lat="53.013030"><ele>469.106781</ele><time>2021-09-01T11:08:07Z</time><extensions><speed>1.298030</speed><course>308.937561</course><hAcc>0.888981</hAcc><vAcc>0.716845</vAcc></extensions></trkpt>
      <trkpt lon="-3.153417" lat="53.013018"><ele>469.003204</ele><time>2021-09-01T11:08:08Z</time><extensions><speed>1.305767</speed><course>304.505646</course><hAcc>0.889032</hAcc><vAcc>0.717011</vAcc></extensions></trkpt>
      <trkpt lon="-3.153415" lat="53.013006"><ele>468.894623</ele><time>2021-09-01T11:08:09Z</time><extensions><speed>1.314356</speed><course>299.094574</course><hAcc>0.889074</hAcc><vAcc>0.717145</vAcc></extensions></trkpt>
      <trkpt lon="-3.153413" lat="53.012994"><ele>468.782349</ele><time>2021-09-01T11:08:10Z</time><extensions><speed>1.323105</speed><course>310.704071</course><hAcc>0.889107</hAcc><vAcc>0.717248</vAcc></extensions></trkpt>
      <trkpt lon="-3.153411" lat="53.012983"><ele>468.667358</ele><time>2021-09-01T11:08:11Z</time><extensions><speed>1.330844</speed><course>308.713898</course><hAcc>0.889130</hAcc><vAcc>0.717320</vAcc></extensions></trkpt>
      <trkpt lon="-3.153409" lat="53.012971"><ele>468.550323</ele><time>2021-09-01T11:08:12Z</time><extensions><speed>1.336788</speed><course>315.990417</course><hAcc>0.889142</hAcc><vAcc>0.717364</vAcc></extensions></trkpt>
      <trkpt lon="-3.153408" lat="53.012959"><ele>468.431641</ele><time>2021-09-01T11:08:13Z</time><extensions><speed>1.340443</speed><course>316.941956</course><hAcc>0.889144</hAcc><vAcc>0.717378</vAcc></extensions></trkpt>
      <trkpt lon="-3.153406" lat="53.012947"><ele>468.311493</ele><time>2021-09-01T11:08:14Z</time><extensions><speed>1.341306</speed><course>326.025696</course><hAcc>0.889137</hAcc><vAcc>0.717359</vAcc></extensions></trkpt>
      <trkpt lon="-3.153404" lat="53.012935"><ele>468.189941</ele><time>2021-09-01T11:08:15Z</time><extensions><speed>1.339101</speed><course>316.997101</course><hAcc>0.889121</hAcc><vAcc>0.717308</vAcc></extensions></trkpt>
      <trkpt lon="-3.153403" lat="53.012923"><ele>468.067047</ele><time>2021-09-01T11:08:16Z</time><extensions><speed>1.334057</speed><course>307.396637</course><hAcc>0.889098</hAcc><vAcc>0.717224</vAcc></extensions></trkpt>
      <trkpt lon="-3.153401" lat="53.012911"><ele>467.942810</ele><time>2021-09-01T11:08:17Z</time><extensions><speed>1.326625</speed><course>307.245117</course><hAcc>0.889069</hAcc><vAcc>0.717109</vAcc></extensions></trkpt>
      <trkpt lon="-3.153400" lat="53.012899"><ele>467.817291</ele><time>2021-09-01T11:08:18Z</time><extensions><speed>1.317248</speed><course>302.943970</course><hAcc>0.889037</hAcc><vAcc>0.716970</vAcc></extensions></trkpt>
      <trkpt lon="-3.153399" lat="53.012887"><ele>467.690521</ele><time>2021-09-01T11:08:19Z</time><extensions><speed>1.306379</speed><course>310.986115</course><hAcc>0.889002</hAcc><vAcc>0.716820</vAcc></extensions></trkpt>
      <trkpt lon="-3.153398" lat="53.012875"><ele>467.562927</ele><time>2021-09-01T11:08:20Z</time><extensions><speed>1.294224</speed><course>317.229156</course><hAcc>0.888967</hAcc><vAcc>0.716671</vAcc></extensions></trkpt>
      <trkpt lon="-3.153397" lat="53.012864"><ele>467.434937</ele><time>2021-09-01T11:08:21Z</time><extensions><speed>1.281140</speed><course>310.287506</course><hAcc>0.888933</hAcc><vAcc>0.716533</vAcc></extensions></trkpt>
      <trkpt lon="-3.153397" lat="53.012852"><ele>467.306854</ele><time>2021-09-01T11:08:22Z</time><extensions><speed>1.267457</speed><course>314.657898</course><hAcc>0.888901</hAcc><vAcc>0.716412</vAcc></extensions></trkpt>
      <trkpt lon="-3.153397" lat="53.012841"><ele>467.178925</ele><time>2021-09-01T11:08:23Z</time><extensions><speed>1.253525</speed><course>316.163879</course><hAcc>0.888872</hAcc><vAcc>0.716315</vAcc></extensions></trkpt>
      <trkpt lon="-3.153397" lat="53.012830"><ele>467.051239</ele><time>2021-09-01T11:08:24Z</time><extensions><speed>1.239905</speed><course>315.280670</course><hAcc>0.888847</hAcc><vAcc>0.716244</vAcc></extensions></trkpt>
      <trkpt lon="-3.153397" lat="53.012819"><ele>466.923676</ele><time>2021-09-01T11:08:25Z</time><extensions><speed>1.227148</speed><course>323.358459</course><hAcc>0.888826</hAcc><vAcc>0.716197</vAcc></extensions></trkpt>
      <trkpt lon="-3.153397" lat="53.012808"><ele>466.796021</ele><time>2021-09-01T11:08:26Z</time><extensions><speed>1.215881</speed><course>323.478973</course><hAcc>0.888809</hAcc><vAcc>0.716169</vAcc></extensions></trkpt>
      <trkpt lon="-3.153398" lat="53.012797"><ele>466.668304</ele><time>2021-09-01T11:08:27Z</time><extensions><speed>1.206031</speed><course>327.884216</course><hAcc>0.888794</hAcc><vAcc>0.716150</vAcc></extensions></trkpt>
      <trkpt lon="-3.153398" lat="53.012786"><ele>466.540741</ele><time>2021-09-01T11:08:28Z</time><extensions><speed>1.196759</speed><course>318.187775</course><hAcc>0.888783</hAcc><vAcc>0.716132</vAcc></extensions></trkpt>
      <trkpt lon="-3.153399" lat="53.012776"><ele>466.413757</ele><time>2021-09-01T11:08:29Z</time><extensions><speed>1.187757</speed><course>318.936035</course><hAcc>0.888773</hAcc><vAcc>0.716108</vAcc></extensions></trkpt>
      <trkpt lon="-3.153400" lat="53.012765"><ele>466.287903</ele><time>2021-09-01T11:08:30Z</time><extensions><speed>1.179185</speed><course>326.780121</course><hAcc>0.888764</hAcc><vAcc>0.716077</vAcc></extensions></trkpt>
      <trkpt lon="-3.153402" lat="53.012754"><ele>466.163696</ele><time>2021-09-01T11:08:31Z</time><extensions><speed>1.171310</speed><course>314.218445</course><hAcc>0.888755</hAcc><vAcc>0.716044</vAcc></extensions></trkpt>
      <trkpt lon="-3.153403" lat="53.012744"><ele>466.041534</ele><time>2021-09-01T11:08:32Z</time><extensions><speed>1.164788</speed><course>317.554047</course><hAcc>0.888745</hAcc><vAcc>0.716009</vAcc></extensions></trkpt>
      <trkpt lon="-3.153405" lat="53.012734"><ele>465.921661</ele><time>2021-09-01T11:08:33Z</time><extensions><speed>1.159699</speed><course>317.225586</course><hAcc>0.888733</hAcc><vAcc>0.715974</vAcc></extensions></trkpt>
      <trkpt lon="-3.153407" lat="53.012723"><ele>465.804443</ele><time>2021-09-01T11:08:34Z</time><extensions><speed>1.155643</speed><course>318.371796</course><hAcc>0.888721</hAcc><vAcc>0.715936</vAcc></extensions></trkpt>
      <trkpt lon="-3.153410" lat="53.012713"><ele>465.690033</ele><time>2021-09-01T11:08:35Z</time><extensions><speed>1.152593</speed><course>319.534454</course><hAcc>0.888708</hAcc><vAcc>0.715894</vAcc></extensions></trkpt>
      <trkpt lon="-3.153412" lat="53.012703"><ele>465.578766</ele><time>2021-09-01T11:08:36Z</time><extensions><speed>1.150783</speed><course>319.948578</course><hAcc>0.888696</hAcc><vAcc>0.715846</vAcc></extensions></trkpt>
      <trkpt lon="-3.153415" lat="53.012693"><ele>465.471039</ele><time>2021-09-01T11:08:37Z</time><extensions><speed>1.150702</speed><course>326.867279</course><hAcc>0.888685</hAcc><vAcc>0.715794</vAcc></extensions></trkpt>
      <trkpt lon="-3.153418" lat="53.012682"><ele>465.367218</ele><time>2021-09-01T11:08:38Z</time><extensions><speed>1.152668</speed><course>319.995087</course><hAcc>0.888675</hAcc><vAcc>0.715746</vAcc></extensions></trkpt>
      <trkpt lon="-3.153421" lat="53.012672"><ele>465.267273</ele><time>2021-09-01T11:08:39Z</time><extensions><speed>1.156688</speed><course>323.754486</course><hAcc>0.888669</hAcc><vAcc>0.715706</vAcc></extensions></trkpt>
      <trkpt lon="-3.153425" lat="53.012662"><ele>465.171082</ele><time>2021-09-01T11:08:40Z</time><extensions><speed>1.162913</speed><course>327.994751</course><hAcc>0.888667</hAcc><vAcc>0.715682</vAcc></extensions></trkpt>
      <trkpt lon="-3.153429" lat="53.012652"><ele>465.078583</ele><time>2021-09-01T11:08:41Z</time><extensions><speed>1.171511</speed><course>338.740143</course><hAcc>0.888670</hAcc><vAcc>0.715679</vAcc></extensions></trkpt>
      <trkpt lon="-3.153433" lat="53.012641"><ele>464.989502</ele><time>2021-09-01T11:08:42Z</time><extensions><speed>1.182119</speed><course>336.648224</course><hAcc>0.888679</hAcc><vAcc>0.715699</vAcc></extensions></trkpt>
      <trkpt lon="-3.153437" lat="53.012631"><ele>464.902893</ele><time>2021-09-01T11:08:43Z</time><extensions><speed>1.193663</speed><course>335.818359</course><hAcc>0.888694</hAcc><vAcc>0.715746</vAcc></extensions></trkpt>
      <trkpt lon="-3.153442" lat="53.012621"><ele>464.817596</ele><time>2021-09-01T11:08:44Z</time><extensions><speed>1.205402</speed><course>332.183533</course><hAcc>0.888716</hAcc><vAcc>0.715821</vAcc></extensions></trkpt>
      <trkpt lon="-3.153447" lat="53.012610"><ele>464.732574</ele><time>2021-09-01T11:08:45Z</time><extensions><speed>1.217455</speed><course>329.123840</course><hAcc>0.888745</hAcc><vAcc>0.715923</vAcc></extensions></trkpt>
      <trkpt lon="-3.153452" lat="53.012600"><ele>464.647095</ele><time>2021-09-01T11:08:46Z</time><extensions><speed>1.229715</speed><course>331.386230</course><hAcc>0.888780</hAcc><vAcc>0.716050</vAcc></extensions></trkpt>
      <trkpt lon="-3.153457" lat="53.012589"><ele>464.560791</ele><time>2021-09-01T11:08:47Z</time><extensions><speed>1.242340</speed><course>327.161377</course><hAcc>0.888822</hAcc><vAcc>0.716197</vAcc></extensions></trkpt>
      <trkpt lon="-3.153461" lat="53.012578"><ele>464.473450</ele><time>2021-09-01T11:08:48Z</time><extensions><speed>1.256037</speed><course>327.868042</course><hAcc>0.888871</hAcc><vAcc>0.716357</vAcc></extensions></trkpt>
      <trkpt lon="-3.153466" lat="53.012567"><ele>464.384918</ele><time>2021-09-01T11:08:49Z</time><extensions><speed>1.270747</speed><course>323.627838</course><hAcc>0.888925</hAcc><vAcc>0.716529</vAcc></extensions></trkpt>
      <trkpt lon="-3.153471" lat="53.012556"><ele>464.295074</ele><time>2021-09-01T11:08:50Z</time><extensions><speed>1.286046</speed><course>324.612000</course><hAcc>0.888983</hAcc><vAcc>0.716711</vAcc></extensions></trkpt>
      <trkpt lon="-3.153476" lat="53.012545"><ele>464.204041</ele><time>2021-09-01T11:08:51Z</time><extensions><speed>1.301525</speed><course>314.250275</course><hAcc>0.889043</hAcc><vAcc>0.716906</vAcc></extensions></trkpt>
      <trkpt lon="-3.153481" lat="53.012533"><ele>464.112183</ele><time>2021-09-01T11:08:52Z</time><extensions><speed>1.316553</speed><course>324.325928</course><hAcc>0.889104</hAcc><vAcc>0.717114</vAcc></extensions></trkpt>
      <trkpt lon="-3.153485" lat="53.012522"><ele>464.019714</ele><time>2021-09-01T11:08:53Z</time><extensions><speed>1.330635</speed><course>323.620239</course><hAcc>0.889163</hAcc><vAcc>0.717330</vAcc></extensions></trkpt>
      <trkpt lon="-3.153490" lat="53.012510"><ele>463.926453</ele><time>2021-09-01T11:08:54Z</time><extensions><speed>1.343522</speed><course>318.647095</course><hAcc>0.889220</hAcc><vAcc>0.717548</vAcc></extensions></trkpt>
      <trkpt lon="-3.153495" lat="53.012498"><ele>463.832153</ele><time>2021-09-01T11:08:55Z</time><extensions><speed>1.354753</speed><course>325.356964</course><hAcc>0.889271</hAcc><vAcc>0.717753</vAcc></extensions></trkpt>
      <trkpt lon="-3.153499" lat="53.012486"><ele>463.736511</ele><time>2021-09-01T11:08:56Z</time><extensions><speed>1.363922</speed><course>319.826599</course><hAcc>0.889316</hAcc><vAcc>0.717934</vAcc></extensions></trkpt>
      <trkpt lon="-3.153504" lat="53.012474"><ele>463.639618</ele><time>2021-09-01T11:08:57Z</time><extensions><speed>1.371040</speed><course>314.735016</course><hAcc>0.889353</hAcc><vAcc>0.718079</vAcc></extensions></trkpt>
      <trkpt lon="-3.153509" lat="53.012462"><ele>463.542267</ele><time>2021-09-01T11:08:58Z</time><extensions><speed>1.376059</speed><course>309.478760</course><hAcc>0.889380</hAcc><vAcc>0.718181</vAcc></extensions></trkpt>
      <trkpt lon="-3.153514" lat="53.012450"><ele>463.445251</ele><time>2021-09-01T11:08:59Z</time><extensions><speed>1.378527</speed><course>319.543488</course><hAcc>0.889396</hAcc><vAcc>0.718237</vAcc></extensions></trkpt>
      <trkpt lon="-3.153519" lat="53.012438"><ele>463.348938</ele><time>2021-09-01T11:09:00Z</time><extensions><speed>1.378150</speed><course>324.087982</course><hAcc>0.889402</hAcc><vAcc>0.718245</vAcc></extensions></trkpt>
      <trkpt lon="-3.153523" lat="53.012426"><ele>463.253174</ele><time>2021-09-01T11:09:01Z</time><extensions><speed>1.375418</speed><course>317.628326</course><hAcc>0.889396</hAcc><vAcc>0.718209</vAcc></extensions></trkpt>
      <trkpt lon="-3.153528" lat="53.012414"><ele>463.158081</ele><time>2021-09-01T11:09:02Z</time><extensions><speed>1.370844</speed><course>311.843903</course><hAcc>0.889380</hAcc><vAcc>0.718134</vAcc></extensions></trkpt>
      <trkpt lon="-3.153533" lat="53.012403"><ele>463.063934</ele><time>2021-09-01T11:09:03Z</time><extensions><speed>1.364800</speed><course>320.026215</course><hAcc>0.889355</hAcc><vAcc>0.718027</vAcc></extensions></trkpt>
      <trkpt lon="-3.153538" lat="53.012391"><ele>462.971008</ele><time>2021-09-01T11:09:04Z</time><extensions><speed>1.357746</speed><course>320.448669</course><hAcc>0.889323</hAcc><vAcc>0.717894</vAcc></extensions></trkpt>
      <trkpt lon="-3.153543" lat="53.012379"><ele>462.879181</ele><time>2021-09-01T11:09:05Z</time><extensions><speed>1.349929</speed><course>324.626526</course><hAcc>0.889286</hAcc><vAcc>0.717743</vAcc></extensions></trkpt>
      <trkpt lon="-3.153548" lat="53.012367"><ele>462.788330</ele><time>2021-09-01T11:09:06Z</time><extensions><speed>1.341513</speed><course>326.167938</course><hAcc>0.889245</hAcc><vAcc>0.717585</vAcc></extensions></trkpt>
      <trkpt lon="-3.153552" lat="53.012355"><ele>462.698212</ele><time>2021-09-01T11:09:07Z</time><extensions><speed>1.332441</speed><course>325.390656</course><hAcc>0.889202</hAcc><vAcc>0.717431</vAcc></extensions></trkpt>
      <trkpt lon="-3.153557" lat="53.012344"><ele>462.608521</ele><time>2021-09-01T11:09:08Z</time><extensions><speed>1.322357</speed><course>314.974457</course><hAcc>0.889158</hAcc><vAcc>0.717288</vAcc></extensions></trkpt>
      <trkpt lon="-3.153561" lat="53.012332"><ele>462.518860</ele><time>2021-09-01T11:09:09Z</time><extensions><speed>1.311163</speed><course>325.724579</course><hAcc>0.889115</hAcc><vAcc>0.717157</vAcc></extensions></trkpt>
      <trkpt lon="-3.153566" lat="53.012321"><ele>462.429047</ele><time>2021-09-01T11:09:10Z</time><extensions><speed>1.299691</speed><course>318.034210</course><hAcc>0.889075</hAcc><vAcc>0.717035</vAcc></extensions></trkpt>
      <trkpt lon="-3.153570" lat="53.012309"><ele>462.339203</ele><time>2021-09-01T11:09:11Z</time><extensions><speed>1.289065</speed><course>313.475250</course><hAcc>0.889038</hAcc><vAcc>0.716921</vAcc></extensions></trkpt>
      <trkpt lon="-3.153573" lat="53.012298"><ele>462.249695</ele><time>2021-09-01T11:09:12Z</time><extensions><speed>1.279715</speed><course>321.089203</course><hAcc>0.889006</hAcc><vAcc>0.716814</vAcc></extensions></trkpt>
      <trkpt lon="-3.153576" lat="53.012287"><ele>462.161285</ele><time>2021-09-01T11:09:13Z</time><extensions><speed>1.271667</speed><course>329.810181</course><hAcc>0.888978</hAcc><vAcc>0.716721</vAcc></extensions></trkpt>
      <trkpt lon="-3.153579" lat="53.012276"><ele>462.074921</ele><time>2021-09-01T11:09:14Z</time><extensions><speed>1.264710</speed><course>327.314850</course><hAcc>0.888953</hAcc><vAcc>0.716646</vAcc></extensions></trkpt>
      <trkpt lon="-3.153582" lat="53.012264"><ele>461.991852</ele><time>2021-09-01T11:09:15Z</time><extensions><speed>1.258901</speed><course>321.503876</course><hAcc>0.888930</hAcc><vAcc>0.716591</vAcc></extensions></trkpt>
      <trkpt lon="-3.153585" lat="53.012253"><ele>461.913574</ele><time>2021-09-01T11:09:16Z</time><extensions><speed>1.254355</speed><course>323.534607</course><hAcc>0.888908</hAcc><vAcc>0.716553</vAcc></extensions></trkpt>
      <trkpt lon="-3.153587" lat="53.012242"><ele>461.841522</ele><time>2021-09-01T11:09:17Z</time><extensions><speed>1.251019</speed><course>325.158722</course><hAcc>0.888886</hAcc><vAcc>0.716531</vAcc></extensions></trkpt>
      <trkpt lon="-3.153589" lat="53.012231"><ele>461.777008</ele><time>2021-09-01T11:09:17Z</time><extensions><speed>1.249171</speed><course>329.447083</course><hAcc>0.888878</hAcc><vAcc>0.716530</vAcc></extensions></trkpt>
      <trkpt lon="-3.153591" lat="53.012220"><ele>461.721161</ele><time>2021-09-01T11:09:18Z</time><extensions><speed>1.249002</speed><course>331.191650</course><hAcc>0.888883</hAcc><vAcc>0.716544</vAcc></extensions></trkpt>
      <trkpt lon="-3.153592" lat="53.012208"><ele>461.675201</ele><time>2021-09-01T11:09:19Z</time><extensions><speed>1.250249</speed><course>334.557068</course><hAcc>0.888881</hAcc><vAcc>0.716551</vAcc></extensions></trkpt>
      <trkpt lon="-3.153594" lat="53.012197"><ele>461.640350</ele><time>2021-09-01T11:09:20Z</time><extensions><speed>1.252585</speed><course>336.690918</course><hAcc>0.888871</hAcc><vAcc>0.716540</vAcc></extensions></trkpt>
      <trkpt lon="-3.153596" lat="53.012186"><ele>461.618408</ele><time>2021-09-01T11:09:21Z</time><extensions><speed>1.256181</speed><course>337.183258</course><hAcc>0.888851</hAcc><vAcc>0.716498</vAcc></extensions></trkpt>
      <trkpt lon="-3.153598" lat="53.012175"><ele>461.611145</ele><time>2021-09-01T11:09:22Z</time><extensions><speed>1.260877</speed><course>318.997711</course><hAcc>0.888820</hAcc><vAcc>0.716417</vAcc></extensions></trkpt>
      <trkpt lon="-3.153600" lat="53.012164"><ele>461.619568</ele><time>2021-09-01T11:09:23Z</time><extensions><speed>1.265414</speed><course>315.791901</course><hAcc>0.888777</hAcc><vAcc>0.716288</vAcc></extensions></trkpt>
      <trkpt lon="-3.153603" lat="53.012152"><ele>461.643616</ele><time>2021-09-01T11:09:24Z</time><extensions><speed>1.268628</speed><course>315.791901</course><hAcc>0.888721</hAcc><vAcc>0.716108</vAcc></extensions></trkpt>
      <trkpt lon="-3.153606" lat="53.012141"><ele>461.682495</ele><time>2021-09-01T11:09:25Z</time><extensions><speed>1.270340</speed><course>315.791901</course><hAcc>0.888652</hAcc><vAcc>0.715875</vAcc></extensions></trkpt>
      <trkpt lon="-3.153609" lat="53.012130"><ele>461.734863</ele><time>2021-09-01T11:09:26Z</time><extensions><speed>1.270669</speed><course>315.791901</course><hAcc>0.888571</hAcc><vAcc>0.715594</vAcc></extensions></trkpt>
      <trkpt lon="-3.153613" lat="53.012119"><ele>461.798645</ele><time>2021-09-01T11:09:27Z</time><extensions><speed>1.269799</speed><course>315.791901</course><hAcc>0.888478</hAcc><vAcc>0.715271</vAcc></extensions></trkpt>
      <trkpt lon="-3.153617" lat="53.012107"><ele>461.871216</ele><time>2021-09-01T11:09:28Z</time><extensions><speed>1.268009</speed><course>315.791901</course><hAcc>0.888376</hAcc><vAcc>0.714911</vAcc></extensions></trkpt>
      <trkpt lon="-3.153621" lat="53.012096"><ele>461.949768</ele><time>2021-09-01T11:09:29Z</time><extensions><speed>1.265670</speed><course>315.791901</course><hAcc>0.888266</hAcc><vAcc>0.714520</vAcc></extensions></trkpt>
      <trkpt lon="-3.153626" lat="53.012085"><ele>462.031586</ele><time>2021-09-01T11:09:30Z</time><extensions><speed>1.263046</speed><course>315.791901</course><hAcc>0.888150</hAcc><vAcc>0.714111</vAcc></extensions></trkpt>
      <trkpt lon="-3.153630" lat="53.012074"><ele>462.114075</ele><time>2021-09-01T11:09:31Z</time><extensions><speed>1.260104</speed><course>315.791901</course><hAcc>0.888029</hAcc><vAcc>0.713700</vAcc></extensions></trkpt>
      <trkpt lon="-3.153635" lat="53.012063"><ele>462.194946</ele><time>2021-09-01T11:09:32Z</time><extensions><speed>1.256681</speed><course>315.791901</course><hAcc>0.887906</hAcc><vAcc>0.713297</vAcc></extensions></trkpt>
      <trkpt lon="-3.153640" lat="53.012053"><ele>462.272461</ele><time>2021-09-01T11:09:33Z</time><extensions><speed>1.252284</speed><course>315.791901</course><hAcc>0.887781</hAcc><vAcc>0.712906</vAcc></extensions></trkpt>
      <trkpt lon="-3.153645" lat="53.012042"><ele>462.345245</ele><time>2021-09-01T11:09:34Z</time><extensions><speed>1.246683</speed><course>315.791901</course><hAcc>0.887656</hAcc><vAcc>0.712522</vAcc></extensions></trkpt>
      <trkpt lon="-3.153650" lat="53.012031"><ele>462.412170</ele><time>2021-09-01T11:09:35Z</time><extensions><speed>1.240672</speed><course>315.791901</course><hAcc>0.887533</hAcc><vAcc>0.712136</vAcc></extensions></trkpt>
      <trkpt lon="-3.153655" lat="53.012020"><ele>462.472504</ele><time>2021-09-01T11:09:36Z</time><extensions><speed>1.235401</speed><course>315.791901</course><hAcc>0.887414</hAcc><vAcc>0.711741</vAcc></extensions></trkpt>
      <trkpt lon="-3.153660" lat="53.012010"><ele>462.525604</ele><time>2021-09-01T11:09:37Z</time><extensions><speed>1.231529</speed><course>315.791901</course><hAcc>0.887300</hAcc><vAcc>0.711341</vAcc></extensions></trkpt>
      <trkpt lon="-3.153664" lat="53.011999"><ele>462.570831</ele><time>2021-09-01T11:09:38Z</time><extensions><speed>1.229516</speed><course>324.368835</course><hAcc>0.887194</hAcc><vAcc>0.710947</vAcc></extensions></trkpt>
      <trkpt lon="-3.153669" lat="53.011988"><ele>462.608093</ele><time>2021-09-01T11:09:39Z</time><extensions><speed>1.229317</speed><course>336.936340</course><hAcc>0.887096</hAcc><vAcc>0.710570</vAcc></extensions></trkpt>
      <trkpt lon="-3.153674" lat="53.011978"><ele>462.637390</ele><time>2021-09-01T11:09:40Z</time><extensions><speed>1.230556</speed><course>334.067902</course><hAcc>0.887010</hAcc><vAcc>0.710226</vAcc></extensions></trkpt>
      <trkpt lon="-3.153679" lat="53.011967"><ele>462.658966</ele><time>2021-09-01T11:09:42Z</time><extensions><speed>1.233302</speed><course>335.500000</course><hAcc>0.886917</hAcc><vAcc>0.709913</vAcc></extensions></trkpt>
      <trkpt lon="-3.153684" lat="53.011956"><ele>462.673157</ele><time>2021-09-01T11:09:43Z</time><extensions><speed>1.237606</speed><course>331.822205</course><hAcc>0.886818</hAcc><vAcc>0.709636</vAcc></extensions></trkpt>
      <trkpt lon="-3.153690" lat="53.011946"><ele>462.680664</ele><time>2021-09-01T11:09:44Z</time><extensions><speed>1.243456</speed><course>332.566284</course><hAcc>0.886731</hAcc><vAcc>0.709407</vAcc></extensions></trkpt>
      <trkpt lon="-3.153695" lat="53.011935"><ele>462.682587</ele><time>2021-09-01T11:09:45Z</time><extensions><speed>1.250818</speed><course>322.442413</course><hAcc>0.886654</hAcc><vAcc>0.709219</vAcc></extensions></trkpt>
      <trkpt lon="-3.153701" lat="53.011924"><ele>462.680328</ele><time>2021-09-01T11:09:46Z</time><extensions><speed>1.259299</speed><course>328.923309</course><hAcc>0.886584</hAcc><vAcc>0.709055</vAcc></extensions></trkpt>
      <trkpt lon="-3.153707" lat="53.011913"><ele>462.675110</ele><time>2021-09-01T11:09:47Z</time><extensions><speed>1.268527</speed><course>332.979462</course><hAcc>0.886521</hAcc><vAcc>0.708899</vAcc></extensions></trkpt>
      <trkpt lon="-3.153713" lat="53.011902"><ele>462.667938</ele><time>2021-09-01T11:09:48Z</time><extensions><speed>1.278548</speed><course>326.583588</course><hAcc>0.886462</hAcc><vAcc>0.708738</vAcc></extensions></trkpt>
      <trkpt lon="-3.153719" lat="53.011892"><ele>462.659668</ele><time>2021-09-01T11:09:49Z</time><extensions><speed>1.288979</speed><course>333.004852</course><hAcc>0.886406</hAcc><vAcc>0.708567</vAcc></extensions></trkpt>
      <trkpt lon="-3.153726" lat="53.011881"><ele>462.650909</ele><time>2021-09-01T11:09:50Z</time><extensions><speed>1.299029</speed><course>328.891602</course><hAcc>0.886352</hAcc><vAcc>0.708389</vAcc></extensions></trkpt>
      <trkpt lon="-3.153733" lat="53.011870"><ele>462.642273</ele><time>2021-09-01T11:09:51Z</time><extensions><speed>1.308135</speed><course>329.156494</course><hAcc>0.886301</hAcc><vAcc>0.708209</vAcc></extensions></trkpt>
      <trkpt lon="-3.153740" lat="53.011859"><ele>462.634552</ele><time>2021-09-01T11:09:52Z</time><extensions><speed>1.315673</speed><course>329.450256</course><hAcc>0.886250</hAcc><vAcc>0.708032</vAcc></extensions></trkpt>
      <trkpt lon="-3.153747" lat="53.011848"><ele>462.628540</ele><time>2021-09-01T11:09:53Z</time><extensions><speed>1.321103</speed><course>329.886902</course><hAcc>0.886203</hAcc><vAcc>0.707864</vAcc></extensions></trkpt>
      <trkpt lon="-3.153755" lat="53.011837"><ele>462.625092</ele><time>2021-09-01T11:09:54Z</time><extensions><speed>1.323969</speed><course>332.708923</course><hAcc>0.886158</hAcc><vAcc>0.707709</vAcc></extensions></trkpt>
      <trkpt lon="-3.153762" lat="53.011826"><ele>462.625092</ele><time>2021-09-01T11:09:55Z</time><extensions><speed>1.323553</speed><course>337.086456</course><hAcc>0.886116</hAcc><vAcc>0.707571</vAcc></extensions></trkpt>
      <trkpt lon="-3.153770" lat="53.011815"><ele>462.629120</ele><time>2021-09-01T11:09:56Z</time><extensions><speed>1.319562</speed><course>335.947693</course><hAcc>0.886079</hAcc><vAcc>0.707455</vAcc></extensions></trkpt>
      <trkpt lon="-3.153778" lat="53.011804"><ele>462.637421</ele><time>2021-09-01T11:09:57Z</time><extensions><speed>1.313169</speed><course>332.293579</course><hAcc>0.886046</hAcc><vAcc>0.707359</vAcc></extensions></trkpt>
      <trkpt lon="-3.153785" lat="53.011793"><ele>462.650330</ele><time>2021-09-01T11:09:58Z</time><extensions><speed>1.305863</speed><course>330.673279</course><hAcc>0.886018</hAcc><vAcc>0.707280</vAcc></extensions></trkpt>
      <trkpt lon="-3.153793" lat="53.011782"><ele>462.668152</ele><time>2021-09-01T11:09:59Z</time><extensions><speed>1.298505</speed><course>325.868774</course><hAcc>0.885994</hAcc><vAcc>0.707214</vAcc></extensions></trkpt>
      <trkpt lon="-3.153801" lat="53.011772"><ele>462.691193</ele><time>2021-09-01T11:10:00Z</time><extensions><speed>1.291962</speed><course>320.652771</course><hAcc>0.885976</hAcc><vAcc>0.707160</vAcc></extensions></trkpt>
      <trkpt lon="-3.153809" lat="53.011761"><ele>462.719696</ele><time>2021-09-01T11:10:01Z</time><extensions><speed>1.286787</speed><course>317.759430</course><hAcc>0.885963</hAcc><vAcc>0.707118</vAcc></extensions></trkpt>
      <trkpt lon="-3.153816" lat="53.011751"><ele>462.753784</ele><time>2021-09-01T11:10:02Z</time><extensions><speed>1.282812</speed><course>312.631989</course><hAcc>0.885955</hAcc><vAcc>0.707086</vAcc></extensions></trkpt>
      <trkpt lon="-3.153824" lat="53.011740"><ele>462.793579</ele><time>2021-09-01T11:10:03Z</time><extensions><speed>1.279812</speed><course>318.114197</course><hAcc>0.885954</hAcc><vAcc>0.707065</vAcc></extensions></trkpt>
      <trkpt lon="-3.153832" lat="53.011730"><ele>462.839294</ele><time>2021-09-01T11:10:04Z</time><extensions><speed>1.277235</speed><course>324.507172</course><hAcc>0.885959</hAcc><vAcc>0.707060</vAcc></extensions></trkpt>
      <trkpt lon="-3.153840" lat="53.011719"><ele>462.890839</ele><time>2021-09-01T11:10:05Z</time><extensions><speed>1.274064</speed><course>327.082703</course><hAcc>0.885971</hAcc><vAcc>0.707079</vAcc></extensions></trkpt>
      <trkpt lon="-3.153848" lat="53.011709"><ele>462.947723</ele><time>2021-09-01T11:10:06Z</time><extensions><speed>1.269861</speed><course>329.958954</course><hAcc>0.885991</hAcc><vAcc>0.707129</vAcc></extensions></trkpt>
      <trkpt lon="-3.153856" lat="53.011698"><ele>463.009033</ele><time>2021-09-01T11:10:07Z</time><extensions><speed>1.264787</speed><course>328.035645</course><hAcc>0.886018</hAcc><vAcc>0.707216</vAcc></extensions></trkpt>
      <trkpt lon="-3.153863" lat="53.011688"><ele>463.073303</ele><time>2021-09-01T11:10:08Z</time><extensions><speed>1.259400</speed><course>327.514526</course><hAcc>0.886052</hAcc><vAcc>0.707341</vAcc></extensions></trkpt>
      <trkpt lon="-3.153871" lat="53.011678"><ele>463.139160</ele><time>2021-09-01T11:10:09Z</time><extensions><speed>1.253967</speed><course>320.027710</course><hAcc>0.886092</hAcc><vAcc>0.707496</vAcc></extensions></trkpt>
      <trkpt lon="-3.153878" lat="53.011667"><ele>463.205994</ele><time>2021-09-01T11:10:10Z</time><extensions><speed>1.248596</speed><course>323.596710</course><hAcc>0.886136</hAcc><vAcc>0.707672</vAcc></extensions></trkpt>
      <trkpt lon="-3.153885" lat="53.011657"><ele>463.274353</ele><time>2021-09-01T11:10:11Z</time><extensions><speed>1.244115</speed><course>326.277405</course><hAcc>0.886184</hAcc><vAcc>0.707854</vAcc></extensions></trkpt>
      <trkpt lon="-3.153892" lat="53.011647"><ele>463.345520</ele><time>2021-09-01T11:10:12Z</time><extensions><speed>1.241073</speed><course>327.083344</course><hAcc>0.886235</hAcc><vAcc>0.708034</vAcc></extensions></trkpt>
      <trkpt lon="-3.153898" lat="53.011636"><ele>463.420746</ele><time>2021-09-01T11:10:13Z</time><extensions><speed>1.239239</speed><course>330.723541</course><hAcc>0.886286</hAcc><vAcc>0.708204</vAcc></extensions></trkpt>
      <trkpt lon="-3.153904" lat="53.011626"><ele>463.501099</ele><time>2021-09-01T11:10:14Z</time><extensions><speed>1.238399</speed><course>328.902985</course><hAcc>0.886337</hAcc><vAcc>0.708363</vAcc></extensions></trkpt>
      <trkpt lon="-3.153910" lat="53.011615"><ele>463.587128</ele><time>2021-09-01T11:10:15Z</time><extensions><speed>1.238449</speed><course>325.540680</course><hAcc>0.886387</hAcc><vAcc>0.708512</vAcc></extensions></trkpt>
      <trkpt lon="-3.153916" lat="53.011605"><ele>463.678680</ele><time>2021-09-01T11:10:16Z</time><extensions><speed>1.239099</speed><course>326.969879</course><hAcc>0.886437</hAcc><vAcc>0.708654</vAcc></extensions></trkpt>
      <trkpt lon="-3.153922" lat="53.011594"><ele>463.775116</ele><time>2021-09-01T11:10:17Z</time><extensions><speed>1.240054</speed><course>320.316467</course><hAcc>0.886486</hAcc><vAcc>0.708794</vAcc></extensions></trkpt>
      <trkpt lon="-3.153927" lat="53.011583"><ele>463.875641</ele><time>2021-09-01T11:10:18Z</time><extensions><speed>1.240924</speed><course>319.871765</course><hAcc>0.886535</hAcc><vAcc>0.708935</vAcc></extensions></trkpt>
      <trkpt lon="-3.153933" lat="53.011573"><ele>463.979584</ele><time>2021-09-01T11:10:19Z</time><extensions><speed>1.241395</speed><course>316.990692</course><hAcc>0.886584</hAcc><vAcc>0.709082</vAcc></extensions></trkpt>
      <trkpt lon="-3.153938" lat="53.011562"><ele>464.086578</ele><time>2021-09-01T11:10:20Z</time><extensions><speed>1.241365</speed><course>317.272278</course><hAcc>0.886633</hAcc><vAcc>0.709237</vAcc></extensions></trkpt>
      <trkpt lon="-3.153943" lat="53.011551"><ele>464.196350</ele><time>2021-09-01T11:10:21Z</time><extensions><speed>1.240583</speed><course>317.305878</course><hAcc>0.886682</hAcc><vAcc>0.709399</vAcc></extensions></trkpt>
      <trkpt lon="-3.153948" lat="53.011541"><ele>464.308624</ele><time>2021-09-01T11:10:22Z</time><extensions><speed>1.238967</speed><course>319.626617</course><hAcc>0.886732</hAcc><vAcc>0.709565</vAcc></extensions></trkpt>
      <trkpt lon="-3.153953" lat="53.011530"><ele>464.423004</ele><time>2021-09-01T11:10:23Z</time><extensions><speed>1.236665</speed><course>316.946777</course><hAcc>0.886781</hAcc><vAcc>0.709734</vAcc></extensions></trkpt>
      <trkpt lon="-3.153957" lat="53.011519"><ele>464.538818</ele><time>2021-09-01T11:10:24Z</time><extensions><speed>1.233658</speed><course>316.848175</course><hAcc>0.886828</hAcc><vAcc>0.709903</vAcc></extensions></trkpt>
      <trkpt lon="-3.153961" lat="53.011508"><ele>464.655121</ele><time>2021-09-01T11:10:25Z</time><extensions><speed>1.230525</speed><course>306.129730</course><hAcc>0.886874</hAcc><vAcc>0.710069</vAcc></extensions></trkpt>
      <trkpt lon="-3.153966" lat="53.011497"><ele>464.771027</ele><time>2021-09-01T11:10:26Z</time><extensions><speed>1.228037</speed><course>311.287872</course><hAcc>0.886918</hAcc><vAcc>0.710225</vAcc></extensions></trkpt>
      <trkpt lon="-3.153970" lat="53.011487"><ele>464.885559</ele><time>2021-09-01T11:10:27Z</time><extensions><speed>1.226578</speed><course>316.150696</course><hAcc>0.886959</hAcc><vAcc>0.710367</vAcc></extensions></trkpt>
      <trkpt lon="-3.153973" lat="53.011476"><ele>464.997620</ele><time>2021-09-01T11:10:28Z</time><extensions><speed>1.226623</speed><course>319.589172</course><hAcc>0.886998</hAcc><vAcc>0.710490</vAcc></extensions></trkpt>
      <trkpt lon="-3.153978" lat="53.011465"><ele>465.106232</ele><time>2021-09-01T11:10:29Z</time><extensions><speed>1.228709</speed><course>317.826752</course><hAcc>0.887035</hAcc><vAcc>0.710593</vAcc></extensions></trkpt>
      <trkpt lon="-3.153982" lat="53.011454"><ele>465.210663</ele><time>2021-09-01T11:10:30Z</time><extensions><speed>1.233607</speed><course>316.582428</course><hAcc>0.887072</hAcc><vAcc>0.710682</vAcc></extensions></trkpt>
      <trkpt lon="-3.153987" lat="53.011444"><ele>465.310425</ele><time>2021-09-01T11:10:31Z</time><extensions><speed>1.241868</speed><course>322.533203</course><hAcc>0.887108</hAcc><vAcc>0.710763</vAcc></extensions></trkpt>
      <trkpt lon="-3.153992" lat="53.011433"><ele>465.405365</ele><time>2021-09-01T11:10:32Z</time><extensions><speed>1.253044</speed><course>322.533203</course><hAcc>0.887146</hAcc><vAcc>0.710848</vAcc></extensions></trkpt>
      <trkpt lon="-3.153997" lat="53.011422"><ele>465.495575</ele><time>2021-09-01T11:10:33Z</time><extensions><speed>1.265860</speed><course>322.533203</course><hAcc>0.887186</hAcc><vAcc>0.710949</vAcc></extensions></trkpt>
      <trkpt lon="-3.154003" lat="53.011411"><ele>465.581329</ele><time>2021-09-01T11:10:34Z</time><extensions><speed>1.279196</speed><course>322.533203</course><hAcc>0.887229</hAcc><vAcc>0.711074</vAcc></extensions></trkpt>
      <trkpt lon="-3.154010" lat="53.011400"><ele>465.662720</ele><time>2021-09-01T11:10:35Z</time><extensions><speed>1.292219</speed><course>322.533203</course><hAcc>0.887274</hAcc><vAcc>0.711227</vAcc></extensions></trkpt>
      <trkpt lon="-3.154017" lat="53.011390"><ele>465.739868</ele><time>2021-09-01T11:10:36Z</time><extensions><speed>1.303879</speed><course>310.635162</course><hAcc>0.887321</hAcc><vAcc>0.711405</vAcc></extensions></trkpt>
      <trkpt lon="-3.154024" lat="53.011379"><ele>465.813141</ele><time>2021-09-01T11:10:37Z</time><extensions><speed>1.313534</speed><course>317.610291</course><hAcc>0.887370</hAcc><vAcc>0.711601</vAcc></extensions></trkpt>
      <trkpt lon="-3.154032" lat="53.011368"><ele>465.883301</ele><time>2021-09-01T11:10:38Z</time><extensions><speed>1.321005</speed><course>306.125671</course><hAcc>0.887419</hAcc><vAcc>0.711799</vAcc></extensions></trkpt>
      <trkpt lon="-3.154039" lat="53.011357"><ele>465.951324</ele><time>2021-09-01T11:10:39Z</time><extensions><speed>1.326024</speed><course>318.134308</course><hAcc>0.887466</hAcc><vAcc>0.711985</vAcc></extensions></trkpt>
      <trkpt lon="-3.154047" lat="53.011346"><ele>466.018005</ele><time>2021-09-01T11:10:40Z</time><extensions><speed>1.328786</speed><course>310.926819</course><hAcc>0.887510</hAcc><vAcc>0.712148</vAcc></extensions></trkpt>
      <trkpt lon="-3.154055" lat="53.011335"><ele>466.084167</ele><time>2021-09-01T11:10:41Z</time><extensions><speed>1.329741</speed><course>312.939606</course><hAcc>0.887549</hAcc><vAcc>0.712278</vAcc></extensions></trkpt>
      <trkpt lon="-3.154063" lat="53.011324"><ele>466.150818</ele><time>2021-09-01T11:10:42Z</time><extensions><speed>1.328837</speed><course>305.606995</course><hAcc>0.887582</hAcc><vAcc>0.712376</vAcc></extensions></trkpt>
      <trkpt lon="-3.154072" lat="53.011313"><ele>466.218903</ele><time>2021-09-01T11:10:43Z</time><extensions><speed>1.325782</speed><course>302.541321</course><hAcc>0.887608</hAcc><vAcc>0.712443</vAcc></extensions></trkpt>
      <trkpt lon="-3.154080" lat="53.011302"><ele>466.289215</ele><time>2021-09-01T11:10:44Z</time><extensions><speed>1.320958</speed><course>303.802917</course><hAcc>0.887624</hAcc><vAcc>0.712485</vAcc></extensions></trkpt>
      <trkpt lon="-3.154088" lat="53.011292"><ele>466.362762</ele><time>2021-09-01T11:10:45Z</time><extensions><speed>1.315037</speed><course>300.395538</course><hAcc>0.887632</hAcc><vAcc>0.712503</vAcc></extensions></trkpt>
      <trkpt lon="-3.154096" lat="53.011281"><ele>466.440338</ele><time>2021-09-01T11:10:46Z</time><extensions><speed>1.307919</speed><course>303.076660</course><hAcc>0.887631</hAcc><vAcc>0.712501</vAcc></extensions></trkpt>
      <trkpt lon="-3.154104" lat="53.011270"><ele>466.522186</ele><time>2021-09-01T11:10:47Z</time><extensions><speed>1.298954</speed><course>301.521118</course><hAcc>0.887621</hAcc><vAcc>0.712477</vAcc></extensions></trkpt>
      <trkpt lon="-3.154112" lat="53.011260"><ele>466.608612</ele><time>2021-09-01T11:10:48Z</time><extensions><speed>1.287737</speed><course>315.953857</course><hAcc>0.887603</hAcc><vAcc>0.712430</vAcc></extensions></trkpt>
      <trkpt lon="-3.154120" lat="53.011249"><ele>466.699707</ele><time>2021-09-01T11:10:49Z</time><extensions><speed>1.274767</speed><course>321.613922</course><hAcc>0.887577</hAcc><vAcc>0.712355</vAcc></extensions></trkpt>
      <trkpt lon="-3.154127" lat="53.011239"><ele>466.795502</ele><time>2021-09-01T11:10:50Z</time><extensions><speed>1.260815</speed><course>320.530426</course><hAcc>0.887544</hAcc><vAcc>0.712251</vAcc></extensions></trkpt>
      <trkpt lon="-3.154135" lat="53.011228"><ele>466.895782</ele><time>2021-09-01T11:10:51Z</time><extensions><speed>1.246325</speed><course>319.105469</course><hAcc>0.887507</hAcc><vAcc>0.712119</vAcc></extensions></trkpt>
      <trkpt lon="-3.154142" lat="53.011218"><ele>466.999634</ele><time>2021-09-01T11:10:52Z</time><extensions><speed>1.230931</speed><course>320.005280</course><hAcc>0.887466</hAcc><vAcc>0.711964</vAcc></extensions></trkpt>
      <trkpt lon="-3.154150" lat="53.011208"><ele>467.105438</ele><time>2021-09-01T11:10:53Z</time><extensions><speed>1.213808</speed><course>320.540527</course><hAcc>0.887424</hAcc><vAcc>0.711796</vAcc></extensions></trkpt>
      <trkpt lon="-3.154157" lat="53.011198"><ele>467.211487</ele><time>2021-09-01T11:10:54Z</time><extensions><speed>1.194686</speed><course>316.635681</course><hAcc>0.887385</hAcc><vAcc>0.711626</vAcc></extensions></trkpt>
      <trkpt lon="-3.154164" lat="53.011189"><ele>467.316010</ele><time>2021-09-01T11:10:55Z</time><extensions><speed>1.173602</speed><course>319.322998</course><hAcc>0.887350</hAcc><vAcc>0.711467</vAcc></extensions></trkpt>
      <trkpt lon="-3.154172" lat="53.011179"><ele>467.417389</ele><time>2021-09-01T11:10:56Z</time><extensions><speed>1.150538</speed><course>319.244141</course><hAcc>0.887322</hAcc><vAcc>0.711335</vAcc></extensions></trkpt>
      <trkpt lon="-3.154179" lat="53.011170"><ele>467.514557</ele><time>2021-09-01T11:10:57Z</time><extensions><speed>1.125454</speed><course>315.425568</course><hAcc>0.887304</hAcc><vAcc>0.711242</vAcc></extensions></trkpt>
      <trkpt lon="-3.154186" lat="53.011161"><ele>467.606689</ele><time>2021-09-01T11:10:58Z</time><extensions><speed>1.098894</speed><course>318.059448</course><hAcc>0.887297</hAcc><vAcc>0.711200</vAcc></extensions></trkpt>
      <trkpt lon="-3.154194" lat="53.011152"><ele>467.693359</ele><time>2021-09-01T11:10:59Z</time><extensions><speed>1.071945</speed><course>318.243683</course><hAcc>0.887302</hAcc><vAcc>0.711215</vAcc></extensions></trkpt>
      <trkpt lon="-3.154201" lat="53.011144"><ele>467.774292</ele><time>2021-09-01T11:11:00Z</time><extensions><speed>1.045727</speed><course>319.840027</course><hAcc>0.887318</hAcc><vAcc>0.711286</vAcc></extensions></trkpt>
      <trkpt lon="-3.154208" lat="53.011136"><ele>467.849243</ele><time>2021-09-01T11:11:01Z</time><extensions><speed>1.022057</speed><course>320.630524</course><hAcc>0.887344</hAcc><vAcc>0.711407</vAcc></extensions></trkpt>
      <trkpt lon="-3.154215" lat="53.011128"><ele>467.918091</ele><time>2021-09-01T11:11:02Z</time><extensions><speed>1.003661</speed><course>318.435181</course><hAcc>0.887378</hAcc><vAcc>0.711566</vAcc></extensions></trkpt>
      <trkpt lon="-3.154223" lat="53.011120"><ele>467.981171</ele><time>2021-09-01T11:11:03Z</time><extensions><speed>0.993400</speed><course>313.959320</course><hAcc>0.887417</hAcc><vAcc>0.711749</vAcc></extensions></trkpt>
      <trkpt lon="-3.154230" lat="53.011112"><ele>468.039398</ele><time>2021-09-01T11:11:04Z</time><extensions><speed>0.993261</speed><course>314.005951</course><hAcc>0.887457</hAcc><vAcc>0.711933</vAcc></extensions></trkpt>
      <trkpt lon="-3.154238" lat="53.011104"><ele>468.094238</ele><time>2021-09-01T11:11:05Z</time><extensions><speed>1.003248</speed><course>315.776367</course><hAcc>0.887494</hAcc><vAcc>0.712098</vAcc></extensions></trkpt>
      <trkpt lon="-3.154246" lat="53.011097"><ele>468.147308</ele><time>2021-09-01T11:11:06Z</time><extensions><speed>1.021635</speed><course>317.643280</course><hAcc>0.887524</hAcc><vAcc>0.712230</vAcc></extensions></trkpt>
      <trkpt lon="-3.154254" lat="53.011089"><ele>468.200348</ele><time>2021-09-01T11:11:07Z</time><extensions><speed>1.045500</speed><course>316.187012</course><hAcc>0.887544</hAcc><vAcc>0.712319</vAcc></extensions></trkpt>
      <trkpt lon="-3.154262" lat="53.011081"><ele>468.254944</ele><time>2021-09-01T11:11:08Z</time><extensions><speed>1.071844</speed><course>313.238525</course><hAcc>0.887549</hAcc><vAcc>0.712359</vAcc></extensions></trkpt>
      <trkpt lon="-3.154271" lat="53.011073"><ele>468.311951</ele><time>2021-09-01T11:11:09Z</time><extensions><speed>1.097662</speed><course>309.102142</course><hAcc>0.887539</hAcc><vAcc>0.712343</vAcc></extensions></trkpt>
      <trkpt lon="-3.154280" lat="53.011064"><ele>468.371429</ele><time>2021-09-01T11:11:10Z</time><extensions><speed>1.120524</speed><course>313.839325</course><hAcc>0.887511</hAcc><vAcc>0.712268</vAcc></extensions></trkpt>
      <trkpt lon="-3.154289" lat="53.011056"><ele>468.433075</ele><time>2021-09-01T11:11:11Z</time><extensions><speed>1.139067</speed><course>315.040405</course><hAcc>0.887466</hAcc><vAcc>0.712127</vAcc></extensions></trkpt>
      <trkpt lon="-3.154298" lat="53.011047"><ele>468.496857</ele><time>2021-09-01T11:11:12Z</time><extensions><speed>1.152802</speed><course>315.010925</course><hAcc>0.887403</hAcc><vAcc>0.711918</vAcc></extensions></trkpt>
      <trkpt lon="-3.154307" lat="53.011038"><ele>468.562775</ele><time>2021-09-01T11:11:13Z</time><extensions><speed>1.162066</speed><course>312.357758</course><hAcc>0.887326</hAcc><vAcc>0.711643</vAcc></extensions></trkpt>
      <trkpt lon="-3.154315" lat="53.011029"><ele>468.630737</ele><time>2021-09-01T11:11:14Z</time><extensions><speed>1.167548</speed><course>316.888885</course><hAcc>0.887237</hAcc><vAcc>0.711313</vAcc></extensions></trkpt>
      <trkpt lon="-3.154324" lat="53.011020"><ele>468.700775</ele><time>2021-09-01T11:11:15Z</time><extensions><speed>1.170702</speed><course>320.096283</course><hAcc>0.887139</hAcc><vAcc>0.710947</vAcc></extensions></trkpt>
      <trkpt lon="-3.154332" lat="53.011010"><ele>468.772766</ele><time>2021-09-01T11:11:16Z</time><extensions><speed>1.172872</speed><course>330.452972</course><hAcc>0.887037</hAcc><vAcc>0.710563</vAcc></extensions></trkpt>
      <trkpt lon="-3.154339" lat="53.011001"><ele>468.846375</ele><time>2021-09-01T11:11:17Z</time><extensions><speed>1.175041</speed><course>325.892334</course><hAcc>0.886933</hAcc><vAcc>0.710180</vAcc></extensions></trkpt>
      <trkpt lon="-3.154346" lat="53.010991"><ele>468.921234</ele><time>2021-09-01T11:11:18Z</time><extensions><speed>1.178165</speed><course>323.150330</course><hAcc>0.886834</hAcc><vAcc>0.709817</vAcc></extensions></trkpt>
      <trkpt lon="-3.154353" lat="53.010981"><ele>468.997375</ele><time>2021-09-01T11:11:19Z</time><extensions><speed>1.183238</speed><course>318.355499</course><hAcc>0.886743</hAcc><vAcc>0.709487</vAcc></extensions></trkpt>
      <trkpt lon="-3.154359" lat="53.010971"><ele>469.074951</ele><time>2021-09-01T11:11:20Z</time><extensions><speed>1.190471</speed><course>319.900726</course><hAcc>0.886664</hAcc><vAcc>0.709199</vAcc></extensions></trkpt>
      <trkpt lon="-3.154365" lat="53.010961"><ele>469.154083</ele><time>2021-09-01T11:11:21Z</time><extensions><speed>1.198978</speed><course>327.705719</course><hAcc>0.886600</hAcc><vAcc>0.708964</vAcc></extensions></trkpt>
      <trkpt lon="-3.154371" lat="53.010951"><ele>469.234619</ele><time>2021-09-01T11:11:22Z</time><extensions><speed>1.207745</speed><course>325.864380</course><hAcc>0.886552</hAcc><vAcc>0.708793</vAcc></extensions></trkpt>
      <trkpt lon="-3.154377" lat="53.010941"><ele>469.316284</ele><time>2021-09-01T11:11:23Z</time><extensions><speed>1.215588</speed><course>316.016541</course><hAcc>0.886521</hAcc><vAcc>0.708694</vAcc></extensions></trkpt>
      <trkpt lon="-3.154382" lat="53.010930"><ele>469.398895</ele><time>2021-09-01T11:11:24Z</time><extensions><speed>1.221795</speed><course>317.886536</course><hAcc>0.886505</hAcc><vAcc>0.708670</vAcc></extensions></trkpt>
      <trkpt lon="-3.154387" lat="53.010920"><ele>469.482269</ele><time>2021-09-01T11:11:25Z</time><extensions><speed>1.226337</speed><course>327.267029</course><hAcc>0.886502</hAcc><vAcc>0.708711</vAcc></extensions></trkpt>
      <trkpt lon="-3.154392" lat="53.010909"><ele>469.566315</ele><time>2021-09-01T11:11:26Z</time><extensions><speed>1.229319</speed><course>326.251373</course><hAcc>0.886507</hAcc><vAcc>0.708804</vAcc></extensions></trkpt>
      <trkpt lon="-3.154397" lat="53.010898"><ele>469.650757</ele><time>2021-09-01T11:11:27Z</time><extensions><speed>1.230990</speed><course>330.160339</course><hAcc>0.886516</hAcc><vAcc>0.708925</vAcc></extensions></trkpt>
      <trkpt lon="-3.154403" lat="53.010888"><ele>469.735229</ele><time>2021-09-01T11:11:28Z</time><extensions><speed>1.231723</speed><course>329.350830</course><hAcc>0.886523</hAcc><vAcc>0.709047</vAcc></extensions></trkpt>
      <trkpt lon="-3.154408" lat="53.010877"><ele>469.819672</ele><time>2021-09-01T11:11:29Z</time><extensions><speed>1.232119</speed><course>328.046906</course><hAcc>0.886523</hAcc><vAcc>0.709142</vAcc></extensions></trkpt>
      <trkpt lon="-3.154413" lat="53.010866"><ele>469.904266</ele><time>2021-09-01T11:11:30Z</time><extensions><speed>1.232956</speed><course>328.036682</course><hAcc>0.886511</hAcc><vAcc>0.709185</vAcc></extensions></trkpt>
      <trkpt lon="-3.154418" lat="53.010856"><ele>469.989075</ele><time>2021-09-01T11:11:31Z</time><extensions><speed>1.234834</speed><course>328.321899</course><hAcc>0.886483</hAcc><vAcc>0.709156</vAcc></extensions></trkpt>
      <trkpt lon="-3.154424" lat="53.010845"><ele>470.074158</ele><time>2021-09-01T11:11:31Z</time><extensions><speed>1.238190</speed><course>326.366882</course><hAcc>0.886457</hAcc><vAcc>0.709057</vAcc></extensions></trkpt>
      <trkpt lon="-3.154430" lat="53.010835"><ele>470.159668</ele><time>2021-09-01T11:11:32Z</time><extensions><speed>1.243456</speed><course>331.362152</course><hAcc>0.886433</hAcc><vAcc>0.708890</vAcc></extensions></trkpt>
      <trkpt lon="-3.154436" lat="53.010824"><ele>470.245575</ele><time>2021-09-01T11:11:33Z</time><extensions><speed>1.250764</speed><course>329.394318</course><hAcc>0.886396</hAcc><vAcc>0.708652</vAcc></extensions></trkpt>
      <trkpt lon="-3.154443" lat="53.010814"><ele>470.332031</ele><time>2021-09-01T11:11:34Z</time><extensions><speed>1.259836</speed><course>332.464355</course><hAcc>0.886353</hAcc><vAcc>0.708367</vAcc></extensions></trkpt>
      <trkpt lon="-3.154450" lat="53.010803"><ele>470.419403</ele><time>2021-09-01T11:11:36Z</time><extensions><speed>1.270192</speed><course>335.973755</course><hAcc>0.886291</hAcc><vAcc>0.708053</vAcc></extensions></trkpt>
      <trkpt lon="-3.154458" lat="53.010793"><ele>470.507935</ele><time>2021-09-01T11:11:37Z</time><extensions><speed>1.281094</speed><course>334.588074</course><hAcc>0.886216</hAcc><vAcc>0.707743</vAcc></extensions></trkpt>
      <trkpt lon="-3.154466" lat="53.010782"><ele>470.597687</ele><time>2021-09-01T11:11:38Z</time><extensions><speed>1.292152</speed><course>337.558624</course><hAcc>0.886151</hAcc><vAcc>0.707482</vAcc></extensions></trkpt>
      <trkpt lon="-3.154474" lat="53.010772"><ele>470.688568</ele><time>2021-09-01T11:11:39Z</time><extensions><speed>1.302985</speed><course>337.377197</course><hAcc>0.886099</hAcc><vAcc>0.707294</vAcc></extensions></trkpt>
      <trkpt lon="-3.154483" lat="53.010761"><ele>470.780548</ele><time>2021-09-01T11:11:40Z</time><extensions><speed>1.312561</speed><course>334.236908</course><hAcc>0.886063</hAcc><vAcc>0.707188</vAcc></extensions></trkpt>
      <trkpt lon="-3.154492" lat="53.010751"><ele>470.873627</ele><time>2021-09-01T11:11:41Z</time><extensions><speed>1.319627</speed><course>333.116516</course><hAcc>0.886042</hAcc><vAcc>0.707160</vAcc></extensions></trkpt>
      <trkpt lon="-3.154502" lat="53.010740"><ele>470.967438</ele><time>2021-09-01T11:11:42Z</time><extensions><speed>1.322875</speed><course>331.193451</course><hAcc>0.886036</hAcc><vAcc>0.707199</vAcc></extensions></trkpt>
      <trkpt lon="-3.154512" lat="53.010730"><ele>471.061371</ele><time>2021-09-01T11:11:43Z</time><extensions><speed>1.321043</speed><course>327.071960</course><hAcc>0.886042</hAcc><vAcc>0.707288</vAcc></extensions></trkpt>
      <trkpt lon="-3.154522" lat="53.010720"><ele>471.154633</ele><time>2021-09-01T11:11:44Z</time><extensions><speed>1.313313</speed><course>323.969269</course><hAcc>0.886056</hAcc><vAcc>0.707404</vAcc></extensions></trkpt>
      <trkpt lon="-3.154533" lat="53.010710"><ele>471.246582</ele><time>2021-09-01T11:11:45Z</time><extensions><speed>1.299016</speed><course>325.035614</course><hAcc>0.886072</hAcc><vAcc>0.707527</vAcc></extensions></trkpt>
      <trkpt lon="-3.154543" lat="53.010701"><ele>471.336853</ele><time>2021-09-01T11:11:46Z</time><extensions><speed>1.277873</speed><course>325.080109</course><hAcc>0.886086</hAcc><vAcc>0.707634</vAcc></extensions></trkpt>
      <trkpt lon="-3.154554" lat="53.010691"><ele>471.425140</ele><time>2021-09-01T11:11:47Z</time><extensions><speed>1.250226</speed><course>320.596710</course><hAcc>0.886093</hAcc><vAcc>0.707703</vAcc></extensions></trkpt>
      <trkpt lon="-3.154564" lat="53.010682"><ele>471.510986</ele><time>2021-09-01T11:11:48Z</time><extensions><speed>1.216102</speed><course>325.164429</course><hAcc>0.886090</hAcc><vAcc>0.707720</vAcc></extensions></trkpt>
      <trkpt lon="-3.154574" lat="53.010673"><ele>471.594055</ele><time>2021-09-01T11:11:49Z</time><extensions><speed>1.174978</speed><course>323.691345</course><hAcc>0.886072</hAcc><vAcc>0.707677</vAcc></extensions></trkpt>
      <trkpt lon="-3.154584" lat="53.010665"><ele>471.674194</ele><time>2021-09-01T11:11:50Z</time><extensions><speed>1.127108</speed><course>332.829010</course><hAcc>0.886038</hAcc><vAcc>0.707570</vAcc></extensions></trkpt>
      <trkpt lon="-3.154593" lat="53.010657"><ele>471.751404</ele><time>2021-09-01T11:11:51Z</time><extensions><speed>1.073049</speed><course>333.287506</course><hAcc>0.885986</hAcc><vAcc>0.707402</vAcc></extensions></trkpt>
      <trkpt lon="-3.154603" lat="53.010649"><ele>471.825256</ele><time>2021-09-01T11:11:52Z</time><extensions><speed>1.012972</speed><course>320.664337</course><hAcc>0.885916</hAcc><vAcc>0.707176</vAcc></extensions></trkpt>
      <trkpt lon="-3.154611" lat="53.010642"><ele>471.895172</ele><time>2021-09-01T11:11:53Z</time><extensions><speed>0.947293</speed><course>319.581818</course><hAcc>0.885832</hAcc><vAcc>0.706894</vAcc></extensions></trkpt>
      <trkpt lon="-3.154620" lat="53.010635"><ele>471.960388</ele><time>2021-09-01T11:11:54Z</time><extensions><speed>0.876744</speed><course>320.113190</course><hAcc>0.885734</hAcc><vAcc>0.706561</vAcc></extensions></trkpt>
      <trkpt lon="-3.154627" lat="53.010629"><ele>472.019928</ele><time>2021-09-01T11:11:55Z</time><extensions><speed>0.802742</speed><course>325.625488</course><hAcc>0.885628</hAcc><vAcc>0.706183</vAcc></extensions></trkpt>
      <trkpt lon="-3.154635" lat="53.010624"><ele>472.072510</ele><time>2021-09-01T11:11:56Z</time><extensions><speed>0.727230</speed><course>320.008789</course><hAcc>0.885517</hAcc><vAcc>0.705770</vAcc></extensions></trkpt>
      <trkpt lon="-3.154641" lat="53.010619"><ele>472.116486</ele><time>2021-09-01T11:11:57Z</time><extensions><speed>0.652866</speed><course>318.909088</course><hAcc>0.885407</hAcc><vAcc>0.705341</vAcc></extensions></trkpt>
      <trkpt lon="-3.154648" lat="53.010615"><ele>472.150421</ele><time>2021-09-01T11:11:58Z</time><extensions><speed>0.583094</speed><course>323.298828</course><hAcc>0.885303</hAcc><vAcc>0.704926</vAcc></extensions></trkpt>
      <trkpt lon="-3.154654" lat="53.010612"><ele>472.173187</ele><time>2021-09-01T11:11:59Z</time><extensions><speed>0.522178</speed><course>319.843567</course><hAcc>0.885207</hAcc><vAcc>0.704557</vAcc></extensions></trkpt>
      <trkpt lon="-3.154660" lat="53.010609"><ele>472.184021</ele><time>2021-09-01T11:12:00Z</time><extensions><speed>0.475473</speed><course>314.311829</course><hAcc>0.885123</hAcc><vAcc>0.704256</vAcc></extensions></trkpt>
      <trkpt lon="-3.154666" lat="53.010607"><ele>472.182709</ele><time>2021-09-01T11:12:01Z</time><extensions><speed>0.448652</speed><course>319.089264</course><hAcc>0.885051</hAcc><vAcc>0.704034</vAcc></extensions></trkpt>
      <trkpt lon="-3.154672" lat="53.010606"><ele>472.169434</ele><time>2021-09-01T11:12:02Z</time><extensions><speed>0.445853</speed><course>322.114319</course><hAcc>0.884989</hAcc><vAcc>0.703889</vAcc></extensions></trkpt>
      <trkpt lon="-3.154679" lat="53.010605"><ele>472.144653</ele><time>2021-09-01T11:12:03Z</time><extensions><speed>0.467384</speed><course>313.771057</course><hAcc>0.884932</hAcc><vAcc>0.703805</vAcc></extensions></trkpt>
      <trkpt lon="-3.154686" lat="53.010605"><ele>472.109100</ele><time>2021-09-01T11:12:04Z</time><extensions><speed>0.509493</speed><course>306.383820</course><hAcc>0.884876</hAcc><vAcc>0.703757</vAcc></extensions></trkpt>
      <trkpt lon="-3.154694" lat="53.010606"><ele>472.063690</ele><time>2021-09-01T11:12:05Z</time><extensions><speed>0.566104</speed><course>308.594727</course><hAcc>0.884813</hAcc><vAcc>0.703711</vAcc></extensions></trkpt>
      <trkpt lon="-3.154703" lat="53.010607"><ele>472.009277</ele><time>2021-09-01T11:12:06Z</time><extensions><speed>0.631288</speed><course>313.438293</course><hAcc>0.884737</hAcc><vAcc>0.703618</vAcc></extensions></trkpt>
      <trkpt lon="-3.154712" lat="53.010608"><ele>471.946838</ele><time>2021-09-01T11:12:07Z</time><extensions><speed>0.700521</speed><course>315.261749</course><hAcc>0.884643</hAcc><vAcc>0.703433</vAcc></extensions></trkpt>
      <trkpt lon="-3.154723" lat="53.010610"><ele>471.877777</ele><time>2021-09-01T11:12:08Z</time><extensions><speed>0.770335</speed><course>314.962799</course><hAcc>0.884527</hAcc><vAcc>0.703116</vAcc></extensions></trkpt>
      <trkpt lon="-3.154734" lat="53.010613"><ele>471.803833</ele><time>2021-09-01T11:12:09Z</time><extensions><speed>0.837878</speed><course>311.864380</course><hAcc>0.884390</hAcc><vAcc>0.702651</vAcc></extensions></trkpt>
      <trkpt lon="-3.154746" lat="53.010616"><ele>471.726837</ele><time>2021-09-01T11:12:10Z</time><extensions><speed>0.901151</speed><course>305.555115</course><hAcc>0.884234</hAcc><vAcc>0.702048</vAcc></extensions></trkpt>
      <trkpt lon="-3.154758" lat="53.010619"><ele>471.648682</ele><time>2021-09-01T11:12:11Z</time><extensions><speed>0.959053</speed><course>309.414368</course><hAcc>0.884064</hAcc><vAcc>0.701348</vAcc></extensions></trkpt>
      <trkpt lon="-3.154772" lat="53.010623"><ele>471.571136</ele><time>2021-09-01T11:12:12Z</time><extensions><speed>1.010450</speed><course>312.426361</course><hAcc>0.883885</hAcc><vAcc>0.700621</vAcc></extensions></trkpt>
      <trkpt lon="-3.154785" lat="53.010627"><ele>471.495728</ele><time>2021-09-01T11:12:13Z</time><extensions><speed>1.053418</speed><course>315.779877</course><hAcc>0.883705</hAcc><vAcc>0.699932</vAcc></extensions></trkpt>
      <trkpt lon="-3.154799" lat="53.010632"><ele>471.423859</ele><time>2021-09-01T11:12:14Z</time><extensions><speed>1.085505</speed><course>309.393494</course><hAcc>0.883525</hAcc><vAcc>0.699319</vAcc></extensions></trkpt>
      <trkpt lon="-3.154814" lat="53.010637"><ele>471.356903</ele><time>2021-09-01T11:12:15Z</time><extensions><speed>1.106303</speed><course>315.161163</course><hAcc>0.883346</hAcc><vAcc>0.698780</vAcc></extensions></trkpt>
      <trkpt lon="-3.154828" lat="53.010642"><ele>471.295837</ele><time>2021-09-01T11:12:16Z</time><extensions><speed>1.116496</speed><course>313.978088</course><hAcc>0.883165</hAcc><vAcc>0.698287</vAcc></extensions></trkpt>
      <trkpt lon="-3.154842" lat="53.010647"><ele>471.241211</ele><time>2021-09-01T11:12:17Z</time><extensions><speed>1.116414</speed><course>310.683502</course><hAcc>0.882975</hAcc><vAcc>0.697799</vAcc></extensions></trkpt>
      <trkpt lon="-3.154857" lat="53.010652"><ele>471.193176</ele><time>2021-09-01T11:12:18Z</time><extensions><speed>1.107537</speed><course>311.301880</course><hAcc>0.882772</hAcc><vAcc>0.697271</vAcc></extensions></trkpt>
      <trkpt lon="-3.154870" lat="53.010657"><ele>471.151703</ele><time>2021-09-01T11:12:19Z</time><extensions><speed>1.092167</speed><course>311.208435</course><hAcc>0.882549</hAcc><vAcc>0.696666</vAcc></extensions></trkpt>
      <trkpt lon="-3.154884" lat="53.010662"><ele>471.116455</ele><time>2021-09-01T11:12:20Z</time><extensions><speed>1.072368</speed><course>309.569458</course><hAcc>0.882302</hAcc><vAcc>0.695952</vAcc></extensions></trkpt>
      <trkpt lon="-3.154897" lat="53.010667"><ele>471.086456</ele><time>2021-09-01T11:12:21Z</time><extensions><speed>1.050237</speed><course>310.187012</course><hAcc>0.882029</hAcc><vAcc>0.695110</vAcc></extensions></trkpt>
      <trkpt lon="-3.154910" lat="53.010672"><ele>471.060211</ele><time>2021-09-01T11:12:22Z</time><extensions><speed>1.028585</speed><course>310.459808</course><hAcc>0.881733</hAcc><vAcc>0.694137</vAcc></extensions></trkpt>
      <trkpt lon="-3.154923" lat="53.010678"><ele>471.035980</ele><time>2021-09-01T11:12:23Z</time><extensions><speed>1.010478</speed><course>310.191071</course><hAcc>0.881417</hAcc><vAcc>0.693054</vAcc></extensions></trkpt>
      <trkpt lon="-3.154936" lat="53.010683"><ele>471.012115</ele><time>2021-09-01T11:12:24Z</time><extensions><speed>0.998868</speed><course>313.202332</course><hAcc>0.881092</hAcc><vAcc>0.691902</vAcc></extensions></trkpt>
      <trkpt lon="-3.154948" lat="53.010687"><ele>470.986786</ele><time>2021-09-01T11:12:25Z</time><extensions><speed>0.996618</speed><course>317.375305</course><hAcc>0.880770</hAcc><vAcc>0.690735</vAcc></extensions></trkpt>
      <trkpt lon="-3.154960" lat="53.010692"><ele>470.958221</ele><time>2021-09-01T11:12:26Z</time><extensions><speed>1.005799</speed><course>320.965942</course><hAcc>0.880464</hAcc><vAcc>0.689621</vAcc></extensions></trkpt>
      <trkpt lon="-3.154973" lat="53.010697"><ele>470.924988</ele><time>2021-09-01T11:12:27Z</time><extensions><speed>1.026307</speed><course>318.335114</course><hAcc>0.880188</hAcc><vAcc>0.688628</vAcc></extensions></trkpt>
      <trkpt lon="-3.154986" lat="53.010702"><ele>470.886200</ele><time>2021-09-01T11:12:28Z</time><extensions><speed>1.055912</speed><course>322.780487</course><hAcc>0.879952</hAcc><vAcc>0.687814</vAcc></extensions></trkpt>
      <trkpt lon="-3.155000" lat="53.010707"><ele>470.841431</ele><time>2021-09-01T11:12:29Z</time><extensions><speed>1.091830</speed><course>321.324005</course><hAcc>0.879764</hAcc><vAcc>0.687206</vAcc></extensions></trkpt>
      <trkpt lon="-3.155014" lat="53.010713"><ele>470.790436</ele><time>2021-09-01T11:12:30Z</time><extensions><speed>1.131636</speed><course>322.516296</course><hAcc>0.879626</hAcc><vAcc>0.686802</vAcc></extensions></trkpt>
      <trkpt lon="-3.155029" lat="53.010718"><ele>470.732971</ele><time>2021-09-01T11:12:31Z</time><extensions><speed>1.172741</speed><course>319.995483</course><hAcc>0.879535</hAcc><vAcc>0.686581</vAcc></extensions></trkpt>
      <trkpt lon="-3.155044" lat="53.010723"><ele>470.668549</ele><time>2021-09-01T11:12:32Z</time><extensions><speed>1.212540</speed><course>324.182892</course><hAcc>0.879487</hAcc><vAcc>0.686508</vAcc></extensions></trkpt>
      <trkpt lon="-3.155060" lat="53.010728"><ele>470.596710</ele><time>2021-09-01T11:12:33Z</time><extensions><speed>1.249388</speed><course>328.616821</course><hAcc>0.879475</hAcc><vAcc>0.686543</vAcc></extensions></trkpt>
      <trkpt lon="-3.155077" lat="53.010734"><ele>470.517670</ele><time>2021-09-01T11:12:34Z</time><extensions><speed>1.282531</speed><course>324.016815</course><hAcc>0.879496</hAcc><vAcc>0.686648</vAcc></extensions></trkpt>
      <trkpt lon="-3.155094" lat="53.010739"><ele>470.431976</ele><time>2021-09-01T11:12:35Z</time><extensions><speed>1.311322</speed><course>329.825897</course><hAcc>0.879543</hAcc><vAcc>0.686800</vAcc></extensions></trkpt>
      <trkpt lon="-3.155112" lat="53.010745"><ele>470.340057</ele><time>2021-09-01T11:12:36Z</time><extensions><speed>1.335248</speed><course>327.868408</course><hAcc>0.879616</hAcc><vAcc>0.686997</vAcc></extensions></trkpt>
      <trkpt lon="-3.155129" lat="53.010750"><ele>470.242584</ele><time>2021-09-01T11:12:37Z</time><extensions><speed>1.354026</speed><course>336.001526</course><hAcc>0.879716</hAcc><vAcc>0.687256</vAcc></extensions></trkpt>
      <trkpt lon="-3.155147" lat="53.010756"><ele>470.140503</ele><time>2021-09-01T11:12:38Z</time><extensions><speed>1.367518</speed><course>319.189575</course><hAcc>0.879845</hAcc><vAcc>0.687612</vAcc></extensions></trkpt>
      <trkpt lon="-3.155166" lat="53.010761"><ele>470.035126</ele><time>2021-09-01T11:12:39Z</time><extensions><speed>1.375714</speed><course>314.045624</course><hAcc>0.880007</hAcc><vAcc>0.688098</vAcc></extensions></trkpt>
      <trkpt lon="-3.155184" lat="53.010767"><ele>469.927673</ele><time>2021-09-01T11:12:40Z</time><extensions><speed>1.378876</speed><course>316.798950</course><hAcc>0.880201</hAcc><vAcc>0.688728</vAcc></extensions></trkpt>
      <trkpt lon="-3.155202" lat="53.010772"><ele>469.819305</ele><time>2021-09-01T11:12:41Z</time><extensions><speed>1.377245</speed><course>316.381958</course><hAcc>0.880424</hAcc><vAcc>0.689489</vAcc></extensions></trkpt>
      <trkpt lon="-3.155221" lat="53.010778"><ele>469.710938</ele><time>2021-09-01T11:12:42Z</time><extensions><speed>1.371393</speed><course>324.109985</course><hAcc>0.880669</hAcc><vAcc>0.690346</vAcc></extensions></trkpt>
      <trkpt lon="-3.155239" lat="53.010784"><ele>469.603210</ele><time>2021-09-01T11:12:43Z</time><extensions><speed>1.361961</speed><course>319.248718</course><hAcc>0.880925</hAcc><vAcc>0.691251</vAcc></extensions></trkpt>
      <trkpt lon="-3.155257" lat="53.010789"><ele>469.496735</ele><time>2021-09-01T11:12:44Z</time><extensions><speed>1.349402</speed><course>322.755310</course><hAcc>0.881185</hAcc><vAcc>0.692162</vAcc></extensions></trkpt>
      <trkpt lon="-3.155275" lat="53.010794"><ele>469.392456</ele><time>2021-09-01T11:12:45Z</time><extensions><speed>1.334691</speed><course>326.625031</course><hAcc>0.881437</hAcc><vAcc>0.693037</vAcc></extensions></trkpt>
      <trkpt lon="-3.155293" lat="53.010800"><ele>469.291870</ele><time>2021-09-01T11:12:46Z</time><extensions><speed>1.318966</speed><course>328.024994</course><hAcc>0.881674</hAcc><vAcc>0.693841</vAcc></extensions></trkpt>
      <trkpt lon="-3.155310" lat="53.010805"><ele>469.195953</ele><time>2021-09-01T11:12:47Z</time><extensions><speed>1.302765</speed><course>332.378082</course><hAcc>0.881888</hAcc><vAcc>0.694547</vAcc></extensions></trkpt>
      <trkpt lon="-3.155327" lat="53.010810"><ele>469.104767</ele><time>2021-09-01T11:12:48Z</time><extensions><speed>1.286409</speed><course>332.526154</course><hAcc>0.882075</hAcc><vAcc>0.695136</vAcc></extensions></trkpt>
      <trkpt lon="-3.155344" lat="53.010815"><ele>469.017517</ele><time>2021-09-01T11:12:49Z</time><extensions><speed>1.270713</speed><course>335.486633</course><hAcc>0.882232</hAcc><vAcc>0.695604</vAcc></extensions></trkpt>
      <trkpt lon="-3.155361" lat="53.010820"><ele>468.933624</ele><time>2021-09-01T11:12:50Z</time><extensions><speed>1.256354</speed><course>336.016846</course><hAcc>0.882359</hAcc><vAcc>0.695957</vAcc></extensions></trkpt>
      <trkpt lon="-3.155378" lat="53.010825"><ele>468.852448</ele><time>2021-09-01T11:12:51Z</time><extensions><speed>1.244103</speed><course>334.888000</course><hAcc>0.882456</hAcc><vAcc>0.696211</vAcc></extensions></trkpt>
      <trkpt lon="-3.155395" lat="53.010830"><ele>468.773254</ele><time>2021-09-01T11:12:52Z</time><extensions><speed>1.234653</speed><course>333.393311</course><hAcc>0.882528</hAcc><vAcc>0.696382</vAcc></extensions></trkpt>
      <trkpt lon="-3.155411" lat="53.010835"><ele>468.695343</ele><time>2021-09-01T11:12:53Z</time><extensions><speed>1.228681</speed><course>318.935883</course><hAcc>0.882578</hAcc><vAcc>0.696488</vAcc></extensions></trkpt>
      <trkpt lon="-3.155428" lat="53.010840"><ele>468.618408</ele><time>2021-09-01T11:12:54Z</time><extensions><speed>1.227038</speed><course>311.891724</course><hAcc>0.882610</hAcc><vAcc>0.696541</vAcc></extensions></trkpt>
      <trkpt lon="-3.155444" lat="53.010845"><ele>468.542297</ele><time>2021-09-01T11:12:55Z</time><extensions><speed>1.229990</speed><course>312.578461</course><hAcc>0.882630</hAcc><vAcc>0.696555</vAcc></extensions></trkpt>
      <trkpt lon="-3.155460" lat="53.010850"><ele>468.467072</ele><time>2021-09-01T11:12:56Z</time><extensions><speed>1.237404</speed><course>320.602325</course><hAcc>0.882641</hAcc><vAcc>0.696545</vAcc></extensions></trkpt>
      <trkpt lon="-3.155477" lat="53.010855"><ele>468.392395</ele><time>2021-09-01T11:12:57Z</time><extensions><speed>1.248517</speed><course>323.639648</course><hAcc>0.882649</hAcc><vAcc>0.696530</vAcc></extensions></trkpt>
      <trkpt lon="-3.155493" lat="53.010860"><ele>468.317230</ele><time>2021-09-01T11:12:58Z</time><extensions><speed>1.262094</speed><course>325.641083</course><hAcc>0.882660</hAcc><vAcc>0.696529</vAcc></extensions></trkpt>
      <trkpt lon="-3.155510" lat="53.010866"><ele>468.240173</ele><time>2021-09-01T11:12:59Z</time><extensions><speed>1.276415</speed><course>324.286163</course><hAcc>0.882680</hAcc><vAcc>0.696561</vAcc></extensions></trkpt>
      <trkpt lon="-3.155527" lat="53.010871"><ele>468.159729</ele><time>2021-09-01T11:13:00Z</time><extensions><speed>1.289596</speed><course>330.884674</course><hAcc>0.882717</hAcc><vAcc>0.696641</vAcc></extensions></trkpt>
      <trkpt lon="-3.155543" lat="53.010877"><ele>468.074646</ele><time>2021-09-01T11:13:01Z</time><extensions><speed>1.299983</speed><course>342.591980</course><hAcc>0.882780</hAcc><vAcc>0.696784</vAcc></extensions></trkpt>
      <trkpt lon="-3.155560" lat="53.010882"><ele>467.984314</ele><time>2021-09-01T11:13:02Z</time><extensions><speed>1.306628</speed><course>340.473694</course><hAcc>0.882882</hAcc><vAcc>0.697005</vAcc></extensions></trkpt>
      <trkpt lon="-3.155577" lat="53.010888"><ele>467.888580</ele><time>2021-09-01T11:13:03Z</time><extensions><speed>1.309295</speed><course>337.459930</course><hAcc>0.883038</hAcc><vAcc>0.697315</vAcc></extensions></trkpt>
      <trkpt lon="-3.155594" lat="53.010894"><ele>467.787537</ele><time>2021-09-01T11:13:04Z</time><extensions><speed>1.307664</speed><course>334.977905</course><hAcc>0.883271</hAcc><vAcc>0.697727</vAcc></extensions></trkpt>
      <trkpt lon="-3.155611" lat="53.010900"><ele>467.681091</ele><time>2021-09-01T11:13:05Z</time><extensions><speed>1.301599</speed><course>334.909821</course><hAcc>0.883607</hAcc><vAcc>0.698261</vAcc></extensions></trkpt>
      <trkpt lon="-3.155628" lat="53.010906"><ele>467.569458</ele><time>2021-09-01T11:13:06Z</time><extensions><speed>1.291233</speed><course>335.401093</course><hAcc>0.884079</hAcc><vAcc>0.698935</vAcc></extensions></trkpt>
      <trkpt lon="-3.155644" lat="53.010912"><ele>467.453308</ele><time>2021-09-01T11:13:07Z</time><extensions><speed>1.277004</speed><course>335.416534</course><hAcc>0.884726</hAcc><vAcc>0.699767</vAcc></extensions></trkpt>
      <trkpt lon="-3.155660" lat="53.010918"><ele>467.333252</ele><time>2021-09-01T11:13:08Z</time><extensions><speed>1.259860</speed><course>333.502777</course><hAcc>0.885586</hAcc><vAcc>0.700770</vAcc></extensions></trkpt>
      <trkpt lon="-3.155676" lat="53.010923"><ele>467.209595</ele><time>2021-09-01T11:13:09Z</time><extensions><speed>1.241324</speed><course>334.704010</course><hAcc>0.886696</hAcc><vAcc>0.701948</vAcc></extensions></trkpt>
      <trkpt lon="-3.155692" lat="53.010929"><ele>467.082336</ele><time>2021-09-01T11:13:10Z</time><extensions><speed>1.222927</speed><course>336.400421</course><hAcc>0.888080</hAcc><vAcc>0.703287</vAcc></extensions></trkpt>
      <trkpt lon="-3.155708" lat="53.010934"><ele>466.951538</ele><time>2021-09-01T11:13:11Z</time><extensions><speed>1.205901</speed><course>347.265839</course><hAcc>0.889741</hAcc><vAcc>0.704749</vAcc></extensions></trkpt>
      <trkpt lon="-3.155723" lat="53.010940"><ele>466.817169</ele><time>2021-09-01T11:13:12Z</time><extensions><speed>1.191262</speed><course>344.062927</course><hAcc>0.891649</hAcc><vAcc>0.706264</vAcc></extensions></trkpt>
      <trkpt lon="-3.155738" lat="53.010945"><ele>466.679047</ele><time>2021-09-01T11:13:13Z</time><extensions><speed>1.179326</speed><course>337.032654</course><hAcc>0.893728</hAcc><vAcc>0.707734</vAcc></extensions></trkpt>
      <trkpt lon="-3.155754" lat="53.010951"><ele>466.536804</ele><time>2021-09-01T11:13:14Z</time><extensions><speed>1.169915</speed><course>338.548584</course><hAcc>0.895852</hAcc><vAcc>0.709037</vAcc></extensions></trkpt>
      <trkpt lon="-3.155769" lat="53.010956"><ele>466.390167</ele><time>2021-09-01T11:13:15Z</time><extensions><speed>1.162642</speed><course>340.790558</course><hAcc>0.897842</hAcc><vAcc>0.710041</vAcc></extensions></trkpt>
      <trkpt lon="-3.155784" lat="53.010961"><ele>466.239532</ele><time>2021-09-01T11:13:16Z</time><extensions><speed>1.156822</speed><course>331.528198</course><hAcc>0.899491</hAcc><vAcc>0.710630</vAcc></extensions></trkpt>
      <trkpt lon="-3.155799" lat="53.010966"><ele>466.085785</ele><time>2021-09-01T11:13:17Z</time><extensions><speed>1.151986</speed><course>326.705475</course><hAcc>0.900615</hAcc><vAcc>0.710763</vAcc></extensions></trkpt>
      <trkpt lon="-3.155814" lat="53.010970"><ele>465.930115</ele><time>2021-09-01T11:13:18Z</time><extensions><speed>1.148299</speed><course>334.332062</course><hAcc>0.901155</hAcc><vAcc>0.710567</vAcc></extensions></trkpt>
      <trkpt lon="-3.155830" lat="53.010975"><ele>465.773743</ele><time>2021-09-01T11:13:19Z</time><extensions><speed>1.146183</speed><course>321.684448</course><hAcc>0.901340</hAcc><vAcc>0.710476</vAcc></extensions></trkpt>
      <trkpt lon="-3.155845" lat="53.010979"><ele>465.617828</ele><time>2021-09-01T11:13:20Z</time><extensions><speed>1.145884</speed><course>319.446838</course><hAcc>0.901956</hAcc><vAcc>0.711431</vAcc></extensions></trkpt>
      <trkpt lon="-3.155861" lat="53.010983"><ele>465.463226</ele><time>2021-09-01T11:13:21Z</time><extensions><speed>1.147235</speed><course>327.299927</course><hAcc>0.904700</hAcc><vAcc>0.715119</vAcc></extensions></trkpt>
      <trkpt lon="-3.155877" lat="53.010987"><ele>465.310486</ele><time>2021-09-01T11:13:22Z</time><extensions><speed>1.149390</speed><course>327.362518</course><hAcc>0.912634</hAcc><vAcc>0.724236</vAcc></extensions></trkpt>
      <trkpt lon="-3.155893" lat="53.010991"><ele>465.159851</ele><time>2021-09-01T11:13:23Z</time><extensions><speed>1.150823</speed><course>320.449799</course><hAcc>0.930605</hAcc><vAcc>0.742642</vAcc></extensions></trkpt>
      <trkpt lon="-3.155909" lat="53.010994"><ele>465.011505</ele><time>2021-09-01T11:13:24Z</time><extensions><speed>1.150518</speed><course>323.666901</course><hAcc>0.965378</hAcc><vAcc>0.775243</vAcc></extensions></trkpt>
      <trkpt lon="-3.155926" lat="53.010989"><ele>464.888245</ele><time>2021-09-01T11:13:25Z</time><extensions><speed>1.069488</speed><course>-1.000000</course><hAcc>0.927956</hAcc><vAcc>0.742047</vAcc></extensions></trkpt>
      <trkpt lon="-3.155940" lat="53.010986"><ele>464.870087</ele><time>2021-09-01T11:13:26Z</time><extensions><speed>1.055988</speed><course>-1.000000</course><hAcc>0.909785</hAcc><vAcc>0.724275</vAcc></extensions></trkpt>
      <trkpt lon="-3.155955" lat="53.010981"><ele>464.865479</ele><time>2021-09-01T11:13:27Z</time><extensions><speed>1.040706</speed><course>-1.000000</course><hAcc>0.902773</hAcc><vAcc>0.716574</vAcc></extensions></trkpt>
      <trkpt lon="-3.155968" lat="53.010977"><ele>464.875366</ele><time>2021-09-01T11:13:28Z</time><extensions><speed>1.024028</speed><course>-1.000000</course><hAcc>0.901382</hAcc><vAcc>0.714607</vAcc></extensions></trkpt>
      <trkpt lon="-3.155981" lat="53.010972"><ele>464.899872</ele><time>2021-09-01T11:13:29Z</time><extensions><speed>1.006239</speed><course>-1.000000</course><hAcc>0.902125</hAcc><vAcc>0.715357</vAcc></extensions></trkpt>
      <trkpt lon="-3.155992" lat="53.010966"><ele>464.938385</ele><time>2021-09-01T11:13:30Z</time><extensions><speed>0.987101</speed><course>-1.000000</course><hAcc>0.903088</hAcc><vAcc>0.716953</vAcc></extensions></trkpt>
      <trkpt lon="-3.156003" lat="53.010961"><ele>464.989746</ele><time>2021-09-01T11:13:31Z</time><extensions><speed>0.966740</speed><course>-1.000000</course><hAcc>0.903414</hAcc><vAcc>0.718377</vAcc></extensions></trkpt>
      <trkpt lon="-3.156013" lat="53.010955"><ele>465.052338</ele><time>2021-09-01T11:13:32Z</time><extensions><speed>0.945954</speed><course>-1.000000</course><hAcc>0.902877</hAcc><vAcc>0.719186</vAcc></extensions></trkpt>
      <trkpt lon="-3.156023" lat="53.010948"><ele>465.124512</ele><time>2021-09-01T11:13:33Z</time><extensions><speed>0.924838</speed><course>-1.000000</course><hAcc>0.901582</hAcc><vAcc>0.719297</vAcc></extensions></trkpt>
      <trkpt lon="-3.156031" lat="53.010942"><ele>465.204559</ele><time>2021-09-01T11:13:34Z</time><extensions><speed>0.902189</speed><course>184.559082</course><hAcc>0.899774</hAcc><vAcc>0.718814</vAcc></extensions></trkpt>
      <trkpt lon="-3.156039" lat="53.010936"><ele>465.290649</ele><time>2021-09-01T11:13:35Z</time><extensions><speed>0.875986</speed><course>-1.000000</course><hAcc>0.897717</hAcc><vAcc>0.717923</vAcc></extensions></trkpt>
      <trkpt lon="-3.156046" lat="53.010929"><ele>465.380890</ele><time>2021-09-01T11:13:35Z</time><extensions><speed>0.845013</speed><course>-1.000000</course><hAcc>0.895662</hAcc><vAcc>0.716834</vAcc></extensions></trkpt>
      <trkpt lon="-3.156053" lat="53.010923"><ele>465.473633</ele><time>2021-09-01T11:13:36Z</time><extensions><speed>0.808130</speed><course>-1.000000</course><hAcc>0.893770</hAcc><vAcc>0.715715</vAcc></extensions></trkpt>
      <trkpt lon="-3.156059" lat="53.010917"><ele>465.567230</ele><time>2021-09-01T11:13:37Z</time><extensions><speed>0.764126</speed><course>-1.000000</course><hAcc>0.892129</hAcc><vAcc>0.714681</vAcc></extensions></trkpt>
      <trkpt lon="-3.156064" lat="53.010911"><ele>465.660156</ele><time>2021-09-01T11:13:38Z</time><extensions><speed>0.712563</speed><course>53.307610</course><hAcc>0.890786</hAcc><vAcc>0.713811</vAcc></extensions></trkpt>
      <trkpt lon="-3.156068" lat="53.010905"><ele>465.751282</ele><time>2021-09-01T11:13:40Z</time><extensions><speed>0.654026</speed><course>-1.000000</course><hAcc>0.889726</hAcc><vAcc>0.713133</vAcc></extensions></trkpt>
      <trkpt lon="-3.156072" lat="53.010900"><ele>465.839233</ele><time>2021-09-01T11:13:41Z</time><extensions><speed>0.590297</speed><course>-1.000000</course><hAcc>0.888926</hAcc><vAcc>0.712656</vAcc></extensions></trkpt>
      <trkpt lon="-3.156075" lat="53.010896"><ele>465.922852</ele><time>2021-09-01T11:13:41Z</time><extensions><speed>0.524101</speed><course>-1.000000</course><hAcc>0.888381</hAcc><vAcc>0.712388</vAcc></extensions></trkpt>
      <trkpt lon="-3.156078" lat="53.010891"><ele>466.000763</ele><time>2021-09-01T11:13:42Z</time><extensions><speed>0.458692</speed><course>120.394302</course><hAcc>0.888043</hAcc><vAcc>0.712298</vAcc></extensions></trkpt>
      <trkpt lon="-3.156079" lat="53.010888"><ele>466.071289</ele><time>2021-09-01T11:13:43Z</time><extensions><speed>0.397069</speed><course>-1.000000</course><hAcc>0.887848</hAcc><vAcc>0.712335</vAcc></extensions></trkpt>
      <trkpt lon="-3.156080" lat="53.010884"><ele>466.132965</ele><time>2021-09-01T11:13:44Z</time><extensions><speed>0.341115</speed><course>-1.000000</course><hAcc>0.887756</hAcc><vAcc>0.712461</vAcc></extensions></trkpt>
      <trkpt lon="-3.156080" lat="53.010882"><ele>466.185364</ele><time>2021-09-01T11:13:45Z</time><extensions><speed>0.291938</speed><course>-1.000000</course><hAcc>0.887734</hAcc><vAcc>0.712640</vAcc></extensions></trkpt>
      <trkpt lon="-3.156080" lat="53.010879"><ele>466.228577</ele><time>2021-09-01T11:13:46Z</time><extensions><speed>0.250289</speed><course>-1.000000</course><hAcc>0.887753</hAcc><vAcc>0.712844</vAcc></extensions></trkpt>
      <trkpt lon="-3.156080" lat="53.010877"><ele>466.263275</ele><time>2021-09-01T11:13:47Z</time><extensions><speed>0.216325</speed><course>-1.000000</course><hAcc>0.887794</hAcc><vAcc>0.713043</vAcc></extensions></trkpt>
      <trkpt lon="-3.156079" lat="53.010875"><ele>466.290283</ele><time>2021-09-01T11:13:48Z</time><extensions><speed>0.189447</speed><course>-1.000000</course><hAcc>0.887843</hAcc><vAcc>0.713214</vAcc></extensions></trkpt>
      <trkpt lon="-3.156078" lat="53.010874"><ele>466.310394</ele><time>2021-09-01T11:13:49Z</time><extensions><speed>0.168642</speed><course>-1.000000</course><hAcc>0.887890</hAcc><vAcc>0.713343</vAcc></extensions></trkpt>
      <trkpt lon="-3.156077" lat="53.010873"><ele>466.324646</ele><time>2021-09-01T11:13:50Z</time><extensions><speed>0.152895</speed><course>-1.000000</course><hAcc>0.887930</hAcc><vAcc>0.713428</vAcc></extensions></trkpt>
      <trkpt lon="-3.156076" lat="53.010872"><ele>466.334167</ele><time>2021-09-01T11:13:51Z</time><extensions><speed>0.141133</speed><course>-1.000000</course><hAcc>0.887958</hAcc><vAcc>0.713477</vAcc></extensions></trkpt>
      <trkpt lon="-3.156074" lat="53.010871"><ele>466.340088</ele><time>2021-09-01T11:13:52Z</time><extensions><speed>0.132380</speed><course>-1.000000</course><hAcc>0.887970</hAcc><vAcc>0.713497</vAcc></extensions></trkpt>
      <trkpt lon="-3.156073" lat="53.010870"><ele>466.343536</ele><time>2021-09-01T11:13:53Z</time><extensions><speed>0.126379</speed><course>-1.000000</course><hAcc>0.887963</hAcc><vAcc>0.713489</vAcc></extensions></trkpt>
      <trkpt lon="-3.156072" lat="53.010869"><ele>466.345703</ele><time>2021-09-01T11:13:54Z</time><extensions><speed>0.123655</speed><course>-1.000000</course><hAcc>0.887934</hAcc><vAcc>0.713448</vAcc></extensions></trkpt>
      <trkpt lon="-3.156071" lat="53.010868"><ele>466.347778</ele><time>2021-09-01T11:13:55Z</time><extensions><speed>0.125626</speed><course>-1.000000</course><hAcc>0.887879</hAcc><vAcc>0.713361</vAcc></extensions></trkpt>
      <trkpt lon="-3.156071" lat="53.010867"><ele>466.351044</ele><time>2021-09-01T11:13:56Z</time><extensions><speed>0.134500</speed><course>-1.000000</course><hAcc>0.887793</hAcc><vAcc>0.713204</vAcc></extensions></trkpt>
      <trkpt lon="-3.156070" lat="53.010865"><ele>466.356781</ele><time>2021-09-01T11:13:57Z</time><extensions><speed>0.152426</speed><course>-1.000000</course><hAcc>0.887671</hAcc><vAcc>0.712946</vAcc></extensions></trkpt>
      <trkpt lon="-3.156070" lat="53.010864"><ele>466.366150</ele><time>2021-09-01T11:13:58Z</time><extensions><speed>0.180533</speed><course>-1.000000</course><hAcc>0.887510</hAcc><vAcc>0.712558</vAcc></extensions></trkpt>
      <trkpt lon="-3.156071" lat="53.010862"><ele>466.380249</ele><time>2021-09-01T11:13:59Z</time><extensions><speed>0.218549</speed><course>-1.000000</course><hAcc>0.887306</hAcc><vAcc>0.712016</vAcc></extensions></trkpt>
      <trkpt lon="-3.156072" lat="53.010860"><ele>466.399902</ele><time>2021-09-01T11:14:00Z</time><extensions><speed>0.265165</speed><course>-1.000000</course><hAcc>0.887059</hAcc><vAcc>0.711303</vAcc></extensions></trkpt>
      <trkpt lon="-3.156073" lat="53.010858"><ele>466.425751</ele><time>2021-09-01T11:14:01Z</time><extensions><speed>0.318473</speed><course>-1.000000</course><hAcc>0.886769</hAcc><vAcc>0.710409</vAcc></extensions></trkpt>
      <trkpt lon="-3.156075" lat="53.010855"><ele>466.458038</ele><time>2021-09-01T11:14:02Z</time><extensions><speed>0.376280</speed><course>116.725777</course><hAcc>0.886444</hAcc><vAcc>0.709341</vAcc></extensions></trkpt>
      <trkpt lon="-3.156078" lat="53.010851"><ele>466.496735</ele><time>2021-09-01T11:14:03Z</time><extensions><speed>0.436245</speed><course>116.725777</course><hAcc>0.886092</hAcc><vAcc>0.708115</vAcc></extensions></trkpt>
      <trkpt lon="-3.156081" lat="53.010848"><ele>466.541565</ele><time>2021-09-01T11:14:04Z</time><extensions><speed>0.496137</speed><course>116.725777</course><hAcc>0.885727</hAcc><vAcc>0.706774</vAcc></extensions></trkpt>
      <trkpt lon="-3.156085" lat="53.010844"><ele>466.592010</ele><time>2021-09-01T11:14:05Z</time><extensions><speed>0.554155</speed><course>116.725777</course><hAcc>0.885364</hAcc><vAcc>0.705390</vAcc></extensions></trkpt>
      <trkpt lon="-3.156089" lat="53.010839"><ele>466.647369</ele><time>2021-09-01T11:14:06Z</time><extensions><speed>0.609331</speed><course>116.725777</course><hAcc>0.885018</hAcc><vAcc>0.704059</vAcc></extensions></trkpt>
      <trkpt lon="-3.156094" lat="53.010834"><ele>466.706635</ele><time>2021-09-01T11:14:07Z</time><extensions><speed>0.661647</speed><course>116.725784</course><hAcc>0.884705</hAcc><vAcc>0.702874</vAcc></extensions></trkpt>
      <trkpt lon="-3.156099" lat="53.010829"><ele>466.768494</ele><time>2021-09-01T11:14:08Z</time><extensions><speed>0.711317</speed><course>116.725784</course><hAcc>0.884437</hAcc><vAcc>0.701900</vAcc></extensions></trkpt>
      <trkpt lon="-3.156104" lat="53.010823"><ele>466.830994</ele><time>2021-09-01T11:14:09Z</time><extensions><speed>0.759273</speed><course>116.725784</course><hAcc>0.884223</hAcc><vAcc>0.701172</vAcc></extensions></trkpt>
      <trkpt lon="-3.156110" lat="53.010817"><ele>466.892731</ele><time>2021-09-01T11:14:10Z</time><extensions><speed>0.807066</speed><course>116.725784</course><hAcc>0.884071</hAcc><vAcc>0.700697</vAcc></extensions></trkpt>
      <trkpt lon="-3.156116" lat="53.010810"><ele>466.953369</ele><time>2021-09-01T11:14:11Z</time><extensions><speed>0.855721</speed><course>116.725784</course><hAcc>0.883982</hAcc><vAcc>0.700453</vAcc></extensions></trkpt>
      <trkpt lon="-3.156122" lat="53.010803"><ele>467.013245</ele><time>2021-09-01T11:14:12Z</time><extensions><speed>0.905471</speed><course>116.725784</course><hAcc>0.883956</hAcc><vAcc>0.700408</vAcc></extensions></trkpt>
      <trkpt lon="-3.156129" lat="53.010796"><ele>467.073029</ele><time>2021-09-01T11:14:13Z</time><extensions><speed>0.956683</speed><course>116.725784</course><hAcc>0.883991</hAcc><vAcc>0.700539</vAcc></extensions></trkpt>
      <trkpt lon="-3.156136" lat="53.010788"><ele>467.133087</ele><time>2021-09-01T11:14:14Z</time><extensions><speed>1.009547</speed><course>116.725784</course><hAcc>0.884084</hAcc><vAcc>0.700844</vAcc></extensions></trkpt>
      <trkpt lon="-3.156144" lat="53.010780"><ele>467.193115</ele><time>2021-09-01T11:14:15Z</time><extensions><speed>1.062624</speed><course>116.725784</course><hAcc>0.884231</hAcc><vAcc>0.701327</vAcc></extensions></trkpt>
      <trkpt lon="-3.156152" lat="53.010772"><ele>467.252380</ele><time>2021-09-01T11:14:16Z</time><extensions><speed>1.113448</speed><course>116.725784</course><hAcc>0.884425</hAcc><vAcc>0.701985</vAcc></extensions></trkpt>
      <trkpt lon="-3.156161" lat="53.010763"><ele>467.310333</ele><time>2021-09-01T11:14:17Z</time><extensions><speed>1.159736</speed><course>116.725784</course><hAcc>0.884659</hAcc><vAcc>0.702795</vAcc></extensions></trkpt>
      <trkpt lon="-3.156170" lat="53.010754"><ele>467.366455</ele><time>2021-09-01T11:14:18Z</time><extensions><speed>1.200582</speed><course>116.725784</course><hAcc>0.884925</hAcc><vAcc>0.703724</vAcc></extensions></trkpt>
      <trkpt lon="-3.156179" lat="53.010744"><ele>467.420471</ele><time>2021-09-01T11:14:19Z</time><extensions><speed>1.236151</speed><course>116.725784</course><hAcc>0.885212</hAcc><vAcc>0.704734</vAcc></extensions></trkpt>
      <trkpt lon="-3.156188" lat="53.010735"><ele>467.472107</ele><time>2021-09-01T11:14:20Z</time><extensions><speed>1.266811</speed><course>116.725784</course><hAcc>0.885511</hAcc><vAcc>0.705784</vAcc></extensions></trkpt>
      <trkpt lon="-3.156198" lat="53.010725"><ele>467.521515</ele><time>2021-09-01T11:14:21Z</time><extensions><speed>1.292949</speed><course>116.725784</course><hAcc>0.885812</hAcc><vAcc>0.706835</vAcc></extensions></trkpt>
      <trkpt lon="-3.156208" lat="53.010715"><ele>467.569214</ele><time>2021-09-01T11:14:22Z</time><extensions><speed>1.315004</speed><course>116.725784</course><hAcc>0.886107</hAcc><vAcc>0.707850</vAcc></extensions></trkpt>
      <trkpt lon="-3.156218" lat="53.010705"><ele>467.615997</ele><time>2021-09-01T11:14:23Z</time><extensions><speed>1.333927</speed><course>116.725784</course><hAcc>0.886386</hAcc><vAcc>0.708799</vAcc></extensions></trkpt>
      <trkpt lon="-3.156229" lat="53.010694"><ele>467.662933</ele><time>2021-09-01T11:14:24Z</time><extensions><speed>1.350433</speed><course>116.725777</course><hAcc>0.886643</hAcc><vAcc>0.709657</vAcc></extensions></trkpt>
      <trkpt lon="-3.156239" lat="53.010684"><ele>467.711304</ele><time>2021-09-01T11:14:25Z</time><extensions><speed>1.364374</speed><course>116.725769</course><hAcc>0.886874</hAcc><vAcc>0.710405</vAcc></extensions></trkpt>
      <trkpt lon="-3.156249" lat="53.010673"><ele>467.762115</ele><time>2021-09-01T11:14:26Z</time><extensions><speed>1.375567</speed><course>116.725769</course><hAcc>0.887075</hAcc><vAcc>0.711035</vAcc></extensions></trkpt>
      <trkpt lon="-3.156260" lat="53.010662"><ele>467.816071</ele><time>2021-09-01T11:14:27Z</time><extensions><speed>1.384106</speed><course>116.725761</course><hAcc>0.887244</hAcc><vAcc>0.711546</vAcc></extensions></trkpt>
      <trkpt lon="-3.156270" lat="53.010652"><ele>467.873596</ele><time>2021-09-01T11:14:28Z</time><extensions><speed>1.390000</speed><course>116.725754</course><hAcc>0.887380</hAcc><vAcc>0.711942</vAcc></extensions></trkpt>
      <trkpt lon="-3.156280" lat="53.010641"><ele>467.934906</ele><time>2021-09-01T11:14:29Z</time><extensions><speed>1.393244</speed><course>116.725746</course><hAcc>0.887484</hAcc><vAcc>0.712233</vAcc></extensions></trkpt>
      <trkpt lon="-3.156291" lat="53.010630"><ele>468.000183</ele><time>2021-09-01T11:14:30Z</time><extensions><speed>1.394078</speed><course>116.725746</course><hAcc>0.887559</hAcc><vAcc>0.712432</vAcc></extensions></trkpt>
      <trkpt lon="-3.156301" lat="53.010619"><ele>468.069366</ele><time>2021-09-01T11:14:31Z</time><extensions><speed>1.392806</speed><course>116.725731</course><hAcc>0.887606</hAcc><vAcc>0.712549</vAcc></extensions></trkpt>
      <trkpt lon="-3.156312" lat="53.010608"><ele>468.142090</ele><time>2021-09-01T11:14:32Z</time><extensions><speed>1.390189</speed><course>116.725723</course><hAcc>0.887628</hAcc><vAcc>0.712596</vAcc></extensions></trkpt>
      <trkpt lon="-3.156322" lat="53.010598"><ele>468.217896</ele><time>2021-09-01T11:14:33Z</time><extensions><speed>1.387460</speed><course>116.725723</course><hAcc>0.887629</hAcc><vAcc>0.712580</vAcc></extensions></trkpt>
      <trkpt lon="-3.156332" lat="53.010587"><ele>468.296478</ele><time>2021-09-01T11:14:34Z</time><extensions><speed>1.385479</speed><course>116.725708</course><hAcc>0.887613</hAcc><vAcc>0.712509</vAcc></extensions></trkpt>
      <trkpt lon="-3.156342" lat="53.010576"><ele>468.377625</ele><time>2021-09-01T11:14:35Z</time><extensions><speed>1.384555</speed><course>116.725700</course><hAcc>0.887583</hAcc><vAcc>0.712391</vAcc></extensions></trkpt>
      <trkpt lon="-3.156353" lat="53.010565"><ele>468.460907</ele><time>2021-09-01T11:14:36Z</time><extensions><speed>1.384814</speed><course>116.725693</course><hAcc>0.887543</hAcc><vAcc>0.712234</vAcc></extensions></trkpt>
      <trkpt lon="-3.156363" lat="53.010554"><ele>468.545898</ele><time>2021-09-01T11:14:37Z</time><extensions><speed>1.385869</speed><course>116.725685</course><hAcc>0.887497</hAcc><vAcc>0.712049</vAcc></extensions></trkpt>
      <trkpt lon="-3.156373" lat="53.010543"><ele>468.632080</ele><time>2021-09-01T11:14:38Z</time><extensions><speed>1.387628</speed><course>116.725670</course><hAcc>0.887450</hAcc><vAcc>0.711848</vAcc></extensions></trkpt>
      <trkpt lon="-3.156383" lat="53.010533"><ele>468.718964</ele><time>2021-09-01T11:14:39Z</time><extensions><speed>1.390580</speed><course>116.725670</course><hAcc>0.887403</hAcc><vAcc>0.711650</vAcc></extensions></trkpt>
      <trkpt lon="-3.156394" lat="53.010522"><ele>468.806244</ele><time>2021-09-01T11:14:40Z</time><extensions><speed>1.395081</speed><course>116.725662</course><hAcc>0.887361</hAcc><vAcc>0.711473</vAcc></extensions></trkpt>
      <trkpt lon="-3.156404" lat="53.010511"><ele>468.893555</ele><time>2021-09-01T11:14:41Z</time><extensions><speed>1.400895</speed><course>316.510925</course><hAcc>0.887325</hAcc><vAcc>0.711331</vAcc></extensions></trkpt>
      <trkpt lon="-3.156415" lat="53.010500"><ele>468.980347</ele><time>2021-09-01T11:14:42Z</time><extensions><speed>1.407157</speed><course>325.771881</course><hAcc>0.887298</hAcc><vAcc>0.711235</vAcc></extensions></trkpt>
      <trkpt lon="-3.156426" lat="53.010489"><ele>469.065857</ele><time>2021-09-01T11:14:43Z</time><extensions><speed>1.412967</speed><course>329.412018</course><hAcc>0.887281</hAcc><vAcc>0.711188</vAcc></extensions></trkpt>
      <trkpt lon="-3.156437" lat="53.010478"><ele>469.149200</ele><time>2021-09-01T11:14:44Z</time><extensions><speed>1.417498</speed><course>328.807678</course><hAcc>0.887273</hAcc><vAcc>0.711186</vAcc></extensions></trkpt>
      <trkpt lon="-3.156448" lat="53.010468"><ele>469.229797</ele><time>2021-09-01T11:14:45Z</time><extensions><speed>1.420086</speed><course>328.238739</course><hAcc>0.887276</hAcc><vAcc>0.711221</vAcc></extensions></trkpt>
      <trkpt lon="-3.156459" lat="53.010457"><ele>469.307587</ele><time>2021-09-01T11:14:46Z</time><extensions><speed>1.420445</speed><course>328.754333</course><hAcc>0.887287</hAcc><vAcc>0.711280</vAcc></extensions></trkpt>
      <trkpt lon="-3.156470" lat="53.010446"><ele>469.382538</ele><time>2021-09-01T11:14:47Z</time><extensions><speed>1.418759</speed><course>321.291412</course><hAcc>0.887306</hAcc><vAcc>0.711355</vAcc></extensions></trkpt>
      <trkpt lon="-3.156481" lat="53.010435"><ele>469.454742</ele><time>2021-09-01T11:14:48Z</time><extensions><speed>1.415109</speed><course>315.163422</course><hAcc>0.887329</hAcc><vAcc>0.711442</vAcc></extensions></trkpt>
      <trkpt lon="-3.156493" lat="53.010424"><ele>469.524323</ele><time>2021-09-01T11:14:49Z</time><extensions><speed>1.409320</speed><course>320.356079</course><hAcc>0.887355</hAcc><vAcc>0.711541</vAcc></extensions></trkpt>
      <trkpt lon="-3.156504" lat="53.010414"><ele>469.591522</ele><time>2021-09-01T11:14:50Z</time><extensions><speed>1.401451</speed><course>314.759003</course><hAcc>0.887381</hAcc><vAcc>0.711648</vAcc></extensions></trkpt>
      <trkpt lon="-3.156515" lat="53.010403"><ele>469.656830</ele><time>2021-09-01T11:14:51Z</time><extensions><speed>1.391614</speed><course>306.430359</course><hAcc>0.887404</hAcc><vAcc>0.711755</vAcc></extensions></trkpt>
      <trkpt lon="-3.156526" lat="53.010393"><ele>469.720673</ele><time>2021-09-01T11:14:52Z</time><extensions><speed>1.379596</speed><course>312.642456</course><hAcc>0.887423</hAcc><vAcc>0.711851</vAcc></extensions></trkpt>
      <trkpt lon="-3.156537" lat="53.010382"><ele>469.783081</ele><time>2021-09-01T11:14:53Z</time><extensions><speed>1.365458</speed><course>309.329712</course><hAcc>0.887435</hAcc><vAcc>0.711923</vAcc></extensions></trkpt>
      <trkpt lon="-3.156548" lat="53.010372"><ele>469.843964</ele><time>2021-09-01T11:14:54Z</time><extensions><speed>1.350304</speed><course>306.517120</course><hAcc>0.887439</hAcc><vAcc>0.711956</vAcc></extensions></trkpt>
      <trkpt lon="-3.156559" lat="53.010362"><ele>469.903381</ele><time>2021-09-01T11:14:55Z</time><extensions><speed>1.335643</speed><course>302.169647</course><hAcc>0.887434</hAcc><vAcc>0.711943</vAcc></extensions></trkpt>
      <trkpt lon="-3.156569" lat="53.010352"><ele>469.961365</ele><time>2021-09-01T11:14:56Z</time><extensions><speed>1.322565</speed><course>299.953156</course><hAcc>0.887421</hAcc><vAcc>0.711883</vAcc></extensions></trkpt>
      <trkpt lon="-3.156579" lat="53.010341"><ele>470.018066</ele><time>2021-09-01T11:14:57Z</time><extensions><speed>1.311723</speed><course>299.473511</course><hAcc>0.887400</hAcc><vAcc>0.711784</vAcc></extensions></trkpt>
      <trkpt lon="-3.156589" lat="53.010331"><ele>470.073669</ele><time>2021-09-01T11:14:58Z</time><extensions><speed>1.303081</speed><course>298.103729</course><hAcc>0.887371</hAcc><vAcc>0.711656</vAcc></extensions></trkpt>
      <trkpt lon="-3.156598" lat="53.010321"><ele>470.128235</ele><time>2021-09-01T11:14:59Z</time><extensions><speed>1.295949</speed><course>294.101929</course><hAcc>0.887335</hAcc><vAcc>0.711511</vAcc></extensions></trkpt>
      <trkpt lon="-3.156608" lat="53.010311"><ele>470.181580</ele><time>2021-09-01T11:15:00Z</time><extensions><speed>1.289498</speed><course>298.669067</course><hAcc>0.887295</hAcc><vAcc>0.711358</vAcc></extensions></trkpt>
      <trkpt lon="-3.156617" lat="53.010301"><ele>470.233185</ele><time>2021-09-01T11:15:01Z</time><extensions><speed>1.283284</speed><course>297.460327</course><hAcc>0.887252</hAcc><vAcc>0.711204</vAcc></extensions></trkpt>
      <trkpt lon="-3.156626" lat="53.010291"><ele>470.282684</ele><time>2021-09-01T11:15:02Z</time><extensions><speed>1.276904</speed><course>300.643127</course><hAcc>0.887208</hAcc><vAcc>0.711053</vAcc></extensions></trkpt>
      <trkpt lon="-3.156636" lat="53.010281"><ele>470.330261</ele><time>2021-09-01T11:15:03Z</time><extensions><speed>1.270187</speed><course>300.762909</course><hAcc>0.887165</hAcc><vAcc>0.710910</vAcc></extensions></trkpt>
      <trkpt lon="-3.156645" lat="53.010271"><ele>470.376801</ele><time>2021-09-01T11:15:04Z</time><extensions><speed>1.263293</speed><course>306.221161</course><hAcc>0.887124</hAcc><vAcc>0.710776</vAcc></extensions></trkpt>
      <trkpt lon="-3.156654" lat="53.010261"><ele>470.423340</ele><time>2021-09-01T11:15:05Z</time><extensions><speed>1.256598</speed><course>311.753571</course><hAcc>0.887086</hAcc><vAcc>0.710653</vAcc></extensions></trkpt>
      <trkpt lon="-3.156663" lat="53.010251"><ele>470.470673</ele><time>2021-09-01T11:15:06Z</time><extensions><speed>1.250134</speed><course>314.039551</course><hAcc>0.887053</hAcc><vAcc>0.710542</vAcc></extensions></trkpt>
      <trkpt lon="-3.156671" lat="53.010241"><ele>470.519440</ele><time>2021-09-01T11:15:07Z</time><extensions><speed>1.243529</speed><course>316.125336</course><hAcc>0.887025</hAcc><vAcc>0.710446</vAcc></extensions></trkpt>
      <trkpt lon="-3.156680" lat="53.010231"><ele>470.570129</ele><time>2021-09-01T11:15:08Z</time><extensions><speed>1.236341</speed><course>313.054962</course><hAcc>0.887003</hAcc><vAcc>0.710369</vAcc></extensions></trkpt>
      <trkpt lon="-3.156688" lat="53.010221"><ele>470.623199</ele><time>2021-09-01T11:15:09Z</time><extensions><speed>1.228199</speed><course>309.718231</course><hAcc>0.886988</hAcc><vAcc>0.710316</vAcc></extensions></trkpt>
      <trkpt lon="-3.156696" lat="53.010212"><ele>470.678894</ele><time>2021-09-01T11:15:10Z</time><extensions><speed>1.219504</speed><course>315.993652</course><hAcc>0.886981</hAcc><vAcc>0.710289</vAcc></extensions></trkpt>
      <trkpt lon="-3.156704" lat="53.010202"><ele>470.737396</ele><time>2021-09-01T11:15:11Z</time><extensions><speed>1.211019</speed><course>314.639465</course><hAcc>0.886981</hAcc><vAcc>0.710289</vAcc></extensions></trkpt>
      <trkpt lon="-3.156712" lat="53.010192"><ele>470.799042</ele><time>2021-09-01T11:15:12Z</time><extensions><speed>1.203740</speed><course>314.699524</course><hAcc>0.886989</hAcc><vAcc>0.710316</vAcc></extensions></trkpt>
      <trkpt lon="-3.156719" lat="53.010182"><ele>470.864441</ele><time>2021-09-01T11:15:13Z</time><extensions><speed>1.198148</speed><course>315.537170</course><hAcc>0.887005</hAcc><vAcc>0.710365</vAcc></extensions></trkpt>
      <trkpt lon="-3.156727" lat="53.010172"><ele>470.934052</ele><time>2021-09-01T11:15:14Z</time><extensions><speed>1.194266</speed><course>315.384186</course><hAcc>0.887029</hAcc><vAcc>0.710437</vAcc></extensions></trkpt>
      <trkpt lon="-3.156734" lat="53.010162"><ele>471.008148</ele><time>2021-09-01T11:15:15Z</time><extensions><speed>1.192345</speed><course>316.068207</course><hAcc>0.887061</hAcc><vAcc>0.710533</vAcc></extensions></trkpt>
      <trkpt lon="-3.156740" lat="53.010152"><ele>471.086639</ele><time>2021-09-01T11:15:16Z</time><extensions><speed>1.192319</speed><course>319.526184</course><hAcc>0.887099</hAcc><vAcc>0.710657</vAcc></extensions></trkpt>
      <trkpt lon="-3.156747" lat="53.010143"><ele>471.169159</ele><time>2021-09-01T11:15:17Z</time><extensions><speed>1.193897</speed><course>322.032959</course><hAcc>0.887143</hAcc><vAcc>0.710810</vAcc></extensions></trkpt>
      <trkpt lon="-3.156754" lat="53.010133"><ele>471.255310</ele><time>2021-09-01T11:15:18Z</time><extensions><speed>1.197129</speed><course>326.209290</course><hAcc>0.887191</hAcc><vAcc>0.710986</vAcc></extensions></trkpt>
      <trkpt lon="-3.156760" lat="53.010123"><ele>471.344818</ele><time>2021-09-01T11:15:19Z</time><extensions><speed>1.202420</speed><course>324.142303</course><hAcc>0.887243</hAcc><vAcc>0.711175</vAcc></extensions></trkpt>
      <trkpt lon="-3.156767" lat="53.010112"><ele>471.437500</ele><time>2021-09-01T11:15:20Z</time><extensions><speed>1.210172</speed><course>332.193542</course><hAcc>0.887295</hAcc><vAcc>0.711367</vAcc></extensions></trkpt>
      <trkpt lon="-3.156773" lat="53.010102"><ele>471.533264</ele><time>2021-09-01T11:15:21Z</time><extensions><speed>1.220579</speed><course>329.558014</course><hAcc>0.887348</hAcc><vAcc>0.711552</vAcc></extensions></trkpt>
      <trkpt lon="-3.156780" lat="53.010092"><ele>471.631714</ele><time>2021-09-01T11:15:22Z</time><extensions><speed>1.233110</speed><course>323.309692</course><hAcc>0.887399</hAcc><vAcc>0.711724</vAcc></extensions></trkpt>
      <trkpt lon="-3.156786" lat="53.010082"><ele>471.731964</ele><time>2021-09-01T11:15:23Z</time><extensions><speed>1.246753</speed><course>319.992767</course><hAcc>0.887447</hAcc><vAcc>0.711880</vAcc></extensions></trkpt>
      <trkpt lon="-3.156793" lat="53.010071"><ele>471.832642</ele><time>2021-09-01T11:15:24Z</time><extensions><speed>1.260250</speed><course>322.539886</course><hAcc>0.887492</hAcc><vAcc>0.712016</vAcc></extensions></trkpt>
      <trkpt lon="-3.156800" lat="53.010060"><ele>471.932098</ele><time>2021-09-01T11:15:25Z</time><extensions><speed>1.272348</speed><course>317.532928</course><hAcc>0.887533</hAcc><vAcc>0.712131</vAcc></extensions></trkpt>
      <trkpt lon="-3.156807" lat="53.010050"><ele>472.028320</ele><time>2021-09-01T11:15:26Z</time><extensions><speed>1.282438</speed><course>314.725220</course><hAcc>0.887571</hAcc><vAcc>0.712225</vAcc></extensions></trkpt>
      <trkpt lon="-3.156814" lat="53.010039"><ele>472.119781</ele><time>2021-09-01T11:15:27Z</time><extensions><speed>1.290817</speed><course>325.463684</course><hAcc>0.887606</hAcc><vAcc>0.712298</vAcc></extensions></trkpt>
      <trkpt lon="-3.156821" lat="53.010028"><ele>472.205597</ele><time>2021-09-01T11:15:28Z</time><extensions><speed>1.298382</speed><course>326.490570</course><hAcc>0.887639</hAcc><vAcc>0.712355</vAcc></extensions></trkpt>
      <trkpt lon="-3.156829" lat="53.010017"><ele>472.285400</ele><time>2021-09-01T11:15:30Z</time><extensions><speed>1.305874</speed><course>316.111328</course><hAcc>0.887652</hAcc><vAcc>0.712388</vAcc></extensions></trkpt>
      <trkpt lon="-3.156836" lat="53.010007"><ele>472.358978</ele><time>2021-09-01T11:15:31Z</time><extensions><speed>1.313699</speed><course>316.470520</course><hAcc>0.887645</hAcc><vAcc>0.712402</vAcc></extensions></trkpt>
      <trkpt lon="-3.156844" lat="53.009996"><ele>472.426697</ele><time>2021-09-01T11:15:32Z</time><extensions><speed>1.321263</speed><course>317.921600</course><hAcc>0.887637</hAcc><vAcc>0.712412</vAcc></extensions></trkpt>
      <trkpt lon="-3.156852" lat="53.009985"><ele>472.488861</ele><time>2021-09-01T11:15:33Z</time><extensions><speed>1.327300</speed><course>317.925903</course><hAcc>0.887625</hAcc><vAcc>0.712419</vAcc></extensions></trkpt>
      <trkpt lon="-3.156861" lat="53.009974"><ele>472.545746</ele><time>2021-09-01T11:15:34Z</time><extensions><speed>1.331081</speed><course>316.840515</course><hAcc>0.887609</hAcc><vAcc>0.712418</vAcc></extensions></trkpt>
      <trkpt lon="-3.156869" lat="53.009963"><ele>472.597443</ele><time>2021-09-01T11:15:35Z</time><extensions><speed>1.332342</speed><course>321.987762</course><hAcc>0.887589</hAcc><vAcc>0.712403</vAcc></extensions></trkpt>
      <trkpt lon="-3.156878" lat="53.009953"><ele>472.644043</ele><time>2021-09-01T11:15:36Z</time><extensions><speed>1.330784</speed><course>314.291290</course><hAcc>0.887564</hAcc><vAcc>0.712365</vAcc></extensions></trkpt>
      <trkpt lon="-3.156887" lat="53.009942"><ele>472.685547</ele><time>2021-09-01T11:15:37Z</time><extensions><speed>1.326207</speed><course>311.665222</course><hAcc>0.887533</hAcc><vAcc>0.712303</vAcc></extensions></trkpt>
      <trkpt lon="-3.156896" lat="53.009931"><ele>472.722168</ele><time>2021-09-01T11:15:37Z</time><extensions><speed>1.319395</speed><course>315.645782</course><hAcc>0.887515</hAcc><vAcc>0.712229</vAcc></extensions></trkpt>
      <trkpt lon="-3.156904" lat="53.009921"><ele>472.754486</ele><time>2021-09-01T11:15:38Z</time><extensions><speed>1.311565</speed><course>312.390594</course><hAcc>0.887512</hAcc><vAcc>0.712152</vAcc></extensions></trkpt>
      <trkpt lon="-3.156913" lat="53.009910"><ele>472.783234</ele><time>2021-09-01T11:15:39Z</time><extensions><speed>1.303263</speed><course>315.968140</course><hAcc>0.887507</hAcc><vAcc>0.712069</vAcc></extensions></trkpt>
      <trkpt lon="-3.156921" lat="53.009900"><ele>472.809143</ele><time>2021-09-01T11:15:40Z</time><extensions><speed>1.294404</speed><course>305.843231</course><hAcc>0.887502</hAcc><vAcc>0.711995</vAcc></extensions></trkpt>
      <trkpt lon="-3.156930" lat="53.009889"><ele>472.833038</ele><time>2021-09-01T11:15:41Z</time><extensions><speed>1.285116</speed><course>307.428955</course><hAcc>0.887500</hAcc><vAcc>0.711944</vAcc></extensions></trkpt>
      <trkpt lon="-3.156937" lat="53.009879"><ele>472.855774</ele><time>2021-09-01T11:15:42Z</time><extensions><speed>1.275981</speed><course>303.591888</course><hAcc>0.887503</hAcc><vAcc>0.711927</vAcc></extensions></trkpt>
      <trkpt lon="-3.156945" lat="53.009868"><ele>472.878174</ele><time>2021-09-01T11:15:43Z</time><extensions><speed>1.267556</speed><course>302.311584</course><hAcc>0.887511</hAcc><vAcc>0.711949</vAcc></extensions></trkpt>
      <trkpt lon="-3.156953" lat="53.009858"><ele>472.900879</ele><time>2021-09-01T11:15:44Z</time><extensions><speed>1.260098</speed><course>296.010498</course><hAcc>0.887524</hAcc><vAcc>0.712007</vAcc></extensions></trkpt>
      <trkpt lon="-3.156960" lat="53.009847"><ele>472.923981</ele><time>2021-09-01T11:15:45Z</time><extensions><speed>1.253474</speed><course>298.597748</course><hAcc>0.887543</hAcc><vAcc>0.712093</vAcc></extensions></trkpt>
      <trkpt lon="-3.156967" lat="53.009837"><ele>472.947296</ele><time>2021-09-01T11:15:46Z</time><extensions><speed>1.247576</speed><course>307.419373</course><hAcc>0.887567</hAcc><vAcc>0.712199</vAcc></extensions></trkpt>
      <trkpt lon="-3.156975" lat="53.009827"><ele>472.970947</ele><time>2021-09-01T11:15:47Z</time><extensions><speed>1.242394</speed><course>311.127045</course><hAcc>0.887593</hAcc><vAcc>0.712315</vAcc></extensions></trkpt>
      <trkpt lon="-3.156982" lat="53.009817"><ele>472.995331</ele><time>2021-09-01T11:15:48Z</time><extensions><speed>1.238112</speed><course>308.779785</course><hAcc>0.887622</hAcc><vAcc>0.712431</vAcc></extensions></trkpt>
      <trkpt lon="-3.156989" lat="53.009806"><ele>473.020935</ele><time>2021-09-01T11:15:49Z</time><extensions><speed>1.234875</speed><course>310.817932</course><hAcc>0.887650</hAcc><vAcc>0.712539</vAcc></extensions></trkpt>
      <trkpt lon="-3.156996" lat="53.009796"><ele>473.048248</ele><time>2021-09-01T11:15:50Z</time><extensions><speed>1.232449</speed><course>313.903961</course><hAcc>0.887677</hAcc><vAcc>0.712633</vAcc></extensions></trkpt>
      <trkpt lon="-3.157004" lat="53.009786"><ele>473.077820</ele><time>2021-09-01T11:15:51Z</time><extensions><speed>1.230512</speed><course>312.113068</course><hAcc>0.887701</hAcc><vAcc>0.712710</vAcc></extensions></trkpt>
      <trkpt lon="-3.157011" lat="53.009776"><ele>473.110260</ele><time>2021-09-01T11:15:52Z</time><extensions><speed>1.228584</speed><course>298.693726</course><hAcc>0.887721</hAcc><vAcc>0.712770</vAcc></extensions></trkpt>
      <trkpt lon="-3.157019" lat="53.009766"><ele>473.146179</ele><time>2021-09-01T11:15:53Z</time><extensions><speed>1.226490</speed><course>304.126526</course><hAcc>0.887736</hAcc><vAcc>0.712814</vAcc></extensions></trkpt>
      <trkpt lon="-3.157027" lat="53.009756"><ele>473.186157</ele><time>2021-09-01T11:15:54Z</time><extensions><speed>1.224803</speed><course>307.202972</course><hAcc>0.887745</hAcc><vAcc>0.712839</vAcc></extensions></trkpt>
      <trkpt lon="-3.157035" lat="53.009746"><ele>473.230621</ele><time>2021-09-01T11:15:55Z</time><extensions><speed>1.224116</speed><course>306.849365</course><hAcc>0.887748</hAcc><vAcc>0.712844</vAcc></extensions></trkpt>
      <trkpt lon="-3.157043" lat="53.009736"><ele>473.279816</ele><time>2021-09-01T11:15:56Z</time><extensions><speed>1.224232</speed><course>311.228149</course><hAcc>0.887743</hAcc><vAcc>0.712825</vAcc></extensions></trkpt>
      <trkpt lon="-3.157051" lat="53.009726"><ele>473.333618</ele><time>2021-09-01T11:15:57Z</time><extensions><speed>1.224170</speed><course>314.984741</course><hAcc>0.887730</hAcc><vAcc>0.712785</vAcc></extensions></trkpt>
      <trkpt lon="-3.157059" lat="53.009717"><ele>473.391754</ele><time>2021-09-01T11:15:58Z</time><extensions><speed>1.222890</speed><course>312.149628</course><hAcc>0.887707</hAcc><vAcc>0.712724</vAcc></extensions></trkpt>
      <trkpt lon="-3.157067" lat="53.009707"><ele>473.453674</ele><time>2021-09-01T11:15:59Z</time><extensions><speed>1.219654</speed><course>303.811646</course><hAcc>0.887672</hAcc><vAcc>0.712638</vAcc></extensions></trkpt>
      <trkpt lon="-3.157076" lat="53.009697"><ele>473.518463</ele><time>2021-09-01T11:16:00Z</time><extensions><speed>1.213763</speed><course>306.939087</course><hAcc>0.887623</hAcc><vAcc>0.712520</vAcc></extensions></trkpt>
      <trkpt lon="-3.157084" lat="53.009687"><ele>473.584991</ele><time>2021-09-01T11:16:01Z</time><extensions><speed>1.205095</speed><course>305.149933</course><hAcc>0.887559</hAcc><vAcc>0.712357</vAcc></extensions></trkpt>
      <trkpt lon="-3.157092" lat="53.009678"><ele>473.652222</ele><time>2021-09-01T11:16:02Z</time><extensions><speed>1.194389</speed><course>307.460999</course><hAcc>0.887479</hAcc><vAcc>0.712134</vAcc></extensions></trkpt>
      <trkpt lon="-3.157100" lat="53.009668"><ele>473.719208</ele><time>2021-09-01T11:16:03Z</time><extensions><speed>1.182020</speed><course>310.556549</course><hAcc>0.887381</hAcc><vAcc>0.711837</vAcc></extensions></trkpt>
      <trkpt lon="-3.157108" lat="53.009659"><ele>473.784973</ele><time>2021-09-01T11:16:04Z</time><extensions><speed>1.167713</speed><course>316.643463</course><hAcc>0.887265</hAcc><vAcc>0.711461</vAcc></extensions></trkpt>
      <trkpt lon="-3.157115" lat="53.009649"><ele>473.848297</ele><time>2021-09-01T11:16:05Z</time><extensions><speed>1.151154</speed><course>310.111420</course><hAcc>0.887132</hAcc><vAcc>0.711008</vAcc></extensions></trkpt>
      <trkpt lon="-3.157123" lat="53.009640"><ele>473.907684</ele><time>2021-09-01T11:16:06Z</time><extensions><speed>1.132168</speed><course>309.394775</course><hAcc>0.886982</hAcc><vAcc>0.710491</vAcc></extensions></trkpt>
      <trkpt lon="-3.157130" lat="53.009631"><ele>473.961578</ele><time>2021-09-01T11:16:07Z</time><extensions><speed>1.111230</speed><course>312.734375</course><hAcc>0.886818</hAcc><vAcc>0.709926</vAcc></extensions></trkpt>
      <trkpt lon="-3.157138" lat="53.009622"><ele>474.008423</ele><time>2021-09-01T11:16:08Z</time><extensions><speed>1.089577</speed><course>307.110260</course><hAcc>0.886642</hAcc><vAcc>0.709330</vAcc></extensions></trkpt>
      <trkpt lon="-3.157145" lat="53.009614"><ele>474.047119</ele><time>2021-09-01T11:16:09Z</time><extensions><speed>1.068870</speed><course>304.794312</course><hAcc>0.886459</hAcc><vAcc>0.708717</vAcc></extensions></trkpt>
      <trkpt lon="-3.157153" lat="53.009605"><ele>474.076874</ele><time>2021-09-01T11:16:10Z</time><extensions><speed>1.050207</speed><course>309.669006</course><hAcc>0.886276</hAcc><vAcc>0.708096</vAcc></extensions></trkpt>
      <trkpt lon="-3.157160" lat="53.009597"><ele>474.097290</ele><time>2021-09-01T11:16:11Z</time><extensions><speed>1.033593</speed><course>309.747101</course><hAcc>0.886101</hAcc><vAcc>0.707480</vAcc></extensions></trkpt>
      <trkpt lon="-3.157167" lat="53.009589"><ele>474.108307</ele><time>2021-09-01T11:16:12Z</time><extensions><speed>1.018878</speed><course>308.451904</course><hAcc>0.885943</hAcc><vAcc>0.706891</vAcc></extensions></trkpt>
      <trkpt lon="-3.157175" lat="53.009581"><ele>474.110016</ele><time>2021-09-01T11:16:13Z</time><extensions><speed>1.006765</speed><course>313.674774</course><hAcc>0.885815</hAcc><vAcc>0.706363</vAcc></extensions></trkpt>
      <trkpt lon="-3.157182" lat="53.009573"><ele>474.102539</ele><time>2021-09-01T11:16:14Z</time><extensions><speed>0.998832</speed><course>310.174561</course><hAcc>0.885731</hAcc><vAcc>0.705943</vAcc></extensions></trkpt>
      <trkpt lon="-3.157190" lat="53.009566"><ele>474.086456</ele><time>2021-09-01T11:16:15Z</time><extensions><speed>0.996952</speed><course>312.894348</course><hAcc>0.885708</hAcc><vAcc>0.705692</vAcc></extensions></trkpt>
      <trkpt lon="-3.157198" lat="53.009558"><ele>474.062744</ele><time>2021-09-01T11:16:16Z</time><extensions><speed>1.002602</speed><course>309.740997</course><hAcc>0.885766</hAcc><vAcc>0.705672</vAcc></extensions></trkpt>
      <trkpt lon="-3.157207" lat="53.009551"><ele>474.032440</ele><time>2021-09-01T11:16:17Z</time><extensions><speed>1.016575</speed><course>309.271240</course><hAcc>0.885926</hAcc><vAcc>0.705937</vAcc></extensions></trkpt>
      <trkpt lon="-3.157216" lat="53.009543"><ele>473.996490</ele><time>2021-09-01T11:16:18Z</time><extensions><speed>1.038732</speed><course>309.840485</course><hAcc>0.886214</hAcc><vAcc>0.706513</vAcc></extensions></trkpt>
      <trkpt lon="-3.157225" lat="53.009535"><ele>473.955902</ele><time>2021-09-01T11:16:19Z</time><extensions><speed>1.067218</speed><course>308.054108</course><hAcc>0.886657</hAcc><vAcc>0.707402</vAcc></extensions></trkpt>
      <trkpt lon="-3.157234" lat="53.009528"><ele>473.911530</ele><time>2021-09-01T11:16:20Z</time><extensions><speed>1.099450</speed><course>306.226685</course><hAcc>0.887283</hAcc><vAcc>0.708597</vAcc></extensions></trkpt>
      <trkpt lon="-3.157244" lat="53.009520"><ele>473.864105</ele><time>2021-09-01T11:16:21Z</time><extensions><speed>1.133154</speed><course>316.211884</course><hAcc>0.888126</hAcc><vAcc>0.710088</vAcc></extensions></trkpt>
      <trkpt lon="-3.157254" lat="53.009511"><ele>473.814392</ele><time>2021-09-01T11:16:22Z</time><extensions><speed>1.166098</speed><course>312.798523</course><hAcc>0.889218</hAcc><vAcc>0.711860</vAcc></extensions></trkpt>
      <trkpt lon="-3.157265" lat="53.009503"><ele>473.763123</ele><time>2021-09-01T11:16:23Z</time><extensions><speed>1.196995</speed><course>314.823364</course><hAcc>0.890584</hAcc><vAcc>0.713889</vAcc></extensions></trkpt>
      <trkpt lon="-3.157276" lat="53.009494"><ele>473.710938</ele><time>2021-09-01T11:16:24Z</time><extensions><speed>1.224974</speed><course>317.560303</course><hAcc>0.892238</hAcc><vAcc>0.716132</vAcc></extensions></trkpt>
      <trkpt lon="-3.157287" lat="53.009485"><ele>473.658142</ele><time>2021-09-01T11:16:25Z</time><extensions><speed>1.249191</speed><course>313.870911</course><hAcc>0.894172</hAcc><vAcc>0.718524</vAcc></extensions></trkpt>
      <trkpt lon="-3.157297" lat="53.009476"><ele>473.604919</ele><time>2021-09-01T11:16:26Z</time><extensions><speed>1.269053</speed><course>320.858917</course><hAcc>0.896347</hAcc><vAcc>0.720971</vAcc></extensions></trkpt>
      <trkpt lon="-3.157308" lat="53.009466"><ele>473.551147</ele><time>2021-09-01T11:16:27Z</time><extensions><speed>1.284412</speed><course>322.110107</course><hAcc>0.898678</hAcc><vAcc>0.723354</vAcc></extensions></trkpt>
      <trkpt lon="-3.157319" lat="53.009457"><ele>473.496399</ele><time>2021-09-01T11:16:28Z</time><extensions><speed>1.295705</speed><course>322.258118</course><hAcc>0.901035</hAcc><vAcc>0.725531</vAcc></extensions></trkpt>
      <trkpt lon="-3.157330" lat="53.009447"><ele>473.440430</ele><time>2021-09-01T11:16:29Z</time><extensions><speed>1.303483</speed><course>323.751770</course><hAcc>0.903239</hAcc><vAcc>0.727356</vAcc></extensions></trkpt>
      <trkpt lon="-3.157340" lat="53.009437"><ele>473.383179</ele><time>2021-09-01T11:16:30Z</time><extensions><speed>1.308286</speed><course>311.017761</course><hAcc>0.905093</hAcc><vAcc>0.728716</vAcc></extensions></trkpt>
      <trkpt lon="-3.157351" lat="53.009427"><ele>473.324738</ele><time>2021-09-01T11:16:31Z</time><extensions><speed>1.310901</speed><course>303.134949</course><hAcc>0.906428</hAcc><vAcc>0.729586</vAcc></extensions></trkpt>
      <trkpt lon="-3.157360" lat="53.009417"><ele>473.265045</ele><time>2021-09-01T11:16:32Z</time><extensions><speed>1.312188</speed><course>305.266266</course><hAcc>0.907212</hAcc><vAcc>0.730132</vAcc></extensions></trkpt>
      <trkpt lon="-3.157370" lat="53.009407"><ele>473.203857</ele><time>2021-09-01T11:16:33Z</time><extensions><speed>1.312567</speed><course>306.244568</course><hAcc>0.907709</hAcc><vAcc>0.730849</vAcc></extensions></trkpt>
      <trkpt lon="-3.157379" lat="53.009396"><ele>473.141083</ele><time>2021-09-01T11:16:34Z</time><extensions><speed>1.312680</speed><course>311.028961</course><hAcc>0.908739</hAcc><vAcc>0.732759</vAcc></extensions></trkpt>
      <trkpt lon="-3.157388" lat="53.009386"><ele>473.076752</ele><time>2021-09-01T11:16:35Z</time><extensions><speed>1.312616</speed><course>304.990997</course><hAcc>0.912037</hAcc><vAcc>0.737637</vAcc></extensions></trkpt>
      <trkpt lon="-3.157396" lat="53.009375"><ele>473.010864</ele><time>2021-09-01T11:16:36Z</time><extensions><speed>1.311949</speed><course>305.619354</course><hAcc>0.920681</hAcc><vAcc>0.748244</vAcc></extensions></trkpt>
      <trkpt lon="-3.157404" lat="53.009364"><ele>472.943329</ele><time>2021-09-01T11:16:37Z</time><extensions><speed>1.310490</speed><course>319.038269</course><hAcc>0.939501</hAcc><vAcc>0.768457</vAcc></extensions></trkpt>
      <trkpt lon="-3.157411" lat="53.009353"><ele>472.873932</ele><time>2021-09-01T11:16:38Z</time><extensions><speed>1.308297</speed><course>314.772644</course><hAcc>0.975193</hAcc><vAcc>0.803118</vAcc></extensions></trkpt>
      <trkpt lon="-3.157414" lat="53.009340"><ele>472.742188</ele><time>2021-09-01T11:16:39Z</time><extensions><speed>1.340846</speed><course>-1.000000</course><hAcc>0.936740</hAcc><vAcc>0.767229</vAcc></extensions></trkpt>
      <trkpt lon="-3.157414" lat="53.009328"><ele>472.710663</ele><time>2021-09-01T11:16:40Z</time><extensions><speed>1.330052</speed><course>-1.000000</course><hAcc>0.917324</hAcc><vAcc>0.746423</vAcc></extensions></trkpt>
      <trkpt lon="-3.157413" lat="53.009316"><ele>472.682983</ele><time>2021-09-01T11:16:41Z</time><extensions><speed>1.319665</speed><course>-1.000000</course><hAcc>0.909232</hAcc><vAcc>0.736103</vAcc></extensions></trkpt>
      <trkpt lon="-3.157411" lat="53.009304"><ele>472.660400</ele><time>2021-09-01T11:16:42Z</time><extensions><speed>1.310493</speed><course>-1.000000</course><hAcc>0.906957</hAcc><vAcc>0.731945</vAcc></extensions></trkpt>
      <trkpt lon="-3.157408" lat="53.009293"><ele>472.644196</ele><time>2021-09-01T11:16:43Z</time><extensions><speed>1.302663</speed><course>-1.000000</course><hAcc>0.906993</hAcc><vAcc>0.730864</vAcc></extensions></trkpt>
      <trkpt lon="-3.157405" lat="53.009281"><ele>472.635254</ele><time>2021-09-01T11:16:44Z</time><extensions><speed>1.295703</speed><course>-1.000000</course><hAcc>0.907383</hAcc><vAcc>0.730890</vAcc></extensions></trkpt>
      <trkpt lon="-3.157400" lat="53.009270"><ele>472.634033</ele><time>2021-09-01T11:16:45Z</time><extensions><speed>1.289099</speed><course>-1.000000</course><hAcc>0.907219</hAcc><vAcc>0.730899</vAcc></extensions></trkpt>
      <trkpt lon="-3.157394" lat="53.009259"><ele>472.640717</ele><time>2021-09-01T11:16:46Z</time><extensions><speed>1.282344</speed><course>-1.000000</course><hAcc>0.906227</hAcc><vAcc>0.730349</vAcc></extensions></trkpt>
      <trkpt lon="-3.157387" lat="53.009248"><ele>472.655334</ele><time>2021-09-01T11:16:47Z</time><extensions><speed>1.274856</speed><course>-1.000000</course><hAcc>0.904472</hAcc><vAcc>0.729062</vAcc></extensions></trkpt>
      <trkpt lon="-3.157380" lat="53.009238"><ele>472.677338</ele><time>2021-09-01T11:16:48Z</time><extensions><speed>1.265876</speed><course>184.559082</course><hAcc>0.902165</hAcc><vAcc>0.727057</vAcc></extensions></trkpt>
      <trkpt lon="-3.157372" lat="53.009227"><ele>472.705811</ele><time>2021-09-01T11:16:49Z</time><extensions><speed>1.255227</speed><course>-1.000000</course><hAcc>0.899546</hAcc><vAcc>0.724444</vAcc></extensions></trkpt>
      <trkpt lon="-3.157364" lat="53.009217"><ele>472.739777</ele><time>2021-09-01T11:16:50Z</time><extensions><speed>1.243090</speed><course>-1.000000</course><hAcc>0.896828</hAcc><vAcc>0.721361</vAcc></extensions></trkpt>
      <trkpt lon="-3.157355" lat="53.009207"><ele>472.778015</ele><time>2021-09-01T11:16:51Z</time><extensions><speed>1.230059</speed><course>-1.000000</course><hAcc>0.894169</hAcc><vAcc>0.717933</vAcc></extensions></trkpt>
      <trkpt lon="-3.157347" lat="53.009198"><ele>472.819153</ele><time>2021-09-01T11:16:52Z</time><extensions><speed>1.217304</speed><course>-1.000000</course><hAcc>0.891668</hAcc><vAcc>0.714262</vAcc></extensions></trkpt>
      <trkpt lon="-3.157338" lat="53.009188"><ele>472.861664</ele><time>2021-09-01T11:16:53Z</time><extensions><speed>1.205324</speed><course>53.307610</course><hAcc>0.889374</hAcc><vAcc>0.710426</vAcc></extensions></trkpt>
      <trkpt lon="-3.157328" lat="53.009179"><ele>472.904022</ele><time>2021-09-01T11:16:54Z</time><extensions><speed>1.194569</speed><course>-1.000000</course><hAcc>0.887299</hAcc><vAcc>0.706485</vAcc></extensions></trkpt>
      <trkpt lon="-3.157319" lat="53.009170"><ele>472.944763</ele><time>2021-09-01T11:16:55Z</time><extensions><speed>1.186201</speed><course>-1.000000</course><hAcc>0.885431</hAcc><vAcc>0.702494</vAcc></extensions></trkpt>
      <trkpt lon="-3.157310" lat="53.009161"><ele>472.982758</ele><time>2021-09-01T11:16:56Z</time><extensions><speed>1.181239</speed><course>-1.000000</course><hAcc>0.883747</hAcc><vAcc>0.698506</vAcc></extensions></trkpt>
      <trkpt lon="-3.157300" lat="53.009152"><ele>473.017181</ele><time>2021-09-01T11:16:57Z</time><extensions><speed>1.180207</speed><course>120.394302</course><hAcc>0.882222</hAcc><vAcc>0.694569</vAcc></extensions></trkpt>
      <trkpt lon="-3.157291" lat="53.009143"><ele>473.047638</ele><time>2021-09-01T11:16:58Z</time><extensions><speed>1.183372</speed><course>-1.000000</course><hAcc>0.880835</hAcc><vAcc>0.690721</vAcc></extensions></trkpt>
      <trkpt lon="-3.157281" lat="53.009134"><ele>473.074005</ele><time>2021-09-01T11:16:59Z</time><extensions><speed>1.191114</speed><course>-1.000000</course><hAcc>0.879574</hAcc><vAcc>0.687008</vAcc></extensions></trkpt>
      <trkpt lon="-3.157272" lat="53.009125"><ele>473.096344</ele><time>2021-09-01T11:17:00Z</time><extensions><speed>1.203459</speed><course>-1.000000</course><hAcc>0.878442</hAcc><vAcc>0.683500</vAcc></extensions></trkpt>
      <trkpt lon="-3.157262" lat="53.009116"><ele>473.114716</ele><time>2021-09-01T11:17:01Z</time><extensions><speed>1.219128</speed><course>-1.000000</course><hAcc>0.877452</hAcc><vAcc>0.680304</vAcc></extensions></trkpt>
      <trkpt lon="-3.157253" lat="53.009106"><ele>473.129089</ele><time>2021-09-01T11:17:02Z</time><extensions><speed>1.236476</speed><course>-1.000000</course><hAcc>0.876630</hAcc><vAcc>0.677566</vAcc></extensions></trkpt>
      <trkpt lon="-3.157243" lat="53.009097"><ele>473.139404</ele><time>2021-09-01T11:17:03Z</time><extensions><speed>1.254714</speed><course>-1.000000</course><hAcc>0.876011</hAcc><vAcc>0.675458</vAcc></extensions></trkpt>
      <trkpt lon="-3.157233" lat="53.009087"><ele>473.145355</ele><time>2021-09-01T11:17:04Z</time><extensions><speed>1.273289</speed><course>-1.000000</course><hAcc>0.875634</hAcc><vAcc>0.674172</vAcc></extensions></trkpt>
      <trkpt lon="-3.157223" lat="53.009077"><ele>473.146454</ele><time>2021-09-01T11:17:05Z</time><extensions><speed>1.291453</speed><course>-1.000000</course><hAcc>0.875534</hAcc><vAcc>0.673880</vAcc></extensions></trkpt>
      <trkpt lon="-3.157214" lat="53.009067"><ele>473.141663</ele><time>2021-09-01T11:17:06Z</time><extensions><speed>1.308663</speed><course>-1.000000</course><hAcc>0.875730</hAcc><vAcc>0.674677</vAcc></extensions></trkpt>
      <trkpt lon="-3.157204" lat="53.009057"><ele>473.129913</ele><time>2021-09-01T11:17:07Z</time><extensions><speed>1.324038</speed><course>-1.000000</course><hAcc>0.876215</hAcc><vAcc>0.676537</vAcc></extensions></trkpt>
      <trkpt lon="-3.157194" lat="53.009046"><ele>473.110657</ele><time>2021-09-01T11:17:08Z</time><extensions><speed>1.336162</speed><course>-1.000000</course><hAcc>0.876951</hAcc><vAcc>0.679296</vAcc></extensions></trkpt>
      <trkpt lon="-3.157184" lat="53.009036"><ele>473.083527</ele><time>2021-09-01T11:17:09Z</time><extensions><speed>1.343827</speed><course>-1.000000</course><hAcc>0.877877</hAcc><vAcc>0.682680</vAcc></extensions></trkpt>
      <trkpt lon="-3.157174" lat="53.009026"><ele>473.048553</ele><time>2021-09-01T11:17:10Z</time><extensions><speed>1.346670</speed><course>-1.000000</course><hAcc>0.878920</hAcc><vAcc>0.686376</vAcc></extensions></trkpt>
      <trkpt lon="-3.157164" lat="53.009015"><ele>473.005951</ele><time>2021-09-01T11:17:11Z</time><extensions><speed>1.345072</speed><course>-1.000000</course><hAcc>0.880013</hAcc><vAcc>0.690101</vAcc></extensions></trkpt>
      <trkpt lon="-3.157153" lat="53.009005"><ele>472.956543</ele><time>2021-09-01T11:17:12Z</time><extensions><speed>1.339497</speed><course>-1.000000</course><hAcc>0.881095</hAcc><vAcc>0.693643</vAcc></extensions></trkpt>
      <trkpt lon="-3.157143" lat="53.008995"><ele>472.901550</ele><time>2021-09-01T11:17:13Z</time><extensions><speed>1.330727</speed><course>-1.000000</course><hAcc>0.882122</hAcc><vAcc>0.696861</vAcc></extensions></trkpt>
      <trkpt lon="-3.157132" lat="53.008985"><ele>472.842316</ele><time>2021-09-01T11:17:14Z</time><extensions><speed>1.320421</speed><course>-1.000000</course><hAcc>0.883060</hAcc><vAcc>0.699684</vAcc></extensions></trkpt>
      <trkpt lon="-3.157121" lat="53.008975"><ele>472.779541</ele><time>2021-09-01T11:17:15Z</time><extensions><speed>1.310448</speed><course>-1.000000</course><hAcc>0.883890</hAcc><vAcc>0.702089</vAcc></extensions></trkpt>
      <trkpt lon="-3.157110" lat="53.008965"><ele>472.713928</ele><time>2021-09-01T11:17:16Z</time><extensions><speed>1.301706</speed><course>-1.000000</course><hAcc>0.884604</hAcc><vAcc>0.704090</vAcc></extensions></trkpt>
      <trkpt lon="-3.157099" lat="53.008956"><ele>472.646576</ele><time>2021-09-01T11:17:17Z</time><extensions><speed>1.294504</speed><course>116.725777</course><hAcc>0.885204</hAcc><vAcc>0.705724</vAcc></extensions></trkpt>
      <trkpt lon="-3.157087" lat="53.008946"><ele>472.578644</ele><time>2021-09-01T11:17:18Z</time><extensions><speed>1.288979</speed><course>116.725777</course><hAcc>0.885697</hAcc><vAcc>0.707038</vAcc></extensions></trkpt>
      <trkpt lon="-3.157076" lat="53.008937"><ele>472.511139</ele><time>2021-09-01T11:17:19Z</time><extensions><speed>1.285592</speed><course>116.725777</course><hAcc>0.886095</hAcc><vAcc>0.708088</vAcc></extensions></trkpt>
      <trkpt lon="-3.157064" lat="53.008928"><ele>472.444824</ele><time>2021-09-01T11:17:20Z</time><extensions><speed>1.284917</speed><course>116.725777</course><hAcc>0.886414</hAcc><vAcc>0.708925</vAcc></extensions></trkpt>
      <trkpt lon="-3.157053" lat="53.008919"><ele>472.380615</ele><time>2021-09-01T11:17:21Z</time><extensions><speed>1.286934</speed><course>116.725777</course><hAcc>0.886667</hAcc><vAcc>0.709599</vAcc></extensions></trkpt>
      <trkpt lon="-3.157041" lat="53.008910"><ele>472.319214</ele><time>2021-09-01T11:17:22Z</time><extensions><speed>1.291214</speed><course>116.725784</course><hAcc>0.886868</hAcc><vAcc>0.710148</vAcc></extensions></trkpt>
      <trkpt lon="-3.157029" lat="53.008901"><ele>472.261169</ele><time>2021-09-01T11:17:23Z</time><extensions><speed>1.297289</speed><course>116.725784</course><hAcc>0.887029</hAcc><vAcc>0.710608</vAcc></extensions></trkpt>
      <trkpt lon="-3.157017" lat="53.008891"><ele>472.206696</ele><time>2021-09-01T11:17:24Z</time><extensions><speed>1.304860</speed><course>116.725784</course><hAcc>0.887158</hAcc><vAcc>0.711003</vAcc></extensions></trkpt>
      <trkpt lon="-3.157005" lat="53.008882"><ele>472.155640</ele><time>2021-09-01T11:17:25Z</time><extensions><speed>1.313603</speed><course>116.725784</course><hAcc>0.887264</hAcc><vAcc>0.711347</vAcc></extensions></trkpt>
      <trkpt lon="-3.156993" lat="53.008873"><ele>472.107513</ele><time>2021-09-01T11:17:26Z</time><extensions><speed>1.323535</speed><course>116.725784</course><hAcc>0.887350</hAcc><vAcc>0.711646</vAcc></extensions></trkpt>
      <trkpt lon="-3.156980" lat="53.008863"><ele>472.061676</ele><time>2021-09-01T11:17:27Z</time><extensions><speed>1.334370</speed><course>116.725784</course><hAcc>0.887421</hAcc><vAcc>0.711896</vAcc></extensions></trkpt>
      <trkpt lon="-3.156968" lat="53.008854"><ele>472.017609</ele><time>2021-09-01T11:17:28Z</time><extensions><speed>1.345257</speed><course>116.725784</course><hAcc>0.887479</hAcc><vAcc>0.712093</vAcc></extensions></trkpt>
      <trkpt lon="-3.156956" lat="53.008844"><ele>471.975098</ele><time>2021-09-01T11:17:29Z</time><extensions><speed>1.355307</speed><course>116.725784</course><hAcc>0.887525</hAcc><vAcc>0.712235</vAcc></extensions></trkpt>
      <trkpt lon="-3.156944" lat="53.008835"><ele>471.933929</ele><time>2021-09-01T11:17:30Z</time><extensions><speed>1.363596</speed><course>116.725784</course><hAcc>0.887561</hAcc><vAcc>0.712326</vAcc></extensions></trkpt>
      <trkpt lon="-3.156931" lat="53.008825"><ele>471.893799</ele><time>2021-09-01T11:17:31Z</time><extensions><speed>1.369531</speed><course>116.725784</course><hAcc>0.887589</hAcc><vAcc>0.712372</vAcc></extensions></trkpt>
      <trkpt lon="-3.156919" lat="53.008815"><ele>471.854370</ele><time>2021-09-01T11:17:32Z</time><extensions><speed>1.373040</speed><course>116.725784</course><hAcc>0.887611</hAcc><vAcc>0.712384</vAcc></extensions></trkpt>
      <trkpt lon="-3.156908" lat="53.008805"><ele>471.815613</ele><time>2021-09-01T11:17:33Z</time><extensions><speed>1.374342</speed><course>116.725784</course><hAcc>0.887629</hAcc><vAcc>0.712373</vAcc></extensions></trkpt>
      <trkpt lon="-3.156896" lat="53.008795"><ele>471.777466</ele><time>2021-09-01T11:17:34Z</time><extensions><speed>1.373853</speed><course>116.725784</course><hAcc>0.887646</hAcc><vAcc>0.712353</vAcc></extensions></trkpt>
      <trkpt lon="-3.156885" lat="53.008784"><ele>471.739594</ele><time>2021-09-01T11:17:36Z</time><extensions><speed>1.371838</speed><course>116.725784</course><hAcc>0.887647</hAcc><vAcc>0.712324</vAcc></extensions></trkpt>
      <trkpt lon="-3.156874" lat="53.008774"><ele>471.701416</ele><time>2021-09-01T11:17:37Z</time><extensions><speed>1.368719</speed><course>116.725784</course><hAcc>0.887632</hAcc><vAcc>0.712297</vAcc></extensions></trkpt>
      <trkpt lon="-3.156864" lat="53.008763"><ele>471.661957</ele><time>2021-09-01T11:17:38Z</time><extensions><speed>1.365874</speed><course>116.725784</course><hAcc>0.887622</hAcc><vAcc>0.712290</vAcc></extensions></trkpt>
      <trkpt lon="-3.156854" lat="53.008752"><ele>471.620361</ele><time>2021-09-01T11:17:39Z</time><extensions><speed>1.364472</speed><course>116.725784</course><hAcc>0.887618</hAcc><vAcc>0.712304</vAcc></extensions></trkpt>
      <trkpt lon="-3.156845" lat="53.008741"><ele>471.575623</ele><time>2021-09-01T11:17:40Z</time><extensions><speed>1.364404</speed><course>116.725777</course><hAcc>0.887620</hAcc><vAcc>0.712338</vAcc></extensions></trkpt>
      <trkpt lon="-3.156837" lat="53.008730"><ele>471.526794</ele><time>2021-09-01T11:17:41Z</time><extensions><speed>1.364799</speed><course>116.725769</course><hAcc>0.887628</hAcc><vAcc>0.712393</vAcc></extensions></trkpt>
      <trkpt lon="-3.156828" lat="53.008719"><ele>471.472931</ele><time>2021-09-01T11:17:42Z</time><extensions><speed>1.364869</speed><course>116.725769</course><hAcc>0.887643</hAcc><vAcc>0.712469</vAcc></extensions></trkpt>
      <trkpt lon="-3.156820" lat="53.008708"><ele>471.413361</ele><time>2021-09-01T11:17:43Z</time><extensions><speed>1.364711</speed><course>116.725761</course><hAcc>0.887664</hAcc><vAcc>0.712566</vAcc></extensions></trkpt>
      <trkpt lon="-3.156813" lat="53.008696"><ele>471.347626</ele><time>2021-09-01T11:17:43Z</time><extensions><speed>1.365047</speed><course>116.725754</course><hAcc>0.887709</hAcc><vAcc>0.712698</vAcc></extensions></trkpt>
      <trkpt lon="-3.156806" lat="53.008685"><ele>471.275513</ele><time>2021-09-01T11:17:44Z</time><extensions><speed>1.366238</speed><course>116.725746</course><hAcc>0.887779</hAcc><vAcc>0.712871</vAcc></extensions></trkpt>
      <trkpt lon="-3.156800" lat="53.008673"><ele>471.197388</ele><time>2021-09-01T11:17:45Z</time><extensions><speed>1.368141</speed><course>116.725746</course><hAcc>0.887857</hAcc><vAcc>0.713077</vAcc></extensions></trkpt>
      <trkpt lon="-3.156794" lat="53.008661"><ele>471.114044</ele><time>2021-09-01T11:17:46Z</time><extensions><speed>1.370341</speed><course>116.725731</course><hAcc>0.887942</hAcc><vAcc>0.713321</vAcc></extensions></trkpt>
      <trkpt lon="-3.156788" lat="53.008650"><ele>471.026459</ele><time>2021-09-01T11:17:47Z</time><extensions><speed>1.372091</speed><course>116.725723</course><hAcc>0.888035</hAcc><vAcc>0.713607</vAcc></extensions></trkpt>
      <trkpt lon="-3.156783" lat="53.008638"><ele>470.935394</ele><time>2021-09-01T11:17:48Z</time><extensions><speed>1.372597</speed><course>116.725723</course><hAcc>0.888133</hAcc><vAcc>0.713932</vAcc></extensions></trkpt>
      <trkpt lon="-3.156778" lat="53.008626"><ele>470.841797</ele><time>2021-09-01T11:17:49Z</time><extensions><speed>1.371259</speed><course>116.725708</course><hAcc>0.888236</hAcc><vAcc>0.714293</vAcc></extensions></trkpt>
      <trkpt lon="-3.156774" lat="53.008614"><ele>470.746521</ele><time>2021-09-01T11:17:50Z</time><extensions><speed>1.367377</speed><course>116.725700</course><hAcc>0.888341</hAcc><vAcc>0.714677</vAcc></extensions></trkpt>
      <trkpt lon="-3.156770" lat="53.008602"><ele>470.650269</ele><time>2021-09-01T11:17:51Z</time><extensions><speed>1.360549</speed><course>116.725693</course><hAcc>0.888445</hAcc><vAcc>0.715070</vAcc></extensions></trkpt>
      <trkpt lon="-3.156766" lat="53.008590"><ele>470.553680</ele><time>2021-09-01T11:17:52Z</time><extensions><speed>1.350987</speed><course>116.725685</course><hAcc>0.888545</hAcc><vAcc>0.715449</vAcc></extensions></trkpt>
      <trkpt lon="-3.156762" lat="53.008578"><ele>470.457336</ele><time>2021-09-01T11:17:53Z</time><extensions><speed>1.339011</speed><course>116.725670</course><hAcc>0.888638</hAcc><vAcc>0.715795</vAcc></extensions></trkpt>
      <trkpt lon="-3.156758" lat="53.008566"><ele>470.361816</ele><time>2021-09-01T11:17:54Z</time><extensions><speed>1.325083</speed><course>116.725670</course><hAcc>0.888722</hAcc><vAcc>0.716092</vAcc></extensions></trkpt>
      <trkpt lon="-3.156754" lat="53.008554"><ele>470.267487</ele><time>2021-09-01T11:17:55Z</time><extensions><speed>1.310174</speed><course>116.725662</course><hAcc>0.888794</hAcc><vAcc>0.716331</vAcc></extensions></trkpt>
      <trkpt lon="-3.156751" lat="53.008543"><ele>470.174591</ele><time>2021-09-01T11:17:56Z</time><extensions><speed>1.295334</speed><course>316.510925</course><hAcc>0.888854</hAcc><vAcc>0.716505</vAcc></extensions></trkpt>
      <trkpt lon="-3.156747" lat="53.008532"><ele>470.083191</ele><time>2021-09-01T11:17:57Z</time><extensions><speed>1.281083</speed><course>325.771881</course><hAcc>0.888899</hAcc><vAcc>0.716618</vAcc></extensions></trkpt>
      <trkpt lon="-3.156742" lat="53.008520"><ele>469.993073</ele><time>2021-09-01T11:17:58Z</time><extensions><speed>1.267766</speed><course>329.412018</course><hAcc>0.888930</hAcc><vAcc>0.716682</vAcc></extensions></trkpt>
      <trkpt lon="-3.156738" lat="53.008509"><ele>469.904205</ele><time>2021-09-01T11:17:59Z</time><extensions><speed>1.255889</speed><course>328.807678</course><hAcc>0.888947</hAcc><vAcc>0.716706</vAcc></extensions></trkpt>
      <trkpt lon="-3.156734" lat="53.008498"><ele>469.816498</ele><time>2021-09-01T11:18:00Z</time><extensions><speed>1.245675</speed><course>328.238739</course><hAcc>0.888951</hAcc><vAcc>0.716699</vAcc></extensions></trkpt>
      <trkpt lon="-3.156729" lat="53.008488"><ele>469.729767</ele><time>2021-09-01T11:18:01Z</time><extensions><speed>1.237318</speed><course>328.754333</course><hAcc>0.888944</hAcc><vAcc>0.716662</vAcc></extensions></trkpt>
      <trkpt lon="-3.156724" lat="53.008477"><ele>469.643402</ele><time>2021-09-01T11:18:02Z</time><extensions><speed>1.231572</speed><course>321.291412</course><hAcc>0.888928</hAcc><vAcc>0.716598</vAcc></extensions></trkpt>
      <trkpt lon="-3.156719" lat="53.008466"><ele>469.556641</ele><time>2021-09-01T11:18:03Z</time><extensions><speed>1.228629</speed><course>315.163422</course><hAcc>0.888906</hAcc><vAcc>0.716507</vAcc></extensions></trkpt>
      <trkpt lon="-3.156715" lat="53.008456"><ele>469.468781</ele><time>2021-09-01T11:18:04Z</time><extensions><speed>1.228271</speed><course>320.356079</course><hAcc>0.888882</hAcc><vAcc>0.716393</vAcc></extensions></trkpt>
      <trkpt lon="-3.156710" lat="53.008445"><ele>469.378967</ele><time>2021-09-01T11:18:05Z</time><extensions><speed>1.230460</speed><course>314.759003</course><hAcc>0.888858</hAcc><vAcc>0.716268</vAcc></extensions></trkpt>
      <trkpt lon="-3.156705" lat="53.008434"><ele>469.286774</ele><time>2021-09-01T11:18:06Z</time><extensions><speed>1.235132</speed><course>306.430359</course><hAcc>0.888837</hAcc><vAcc>0.716143</vAcc></extensions></trkpt>
      <trkpt lon="-3.156700" lat="53.008424"><ele>469.191986</ele><time>2021-09-01T11:18:07Z</time><extensions><speed>1.242142</speed><course>312.642456</course><hAcc>0.888823</hAcc><vAcc>0.716033</vAcc></extensions></trkpt>
      <trkpt lon="-3.156696" lat="53.008413"><ele>469.094360</ele><time>2021-09-01T11:18:08Z</time><extensions><speed>1.251103</speed><course>309.329712</course><hAcc>0.888818</hAcc><vAcc>0.715950</vAcc></extensions></trkpt>
      <trkpt lon="-3.156691" lat="53.008402"><ele>468.993500</ele><time>2021-09-01T11:18:10Z</time><extensions><speed>1.261577</speed><course>306.517120</course><hAcc>0.888808</hAcc><vAcc>0.715891</vAcc></extensions></trkpt>
      <trkpt lon="-3.156686" lat="53.008391"><ele>468.889160</ele><time>2021-09-01T11:18:11Z</time><extensions><speed>1.272475</speed><course>302.169647</course><hAcc>0.888793</hAcc><vAcc>0.715864</vAcc></extensions></trkpt>
      <trkpt lon="-3.156682" lat="53.008380"><ele>468.781006</ele><time>2021-09-01T11:18:12Z</time><extensions><speed>1.282635</speed><course>299.953156</course><hAcc>0.888792</hAcc><vAcc>0.715887</vAcc></extensions></trkpt>
      <trkpt lon="-3.156677" lat="53.008368"><ele>468.669037</ele><time>2021-09-01T11:18:13Z</time><extensions><speed>1.291685</speed><course>299.473511</course><hAcc>0.888806</hAcc><vAcc>0.715958</vAcc></extensions></trkpt>
      <trkpt lon="-3.156672" lat="53.008357"><ele>468.553467</ele><time>2021-09-01T11:18:14Z</time><extensions><speed>1.299680</speed><course>298.103729</course><hAcc>0.888833</hAcc><vAcc>0.716072</vAcc></extensions></trkpt>
      <trkpt lon="-3.156667" lat="53.008346"><ele>468.434601</ele><time>2021-09-01T11:18:15Z</time><extensions><speed>1.306601</speed><course>294.101929</course><hAcc>0.888873</hAcc><vAcc>0.716226</vAcc></extensions></trkpt>
      <trkpt lon="-3.156662" lat="53.008334"><ele>468.312378</ele><time>2021-09-01T11:18:16Z</time><extensions><speed>1.311977</speed><course>298.669067</course><hAcc>0.888924</hAcc><vAcc>0.716416</vAcc></extensions></trkpt>
      <trkpt lon="-3.156656" lat="53.008323"><ele>468.186401</ele><time>2021-09-01T11:18:17Z</time><extensions><speed>1.315215</speed><course>297.460327</course><hAcc>0.888984</hAcc><vAcc>0.716638</vAcc></extensions></trkpt>
      <trkpt lon="-3.156650" lat="53.008312"><ele>468.056274</ele><time>2021-09-01T11:18:18Z</time><extensions><speed>1.315904</speed><course>300.643127</course><hAcc>0.889050</hAcc><vAcc>0.716883</vAcc></extensions></trkpt>
      <trkpt lon="-3.156644" lat="53.008301"><ele>467.921906</ele><time>2021-09-01T11:18:19Z</time><extensions><speed>1.313965</speed><course>300.762909</course><hAcc>0.889120</hAcc><vAcc>0.717143</vAcc></extensions></trkpt>
      <trkpt lon="-3.156638" lat="53.008289"><ele>467.783722</ele><time>2021-09-01T11:18:20Z</time><extensions><speed>1.309730</speed><course>306.221161</course><hAcc>0.889192</hAcc><vAcc>0.717403</vAcc></extensions></trkpt>
      <trkpt lon="-3.156632" lat="53.008278"><ele>467.642212</ele><time>2021-09-01T11:18:21Z</time><extensions><speed>1.303351</speed><course>311.753571</course><hAcc>0.889264</hAcc><vAcc>0.717655</vAcc></extensions></trkpt>
      <trkpt lon="-3.156626" lat="53.008267"><ele>467.497498</ele><time>2021-09-01T11:18:22Z</time><extensions><speed>1.295097</speed><course>314.039551</course><hAcc>0.889332</hAcc><vAcc>0.717891</vAcc></extensions></trkpt>
      <trkpt lon="-3.156620" lat="53.008256"><ele>467.349426</ele><time>2021-09-01T11:18:23Z</time><extensions><speed>1.284938</speed><course>316.125336</course><hAcc>0.889396</hAcc><vAcc>0.718106</vAcc></extensions></trkpt>
      <trkpt lon="-3.156613" lat="53.008245"><ele>467.197723</ele><time>2021-09-01T11:18:24Z</time><extensions><speed>1.272447</speed><course>313.054962</course><hAcc>0.889451</hAcc><vAcc>0.718298</vAcc></extensions></trkpt>
      <trkpt lon="-3.156608" lat="53.008235"><ele>467.042328</ele><time>2021-09-01T11:18:25Z</time><extensions><speed>1.257774</speed><course>309.718231</course><hAcc>0.889498</hAcc><vAcc>0.718466</vAcc></extensions></trkpt>
      <trkpt lon="-3.156602" lat="53.008224"><ele>466.883453</ele><time>2021-09-01T11:18:26Z</time><extensions><speed>1.241164</speed><course>315.993652</course><hAcc>0.889535</hAcc><vAcc>0.718605</vAcc></extensions></trkpt>
      <trkpt lon="-3.156596" lat="53.008213"><ele>466.721771</ele><time>2021-09-01T11:18:27Z</time><extensions><speed>1.223479</speed><course>314.639465</course><hAcc>0.889561</hAcc><vAcc>0.718708</vAcc></extensions></trkpt>
      <trkpt lon="-3.156591" lat="53.008203"><ele>466.558075</ele><time>2021-09-01T11:18:28Z</time><extensions><speed>1.206226</speed><course>314.699524</course><hAcc>0.889577</hAcc><vAcc>0.718767</vAcc></extensions></trkpt>
      <trkpt lon="-3.156585" lat="53.008193"><ele>466.393219</ele><time>2021-09-01T11:18:29Z</time><extensions><speed>1.190945</speed><course>315.537170</course><hAcc>0.889584</hAcc><vAcc>0.718780</vAcc></extensions></trkpt>
      <trkpt lon="-3.156580" lat="53.008183"><ele>466.228027</ele><time>2021-09-01T11:18:30Z</time><extensions><speed>1.179080</speed><course>315.384186</course><hAcc>0.889584</hAcc><vAcc>0.718749</vAcc></extensions></trkpt>
      <trkpt lon="-3.156574" lat="53.008173"><ele>466.063263</ele><time>2021-09-01T11:18:31Z</time><extensions><speed>1.171444</speed><course>316.068207</course><hAcc>0.889577</hAcc><vAcc>0.718683</vAcc></extensions></trkpt>
      <trkpt lon="-3.156569" lat="53.008163"><ele>465.899719</ele><time>2021-09-01T11:18:32Z</time><extensions><speed>1.168404</speed><course>319.526184</course><hAcc>0.889565</hAcc><vAcc>0.718596</vAcc></extensions></trkpt>
      <trkpt lon="-3.156563" lat="53.008153"><ele>465.738434</ele><time>2021-09-01T11:18:33Z</time><extensions><speed>1.170209</speed><course>322.032959</course><hAcc>0.889550</hAcc><vAcc>0.718500</vAcc></extensions></trkpt>
      <trkpt lon="-3.156556" lat="53.008143"><ele>465.580292</ele><time>2021-09-01T11:18:34Z</time><extensions><speed>1.176708</speed><course>326.209290</course><hAcc>0.889533</hAcc><vAcc>0.718408</vAcc></extensions></trkpt>
      <trkpt lon="-3.156549" lat="53.008133"><ele>465.425995</ele><time>2021-09-01T11:18:35Z</time><extensions><speed>1.187195</speed><course>324.142303</course><hAcc>0.889516</hAcc><vAcc>0.718329</vAcc></extensions></trkpt>
      <trkpt lon="-3.156542" lat="53.008123"><ele>465.275909</ele><time>2021-09-01T11:18:36Z</time><extensions><speed>1.200509</speed><course>332.193542</course><hAcc>0.889500</hAcc><vAcc>0.718269</vAcc></extensions></trkpt>
      <trkpt lon="-3.156534" lat="53.008114"><ele>465.129883</ele><time>2021-09-01T11:18:37Z</time><extensions><speed>1.214952</speed><course>329.558014</course><hAcc>0.889484</hAcc><vAcc>0.718230</vAcc></extensions></trkpt>
      <trkpt lon="-3.156525" lat="53.008104"><ele>464.987305</ele><time>2021-09-01T11:18:38Z</time><extensions><speed>1.228553</speed><course>323.309692</course><hAcc>0.889467</hAcc><vAcc>0.718209</vAcc></extensions></trkpt>
      <trkpt lon="-3.156516" lat="53.008095"><ele>464.847565</ele><time>2021-09-01T11:18:39Z</time><extensions><speed>1.239401</speed><course>319.992767</course><hAcc>0.889447</hAcc><vAcc>0.718199</vAcc></extensions></trkpt>
      <trkpt lon="-3.156506" lat="53.008085"><ele>464.710083</ele><time>2021-09-01T11:18:40Z</time><extensions><speed>1.246145</speed><course>322.539886</course><hAcc>0.889424</hAcc><vAcc>0.718186</vAcc></extensions></trkpt>
      <trkpt lon="-3.156496" lat="53.008076"><ele>464.574585</ele><time>2021-09-01T11:18:41Z</time><extensions><speed>1.247885</speed><course>317.532928</course><hAcc>0.889395</hAcc><vAcc>0.718153</vAcc></extensions></trkpt>
      <trkpt lon="-3.156486" lat="53.008066"><ele>464.440948</ele><time>2021-09-01T11:18:42Z</time><extensions><speed>1.244505</speed><course>314.725220</course><hAcc>0.889358</hAcc><vAcc>0.718084</vAcc></extensions></trkpt>
      <trkpt lon="-3.156476" lat="53.008057"><ele>464.309540</ele><time>2021-09-01T11:18:43Z</time><extensions><speed>1.236608</speed><course>325.463684</course><hAcc>0.889312</hAcc><vAcc>0.717967</vAcc></extensions></trkpt>
      <trkpt lon="-3.156465" lat="53.008048"><ele>464.180939</ele><time>2021-09-01T11:18:44Z</time><extensions><speed>1.224696</speed><course>326.490570</course><hAcc>0.889256</hAcc><vAcc>0.717795</vAcc></extensions></trkpt>
      <trkpt lon="-3.156455" lat="53.008039"><ele>464.055389</ele><time>2021-09-01T11:18:45Z</time><extensions><speed>1.209525</speed><course>316.111328</course><hAcc>0.889191</hAcc><vAcc>0.717569</vAcc></extensions></trkpt>
      <trkpt lon="-3.156444" lat="53.008030"><ele>463.932495</ele><time>2021-09-01T11:18:46Z</time><extensions><speed>1.192200</speed><course>316.470520</course><hAcc>0.889116</hAcc><vAcc>0.717291</vAcc></extensions></trkpt>
      <trkpt lon="-3.156434" lat="53.008021"><ele>463.811493</ele><time>2021-09-01T11:18:47Z</time><extensions><speed>1.174085</speed><course>317.921600</course><hAcc>0.889034</hAcc><vAcc>0.716974</vAcc></extensions></trkpt>
      <trkpt lon="-3.156425" lat="53.008013"><ele>463.691345</ele><time>2021-09-01T11:18:48Z</time><extensions><speed>1.156268</speed><course>317.925903</course><hAcc>0.888948</hAcc><vAcc>0.716634</vAcc></extensions></trkpt>
      <trkpt lon="-3.156415" lat="53.008004"><ele>463.571106</ele><time>2021-09-01T11:18:49Z</time><extensions><speed>1.139315</speed><course>316.840515</course><hAcc>0.888861</hAcc><vAcc>0.716287</vAcc></extensions></trkpt>
      <trkpt lon="-3.156406" lat="53.007996"><ele>463.450226</ele><time>2021-09-01T11:18:50Z</time><extensions><speed>1.124076</speed><course>321.987762</course><hAcc>0.888776</hAcc><vAcc>0.715953</vAcc></extensions></trkpt>
      <trkpt lon="-3.156397" lat="53.007987"><ele>463.328583</ele><time>2021-09-01T11:18:51Z</time><extensions><speed>1.111233</speed><course>314.291290</course><hAcc>0.888695</hAcc><vAcc>0.715647</vAcc></extensions></trkpt>
      <trkpt lon="-3.156389" lat="53.007979"><ele>463.206085</ele><time>2021-09-01T11:18:52Z</time><extensions><speed>1.100821</speed><course>311.665222</course><hAcc>0.888621</hAcc><vAcc>0.715386</vAcc></extensions></trkpt>
      <trkpt lon="-3.156380" lat="53.007970"><ele>463.082397</ele><time>2021-09-01T11:18:53Z</time><extensions><speed>1.092112</speed><course>315.645782</course><hAcc>0.888556</hAcc><vAcc>0.715176</vAcc></extensions></trkpt>
      <trkpt lon="-3.156372" lat="53.007962"><ele>462.957245</ele><time>2021-09-01T11:18:54Z</time><extensions><speed>1.084191</speed><course>312.390594</course><hAcc>0.888500</hAcc><vAcc>0.715020</vAcc></extensions></trkpt>
      <trkpt lon="-3.156364" lat="53.007953"><ele>462.830536</ele><time>2021-09-01T11:18:55Z</time><extensions><speed>1.076717</speed><course>315.968140</course><hAcc>0.888453</hAcc><vAcc>0.714910</vAcc></extensions></trkpt>
      <trkpt lon="-3.156357" lat="53.007945"><ele>462.702423</ele><time>2021-09-01T11:18:56Z</time><extensions><speed>1.069745</speed><course>305.843231</course><hAcc>0.888413</hAcc><vAcc>0.714835</vAcc></extensions></trkpt>
      <trkpt lon="-3.156350" lat="53.007936"><ele>462.573090</ele><time>2021-09-01T11:18:57Z</time><extensions><speed>1.063820</speed><course>307.428955</course><hAcc>0.888381</hAcc><vAcc>0.714779</vAcc></extensions></trkpt>
      <trkpt lon="-3.156342" lat="53.007928"><ele>462.442810</ele><time>2021-09-01T11:18:58Z</time><extensions><speed>1.059349</speed><course>303.591888</course><hAcc>0.888353</hAcc><vAcc>0.714729</vAcc></extensions></trkpt>
      <trkpt lon="-3.156335" lat="53.007919"><ele>462.312134</ele><time>2021-09-01T11:18:59Z</time><extensions><speed>1.056388</speed><course>302.311584</course><hAcc>0.888328</hAcc><vAcc>0.714674</vAcc></extensions></trkpt>
      <trkpt lon="-3.156328" lat="53.007911"><ele>462.181885</ele><time>2021-09-01T11:19:00Z</time><extensions><speed>1.055170</speed><course>296.010498</course><hAcc>0.888305</hAcc><vAcc>0.714607</vAcc></extensions></trkpt>
      <trkpt lon="-3.156322" lat="53.007902"><ele>462.052948</ele><time>2021-09-01T11:19:01Z</time><extensions><speed>1.055717</speed><course>298.597748</course><hAcc>0.888282</hAcc><vAcc>0.714529</vAcc></extensions></trkpt>
      <trkpt lon="-3.156315" lat="53.007894"><ele>461.925903</ele><time>2021-09-01T11:19:02Z</time><extensions><speed>1.057809</speed><course>307.419373</course><hAcc>0.888259</hAcc><vAcc>0.714440</vAcc></extensions></trkpt>
      <trkpt lon="-3.156308" lat="53.007885"><ele>461.801178</ele><time>2021-09-01T11:19:03Z</time><extensions><speed>1.061077</speed><course>311.127045</course><hAcc>0.888236</hAcc><vAcc>0.714346</vAcc></extensions></trkpt>
      <trkpt lon="-3.156301" lat="53.007877"><ele>461.678864</ele><time>2021-09-01T11:19:04Z</time><extensions><speed>1.065494</speed><course>308.779785</course><hAcc>0.888212</hAcc><vAcc>0.714250</vAcc></extensions></trkpt>
      <trkpt lon="-3.156293" lat="53.007868"><ele>461.558777</ele><time>2021-09-01T11:19:05Z</time><extensions><speed>1.071498</speed><course>310.817932</course><hAcc>0.888189</hAcc><vAcc>0.714157</vAcc></extensions></trkpt>
      <trkpt lon="-3.156286" lat="53.007859"><ele>461.440399</ele><time>2021-09-01T11:19:06Z</time><extensions><speed>1.079470</speed><course>313.903961</course><hAcc>0.888168</hAcc><vAcc>0.714072</vAcc></extensions></trkpt>
      <trkpt lon="-3.156278" lat="53.007851"><ele>461.323059</ele><time>2021-09-01T11:19:07Z</time><extensions><speed>1.089823</speed><course>312.113068</course><hAcc>0.888149</hAcc><vAcc>0.713998</vAcc></extensions></trkpt>
      <trkpt lon="-3.156270" lat="53.007842"><ele>461.206268</ele><time>2021-09-01T11:19:08Z</time><extensions><speed>1.102912</speed><course>298.693726</course><hAcc>0.888133</hAcc><vAcc>0.713941</vAcc></extensions></trkpt>
      <trkpt lon="-3.156262" lat="53.007834"><ele>461.089355</ele><time>2021-09-01T11:19:09Z</time><extensions><speed>1.118496</speed><course>304.126526</course><hAcc>0.888119</hAcc><vAcc>0.713902</vAcc></extensions></trkpt>
      <trkpt lon="-3.156253" lat="53.007825"><ele>460.971710</ele><time>2021-09-01T11:19:10Z</time><extensions><speed>1.135815</speed><course>307.202972</course><hAcc>0.888107</hAcc><vAcc>0.713881</vAcc></extensions></trkpt>
      <trkpt lon="-3.156244" lat="53.007816"><ele>460.852570</ele><time>2021-09-01T11:19:11Z</time><extensions><speed>1.154318</speed><course>306.849365</course><hAcc>0.888098</hAcc><vAcc>0.713871</vAcc></extensions></trkpt>
      <trkpt lon="-3.156235" lat="53.007808"><ele>460.731110</ele><time>2021-09-01T11:19:12Z</time><extensions><speed>1.173028</speed><course>311.228149</course><hAcc>0.888088</hAcc><vAcc>0.713864</vAcc></extensions></trkpt>
      <trkpt lon="-3.156225" lat="53.007799"><ele>460.606720</ele><time>2021-09-01T11:19:13Z</time><extensions><speed>1.190375</speed><course>314.984741</course><hAcc>0.888078</hAcc><vAcc>0.713852</vAcc></extensions></trkpt>
      <trkpt lon="-3.156214" lat="53.007790"><ele>460.479187</ele><time>2021-09-01T11:19:14Z</time><extensions><speed>1.204993</speed><course>312.149628</course><hAcc>0.888065</hAcc><vAcc>0.713830</vAcc></extensions></trkpt>
      <trkpt lon="-3.156204" lat="53.007781"><ele>460.348663</ele><time>2021-09-01T11:19:15Z</time><extensions><speed>1.215896</speed><course>303.811646</course><hAcc>0.888046</hAcc><vAcc>0.713790</vAcc></extensions></trkpt>
      <trkpt lon="-3.156193" lat="53.007773"><ele>460.215210</ele><time>2021-09-01T11:19:16Z</time><extensions><speed>1.222576</speed><course>306.939087</course><hAcc>0.888019</hAcc><vAcc>0.713727</vAcc></extensions></trkpt>
      <trkpt lon="-3.156181" lat="53.007764"><ele>460.079041</ele><time>2021-09-01T11:19:17Z</time><extensions><speed>1.224832</speed><course>305.149933</course><hAcc>0.887982</hAcc><vAcc>0.713633</vAcc></extensions></trkpt>
      <trkpt lon="-3.156170" lat="53.007755"><ele>459.940643</ele><time>2021-09-01T11:19:18Z</time><extensions><speed>1.222767</speed><course>307.460999</course><hAcc>0.887932</hAcc><vAcc>0.713502</vAcc></extensions></trkpt>
      <trkpt lon="-3.156158" lat="53.007747"><ele>459.800568</ele><time>2021-09-01T11:19:19Z</time><extensions><speed>1.217016</speed><course>310.556549</course><hAcc>0.887867</hAcc><vAcc>0.713327</vAcc></extensions></trkpt>
      <trkpt lon="-3.156146" lat="53.007739"><ele>459.659454</ele><time>2021-09-01T11:19:20Z</time><extensions><speed>1.208258</speed><course>316.643463</course><hAcc>0.887786</hAcc><vAcc>0.713098</vAcc></extensions></trkpt>
      <trkpt lon="-3.156134" lat="53.007731"><ele>459.517303</ele><time>2021-09-01T11:19:21Z</time><extensions><speed>1.197180</speed><course>310.111420</course><hAcc>0.887688</hAcc><vAcc>0.712806</vAcc></extensions></trkpt>
      <trkpt lon="-3.156122" lat="53.007723"><ele>459.373444</ele><time>2021-09-01T11:19:22Z</time><extensions><speed>1.184302</speed><course>309.394775</course><hAcc>0.887573</hAcc><vAcc>0.712444</vAcc></extensions></trkpt>
      <trkpt lon="-3.156110" lat="53.007715"><ele>459.226929</ele><time>2021-09-01T11:19:23Z</time><extensions><speed>1.170275</speed><course>312.734375</course><hAcc>0.887443</hAcc><vAcc>0.712013</vAcc></extensions></trkpt>
      <trkpt lon="-3.156098" lat="53.007708"><ele>459.077545</ele><time>2021-09-01T11:19:24Z</time><extensions><speed>1.156446</speed><course>307.110260</course><hAcc>0.887298</hAcc><vAcc>0.711519</vAcc></extensions></trkpt>
      <trkpt lon="-3.156086" lat="53.007701"><ele>458.925476</ele><time>2021-09-01T11:19:25Z</time><extensions><speed>1.144046</speed><course>304.794312</course><hAcc>0.887141</hAcc><vAcc>0.710974</vAcc></extensions></trkpt>
      <trkpt lon="-3.156073" lat="53.007694"><ele>458.770721</ele><time>2021-09-01T11:19:26Z</time><extensions><speed>1.134506</speed><course>309.669006</course><hAcc>0.886976</hAcc><vAcc>0.710396</vAcc></extensions></trkpt>
      <trkpt lon="-3.156061" lat="53.007687"><ele>458.613434</ele><time>2021-09-01T11:19:27Z</time><extensions><speed>1.129439</speed><course>309.747101</course><hAcc>0.886806</hAcc><vAcc>0.709801</vAcc></extensions></trkpt>
      <trkpt lon="-3.156048" lat="53.007680"><ele>458.454315</ele><time>2021-09-01T11:19:28Z</time><extensions><speed>1.129838</speed><course>308.451904</course><hAcc>0.886638</hAcc><vAcc>0.709210</vAcc></extensions></trkpt>
      <trkpt lon="-3.156035" lat="53.007674"><ele>458.294525</ele><time>2021-09-01T11:19:29Z</time><extensions><speed>1.135952</speed><course>313.674774</course><hAcc>0.886475</hAcc><vAcc>0.708639</vAcc></extensions></trkpt>
      <trkpt lon="-3.156021" lat="53.007668"><ele>458.135498</ele><time>2021-09-01T11:19:30Z</time><extensions><speed>1.146837</speed><course>310.174561</course><hAcc>0.886321</hAcc><vAcc>0.708104</vAcc></extensions></trkpt>
      <trkpt lon="-3.156007" lat="53.007662"><ele>457.978912</ele><time>2021-09-01T11:19:31Z</time><extensions><speed>1.160992</speed><course>312.894348</course><hAcc>0.886183</hAcc><vAcc>0.707623</vAcc></extensions></trkpt>
      <trkpt lon="-3.155992" lat="53.007656"><ele>457.826172</ele><time>2021-09-01T11:19:32Z</time><extensions><speed>1.177827</speed><course>309.740997</course><hAcc>0.886063</hAcc><vAcc>0.707210</vAcc></extensions></trkpt>
      <trkpt lon="-3.155977" lat="53.007651"><ele>457.678467</ele><time>2021-09-01T11:19:33Z</time><extensions><speed>1.197793</speed><course>309.271240</course><hAcc>0.885964</hAcc><vAcc>0.706878</vAcc></extensions></trkpt>
      <trkpt lon="-3.155961" lat="53.007646"><ele>457.536652</ele><time>2021-09-01T11:19:34Z</time><extensions><speed>1.221018</speed><course>309.840485</course><hAcc>0.885888</hAcc><vAcc>0.706634</vAcc></extensions></trkpt>
      <trkpt lon="-3.155945" lat="53.007641"><ele>457.401459</ele><time>2021-09-01T11:19:35Z</time><extensions><speed>1.246687</speed><course>308.054108</course><hAcc>0.885837</hAcc><vAcc>0.706482</vAcc></extensions></trkpt>
      <trkpt lon="-3.155928" lat="53.007636"><ele>457.273773</ele><time>2021-09-01T11:19:36Z</time><extensions><speed>1.273655</speed><course>306.226685</course><hAcc>0.885812</hAcc><vAcc>0.706417</vAcc></extensions></trkpt>
      <trkpt lon="-3.155910" lat="53.007631"><ele>457.154449</ele><time>2021-09-01T11:19:37Z</time><extensions><speed>1.300132</speed><course>316.211884</course><hAcc>0.885811</hAcc><vAcc>0.706431</vAcc></extensions></trkpt>
      <trkpt lon="-3.155892" lat="53.007627"><ele>457.043701</ele><time>2021-09-01T11:19:38Z</time><extensions><speed>1.323801</speed><course>312.798523</course><hAcc>0.885833</hAcc><vAcc>0.706517</vAcc></extensions></trkpt>
      <trkpt lon="-3.155873" lat="53.007623"><ele>456.941254</ele><time>2021-09-01T11:19:39Z</time><extensions><speed>1.343181</speed><course>314.823364</course><hAcc>0.885878</hAcc><vAcc>0.706671</vAcc></extensions></trkpt>
      <trkpt lon="-3.155854" lat="53.007619"><ele>456.846924</ele><time>2021-09-01T11:19:40Z</time><extensions><speed>1.357750</speed><course>317.560303</course><hAcc>0.885942</hAcc><vAcc>0.706889</vAcc></extensions></trkpt>
      <trkpt lon="-3.155835" lat="53.007615"><ele>456.760376</ele><time>2021-09-01T11:19:41Z</time><extensions><speed>1.367335</speed><course>313.870911</course><hAcc>0.886024</hAcc><vAcc>0.707168</vAcc></extensions></trkpt>
      <trkpt lon="-3.155816" lat="53.007611"><ele>456.681183</ele><time>2021-09-01T11:19:42Z</time><extensions><speed>1.372481</speed><course>320.858917</course><hAcc>0.886121</hAcc><vAcc>0.707503</vAcc></extensions></trkpt>
      <trkpt lon="-3.155796" lat="53.007607"><ele>456.608521</ele><time>2021-09-01T11:19:43Z</time><extensions><speed>1.374155</speed><course>322.110107</course><hAcc>0.886229</hAcc><vAcc>0.707885</vAcc></extensions></trkpt>
      <trkpt lon="-3.155776" lat="53.007604"><ele>456.541321</ele><time>2021-09-01T11:19:44Z</time><extensions><speed>1.373066</speed><course>322.258118</course><hAcc>0.886346</hAcc><vAcc>0.708300</vAcc></extensions></trkpt>
      <trkpt lon="-3.155757" lat="53.007601"><ele>456.478363</ele><time>2021-09-01T11:19:45Z</time><extensions><speed>1.369478</speed><course>323.751770</course><hAcc>0.886467</hAcc><vAcc>0.708733</vAcc></extensions></trkpt>
      <trkpt lon="-3.155737" lat="53.007598"><ele>456.418640</ele><time>2021-09-01T11:19:46Z</time><extensions><speed>1.363698</speed><course>311.017761</course><hAcc>0.886589</hAcc><vAcc>0.709167</vAcc></extensions></trkpt>
      <trkpt lon="-3.155717" lat="53.007595"><ele>456.361298</ele><time>2021-09-01T11:19:47Z</time><extensions><speed>1.356209</speed><course>303.134949</course><hAcc>0.886709</hAcc><vAcc>0.709588</vAcc></extensions></trkpt>
      <trkpt lon="-3.155698" lat="53.007592"><ele>456.305634</ele><time>2021-09-01T11:19:48Z</time><extensions><speed>1.347449</speed><course>305.266266</course><hAcc>0.886824</hAcc><vAcc>0.709987</vAcc></extensions></trkpt>
      <trkpt lon="-3.155678" lat="53.007589"><ele>456.251556</ele><time>2021-09-01T11:19:49Z</time><extensions><speed>1.338478</speed><course>306.244568</course><hAcc>0.886931</hAcc><vAcc>0.710354</vAcc></extensions></trkpt>
      <trkpt lon="-3.155659" lat="53.007587"><ele>456.199188</ele><time>2021-09-01T11:19:50Z</time><extensions><speed>1.330360</speed><course>311.028961</course><hAcc>0.887029</hAcc><vAcc>0.710688</vAcc></extensions></trkpt>
      <trkpt lon="-3.155640" lat="53.007584"><ele>456.148621</ele><time>2021-09-01T11:19:51Z</time><extensions><speed>1.323396</speed><course>304.990997</course><hAcc>0.887114</hAcc><vAcc>0.710986</vAcc></extensions></trkpt>
      <trkpt lon="-3.155620" lat="53.007582"><ele>456.099884</ele><time>2021-09-01T11:19:51Z</time><extensions><speed>1.317060</speed><course>305.619354</course><hAcc>0.887205</hAcc><vAcc>0.711261</vAcc></extensions></trkpt>
      <trkpt lon="-3.155601" lat="53.007579"><ele>456.052887</ele><time>2021-09-01T11:19:52Z</time><extensions><speed>1.310468</speed><course>319.038269</course><hAcc>0.887300</hAcc><vAcc>0.711514</vAcc></extensions></trkpt>
      <trkpt lon="-3.155582" lat="53.007577"><ele>456.007629</ele><time>2021-09-01T11:19:53Z</time><extensions><speed>1.302793</speed><course>314.772644</course><hAcc>0.887383</hAcc><vAcc>0.711735</vAcc></extensions></trkpt>
      <trkpt lon="-3.155563" lat="53.007575"><ele>455.964081</ele><time>2021-09-01T11:19:54Z</time><extensions><speed>1.293448</speed><course>314.865356</course><hAcc>0.887455</hAcc><vAcc>0.711925</vAcc></extensions></trkpt>
      <trkpt lon="-3.155544" lat="53.007572"><ele>455.922455</ele><time>2021-09-01T11:19:55Z</time><extensions><speed>1.282820</speed><course>315.584076</course><hAcc>0.887516</hAcc><vAcc>0.712087</vAcc></extensions></trkpt>
      <trkpt lon="-3.155526" lat="53.007570"><ele>455.883423</ele><time>2021-09-01T11:19:56Z</time><extensions><speed>1.271689</speed><course>318.301117</course><hAcc>0.887567</hAcc><vAcc>0.712223</vAcc></extensions></trkpt>
      <trkpt lon="-3.155507" lat="53.007568"><ele>455.847900</ele><time>2021-09-01T11:19:57Z</time><extensions><speed>1.260856</speed><course>308.957520</course><hAcc>0.887608</hAcc><vAcc>0.712332</vAcc></extensions></trkpt>
      <trkpt lon="-3.155489" lat="53.007566"><ele>455.816803</ele><time>2021-09-01T11:19:58Z</time><extensions><speed>1.250950</speed><course>309.679749</course><hAcc>0.887640</hAcc><vAcc>0.712415</vAcc></extensions></trkpt>
      <trkpt lon="-3.155470" lat="53.007564"><ele>455.790619</ele><time>2021-09-01T11:20:00Z</time><extensions><speed>1.241918</speed><course>315.508118</course><hAcc>0.887644</hAcc><vAcc>0.712454</vAcc></extensions></trkpt>
      <trkpt lon="-3.155452" lat="53.007562"><ele>455.769745</ele><time>2021-09-01T11:20:01Z</time><extensions><speed>1.234148</speed><course>315.740204</course><hAcc>0.887620</hAcc><vAcc>0.712438</vAcc></extensions></trkpt>
      <trkpt lon="-3.155434" lat="53.007560"><ele>455.753784</ele><time>2021-09-01T11:20:02Z</time><extensions><speed>1.228561</speed><course>310.654785</course><hAcc>0.887585</hAcc><vAcc>0.712371</vAcc></extensions></trkpt>
      <trkpt lon="-3.155416" lat="53.007558"><ele>455.741852</ele><time>2021-09-01T11:20:03Z</time><extensions><speed>1.225043</speed><course>314.784058</course><hAcc>0.887537</hAcc><vAcc>0.712246</vAcc></extensions></trkpt>
      <trkpt lon="-3.155398" lat="53.007556"><ele>455.732697</ele><time>2021-09-01T11:20:04Z</time><extensions><speed>1.222633</speed><course>306.836517</course><hAcc>0.887476</hAcc><vAcc>0.712060</vAcc></extensions></trkpt>
      <trkpt lon="-3.155380" lat="53.007555"><ele>455.725281</ele><time>2021-09-01T11:20:05Z</time><extensions><speed>1.221290</speed><course>319.014709</course><hAcc>0.887403</hAcc><vAcc>0.711818</vAcc></extensions></trkpt>
      <trkpt lon="-3.155362" lat="53.007553"><ele>455.718781</ele><time>2021-09-01T11:20:06Z</time><extensions><speed>1.221664</speed><course>316.668060</course><hAcc>0.887317</hAcc><vAcc>0.711525</vAcc></extensions></trkpt>
      <trkpt lon="-3.155344" lat="53.007551"><ele>455.712311</ele><time>2021-09-01T11:20:07Z</time><extensions><speed>1.223702</speed><course>317.381256</course><hAcc>0.887220</hAcc><vAcc>0.711191</vAcc></extensions></trkpt>
      <trkpt lon="-3.155326" lat="53.007550"><ele>455.704163</ele><time>2021-09-01T11:20:08Z</time><extensions><speed>1.227176</speed><course>315.522644</course><hAcc>0.887114</hAcc><vAcc>0.710825</vAcc></extensions></trkpt>
      <trkpt lon="-3.155308" lat="53.007548"><ele>455.692413</ele><time>2021-09-01T11:20:09Z</time><extensions><speed>1.232136</speed><course>313.748596</course><hAcc>0.887002</hAcc><vAcc>0.710435</vAcc></extensions></trkpt>
      <trkpt lon="-3.155290" lat="53.007546"><ele>455.674988</ele><time>2021-09-01T11:20:10Z</time><extensions><speed>1.237691</speed><course>311.298676</course><hAcc>0.886886</hAcc><vAcc>0.710033</vAcc></extensions></trkpt>
      <trkpt lon="-3.155272" lat="53.007544"><ele>455.650238</ele><time>2021-09-01T11:20:11Z</time><extensions><speed>1.242613</speed><course>307.453308</course><hAcc>0.886767</hAcc><vAcc>0.709629</vAcc></extensions></trkpt>
      <trkpt lon="-3.155254" lat="53.007542"><ele>455.617035</ele><time>2021-09-01T11:20:12Z</time><extensions><speed>1.245945</speed><course>308.937561</course><hAcc>0.886648</hAcc><vAcc>0.709234</vAcc></extensions></trkpt>
      <trkpt lon="-3.155235" lat="53.007540"><ele>455.575073</ele><time>2021-09-01T11:20:13Z</time><extensions><speed>1.247427</speed><course>304.505646</course><hAcc>0.886530</hAcc><vAcc>0.708855</vAcc></extensions></trkpt>
      <trkpt lon="-3.155217" lat="53.007537"><ele>455.524445</ele><time>2021-09-01T11:20:14Z</time><extensions><speed>1.247690</speed><course>299.094574</course><hAcc>0.886415</hAcc><vAcc>0.708493</vAcc></extensions></trkpt>
      <trkpt lon="-3.155200" lat="53.007534"><ele>455.465790</ele><time>2021-09-01T11:20:15Z</time><extensions><speed>1.247842</speed><course>310.704071</course><hAcc>0.886302</hAcc><vAcc>0.708148</vAcc></extensions></trkpt>
      <trkpt lon="-3.155182" lat="53.007530"><ele>455.400208</ele><time>2021-09-01T11:20:16Z</time><extensions><speed>1.248539</speed><course>308.713898</course><hAcc>0.886194</hAcc><vAcc>0.707815</vAcc></extensions></trkpt>
      <trkpt lon="-3.155165" lat="53.007526"><ele>455.328949</ele><time>2021-09-01T11:20:17Z</time><extensions><speed>1.249083</speed><course>315.990417</course><hAcc>0.886088</hAcc><vAcc>0.707489</vAcc></extensions></trkpt>
      <trkpt lon="-3.155147" lat="53.007522"><ele>455.253387</ele><time>2021-09-01T11:20:18Z</time><extensions><speed>1.248710</speed><course>316.941956</course><hAcc>0.885986</hAcc><vAcc>0.707167</vAcc></extensions></trkpt>
      <trkpt lon="-3.155131" lat="53.007517"><ele>455.174896</ele><time>2021-09-01T11:20:19Z</time><extensions><speed>1.247234</speed><course>326.025696</course><hAcc>0.885888</hAcc><vAcc>0.706850</vAcc></extensions></trkpt>
      <trkpt lon="-3.155114" lat="53.007512"><ele>455.095215</ele><time>2021-09-01T11:20:20Z</time><extensions><speed>1.244505</speed><course>316.997101</course><hAcc>0.885793</hAcc><vAcc>0.706544</vAcc></extensions></trkpt>
      <trkpt lon="-3.155098" lat="53.007507"><ele>455.016357</ele><time>2021-09-01T11:20:21Z</time><extensions><speed>1.240051</speed><course>307.396637</course><hAcc>0.885702</hAcc><vAcc>0.706251</vAcc></extensions></trkpt>
      <trkpt lon="-3.155082" lat="53.007502"><ele>454.940460</ele><time>2021-09-01T11:20:22Z</time><extensions><speed>1.233289</speed><course>307.245117</course><hAcc>0.885614</hAcc><vAcc>0.705973</vAcc></extensions></trkpt>
      <trkpt lon="-3.155066" lat="53.007496"><ele>454.869476</ele><time>2021-09-01T11:20:23Z</time><extensions><speed>1.223395</speed><course>302.943970</course><hAcc>0.885532</hAcc><vAcc>0.705710</vAcc></extensions></trkpt>
      <trkpt lon="-3.155050" lat="53.007490"><ele>454.805145</ele><time>2021-09-01T11:20:24Z</time><extensions><speed>1.209364</speed><course>310.986115</course><hAcc>0.885455</hAcc><vAcc>0.705463</vAcc></extensions></trkpt>
      <trkpt lon="-3.155035" lat="53.007485"><ele>454.748688</ele><time>2021-09-01T11:20:25Z</time><extensions><speed>1.191285</speed><course>317.229156</course><hAcc>0.885385</hAcc><vAcc>0.705233</vAcc></extensions></trkpt>
      <trkpt lon="-3.155020" lat="53.007479"><ele>454.700592</ele><time>2021-09-01T11:20:26Z</time><extensions><speed>1.170083</speed><course>310.287506</course><hAcc>0.885324</hAcc><vAcc>0.705023</vAcc></extensions></trkpt>
      <trkpt lon="-3.155006" lat="53.007473"><ele>454.660706</ele><time>2021-09-01T11:20:27Z</time><extensions><speed>1.146324</speed><course>314.657898</course><hAcc>0.885274</hAcc><vAcc>0.704840</vAcc></extensions></trkpt>
      <trkpt lon="-3.154992" lat="53.007468"><ele>454.628235</ele><time>2021-09-01T11:20:28Z</time><extensions><speed>1.120848</speed><course>316.163879</course><hAcc>0.885237</hAcc><vAcc>0.704690</vAcc></extensions></trkpt>
      <trkpt lon="-3.154978" lat="53.007462"><ele>454.602234</ele><time>2021-09-01T11:20:29Z</time><extensions><speed>1.094791</speed><course>315.280670</course><hAcc>0.885217</hAcc><vAcc>0.704586</vAcc></extensions></trkpt>
      <trkpt lon="-3.154965" lat="53.007456"><ele>454.581512</ele><time>2021-09-01T11:20:30Z</time><extensions><speed>1.069273</speed><course>323.358459</course><hAcc>0.885215</hAcc><vAcc>0.704543</vAcc></extensions></trkpt>
      <trkpt lon="-3.154952" lat="53.007451"><ele>454.564362</ele><time>2021-09-01T11:20:31Z</time><extensions><speed>1.045422</speed><course>323.478973</course><hAcc>0.885234</hAcc><vAcc>0.704575</vAcc></extensions></trkpt>
      <trkpt lon="-3.154940" lat="53.007445"><ele>454.548706</ele><time>2021-09-01T11:20:32Z</time><extensions><speed>1.024233</speed><course>327.884216</course><hAcc>0.885274</hAcc><vAcc>0.704691</vAcc></extensions></trkpt>
      <trkpt lon="-3.154928" lat="53.007439"><ele>454.532013</ele><time>2021-09-01T11:20:33Z</time><extensions><speed>1.006724</speed><course>318.187775</course><hAcc>0.885337</hAcc><vAcc>0.704894</vAcc></extensions></trkpt>
      <trkpt lon="-3.154917" lat="53.007433"><ele>454.511658</ele><time>2021-09-01T11:20:34Z</time><extensions><speed>0.993816</speed><course>318.936035</course><hAcc>0.885420</hAcc><vAcc>0.705184</vAcc></extensions></trkpt>
      <trkpt lon="-3.154907" lat="53.007427"><ele>454.485046</ele><time>2021-09-01T11:20:35Z</time><extensions><speed>0.985974</speed><course>326.780121</course><hAcc>0.885523</hAcc><vAcc>0.705550</vAcc></extensions></trkpt>
      <trkpt lon="-3.154897" lat="53.007421"><ele>454.449799</ele><time>2021-09-01T11:20:36Z</time><extensions><speed>0.983146</speed><course>314.218445</course><hAcc>0.885641</hAcc><vAcc>0.705976</vAcc></extensions></trkpt>
      <trkpt lon="-3.154887" lat="53.007414"><ele>454.404175</ele><time>2021-09-01T11:20:37Z</time><extensions><speed>0.984906</speed><course>317.554047</course><hAcc>0.885770</hAcc><vAcc>0.706442</vAcc></extensions></trkpt>
      <trkpt lon="-3.154877" lat="53.007407"><ele>454.347198</ele><time>2021-09-01T11:20:38Z</time><extensions><speed>0.990026</speed><course>317.225586</course><hAcc>0.885906</hAcc><vAcc>0.706930</vAcc></extensions></trkpt>
      <trkpt lon="-3.154868" lat="53.007400"><ele>454.278381</ele><time>2021-09-01T11:20:39Z</time><extensions><speed>0.996979</speed><course>318.371796</course><hAcc>0.886043</hAcc><vAcc>0.707422</vAcc></extensions></trkpt>
      <trkpt lon="-3.154859" lat="53.007393"><ele>454.197235</ele><time>2021-09-01T11:20:40Z</time><extensions><speed>1.004780</speed><course>319.534454</course><hAcc>0.886178</hAcc><vAcc>0.707901</vAcc></extensions></trkpt>
      <trkpt lon="-3.154850" lat="53.007386"><ele>454.103577</ele><time>2021-09-01T11:20:41Z</time><extensions><speed>1.013188</speed><course>319.948578</course><hAcc>0.886304</hAcc><vAcc>0.708348</vAcc></extensions></trkpt>
      <trkpt lon="-3.154840" lat="53.007379"><ele>453.997192</ele><time>2021-09-01T11:20:42Z</time><extensions><speed>1.022070</speed><course>326.867279</course><hAcc>0.886418</hAcc><vAcc>0.708748</vAcc></extensions></trkpt>
      <trkpt lon="-3.154831" lat="53.007372"><ele>453.878326</ele><time>2021-09-01T11:20:43Z</time><extensions><speed>1.031137</speed><course>319.995087</course><hAcc>0.886517</hAcc><vAcc>0.709087</vAcc></extensions></trkpt>
      <trkpt lon="-3.154821" lat="53.007364"><ele>453.747894</ele><time>2021-09-01T11:20:44Z</time><extensions><speed>1.040204</speed><course>323.754486</course><hAcc>0.886600</hAcc><vAcc>0.709356</vAcc></extensions></trkpt>
      <trkpt lon="-3.154811" lat="53.007357"><ele>453.607300</ele><time>2021-09-01T11:20:45Z</time><extensions><speed>1.049060</speed><course>327.994751</course><hAcc>0.886666</hAcc><vAcc>0.709551</vAcc></extensions></trkpt>
      <trkpt lon="-3.154800" lat="53.007350"><ele>453.458435</ele><time>2021-09-01T11:20:46Z</time><extensions><speed>1.057377</speed><course>338.740143</course><hAcc>0.886715</hAcc><vAcc>0.709676</vAcc></extensions></trkpt>
      <trkpt lon="-3.154790" lat="53.007343"><ele>453.303436</ele><time>2021-09-01T11:20:47Z</time><extensions><speed>1.064489</speed><course>336.648224</course><hAcc>0.886748</hAcc><vAcc>0.709738</vAcc></extensions></trkpt>
      <trkpt lon="-3.154778" lat="53.007337"><ele>453.144348</ele><time>2021-09-01T11:20:48Z</time><extensions><speed>1.069758</speed><course>335.818359</course><hAcc>0.886768</hAcc><vAcc>0.709752</vAcc></extensions></trkpt>
      <trkpt lon="-3.154767" lat="53.007330"><ele>452.982727</ele><time>2021-09-01T11:20:49Z</time><extensions><speed>1.073020</speed><course>332.183533</course><hAcc>0.886778</hAcc><vAcc>0.709732</vAcc></extensions></trkpt>
      <trkpt lon="-3.154755" lat="53.007323"><ele>452.819611</ele><time>2021-09-01T11:20:50Z</time><extensions><speed>1.074463</speed><course>329.123840</course><hAcc>0.886780</hAcc><vAcc>0.709694</vAcc></extensions></trkpt>
      <trkpt lon="-3.154743" lat="53.007317"><ele>452.655609</ele><time>2021-09-01T11:20:51Z</time><extensions><speed>1.074566</speed><course>331.386230</course><hAcc>0.886776</hAcc><vAcc>0.709652</vAcc></extensions></trkpt>
      <trkpt lon="-3.154731" lat="53.007311"><ele>452.491547</ele><time>2021-09-01T11:20:52Z</time><extensions><speed>1.074195</speed><course>327.161377</course><hAcc>0.886768</hAcc><vAcc>0.709618</vAcc></extensions></trkpt>
      <trkpt lon="-3.154719" lat="53.007304"><ele>452.328735</ele><time>2021-09-01T11:20:53Z</time><extensions><speed>1.074172</speed><course>327.868042</course><hAcc>0.886757</hAcc><vAcc>0.709595</vAcc></extensions></trkpt>
      <trkpt lon="-3.154706" lat="53.007298"><ele>452.168762</ele><time>2021-09-01T11:20:54Z</time><extensions><speed>1.075420</speed><course>323.627838</course><hAcc>0.886744</hAcc><vAcc>0.709582</vAcc></extensions></trkpt>
      <trkpt lon="-3.154694" lat="53.007292"><ele>452.012726</ele><time>2021-09-01T11:20:55Z</time><extensions><speed>1.078677</speed><course>324.612000</course><hAcc>0.886729</hAcc><vAcc>0.709568</vAcc></extensions></trkpt>
      <trkpt lon="-3.154681" lat="53.007286"><ele>451.861053</ele><time>2021-09-01T11:20:56Z</time><extensions><speed>1.083904</speed><course>314.250275</course><hAcc>0.886711</hAcc><vAcc>0.709543</vAcc></extensions></trkpt>
      <trkpt lon="-3.154668" lat="53.007280"><ele>451.713684</ele><time>2021-09-01T11:20:57Z</time><extensions><speed>1.090253</speed><course>324.325928</course><hAcc>0.886688</hAcc><vAcc>0.709494</vAcc></extensions></trkpt>
      <trkpt lon="-3.154655" lat="53.007275"><ele>451.569824</ele><time>2021-09-01T11:20:58Z</time><extensions><speed>1.097273</speed><course>323.620239</course><hAcc>0.886661</hAcc><vAcc>0.709414</vAcc></extensions></trkpt>
      <trkpt lon="-3.154642" lat="53.007269"><ele>451.427887</ele><time>2021-09-01T11:20:59Z</time><extensions><speed>1.105063</speed><course>318.647095</course><hAcc>0.886629</hAcc><vAcc>0.709302</vAcc></extensions></trkpt>
      <trkpt lon="-3.154628" lat="53.007264"><ele>451.285797</ele><time>2021-09-01T11:21:00Z</time><extensions><speed>1.112880</speed><course>325.356964</course><hAcc>0.886590</hAcc><vAcc>0.709164</vAcc></extensions></trkpt>
      <trkpt lon="-3.154613" lat="53.007258"><ele>451.141663</ele><time>2021-09-01T11:21:01Z</time><extensions><speed>1.119636</speed><course>319.826599</course><hAcc>0.886543</hAcc><vAcc>0.709009</vAcc></extensions></trkpt>
      <trkpt lon="-3.154599" lat="53.007253"><ele>450.994415</ele><time>2021-09-01T11:21:02Z</time><extensions><speed>1.124565</speed><course>314.735016</course><hAcc>0.886490</hAcc><vAcc>0.708837</vAcc></extensions></trkpt>
      <trkpt lon="-3.154584" lat="53.007249"><ele>450.843506</ele><time>2021-09-01T11:21:03Z</time><extensions><speed>1.126879</speed><course>309.478760</course><hAcc>0.886429</hAcc><vAcc>0.708647</vAcc></extensions></trkpt>
      <trkpt lon="-3.154569" lat="53.007244"><ele>450.688812</ele><time>2021-09-01T11:21:04Z</time><extensions><speed>1.125883</speed><course>319.543488</course><hAcc>0.886361</hAcc><vAcc>0.708436</vAcc></extensions></trkpt>
      <trkpt lon="-3.154554" lat="53.007239"><ele>450.530823</ele><time>2021-09-01T11:21:05Z</time><extensions><speed>1.122145</speed><course>324.087982</course><hAcc>0.886288</hAcc><vAcc>0.708203</vAcc></extensions></trkpt>
      <trkpt lon="-3.154539" lat="53.007235"><ele>450.370667</ele><time>2021-09-01T11:21:06Z</time><extensions><speed>1.117163</speed><course>317.628326</course><hAcc>0.886210</hAcc><vAcc>0.707949</vAcc></extensions></trkpt>
      <trkpt lon="-3.154524" lat="53.007231"><ele>450.210052</ele><time>2021-09-01T11:21:07Z</time><extensions><speed>1.112122</speed><course>311.843903</course><hAcc>0.886130</hAcc><vAcc>0.707678</vAcc></extensions></trkpt>
      <trkpt lon="-3.154509" lat="53.007227"><ele>450.051025</ele><time>2021-09-01T11:21:08Z</time><extensions><speed>1.107106</speed><course>320.026215</course><hAcc>0.886049</hAcc><vAcc>0.707394</vAcc></extensions></trkpt>
      <trkpt lon="-3.154494" lat="53.007223"><ele>449.895691</ele><time>2021-09-01T11:21:09Z</time><extensions><speed>1.101542</speed><course>320.448669</course><hAcc>0.885971</hAcc><vAcc>0.707109</vAcc></extensions></trkpt>
      <trkpt lon="-3.154479" lat="53.007219"><ele>449.745758</ele><time>2021-09-01T11:21:10Z</time><extensions><speed>1.094993</speed><course>324.626526</course><hAcc>0.885897</hAcc><vAcc>0.706833</vAcc></extensions></trkpt>
      <trkpt lon="-3.154465" lat="53.007214"><ele>449.602844</ele><time>2021-09-01T11:21:11Z</time><extensions><speed>1.087250</speed><course>326.167938</course><hAcc>0.885831</hAcc><vAcc>0.706584</vAcc></extensions></trkpt>
      <trkpt lon="-3.154450" lat="53.007210"><ele>449.468353</ele><time>2021-09-01T11:21:12Z</time><extensions><speed>1.078259</speed><course>325.390656</course><hAcc>0.885776</hAcc><vAcc>0.706377</vAcc></extensions></trkpt>
      <trkpt lon="-3.154436" lat="53.007206"><ele>449.343475</ele><time>2021-09-01T11:21:13Z</time><extensions><speed>1.067760</speed><course>314.974457</course><hAcc>0.885734</hAcc><vAcc>0.706222</vAcc></extensions></trkpt>
      <trkpt lon="-3.154422" lat="53.007201"><ele>449.228668</ele><time>2021-09-01T11:21:14Z</time><extensions><speed>1.055321</speed><course>325.724579</course><hAcc>0.885707</hAcc><vAcc>0.706127</vAcc></extensions></trkpt>
      <trkpt lon="-3.154409" lat="53.007196"><ele>449.123657</ele><time>2021-09-01T11:21:15Z</time><extensions><speed>1.040727</speed><course>318.034210</course><hAcc>0.885696</hAcc><vAcc>0.706091</vAcc></extensions></trkpt>
      <trkpt lon="-3.154396" lat="53.007191"><ele>449.027954</ele><time>2021-09-01T11:21:16Z</time><extensions><speed>1.023807</speed><course>313.475250</course><hAcc>0.885701</hAcc><vAcc>0.706115</vAcc></extensions></trkpt>
      <trkpt lon="-3.154384" lat="53.007186"><ele>448.940460</ele><time>2021-09-01T11:21:17Z</time><extensions><speed>1.005264</speed><course>321.089203</course><hAcc>0.885722</hAcc><vAcc>0.706196</vAcc></extensions></trkpt>
      <trkpt lon="-3.154372" lat="53.007180"><ele>448.859863</ele><time>2021-09-01T11:21:18Z</time><extensions><speed>0.987257</speed><course>329.810181</course><hAcc>0.885758</hAcc><vAcc>0.706329</vAcc></extensions></trkpt>
      <trkpt lon="-3.154362" lat="53.007174"><ele>448.784851</ele><time>2021-09-01T11:21:19Z</time><extensions><speed>0.972484</speed><course>327.314850</course><hAcc>0.885807</hAcc><vAcc>0.706506</vAcc></extensions></trkpt>
      <trkpt lon="-3.154351" lat="53.007168"><ele>448.714111</ele><time>2021-09-01T11:21:20Z</time><extensions><speed>0.963398</speed><course>321.503876</course><hAcc>0.885865</hAcc><vAcc>0.706716</vAcc></extensions></trkpt>
      <trkpt lon="-3.154342" lat="53.007161"><ele>448.646423</ele><time>2021-09-01T11:21:21Z</time><extensions><speed>0.961015</speed><course>323.534607</course><hAcc>0.885931</hAcc><vAcc>0.706953</vAcc></extensions></trkpt>
      <trkpt lon="-3.154333" lat="53.007155"><ele>448.580780</ele><time>2021-09-01T11:21:22Z</time><extensions><speed>0.964750</speed><course>325.158722</course><hAcc>0.885999</hAcc><vAcc>0.707207</vAcc></extensions></trkpt>
      <trkpt lon="-3.154324" lat="53.007148"><ele>448.516266</ele><time>2021-09-01T11:21:23Z</time><extensions><speed>0.973422</speed><course>329.447083</course><hAcc>0.886067</hAcc><vAcc>0.707466</vAcc></extensions></trkpt>
      <trkpt lon="-3.154315" lat="53.007141"><ele>448.451874</ele><time>2021-09-01T11:21:24Z</time><extensions><speed>0.985943</speed><course>331.191650</course><hAcc>0.886130</hAcc><vAcc>0.707716</vAcc></extensions></trkpt>
      <trkpt lon="-3.154306" lat="53.007134"><ele>448.386719</ele><time>2021-09-01T11:21:25Z</time><extensions><speed>1.001175</speed><course>334.557068</course><hAcc>0.886185</hAcc><vAcc>0.707941</vAcc></extensions></trkpt>
      <trkpt lon="-3.154298" lat="53.007126"><ele>448.320312</ele><time>2021-09-01T11:21:26Z</time><extensions><speed>1.018249</speed><course>336.690918</course><hAcc>0.886230</hAcc><vAcc>0.708126</vAcc></extensions></trkpt>
      <trkpt lon="-3.154289" lat="53.007119"><ele>448.252136</ele><time>2021-09-01T11:21:27Z</time><extensions><speed>1.036778</speed><course>337.183258</course><hAcc>0.886261</hAcc><vAcc>0.708255</vAcc></extensions></trkpt>
      <trkpt lon="-3.154279" lat="53.007111"><ele>448.181671</ele><time>2021-09-01T11:21:28Z</time><extensions><speed>1.056189</speed><course>318.997711</course><hAcc>0.886279</hAcc><vAcc>0.708318</vAcc></extensions></trkpt>
      <trkpt lon="-3.154270" lat="53.007104"><ele>448.108948</ele><time>2021-09-01T11:21:29Z</time><extensions><speed>1.075627</speed><course>315.791901</course><hAcc>0.886284</hAcc><vAcc>0.708313</vAcc></extensions></trkpt>
      <trkpt lon="-3.154260" lat="53.007096"><ele>448.034637</ele><time>2021-09-01T11:21:30Z</time><extensions><speed>1.093991</speed><course>315.791901</course><hAcc>0.886277</hAcc><vAcc>0.708248</vAcc></extensions></trkpt>
      <trkpt lon="-3.154251" lat="53.007088"><ele>447.959808</ele><time>2021-09-01T11:21:31Z</time><extensions><speed>1.110152</speed><course>315.791901</course><hAcc>0.886262</hAcc><vAcc>0.708141</vAcc></extensions></trkpt>
      <trkpt lon="-3.154241" lat="53.007080"><ele>447.885529</ele><time>2021-09-01T11:21:32Z</time><extensions><speed>1.123301</speed><course>315.791901</course><hAcc>0.886242</hAcc><vAcc>0.708011</vAcc></extensions></trkpt>
      <trkpt lon="-3.154231" lat="53.007071"><ele>447.812500</ele><time>2021-09-01T11:21:33Z</time><extensions><speed>1.132478</speed><course>315.791901</course><hAcc>0.886223</hAcc><vAcc>0.707879</vAcc></extensions></trkpt>
      <trkpt lon="-3.154222" lat="53.007063"><ele>447.741028</ele><time>2021-09-01T11:21:34Z</time><extensions><speed>1.137278</speed><course>315.791901</course><hAcc>0.886208</hAcc><vAcc>0.707767</vAcc></extensions></trkpt>
      <trkpt lon="-3.154213" lat="53.007054"><ele>447.671631</ele><time>2021-09-01T11:21:35Z</time><extensions><speed>1.138516</speed><course>315.791901</course><hAcc>0.886204</hAcc><vAcc>0.707695</vAcc></extensions></trkpt>
      <trkpt lon="-3.154205" lat="53.007045"><ele>447.605225</ele><time>2021-09-01T11:21:36Z</time><extensions><speed>1.137528</speed><course>315.791901</course><hAcc>0.886213</hAcc><vAcc>0.707682</vAcc></extensions></trkpt>
      <trkpt lon="-3.154197" lat="53.007036"><ele>447.542664</ele><time>2021-09-01T11:21:37Z</time><extensions><speed>1.135714</speed><course>315.791901</course><hAcc>0.886239</hAcc><vAcc>0.707743</vAcc></extensions></trkpt>
      <trkpt lon="-3.154190" lat="53.007027"><ele>447.484497</ele><time>2021-09-01T11:21:38Z</time><extensions><speed>1.134540</speed><course>315.791901</course><hAcc>0.886282</hAcc><vAcc>0.707885</vAcc></extensions></trkpt>
      <trkpt lon="-3.154184" lat="53.007017"><ele>447.430908</ele><time>2021-09-01T11:21:39Z</time><extensions><speed>1.135327</speed><course>315.791901</course><hAcc>0.886341</hAcc><vAcc>0.708106</vAcc></extensions></trkpt>
      <trkpt lon="-3.154179" lat="53.007008"><ele>447.382202</ele><time>2021-09-01T11:21:40Z</time><extensions><speed>1.138800</speed><course>315.791901</course><hAcc>0.886416</hAcc><vAcc>0.708396</vAcc></extensions></trkpt>
      <trkpt lon="-3.154175" lat="53.006998"><ele>447.338867</ele><time>2021-09-01T11:21:41Z</time><extensions><speed>1.145138</speed><course>315.791901</course><hAcc>0.886500</hAcc><vAcc>0.708738</vAcc></extensions></trkpt>
      <trkpt lon="-3.154172" lat="53.006987"><ele>447.301819</ele><time>2021-09-01T11:21:42Z</time><extensions><speed>1.154074</speed><course>315.791901</course><hAcc>0.886590</hAcc><vAcc>0.709110</vAcc></extensions></trkpt>
      <trkpt lon="-3.154170" lat="53.006977"><ele>447.272125</ele><time>2021-09-01T11:21:43Z</time><extensions><speed>1.164667</speed><course>315.791901</course><hAcc>0.886679</hAcc><vAcc>0.709484</vAcc></extensions></trkpt>
      <trkpt lon="-3.154169" lat="53.006967"><ele>447.251282</ele><time>2021-09-01T11:21:44Z</time><extensions><speed>1.175565</speed><course>324.368835</course><hAcc>0.886761</hAcc><vAcc>0.709833</vAcc></extensions></trkpt>
      <trkpt lon="-3.154169" lat="53.006956"><ele>447.241089</ele><time>2021-09-01T11:21:45Z</time><extensions><speed>1.185359</speed><course>336.936340</course><hAcc>0.886831</hAcc><vAcc>0.710125</vAcc></extensions></trkpt>
      <trkpt lon="-3.154170" lat="53.006945"><ele>447.243469</ele><time>2021-09-01T11:21:46Z</time><extensions><speed>1.192644</speed><course>334.067902</course><hAcc>0.886882</hAcc><vAcc>0.710337</vAcc></extensions></trkpt>
      <trkpt lon="-3.154171" lat="53.006935"><ele>447.260162</ele><time>2021-09-01T11:21:47Z</time><extensions><speed>1.196536</speed><course>335.500000</course><hAcc>0.886911</hAcc><vAcc>0.710455</vAcc></extensions></trkpt>
      <trkpt lon="-3.154173" lat="53.006924"><ele>447.292572</ele><time>2021-09-01T11:21:48Z</time><extensions><speed>1.197207</speed><course>331.822205</course><hAcc>0.886913</hAcc><vAcc>0.710470</vAcc></extensions></trkpt>
      <trkpt lon="-3.154175" lat="53.006913"><ele>447.341858</ele><time>2021-09-01T11:21:49Z</time><extensions><speed>1.195107</speed><course>332.566284</course><hAcc>0.886888</hAcc><vAcc>0.710382</vAcc></extensions></trkpt>
      <trkpt lon="-3.154177" lat="53.006903"><ele>447.409210</ele><time>2021-09-01T11:21:50Z</time><extensions><speed>1.190089</speed><course>322.442413</course><hAcc>0.886834</hAcc><vAcc>0.710190</vAcc></extensions></trkpt>
      <trkpt lon="-3.154180" lat="53.006892"><ele>447.495300</ele><time>2021-09-01T11:21:51Z</time><extensions><speed>1.182100</speed><course>328.923309</course><hAcc>0.886753</hAcc><vAcc>0.709902</vAcc></extensions></trkpt>
      <trkpt lon="-3.154182" lat="53.006882"><ele>447.600250</ele><time>2021-09-01T11:21:52Z</time><extensions><speed>1.171432</speed><course>332.979462</course><hAcc>0.886647</hAcc><vAcc>0.709526</vAcc></extensions></trkpt>
      <trkpt lon="-3.154185" lat="53.006871"><ele>447.723572</ele><time>2021-09-01T11:21:53Z</time><extensions><speed>1.158783</speed><course>326.583588</course><hAcc>0.886516</hAcc><vAcc>0.709080</vAcc></extensions></trkpt>
      <trkpt lon="-3.154188" lat="53.006861"><ele>447.864136</ele><time>2021-09-01T11:21:54Z</time><extensions><speed>1.145051</speed><course>333.004852</course><hAcc>0.886364</hAcc><vAcc>0.708579</vAcc></extensions></trkpt>
      <trkpt lon="-3.154191" lat="53.006851"><ele>448.019989</ele><time>2021-09-01T11:21:55Z</time><extensions><speed>1.131398</speed><course>328.891602</course><hAcc>0.886192</hAcc><vAcc>0.708041</vAcc></extensions></trkpt>
      <trkpt lon="-3.154194" lat="53.006841"><ele>448.188293</ele><time>2021-09-01T11:21:55Z</time><extensions><speed>1.118686</speed><course>329.156494</course><hAcc>0.886022</hAcc><vAcc>0.707488</vAcc></extensions></trkpt>
      <trkpt lon="-3.154197" lat="53.006831"><ele>448.366577</ele><time>2021-09-01T11:21:56Z</time><extensions><speed>1.107050</speed><course>329.450256</course><hAcc>0.885854</hAcc><vAcc>0.706928</vAcc></extensions></trkpt>
      <trkpt lon="-3.154200" lat="53.006821"><ele>448.551941</ele><time>2021-09-01T11:21:57Z</time><extensions><speed>1.096397</speed><course>329.886902</course><hAcc>0.885674</hAcc><vAcc>0.706349</vAcc></extensions></trkpt>
      <trkpt lon="-3.154204" lat="53.006812"><ele>448.741699</ele><time>2021-09-01T11:21:58Z</time><extensions><speed>1.087029</speed><course>332.708923</course><hAcc>0.885485</hAcc><vAcc>0.705747</vAcc></extensions></trkpt>
      <trkpt lon="-3.154209" lat="53.006803"><ele>448.933411</ele><time>2021-09-01T11:21:59Z</time><extensions><speed>1.079504</speed><course>337.086456</course><hAcc>0.885290</hAcc><vAcc>0.705118</vAcc></extensions></trkpt>
      <trkpt lon="-3.154213" lat="53.006793"><ele>449.124847</ele><time>2021-09-01T11:22:00Z</time><extensions><speed>1.073476</speed><course>335.947693</course><hAcc>0.885093</hAcc><vAcc>0.704463</vAcc></extensions></trkpt>
      <trkpt lon="-3.154219" lat="53.006784"><ele>449.313904</ele><time>2021-09-01T11:22:01Z</time><extensions><speed>1.067427</speed><course>332.293579</course><hAcc>0.884897</hAcc><vAcc>0.703790</vAcc></extensions></trkpt>
      <trkpt lon="-3.154224" lat="53.006775"><ele>449.498535</ele><time>2021-09-01T11:22:02Z</time><extensions><speed>1.059407</speed><course>330.673279</course><hAcc>0.884706</hAcc><vAcc>0.703119</vAcc></extensions></trkpt>
      <trkpt lon="-3.154230" lat="53.006767"><ele>449.677124</ele><time>2021-09-01T11:22:03Z</time><extensions><speed>1.048383</speed><course>325.868774</course><hAcc>0.884524</hAcc><vAcc>0.702469</vAcc></extensions></trkpt>
      <trkpt lon="-3.154237" lat="53.006758"><ele>449.848267</ele><time>2021-09-01T11:22:04Z</time><extensions><speed>1.034096</speed><course>320.652771</course><hAcc>0.884355</hAcc><vAcc>0.701864</vAcc></extensions></trkpt>
      <trkpt lon="-3.154244" lat="53.006750"><ele>450.010834</ele><time>2021-09-01T11:22:05Z</time><extensions><speed>1.016568</speed><course>317.759430</course><hAcc>0.884199</hAcc><vAcc>0.701325</vAcc></extensions></trkpt>
      <trkpt lon="-3.154250" lat="53.006742"><ele>450.163910</ele><time>2021-09-01T11:22:06Z</time><extensions><speed>0.995364</speed><course>312.631989</course><hAcc>0.884059</hAcc><vAcc>0.700864</vAcc></extensions></trkpt>
      <trkpt lon="-3.154257" lat="53.006734"><ele>450.306763</ele><time>2021-09-01T11:22:07Z</time><extensions><speed>0.970056</speed><course>318.114197</course><hAcc>0.883932</hAcc><vAcc>0.700486</vAcc></extensions></trkpt>
      <trkpt lon="-3.154264" lat="53.006727"><ele>450.438843</ele><time>2021-09-01T11:22:08Z</time><extensions><speed>0.941054</speed><course>324.507172</course><hAcc>0.883814</hAcc><vAcc>0.700181</vAcc></extensions></trkpt>
      <trkpt lon="-3.154271" lat="53.006719"><ele>450.559784</ele><time>2021-09-01T11:22:09Z</time><extensions><speed>0.908986</speed><course>327.082703</course><hAcc>0.883698</hAcc><vAcc>0.699927</vAcc></extensions></trkpt>
      <trkpt lon="-3.154278" lat="53.006712"><ele>450.669220</ele><time>2021-09-01T11:22:10Z</time><extensions><speed>0.874595</speed><course>329.958954</course><hAcc>0.883577</hAcc><vAcc>0.699680</vAcc></extensions></trkpt>
      <trkpt lon="-3.154285" lat="53.006706"><ele>450.766937</ele><time>2021-09-01T11:22:11Z</time><extensions><speed>0.839334</speed><course>328.035645</course><hAcc>0.883440</hAcc><vAcc>0.699388</vAcc></extensions></trkpt>
      <trkpt lon="-3.154291" lat="53.006700"><ele>450.853241</ele><time>2021-09-01T11:22:12Z</time><extensions><speed>0.805310</speed><course>327.514526</course><hAcc>0.883278</hAcc><vAcc>0.699001</vAcc></extensions></trkpt>
      <trkpt lon="-3.154298" lat="53.006694"><ele>450.928894</ele><time>2021-09-01T11:22:13Z</time><extensions><speed>0.774889</speed><course>320.027710</course><hAcc>0.883085</hAcc><vAcc>0.698475</vAcc></extensions></trkpt>
      <trkpt lon="-3.154304" lat="53.006688"><ele>450.995178</ele><time>2021-09-01T11:22:14Z</time><extensions><speed>0.750847</speed><course>323.596710</course><hAcc>0.882856</hAcc><vAcc>0.697785</vAcc></extensions></trkpt>
      <trkpt lon="-3.154310" lat="53.006682"><ele>451.053589</ele><time>2021-09-01T11:22:15Z</time><extensions><speed>0.736181</speed><course>326.277405</course><hAcc>0.882591</hAcc><vAcc>0.696925</vAcc></extensions></trkpt>
      <trkpt lon="-3.154316" lat="53.006677"><ele>451.105957</ele><time>2021-09-01T11:22:16Z</time><extensions><speed>0.733192</speed><course>327.083344</course><hAcc>0.882294</hAcc><vAcc>0.695911</vAcc></extensions></trkpt>
      <trkpt lon="-3.154322" lat="53.006671"><ele>451.154175</ele><time>2021-09-01T11:22:17Z</time><extensions><speed>0.743081</speed><course>330.723541</course><hAcc>0.881971</hAcc><vAcc>0.694775</vAcc></extensions></trkpt>
      <trkpt lon="-3.154329" lat="53.006666"><ele>451.200195</ele><time>2021-09-01T11:22:18Z</time><extensions><speed>0.765760</speed><course>328.902985</course><hAcc>0.881634</hAcc><vAcc>0.693571</vAcc></extensions></trkpt>
      <trkpt lon="-3.154336" lat="53.006660"><ele>451.246216</ele><time>2021-09-01T11:22:19Z</time><extensions><speed>0.799664</speed><course>325.540680</course><hAcc>0.881297</hAcc><vAcc>0.692359</vAcc></extensions></trkpt>
      <trkpt lon="-3.154343" lat="53.006654"><ele>451.294037</ele><time>2021-09-01T11:22:20Z</time><extensions><speed>0.841783</speed><course>326.969879</course><hAcc>0.880974</hAcc><vAcc>0.691203</vAcc></extensions></trkpt>
      <trkpt lon="-3.154350" lat="53.006648"><ele>451.345032</ele><time>2021-09-01T11:22:21Z</time><extensions><speed>0.887928</speed><course>320.316467</course><hAcc>0.880679</hAcc><vAcc>0.690157</vAcc></extensions></trkpt>
      <trkpt lon="-3.154359" lat="53.006641"><ele>451.399811</ele><time>2021-09-01T11:22:22Z</time><extensions><speed>0.934122</speed><course>319.871765</course><hAcc>0.880425</hAcc><vAcc>0.689265</vAcc></extensions></trkpt>
      <trkpt lon="-3.154367" lat="53.006635"><ele>451.458313</ele><time>2021-09-01T11:22:23Z</time><extensions><speed>0.978052</speed><course>316.990692</course><hAcc>0.880222</hAcc><vAcc>0.688560</vAcc></extensions></trkpt>
      <trkpt lon="-3.154376" lat="53.006628"><ele>451.520172</ele><time>2021-09-01T11:22:24Z</time><extensions><speed>1.018973</speed><course>317.272278</course><hAcc>0.880077</hAcc><vAcc>0.688065</vAcc></extensions></trkpt>
      <trkpt lon="-3.154386" lat="53.006620"><ele>451.584717</ele><time>2021-09-01T11:22:25Z</time><extensions><speed>1.056754</speed><course>317.305878</course><hAcc>0.879996</hAcc><vAcc>0.687793</vAcc></extensions></trkpt>
      <trkpt lon="-3.154396" lat="53.006613"><ele>451.650909</ele><time>2021-09-01T11:22:26Z</time><extensions><speed>1.091619</speed><course>319.626617</course><hAcc>0.879980</hAcc><vAcc>0.687757</vAcc></extensions></trkpt>
      <trkpt lon="-3.154406" lat="53.006605"><ele>451.717438</ele><time>2021-09-01T11:22:27Z</time><extensions><speed>1.123584</speed><course>316.946777</course><hAcc>0.880028</hAcc><vAcc>0.687953</vAcc></extensions></trkpt>
      <trkpt lon="-3.154417" lat="53.006597"><ele>451.783173</ele><time>2021-09-01T11:22:28Z</time><extensions><speed>1.152529</speed><course>316.848175</course><hAcc>0.880135</hAcc><vAcc>0.688367</vAcc></extensions></trkpt>
      <trkpt lon="-3.154428" lat="53.006589"><ele>451.847260</ele><time>2021-09-01T11:22:29Z</time><extensions><speed>1.178232</speed><course>306.129730</course><hAcc>0.880293</hAcc><vAcc>0.688967</vAcc></extensions></trkpt>
      <trkpt lon="-3.154440" lat="53.006581"><ele>451.909180</ele><time>2021-09-01T11:22:30Z</time><extensions><speed>1.200068</speed><course>311.287872</course><hAcc>0.880489</hAcc><vAcc>0.689708</vAcc></extensions></trkpt>
      <trkpt lon="-3.154452" lat="53.006573"><ele>451.968658</ele><time>2021-09-01T11:22:31Z</time><extensions><speed>1.217171</speed><course>316.150696</course><hAcc>0.880711</hAcc><vAcc>0.690539</vAcc></extensions></trkpt>
      <trkpt lon="-3.154464" lat="53.006565"><ele>452.025726</ele><time>2021-09-01T11:22:32Z</time><extensions><speed>1.228578</speed><course>319.589172</course><hAcc>0.880944</hAcc><vAcc>0.691402</vAcc></extensions></trkpt>
      <trkpt lon="-3.154476" lat="53.006556"><ele>452.080750</ele><time>2021-09-01T11:22:33Z</time><extensions><speed>1.234068</speed><course>317.826752</course><hAcc>0.881177</hAcc><vAcc>0.692236</vAcc></extensions></trkpt>
      <trkpt lon="-3.154489" lat="53.006548"><ele>452.134247</ele><time>2021-09-01T11:22:34Z</time><extensions><speed>1.234759</speed><course>316.582428</course><hAcc>0.881396</hAcc><vAcc>0.692990</vAcc></extensions></trkpt>
      <trkpt lon="-3.154502" lat="53.006540"><ele>452.186768</ele><time>2021-09-01T11:22:35Z</time><extensions><speed>1.232824</speed><course>322.533203</course><hAcc>0.881594</hAcc><vAcc>0.693631</vAcc></extensions></trkpt>
      <trkpt lon="-3.154515" lat="53.006533"><ele>452.238495</ele><time>2021-09-01T11:22:36Z</time><extensions><speed>1.230264</speed><course>322.533203</course><hAcc>0.881766</hAcc><vAcc>0.694146</vAcc></extensions></trkpt>
      <trkpt lon="-3.154528" lat="53.006525"><ele>452.289124</ele><time>2021-09-01T11:22:37Z</time><extensions><speed>1.228434</speed><course>322.533203</course><hAcc>0.881909</hAcc><vAcc>0.694542</vAcc></extensions></trkpt>
      <trkpt lon="-3.154541" lat="53.006518"><ele>452.338226</ele><time>2021-09-01T11:22:38Z</time><extensions><speed>1.228175</speed><course>322.533203</course><hAcc>0.882026</hAcc><vAcc>0.694840</vAcc></extensions></trkpt>
      <trkpt lon="-3.154555" lat="53.006510"><ele>452.385437</ele><time>2021-09-01T11:22:39Z</time><extensions><speed>1.229354</speed><course>322.533203</course><hAcc>0.882119</hAcc><vAcc>0.695065</vAcc></extensions></trkpt>
      <trkpt lon="-3.154569" lat="53.006503"><ele>452.430145</ele><time>2021-09-01T11:22:40Z</time><extensions><speed>1.230794</speed><course>310.635162</course><hAcc>0.882192</hAcc><vAcc>0.695242</vAcc></extensions></trkpt>
      <trkpt lon="-3.154584" lat="53.006496"><ele>452.471619</ele><time>2021-09-01T11:22:41Z</time><extensions><speed>1.231216</speed><course>317.610291</course><hAcc>0.882249</hAcc><vAcc>0.695389</vAcc></extensions></trkpt>
      <trkpt lon="-3.154598" lat="53.006490"><ele>452.509247</ele><time>2021-09-01T11:22:42Z</time><extensions><speed>1.229665</speed><course>306.125671</course><hAcc>0.882293</hAcc><vAcc>0.695519</vAcc></extensions></trkpt>
      <trkpt lon="-3.154613" lat="53.006483"><ele>452.543060</ele><time>2021-09-01T11:22:43Z</time><extensions><speed>1.225426</speed><course>318.134308</course><hAcc>0.882329</hAcc><vAcc>0.695633</vAcc></extensions></trkpt>
      <trkpt lon="-3.154628" lat="53.006477"><ele>452.573608</ele><time>2021-09-01T11:22:44Z</time><extensions><speed>1.218652</speed><course>310.926819</course><hAcc>0.882356</hAcc><vAcc>0.695726</vAcc></extensions></trkpt>
      <trkpt lon="-3.154643" lat="53.006471"><ele>452.601624</ele><time>2021-09-01T11:22:45Z</time><extensions><speed>1.209965</speed><course>312.939606</course><hAcc>0.882376</hAcc><vAcc>0.695791</vAcc></extensions></trkpt>
      <trkpt lon="-3.154658" lat="53.006465"><ele>452.627930</ele><time>2021-09-01T11:22:46Z</time><extensions><speed>1.199812</speed><course>305.606995</course><hAcc>0.882390</hAcc><vAcc>0.695828</vAcc></extensions></trkpt>
      <trkpt lon="-3.154673" lat="53.006459"><ele>452.653229</ele><time>2021-09-01T11:22:47Z</time><extensions><speed>1.188418</speed><course>302.541321</course><hAcc>0.882398</hAcc><vAcc>0.695842</vAcc></extensions></trkpt>
      <trkpt lon="-3.154688" lat="53.006453"><ele>452.678009</ele><time>2021-09-01T11:22:48Z</time><extensions><speed>1.175592</speed><course>303.802917</course><hAcc>0.882398</hAcc><vAcc>0.695839</vAcc></extensions></trkpt>
      <trkpt lon="-3.154702" lat="53.006448"><ele>452.703003</ele><time>2021-09-01T11:22:49Z</time><extensions><speed>1.161009</speed><course>300.395538</course><hAcc>0.882391</hAcc><vAcc>0.695824</vAcc></extensions></trkpt>
      <trkpt lon="-3.154717" lat="53.006442"><ele>452.729126</ele><time>2021-09-01T11:22:50Z</time><extensions><speed>1.144400</speed><course>303.076660</course><hAcc>0.882374</hAcc><vAcc>0.695797</vAcc></extensions></trkpt>
      <trkpt lon="-3.154731" lat="53.006436"><ele>452.757385</ele><time>2021-09-01T11:22:51Z</time><extensions><speed>1.125545</speed><course>301.521118</course><hAcc>0.882345</hAcc><vAcc>0.695752</vAcc></extensions></trkpt>
      <trkpt lon="-3.154745" lat="53.006431"><ele>452.788757</ele><time>2021-09-01T11:22:52Z</time><extensions><speed>1.104099</speed><course>315.953857</course><hAcc>0.882298</hAcc><vAcc>0.695671</vAcc></extensions></trkpt>
      <trkpt lon="-3.154758" lat="53.006425"><ele>452.823944</ele><time>2021-09-01T11:22:53Z</time><extensions><speed>1.079982</speed><course>321.613922</course><hAcc>0.882231</hAcc><vAcc>0.695528</vAcc></extensions></trkpt>
      <trkpt lon="-3.154771" lat="53.006420"><ele>452.863739</ele><time>2021-09-01T11:22:54Z</time><extensions><speed>1.053954</speed><course>320.530426</course><hAcc>0.882140</hAcc><vAcc>0.695294</vAcc></extensions></trkpt>
      <trkpt lon="-3.154784" lat="53.006414"><ele>452.909027</ele><time>2021-09-01T11:22:55Z</time><extensions><speed>1.027280</speed><course>319.105469</course><hAcc>0.882023</hAcc><vAcc>0.694951</vAcc></extensions></trkpt>
      <trkpt lon="-3.154796" lat="53.006409"><ele>452.960449</ele><time>2021-09-01T11:22:56Z</time><extensions><speed>1.001150</speed><course>320.005280</course><hAcc>0.881880</hAcc><vAcc>0.694494</vAcc></extensions></trkpt>
      <trkpt lon="-3.154807" lat="53.006403"><ele>453.018036</ele><time>2021-09-01T11:22:57Z</time><extensions><speed>0.976782</speed><course>320.540527</course><hAcc>0.881716</hAcc><vAcc>0.693930</vAcc></extensions></trkpt>
      <trkpt lon="-3.154819" lat="53.006398"><ele>453.081299</ele><time>2021-09-01T11:22:58Z</time><extensions><speed>0.956196</speed><course>316.635681</course><hAcc>0.881535</hAcc><vAcc>0.693283</vAcc></extensions></trkpt>
      <trkpt lon="-3.154829" lat="53.006392"><ele>453.149170</ele><time>2021-09-01T11:22:59Z</time><extensions><speed>0.941822</speed><course>319.322998</course><hAcc>0.881348</hAcc><vAcc>0.692586</vAcc></extensions></trkpt>
      <trkpt lon="-3.154840" lat="53.006387"><ele>453.219513</ele><time>2021-09-01T11:23:00Z</time><extensions><speed>0.935735</speed><course>319.244141</course><hAcc>0.881165</hAcc><vAcc>0.691883</vAcc></extensions></trkpt>
      <trkpt lon="-3.154851" lat="53.006381"><ele>453.289551</ele><time>2021-09-01T11:23:01Z</time><extensions><speed>0.939427</speed><course>315.425568</course><hAcc>0.880999</hAcc><vAcc>0.691230</vAcc></extensions></trkpt>
      <trkpt lon="-3.154861" lat="53.006376"><ele>453.356934</ele><time>2021-09-01T11:23:02Z</time><extensions><speed>0.953389</speed><course>318.059448</course><hAcc>0.880861</hAcc><vAcc>0.690684</vAcc></extensions></trkpt>
      <trkpt lon="-3.154872" lat="53.006370"><ele>453.420135</ele><time>2021-09-01T11:23:03Z</time><extensions><speed>0.976501</speed><course>318.243683</course><hAcc>0.880762</hAcc><vAcc>0.690297</vAcc></extensions></trkpt>
      <trkpt lon="-3.154883" lat="53.006364"><ele>453.478088</ele><time>2021-09-01T11:23:04Z</time><extensions><speed>1.005704</speed><course>319.840027</course><hAcc>0.880710</hAcc><vAcc>0.690102</vAcc></extensions></trkpt>
      <trkpt lon="-3.154894" lat="53.006358"><ele>453.529755</ele><time>2021-09-01T11:23:05Z</time><extensions><speed>1.037182</speed><course>320.630524</course><hAcc>0.880709</hAcc><vAcc>0.690110</vAcc></extensions></trkpt>
      <trkpt lon="-3.154906" lat="53.006352"><ele>453.574280</ele><time>2021-09-01T11:23:06Z</time><extensions><speed>1.067925</speed><course>318.435181</course><hAcc>0.880757</hAcc><vAcc>0.690312</vAcc></extensions></trkpt>
      <trkpt lon="-3.154918" lat="53.006345"><ele>453.611359</ele><time>2021-09-01T11:23:07Z</time><extensions><speed>1.096473</speed><course>313.959320</course><hAcc>0.880851</hAcc><vAcc>0.690683</vAcc></extensions></trkpt>
      <trkpt lon="-3.154931" lat="53.006339"><ele>453.640930</ele><time>2021-09-01T11:23:08Z</time><extensions><speed>1.122120</speed><course>314.005951</course><hAcc>0.880983</hAcc><vAcc>0.691190</vAcc></extensions></trkpt>
      <trkpt lon="-3.154944" lat="53.006332"><ele>453.663055</ele><time>2021-09-01T11:23:09Z</time><extensions><speed>1.144219</speed><course>315.776367</course><hAcc>0.881146</hAcc><vAcc>0.691792</vAcc></extensions></trkpt>
      <trkpt lon="-3.154957" lat="53.006326"><ele>453.678223</ele><time>2021-09-01T11:23:10Z</time><extensions><speed>1.162985</speed><course>317.643280</course><hAcc>0.881331</hAcc><vAcc>0.692450</vAcc></extensions></trkpt>
      <trkpt lon="-3.154970" lat="53.006319"><ele>453.687073</ele><time>2021-09-01T11:23:11Z</time><extensions><speed>1.178768</speed><course>316.187012</course><hAcc>0.881529</hAcc><vAcc>0.693129</vAcc></extensions></trkpt>
      <trkpt lon="-3.154983" lat="53.006312"><ele>453.690552</ele><time>2021-09-01T11:23:12Z</time><extensions><speed>1.191634</speed><course>313.238525</course><hAcc>0.881733</hAcc><vAcc>0.693806</vAcc></extensions></trkpt>
      <trkpt lon="-3.154997" lat="53.006305"><ele>453.689911</ele><time>2021-09-01T11:23:13Z</time><extensions><speed>1.202146</speed><course>309.102142</course><hAcc>0.881938</hAcc><vAcc>0.694466</vAcc></extensions></trkpt>
      <trkpt lon="-3.155010" lat="53.006298"><ele>453.686584</ele><time>2021-09-01T11:23:14Z</time><extensions><speed>1.210868</speed><course>313.839325</course><hAcc>0.882139</hAcc><vAcc>0.695100</vAcc></extensions></trkpt>
      <trkpt lon="-3.155024" lat="53.006290"><ele>453.681793</ele><time>2021-09-01T11:23:15Z</time><extensions><speed>1.218047</speed><course>315.040405</course><hAcc>0.882334</hAcc><vAcc>0.695708</vAcc></extensions></trkpt>
      <trkpt lon="-3.155037" lat="53.006283"><ele>453.676727</ele><time>2021-09-01T11:23:16Z</time><extensions><speed>1.223926</speed><course>315.010925</course><hAcc>0.882523</hAcc><vAcc>0.696288</vAcc></extensions></trkpt>
      <trkpt lon="-3.155050" lat="53.006275"><ele>453.672668</ele><time>2021-09-01T11:23:17Z</time><extensions><speed>1.228956</speed><course>312.357758</course><hAcc>0.882704</hAcc><vAcc>0.696843</vAcc></extensions></trkpt>
      <trkpt lon="-3.155063" lat="53.006267"><ele>453.670990</ele><time>2021-09-01T11:23:18Z</time><extensions><speed>1.233580</speed><course>316.888885</course><hAcc>0.882879</hAcc><vAcc>0.697375</vAcc></extensions></trkpt>
      <trkpt lon="-3.155076" lat="53.006259"><ele>453.673340</ele><time>2021-09-01T11:23:19Z</time><extensions><speed>1.237768</speed><course>320.096283</course><hAcc>0.883050</hAcc><vAcc>0.697890</vAcc></extensions></trkpt>
      <trkpt lon="-3.155088" lat="53.006251"><ele>453.681274</ele><time>2021-09-01T11:23:20Z</time><extensions><speed>1.240967</speed><course>330.452972</course><hAcc>0.883217</hAcc><vAcc>0.698396</vAcc></extensions></trkpt>
      <trkpt lon="-3.155100" lat="53.006242"><ele>453.695892</ele><time>2021-09-01T11:23:21Z</time><extensions><speed>1.242871</speed><course>325.892334</course><hAcc>0.883384</hAcc><vAcc>0.698905</vAcc></extensions></trkpt>
      <trkpt lon="-3.155112" lat="53.006234"><ele>453.717651</ele><time>2021-09-01T11:23:22Z</time><extensions><speed>1.244373</speed><course>323.150330</course><hAcc>0.883550</hAcc><vAcc>0.699426</vAcc></extensions></trkpt>
      <trkpt lon="-3.155123" lat="53.006225"><ele>453.746948</ele><time>2021-09-01T11:23:23Z</time><extensions><speed>1.246671</speed><course>318.355499</course><hAcc>0.883719</hAcc><vAcc>0.699967</vAcc></extensions></trkpt>
      <trkpt lon="-3.155134" lat="53.006216"><ele>453.784119</ele><time>2021-09-01T11:23:24Z</time><extensions><speed>1.249847</speed><course>319.900726</course><hAcc>0.883890</hAcc><vAcc>0.700527</vAcc></extensions></trkpt>
      <trkpt lon="-3.155144" lat="53.006206"><ele>453.829285</ele><time>2021-09-01T11:23:25Z</time><extensions><speed>1.253669</speed><course>327.705719</course><hAcc>0.884064</hAcc><vAcc>0.701100</vAcc></extensions></trkpt>
      <trkpt lon="-3.155155" lat="53.006197"><ele>453.882263</ele><time>2021-09-01T11:23:26Z</time><extensions><speed>1.258289</speed><course>325.864380</course><hAcc>0.884241</hAcc><vAcc>0.701673</vAcc></extensions></trkpt>
      <trkpt lon="-3.155165" lat="53.006187"><ele>453.942810</ele><time>2021-09-01T11:23:27Z</time><extensions><speed>1.263832</speed><course>316.016541</course><hAcc>0.884421</hAcc><vAcc>0.702240</vAcc></extensions></trkpt>
      <trkpt lon="-3.155175" lat="53.006178"><ele>454.010406</ele><time>2021-09-01T11:23:28Z</time><extensions><speed>1.270488</speed><course>317.886536</course><hAcc>0.884604</hAcc><vAcc>0.702801</vAcc></extensions></trkpt>
      <trkpt lon="-3.155185" lat="53.006168"><ele>454.084686</ele><time>2021-09-01T11:23:29Z</time><extensions><speed>1.277963</speed><course>327.267029</course><hAcc>0.884791</hAcc><vAcc>0.703362</vAcc></extensions></trkpt>
      <trkpt lon="-3.155195" lat="53.006158"><ele>454.164917</ele><time>2021-09-01T11:23:30Z</time><extensions><speed>1.284928</speed><course>326.251373</course><hAcc>0.884982</hAcc><vAcc>0.703937</vAcc></extensions></trkpt>
      <trkpt lon="-3.155205" lat="53.006148"><ele>454.249786</ele><time>2021-09-01T11:23:31Z</time><extensions><speed>1.289804</speed><course>330.160339</course><hAcc>0.885178</hAcc><vAcc>0.704539</vAcc></extensions></trkpt>
      <trkpt lon="-3.155215" lat="53.006138"><ele>454.337799</ele><time>2021-09-01T11:23:32Z</time><extensions><speed>1.291415</speed><course>329.350830</course><hAcc>0.885377</hAcc><vAcc>0.705174</vAcc></extensions></trkpt>
      <trkpt lon="-3.155225" lat="53.006129"><ele>454.427368</ele><time>2021-09-01T11:23:33Z</time><extensions><speed>1.289442</speed><course>328.046906</course><hAcc>0.885579</hAcc><vAcc>0.705845</vAcc></extensions></trkpt>
      <trkpt lon="-3.155234" lat="53.006119"><ele>454.517242</ele><time>2021-09-01T11:23:34Z</time><extensions><speed>1.284494</speed><course>328.036682</course><hAcc>0.885782</hAcc><vAcc>0.706539</vAcc></extensions></trkpt>
      <trkpt lon="-3.155244" lat="53.006109"><ele>454.606415</ele><time>2021-09-01T11:23:35Z</time><extensions><speed>1.277498</speed><course>328.321899</course><hAcc>0.885983</hAcc><vAcc>0.707239</vAcc></extensions></trkpt>
      <trkpt lon="-3.155253" lat="53.006099"><ele>454.694122</ele><time>2021-09-01T11:23:36Z</time><extensions><speed>1.269151</speed><course>326.366882</course><hAcc>0.886180</hAcc><vAcc>0.707921</vAcc></extensions></trkpt>
      <trkpt lon="-3.155262" lat="53.006089"><ele>454.779968</ele><time>2021-09-01T11:23:37Z</time><extensions><speed>1.259943</speed><course>331.362152</course><hAcc>0.886368</hAcc><vAcc>0.708566</vAcc></extensions></trkpt>
      <trkpt lon="-3.155271" lat="53.006079"><ele>454.863892</ele><time>2021-09-01T11:23:38Z</time><extensions><speed>1.250641</speed><course>329.394318</course><hAcc>0.886546</hAcc><vAcc>0.709159</vAcc></extensions></trkpt>
      <trkpt lon="-3.155279" lat="53.006068"><ele>454.945984</ele><time>2021-09-01T11:23:39Z</time><extensions><speed>1.242075</speed><course>332.464355</course><hAcc>0.886710</hAcc><vAcc>0.709692</vAcc></extensions></trkpt>
      <trkpt lon="-3.155287" lat="53.006058"><ele>455.026184</ele><time>2021-09-01T11:23:40Z</time><extensions><speed>1.234854</speed><course>335.973755</course><hAcc>0.886861</hAcc><vAcc>0.710158</vAcc></extensions></trkpt>
      <trkpt lon="-3.155294" lat="53.006048"><ele>455.104309</ele><time>2021-09-01T11:23:41Z</time><extensions><speed>1.229653</speed><course>334.588074</course><hAcc>0.886996</hAcc><vAcc>0.710561</vAcc></extensions></trkpt>
      <trkpt lon="-3.155301" lat="53.006038"><ele>455.180206</ele><time>2021-09-01T11:23:42Z</time><extensions><speed>1.227082</speed><course>337.558624</course><hAcc>0.887117</hAcc><vAcc>0.710905</vAcc></extensions></trkpt>
      <trkpt lon="-3.155308" lat="53.006028"><ele>455.254089</ele><time>2021-09-01T11:23:43Z</time><extensions><speed>1.226810</speed><course>337.377197</course><hAcc>0.887224</hAcc><vAcc>0.711200</vAcc></extensions></trkpt>
      <trkpt lon="-3.155315" lat="53.006018"><ele>455.326263</ele><time>2021-09-01T11:23:44Z</time><extensions><speed>1.227698</speed><course>334.236908</course><hAcc>0.887318</hAcc><vAcc>0.711456</vAcc></extensions></trkpt>
      <trkpt lon="-3.155322" lat="53.006007"><ele>455.396912</ele><time>2021-09-01T11:23:45Z</time><extensions><speed>1.229324</speed><course>333.116516</course><hAcc>0.887399</hAcc><vAcc>0.711684</vAcc></extensions></trkpt>
      <trkpt lon="-3.155328" lat="53.005997"><ele>455.466187</ele><time>2021-09-01T11:23:46Z</time><extensions><speed>1.231937</speed><course>331.193451</course><hAcc>0.887468</hAcc><vAcc>0.711888</vAcc></extensions></trkpt>
      <trkpt lon="-3.155335" lat="53.005987"><ele>455.534363</ele><time>2021-09-01T11:23:47Z</time><extensions><speed>1.235679</speed><course>327.071960</course><hAcc>0.887524</hAcc><vAcc>0.712072</vAcc></extensions></trkpt>
      <trkpt lon="-3.155342" lat="53.005977"><ele>455.601715</ele><time>2021-09-01T11:23:48Z</time><extensions><speed>1.240206</speed><course>323.969269</course><hAcc>0.887566</hAcc><vAcc>0.712229</vAcc></extensions></trkpt>
      <trkpt lon="-3.155350" lat="53.005966"><ele>455.668243</ele><time>2021-09-01T11:23:49Z</time><extensions><speed>1.245151</speed><course>325.035614</course><hAcc>0.887592</hAcc><vAcc>0.712351</vAcc></extensions></trkpt>
      <trkpt lon="-3.155358" lat="53.005956"><ele>455.733734</ele><time>2021-09-01T11:23:50Z</time><extensions><speed>1.251045</speed><course>325.080109</course><hAcc>0.887599</hAcc><vAcc>0.712424</vAcc></extensions></trkpt>
      <trkpt lon="-3.155367" lat="53.005946"><ele>455.797852</ele><time>2021-09-01T11:23:51Z</time><extensions><speed>1.258329</speed><course>320.596710</course><hAcc>0.887584</hAcc><vAcc>0.712430</vAcc></extensions></trkpt>
      <trkpt lon="-3.155376" lat="53.005937"><ele>455.860229</ele><time>2021-09-01T11:23:52Z</time><extensions><speed>1.266828</speed><course>325.164429</course><hAcc>0.887544</hAcc><vAcc>0.712345</vAcc></extensions></trkpt>
      <trkpt lon="-3.155387" lat="53.005927"><ele>455.920197</ele><time>2021-09-01T11:23:54Z</time><extensions><speed>1.276115</speed><course>323.691345</course><hAcc>0.887461</hAcc><vAcc>0.712136</vAcc></extensions></trkpt>
      <trkpt lon="-3.155398" lat="53.005918"><ele>455.976746</ele><time>2021-09-01T11:23:55Z</time><extensions><speed>1.285372</speed><course>332.829010</course><hAcc>0.887331</hAcc><vAcc>0.711790</vAcc></extensions></trkpt>
      <trkpt lon="-3.155411" lat="53.005909"><ele>456.028656</ele><time>2021-09-01T11:23:56Z</time><extensions><speed>1.293890</speed><course>333.287506</course><hAcc>0.887174</hAcc><vAcc>0.711310</vAcc></extensions></trkpt>
      <trkpt lon="-3.155424" lat="53.005901"><ele>456.074707</ele><time>2021-09-01T11:23:57Z</time><extensions><speed>1.301115</speed><course>320.664337</course><hAcc>0.886989</hAcc><vAcc>0.710700</vAcc></extensions></trkpt>
      <trkpt lon="-3.155438" lat="53.005892"><ele>456.114014</ele><time>2021-09-01T11:23:58Z</time><extensions><speed>1.306688</speed><course>319.581818</course><hAcc>0.886780</hAcc><vAcc>0.709975</vAcc></extensions></trkpt>
      <trkpt lon="-3.155452" lat="53.005885"><ele>456.146179</ele><time>2021-09-01T11:23:59Z</time><extensions><speed>1.310573</speed><course>320.113190</course><hAcc>0.886550</hAcc><vAcc>0.709159</vAcc></extensions></trkpt>
      <trkpt lon="-3.155467" lat="53.005877"><ele>456.171265</ele><time>2021-09-01T11:24:00Z</time><extensions><speed>1.312862</speed><course>325.625488</course><hAcc>0.886305</hAcc><vAcc>0.708286</vAcc></extensions></trkpt>
      <trkpt lon="-3.155483" lat="53.005870"><ele>456.189697</ele><time>2021-09-01T11:24:01Z</time><extensions><speed>1.313223</speed><course>320.008789</course><hAcc>0.886052</hAcc><vAcc>0.707390</vAcc></extensions></trkpt>
      <trkpt lon="-3.155499" lat="53.005863"><ele>456.201965</ele><time>2021-09-01T11:24:02Z</time><extensions><speed>1.310953</speed><course>318.909088</course><hAcc>0.885796</hAcc><vAcc>0.706505</vAcc></extensions></trkpt>
      <trkpt lon="-3.155515" lat="53.005856"><ele>456.208527</ele><time>2021-09-01T11:24:03Z</time><extensions><speed>1.305448</speed><course>323.298828</course><hAcc>0.885546</hAcc><vAcc>0.705653</vAcc></extensions></trkpt>
      <trkpt lon="-3.155531" lat="53.005850"><ele>456.209503</ele><time>2021-09-01T11:24:04Z</time><extensions><speed>1.297066</speed><course>319.843567</course><hAcc>0.885305</hAcc><vAcc>0.704852</vAcc></extensions></trkpt>
      <trkpt lon="-3.155547" lat="53.005844"><ele>456.204956</ele><time>2021-09-01T11:24:05Z</time><extensions><speed>1.287314</speed><course>314.311829</course><hAcc>0.885080</hAcc><vAcc>0.704113</vAcc></extensions></trkpt>
      <trkpt lon="-3.155563" lat="53.005837"><ele>456.194916</ele><time>2021-09-01T11:24:06Z</time><extensions><speed>1.277635</speed><course>319.089264</course><hAcc>0.884873</hAcc><vAcc>0.703445</vAcc></extensions></trkpt>
      <trkpt lon="-3.155579" lat="53.005831"><ele>456.179413</ele><time>2021-09-01T11:24:07Z</time><extensions><speed>1.269088</speed><course>322.114319</course><hAcc>0.884690</hAcc><vAcc>0.702856</vAcc></extensions></trkpt>
      <trkpt lon="-3.155595" lat="53.005825"><ele>456.158478</ele><time>2021-09-01T11:24:08Z</time><extensions><speed>1.262394</speed><course>313.771057</course><hAcc>0.884530</hAcc><vAcc>0.702351</vAcc></extensions></trkpt>
      <trkpt lon="-3.155612" lat="53.005820"><ele>456.132019</ele><time>2021-09-01T11:24:09Z</time><extensions><speed>1.258008</speed><course>306.383820</course><hAcc>0.884395</hAcc><vAcc>0.701932</vAcc></extensions></trkpt>
      <trkpt lon="-3.155628" lat="53.005814"><ele>456.099884</ele><time>2021-09-01T11:24:10Z</time><extensions><speed>1.256140</speed><course>308.594727</course><hAcc>0.884284</hAcc><vAcc>0.701597</vAcc></extensions></trkpt>
      <trkpt lon="-3.155644" lat="53.005808"><ele>456.062012</ele><time>2021-09-01T11:24:11Z</time><extensions><speed>1.257124</speed><course>313.438293</course><hAcc>0.884199</hAcc><vAcc>0.701339</vAcc></extensions></trkpt>
      <trkpt lon="-3.155660" lat="53.005802"><ele>456.018463</ele><time>2021-09-01T11:24:12Z</time><extensions><speed>1.261333</speed><course>315.261749</course><hAcc>0.884136</hAcc><vAcc>0.701152</vAcc></extensions></trkpt>
      <trkpt lon="-3.155676" lat="53.005797"><ele>455.969513</ele><time>2021-09-01T11:24:13Z</time><extensions><speed>1.268890</speed><course>314.962799</course><hAcc>0.884096</hAcc><vAcc>0.701028</vAcc></extensions></trkpt>
      <trkpt lon="-3.155693" lat="53.005791"><ele>455.915558</ele><time>2021-09-01T11:24:14Z</time><extensions><speed>1.279905</speed><course>311.864380</course><hAcc>0.884075</hAcc><vAcc>0.700966</vAcc></extensions></trkpt>
      <trkpt lon="-3.155710" lat="53.005786"><ele>455.857086</ele><time>2021-09-01T11:24:15Z</time><extensions><speed>1.293839</speed><course>305.555115</course><hAcc>0.884073</hAcc><vAcc>0.700965</vAcc></extensions></trkpt>
      <trkpt lon="-3.155727" lat="53.005780"><ele>455.794739</ele><time>2021-09-01T11:24:16Z</time><extensions><speed>1.309129</speed><course>309.414368</course><hAcc>0.884087</hAcc><vAcc>0.701024</vAcc></extensions></trkpt>
      <trkpt lon="-3.155744" lat="53.005774"><ele>455.729187</ele><time>2021-09-01T11:24:17Z</time><extensions><speed>1.323882</speed><course>312.426361</course><hAcc>0.884115</hAcc><vAcc>0.701139</vAcc></extensions></trkpt>
      <trkpt lon="-3.155762" lat="53.005769"><ele>455.660889</ele><time>2021-09-01T11:24:18Z</time><extensions><speed>1.336486</speed><course>315.779877</course><hAcc>0.884152</hAcc><vAcc>0.701297</vAcc></extensions></trkpt>
      <trkpt lon="-3.155779" lat="53.005763"><ele>455.590179</ele><time>2021-09-01T11:24:19Z</time><extensions><speed>1.346054</speed><course>309.393494</course><hAcc>0.884196</hAcc><vAcc>0.701479</vAcc></extensions></trkpt>
      <trkpt lon="-3.155797" lat="53.005757"><ele>455.517120</ele><time>2021-09-01T11:24:20Z</time><extensions><speed>1.352346</speed><course>315.161163</course><hAcc>0.884241</hAcc><vAcc>0.701667</vAcc></extensions></trkpt>
      <trkpt lon="-3.155815" lat="53.005752"><ele>455.441803</ele><time>2021-09-01T11:24:21Z</time><extensions><speed>1.355450</speed><course>313.978088</course><hAcc>0.884286</hAcc><vAcc>0.701843</vAcc></extensions></trkpt>
      <trkpt lon="-3.155832" lat="53.005746"><ele>455.364441</ele><time>2021-09-01T11:24:22Z</time><extensions><speed>1.355655</speed><course>310.683502</course><hAcc>0.884325</hAcc><vAcc>0.701995</vAcc></extensions></trkpt>
      <trkpt lon="-3.155850" lat="53.005740"><ele>455.285492</ele><time>2021-09-01T11:24:23Z</time><extensions><speed>1.353223</speed><course>311.301880</course><hAcc>0.884356</hAcc><vAcc>0.702114</vAcc></extensions></trkpt>
      <trkpt lon="-3.155868" lat="53.005734"><ele>455.205505</ele><time>2021-09-01T11:24:24Z</time><extensions><speed>1.348076</speed><course>311.208435</course><hAcc>0.884378</hAcc><vAcc>0.702195</vAcc></extensions></trkpt>
      <trkpt lon="-3.155886" lat="53.005729"><ele>455.125000</ele><time>2021-09-01T11:24:25Z</time><extensions><speed>1.339827</speed><course>309.569458</course><hAcc>0.884390</hAcc><vAcc>0.702238</vAcc></extensions></trkpt>
      <trkpt lon="-3.155903" lat="53.005723"><ele>455.044373</ele><time>2021-09-01T11:24:26Z</time><extensions><speed>1.328173</speed><course>310.187012</course><hAcc>0.884390</hAcc><vAcc>0.702239</vAcc></extensions></trkpt>
      <trkpt lon="-3.155920" lat="53.005717"><ele>454.963898</ele><time>2021-09-01T11:24:27Z</time><extensions><speed>1.313124</speed><course>310.459808</course><hAcc>0.884380</hAcc><vAcc>0.702198</vAcc></extensions></trkpt>
      <trkpt lon="-3.155937" lat="53.005712"><ele>454.883759</ele><time>2021-09-01T11:24:28Z</time><extensions><speed>1.294935</speed><course>310.191071</course><hAcc>0.884362</hAcc><vAcc>0.702115</vAcc></extensions></trkpt>
      <trkpt lon="-3.155954" lat="53.005706"><ele>454.804443</ele><time>2021-09-01T11:24:29Z</time><extensions><speed>1.273844</speed><course>313.202332</course><hAcc>0.884339</hAcc><vAcc>0.701996</vAcc></extensions></trkpt>
      <trkpt lon="-3.155971" lat="53.005701"><ele>454.726593</ele><time>2021-09-01T11:24:30Z</time><extensions><speed>1.250314</speed><course>317.375305</course><hAcc>0.884312</hAcc><vAcc>0.701856</vAcc></extensions></trkpt>
      <trkpt lon="-3.155987" lat="53.005695"><ele>454.650970</ele><time>2021-09-01T11:24:31Z</time><extensions><speed>1.225020</speed><course>320.965942</course><hAcc>0.884285</hAcc><vAcc>0.701715</vAcc></extensions></trkpt>
      <trkpt lon="-3.156002" lat="53.005690"><ele>454.578522</ele><time>2021-09-01T11:24:32Z</time><extensions><speed>1.199040</speed><course>318.335114</course><hAcc>0.884261</hAcc><vAcc>0.701602</vAcc></extensions></trkpt>
      <trkpt lon="-3.156017" lat="53.005684"><ele>454.510437</ele><time>2021-09-01T11:24:33Z</time><extensions><speed>1.173507</speed><course>322.780487</course><hAcc>0.884241</hAcc><vAcc>0.701538</vAcc></extensions></trkpt>
      <trkpt lon="-3.156032" lat="53.005678"><ele>454.447815</ele><time>2021-09-01T11:24:34Z</time><extensions><speed>1.148991</speed><course>321.324005</course><hAcc>0.884226</hAcc><vAcc>0.701526</vAcc></extensions></trkpt>
      <trkpt lon="-3.156046" lat="53.005673"><ele>454.391754</ele><time>2021-09-01T11:24:35Z</time><extensions><speed>1.125593</speed><course>322.516296</course><hAcc>0.884213</hAcc><vAcc>0.701547</vAcc></extensions></trkpt>
      <trkpt lon="-3.156059" lat="53.005667"><ele>454.343567</ele><time>2021-09-01T11:24:36Z</time><extensions><speed>1.103622</speed><course>319.995483</course><hAcc>0.884200</hAcc><vAcc>0.701573</vAcc></extensions></trkpt>
      <trkpt lon="-3.156072" lat="53.005661"><ele>454.304626</ele><time>2021-09-01T11:24:37Z</time><extensions><speed>1.084499</speed><course>324.182892</course><hAcc>0.884184</hAcc><vAcc>0.701580</vAcc></extensions></trkpt>
      <trkpt lon="-3.156084" lat="53.005654"><ele>454.276001</ele><time>2021-09-01T11:24:38Z</time><extensions><speed>1.069756</speed><course>328.616821</course><hAcc>0.884165</hAcc><vAcc>0.701550</vAcc></extensions></trkpt>
      <trkpt lon="-3.156096" lat="53.005648"><ele>454.258759</ele><time>2021-09-01T11:24:39Z</time><extensions><speed>1.059956</speed><course>324.016815</course><hAcc>0.884140</hAcc><vAcc>0.701473</vAcc></extensions></trkpt>
      <trkpt lon="-3.156107" lat="53.005641"><ele>454.253845</ele><time>2021-09-01T11:24:40Z</time><extensions><speed>1.055001</speed><course>329.825897</course><hAcc>0.884112</hAcc><vAcc>0.701352</vAcc></extensions></trkpt>
      <trkpt lon="-3.156118" lat="53.005634"><ele>454.261536</ele><time>2021-09-01T11:24:41Z</time><extensions><speed>1.054059</speed><course>327.868408</course><hAcc>0.884082</hAcc><vAcc>0.701199</vAcc></extensions></trkpt>
      <trkpt lon="-3.156128" lat="53.005627"><ele>454.281586</ele><time>2021-09-01T11:24:42Z</time><extensions><speed>1.055968</speed><course>336.001526</course><hAcc>0.884056</hAcc><vAcc>0.701038</vAcc></extensions></trkpt>
      <trkpt lon="-3.156138" lat="53.005620"><ele>454.313507</ele><time>2021-09-01T11:24:43Z</time><extensions><speed>1.060045</speed><course>319.189575</course><hAcc>0.884039</hAcc><vAcc>0.700898</vAcc></extensions></trkpt>
      <trkpt lon="-3.156148" lat="53.005612"><ele>454.356445</ele><time>2021-09-01T11:24:44Z</time><extensions><speed>1.066633</speed><course>314.045624</course><hAcc>0.884037</hAcc><vAcc>0.700809</vAcc></extensions></trkpt>
      <trkpt lon="-3.156157" lat="53.005604"><ele>454.408936</ele><time>2021-09-01T11:24:45Z</time><extensions><speed>1.076359</speed><course>316.798950</course><hAcc>0.884056</hAcc><vAcc>0.700799</vAcc></extensions></trkpt>
      <trkpt lon="-3.156167" lat="53.005597"><ele>454.469055</ele><time>2021-09-01T11:24:46Z</time><extensions><speed>1.089206</speed><course>316.381958</course><hAcc>0.884101</hAcc><vAcc>0.700893</vAcc></extensions></trkpt>
      <trkpt lon="-3.156176" lat="53.005589"><ele>454.534912</ele><time>2021-09-01T11:24:47Z</time><extensions><speed>1.104744</speed><course>324.109985</course><hAcc>0.884176</hAcc><vAcc>0.701112</vAcc></extensions></trkpt>
      <trkpt lon="-3.156186" lat="53.005580"><ele>454.605255</ele><time>2021-09-01T11:24:48Z</time><extensions><speed>1.122640</speed><course>319.248718</course><hAcc>0.884283</hAcc><vAcc>0.701465</vAcc></extensions></trkpt>
      <trkpt lon="-3.156196" lat="53.005572"><ele>454.679688</ele><time>2021-09-01T11:24:49Z</time><extensions><speed>1.142677</speed><course>322.755310</course><hAcc>0.884419</hAcc><vAcc>0.701945</vAcc></extensions></trkpt>
      <trkpt lon="-3.156205" lat="53.005564"><ele>454.758240</ele><time>2021-09-01T11:24:50Z</time><extensions><speed>1.164165</speed><course>326.625031</course><hAcc>0.884583</hAcc><vAcc>0.702531</vAcc></extensions></trkpt>
      <trkpt lon="-3.156216" lat="53.005555"><ele>454.840698</ele><time>2021-09-01T11:24:51Z</time><extensions><speed>1.186014</speed><course>328.024994</course><hAcc>0.884770</hAcc><vAcc>0.703199</vAcc></extensions></trkpt>
      <trkpt lon="-3.156226" lat="53.005546"><ele>454.926697</ele><time>2021-09-01T11:24:52Z</time><extensions><speed>1.206959</speed><course>332.378082</course><hAcc>0.884973</hAcc><vAcc>0.703923</vAcc></extensions></trkpt>
      <trkpt lon="-3.156236" lat="53.005537"><ele>455.015778</ele><time>2021-09-01T11:24:53Z</time><extensions><speed>1.225954</speed><course>332.526154</course><hAcc>0.885187</hAcc><vAcc>0.704675</vAcc></extensions></trkpt>
      <trkpt lon="-3.156247" lat="53.005528"><ele>455.107330</ele><time>2021-09-01T11:24:54Z</time><extensions><speed>1.242627</speed><course>335.486633</course><hAcc>0.885405</hAcc><vAcc>0.705428</vAcc></extensions></trkpt>
      <trkpt lon="-3.156258" lat="53.005519"><ele>455.200684</ele><time>2021-09-01T11:24:55Z</time><extensions><speed>1.257419</speed><course>336.016846</course><hAcc>0.885621</hAcc><vAcc>0.706159</vAcc></extensions></trkpt>
      <trkpt lon="-3.156269" lat="53.005510"><ele>455.295288</ele><time>2021-09-01T11:24:56Z</time><extensions><speed>1.270936</speed><course>334.888000</course><hAcc>0.885829</hAcc><vAcc>0.706851</vAcc></extensions></trkpt>
      <trkpt lon="-3.156280" lat="53.005501"><ele>455.390808</ele><time>2021-09-01T11:24:57Z</time><extensions><speed>1.283080</speed><course>333.393311</course><hAcc>0.886025</hAcc><vAcc>0.707490</vAcc></extensions></trkpt>
      <trkpt lon="-3.156291" lat="53.005491"><ele>455.487030</ele><time>2021-09-01T11:24:58Z</time><extensions><speed>1.293305</speed><course>318.935883</course><hAcc>0.886207</hAcc><vAcc>0.708070</vAcc></extensions></trkpt>
      <trkpt lon="-3.156302" lat="53.005482"><ele>455.583893</ele><time>2021-09-01T11:24:59Z</time><extensions><speed>1.301229</speed><course>311.891724</course><hAcc>0.886372</hAcc><vAcc>0.708587</vAcc></extensions></trkpt>
      <trkpt lon="-3.156313" lat="53.005472"><ele>455.681274</ele><time>2021-09-01T11:25:00Z</time><extensions><speed>1.306527</speed><course>312.578461</course><hAcc>0.886519</hAcc><vAcc>0.709038</vAcc></extensions></trkpt>
      <trkpt lon="-3.156324" lat="53.005462"><ele>455.779266</ele><time>2021-09-01T11:25:01Z</time><extensions><speed>1.309534</speed><course>320.602325</course><hAcc>0.886650</hAcc><vAcc>0.709429</vAcc></extensions></trkpt>
      <trkpt lon="-3.156336" lat="53.005453"><ele>455.877960</ele><time>2021-09-01T11:25:02Z</time><extensions><speed>1.310826</speed><course>323.639648</course><hAcc>0.886764</hAcc><vAcc>0.709764</vAcc></extensions></trkpt>
      <trkpt lon="-3.156347" lat="53.005443"><ele>455.977386</ele><time>2021-09-01T11:25:03Z</time><extensions><speed>1.310748</speed><course>325.641083</course><hAcc>0.886864</hAcc><vAcc>0.710052</vAcc></extensions></trkpt>
      <trkpt lon="-3.156358" lat="53.005433"><ele>456.077271</ele><time>2021-09-01T11:25:04Z</time><extensions><speed>1.309286</speed><course>324.286163</course><hAcc>0.886951</hAcc><vAcc>0.710302</vAcc></extensions></trkpt>
      <trkpt lon="-3.156369" lat="53.005424"><ele>456.177460</ele><time>2021-09-01T11:25:05Z</time><extensions><speed>1.306432</speed><course>330.884674</course><hAcc>0.887027</hAcc><vAcc>0.710521</vAcc></extensions></trkpt>
      <trkpt lon="-3.156380" lat="53.005414"><ele>456.277832</ele><time>2021-09-01T11:25:06Z</time><extensions><speed>1.303061</speed><course>342.591980</course><hAcc>0.887094</hAcc><vAcc>0.710716</vAcc></extensions></trkpt>
      <trkpt lon="-3.156390" lat="53.005404"><ele>456.378204</ele><time>2021-09-01T11:25:07Z</time><extensions><speed>1.300019</speed><course>340.473694</course><hAcc>0.887154</hAcc><vAcc>0.710894</vAcc></extensions></trkpt>
      <trkpt lon="-3.156400" lat="53.005394"><ele>456.478180</ele><time>2021-09-01T11:25:08Z</time><extensions><speed>1.297526</speed><course>337.459930</course><hAcc>0.887208</hAcc><vAcc>0.711058</vAcc></extensions></trkpt>
      <trkpt lon="-3.156410" lat="53.005384"><ele>456.577209</ele><time>2021-09-01T11:25:09Z</time><extensions><speed>1.295561</speed><course>334.977905</course><hAcc>0.887256</hAcc><vAcc>0.711214</vAcc></extensions></trkpt>
      <trkpt lon="-3.156420" lat="53.005374"><ele>456.674408</ele><time>2021-09-01T11:25:10Z</time><extensions><speed>1.294488</speed><course>334.909821</course><hAcc>0.887300</hAcc><vAcc>0.711359</vAcc></extensions></trkpt>
      <trkpt lon="-3.156430" lat="53.005364"><ele>456.768738</ele><time>2021-09-01T11:25:11Z</time><extensions><speed>1.295053</speed><course>335.401093</course><hAcc>0.887340</hAcc><vAcc>0.711492</vAcc></extensions></trkpt>
      <trkpt lon="-3.156439" lat="53.005354"><ele>456.859406</ele><time>2021-09-01T11:25:12Z</time><extensions><speed>1.297510</speed><course>335.416534</course><hAcc>0.887374</hAcc><vAcc>0.711610</vAcc></extensions></trkpt>
      <trkpt lon="-3.156449" lat="53.005344"><ele>456.946014</ele><time>2021-09-01T11:25:13Z</time><extensions><speed>1.301769</speed><course>333.502777</course><hAcc>0.887403</hAcc><vAcc>0.711712</vAcc></extensions></trkpt>
      <trkpt lon="-3.156458" lat="53.005334"><ele>457.028351</ele><time>2021-09-01T11:25:14Z</time><extensions><speed>1.307125</speed><course>334.704010</course><hAcc>0.887426</hAcc><vAcc>0.711793</vAcc></extensions></trkpt>
      <trkpt lon="-3.156467" lat="53.005323"><ele>457.106110</ele><time>2021-09-01T11:25:15Z</time><extensions><speed>1.312296</speed><course>336.400421</course><hAcc>0.887443</hAcc><vAcc>0.711853</vAcc></extensions></trkpt>
      <trkpt lon="-3.156477" lat="53.005313"><ele>457.178833</ele><time>2021-09-01T11:25:16Z</time><extensions><speed>1.316786</speed><course>347.265839</course><hAcc>0.887453</hAcc><vAcc>0.711889</vAcc></extensions></trkpt>
      <trkpt lon="-3.156486" lat="53.005303"><ele>457.246246</ele><time>2021-09-01T11:25:17Z</time><extensions><speed>1.320868</speed><course>344.062927</course><hAcc>0.887457</hAcc><vAcc>0.711897</vAcc></extensions></trkpt>
      <trkpt lon="-3.156496" lat="53.005292"><ele>457.308044</ele><time>2021-09-01T11:25:18Z</time><extensions><speed>1.324803</speed><course>337.032654</course><hAcc>0.887455</hAcc><vAcc>0.711878</vAcc></extensions></trkpt>
      <trkpt lon="-3.156506" lat="53.005282"><ele>457.363831</ele><time>2021-09-01T11:25:19Z</time><extensions><speed>1.328690</speed><course>338.548584</course><hAcc>0.887448</hAcc><vAcc>0.711834</vAcc></extensions></trkpt>
      <trkpt lon="-3.156516" lat="53.005271"><ele>457.413300</ele><time>2021-09-01T11:25:20Z</time><extensions><speed>1.332451</speed><course>340.790558</course><hAcc>0.887437</hAcc><vAcc>0.711768</vAcc></extensions></trkpt>
      <trkpt lon="-3.156526" lat="53.005261"><ele>457.456024</ele><time>2021-09-01T11:25:21Z</time><extensions><speed>1.335769</speed><course>331.528198</course><hAcc>0.887424</hAcc><vAcc>0.711690</vAcc></extensions></trkpt>
      <trkpt lon="-3.156537" lat="53.005251"><ele>457.491760</ele><time>2021-09-01T11:25:22Z</time><extensions><speed>1.338414</speed><course>326.705475</course><hAcc>0.887411</hAcc><vAcc>0.711608</vAcc></extensions></trkpt>
      <trkpt lon="-3.156547" lat="53.005241"><ele>457.520721</ele><time>2021-09-01T11:25:23Z</time><extensions><speed>1.339536</speed><course>334.332062</course><hAcc>0.887400</hAcc><vAcc>0.711533</vAcc></extensions></trkpt>
      <trkpt lon="-3.156558" lat="53.005231"><ele>457.543396</ele><time>2021-09-01T11:25:24Z</time><extensions><speed>1.338126</speed><course>321.684448</course><hAcc>0.887395</hAcc><vAcc>0.711479</vAcc></extensions></trkpt>
      <trkpt lon="-3.156569" lat="53.005221"><ele>457.560394</ele><time>2021-09-01T11:25:25Z</time><extensions><speed>1.333943</speed><course>319.446838</course><hAcc>0.887399</hAcc><vAcc>0.711454</vAcc></extensions></trkpt>
      <trkpt lon="-3.156580" lat="53.005211"><ele>457.572357</ele><time>2021-09-01T11:25:26Z</time><extensions><speed>1.327145</speed><course>327.299927</course><hAcc>0.887416</hAcc><vAcc>0.711472</vAcc></extensions></trkpt>
      <trkpt lon="-3.156591" lat="53.005201"><ele>457.579895</ele><time>2021-09-01T11:25:27Z</time><extensions><speed>1.318422</speed><course>327.362518</course><hAcc>0.887450</hAcc><vAcc>0.711542</vAcc></extensions></trkpt>
      <trkpt lon="-3.156602" lat="53.005191"><ele>457.585144</ele><time>2021-09-01T11:25:28Z</time><extensions><speed>1.308038</speed><course>-1.000000</course><hAcc>0.887461</hAcc><vAcc>0.711599</vAcc></extensions></trkpt>
      <trkpt lon="-3.156613" lat="53.005182"><ele>457.586456</ele><time>2021-09-01T11:25:29Z</time><extensions><speed>1.297389</speed><course>-1.000000</course><hAcc>0.887493</hAcc><vAcc>0.711724</vAcc></extensions></trkpt>
      <trkpt lon="-3.156624" lat="53.005172"><ele>457.586487</ele><time>2021-09-01T11:25:30Z</time><extensions><speed>1.286937</speed><course>-1.000000</course><hAcc>0.887536</hAcc><vAcc>0.711903</vAcc></extensions></trkpt>
      <trkpt lon="-3.156635" lat="53.005163"><ele>457.586487</ele><time>2021-09-01T11:25:31Z</time><extensions><speed>1.277097</speed><course>-1.000000</course><hAcc>0.887585</hAcc><vAcc>0.712123</vAcc></extensions></trkpt>
      <trkpt lon="-3.156646" lat="53.005153"><ele>457.587433</ele><time>2021-09-01T11:25:32Z</time><extensions><speed>1.268328</speed><course>-1.000000</course><hAcc>0.887635</hAcc><vAcc>0.712361</vAcc></extensions></trkpt>
      <trkpt lon="-3.156657" lat="53.005144"><ele>457.590210</ele><time>2021-09-01T11:25:33Z</time><extensions><speed>1.261185</speed><course>-1.000000</course><hAcc>0.887682</hAcc><vAcc>0.712592</vAcc></extensions></trkpt>
      <trkpt lon="-3.156668" lat="53.005135"><ele>457.595734</ele><time>2021-09-01T11:25:34Z</time><extensions><speed>1.256099</speed><course>-1.000000</course><hAcc>0.887722</hAcc><vAcc>0.712794</vAcc></extensions></trkpt>
      <trkpt lon="-3.156679" lat="53.005126"><ele>457.605042</ele><time>2021-09-01T11:25:35Z</time><extensions><speed>1.253362</speed><course>-1.000000</course><hAcc>0.887753</hAcc><vAcc>0.712946</vAcc></extensions></trkpt>
      <trkpt lon="-3.156690" lat="53.005117"><ele>457.619171</ele><time>2021-09-01T11:25:36Z</time><extensions><speed>1.253159</speed><course>-1.000000</course><hAcc>0.887772</hAcc><vAcc>0.713034</vAcc></extensions></trkpt>
      <trkpt lon="-3.156701" lat="53.005107"><ele>457.638855</ele><time>2021-09-01T11:25:37Z</time><extensions><speed>1.255521</speed><course>-1.000000</course><hAcc>0.887778</hAcc><vAcc>0.713051</vAcc></extensions></trkpt>
      <trkpt lon="-3.156712" lat="53.005098"><ele>457.664276</ele><time>2021-09-01T11:25:38Z</time><extensions><speed>1.260107</speed><course>-1.000000</course><hAcc>0.887772</hAcc><vAcc>0.712998</vAcc></extensions></trkpt>
      <trkpt lon="-3.156723" lat="53.005089"><ele>457.695221</ele><time>2021-09-01T11:25:39Z</time><extensions><speed>1.266326</speed><course>-1.000000</course><hAcc>0.887753</hAcc><vAcc>0.712889</vAcc></extensions></trkpt>
      <trkpt lon="-3.156735" lat="53.005080"><ele>457.731201</ele><time>2021-09-01T11:25:40Z</time><extensions><speed>1.273883</speed><course>-1.000000</course><hAcc>0.887725</hAcc><vAcc>0.712742</vAcc></extensions></trkpt>
      <trkpt lon="-3.156746" lat="53.005071"><ele>457.771790</ele><time>2021-09-01T11:25:41Z</time><extensions><speed>1.282032</speed><course>116.725777</course><hAcc>0.887688</hAcc><vAcc>0.712574</vAcc></extensions></trkpt>
      <trkpt lon="-3.156758" lat="53.005062"><ele>457.816650</ele><time>2021-09-01T11:25:42Z</time><extensions><speed>1.289917</speed><course>116.725777</course><hAcc>0.887647</hAcc><vAcc>0.712402</vAcc></extensions></trkpt>
      <trkpt lon="-3.156771" lat="53.005053"><ele>457.865295</ele><time>2021-09-01T11:25:43Z</time><extensions><speed>1.297422</speed><course>116.725777</course><hAcc>0.887603</hAcc><vAcc>0.712239</vAcc></extensions></trkpt>
      <trkpt lon="-3.156783" lat="53.005044"><ele>457.917145</ele><time>2021-09-01T11:25:44Z</time><extensions><speed>1.304727</speed><course>116.725777</course><hAcc>0.887560</hAcc><vAcc>0.712091</vAcc></extensions></trkpt>
      <trkpt lon="-3.156795" lat="53.005035"><ele>457.971710</ele><time>2021-09-01T11:25:45Z</time><extensions><speed>1.312401</speed><course>116.725777</course><hAcc>0.887520</hAcc><vAcc>0.711960</vAcc></extensions></trkpt>
      <trkpt lon="-3.156808" lat="53.005026"><ele>458.028412</ele><time>2021-09-01T11:25:46Z</time><extensions><speed>1.320772</speed><course>116.725784</course><hAcc>0.887485</hAcc><vAcc>0.711848</vAcc></extensions></trkpt>
      <trkpt lon="-3.156821" lat="53.005017"><ele>458.086853</ele><time>2021-09-01T11:25:47Z</time><extensions><speed>1.329070</speed><course>116.725784</course><hAcc>0.887457</hAcc><vAcc>0.711756</vAcc></extensions></trkpt>
      <trkpt lon="-3.156833" lat="53.005008"><ele>458.146973</ele><time>2021-09-01T11:25:48Z</time><extensions><speed>1.336146</speed><course>116.725784</course><hAcc>0.887437</hAcc><vAcc>0.711689</vAcc></extensions></trkpt>
      <trkpt lon="-3.156846" lat="53.004999"><ele>458.208679</ele><time>2021-09-01T11:25:49Z</time><extensions><speed>1.341382</speed><course>116.725784</course><hAcc>0.887424</hAcc><vAcc>0.711649</vAcc></extensions></trkpt>
      <trkpt lon="-3.156859" lat="53.004989"><ele>458.271729</ele><time>2021-09-01T11:25:50Z</time><extensions><speed>1.344765</speed><course>116.725784</course><hAcc>0.887420</hAcc><vAcc>0.711639</vAcc></extensions></trkpt>
      <trkpt lon="-3.156872" lat="53.004980"><ele>458.336212</ele><time>2021-09-01T11:25:51Z</time><extensions><speed>1.346765</speed><course>116.725784</course><hAcc>0.887423</hAcc><vAcc>0.711657</vAcc></extensions></trkpt>
      <trkpt lon="-3.156885" lat="53.004971"><ele>458.402283</ele><time>2021-09-01T11:25:52Z</time><extensions><speed>1.348097</speed><course>116.725784</course><hAcc>0.887434</hAcc><vAcc>0.711700</vAcc></extensions></trkpt>
      <trkpt lon="-3.156898" lat="53.004961"><ele>458.469788</ele><time>2021-09-01T11:25:53Z</time><extensions><speed>1.349479</speed><course>116.725784</course><hAcc>0.887451</hAcc><vAcc>0.711764</vAcc></extensions></trkpt>
      <trkpt lon="-3.156910" lat="53.004952"><ele>458.538300</ele><time>2021-09-01T11:25:54Z</time><extensions><speed>1.351227</speed><course>116.725784</course><hAcc>0.887474</hAcc><vAcc>0.711844</vAcc></extensions></trkpt>
      <trkpt lon="-3.156923" lat="53.004943"><ele>458.607361</ele><time>2021-09-01T11:25:55Z</time><extensions><speed>1.353608</speed><course>116.725784</course><hAcc>0.887501</hAcc><vAcc>0.711940</vAcc></extensions></trkpt>
      <trkpt lon="-3.156936" lat="53.004933"><ele>458.676453</ele><time>2021-09-01T11:25:56Z</time><extensions><speed>1.356596</speed><course>116.725784</course><hAcc>0.887529</hAcc><vAcc>0.712047</vAcc></extensions></trkpt>
      <trkpt lon="-3.156949" lat="53.004924"><ele>458.744873</ele><time>2021-09-01T11:25:57Z</time><extensions><speed>1.359498</speed><course>116.725784</course><hAcc>0.887558</hAcc><vAcc>0.712158</vAcc></extensions></trkpt>
      <trkpt lon="-3.156962" lat="53.004915"><ele>458.811951</ele><time>2021-09-01T11:25:58Z</time><extensions><speed>1.361607</speed><course>116.725784</course><hAcc>0.887584</hAcc><vAcc>0.712266</vAcc></extensions></trkpt>
      <trkpt lon="-3.156976" lat="53.004905"><ele>458.877228</ele><time>2021-09-01T11:25:59Z</time><extensions><speed>1.362678</speed><course>116.725784</course><hAcc>0.887605</hAcc><vAcc>0.712364</vAcc></extensions></trkpt>
      <trkpt lon="-3.156989" lat="53.004896"><ele>458.940369</ele><time>2021-09-01T11:26:00Z</time><extensions><speed>1.362658</speed><course>116.725784</course><hAcc>0.887619</hAcc><vAcc>0.712440</vAcc></extensions></trkpt>
      <trkpt lon="-3.157003" lat="53.004887"><ele>459.001312</ele><time>2021-09-01T11:26:01Z</time><extensions><speed>1.361435</speed><course>116.725784</course><hAcc>0.887622</hAcc><vAcc>0.712487</vAcc></extensions></trkpt>
      <trkpt lon="-3.157017" lat="53.004878"><ele>459.060181</ele><time>2021-09-01T11:26:02Z</time><extensions><speed>1.358950</speed><course>116.725784</course><hAcc>0.887613</hAcc><vAcc>0.712494</vAcc></extensions></trkpt>
      <trkpt lon="-3.157030" lat="53.004869"><ele>459.117340</ele><time>2021-09-01T11:26:03Z</time><extensions><speed>1.355273</speed><course>116.725777</course><hAcc>0.887587</hAcc><vAcc>0.712449</vAcc></extensions></trkpt>
      <trkpt lon="-3.157044" lat="53.004861"><ele>459.173279</ele><time>2021-09-01T11:26:04Z</time><extensions><speed>1.350202</speed><course>116.725769</course><hAcc>0.887545</hAcc><vAcc>0.712344</vAcc></extensions></trkpt>
      <trkpt lon="-3.157058" lat="53.004852"><ele>459.228455</ele><time>2021-09-01T11:26:05Z</time><extensions><speed>1.343675</speed><course>116.725769</course><hAcc>0.887483</hAcc><vAcc>0.712173</vAcc></extensions></trkpt>
      <trkpt lon="-3.157072" lat="53.004843"><ele>459.282898</ele><time>2021-09-01T11:26:06Z</time><extensions><speed>1.335564</speed><course>116.725761</course><hAcc>0.887402</hAcc><vAcc>0.711931</vAcc></extensions></trkpt>
      <trkpt lon="-3.157086" lat="53.004835"><ele>459.336304</ele><time>2021-09-01T11:26:07Z</time><extensions><speed>1.325490</speed><course>116.725754</course><hAcc>0.887300</hAcc><vAcc>0.711620</vAcc></extensions></trkpt>
      <trkpt lon="-3.157099" lat="53.004826"><ele>459.388397</ele><time>2021-09-01T11:26:07Z</time><extensions><speed>1.313021</speed><course>116.725746</course><hAcc>0.887198</hAcc><vAcc>0.711256</vAcc></extensions></trkpt>
      <trkpt lon="-3.157113" lat="53.004817"><ele>459.439209</ele><time>2021-09-01T11:26:08Z</time><extensions><speed>1.297151</speed><course>116.725746</course><hAcc>0.887097</hAcc><vAcc>0.710849</vAcc></extensions></trkpt>
      <trkpt lon="-3.157125" lat="53.004809"><ele>459.488800</ele><time>2021-09-01T11:26:09Z</time><extensions><speed>1.278396</speed><course>116.725731</course><hAcc>0.886982</hAcc><vAcc>0.710395</vAcc></extensions></trkpt>
      <trkpt lon="-3.157138" lat="53.004800"><ele>459.537567</ele><time>2021-09-01T11:26:10Z</time><extensions><speed>1.258490</speed><course>116.725723</course><hAcc>0.886859</hAcc><vAcc>0.709909</vAcc></extensions></trkpt>
      <trkpt lon="-3.157149" lat="53.004791"><ele>459.586334</ele><time>2021-09-01T11:26:12Z</time><extensions><speed>1.238214</speed><course>116.725723</course><hAcc>0.886713</hAcc><vAcc>0.709393</vAcc></extensions></trkpt>
      <trkpt lon="-3.157160" lat="53.004782"><ele>459.635986</ele><time>2021-09-01T11:26:13Z</time><extensions><speed>1.217382</speed><course>116.725708</course><hAcc>0.886549</hAcc><vAcc>0.708865</vAcc></extensions></trkpt>
      <trkpt lon="-3.157171" lat="53.004774"><ele>459.687317</ele><time>2021-09-01T11:26:14Z</time><extensions><speed>1.195064</speed><course>116.725700</course><hAcc>0.886390</hAcc><vAcc>0.708350</vAcc></extensions></trkpt>
      <trkpt lon="-3.157180" lat="53.004765"><ele>459.740662</ele><time>2021-09-01T11:26:15Z</time><extensions><speed>1.171120</speed><course>116.725693</course><hAcc>0.886237</hAcc><vAcc>0.707858</vAcc></extensions></trkpt>
      <trkpt lon="-3.157189" lat="53.004756"><ele>459.795837</ele><time>2021-09-01T11:26:16Z</time><extensions><speed>1.145332</speed><course>116.725685</course><hAcc>0.886096</hAcc><vAcc>0.707399</vAcc></extensions></trkpt>
      <trkpt lon="-3.157198" lat="53.004747"><ele>459.852264</ele><time>2021-09-01T11:26:17Z</time><extensions><speed>1.116719</speed><course>116.725670</course><hAcc>0.885969</hAcc><vAcc>0.706978</vAcc></extensions></trkpt>
      <trkpt lon="-3.157206" lat="53.004738"><ele>459.908722</ele><time>2021-09-01T11:26:18Z</time><extensions><speed>1.085001</speed><course>116.725670</course><hAcc>0.885862</hAcc><vAcc>0.706604</vAcc></extensions></trkpt>
      <trkpt lon="-3.157213" lat="53.004730"><ele>459.963623</ele><time>2021-09-01T11:26:19Z</time><extensions><speed>1.050428</speed><course>116.725662</course><hAcc>0.885777</hAcc><vAcc>0.706289</vAcc></extensions></trkpt>
      <trkpt lon="-3.157220" lat="53.004722"><ele>460.015472</ele><time>2021-09-01T11:26:20Z</time><extensions><speed>1.013009</speed><course>316.510925</course><hAcc>0.885720</hAcc><vAcc>0.706051</vAcc></extensions></trkpt>
      <trkpt lon="-3.157226" lat="53.004713"><ele>460.063080</ele><time>2021-09-01T11:26:21Z</time><extensions><speed>0.972149</speed><course>325.771881</course><hAcc>0.885692</hAcc><vAcc>0.705910</vAcc></extensions></trkpt>
      <trkpt lon="-3.157232" lat="53.004706"><ele>460.105560</ele><time>2021-09-01T11:26:22Z</time><extensions><speed>0.926989</speed><course>329.412018</course><hAcc>0.885696</hAcc><vAcc>0.705887</vAcc></extensions></trkpt>
      <trkpt lon="-3.157237" lat="53.004698"><ele>460.142090</ele><time>2021-09-01T11:26:23Z</time><extensions><speed>0.876789</speed><course>328.807678</course><hAcc>0.885732</hAcc><vAcc>0.706001</vAcc></extensions></trkpt>
      <trkpt lon="-3.157242" lat="53.004691"><ele>460.171997</ele><time>2021-09-01T11:26:24Z</time><extensions><speed>0.821100</speed><course>328.238739</course><hAcc>0.885799</hAcc><vAcc>0.706256</vAcc></extensions></trkpt>
      <trkpt lon="-3.157247" lat="53.004685"><ele>460.194916</ele><time>2021-09-01T11:26:25Z</time><extensions><speed>0.760301</speed><course>328.754333</course><hAcc>0.885893</hAcc><vAcc>0.706640</vAcc></extensions></trkpt>
      <trkpt lon="-3.157251" lat="53.004679"><ele>460.210632</ele><time>2021-09-01T11:26:26Z</time><extensions><speed>0.695921</speed><course>321.291412</course><hAcc>0.886009</hAcc><vAcc>0.707122</vAcc></extensions></trkpt>
      <trkpt lon="-3.157255" lat="53.004673"><ele>460.219086</ele><time>2021-09-01T11:26:27Z</time><extensions><speed>0.630395</speed><course>315.163422</course><hAcc>0.886141</hAcc><vAcc>0.707661</vAcc></extensions></trkpt>
      <trkpt lon="-3.157258" lat="53.004668"><ele>460.220093</ele><time>2021-09-01T11:26:28Z</time><extensions><speed>0.566878</speed><course>320.356079</course><hAcc>0.886282</hAcc><vAcc>0.708211</vAcc></extensions></trkpt>
      <trkpt lon="-3.157261" lat="53.004664"><ele>460.213745</ele><time>2021-09-01T11:26:29Z</time><extensions><speed>0.509194</speed><course>314.759003</course><hAcc>0.886425</hAcc><vAcc>0.708738</vAcc></extensions></trkpt>
      <trkpt lon="-3.157264" lat="53.004660"><ele>460.200470</ele><time>2021-09-01T11:26:30Z</time><extensions><speed>0.460625</speed><course>306.430359</course><hAcc>0.886566</hAcc><vAcc>0.709216</vAcc></extensions></trkpt>
      <trkpt lon="-3.157266" lat="53.004656"><ele>460.180878</ele><time>2021-09-01T11:26:31Z</time><extensions><speed>0.423625</speed><course>312.642456</course><hAcc>0.886701</hAcc><vAcc>0.709635</vAcc></extensions></trkpt>
      <trkpt lon="-3.157268" lat="53.004652"><ele>460.155914</ele><time>2021-09-01T11:26:32Z</time><extensions><speed>0.400223</speed><course>309.329712</course><hAcc>0.886826</hAcc><vAcc>0.709996</vAcc></extensions></trkpt>
      <trkpt lon="-3.157270" lat="53.004649"><ele>460.126740</ele><time>2021-09-01T11:26:33Z</time><extensions><speed>0.391758</speed><course>306.517120</course><hAcc>0.886941</hAcc><vAcc>0.710308</vAcc></extensions></trkpt>
      <trkpt lon="-3.157272" lat="53.004646"><ele>460.094727</ele><time>2021-09-01T11:26:34Z</time><extensions><speed>0.398979</speed><course>302.169647</course><hAcc>0.887046</hAcc><vAcc>0.710585</vAcc></extensions></trkpt>
      <trkpt lon="-3.157275" lat="53.004643"><ele>460.061188</ele><time>2021-09-01T11:26:35Z</time><extensions><speed>0.422112</speed><course>299.953156</course><hAcc>0.887141</hAcc><vAcc>0.710843</vAcc></extensions></trkpt>
      <trkpt lon="-3.157278" lat="53.004639"><ele>460.027466</ele><time>2021-09-01T11:26:36Z</time><extensions><speed>0.460693</speed><course>299.473511</course><hAcc>0.887230</hAcc><vAcc>0.711094</vAcc></extensions></trkpt>
      <trkpt lon="-3.157281" lat="53.004635"><ele>459.994629</ele><time>2021-09-01T11:26:37Z</time><extensions><speed>0.513485</speed><course>298.103729</course><hAcc>0.887312</hAcc><vAcc>0.711346</vAcc></extensions></trkpt>
      <trkpt lon="-3.157285" lat="53.004631"><ele>459.963623</ele><time>2021-09-01T11:26:38Z</time><extensions><speed>0.578547</speed><course>294.101929</course><hAcc>0.887391</hAcc><vAcc>0.711599</vAcc></extensions></trkpt>
      <trkpt lon="-3.157290" lat="53.004626"><ele>459.935364</ele><time>2021-09-01T11:26:39Z</time><extensions><speed>0.653114</speed><course>298.669067</course><hAcc>0.887466</hAcc><vAcc>0.711851</vAcc></extensions></trkpt>
      <trkpt lon="-3.157295" lat="53.004621"><ele>459.910645</ele><time>2021-09-01T11:26:40Z</time><extensions><speed>0.733495</speed><course>297.460327</course><hAcc>0.887538</hAcc><vAcc>0.712096</vAcc></extensions></trkpt>
      <trkpt lon="-3.157301" lat="53.004615"><ele>459.890198</ele><time>2021-09-01T11:26:41Z</time><extensions><speed>0.815247</speed><course>300.643127</course><hAcc>0.887606</hAcc><vAcc>0.712331</vAcc></extensions></trkpt>
      <trkpt lon="-3.157308" lat="53.004608"><ele>459.874298</ele><time>2021-09-01T11:26:42Z</time><extensions><speed>0.894440</speed><course>300.762909</course><hAcc>0.887671</hAcc><vAcc>0.712553</vAcc></extensions></trkpt>
      <trkpt lon="-3.157315" lat="53.004601"><ele>459.862671</ele><time>2021-09-01T11:26:43Z</time><extensions><speed>0.968658</speed><course>306.221161</course><hAcc>0.887730</hAcc><vAcc>0.712756</vAcc></extensions></trkpt>
      <trkpt lon="-3.157323" lat="53.004593"><ele>459.854523</ele><time>2021-09-01T11:26:44Z</time><extensions><speed>1.036627</speed><course>311.753571</course><hAcc>0.887782</hAcc><vAcc>0.712938</vAcc></extensions></trkpt>
      <trkpt lon="-3.157331" lat="53.004585"><ele>459.849243</ele><time>2021-09-01T11:26:45Z</time><extensions><speed>1.097708</speed><course>314.039551</course><hAcc>0.887825</hAcc><vAcc>0.713092</vAcc></extensions></trkpt>
      <trkpt lon="-3.157339" lat="53.004576"><ele>459.846436</ele><time>2021-09-01T11:26:46Z</time><extensions><speed>1.151706</speed><course>316.125336</course><hAcc>0.887858</hAcc><vAcc>0.713213</vAcc></extensions></trkpt>
      <trkpt lon="-3.157348" lat="53.004567"><ele>459.845734</ele><time>2021-09-01T11:26:47Z</time><extensions><speed>1.198655</speed><course>313.054962</course><hAcc>0.887879</hAcc><vAcc>0.713295</vAcc></extensions></trkpt>
      <trkpt lon="-3.157357" lat="53.004558"><ele>459.846893</ele><time>2021-09-01T11:26:48Z</time><extensions><speed>1.238675</speed><course>309.718231</course><hAcc>0.887886</hAcc><vAcc>0.713334</vAcc></extensions></trkpt>
      <trkpt lon="-3.157367" lat="53.004548"><ele>459.849854</ele><time>2021-09-01T11:26:49Z</time><extensions><speed>1.272308</speed><course>315.993652</course><hAcc>0.887878</hAcc><vAcc>0.713326</vAcc></extensions></trkpt>
      <trkpt lon="-3.157376" lat="53.004538"><ele>459.854614</ele><time>2021-09-01T11:26:50Z</time><extensions><speed>1.300246</speed><course>314.639465</course><hAcc>0.887855</hAcc><vAcc>0.713267</vAcc></extensions></trkpt>
      <trkpt lon="-3.157385" lat="53.004528"><ele>459.861084</ele><time>2021-09-01T11:26:51Z</time><extensions><speed>1.323191</speed><course>314.699524</course><hAcc>0.887815</hAcc><vAcc>0.713151</vAcc></extensions></trkpt>
      <trkpt lon="-3.157395" lat="53.004517"><ele>459.869141</ele><time>2021-09-01T11:26:52Z</time><extensions><speed>1.341750</speed><course>315.537170</course><hAcc>0.887760</hAcc><vAcc>0.712975</vAcc></extensions></trkpt>
      <trkpt lon="-3.157404" lat="53.004506"><ele>459.878662</ele><time>2021-09-01T11:26:53Z</time><extensions><speed>1.356179</speed><course>315.384186</course><hAcc>0.887689</hAcc><vAcc>0.712740</vAcc></extensions></trkpt>
      <trkpt lon="-3.157413" lat="53.004495"><ele>459.889221</ele><time>2021-09-01T11:26:54Z</time><extensions><speed>1.366674</speed><course>316.068207</course><hAcc>0.887605</hAcc><vAcc>0.712451</vAcc></extensions></trkpt>
      <trkpt lon="-3.157423" lat="53.004485"><ele>459.900330</ele><time>2021-09-01T11:26:55Z</time><extensions><speed>1.373757</speed><course>319.526184</course><hAcc>0.887509</hAcc><vAcc>0.712116</vAcc></extensions></trkpt>
      <trkpt lon="-3.157432" lat="53.004473"><ele>459.911469</ele><time>2021-09-01T11:26:56Z</time><extensions><speed>1.377868</speed><course>322.032959</course><hAcc>0.887405</hAcc><vAcc>0.711746</vAcc></extensions></trkpt>
      <trkpt lon="-3.157441" lat="53.004462"><ele>459.922180</ele><time>2021-09-01T11:26:57Z</time><extensions><speed>1.379180</speed><course>326.209290</course><hAcc>0.887297</hAcc><vAcc>0.711353</vAcc></extensions></trkpt>
      <trkpt lon="-3.157450" lat="53.004451"><ele>459.932098</ele><time>2021-09-01T11:26:58Z</time><extensions><speed>1.378155</speed><course>324.142303</course><hAcc>0.887187</hAcc><vAcc>0.710952</vAcc></extensions></trkpt>
      <trkpt lon="-3.157458" lat="53.004440"><ele>459.941193</ele><time>2021-09-01T11:26:59Z</time><extensions><speed>1.375529</speed><course>332.193542</course><hAcc>0.887080</hAcc><vAcc>0.710561</vAcc></extensions></trkpt>
      <trkpt lon="-3.157467" lat="53.004429"><ele>459.949707</ele><time>2021-09-01T11:27:00Z</time><extensions><speed>1.371908</speed><course>329.558014</course><hAcc>0.886979</hAcc><vAcc>0.710195</vAcc></extensions></trkpt>
      <trkpt lon="-3.157475" lat="53.004417"><ele>459.957825</ele><time>2021-09-01T11:27:01Z</time><extensions><speed>1.367578</speed><course>323.309692</course><hAcc>0.886887</hAcc><vAcc>0.709868</vAcc></extensions></trkpt>
      <trkpt lon="-3.157483" lat="53.004406"><ele>459.965698</ele><time>2021-09-01T11:27:02Z</time><extensions><speed>1.362462</speed><course>319.992767</course><hAcc>0.886807</hAcc><vAcc>0.709593</vAcc></extensions></trkpt>
      <trkpt lon="-3.157490" lat="53.004395"><ele>459.973145</ele><time>2021-09-01T11:27:03Z</time><extensions><speed>1.356332</speed><course>322.539886</course><hAcc>0.886741</hAcc><vAcc>0.709375</vAcc></extensions></trkpt>
      <trkpt lon="-3.157498" lat="53.004383"><ele>459.979919</ele><time>2021-09-01T11:27:04Z</time><extensions><speed>1.349158</speed><course>317.532928</course><hAcc>0.886687</hAcc><vAcc>0.709216</vAcc></extensions></trkpt>
      <trkpt lon="-3.157505" lat="53.004372"><ele>459.985931</ele><time>2021-09-01T11:27:05Z</time><extensions><speed>1.341030</speed><course>314.725220</course><hAcc>0.886646</hAcc><vAcc>0.709113</vAcc></extensions></trkpt>
      <trkpt lon="-3.157512" lat="53.004361"><ele>459.991180</ele><time>2021-09-01T11:27:06Z</time><extensions><speed>1.332040</speed><course>325.463684</course><hAcc>0.886616</hAcc><vAcc>0.709057</vAcc></extensions></trkpt>
      <trkpt lon="-3.157518" lat="53.004350"><ele>459.995667</ele><time>2021-09-01T11:27:07Z</time><extensions><speed>1.322284</speed><course>326.490570</course><hAcc>0.886592</hAcc><vAcc>0.709033</vAcc></extensions></trkpt>
      <trkpt lon="-3.157525" lat="53.004338"><ele>459.999237</ele><time>2021-09-01T11:27:08Z</time><extensions><speed>1.311799</speed><course>316.111328</course><hAcc>0.886572</hAcc><vAcc>0.709025</vAcc></extensions></trkpt>
      <trkpt lon="-3.157531" lat="53.004327"><ele>460.001984</ele><time>2021-09-01T11:27:09Z</time><extensions><speed>1.300660</speed><course>316.470520</course><hAcc>0.886551</hAcc><vAcc>0.709015</vAcc></extensions></trkpt>
      <trkpt lon="-3.157538" lat="53.004316"><ele>460.003967</ele><time>2021-09-01T11:27:10Z</time><extensions><speed>1.288792</speed><course>317.921600</course><hAcc>0.886526</hAcc><vAcc>0.708986</vAcc></extensions></trkpt>
      <trkpt lon="-3.157544" lat="53.004305"><ele>460.005554</ele><time>2021-09-01T11:27:11Z</time><extensions><speed>1.275899</speed><course>317.925903</course><hAcc>0.886491</hAcc><vAcc>0.708920</vAcc></extensions></trkpt>
      <trkpt lon="-3.157550" lat="53.004295"><ele>460.007294</ele><time>2021-09-01T11:27:12Z</time><extensions><speed>1.262165</speed><course>316.840515</course><hAcc>0.886444</hAcc><vAcc>0.708799</vAcc></extensions></trkpt>
      <trkpt lon="-3.157556" lat="53.004284"><ele>460.009796</ele><time>2021-09-01T11:27:13Z</time><extensions><speed>1.247739</speed><course>321.987762</course><hAcc>0.886381</hAcc><vAcc>0.708611</vAcc></extensions></trkpt>
      <trkpt lon="-3.157562" lat="53.004274"><ele>460.013763</ele><time>2021-09-01T11:27:14Z</time><extensions><speed>1.233067</speed><course>314.291290</course><hAcc>0.886300</hAcc><vAcc>0.708347</vAcc></extensions></trkpt>
      <trkpt lon="-3.157569" lat="53.004263"><ele>460.020081</ele><time>2021-09-01T11:27:15Z</time><extensions><speed>1.219366</speed><course>311.665222</course><hAcc>0.886197</hAcc><vAcc>0.708006</vAcc></extensions></trkpt>
      <trkpt lon="-3.157575" lat="53.004253"><ele>460.029755</ele><time>2021-09-01T11:27:16Z</time><extensions><speed>1.208017</speed><course>315.645782</course><hAcc>0.886073</hAcc><vAcc>0.707596</vAcc></extensions></trkpt>
      <trkpt lon="-3.157581" lat="53.004243"><ele>460.043243</ele><time>2021-09-01T11:27:17Z</time><extensions><speed>1.200028</speed><course>312.390594</course><hAcc>0.885923</hAcc><vAcc>0.707124</vAcc></extensions></trkpt>
      <trkpt lon="-3.157588" lat="53.004233"><ele>460.060730</ele><time>2021-09-01T11:27:18Z</time><extensions><speed>1.195878</speed><course>315.968140</course><hAcc>0.885748</hAcc><vAcc>0.706591</vAcc></extensions></trkpt>
      <trkpt lon="-3.157595" lat="53.004223"><ele>460.081970</ele><time>2021-09-01T11:27:19Z</time><extensions><speed>1.196198</speed><course>305.843231</course><hAcc>0.885547</hAcc><vAcc>0.705991</vAcc></extensions></trkpt>
      <trkpt lon="-3.157602" lat="53.004213"><ele>460.106079</ele><time>2021-09-01T11:27:20Z</time><extensions><speed>1.201428</speed><course>307.428955</course><hAcc>0.885319</hAcc><vAcc>0.705313</vAcc></extensions></trkpt>
      <trkpt lon="-3.157609" lat="53.004203"><ele>460.131500</ele><time>2021-09-01T11:27:21Z</time><extensions><speed>1.210866</speed><course>303.591888</course><hAcc>0.885067</hAcc><vAcc>0.704549</vAcc></extensions></trkpt>
      <trkpt lon="-3.157616" lat="53.004193"><ele>460.156860</ele><time>2021-09-01T11:27:22Z</time><extensions><speed>1.223105</speed><course>302.311584</course><hAcc>0.884792</hAcc><vAcc>0.703698</vAcc></extensions></trkpt>
      <trkpt lon="-3.157623" lat="53.004183"><ele>460.181305</ele><time>2021-09-01T11:27:23Z</time><extensions><speed>1.237178</speed><course>296.010498</course><hAcc>0.884501</hAcc><vAcc>0.702761</vAcc></extensions></trkpt>
      <trkpt lon="-3.157631" lat="53.004173"><ele>460.204315</ele><time>2021-09-01T11:27:24Z</time><extensions><speed>1.252322</speed><course>298.597748</course><hAcc>0.884202</hAcc><vAcc>0.701750</vAcc></extensions></trkpt>
      <trkpt lon="-3.157639" lat="53.004162"><ele>460.225677</ele><time>2021-09-01T11:27:25Z</time><extensions><speed>1.267781</speed><course>307.419373</course><hAcc>0.883906</hAcc><vAcc>0.700694</vAcc></extensions></trkpt>
      <trkpt lon="-3.157647" lat="53.004152"><ele>460.245361</ele><time>2021-09-01T11:27:26Z</time><extensions><speed>1.282692</speed><course>311.127045</course><hAcc>0.883628</hAcc><vAcc>0.699646</vAcc></extensions></trkpt>
      <trkpt lon="-3.157655" lat="53.004142"><ele>460.263306</ele><time>2021-09-01T11:27:27Z</time><extensions><speed>1.296537</speed><course>308.779785</course><hAcc>0.883383</hAcc><vAcc>0.698678</vAcc></extensions></trkpt>
      <trkpt lon="-3.157663" lat="53.004131"><ele>460.279236</ele><time>2021-09-01T11:27:28Z</time><extensions><speed>1.309584</speed><course>310.817932</course><hAcc>0.883188</hAcc><vAcc>0.697871</vAcc></extensions></trkpt>
      <trkpt lon="-3.157672" lat="53.004120"><ele>460.293091</ele><time>2021-09-01T11:27:29Z</time><extensions><speed>1.322199</speed><course>313.903961</course><hAcc>0.883059</hAcc><vAcc>0.697302</vAcc></extensions></trkpt>
      <trkpt lon="-3.157680" lat="53.004109"><ele>460.305206</ele><time>2021-09-01T11:27:30Z</time><extensions><speed>1.334766</speed><course>312.113068</course><hAcc>0.883008</hAcc><vAcc>0.697038</vAcc></extensions></trkpt>
      <trkpt lon="-3.157688" lat="53.004099"><ele>460.315765</ele><time>2021-09-01T11:27:31Z</time><extensions><speed>1.347366</speed><course>298.693726</course><hAcc>0.883044</hAcc><vAcc>0.697125</vAcc></extensions></trkpt>
      <trkpt lon="-3.157697" lat="53.004088"><ele>460.324890</ele><time>2021-09-01T11:27:32Z</time><extensions><speed>1.359590</speed><course>304.126526</course><hAcc>0.883169</hAcc><vAcc>0.697580</vAcc></extensions></trkpt>
      <trkpt lon="-3.157706" lat="53.004076"><ele>460.332458</ele><time>2021-09-01T11:27:33Z</time><extensions><speed>1.370994</speed><course>307.202972</course><hAcc>0.883380</hAcc><vAcc>0.698384</vAcc></extensions></trkpt>
      <trkpt lon="-3.157714" lat="53.004065"><ele>460.338226</ele><time>2021-09-01T11:27:34Z</time><extensions><speed>1.380722</speed><course>306.849365</course><hAcc>0.883667</hAcc><vAcc>0.699482</vAcc></extensions></trkpt>
      <trkpt lon="-3.157724" lat="53.004054"><ele>460.341705</ele><time>2021-09-01T11:27:35Z</time><extensions><speed>1.388705</speed><course>311.228149</course><hAcc>0.884014</hAcc><vAcc>0.700793</vAcc></extensions></trkpt>
      <trkpt lon="-3.157733" lat="53.004043"><ele>460.342072</ele><time>2021-09-01T11:27:36Z</time><extensions><speed>1.395906</speed><course>314.984741</course><hAcc>0.884404</hAcc><vAcc>0.702227</vAcc></extensions></trkpt>
      <trkpt lon="-3.157742" lat="53.004032"><ele>460.338470</ele><time>2021-09-01T11:27:37Z</time><extensions><speed>1.402934</speed><course>312.149628</course><hAcc>0.884818</hAcc><vAcc>0.703707</vAcc></extensions></trkpt>
      <trkpt lon="-3.157752" lat="53.004021"><ele>460.330078</ele><time>2021-09-01T11:27:38Z</time><extensions><speed>1.410086</speed><course>303.811646</course><hAcc>0.885238</hAcc><vAcc>0.705171</vAcc></extensions></trkpt>
      <trkpt lon="-3.157763" lat="53.004010"><ele>460.316162</ele><time>2021-09-01T11:27:39Z</time><extensions><speed>1.417165</speed><course>306.939087</course><hAcc>0.885650</hAcc><vAcc>0.706569</vAcc></extensions></trkpt>
      <trkpt lon="-3.157773" lat="53.003999"><ele>460.295959</ele><time>2021-09-01T11:27:40Z</time><extensions><speed>1.423029</speed><course>305.149933</course><hAcc>0.886042</hAcc><vAcc>0.707862</vAcc></extensions></trkpt>
      <trkpt lon="-3.157784" lat="53.003988"><ele>460.269318</ele><time>2021-09-01T11:27:41Z</time><extensions><speed>1.426803</speed><course>307.460999</course><hAcc>0.886403</hAcc><vAcc>0.709020</vAcc></extensions></trkpt>
      <trkpt lon="-3.157795" lat="53.003977"><ele>460.236816</ele><time>2021-09-01T11:27:42Z</time><extensions><speed>1.428329</speed><course>310.556549</course><hAcc>0.886728</hAcc><vAcc>0.710027</vAcc></extensions></trkpt>
      <trkpt lon="-3.157807" lat="53.003966"><ele>460.199310</ele><time>2021-09-01T11:27:43Z</time><extensions><speed>1.427512</speed><course>316.643463</course><hAcc>0.887015</hAcc><vAcc>0.710881</vAcc></extensions></trkpt>
      <trkpt lon="-3.157818" lat="53.003955"><ele>460.157715</ele><time>2021-09-01T11:27:44Z</time><extensions><speed>1.424944</speed><course>310.111420</course><hAcc>0.887264</hAcc><vAcc>0.711592</vAcc></extensions></trkpt>
      <trkpt lon="-3.157829" lat="53.003944"><ele>460.112793</ele><time>2021-09-01T11:27:45Z</time><extensions><speed>1.421607</speed><course>309.394775</course><hAcc>0.887475</hAcc><vAcc>0.712178</vAcc></extensions></trkpt>
      <trkpt lon="-3.157840" lat="53.003933"><ele>460.065247</ele><time>2021-09-01T11:27:46Z</time><extensions><speed>1.418035</speed><course>312.734375</course><hAcc>0.887654</hAcc><vAcc>0.712664</vAcc></extensions></trkpt>
      <trkpt lon="-3.157852" lat="53.003922"><ele>460.015686</ele><time>2021-09-01T11:27:47Z</time><extensions><speed>1.414428</speed><course>307.110260</course><hAcc>0.887804</hAcc><vAcc>0.713071</vAcc></extensions></trkpt>
      <trkpt lon="-3.157862" lat="53.003912"><ele>459.964661</ele><time>2021-09-01T11:27:48Z</time><extensions><speed>1.411180</speed><course>304.794312</course><hAcc>0.887930</hAcc><vAcc>0.713420</vAcc></extensions></trkpt>
      <trkpt lon="-3.157873" lat="53.003901"><ele>459.912567</ele><time>2021-09-01T11:27:49Z</time><extensions><speed>1.408570</speed><course>309.669006</course><hAcc>0.888038</hAcc><vAcc>0.713728</vAcc></extensions></trkpt>
      <trkpt lon="-3.157884" lat="53.003890"><ele>459.859833</ele><time>2021-09-01T11:27:50Z</time><extensions><speed>1.406080</speed><course>309.747101</course><hAcc>0.888130</hAcc><vAcc>0.714007</vAcc></extensions></trkpt>
      <trkpt lon="-3.157894" lat="53.003879"><ele>459.806702</ele><time>2021-09-01T11:27:51Z</time><extensions><speed>1.402852</speed><course>308.451904</course><hAcc>0.888212</hAcc><vAcc>0.714261</vAcc></extensions></trkpt>
      <trkpt lon="-3.157903" lat="53.003868"><ele>459.753357</ele><time>2021-09-01T11:27:52Z</time><extensions><speed>1.399262</speed><course>313.674774</course><hAcc>0.888285</hAcc><vAcc>0.714495</vAcc></extensions></trkpt>
      <trkpt lon="-3.157913" lat="53.003856"><ele>459.700500</ele><time>2021-09-01T11:27:53Z</time><extensions><speed>1.396015</speed><course>310.174561</course><hAcc>0.888353</hAcc><vAcc>0.714709</vAcc></extensions></trkpt>
      <trkpt lon="-3.157922" lat="53.003845"><ele>459.649078</ele><time>2021-09-01T11:27:54Z</time><extensions><speed>1.393306</speed><course>312.894348</course><hAcc>0.888416</hAcc><vAcc>0.714910</vAcc></extensions></trkpt>
      <trkpt lon="-3.157930" lat="53.003834"><ele>459.599915</ele><time>2021-09-01T11:27:55Z</time><extensions><speed>1.390943</speed><course>309.740997</course><hAcc>0.888475</hAcc><vAcc>0.715100</vAcc></extensions></trkpt>
      <trkpt lon="-3.157939" lat="53.003822"><ele>459.553162</ele><time>2021-09-01T11:27:56Z</time><extensions><speed>1.387983</speed><course>309.271240</course><hAcc>0.888530</hAcc><vAcc>0.715283</vAcc></extensions></trkpt>
      <trkpt lon="-3.157946" lat="53.003811"><ele>459.508392</ele><time>2021-09-01T11:27:57Z</time><extensions><speed>1.383936</speed><course>309.840485</course><hAcc>0.888583</hAcc><vAcc>0.715456</vAcc></extensions></trkpt>
      <trkpt lon="-3.157954" lat="53.003799"><ele>459.465179</ele><time>2021-09-01T11:27:58Z</time><extensions><speed>1.378951</speed><course>308.054108</course><hAcc>0.888632</hAcc><vAcc>0.715615</vAcc></extensions></trkpt>
      <trkpt lon="-3.157961" lat="53.003788"><ele>459.422943</ele><time>2021-09-01T11:27:59Z</time><extensions><speed>1.373124</speed><course>306.226685</course><hAcc>0.888678</hAcc><vAcc>0.715761</vAcc></extensions></trkpt>
      <trkpt lon="-3.157968" lat="53.003776"><ele>459.381134</ele><time>2021-09-01T11:28:00Z</time><extensions><speed>1.366643</speed><course>316.211884</course><hAcc>0.888720</hAcc><vAcc>0.715892</vAcc></extensions></trkpt>
      <trkpt lon="-3.157975" lat="53.003765"><ele>459.339111</ele><time>2021-09-01T11:28:01Z</time><extensions><speed>1.359622</speed><course>312.798523</course><hAcc>0.888759</hAcc><vAcc>0.716009</vAcc></extensions></trkpt>
      <trkpt lon="-3.157982" lat="53.003753"><ele>459.296478</ele><time>2021-09-01T11:28:02Z</time><extensions><speed>1.351996</speed><course>314.823364</course><hAcc>0.888793</hAcc><vAcc>0.716114</vAcc></extensions></trkpt>
      <trkpt lon="-3.157989" lat="53.003742"><ele>459.253143</ele><time>2021-09-01T11:28:03Z</time><extensions><speed>1.343717</speed><course>317.560303</course><hAcc>0.888821</hAcc><vAcc>0.716210</vAcc></extensions></trkpt>
      <trkpt lon="-3.157996" lat="53.003730"><ele>459.209106</ele><time>2021-09-01T11:28:04Z</time><extensions><speed>1.334481</speed><course>313.870911</course><hAcc>0.888842</hAcc><vAcc>0.716298</vAcc></extensions></trkpt>
      <trkpt lon="-3.158003" lat="53.003719"><ele>459.164581</ele><time>2021-09-01T11:28:05Z</time><extensions><speed>1.324227</speed><course>320.858917</course><hAcc>0.888856</hAcc><vAcc>0.716374</vAcc></extensions></trkpt>
      <trkpt lon="-3.158010" lat="53.003708"><ele>459.120117</ele><time>2021-09-01T11:28:06Z</time><extensions><speed>1.313669</speed><course>322.110107</course><hAcc>0.888860</hAcc><vAcc>0.716431</vAcc></extensions></trkpt>
      <trkpt lon="-3.158018" lat="53.003697"><ele>459.076447</ele><time>2021-09-01T11:28:07Z</time><extensions><speed>1.303368</speed><course>322.258118</course><hAcc>0.888855</hAcc><vAcc>0.716457</vAcc></extensions></trkpt>
      <trkpt lon="-3.158025" lat="53.003687"><ele>459.033936</ele><time>2021-09-01T11:28:08Z</time><extensions><speed>1.293205</speed><course>323.751770</course><hAcc>0.888838</hAcc><vAcc>0.716444</vAcc></extensions></trkpt>
      <trkpt lon="-3.158033" lat="53.003676"><ele>458.992432</ele><time>2021-09-01T11:28:09Z</time><extensions><speed>1.283399</speed><course>311.017761</course><hAcc>0.888808</hAcc><vAcc>0.716391</vAcc></extensions></trkpt>
      <trkpt lon="-3.158040" lat="53.003665"><ele>458.951508</ele><time>2021-09-01T11:28:09Z</time><extensions><speed>1.274323</speed><course>303.134949</course><hAcc>0.888785</hAcc><vAcc>0.716307</vAcc></extensions></trkpt>
      <trkpt lon="-3.158048" lat="53.003655"><ele>458.910522</ele><time>2021-09-01T11:28:10Z</time><extensions><speed>1.265604</speed><course>305.266266</course><hAcc>0.888766</hAcc><vAcc>0.716196</vAcc></extensions></trkpt>
      <trkpt lon="-3.158055" lat="53.003645"><ele>458.869629</ele><time>2021-09-01T11:28:11Z</time><extensions><speed>1.257220</speed><course>306.244568</course><hAcc>0.888738</hAcc><vAcc>0.716051</vAcc></extensions></trkpt>
      <trkpt lon="-3.158063" lat="53.003634"><ele>458.829468</ele><time>2021-09-01T11:28:12Z</time><extensions><speed>1.249801</speed><course>311.028961</course><hAcc>0.888701</hAcc><vAcc>0.715879</vAcc></extensions></trkpt>
      <trkpt lon="-3.158070" lat="53.003624"><ele>458.790985</ele><time>2021-09-01T11:28:13Z</time><extensions><speed>1.243721</speed><course>304.990997</course><hAcc>0.888659</hAcc><vAcc>0.715694</vAcc></extensions></trkpt>
      <trkpt lon="-3.158077" lat="53.003614"><ele>458.754517</ele><time>2021-09-01T11:28:14Z</time><extensions><speed>1.239122</speed><course>305.619354</course><hAcc>0.888615</hAcc><vAcc>0.715506</vAcc></extensions></trkpt>
      <trkpt lon="-3.158084" lat="53.003603"><ele>458.719818</ele><time>2021-09-01T11:28:15Z</time><extensions><speed>1.236102</speed><course>319.038269</course><hAcc>0.888571</hAcc><vAcc>0.715327</vAcc></extensions></trkpt>
      <trkpt lon="-3.158091" lat="53.003593"><ele>458.686096</ele><time>2021-09-01T11:28:16Z</time><extensions><speed>1.234655</speed><course>314.772644</course><hAcc>0.888530</hAcc><vAcc>0.715166</vAcc></extensions></trkpt>
      <trkpt lon="-3.158098" lat="53.003583"><ele>458.652679</ele><time>2021-09-01T11:28:17Z</time><extensions><speed>1.234805</speed><course>314.865356</course><hAcc>0.888496</hAcc><vAcc>0.715030</vAcc></extensions></trkpt>
      <trkpt lon="-3.158105" lat="53.003572"><ele>458.619019</ele><time>2021-09-01T11:28:18Z</time><extensions><speed>1.237232</speed><course>315.584076</course><hAcc>0.888470</hAcc><vAcc>0.714926</vAcc></extensions></trkpt>
      <trkpt lon="-3.158111" lat="53.003562"><ele>458.584839</ele><time>2021-09-01T11:28:19Z</time><extensions><speed>1.242700</speed><course>318.301117</course><hAcc>0.888454</hAcc><vAcc>0.714858</vAcc></extensions></trkpt>
      <trkpt lon="-3.158118" lat="53.003551"><ele>458.550110</ele><time>2021-09-01T11:28:20Z</time><extensions><speed>1.251046</speed><course>308.957520</course><hAcc>0.888451</hAcc><vAcc>0.714833</vAcc></extensions></trkpt>
      <trkpt lon="-3.158124" lat="53.003541"><ele>458.514618</ele><time>2021-09-01T11:28:21Z</time><extensions><speed>1.261703</speed><course>309.679749</course><hAcc>0.888459</hAcc><vAcc>0.714856</vAcc></extensions></trkpt>
      <trkpt lon="-3.158131" lat="53.003530"><ele>458.478180</ele><time>2021-09-01T11:28:22Z</time><extensions><speed>1.274304</speed><course>315.508118</course><hAcc>0.888480</hAcc><vAcc>0.714926</vAcc></extensions></trkpt>
      <trkpt lon="-3.158137" lat="53.003519"><ele>458.440674</ele><time>2021-09-01T11:28:23Z</time><extensions><speed>1.288644</speed><course>315.740204</course><hAcc>0.888512</hAcc><vAcc>0.715043</vAcc></extensions></trkpt>
      <trkpt lon="-3.158144" lat="53.003508"><ele>458.402313</ele><time>2021-09-01T11:28:24Z</time><extensions><speed>1.304342</speed><course>310.654785</course><hAcc>0.888556</hAcc><vAcc>0.715203</vAcc></extensions></trkpt>
      <trkpt lon="-3.158150" lat="53.003497"><ele>458.363586</ele><time>2021-09-01T11:28:25Z</time><extensions><speed>1.320991</speed><course>314.784058</course><hAcc>0.888609</hAcc><vAcc>0.715398</vAcc></extensions></trkpt>
      <trkpt lon="-3.158157" lat="53.003486"><ele>458.325287</ele><time>2021-09-01T11:28:26Z</time><extensions><speed>1.337949</speed><course>306.836517</course><hAcc>0.888670</hAcc><vAcc>0.715619</vAcc></extensions></trkpt>
      <trkpt lon="-3.158164" lat="53.003475"><ele>458.288177</ele><time>2021-09-01T11:28:27Z</time><extensions><speed>1.354071</speed><course>319.014709</course><hAcc>0.888736</hAcc><vAcc>0.715857</vAcc></extensions></trkpt>
      <trkpt lon="-3.158171" lat="53.003463"><ele>458.252686</ele><time>2021-09-01T11:28:28Z</time><extensions><speed>1.368136</speed><course>316.668060</course><hAcc>0.888807</hAcc><vAcc>0.716105</vAcc></extensions></trkpt>
      <trkpt lon="-3.158177" lat="53.003452"><ele>458.219055</ele><time>2021-09-01T11:28:29Z</time><extensions><speed>1.379612</speed><course>317.381256</course><hAcc>0.888879</hAcc><vAcc>0.716352</vAcc></extensions></trkpt>
      <trkpt lon="-3.158184" lat="53.003440"><ele>458.187531</ele><time>2021-09-01T11:28:30Z</time><extensions><speed>1.388563</speed><course>315.522644</course><hAcc>0.888951</hAcc><vAcc>0.716590</vAcc></extensions></trkpt>
      <trkpt lon="-3.158191" lat="53.003428"><ele>458.158051</ele><time>2021-09-01T11:28:31Z</time><extensions><speed>1.395254</speed><course>313.748596</course><hAcc>0.889021</hAcc><vAcc>0.716811</vAcc></extensions></trkpt>
      <trkpt lon="-3.158198" lat="53.003416"><ele>458.130402</ele><time>2021-09-01T11:28:32Z</time><extensions><speed>1.400022</speed><course>311.298676</course><hAcc>0.889087</hAcc><vAcc>0.717014</vAcc></extensions></trkpt>
      <trkpt lon="-3.158204" lat="53.003404"><ele>458.104095</ele><time>2021-09-01T11:28:33Z</time><extensions><speed>1.403142</speed><course>307.453308</course><hAcc>0.889148</hAcc><vAcc>0.717197</vAcc></extensions></trkpt>
      <trkpt lon="-3.158211" lat="53.003392"><ele>458.078857</ele><time>2021-09-01T11:28:34Z</time><extensions><speed>1.404667</speed><course>308.937561</course><hAcc>0.889201</hAcc><vAcc>0.717357</vAcc></extensions></trkpt>
      <trkpt lon="-3.158218" lat="53.003380"><ele>458.054657</ele><time>2021-09-01T11:28:35Z</time><extensions><speed>1.404536</speed><course>304.505646</course><hAcc>0.889247</hAcc><vAcc>0.717491</vAcc></extensions></trkpt>
      <trkpt lon="-3.158224" lat="53.003368"><ele>458.031281</ele><time>2021-09-01T11:28:37Z</time><extensions><speed>1.402465</speed><course>299.094574</course><hAcc>0.889267</hAcc><vAcc>0.717579</vAcc></extensions></trkpt>
      <trkpt lon="-3.158231" lat="53.003356"><ele>458.008270</ele><time>2021-09-01T11:28:38Z</time><extensions><speed>1.398045</speed><course>310.704071</course><hAcc>0.889259</hAcc><vAcc>0.717614</vAcc></extensions></trkpt>
      <trkpt lon="-3.158237" lat="53.003344"><ele>457.984955</ele><time>2021-09-01T11:28:39Z</time><extensions><speed>1.391331</speed><course>308.713898</course><hAcc>0.889240</hAcc><vAcc>0.717599</vAcc></extensions></trkpt>
      <trkpt lon="-3.158243" lat="53.003332"><ele>457.960632</ele><time>2021-09-01T11:28:40Z</time><extensions><speed>1.382668</speed><course>315.990417</course><hAcc>0.889211</hAcc><vAcc>0.717529</vAcc></extensions></trkpt>
      <trkpt lon="-3.158249" lat="53.003321"><ele>457.934570</ele><time>2021-09-01T11:28:41Z</time><extensions><speed>1.372784</speed><course>316.941956</course><hAcc>0.889171</hAcc><vAcc>0.717401</vAcc></extensions></trkpt>
      <trkpt lon="-3.158255" lat="53.003309"><ele>457.905975</ele><time>2021-09-01T11:28:42Z</time><extensions><speed>1.362597</speed><course>326.025696</course><hAcc>0.889120</hAcc><vAcc>0.717221</vAcc></extensions></trkpt>
      <trkpt lon="-3.158260" lat="53.003297"><ele>457.874298</ele><time>2021-09-01T11:28:43Z</time><extensions><speed>1.352903</speed><course>316.997101</course><hAcc>0.889059</hAcc><vAcc>0.717000</vAcc></extensions></trkpt>
      <trkpt lon="-3.158265" lat="53.003285"><ele>457.839386</ele><time>2021-09-01T11:28:44Z</time><extensions><speed>1.344125</speed><course>307.396637</course><hAcc>0.888990</hAcc><vAcc>0.716751</vAcc></extensions></trkpt>
      <trkpt lon="-3.158270" lat="53.003274"><ele>457.801392</ele><time>2021-09-01T11:28:45Z</time><extensions><speed>1.336071</speed><course>307.245117</course><hAcc>0.888913</hAcc><vAcc>0.716486</vAcc></extensions></trkpt>
      <trkpt lon="-3.158275" lat="53.003262"><ele>457.760651</ele><time>2021-09-01T11:28:46Z</time><extensions><speed>1.328640</speed><course>302.943970</course><hAcc>0.888833</hAcc><vAcc>0.716213</vAcc></extensions></trkpt>
      <trkpt lon="-3.158279" lat="53.003250"><ele>457.717377</ele><time>2021-09-01T11:28:47Z</time><extensions><speed>1.322015</speed><course>310.986115</course><hAcc>0.888753</hAcc><vAcc>0.715935</vAcc></extensions></trkpt>
      <trkpt lon="-3.158283" lat="53.003239"><ele>457.671600</ele><time>2021-09-01T11:28:48Z</time><extensions><speed>1.316875</speed><course>317.229156</course><hAcc>0.888677</hAcc><vAcc>0.715659</vAcc></extensions></trkpt>
      <trkpt lon="-3.158287" lat="53.003227"><ele>457.623749</ele><time>2021-09-01T11:28:49Z</time><extensions><speed>1.313853</speed><course>310.287506</course><hAcc>0.888607</hAcc><vAcc>0.715394</vAcc></extensions></trkpt>
      <trkpt lon="-3.158291" lat="53.003216"><ele>457.574158</ele><time>2021-09-01T11:28:50Z</time><extensions><speed>1.312743</speed><course>314.657898</course><hAcc>0.888548</hAcc><vAcc>0.715155</vAcc></extensions></trkpt>
      <trkpt lon="-3.158294" lat="53.003204"><ele>457.523224</ele><time>2021-09-01T11:28:51Z</time><extensions><speed>1.312734</speed><course>316.163879</course><hAcc>0.888501</hAcc><vAcc>0.714961</vAcc></extensions></trkpt>
      <trkpt lon="-3.158297" lat="53.003192"><ele>457.470673</ele><time>2021-09-01T11:28:52Z</time><extensions><speed>1.312862</speed><course>315.280670</course><hAcc>0.888469</hAcc><vAcc>0.714827</vAcc></extensions></trkpt>
      <trkpt lon="-3.158300" lat="53.003181"><ele>457.415649</ele><time>2021-09-01T11:28:53Z</time><extensions><speed>1.312506</speed><course>323.358459</course><hAcc>0.888453</hAcc><vAcc>0.714763</vAcc></extensions></trkpt>
      <trkpt lon="-3.158302" lat="53.003169"><ele>457.357300</ele><time>2021-09-01T11:28:54Z</time><extensions><speed>1.311495</speed><course>323.478973</course><hAcc>0.888453</hAcc><vAcc>0.714771</vAcc></extensions></trkpt>
      <trkpt lon="-3.158304" lat="53.003157"><ele>457.295105</ele><time>2021-09-01T11:28:55Z</time><extensions><speed>1.309805</speed><course>327.884216</course><hAcc>0.888469</hAcc><vAcc>0.714846</vAcc></extensions></trkpt>
      <trkpt lon="-3.158305" lat="53.003146"><ele>457.229095</ele><time>2021-09-01T11:28:56Z</time><extensions><speed>1.307266</speed><course>318.187775</course><hAcc>0.888500</hAcc><vAcc>0.714978</vAcc></extensions></trkpt>
      <trkpt lon="-3.158306" lat="53.003134"><ele>457.159515</ele><time>2021-09-01T11:28:57Z</time><extensions><speed>1.303737</speed><course>318.936035</course><hAcc>0.888544</hAcc><vAcc>0.715158</vAcc></extensions></trkpt>
      <trkpt lon="-3.158307" lat="53.003122"><ele>457.086670</ele><time>2021-09-01T11:28:58Z</time><extensions><speed>1.299307</speed><course>326.780121</course><hAcc>0.888597</hAcc><vAcc>0.715376</vAcc></extensions></trkpt>
      <trkpt lon="-3.158307" lat="53.003110"><ele>457.010803</ele><time>2021-09-01T11:28:59Z</time><extensions><speed>1.294001</speed><course>314.218445</course><hAcc>0.888656</hAcc><vAcc>0.715618</vAcc></extensions></trkpt>
      <trkpt lon="-3.158308" lat="53.003099"><ele>456.931946</ele><time>2021-09-01T11:29:00Z</time><extensions><speed>1.287750</speed><course>317.554047</course><hAcc>0.888717</hAcc><vAcc>0.715867</vAcc></extensions></trkpt>
      <trkpt lon="-3.158308" lat="53.003087"><ele>456.850128</ele><time>2021-09-01T11:29:01Z</time><extensions><speed>1.280709</speed><course>317.225586</course><hAcc>0.888777</hAcc><vAcc>0.716104</vAcc></extensions></trkpt>
      <trkpt lon="-3.158309" lat="53.003076"><ele>456.765411</ele><time>2021-09-01T11:29:02Z</time><extensions><speed>1.273337</speed><course>318.371796</course><hAcc>0.888832</hAcc><vAcc>0.716315</vAcc></extensions></trkpt>
      <trkpt lon="-3.158310" lat="53.003064"><ele>456.678375</ele><time>2021-09-01T11:29:03Z</time><extensions><speed>1.266104</speed><course>319.534454</course><hAcc>0.888880</hAcc><vAcc>0.716488</vAcc></extensions></trkpt>
      <trkpt lon="-3.158311" lat="53.003053"><ele>456.589783</ele><time>2021-09-01T11:29:04Z</time><extensions><speed>1.259341</speed><course>319.948578</course><hAcc>0.888918</hAcc><vAcc>0.716619</vAcc></extensions></trkpt>
      <trkpt lon="-3.158312" lat="53.003042"><ele>456.500580</ele><time>2021-09-01T11:29:05Z</time><extensions><speed>1.253508</speed><course>326.867279</course><hAcc>0.888944</hAcc><vAcc>0.716703</vAcc></extensions></trkpt>
      <trkpt lon="-3.158313" lat="53.003031"><ele>456.411499</ele><time>2021-09-01T11:29:06Z</time><extensions><speed>1.248951</speed><course>319.995087</course><hAcc>0.888958</hAcc><vAcc>0.716740</vAcc></extensions></trkpt>
      <trkpt lon="-3.158315" lat="53.003019"><ele>456.323090</ele><time>2021-09-01T11:29:07Z</time><extensions><speed>1.245789</speed><course>323.754486</course><hAcc>0.888960</hAcc><vAcc>0.716731</vAcc></extensions></trkpt>
      <trkpt lon="-3.158317" lat="53.003008"><ele>456.235687</ele><time>2021-09-01T11:29:08Z</time><extensions><speed>1.244193</speed><course>327.994751</course><hAcc>0.888951</hAcc><vAcc>0.716680</vAcc></extensions></trkpt>
      <trkpt lon="-3.158319" lat="53.002997"><ele>456.149323</ele><time>2021-09-01T11:29:09Z</time><extensions><speed>1.244586</speed><course>338.740143</course><hAcc>0.888931</hAcc><vAcc>0.716594</vAcc></extensions></trkpt>
      <trkpt lon="-3.158321" lat="53.002986"><ele>456.064026</ele><time>2021-09-01T11:29:10Z</time><extensions><speed>1.247617</speed><course>336.648224</course><hAcc>0.888904</hAcc><vAcc>0.716479</vAcc></extensions></trkpt>
      <trkpt lon="-3.158323" lat="53.002975"><ele>455.979645</ele><time>2021-09-01T11:29:11Z</time><extensions><speed>1.253617</speed><course>335.818359</course><hAcc>0.888870</hAcc><vAcc>0.716343</vAcc></extensions></trkpt>
      <trkpt lon="-3.158325" lat="53.002964"><ele>455.895874</ele><time>2021-09-01T11:29:12Z</time><extensions><speed>1.262151</speed><course>332.183533</course><hAcc>0.888833</hAcc><vAcc>0.716194</vAcc></extensions></trkpt>
      <trkpt lon="-3.158328" lat="53.002952"><ele>455.812286</ele><time>2021-09-01T11:29:13Z</time><extensions><speed>1.272147</speed><course>329.123840</course><hAcc>0.888794</hAcc><vAcc>0.716041</vAcc></extensions></trkpt>
      <trkpt lon="-3.158330" lat="53.002941"><ele>455.728485</ele><time>2021-09-01T11:29:14Z</time><extensions><speed>1.282366</speed><course>331.386230</course><hAcc>0.888757</hAcc><vAcc>0.715893</vAcc></extensions></trkpt>
      <trkpt lon="-3.158333" lat="53.002930"><ele>455.644104</ele><time>2021-09-01T11:29:15Z</time><extensions><speed>1.291816</speed><course>327.161377</course><hAcc>0.888722</hAcc><vAcc>0.715758</vAcc></extensions></trkpt>
      <trkpt lon="-3.158336" lat="53.002918"><ele>455.558746</ele><time>2021-09-01T11:29:16Z</time><extensions><speed>1.299830</speed><course>327.868042</course><hAcc>0.888691</hAcc><vAcc>0.715645</vAcc></extensions></trkpt>
      <trkpt lon="-3.158338" lat="53.002906"><ele>455.472198</ele><time>2021-09-01T11:29:17Z</time><extensions><speed>1.306169</speed><course>323.627838</course><hAcc>0.888664</hAcc><vAcc>0.715556</vAcc></extensions></trkpt>
      <trkpt lon="-3.158340" lat="53.002895"><ele>455.384277</ele><time>2021-09-01T11:29:18Z</time><extensions><speed>1.311079</speed><course>324.612000</course><hAcc>0.888642</hAcc><vAcc>0.715493</vAcc></extensions></trkpt>
      <trkpt lon="-3.158342" lat="53.002883"><ele>455.294891</ele><time>2021-09-01T11:29:19Z</time><extensions><speed>1.314806</speed><course>314.250275</course><hAcc>0.888624</hAcc><vAcc>0.715452</vAcc></extensions></trkpt>
      <trkpt lon="-3.158344" lat="53.002871"><ele>455.203949</ele><time>2021-09-01T11:29:20Z</time><extensions><speed>1.317541</speed><course>324.325928</course><hAcc>0.888608</hAcc><vAcc>0.715427</vAcc></extensions></trkpt>
      <trkpt lon="-3.158346" lat="53.002859"><ele>455.111145</ele><time>2021-09-01T11:29:21Z</time><extensions><speed>1.319740</speed><course>323.620239</course><hAcc>0.888593</hAcc><vAcc>0.715413</vAcc></extensions></trkpt>
      <trkpt lon="-3.158348" lat="53.002848"><ele>455.016296</ele><time>2021-09-01T11:29:22Z</time><extensions><speed>1.321833</speed><course>318.647095</course><hAcc>0.888576</hAcc><vAcc>0.715401</vAcc></extensions></trkpt>
      <trkpt lon="-3.158349" lat="53.002836"><ele>454.919250</ele><time>2021-09-01T11:29:23Z</time><extensions><speed>1.323984</speed><course>325.356964</course><hAcc>0.888555</hAcc><vAcc>0.715381</vAcc></extensions></trkpt>
      <trkpt lon="-3.158351" lat="53.002824"><ele>454.819916</ele><time>2021-09-01T11:29:24Z</time><extensions><speed>1.326420</speed><course>319.826599</course><hAcc>0.888527</hAcc><vAcc>0.715343</vAcc></extensions></trkpt>
      <trkpt lon="-3.158353" lat="53.002812"><ele>454.718201</ele><time>2021-09-01T11:29:25Z</time><extensions><speed>1.329630</speed><course>314.735016</course><hAcc>0.888492</hAcc><vAcc>0.715275</vAcc></extensions></trkpt>
      <trkpt lon="-3.158355" lat="53.002800"><ele>454.613922</ele><time>2021-09-01T11:29:26Z</time><extensions><speed>1.334089</speed><course>309.478760</course><hAcc>0.888449</hAcc><vAcc>0.715167</vAcc></extensions></trkpt>
      <trkpt lon="-3.158357" lat="53.002788"><ele>454.506958</ele><time>2021-09-01T11:29:27Z</time><extensions><speed>1.340138</speed><course>319.543488</course><hAcc>0.888399</hAcc><vAcc>0.715010</vAcc></extensions></trkpt>
      <trkpt lon="-3.158360" lat="53.002776"><ele>454.397064</ele><time>2021-09-01T11:29:28Z</time><extensions><speed>1.347884</speed><course>324.087982</course><hAcc>0.888345</hAcc><vAcc>0.714804</vAcc></extensions></trkpt>
      <trkpt lon="-3.158363" lat="53.002764"><ele>454.284332</ele><time>2021-09-01T11:29:29Z</time><extensions><speed>1.357162</speed><course>317.628326</course><hAcc>0.888289</hAcc><vAcc>0.714559</vAcc></extensions></trkpt>
      <trkpt lon="-3.158367" lat="53.002752"><ele>454.169006</ele><time>2021-09-01T11:29:30Z</time><extensions><speed>1.367683</speed><course>311.843903</course><hAcc>0.888236</hAcc><vAcc>0.714292</vAcc></extensions></trkpt>
      <trkpt lon="-3.158370" lat="53.002740"><ele>454.051575</ele><time>2021-09-01T11:29:31Z</time><extensions><speed>1.379059</speed><course>320.026215</course><hAcc>0.888189</hAcc><vAcc>0.714033</vAcc></extensions></trkpt>
      <trkpt lon="-3.158375" lat="53.002728"><ele>453.932892</ele><time>2021-09-01T11:29:32Z</time><extensions><speed>1.390834</speed><course>320.448669</course><hAcc>0.888152</hAcc><vAcc>0.713817</vAcc></extensions></trkpt>
      <trkpt lon="-3.158380" lat="53.002716"><ele>453.814178</ele><time>2021-09-01T11:29:33Z</time><extensions><speed>1.402384</speed><course>324.626526</course><hAcc>0.888126</hAcc><vAcc>0.713682</vAcc></extensions></trkpt>
      <trkpt lon="-3.158385" lat="53.002703"><ele>453.697052</ele><time>2021-09-01T11:29:34Z</time><extensions><speed>1.412660</speed><course>326.167938</course><hAcc>0.888113</hAcc><vAcc>0.713652</vAcc></extensions></trkpt>
      <trkpt lon="-3.158390" lat="53.002691"><ele>453.582916</ele><time>2021-09-01T11:29:35Z</time><extensions><speed>1.420227</speed><course>325.390656</course><hAcc>0.888110</hAcc><vAcc>0.713727</vAcc></extensions></trkpt>
      <trkpt lon="-3.158395" lat="53.002679"><ele>453.472748</ele><time>2021-09-01T11:29:36Z</time><extensions><speed>1.424107</speed><course>314.974457</course><hAcc>0.888115</hAcc><vAcc>0.713873</vAcc></extensions></trkpt>
      <trkpt lon="-3.158400" lat="53.002666"><ele>453.366730</ele><time>2021-09-01T11:29:37Z</time><extensions><speed>1.423708</speed><course>325.724579</course><hAcc>0.888126</hAcc><vAcc>0.714042</vAcc></extensions></trkpt>
      <trkpt lon="-3.158405" lat="53.002654"><ele>453.264221</ele><time>2021-09-01T11:29:38Z</time><extensions><speed>1.418303</speed><course>318.034210</course><hAcc>0.888137</hAcc><vAcc>0.714192</vAcc></extensions></trkpt>
      <trkpt lon="-3.158409" lat="53.002641"><ele>453.163727</ele><time>2021-09-01T11:29:39Z</time><extensions><speed>1.408150</speed><course>313.475250</course><hAcc>0.888143</hAcc><vAcc>0.714290</vAcc></extensions></trkpt>
      <trkpt lon="-3.158413" lat="53.002629"><ele>453.063904</ele><time>2021-09-01T11:29:40Z</time><extensions><speed>1.394326</speed><course>321.089203</course><hAcc>0.888140</hAcc><vAcc>0.714315</vAcc></extensions></trkpt>
      <trkpt lon="-3.158417" lat="53.002617"><ele>452.963745</ele><time>2021-09-01T11:29:41Z</time><extensions><speed>1.378075</speed><course>329.810181</course><hAcc>0.888125</hAcc><vAcc>0.714256</vAcc></extensions></trkpt>
      <trkpt lon="-3.158419" lat="53.002605"><ele>452.862427</ele><time>2021-09-01T11:29:42Z</time><extensions><speed>1.360811</speed><course>327.314850</course><hAcc>0.888098</hAcc><vAcc>0.714114</vAcc></extensions></trkpt>
      <trkpt lon="-3.158422" lat="53.002593"><ele>452.759277</ele><time>2021-09-01T11:29:43Z</time><extensions><speed>1.343528</speed><course>321.503876</course><hAcc>0.888057</hAcc><vAcc>0.713904</vAcc></extensions></trkpt>
      <trkpt lon="-3.158423" lat="53.002581"><ele>452.653473</ele><time>2021-09-01T11:29:44Z</time><extensions><speed>1.326853</speed><course>323.534607</course><hAcc>0.888006</hAcc><vAcc>0.713647</vAcc></extensions></trkpt>
      <trkpt lon="-3.158424" lat="53.002569"><ele>452.544128</ele><time>2021-09-01T11:29:45Z</time><extensions><speed>1.311206</speed><course>325.158722</course><hAcc>0.887947</hAcc><vAcc>0.713367</vAcc></extensions></trkpt>
      <trkpt lon="-3.158425" lat="53.002557"><ele>452.430481</ele><time>2021-09-01T11:29:46Z</time><extensions><speed>1.296939</speed><course>329.447083</course><hAcc>0.887883</hAcc><vAcc>0.713090</vAcc></extensions></trkpt>
      <trkpt lon="-3.158425" lat="53.002545"><ele>452.312103</ele><time>2021-09-01T11:29:47Z</time><extensions><speed>1.284364</speed><course>331.191650</course><hAcc>0.887817</hAcc><vAcc>0.712833</vAcc></extensions></trkpt>
      <trkpt lon="-3.158425" lat="53.002534"><ele>452.188721</ele><time>2021-09-01T11:29:48Z</time><extensions><speed>1.273615</speed><course>334.557068</course><hAcc>0.887752</hAcc><vAcc>0.712609</vAcc></extensions></trkpt>
      <trkpt lon="-3.158424" lat="53.002523"><ele>452.060028</ele><time>2021-09-01T11:29:49Z</time><extensions><speed>1.264598</speed><course>336.690918</course><hAcc>0.887689</hAcc><vAcc>0.712424</vAcc></extensions></trkpt>
      <trkpt lon="-3.158424" lat="53.002511"><ele>451.925934</ele><time>2021-09-01T11:29:50Z</time><extensions><speed>1.256850</speed><course>337.183258</course><hAcc>0.887629</hAcc><vAcc>0.712271</vAcc></extensions></trkpt>
      <trkpt lon="-3.158423" lat="53.002500"><ele>451.786591</ele><time>2021-09-01T11:29:51Z</time><extensions><speed>1.250004</speed><course>318.997711</course><hAcc>0.887572</hAcc><vAcc>0.712141</vAcc></extensions></trkpt>
      <trkpt lon="-3.158423" lat="53.002489"><ele>451.642426</ele><time>2021-09-01T11:29:52Z</time><extensions><speed>1.244039</speed><course>315.791901</course><hAcc>0.887516</hAcc><vAcc>0.712017</vAcc></extensions></trkpt>
      <trkpt lon="-3.158422" lat="53.002478"><ele>451.494110</ele><time>2021-09-01T11:29:53Z</time><extensions><speed>1.238935</speed><course>315.791901</course><hAcc>0.887460</hAcc><vAcc>0.711885</vAcc></extensions></trkpt>
      <trkpt lon="-3.158421" lat="53.002467"><ele>451.342865</ele><time>2021-09-01T11:29:54Z</time><extensions><speed>1.234694</speed><course>315.791901</course><hAcc>0.887404</hAcc><vAcc>0.711734</vAcc></extensions></trkpt>
      <trkpt lon="-3.158420" lat="53.002455"><ele>451.189850</ele><time>2021-09-01T11:29:55Z</time><extensions><speed>1.231611</speed><course>315.791901</course><hAcc>0.887345</hAcc><vAcc>0.711556</vAcc></extensions></trkpt>
      <trkpt lon="-3.158419" lat="53.002444"><ele>451.036194</ele><time>2021-09-01T11:29:56Z</time><extensions><speed>1.229982</speed><course>315.791901</course><hAcc>0.887283</hAcc><vAcc>0.711350</vAcc></extensions></trkpt>
      <trkpt lon="-3.158417" lat="53.002433"><ele>450.882996</ele><time>2021-09-01T11:29:57Z</time><extensions><speed>1.229905</speed><course>315.791901</course><hAcc>0.887219</hAcc><vAcc>0.711120</vAcc></extensions></trkpt>
      <trkpt lon="-3.158415" lat="53.002422"><ele>450.731110</ele><time>2021-09-01T11:29:58Z</time><extensions><speed>1.231174</speed><course>315.791901</course><hAcc>0.887154</hAcc><vAcc>0.710876</vAcc></extensions></trkpt>
      <trkpt lon="-3.158413" lat="53.002411"><ele>450.581085</ele><time>2021-09-01T11:29:59Z</time><extensions><speed>1.233199</speed><course>315.791901</course><hAcc>0.887090</hAcc><vAcc>0.710628</vAcc></extensions></trkpt>
      <trkpt lon="-3.158411" lat="53.002400"><ele>450.433380</ele><time>2021-09-01T11:30:00Z</time><extensions><speed>1.235569</speed><course>315.791901</course><hAcc>0.887028</hAcc><vAcc>0.710389</vAcc></extensions></trkpt>
      <trkpt lon="-3.158408" lat="53.002389"><ele>450.288330</ele><time>2021-09-01T11:30:01Z</time><extensions><speed>1.238077</speed><course>315.791901</course><hAcc>0.886971</hAcc><vAcc>0.710169</vAcc></extensions></trkpt>
      <trkpt lon="-3.158405" lat="53.002378"><ele>450.146454</ele><time>2021-09-01T11:30:02Z</time><extensions><speed>1.240097</speed><course>315.791901</course><hAcc>0.886922</hAcc><vAcc>0.709983</vAcc></extensions></trkpt>
      <trkpt lon="-3.158402" lat="53.002368"><ele>450.008301</ele><time>2021-09-01T11:30:03Z</time><extensions><speed>1.240609</speed><course>315.791901</course><hAcc>0.886882</hAcc><vAcc>0.709839</vAcc></extensions></trkpt>
      <trkpt lon="-3.158398" lat="53.002357"><ele>449.874725</ele><time>2021-09-01T11:30:04Z</time><extensions><speed>1.238550</speed><course>315.791901</course><hAcc>0.886853</hAcc><vAcc>0.709744</vAcc></extensions></trkpt>
      <trkpt lon="-3.158394" lat="53.002346"><ele>449.746643</ele><time>2021-09-01T11:30:05Z</time><extensions><speed>1.233056</speed><course>315.791901</course><hAcc>0.886836</hAcc><vAcc>0.709699</vAcc></extensions></trkpt>
      <trkpt lon="-3.158389" lat="53.002335"><ele>449.624878</ele><time>2021-09-01T11:30:06Z</time><extensions><speed>1.223277</speed><course>315.791901</course><hAcc>0.886829</hAcc><vAcc>0.709702</vAcc></extensions></trkpt>
      <trkpt lon="-3.158385" lat="53.002324"><ele>449.509949</ele><time>2021-09-01T11:30:07Z</time><extensions><speed>1.208418</speed><course>324.368835</course><hAcc>0.886833</hAcc><vAcc>0.709744</vAcc></extensions></trkpt>
      <trkpt lon="-3.158380" lat="53.002314"><ele>449.402374</ele><time>2021-09-01T11:30:08Z</time><extensions><speed>1.187819</speed><course>336.936340</course><hAcc>0.886846</hAcc><vAcc>0.709819</vAcc></extensions></trkpt>
      <trkpt lon="-3.158375" lat="53.002304"><ele>449.301971</ele><time>2021-09-01T11:30:09Z</time><extensions><speed>1.161391</speed><course>334.067902</course><hAcc>0.886867</hAcc><vAcc>0.709915</vAcc></extensions></trkpt>
      <trkpt lon="-3.158370" lat="53.002294"><ele>449.208038</ele><time>2021-09-01T11:30:10Z</time><extensions><speed>1.129367</speed><course>335.500000</course><hAcc>0.886892</hAcc><vAcc>0.710019</vAcc></extensions></trkpt>
      <trkpt lon="-3.158365" lat="53.002285"><ele>449.119751</ele><time>2021-09-01T11:30:11Z</time><extensions><speed>1.091468</speed><course>331.822205</course><hAcc>0.886919</hAcc><vAcc>0.710120</vAcc></extensions></trkpt>
      <trkpt lon="-3.158360" lat="53.002276"><ele>449.036285</ele><time>2021-09-01T11:30:12Z</time><extensions><speed>1.047182</speed><course>332.566284</course><hAcc>0.886946</hAcc><vAcc>0.710213</vAcc></extensions></trkpt>
      <trkpt lon="-3.158355" lat="53.002267"><ele>448.957031</ele><time>2021-09-01T11:30:13Z</time><extensions><speed>0.996412</speed><course>322.442413</course><hAcc>0.886970</hAcc><vAcc>0.710298</vAcc></extensions></trkpt>
      <trkpt lon="-3.158349" lat="53.002259"><ele>448.881378</ele><time>2021-09-01T11:30:14Z</time><extensions><speed>0.939595</speed><course>328.923309</course><hAcc>0.886985</hAcc><vAcc>0.710368</vAcc></extensions></trkpt>
      <trkpt lon="-3.158344" lat="53.002251"><ele>448.808777</ele><time>2021-09-01T11:30:15Z</time><extensions><speed>0.877349</speed><course>332.979462</course><hAcc>0.886990</hAcc><vAcc>0.710415</vAcc></extensions></trkpt>
      <trkpt lon="-3.158339" lat="53.002244"><ele>448.738556</ele><time>2021-09-01T11:30:16Z</time><extensions><speed>0.810887</speed><course>326.583588</course><hAcc>0.886979</hAcc><vAcc>0.710427</vAcc></extensions></trkpt>
      <trkpt lon="-3.158334" lat="53.002238"><ele>448.670135</ele><time>2021-09-01T11:30:17Z</time><extensions><speed>0.741898</speed><course>333.004852</course><hAcc>0.886949</hAcc><vAcc>0.710386</vAcc></extensions></trkpt>
      <trkpt lon="-3.158330" lat="53.002232"><ele>448.602997</ele><time>2021-09-01T11:30:18Z</time><extensions><speed>0.672612</speed><course>328.891602</course><hAcc>0.886895</hAcc><vAcc>0.710274</vAcc></extensions></trkpt>
      <trkpt lon="-3.158325" lat="53.002227"><ele>448.536652</ele><time>2021-09-01T11:30:19Z</time><extensions><speed>0.605310</speed><course>329.156494</course><hAcc>0.886813</hAcc><vAcc>0.710073</vAcc></extensions></trkpt>
      <trkpt lon="-3.158321" lat="53.002223"><ele>448.470795</ele><time>2021-09-01T11:30:20Z</time><extensions><speed>0.541676</speed><course>329.450256</course><hAcc>0.886700</hAcc><vAcc>0.709771</vAcc></extensions></trkpt>
      <trkpt lon="-3.158317" lat="53.002219"><ele>448.405426</ele><time>2021-09-01T11:30:21Z</time><extensions><speed>0.483148</speed><course>329.886902</course><hAcc>0.886553</hAcc><vAcc>0.709352</vAcc></extensions></trkpt>
      <trkpt lon="-3.158314" lat="53.002215"><ele>448.340851</ele><time>2021-09-01T11:30:22Z</time><extensions><speed>0.431995</speed><course>332.708923</course><hAcc>0.886371</hAcc><vAcc>0.708807</vAcc></extensions></trkpt>
      <trkpt lon="-3.158311" lat="53.002212"><ele>448.277893</ele><time>2021-09-01T11:30:23Z</time><extensions><speed>0.392496</speed><course>337.086456</course><hAcc>0.886153</hAcc><vAcc>0.708129</vAcc></extensions></trkpt>
      <trkpt lon="-3.158310" lat="53.002209"><ele>448.217224</ele><time>2021-09-01T11:30:24Z</time><extensions><speed>0.370812</speed><course>335.947693</course><hAcc>0.885903</hAcc><vAcc>0.707315</vAcc></extensions></trkpt>
      <trkpt lon="-3.158309" lat="53.002205"><ele>448.159454</ele><time>2021-09-01T11:30:25Z</time><extensions><speed>0.372263</speed><course>332.293579</course><hAcc>0.885624</hAcc><vAcc>0.706373</vAcc></extensions></trkpt>
      <trkpt lon="-3.158308" lat="53.002202"><ele>448.104919</ele><time>2021-09-01T11:30:26Z</time><extensions><speed>0.397605</speed><course>330.673279</course><hAcc>0.885322</hAcc><vAcc>0.705323</vAcc></extensions></trkpt>
      <trkpt lon="-3.158309" lat="53.002198"><ele>448.053955</ele><time>2021-09-01T11:30:27Z</time><extensions><speed>0.442982</speed><course>325.868774</course><hAcc>0.885004</hAcc><vAcc>0.704199</vAcc></extensions></trkpt>
      <trkpt lon="-3.158310" lat="53.002194"><ele>448.006775</ele><time>2021-09-01T11:30:28Z</time><extensions><speed>0.502524</speed><course>320.652771</course><hAcc>0.884674</hAcc><vAcc>0.703049</vAcc></extensions></trkpt>
      <trkpt lon="-3.158311" lat="53.002189"><ele>447.963470</ele><time>2021-09-01T11:30:29Z</time><extensions><speed>0.570628</speed><course>317.759430</course><hAcc>0.884341</hAcc><vAcc>0.701920</vAcc></extensions></trkpt>
      <trkpt lon="-3.158313" lat="53.002184"><ele>447.924011</ele><time>2021-09-01T11:30:30Z</time><extensions><speed>0.642683</speed><course>312.631989</course><hAcc>0.884007</hAcc><vAcc>0.700839</vAcc></extensions></trkpt>
      <trkpt lon="-3.158315" lat="53.002178"><ele>447.888428</ele><time>2021-09-01T11:30:31Z</time><extensions><speed>0.715084</speed><course>318.114197</course><hAcc>0.883676</hAcc><vAcc>0.699810</vAcc></extensions></trkpt>
      <trkpt lon="-3.158316" lat="53.002171"><ele>447.856689</ele><time>2021-09-01T11:30:32Z</time><extensions><speed>0.785362</speed><course>324.507172</course><hAcc>0.883350</hAcc><vAcc>0.698819</vAcc></extensions></trkpt>
      <trkpt lon="-3.158318" lat="53.002164"><ele>447.828644</ele><time>2021-09-01T11:30:33Z</time><extensions><speed>0.852048</speed><course>327.082703</course><hAcc>0.883029</hAcc><vAcc>0.697843</vAcc></extensions></trkpt>
      <trkpt lon="-3.158319" lat="53.002156"><ele>447.804108</ele><time>2021-09-01T11:30:34Z</time><extensions><speed>0.914297</speed><course>329.958954</course><hAcc>0.882714</hAcc><vAcc>0.696866</vAcc></extensions></trkpt>
      <trkpt lon="-3.158319" lat="53.002147"><ele>447.782562</ele><time>2021-09-01T11:30:35Z</time><extensions><speed>0.971276</speed><course>328.035645</course><hAcc>0.882408</hAcc><vAcc>0.695882</vAcc></extensions></trkpt>
      <trkpt lon="-3.158319" lat="53.002138"><ele>447.763397</ele><time>2021-09-01T11:30:36Z</time><extensions><speed>1.022423</speed><course>327.514526</course><hAcc>0.882113</hAcc><vAcc>0.694901</vAcc></extensions></trkpt>
      <trkpt lon="-3.158319" lat="53.002129"><ele>447.745880</ele><time>2021-09-01T11:30:37Z</time><extensions><speed>1.067842</speed><course>320.027710</course><hAcc>0.881834</hAcc><vAcc>0.693951</vAcc></extensions></trkpt>
      <trkpt lon="-3.158318" lat="53.002119"><ele>447.729401</ele><time>2021-09-01T11:30:38Z</time><extensions><speed>1.107595</speed><course>323.596710</course><hAcc>0.881576</hAcc><vAcc>0.693065</vAcc></extensions></trkpt>
      <trkpt lon="-3.158316" lat="53.002109"><ele>447.713531</ele><time>2021-09-01T11:30:39Z</time><extensions><speed>1.141819</speed><course>326.277405</course><hAcc>0.881344</hAcc><vAcc>0.692274</vAcc></extensions></trkpt>
      <trkpt lon="-3.158314" lat="53.002099"><ele>447.698151</ele><time>2021-09-01T11:30:40Z</time><extensions><speed>1.171098</speed><course>327.083344</course><hAcc>0.881141</hAcc><vAcc>0.691600</vAcc></extensions></trkpt>
      <trkpt lon="-3.158311" lat="53.002088"><ele>447.683197</ele><time>2021-09-01T11:30:41Z</time><extensions><speed>1.195798</speed><course>330.723541</course><hAcc>0.880968</hAcc><vAcc>0.691050</vAcc></extensions></trkpt>
      <trkpt lon="-3.158308" lat="53.002078"><ele>447.668396</ele><time>2021-09-01T11:30:42Z</time><extensions><speed>1.216166</speed><course>328.902985</course><hAcc>0.880826</hAcc><vAcc>0.690618</vAcc></extensions></trkpt>
      <trkpt lon="-3.158305" lat="53.002067"><ele>447.652893</ele><time>2021-09-01T11:30:43Z</time><extensions><speed>1.232417</speed><course>325.540680</course><hAcc>0.880710</hAcc><vAcc>0.690289</vAcc></extensions></trkpt>
      <trkpt lon="-3.158302" lat="53.002056"><ele>447.635590</ele><time>2021-09-01T11:30:44Z</time><extensions><speed>1.245000</speed><course>326.969879</course><hAcc>0.880619</hAcc><vAcc>0.690043</vAcc></extensions></trkpt>
      <trkpt lon="-3.158298" lat="53.002045"><ele>447.615662</ele><time>2021-09-01T11:30:45Z</time><extensions><speed>1.254529</speed><course>320.316467</course><hAcc>0.880548</hAcc><vAcc>0.689864</vAcc></extensions></trkpt>
      <trkpt lon="-3.158295" lat="53.002034"><ele>447.592896</ele><time>2021-09-01T11:30:46Z</time><extensions><speed>1.261492</speed><course>319.871765</course><hAcc>0.880492</hAcc><vAcc>0.689734</vAcc></extensions></trkpt>
      <trkpt lon="-3.158292" lat="53.002023"><ele>447.567444</ele><time>2021-09-01T11:30:47Z</time><extensions><speed>1.266319</speed><course>316.990692</course><hAcc>0.880448</hAcc><vAcc>0.689636</vAcc></extensions></trkpt>
      <trkpt lon="-3.158290" lat="53.002011"><ele>447.539581</ele><time>2021-09-01T11:30:48Z</time><extensions><speed>1.269223</speed><course>317.272278</course><hAcc>0.880412</hAcc><vAcc>0.689551</vAcc></extensions></trkpt>
      <trkpt lon="-3.158287" lat="53.002000"><ele>447.509186</ele><time>2021-09-01T11:30:49Z</time><extensions><speed>1.270223</speed><course>317.305878</course><hAcc>0.880380</hAcc><vAcc>0.689460</vAcc></extensions></trkpt>
      <trkpt lon="-3.158285" lat="53.001989"><ele>447.475739</ele><time>2021-09-01T11:30:50Z</time><extensions><speed>1.269295</speed><course>319.626617</course><hAcc>0.880352</hAcc><vAcc>0.689358</vAcc></extensions></trkpt>
      <trkpt lon="-3.158283" lat="53.001977"><ele>447.438751</ele><time>2021-09-01T11:30:51Z</time><extensions><speed>1.266752</speed><course>316.946777</course><hAcc>0.880328</hAcc><vAcc>0.689250</vAcc></extensions></trkpt>
      <trkpt lon="-3.158281" lat="53.001966"><ele>447.397919</ele><time>2021-09-01T11:30:52Z</time><extensions><speed>1.263179</speed><course>316.848175</course><hAcc>0.880313</hAcc><vAcc>0.689157</vAcc></extensions></trkpt>
      <trkpt lon="-3.158280" lat="53.001955"><ele>447.353149</ele><time>2021-09-01T11:30:53Z</time><extensions><speed>1.258958</speed><course>306.129730</course><hAcc>0.880310</hAcc><vAcc>0.689103</vAcc></extensions></trkpt>
      <trkpt lon="-3.158279" lat="53.001943"><ele>447.304535</ele><time>2021-09-01T11:30:54Z</time><extensions><speed>1.253673</speed><course>311.287872</course><hAcc>0.880324</hAcc><vAcc>0.689112</vAcc></extensions></trkpt>
      <trkpt lon="-3.158278" lat="53.001932"><ele>447.252136</ele><time>2021-09-01T11:30:55Z</time><extensions><speed>1.246747</speed><course>316.150696</course><hAcc>0.880359</hAcc><vAcc>0.689198</vAcc></extensions></trkpt>
      <trkpt lon="-3.158277" lat="53.001921"><ele>447.196045</ele><time>2021-09-01T11:30:56Z</time><extensions><speed>1.238100</speed><course>319.589172</course><hAcc>0.880419</hAcc><vAcc>0.689369</vAcc></extensions></trkpt>
      <trkpt lon="-3.158275" lat="53.001910"><ele>447.135956</ele><time>2021-09-01T11:30:57Z</time><extensions><speed>1.227604</speed><course>317.826752</course><hAcc>0.880507</hAcc><vAcc>0.689629</vAcc></extensions></trkpt>
      <trkpt lon="-3.158274" lat="53.001899"><ele>447.071503</ele><time>2021-09-01T11:30:58Z</time><extensions><speed>1.215478</speed><course>316.582428</course><hAcc>0.880625</hAcc><vAcc>0.689984</vAcc></extensions></trkpt>
      <trkpt lon="-3.158272" lat="53.001888"><ele>447.002289</ele><time>2021-09-01T11:30:59Z</time><extensions><speed>1.202316</speed><course>322.533203</course><hAcc>0.880776</hAcc><vAcc>0.690443</vAcc></extensions></trkpt>
      <trkpt lon="-3.158270" lat="53.001878"><ele>446.927948</ele><time>2021-09-01T11:31:00Z</time><extensions><speed>1.189132</speed><course>322.533203</course><hAcc>0.880961</hAcc><vAcc>0.691014</vAcc></extensions></trkpt>
      <trkpt lon="-3.158267" lat="53.001867"><ele>446.847992</ele><time>2021-09-01T11:31:01Z</time><extensions><speed>1.177625</speed><course>322.533203</course><hAcc>0.881182</hAcc><vAcc>0.691704</vAcc></extensions></trkpt>
      <trkpt lon="-3.158264" lat="53.001857"><ele>446.761963</ele><time>2021-09-01T11:31:02Z</time><extensions><speed>1.169533</speed><course>322.533203</course><hAcc>0.881438</hAcc><vAcc>0.692522</vAcc></extensions></trkpt>
      <trkpt lon="-3.158260" lat="53.001847"><ele>446.669525</ele><time>2021-09-01T11:31:03Z</time><extensions><speed>1.166203</speed><course>322.533203</course><hAcc>0.881728</hAcc><vAcc>0.693473</vAcc></extensions></trkpt>
      <trkpt lon="-3.158255" lat="53.001837"><ele>446.570374</ele><time>2021-09-01T11:31:04Z</time><extensions><speed>1.168256</speed><course>310.635162</course><hAcc>0.882047</hAcc><vAcc>0.694552</vAcc></extensions></trkpt>
      <trkpt lon="-3.158249" lat="53.001827"><ele>446.464142</ele><time>2021-09-01T11:31:05Z</time><extensions><speed>1.175561</speed><course>317.610291</course><hAcc>0.882391</hAcc><vAcc>0.695737</vAcc></extensions></trkpt>
      <trkpt lon="-3.158242" lat="53.001817"><ele>446.350708</ele><time>2021-09-01T11:31:06Z</time><extensions><speed>1.187253</speed><course>306.125671</course><hAcc>0.882751</hAcc><vAcc>0.696992</vAcc></extensions></trkpt>
      <trkpt lon="-3.158234" lat="53.001807"><ele>446.230316</ele><time>2021-09-01T11:31:07Z</time><extensions><speed>1.201745</speed><course>318.134308</course><hAcc>0.883119</hAcc><vAcc>0.698267</vAcc></extensions></trkpt>
      <trkpt lon="-3.158225" lat="53.001798"><ele>446.103821</ele><time>2021-09-01T11:31:08Z</time><extensions><speed>1.217276</speed><course>310.926819</course><hAcc>0.883484</hAcc><vAcc>0.699507</vAcc></extensions></trkpt>
      <trkpt lon="-3.158216" lat="53.001788"><ele>445.972168</ele><time>2021-09-01T11:31:09Z</time><extensions><speed>1.231777</speed><course>312.939606</course><hAcc>0.883840</hAcc><vAcc>0.700675</vAcc></extensions></trkpt>
      <trkpt lon="-3.158206" lat="53.001779"><ele>445.836334</ele><time>2021-09-01T11:31:10Z</time><extensions><speed>1.243600</speed><course>305.606995</course><hAcc>0.884179</hAcc><vAcc>0.701752</vAcc></extensions></trkpt>
      <trkpt lon="-3.158196" lat="53.001770"><ele>445.697266</ele><time>2021-09-01T11:31:11Z</time><extensions><speed>1.251779</speed><course>302.541321</course><hAcc>0.884499</hAcc><vAcc>0.702732</vAcc></extensions></trkpt>
      <trkpt lon="-3.158185" lat="53.001760"><ele>445.556061</ele><time>2021-09-01T11:31:12Z</time><extensions><speed>1.255581</speed><course>303.802917</course><hAcc>0.884796</hAcc><vAcc>0.703622</vAcc></extensions></trkpt>
      <trkpt lon="-3.158175" lat="53.001751"><ele>445.413910</ele><time>2021-09-01T11:31:13Z</time><extensions><speed>1.255101</speed><course>300.395538</course><hAcc>0.885071</hAcc><vAcc>0.704435</vAcc></extensions></trkpt>
      <trkpt lon="-3.158164" lat="53.001742"><ele>445.271973</ele><time>2021-09-01T11:31:14Z</time><extensions><speed>1.251338</speed><course>303.076660</course><hAcc>0.885324</hAcc><vAcc>0.705184</vAcc></extensions></trkpt>
      <trkpt lon="-3.158154" lat="53.001732"><ele>445.131744</ele><time>2021-09-01T11:31:15Z</time><extensions><speed>1.245589</speed><course>301.521118</course><hAcc>0.885557</hAcc><vAcc>0.705883</vAcc></extensions></trkpt>
      <trkpt lon="-3.158145" lat="53.001723"><ele>444.994720</ele><time>2021-09-01T11:31:16Z</time><extensions><speed>1.239541</speed><course>315.953857</course><hAcc>0.885772</hAcc><vAcc>0.706541</vAcc></extensions></trkpt>
      <trkpt lon="-3.158135" lat="53.001713"><ele>444.861847</ele><time>2021-09-01T11:31:17Z</time><extensions><speed>1.234756</speed><course>321.613922</course><hAcc>0.885970</hAcc><vAcc>0.707163</vAcc></extensions></trkpt>
      <trkpt lon="-3.158127" lat="53.001703"><ele>444.733795</ele><time>2021-09-01T11:31:18Z</time><extensions><speed>1.232005</speed><course>320.530426</course><hAcc>0.886152</hAcc><vAcc>0.707749</vAcc></extensions></trkpt>
      <trkpt lon="-3.158118" lat="53.001693"><ele>444.610931</ele><time>2021-09-01T11:31:19Z</time><extensions><speed>1.231518</speed><course>319.105469</course><hAcc>0.886318</hAcc><vAcc>0.708299</vAcc></extensions></trkpt>
      <trkpt lon="-3.158110" lat="53.001683"><ele>444.493042</ele><time>2021-09-01T11:31:20Z</time><extensions><speed>1.232808</speed><course>320.005280</course><hAcc>0.886466</hAcc><vAcc>0.708807</vAcc></extensions></trkpt>
      <trkpt lon="-3.158102" lat="53.001673"><ele>444.379547</ele><time>2021-09-01T11:31:21Z</time><extensions><speed>1.234953</speed><course>320.540527</course><hAcc>0.886597</hAcc><vAcc>0.709265</vAcc></extensions></trkpt>
      <trkpt lon="-3.158095" lat="53.001663"><ele>444.269623</ele><time>2021-09-01T11:31:22Z</time><extensions><speed>1.237476</speed><course>316.635681</course><hAcc>0.886709</hAcc><vAcc>0.709662</vAcc></extensions></trkpt>
      <trkpt lon="-3.158087" lat="53.001653"><ele>444.162292</ele><time>2021-09-01T11:31:23Z</time><extensions><speed>1.240644</speed><course>319.322998</course><hAcc>0.886801</hAcc><vAcc>0.709988</vAcc></extensions></trkpt>
      <trkpt lon="-3.158078" lat="53.001643"><ele>444.056244</ele><time>2021-09-01T11:31:24Z</time><extensions><speed>1.244891</speed><course>319.244141</course><hAcc>0.886874</hAcc><vAcc>0.710232</vAcc></extensions></trkpt>
      <trkpt lon="-3.158070" lat="53.001633"><ele>443.950256</ele><time>2021-09-01T11:31:25Z</time><extensions><speed>1.251025</speed><course>315.425568</course><hAcc>0.886929</hAcc><vAcc>0.710389</vAcc></extensions></trkpt>
      <trkpt lon="-3.158060" lat="53.001624"><ele>443.843384</ele><time>2021-09-01T11:31:26Z</time><extensions><speed>1.259964</speed><course>318.059448</course><hAcc>0.886968</hAcc><vAcc>0.710465</vAcc></extensions></trkpt>
      <trkpt lon="-3.158050" lat="53.001614"><ele>443.734924</ele><time>2021-09-01T11:31:27Z</time><extensions><speed>1.272064</speed><course>318.243683</course><hAcc>0.886994</hAcc><vAcc>0.710473</vAcc></extensions></trkpt>
      <trkpt lon="-3.158039" lat="53.001605"><ele>443.624695</ele><time>2021-09-01T11:31:28Z</time><extensions><speed>1.287339</speed><course>319.840027</course><hAcc>0.887010</hAcc><vAcc>0.710439</vAcc></extensions></trkpt>
      <trkpt lon="-3.158027" lat="53.001596"><ele>443.512909</ele><time>2021-09-01T11:31:29Z</time><extensions><speed>1.305341</speed><course>320.630524</course><hAcc>0.887020</hAcc><vAcc>0.710389</vAcc></extensions></trkpt>
      <trkpt lon="-3.158015" lat="53.001586"><ele>443.400146</ele><time>2021-09-01T11:31:30Z</time><extensions><speed>1.325164</speed><course>318.435181</course><hAcc>0.887028</hAcc><vAcc>0.710350</vAcc></extensions></trkpt>
      <trkpt lon="-3.158002" lat="53.001577"><ele>443.287048</ele><time>2021-09-01T11:31:31Z</time><extensions><speed>1.345640</speed><course>313.959320</course><hAcc>0.887037</hAcc><vAcc>0.710341</vAcc></extensions></trkpt>
      <trkpt lon="-3.157988" lat="53.001568"><ele>443.173981</ele><time>2021-09-01T11:31:32Z</time><extensions><speed>1.365849</speed><course>314.005951</course><hAcc>0.887050</hAcc><vAcc>0.710374</vAcc></extensions></trkpt>
      <trkpt lon="-3.157974" lat="53.001560"><ele>443.061371</ele><time>2021-09-01T11:31:33Z</time><extensions><speed>1.385323</speed><course>315.776367</course><hAcc>0.887068</hAcc><vAcc>0.710450</vAcc></extensions></trkpt>
      <trkpt lon="-3.157959" lat="53.001551"><ele>442.949951</ele><time>2021-09-01T11:31:34Z</time><extensions><speed>1.403884</speed><course>317.643280</course><hAcc>0.887092</hAcc><vAcc>0.710561</vAcc></extensions></trkpt>
      <trkpt lon="-3.157944" lat="53.001542"><ele>442.840454</ele><time>2021-09-01T11:31:35Z</time><extensions><speed>1.421538</speed><course>316.187012</course><hAcc>0.887121</hAcc><vAcc>0.710695</vAcc></extensions></trkpt>
      <trkpt lon="-3.157928" lat="53.001534"><ele>442.733276</ele><time>2021-09-01T11:31:36Z</time><extensions><speed>1.438180</speed><course>313.238525</course><hAcc>0.887154</hAcc><vAcc>0.710838</vAcc></extensions></trkpt>
      <trkpt lon="-3.157911" lat="53.001525"><ele>442.628601</ele><time>2021-09-01T11:31:37Z</time><extensions><speed>1.453684</speed><course>309.102142</course><hAcc>0.887188</hAcc><vAcc>0.710980</vAcc></extensions></trkpt>
      <trkpt lon="-3.157895" lat="53.001517"><ele>442.526215</ele><time>2021-09-01T11:31:38Z</time><extensions><speed>1.467833</speed><course>313.839325</course><hAcc>0.887222</hAcc><vAcc>0.711111</vAcc></extensions></trkpt>
      <trkpt lon="-3.157877" lat="53.001508"><ele>442.425842</ele><time>2021-09-01T11:31:39Z</time><extensions><speed>1.480610</speed><course>315.040405</course><hAcc>0.887254</hAcc><vAcc>0.711228</vAcc></extensions></trkpt>
      <trkpt lon="-3.157860" lat="53.001500"><ele>442.327026</ele><time>2021-09-01T11:31:40Z</time><extensions><speed>1.492018</speed><course>315.010925</course><hAcc>0.887282</hAcc><vAcc>0.711325</vAcc></extensions></trkpt>
      <trkpt lon="-3.157842" lat="53.001492"><ele>442.229370</ele><time>2021-09-01T11:31:41Z</time><extensions><speed>1.501449</speed><course>312.357758</course><hAcc>0.887305</hAcc><vAcc>0.711402</vAcc></extensions></trkpt>
      <trkpt lon="-3.157823" lat="53.001485"><ele>442.132477</ele><time>2021-09-01T11:31:42Z</time><extensions><speed>1.508011</speed><course>316.888885</course><hAcc>0.887322</hAcc><vAcc>0.711455</vAcc></extensions></trkpt>
      <trkpt lon="-3.157805" lat="53.001477"><ele>442.035828</ele><time>2021-09-01T11:31:43Z</time><extensions><speed>1.511418</speed><course>320.096283</course><hAcc>0.887334</hAcc><vAcc>0.711484</vAcc></extensions></trkpt>
      <trkpt lon="-3.157786" lat="53.001470"><ele>441.938416</ele><time>2021-09-01T11:31:44Z</time><extensions><speed>1.511945</speed><course>330.452972</course><hAcc>0.887342</hAcc><vAcc>0.711492</vAcc></extensions></trkpt>
      <trkpt lon="-3.157767" lat="53.001462"><ele>441.839111</ele><time>2021-09-01T11:31:45Z</time><extensions><speed>1.510139</speed><course>325.892334</course><hAcc>0.887349</hAcc><vAcc>0.711485</vAcc></extensions></trkpt>
      <trkpt lon="-3.157748" lat="53.001455"><ele>441.736755</ele><time>2021-09-01T11:31:46Z</time><extensions><speed>1.506964</speed><course>323.150330</course><hAcc>0.887356</hAcc><vAcc>0.711470</vAcc></extensions></trkpt>
      <trkpt lon="-3.157729" lat="53.001448"><ele>441.630310</ele><time>2021-09-01T11:31:47Z</time><extensions><speed>1.502792</speed><course>318.355499</course><hAcc>0.887365</hAcc><vAcc>0.711457</vAcc></extensions></trkpt>
      <trkpt lon="-3.157710" lat="53.001441"><ele>441.518860</ele><time>2021-09-01T11:31:48Z</time><extensions><speed>1.496865</speed><course>319.900726</course><hAcc>0.887381</hAcc><vAcc>0.711460</vAcc></extensions></trkpt>
      <trkpt lon="-3.157692" lat="53.001433"><ele>441.401733</ele><time>2021-09-01T11:31:49Z</time><extensions><speed>1.488849</speed><course>327.705719</course><hAcc>0.887404</hAcc><vAcc>0.711494</vAcc></extensions></trkpt>
      <trkpt lon="-3.157674" lat="53.001426"><ele>441.278717</ele><time>2021-09-01T11:31:50Z</time><extensions><speed>1.479188</speed><course>325.864380</course><hAcc>0.887437</hAcc><vAcc>0.711573</vAcc></extensions></trkpt>
      <trkpt lon="-3.157656" lat="53.001418"><ele>441.150330</ele><time>2021-09-01T11:31:51Z</time><extensions><speed>1.469011</speed><course>316.016541</course><hAcc>0.887481</hAcc><vAcc>0.711705</vAcc></extensions></trkpt>
      <trkpt lon="-3.157638" lat="53.001410"><ele>441.017670</ele><time>2021-09-01T11:31:52Z</time><extensions><speed>1.460165</speed><course>317.886536</course><hAcc>0.887536</hAcc><vAcc>0.711892</vAcc></extensions></trkpt>
      <trkpt lon="-3.157621" lat="53.001402"><ele>440.882233</ele><time>2021-09-01T11:31:53Z</time><extensions><speed>1.454237</speed><course>327.267029</course><hAcc>0.887602</hAcc><vAcc>0.712128</vAcc></extensions></trkpt>
      <trkpt lon="-3.157605" lat="53.001393"><ele>440.745392</ele><time>2021-09-01T11:31:54Z</time><extensions><speed>1.451699</speed><course>326.251373</course><hAcc>0.887678</hAcc><vAcc>0.712405</vAcc></extensions></trkpt>
      <trkpt lon="-3.157589" lat="53.001384"><ele>440.607971</ele><time>2021-09-01T11:31:55Z</time><extensions><speed>1.452020</speed><course>330.160339</course><hAcc>0.887760</hAcc><vAcc>0.712714</vAcc></extensions></trkpt>
      <trkpt lon="-3.157573" lat="53.001376"><ele>440.470123</ele><time>2021-09-01T11:31:56Z</time><extensions><speed>1.454315</speed><course>329.350830</course><hAcc>0.887847</hAcc><vAcc>0.713044</vAcc></extensions></trkpt>
      <trkpt lon="-3.157558" lat="53.001366"><ele>440.331635</ele><time>2021-09-01T11:31:57Z</time><extensions><speed>1.457098</speed><course>328.046906</course><hAcc>0.887934</hAcc><vAcc>0.713382</vAcc></extensions></trkpt>
      <trkpt lon="-3.157542" lat="53.001357"><ele>440.191986</ele><time>2021-09-01T11:31:58Z</time><extensions><speed>1.459128</speed><course>328.036682</course><hAcc>0.888019</hAcc><vAcc>0.713711</vAcc></extensions></trkpt>
      <trkpt lon="-3.157527" lat="53.001348"><ele>440.050659</ele><time>2021-09-01T11:31:59Z</time><extensions><speed>1.459787</speed><course>328.321899</course><hAcc>0.888099</hAcc><vAcc>0.714009</vAcc></extensions></trkpt>
      <trkpt lon="-3.157512" lat="53.001338"><ele>439.907288</ele><time>2021-09-01T11:32:00Z</time><extensions><speed>1.458592</speed><course>326.366882</course><hAcc>0.888174</hAcc><vAcc>0.714262</vAcc></extensions></trkpt>
      <trkpt lon="-3.157497" lat="53.001329"><ele>439.761688</ele><time>2021-09-01T11:32:01Z</time><extensions><speed>1.455195</speed><course>331.362152</course><hAcc>0.888241</hAcc><vAcc>0.714461</vAcc></extensions></trkpt>
      <trkpt lon="-3.157481" lat="53.001320"><ele>439.613800</ele><time>2021-09-01T11:32:02Z</time><extensions><speed>1.449151</speed><course>329.394318</course><hAcc>0.888300</hAcc><vAcc>0.714610</vAcc></extensions></trkpt>
      <trkpt lon="-3.157465" lat="53.001312"><ele>439.463593</ele><time>2021-09-01T11:32:03Z</time><extensions><speed>1.440277</speed><course>332.464355</course><hAcc>0.888351</hAcc><vAcc>0.714722</vAcc></extensions></trkpt>
      <trkpt lon="-3.157448" lat="53.001303"><ele>439.311371</ele><time>2021-09-01T11:32:04Z</time><extensions><speed>1.428531</speed><course>335.973755</course><hAcc>0.888394</hAcc><vAcc>0.714811</vAcc></extensions></trkpt>
      <trkpt lon="-3.157432" lat="53.001296"><ele>439.157806</ele><time>2021-09-01T11:32:05Z</time><extensions><speed>1.414381</speed><course>334.588074</course><hAcc>0.888431</hAcc><vAcc>0.714889</vAcc></extensions></trkpt>
      <trkpt lon="-3.157414" lat="53.001288"><ele>439.003815</ele><time>2021-09-01T11:32:06Z</time><extensions><speed>1.398431</speed><course>337.558624</course><hAcc>0.888461</hAcc><vAcc>0.714963</vAcc></extensions></trkpt>
      <trkpt lon="-3.157397" lat="53.001282"><ele>438.850403</ele><time>2021-09-01T11:32:07Z</time><extensions><speed>1.381021</speed><course>337.377197</course><hAcc>0.888485</hAcc><vAcc>0.715041</vAcc></extensions></trkpt>
      <trkpt lon="-3.157379" lat="53.001276"><ele>438.698486</ele><time>2021-09-01T11:32:08Z</time><extensions><speed>1.362960</speed><course>334.236908</course><hAcc>0.888503</hAcc><vAcc>0.715120</vAcc></extensions></trkpt>
      <trkpt lon="-3.157361" lat="53.001270"><ele>438.548981</ele><time>2021-09-01T11:32:09Z</time><extensions><speed>1.344916</speed><course>333.116516</course><hAcc>0.888515</hAcc><vAcc>0.715196</vAcc></extensions></trkpt>
      <trkpt lon="-3.157343" lat="53.001266"><ele>438.402679</ele><time>2021-09-01T11:32:10Z</time><extensions><speed>1.327179</speed><course>331.193451</course><hAcc>0.888520</hAcc><vAcc>0.715258</vAcc></extensions></trkpt>
      <trkpt lon="-3.157324" lat="53.001262"><ele>438.260162</ele><time>2021-09-01T11:32:11Z</time><extensions><speed>1.309700</speed><course>327.071960</course><hAcc>0.888516</hAcc><vAcc>0.715292</vAcc></extensions></trkpt>
      <trkpt lon="-3.157305" lat="53.001258"><ele>438.121490</ele><time>2021-09-01T11:32:12Z</time><extensions><speed>1.291596</speed><course>323.969269</course><hAcc>0.888503</hAcc><vAcc>0.715288</vAcc></extensions></trkpt>
      <trkpt lon="-3.157287" lat="53.001256"><ele>437.986786</ele><time>2021-09-01T11:32:13Z</time><extensions><speed>1.271751</speed><course>325.035614</course><hAcc>0.888481</hAcc><vAcc>0.715239</vAcc></extensions></trkpt>
      <trkpt lon="-3.157268" lat="53.001254"><ele>437.856049</ele><time>2021-09-01T11:32:14Z</time><extensions><speed>1.250289</speed><course>325.080109</course><hAcc>0.888449</hAcc><vAcc>0.715139</vAcc></extensions></trkpt>
      <trkpt lon="-3.157250" lat="53.001252"><ele>437.728851</ele><time>2021-09-01T11:32:15Z</time><extensions><speed>1.228237</speed><course>320.596710</course><hAcc>0.888409</hAcc><vAcc>0.714988</vAcc></extensions></trkpt>
      <trkpt lon="-3.157232" lat="53.001252"><ele>437.604004</ele><time>2021-09-01T11:32:16Z</time><extensions><speed>1.207106</speed><course>325.164429</course><hAcc>0.888362</hAcc><vAcc>0.714792</vAcc></extensions></trkpt>
      <trkpt lon="-3.157214" lat="53.001251"><ele>437.480377</ele><time>2021-09-01T11:32:17Z</time><extensions><speed>1.188939</speed><course>323.691345</course><hAcc>0.888310</hAcc><vAcc>0.714565</vAcc></extensions></trkpt>
      <trkpt lon="-3.157197" lat="53.001251"><ele>437.356934</ele><time>2021-09-01T11:32:18Z</time><extensions><speed>1.175015</speed><course>332.829010</course><hAcc>0.888257</hAcc><vAcc>0.714328</vAcc></extensions></trkpt>
      <trkpt lon="-3.157179" lat="53.001251"><ele>437.233185</ele><time>2021-09-01T11:32:19Z</time><extensions><speed>1.165488</speed><course>333.287506</course><hAcc>0.888205</hAcc><vAcc>0.714098</vAcc></extensions></trkpt>
      <trkpt lon="-3.157162" lat="53.001251"><ele>437.109283</ele><time>2021-09-01T11:32:20Z</time><extensions><speed>1.159902</speed><course>320.664337</course><hAcc>0.888157</hAcc><vAcc>0.713894</vAcc></extensions></trkpt>
      <trkpt lon="-3.157145" lat="53.001252"><ele>436.986023</ele><time>2021-09-01T11:32:21Z</time><extensions><speed>1.157484</speed><course>319.581818</course><hAcc>0.888114</hAcc><vAcc>0.713729</vAcc></extensions></trkpt>
      <trkpt lon="-3.157127" lat="53.001252"><ele>436.864288</ele><time>2021-09-01T11:32:22Z</time><extensions><speed>1.157700</speed><course>320.113190</course><hAcc>0.888078</hAcc><vAcc>0.713612</vAcc></extensions></trkpt>
      <trkpt lon="-3.157110" lat="53.001253"><ele>436.744690</ele><time>2021-09-01T11:32:23Z</time><extensions><speed>1.160643</speed><course>325.625488</course><hAcc>0.888049</hAcc><vAcc>0.713541</vAcc></extensions></trkpt>
      <trkpt lon="-3.157093" lat="53.001254"><ele>436.627350</ele><time>2021-09-01T11:32:24Z</time><extensions><speed>1.166136</speed><course>320.008789</course><hAcc>0.888025</hAcc><vAcc>0.713509</vAcc></extensions></trkpt>
      <trkpt lon="-3.157076" lat="53.001254"><ele>436.512024</ele><time>2021-09-01T11:32:25Z</time><extensions><speed>1.173463</speed><course>318.909088</course><hAcc>0.888005</hAcc><vAcc>0.713504</vAcc></extensions></trkpt>
      <trkpt lon="-3.157058" lat="53.001255"><ele>436.398407</ele><time>2021-09-01T11:32:26Z</time><extensions><speed>1.181174</speed><course>323.298828</course><hAcc>0.887985</hAcc><vAcc>0.713509</vAcc></extensions></trkpt>
      <trkpt lon="-3.157040" lat="53.001255"><ele>436.286011</ele><time>2021-09-01T11:32:27Z</time><extensions><speed>1.187777</speed><course>319.843567</course><hAcc>0.887963</hAcc><vAcc>0.713503</vAcc></extensions></trkpt>
      <trkpt lon="-3.157023" lat="53.001256"><ele>436.174408</ele><time>2021-09-01T11:32:28Z</time><extensions><speed>1.192387</speed><course>314.311829</course><hAcc>0.887934</hAcc><vAcc>0.713466</vAcc></extensions></trkpt>
      <trkpt lon="-3.157005" lat="53.001256"><ele>436.063477</ele><time>2021-09-01T11:32:29Z</time><extensions><speed>1.194194</speed><course>319.089264</course><hAcc>0.887895</hAcc><vAcc>0.713382</vAcc></extensions></trkpt>
      <trkpt lon="-3.156987" lat="53.001256"><ele>435.953583</ele><time>2021-09-01T11:32:30Z</time><extensions><speed>1.192723</speed><course>322.114319</course><hAcc>0.887845</hAcc><vAcc>0.713240</vAcc></extensions></trkpt>
      <trkpt lon="-3.156969" lat="53.001255"><ele>435.845215</ele><time>2021-09-01T11:32:31Z</time><extensions><speed>1.188917</speed><course>313.771057</course><hAcc>0.887780</hAcc><vAcc>0.713037</vAcc></extensions></trkpt>
      <trkpt lon="-3.156952" lat="53.001255"><ele>435.738739</ele><time>2021-09-01T11:32:32Z</time><extensions><speed>1.184727</speed><course>306.383820</course><hAcc>0.887701</hAcc><vAcc>0.712771</vAcc></extensions></trkpt>
      <trkpt lon="-3.156934" lat="53.001254"><ele>435.634247</ele><time>2021-09-01T11:32:33Z</time><extensions><speed>1.181793</speed><course>308.594727</course><hAcc>0.887609</hAcc><vAcc>0.712448</vAcc></extensions></trkpt>
      <trkpt lon="-3.156917" lat="53.001253"><ele>435.531647</ele><time>2021-09-01T11:32:34Z</time><extensions><speed>1.181101</speed><course>313.438293</course><hAcc>0.887505</hAcc><vAcc>0.712075</vAcc></extensions></trkpt>
      <trkpt lon="-3.156899" lat="53.001251"><ele>435.430634</ele><time>2021-09-01T11:32:35Z</time><extensions><speed>1.183325</speed><course>315.261749</course><hAcc>0.887392</hAcc><vAcc>0.711667</vAcc></extensions></trkpt>
      <trkpt lon="-3.156882" lat="53.001249"><ele>435.330475</ele><time>2021-09-01T11:32:36Z</time><extensions><speed>1.189177</speed><course>314.962799</course><hAcc>0.887274</hAcc><vAcc>0.711240</vAcc></extensions></trkpt>
      <trkpt lon="-3.156864" lat="53.001247"><ele>435.230133</ele><time>2021-09-01T11:32:37Z</time><extensions><speed>1.198668</speed><course>311.864380</course><hAcc>0.887156</hAcc><vAcc>0.710811</vAcc></extensions></trkpt>
      <trkpt lon="-3.156847" lat="53.001245"><ele>435.128784</ele><time>2021-09-01T11:32:38Z</time><extensions><speed>1.211430</speed><course>305.555115</course><hAcc>0.887041</hAcc><vAcc>0.710397</vAcc></extensions></trkpt>
      <trkpt lon="-3.156829" lat="53.001243"><ele>435.026245</ele><time>2021-09-01T11:32:39Z</time><extensions><speed>1.227079</speed><course>309.414368</course><hAcc>0.886935</hAcc><vAcc>0.710014</vAcc></extensions></trkpt>
      <trkpt lon="-3.156811" lat="53.001240"><ele>434.922394</ele><time>2021-09-01T11:32:40Z</time><extensions><speed>1.245213</speed><course>312.426361</course><hAcc>0.886842</hAcc><vAcc>0.709676</vAcc></extensions></trkpt>
      <trkpt lon="-3.156793" lat="53.001237"><ele>434.816833</ele><time>2021-09-01T11:32:41Z</time><extensions><speed>1.265267</speed><course>315.779877</course><hAcc>0.886766</hAcc><vAcc>0.709397</vAcc></extensions></trkpt>
      <trkpt lon="-3.156775" lat="53.001235"><ele>434.708893</ele><time>2021-09-01T11:32:42Z</time><extensions><speed>1.286382</speed><course>309.393494</course><hAcc>0.886710</hAcc><vAcc>0.709187</vAcc></extensions></trkpt>
      <trkpt lon="-3.156756" lat="53.001232"><ele>434.597534</ele><time>2021-09-01T11:32:43Z</time><extensions><speed>1.307293</speed><course>315.161163</course><hAcc>0.886675</hAcc><vAcc>0.709059</vAcc></extensions></trkpt>
      <trkpt lon="-3.156737" lat="53.001229"><ele>434.481445</ele><time>2021-09-01T11:32:44Z</time><extensions><speed>1.326920</speed><course>313.978088</course><hAcc>0.886663</hAcc><vAcc>0.709020</vAcc></extensions></trkpt>
      <trkpt lon="-3.156718" lat="53.001226"><ele>434.359863</ele><time>2021-09-01T11:32:45Z</time><extensions><speed>1.344601</speed><course>310.683502</course><hAcc>0.886671</hAcc><vAcc>0.709071</vAcc></extensions></trkpt>
      <trkpt lon="-3.156698" lat="53.001223"><ele>434.232727</ele><time>2021-09-01T11:32:46Z</time><extensions><speed>1.360415</speed><course>311.301880</course><hAcc>0.886699</hAcc><vAcc>0.709205</vAcc></extensions></trkpt>
      <trkpt lon="-3.156678" lat="53.001220"><ele>434.100525</ele><time>2021-09-01T11:32:47Z</time><extensions><speed>1.375249</speed><course>311.208435</course><hAcc>0.886743</hAcc><vAcc>0.709405</vAcc></extensions></trkpt>
      <trkpt lon="-3.156658" lat="53.001217"><ele>433.964020</ele><time>2021-09-01T11:32:48Z</time><extensions><speed>1.389919</speed><course>309.569458</course><hAcc>0.886799</hAcc><vAcc>0.709652</vAcc></extensions></trkpt>
      <trkpt lon="-3.156638" lat="53.001215"><ele>433.824036</ele><time>2021-09-01T11:32:49Z</time><extensions><speed>1.404225</speed><course>310.187012</course><hAcc>0.886862</hAcc><vAcc>0.709923</vAcc></extensions></trkpt>
      <trkpt lon="-3.156617" lat="53.001212"><ele>433.681427</ele><time>2021-09-01T11:32:50Z</time><extensions><speed>1.417525</speed><course>310.459808</course><hAcc>0.886927</hAcc><vAcc>0.710195</vAcc></extensions></trkpt>
      <trkpt lon="-3.156597" lat="53.001209"><ele>433.536774</ele><time>2021-09-01T11:32:51Z</time><extensions><speed>1.430208</speed><course>310.191071</course><hAcc>0.886989</hAcc><vAcc>0.710443</vAcc></extensions></trkpt>
      <trkpt lon="-3.156576" lat="53.001206"><ele>433.390411</ele><time>2021-09-01T11:32:52Z</time><extensions><speed>1.442382</speed><course>313.202332</course><hAcc>0.887044</hAcc><vAcc>0.710653</vAcc></extensions></trkpt>
      <trkpt lon="-3.156555" lat="53.001202"><ele>433.242493</ele><time>2021-09-01T11:32:53Z</time><extensions><speed>1.452990</speed><course>317.375305</course><hAcc>0.887089</hAcc><vAcc>0.710813</vAcc></extensions></trkpt>
      <trkpt lon="-3.156534" lat="53.001199"><ele>433.093597</ele><time>2021-09-01T11:32:54Z</time><extensions><speed>1.461418</speed><course>320.965942</course><hAcc>0.887123</hAcc><vAcc>0.710918</vAcc></extensions></trkpt>
      <trkpt lon="-3.156514" lat="53.001195"><ele>432.944550</ele><time>2021-09-01T11:32:55Z</time><extensions><speed>1.467785</speed><course>318.335114</course><hAcc>0.887143</hAcc><vAcc>0.710969</vAcc></extensions></trkpt>
      <trkpt lon="-3.156493" lat="53.001190"><ele>432.796204</ele><time>2021-09-01T11:32:56Z</time><extensions><speed>1.472203</speed><course>322.780487</course><hAcc>0.887149</hAcc><vAcc>0.710965</vAcc></extensions></trkpt>
      <trkpt lon="-3.156472" lat="53.001186"><ele>432.649078</ele><time>2021-09-01T11:32:57Z</time><extensions><speed>1.474065</speed><course>321.324005</course><hAcc>0.887144</hAcc><vAcc>0.710912</vAcc></extensions></trkpt>
      <trkpt lon="-3.156452" lat="53.001181"><ele>432.503174</ele><time>2021-09-01T11:32:58Z</time><extensions><speed>1.472294</speed><course>322.516296</course><hAcc>0.887128</hAcc><vAcc>0.710818</vAcc></extensions></trkpt>
      <trkpt lon="-3.156432" lat="53.001176"><ele>432.357971</ele><time>2021-09-01T11:32:59Z</time><extensions><speed>1.466844</speed><course>319.995483</course><hAcc>0.887104</hAcc><vAcc>0.710698</vAcc></extensions></trkpt>
      <trkpt lon="-3.156412" lat="53.001170"><ele>432.212555</ele><time>2021-09-01T11:33:00Z</time><extensions><speed>1.458166</speed><course>324.182892</course><hAcc>0.887074</hAcc><vAcc>0.710566</vAcc></extensions></trkpt>
      <trkpt lon="-3.156393" lat="53.001165"><ele>432.066498</ele><time>2021-09-01T11:33:01Z</time><extensions><speed>1.446489</speed><course>328.616821</course><hAcc>0.887039</hAcc><vAcc>0.710434</vAcc></extensions></trkpt>
      <trkpt lon="-3.156374" lat="53.001158"><ele>431.920288</ele><time>2021-09-01T11:33:02Z</time><extensions><speed>1.432331</speed><course>324.016815</course><hAcc>0.887002</hAcc><vAcc>0.710312</vAcc></extensions></trkpt>
      <trkpt lon="-3.156355" lat="53.001152"><ele>431.774628</ele><time>2021-09-01T11:33:03Z</time><extensions><speed>1.416513</speed><course>329.825897</course><hAcc>0.886963</hAcc><vAcc>0.710199</vAcc></extensions></trkpt>
      <trkpt lon="-3.156338" lat="53.001145"><ele>431.629395</ele><time>2021-09-01T11:33:04Z</time><extensions><speed>1.399732</speed><course>327.868408</course><hAcc>0.886923</hAcc><vAcc>0.710093</vAcc></extensions></trkpt>
      <trkpt lon="-3.156320" lat="53.001138"><ele>431.484192</ele><time>2021-09-01T11:33:05Z</time><extensions><speed>1.382447</speed><course>336.001526</course><hAcc>0.886884</hAcc><vAcc>0.709987</vAcc></extensions></trkpt>
      <trkpt lon="-3.156304" lat="53.001131"><ele>431.339203</ele><time>2021-09-01T11:33:06Z</time><extensions><speed>1.364973</speed><course>319.189575</course><hAcc>0.886845</hAcc><vAcc>0.709878</vAcc></extensions></trkpt>
      <trkpt lon="-3.156288" lat="53.001124"><ele>431.195160</ele><time>2021-09-01T11:33:07Z</time><extensions><speed>1.348189</speed><course>314.045624</course><hAcc>0.886808</hAcc><vAcc>0.709764</vAcc></extensions></trkpt>
      <trkpt lon="-3.156272" lat="53.001116"><ele>431.052551</ele><time>2021-09-01T11:33:08Z</time><extensions><speed>1.332891</speed><course>316.798950</course><hAcc>0.886773</hAcc><vAcc>0.709645</vAcc></extensions></trkpt>
      <trkpt lon="-3.156257" lat="53.001108"><ele>430.910980</ele><time>2021-09-01T11:33:09Z</time><extensions><speed>1.319568</speed><course>316.381958</course><hAcc>0.886742</hAcc><vAcc>0.709523</vAcc></extensions></trkpt>
      <trkpt lon="-3.156243" lat="53.001100"><ele>430.769653</ele><time>2021-09-01T11:33:10Z</time><extensions><speed>1.308463</speed><course>324.109985</course><hAcc>0.886716</hAcc><vAcc>0.709405</vAcc></extensions></trkpt>
      <trkpt lon="-3.156229" lat="53.001092"><ele>430.627563</ele><time>2021-09-01T11:33:11Z</time><extensions><speed>1.299517</speed><course>319.248718</course><hAcc>0.886697</hAcc><vAcc>0.709303</vAcc></extensions></trkpt>
      <trkpt lon="-3.156215" lat="53.001084"><ele>430.483490</ele><time>2021-09-01T11:33:12Z</time><extensions><speed>1.292878</speed><course>322.755310</course><hAcc>0.886687</hAcc><vAcc>0.709230</vAcc></extensions></trkpt>
      <trkpt lon="-3.156201" lat="53.001076"><ele>430.336243</ele><time>2021-09-01T11:33:13Z</time><extensions><speed>1.288882</speed><course>326.625031</course><hAcc>0.886686</hAcc><vAcc>0.709199</vAcc></extensions></trkpt>
      <trkpt lon="-3.156187" lat="53.001068"><ele>430.184601</ele><time>2021-09-01T11:33:14Z</time><extensions><speed>1.287671</speed><course>328.024994</course><hAcc>0.886697</hAcc><vAcc>0.709220</vAcc></extensions></trkpt>
      <trkpt lon="-3.156174" lat="53.001060"><ele>430.027283</ele><time>2021-09-01T11:33:15Z</time><extensions><speed>1.288578</speed><course>332.378082</course><hAcc>0.886719</hAcc><vAcc>0.709299</vAcc></extensions></trkpt>
      <trkpt lon="-3.156160" lat="53.001052"><ele>429.862732</ele><time>2021-09-01T11:33:16Z</time><extensions><speed>1.290589</speed><course>332.526154</course><hAcc>0.886752</hAcc><vAcc>0.709433</vAcc></extensions></trkpt>
      <trkpt lon="-3.156146" lat="53.001044"><ele>429.689362</ele><time>2021-09-01T11:33:17Z</time><extensions><speed>1.293077</speed><course>335.486633</course><hAcc>0.886795</hAcc><vAcc>0.709615</vAcc></extensions></trkpt>
      <trkpt lon="-3.156131" lat="53.001036"><ele>429.506287</ele><time>2021-09-01T11:33:18Z</time><extensions><speed>1.295991</speed><course>336.016846</course><hAcc>0.886846</hAcc><vAcc>0.709828</vAcc></extensions></trkpt>
      <trkpt lon="-3.156117" lat="53.001029"><ele>429.313538</ele><time>2021-09-01T11:33:19Z</time><extensions><speed>1.298823</speed><course>334.888000</course><hAcc>0.886902</hAcc><vAcc>0.710056</vAcc></extensions></trkpt>
      <trkpt lon="-3.156101" lat="53.001021"><ele>429.111511</ele><time>2021-09-01T11:33:20Z</time><extensions><speed>1.301131</speed><course>333.393311</course><hAcc>0.886962</hAcc><vAcc>0.710281</vAcc></extensions></trkpt>
      <trkpt lon="-3.156086" lat="53.001014"><ele>428.901123</ele><time>2021-09-01T11:33:21Z</time><extensions><speed>1.303109</speed><course>318.935883</course><hAcc>0.887024</hAcc><vAcc>0.710491</vAcc></extensions></trkpt>
      <trkpt lon="-3.156070" lat="53.001008"><ele>428.684143</ele><time>2021-09-01T11:33:22Z</time><extensions><speed>1.304862</speed><course>311.891724</course><hAcc>0.887087</hAcc><vAcc>0.710684</vAcc></extensions></trkpt>
      <trkpt lon="-3.156053" lat="53.001001"><ele>428.463165</ele><time>2021-09-01T11:33:23Z</time><extensions><speed>1.306391</speed><course>312.578461</course><hAcc>0.887148</hAcc><vAcc>0.710862</vAcc></extensions></trkpt>
      <trkpt lon="-3.156037" lat="53.000996"><ele>428.241180</ele><time>2021-09-01T11:33:24Z</time><extensions><speed>1.307914</speed><course>320.602325</course><hAcc>0.887206</hAcc><vAcc>0.711030</vAcc></extensions></trkpt>
      <trkpt lon="-3.156019" lat="53.000990"><ele>428.021271</ele><time>2021-09-01T11:33:25Z</time><extensions><speed>1.309522</speed><course>323.639648</course><hAcc>0.887262</hAcc><vAcc>0.711191</vAcc></extensions></trkpt>
      <trkpt lon="-3.156002" lat="53.000985"><ele>427.806366</ele><time>2021-09-01T11:33:26Z</time><extensions><speed>1.310840</speed><course>325.641083</course><hAcc>0.887315</hAcc><vAcc>0.711347</vAcc></extensions></trkpt>
      <trkpt lon="-3.155984" lat="53.000981"><ele>427.599060</ele><time>2021-09-01T11:33:27Z</time><extensions><speed>1.311271</speed><course>324.286163</course><hAcc>0.887363</hAcc><vAcc>0.711499</vAcc></extensions></trkpt>
      <trkpt lon="-3.155965" lat="53.000976"><ele>427.401276</ele><time>2021-09-01T11:33:28Z</time><extensions><speed>1.310379</speed><course>330.884674</course><hAcc>0.887406</hAcc><vAcc>0.711648</vAcc></extensions></trkpt>
      <trkpt lon="-3.155947" lat="53.000972"><ele>427.214722</ele><time>2021-09-01T11:33:29Z</time><extensions><speed>1.307946</speed><course>342.591980</course><hAcc>0.887443</hAcc><vAcc>0.711788</vAcc></extensions></trkpt>
      <trkpt lon="-3.155929" lat="53.000969"><ele>427.040955</ele><time>2021-09-01T11:33:30Z</time><extensions><speed>1.303111</speed><course>340.473694</course><hAcc>0.887470</hAcc><vAcc>0.711911</vAcc></extensions></trkpt>
      <trkpt lon="-3.155910" lat="53.000965"><ele>426.881622</ele><time>2021-09-01T11:33:31Z</time><extensions><speed>1.293854</speed><course>337.459930</course><hAcc>0.887487</hAcc><vAcc>0.712003</vAcc></extensions></trkpt>
      <trkpt lon="-3.155892" lat="53.000962"><ele>426.738434</ele><time>2021-09-01T11:33:32Z</time><extensions><speed>1.277264</speed><course>334.977905</course><hAcc>0.887490</hAcc><vAcc>0.712051</vAcc></extensions></trkpt>
      <trkpt lon="-3.155874" lat="53.000959"><ele>426.613007</ele><time>2021-09-01T11:33:33Z</time><extensions><speed>1.250414</speed><course>334.909821</course><hAcc>0.887477</hAcc><vAcc>0.712042</vAcc></extensions></trkpt>
      <trkpt lon="-3.155856" lat="53.000956"><ele>426.506622</ele><time>2021-09-01T11:33:34Z</time><extensions><speed>1.210823</speed><course>335.401093</course><hAcc>0.887445</hAcc><vAcc>0.711964</vAcc></extensions></trkpt>
      <trkpt lon="-3.155839" lat="53.000953"><ele>426.419769</ele><time>2021-09-01T11:33:35Z</time><extensions><speed>1.156969</speed><course>335.416534</course><hAcc>0.887390</hAcc><vAcc>0.711807</vAcc></extensions></trkpt>
      <trkpt lon="-3.155823" lat="53.000951"><ele>426.352112</ele><time>2021-09-01T11:33:36Z</time><extensions><speed>1.088304</speed><course>333.502777</course><hAcc>0.887311</hAcc><vAcc>0.711566</vAcc></extensions></trkpt>
      <trkpt lon="-3.155808" lat="53.000948"><ele>426.302490</ele><time>2021-09-01T11:33:37Z</time><extensions><speed>1.004858</speed><course>334.704010</course><hAcc>0.887204</hAcc><vAcc>0.711240</vAcc></extensions></trkpt>
      <trkpt lon="-3.155794" lat="53.000946"><ele>426.269135</ele><time>2021-09-01T11:33:38Z</time><extensions><speed>0.907396</speed><course>336.400421</course><hAcc>0.887070</hAcc><vAcc>0.710829</vAcc></extensions></trkpt>
      <trkpt lon="-3.155782" lat="53.000944"><ele>426.249969</ele><time>2021-09-01T11:33:39Z</time><extensions><speed>0.797434</speed><course>347.265839</course><hAcc>0.886907</hAcc><vAcc>0.710334</vAcc></extensions></trkpt>
      <trkpt lon="-3.155771" lat="53.000942"><ele>426.242798</ele><time>2021-09-01T11:33:40Z</time><extensions><speed>0.677944</speed><course>344.062927</course><hAcc>0.886716</hAcc><vAcc>0.709756</vAcc></extensions></trkpt>
      <trkpt lon="-3.155763" lat="53.000940"><ele>426.245331</ele><time>2021-09-01T11:33:41Z</time><extensions><speed>0.553576</speed><course>337.032654</course><hAcc>0.886501</hAcc><vAcc>0.709092</vAcc></extensions></trkpt>
      <trkpt lon="-3.155756" lat="53.000939"><ele>426.254974</ele><time>2021-09-01T11:33:42Z</time><extensions><speed>0.429509</speed><course>338.548584</course><hAcc>0.886268</hAcc><vAcc>0.708343</vAcc></extensions></trkpt>
      <trkpt lon="-3.155750" lat="53.000938"><ele>426.269196</ele><time>2021-09-01T11:33:43Z</time><extensions><speed>0.310819</speed><course>340.790558</course><hAcc>0.886024</hAcc><vAcc>0.707515</vAcc></extensions></trkpt>
      <trkpt lon="-3.155746" lat="53.000938"><ele>426.286194</ele><time>2021-09-01T11:33:44Z</time><extensions><speed>0.203670</speed><course>331.528198</course><hAcc>0.885781</hAcc><vAcc>0.706630</vAcc></extensions></trkpt>
      <trkpt lon="-3.155744" lat="53.000938"><ele>426.304962</ele><time>2021-09-01T11:33:45Z</time><extensions><speed>0.118823</speed><course>326.705475</course><hAcc>0.885553</hAcc><vAcc>0.705728</vAcc></extensions></trkpt>
      <trkpt lon="-3.155743" lat="53.000938"><ele>426.324890</ele><time>2021-09-01T11:33:46Z</time><extensions><speed>0.085430</speed><course>334.332062</course><hAcc>0.885355</hAcc><vAcc>0.704877</vAcc></extensions></trkpt>
      <trkpt lon="-3.155743" lat="53.000939"><ele>426.345642</ele><time>2021-09-01T11:33:47Z</time><extensions><speed>0.115044</speed><course>321.684448</course><hAcc>0.885203</hAcc><vAcc>0.704164</vAcc></extensions></trkpt>
      <trkpt lon="-3.155743" lat="53.000940"><ele>426.367065</ele><time>2021-09-01T11:33:48Z</time><extensions><speed>0.157942</speed><course>319.446838</course><hAcc>0.885109</hAcc><vAcc>0.703677</vAcc></extensions></trkpt>
      <trkpt lon="-3.155745" lat="53.000942"><ele>426.388916</ele><time>2021-09-01T11:33:49Z</time><extensions><speed>0.193196</speed><course>327.299927</course><hAcc>0.885089</hAcc><vAcc>0.703494</vAcc></extensions></trkpt>
      <trkpt lon="-3.155746" lat="53.000943"><ele>426.410858</ele><time>2021-09-01T11:33:50Z</time><extensions><speed>0.217749</speed><course>327.362518</course><hAcc>0.885149</hAcc><vAcc>0.703665</vAcc></extensions></trkpt>
      <trkpt lon="-3.155748" lat="53.000945"><ele>426.432465</ele><time>2021-09-01T11:33:51Z</time><extensions><speed>0.231930</speed><course>320.449799</course><hAcc>0.885294</hAcc><vAcc>0.704200</vAcc></extensions></trkpt>
      <trkpt lon="-3.155750" lat="53.000947"><ele>426.453522</ele><time>2021-09-01T11:33:52Z</time><extensions><speed>0.236613</speed><course>323.666901</course><hAcc>0.885524</hAcc><vAcc>0.705073</vAcc></extensions></trkpt>
      <trkpt lon="-3.155752" lat="53.000948"><ele>426.473938</ele><time>2021-09-01T11:33:53Z</time><extensions><speed>0.232873</speed><course>325.310486</course><hAcc>0.885838</hAcc><vAcc>0.706227</vAcc></extensions></trkpt>
      <trkpt lon="-3.155753" lat="53.000950"><ele>426.493683</ele><time>2021-09-01T11:33:54Z</time><extensions><speed>0.222215</speed><course>323.024933</course><hAcc>0.886233</hAcc><vAcc>0.707588</vAcc></extensions></trkpt>
      <trkpt lon="-3.155755" lat="53.000952"><ele>426.512817</ele><time>2021-09-01T11:33:55Z</time><extensions><speed>0.206567</speed><course>321.641022</course><hAcc>0.886711</hAcc><vAcc>0.709085</vAcc></extensions></trkpt>
      <trkpt lon="-3.155756" lat="53.000953"><ele>426.531372</ele><time>2021-09-01T11:33:56Z</time><extensions><speed>0.187629</speed><course>323.471222</course><hAcc>0.887279</hAcc><vAcc>0.710661</vAcc></extensions></trkpt>
      <trkpt lon="-3.155758" lat="53.000955"><ele>426.549500</ele><time>2021-09-01T11:33:57Z</time><extensions><speed>0.166709</speed><course>324.875793</course><hAcc>0.887948</hAcc><vAcc>0.712285</vAcc></extensions></trkpt>
      <trkpt lon="-3.155759" lat="53.000956"><ele>426.567322</ele><time>2021-09-01T11:33:58Z</time><extensions><speed>0.144811</speed><course>318.989594</course><hAcc>0.888742</hAcc><vAcc>0.713945</vAcc></extensions></trkpt>
      <trkpt lon="-3.155759" lat="53.000957"><ele>426.585052</ele><time>2021-09-01T11:33:59Z</time><extensions><speed>0.122695</speed><course>325.887390</course><hAcc>0.889686</hAcc><vAcc>0.715644</vAcc></extensions></trkpt>
      <trkpt lon="-3.155760" lat="53.000958"><ele>426.602844</ele><time>2021-09-01T11:34:00Z</time><extensions><speed>0.100949</speed><course>320.176544</course><hAcc>0.890812</hAcc><vAcc>0.717392</vAcc></extensions></trkpt>
      <trkpt lon="-3.155760" lat="53.000959"><ele>426.621002</ele><time>2021-09-01T11:34:01Z</time><extensions><speed>0.080115</speed><course>316.970215</course><hAcc>0.892150</hAcc><vAcc>0.719193</vAcc></extensions></trkpt>
      <trkpt lon="-3.155760" lat="53.000959"><ele>426.639771</ele><time>2021-09-01T11:34:02Z</time><extensions><speed>0.060949</speed><course>317.579376</course><hAcc>0.893718</hAcc><vAcc>0.721038</vAcc></extensions></trkpt>
      <trkpt lon="-3.155760" lat="53.000960"><ele>426.659485</ele><time>2021-09-01T11:34:03Z</time><extensions><speed>0.045125</speed><course>318.426422</course><hAcc>0.895516</hAcc><vAcc>0.722892</vAcc></extensions></trkpt>
      <trkpt lon="-3.155760" lat="53.000960"><ele>426.680389</ele><time>2021-09-01T11:34:04Z</time><extensions><speed>0.036682</speed><course>326.252594</course><hAcc>0.897510</hAcc><vAcc>0.724689</vAcc></extensions></trkpt>
      <trkpt lon="-3.155759" lat="53.000960"><ele>426.702789</ele><time>2021-09-01T11:34:05Z</time><extensions><speed>0.040395</speed><course>323.145020</course><hAcc>0.899623</hAcc><vAcc>0.726329</vAcc></extensions></trkpt>
      <trkpt lon="-3.155759" lat="53.000960"><ele>426.726929</ele><time>2021-09-01T11:34:06Z</time><extensions><speed>0.054107</speed><course>325.683777</course><hAcc>0.901729</hAcc><vAcc>0.727679</vAcc></extensions></trkpt>
      <trkpt lon="-3.155758" lat="53.000960"><ele>426.752991</ele><time>2021-09-01T11:34:07Z</time><extensions><speed>0.072643</speed><course>328.591705</course><hAcc>0.903653</hAcc><vAcc>0.728599</vAcc></extensions></trkpt>
      <trkpt lon="-3.155757" lat="53.000959"><ele>426.781128</ele><time>2021-09-01T11:34:08Z</time><extensions><speed>0.093736</speed><course>330.002411</course><hAcc>0.905198</hAcc><vAcc>0.728967</vAcc></extensions></trkpt>
      <trkpt lon="-3.155756" lat="53.000959"><ele>426.811310</ele><time>2021-09-01T11:34:09Z</time><extensions><speed>0.117554</speed><course>336.475830</course><hAcc>0.906190</hAcc><vAcc>0.728752</vAcc></extensions></trkpt>
      <trkpt lon="-3.155755" lat="53.000958"><ele>426.843719</ele><time>2021-09-01T11:34:10Z</time><extensions><speed>0.144919</speed><course>344.051849</course><hAcc>0.906589</hAcc><vAcc>0.728100</vAcc></extensions></trkpt>
      <trkpt lon="-3.155753" lat="53.000957"><ele>426.878632</ele><time>2021-09-01T11:34:11Z</time><extensions><speed>0.175992</speed><course>336.407532</course><hAcc>0.906648</hAcc><vAcc>0.727483</vAcc></extensions></trkpt>
      <trkpt lon="-3.155752" lat="53.000955"><ele>426.916229</ele><time>2021-09-01T11:34:12Z</time><extensions><speed>0.210332</speed><course>333.640045</course><hAcc>0.907174</hAcc><vAcc>0.727899</vAcc></extensions></trkpt>
      <trkpt lon="-3.155750" lat="53.000954"><ele>426.956726</ele><time>2021-09-01T11:34:13Z</time><extensions><speed>0.247060</speed><course>342.498993</course><hAcc>0.909888</hAcc><vAcc>0.731117</vAcc></extensions></trkpt>
      <trkpt lon="-3.155747" lat="53.000952"><ele>427.000122</ele><time>2021-09-01T11:34:14Z</time><extensions><speed>0.285018</speed><course>346.370605</course><hAcc>0.917866</hAcc><vAcc>0.739906</vAcc></extensions></trkpt>
      <trkpt lon="-3.155745" lat="53.000949"><ele>427.046204</ele><time>2021-09-01T11:34:15Z</time><extensions><speed>0.322769</speed><course>342.144836</course><hAcc>0.935953</hAcc><vAcc>0.758178</vAcc></extensions></trkpt>
      <trkpt lon="-3.155742" lat="53.000947"><ele>427.094604</ele><time>2021-09-01T11:34:16Z</time><extensions><speed>0.358372</speed><course>335.813446</course><hAcc>0.970892</hAcc><vAcc>0.790848</vAcc></extensions></trkpt>
      <trkpt lon="-3.155737" lat="53.000939"><ele>427.065887</ele><time>2021-09-01T11:34:17Z</time><extensions><speed>1.017136</speed><course>-1.000000</course><hAcc>0.933041</hAcc><vAcc>0.756212</vAcc></extensions></trkpt>
      <trkpt lon="-3.155732" lat="53.000931"><ele>426.972015</ele><time>2021-09-01T11:34:18Z</time><extensions><speed>1.055437</speed><course>-1.000000</course><hAcc>0.914039</hAcc><vAcc>0.736285</vAcc></extensions></trkpt>
      <trkpt lon="-3.155726" lat="53.000921"><ele>426.868225</ele><time>2021-09-01T11:34:19Z</time><extensions><speed>1.095938</speed><course>-1.000000</course><hAcc>0.906359</hAcc><vAcc>0.726863</vAcc></extensions></trkpt>
      <trkpt lon="-3.155721" lat="53.000912"><ele>426.752747</ele><time>2021-09-01T11:34:20Z</time><extensions><speed>1.136943</speed><course>-1.000000</course><hAcc>0.904486</hAcc><vAcc>0.723623</vAcc></extensions></trkpt>
      <trkpt lon="-3.155716" lat="53.000902"><ele>426.623901</ele><time>2021-09-01T11:34:21Z</time><extensions><speed>1.177364</speed><course>-1.000000</course><hAcc>0.904931</hAcc><vAcc>0.723510</vAcc></extensions></trkpt>
      <trkpt lon="-3.155711" lat="53.000892"><ele>426.480652</ele><time>2021-09-01T11:34:22Z</time><extensions><speed>1.216254</speed><course>-1.000000</course><hAcc>0.905769</hAcc><vAcc>0.724600</vAcc></extensions></trkpt>
      <trkpt lon="-3.155706" lat="53.000881"><ele>426.322449</ele><time>2021-09-01T11:34:23Z</time><extensions><speed>1.252469</speed><course>-1.000000</course><hAcc>0.906136</hAcc><vAcc>0.725827</vAcc></extensions></trkpt>
      <trkpt lon="-3.155701" lat="53.000870"><ele>426.149567</ele><time>2021-09-01T11:34:24Z</time><extensions><speed>1.285289</speed><course>-1.000000</course><hAcc>0.905806</hAcc><vAcc>0.726709</vAcc></extensions></trkpt>
      <trkpt lon="-3.155697" lat="53.000859"><ele>425.963104</ele><time>2021-09-01T11:34:25Z</time><extensions><speed>1.314374</speed><course>-1.000000</course><hAcc>0.904898</hAcc><vAcc>0.727129</vAcc></extensions></trkpt>
      <trkpt lon="-3.155692" lat="53.000847"><ele>425.764648</ele><time>2021-09-01T11:34:26Z</time><extensions><speed>1.339220</speed><course>184.559082</course><hAcc>0.903678</hAcc><vAcc>0.727175</vAcc></extensions></trkpt>
      <trkpt lon="-3.155687" lat="53.000835"><ele>425.555847</ele><time>2021-09-01T11:34:27Z</time><extensions><speed>1.359728</speed><course>-1.000000</course><hAcc>0.902437</hAcc><vAcc>0.727026</vAcc></extensions></trkpt>
      <trkpt lon="-3.155683" lat="53.000823"><ele>425.338562</ele><time>2021-09-01T11:34:28Z</time><extensions><speed>1.375276</speed><course>-1.000000</course><hAcc>0.901432</hAcc><vAcc>0.726872</vAcc></extensions></trkpt>
      <trkpt lon="-3.155678" lat="53.000811"><ele>425.114716</ele><time>2021-09-01T11:34:29Z</time><extensions><speed>1.384334</speed><course>-1.000000</course><hAcc>0.900847</hAcc><vAcc>0.726866</vAcc></extensions></trkpt>
      <trkpt lon="-3.155674" lat="53.000799"><ele>424.886475</ele><time>2021-09-01T11:34:29Z</time><extensions><speed>1.386389</speed><course>-1.000000</course><hAcc>0.900798</hAcc><vAcc>0.727106</vAcc></extensions></trkpt>
      <trkpt lon="-3.155669" lat="53.000787"><ele>424.655487</ele><time>2021-09-01T11:34:30Z</time><extensions><speed>1.381458</speed><course>53.307610</course><hAcc>0.901296</hAcc><vAcc>0.727598</vAcc></extensions></trkpt>
      <trkpt lon="-3.155664" lat="53.000775"><ele>424.424072</ele><time>2021-09-01T11:34:31Z</time><extensions><speed>1.368759</speed><course>-1.000000</course><hAcc>0.902249</hAcc><vAcc>0.728259</vAcc></extensions></trkpt>
      <trkpt lon="-3.155659" lat="53.000763"><ele>424.194427</ele><time>2021-09-01T11:34:32Z</time><extensions><speed>1.347700</speed><course>-1.000000</course><hAcc>0.903501</hAcc><vAcc>0.728952</vAcc></extensions></trkpt>
      <trkpt lon="-3.155654" lat="53.000752"><ele>423.968811</ele><time>2021-09-01T11:34:33Z</time><extensions><speed>1.318587</speed><course>-1.000000</course><hAcc>0.904834</hAcc><vAcc>0.729501</vAcc></extensions></trkpt>
      <trkpt lon="-3.155649" lat="53.000740"><ele>423.749664</ele><time>2021-09-01T11:34:34Z</time><extensions><speed>1.282226</speed><course>120.394302</course><hAcc>0.905997</hAcc><vAcc>0.729735</vAcc></extensions></trkpt>
      <trkpt lon="-3.155643" lat="53.000729"><ele>423.539307</ele><time>2021-09-01T11:34:35Z</time><extensions><speed>1.239654</speed><course>-1.000000</course><hAcc>0.906768</hAcc><vAcc>0.729558</vAcc></extensions></trkpt>
      <trkpt lon="-3.155638" lat="53.000719"><ele>423.339874</ele><time>2021-09-01T11:34:36Z</time><extensions><speed>1.192251</speed><course>-1.000000</course><hAcc>0.907055</hAcc><vAcc>0.729053</vAcc></extensions></trkpt>
      <trkpt lon="-3.155633" lat="53.000709"><ele>423.152252</ele><time>2021-09-01T11:34:37Z</time><extensions><speed>1.141683</speed><course>-1.000000</course><hAcc>0.907068</hAcc><vAcc>0.728627</vAcc></extensions></trkpt>
      <trkpt lon="-3.155627" lat="53.000700"><ele>422.976471</ele><time>2021-09-01T11:34:38Z</time><extensions><speed>1.089531</speed><course>-1.000000</course><hAcc>0.907577</hAcc><vAcc>0.729211</vAcc></extensions></trkpt>
      <trkpt lon="-3.155622" lat="53.000691"><ele>422.812103</ele><time>2021-09-01T11:34:39Z</time><extensions><speed>1.037379</speed><course>-1.000000</course><hAcc>0.910274</hAcc><vAcc>0.732499</vAcc></extensions></trkpt>
      <trkpt lon="-3.155616" lat="53.000682"><ele>422.658325</ele><time>2021-09-01T11:34:40Z</time><extensions><speed>0.987046</speed><course>-1.000000</course><hAcc>0.918207</hAcc><vAcc>0.741190</vAcc></extensions></trkpt>
      <trkpt lon="-3.155611" lat="53.000674"><ele>422.513580</ele><time>2021-09-01T11:34:42Z</time><extensions><speed>0.940270</speed><course>-1.000000</course><hAcc>0.936210</hAcc><vAcc>0.759158</vAcc></extensions></trkpt>
      <trkpt lon="-3.155605" lat="53.000667"><ele>422.376465</ele><time>2021-09-01T11:34:43Z</time><extensions><speed>0.899243</speed><course>-1.000000</course><hAcc>0.970992</hAcc><vAcc>0.791277</vAcc></extensions></trkpt>
      <trkpt lon="-3.155600" lat="53.000665"><ele>422.394684</ele><time>2021-09-01T11:34:44Z</time><extensions><speed>0.298615</speed><course>-1.000000</course><hAcc>0.933251</hAcc><vAcc>0.756863</vAcc></extensions></trkpt>
      <trkpt lon="-3.155596" lat="53.000664"><ele>422.420105</ele><time>2021-09-01T11:34:45Z</time><extensions><speed>0.272579</speed><course>-1.000000</course><hAcc>0.913729</hAcc><vAcc>0.735415</vAcc></extensions></trkpt>
      <trkpt lon="-3.155593" lat="53.000663"><ele>422.443970</ele><time>2021-09-01T11:34:46Z</time><extensions><speed>0.244152</speed><course>-1.000000</course><hAcc>0.905483</hAcc><vAcc>0.724374</vAcc></extensions></trkpt>
      <trkpt lon="-3.155589" lat="53.000663"><ele>422.466156</ele><time>2021-09-01T11:34:47Z</time><extensions><speed>0.215072</speed><course>-1.000000</course><hAcc>0.903003</hAcc><vAcc>0.719425</vAcc></extensions></trkpt>
      <trkpt lon="-3.155587" lat="53.000662"><ele>422.486633</ele><time>2021-09-01T11:34:48Z</time><extensions><speed>0.186303</speed><course>-1.000000</course><hAcc>0.902792</hAcc><vAcc>0.717498</vAcc></extensions></trkpt>
      <trkpt lon="-3.155584" lat="53.000662"><ele>422.505432</ele><time>2021-09-01T11:34:49Z</time><extensions><speed>0.158502</speed><course>-1.000000</course><hAcc>0.902912</hAcc><vAcc>0.716640</vAcc></extensions></trkpt>
      <trkpt lon="-3.155582" lat="53.000661"><ele>422.522461</ele><time>2021-09-01T11:34:50Z</time><extensions><speed>0.132493</speed><course>-1.000000</course><hAcc>0.902478</hAcc><vAcc>0.715757</vAcc></extensions></trkpt>
      <trkpt lon="-3.155580" lat="53.000661"><ele>422.537720</ele><time>2021-09-01T11:34:51Z</time><extensions><speed>0.109289</speed><course>-1.000000</course><hAcc>0.901243</hAcc><vAcc>0.714358</vAcc></extensions></trkpt>
      <trkpt lon="-3.155579" lat="53.000661"><ele>422.551147</ele><time>2021-09-01T11:34:52Z</time><extensions><speed>0.089624</speed><course>-1.000000</course><hAcc>0.899299</hAcc><vAcc>0.712336</vAcc></extensions></trkpt>
      <trkpt lon="-3.155578" lat="53.000661"><ele>422.562836</ele><time>2021-09-01T11:34:53Z</time><extensions><speed>0.073814</speed><course>184.559082</course><hAcc>0.896884</hAcc><vAcc>0.709806</vAcc></extensions></trkpt>
      <trkpt lon="-3.155577" lat="53.000661"><ele>422.572937</ele><time>2021-09-01T11:34:54Z</time><extensions><speed>0.061623</speed><course>-1.000000</course><hAcc>0.894265</hAcc><vAcc>0.706986</vAcc></extensions></trkpt>
      <trkpt lon="-3.155576" lat="53.000661"><ele>422.581665</ele><time>2021-09-01T11:34:55Z</time><extensions><speed>0.052776</speed><course>-1.000000</course><hAcc>0.891671</hAcc><vAcc>0.704104</vAcc></extensions></trkpt>
      <trkpt lon="-3.155575" lat="53.000661"><ele>422.589233</ele><time>2021-09-01T11:34:56Z</time><extensions><speed>0.047285</speed><course>-1.000000</course><hAcc>0.889271</hAcc><vAcc>0.701351</vAcc></extensions></trkpt>
      <trkpt lon="-3.155574" lat="53.000661"><ele>422.595978</ele><time>2021-09-01T11:34:57Z</time><extensions><speed>0.045123</speed><course>-1.000000</course><hAcc>0.887166</hAcc><vAcc>0.698860</vAcc></extensions></trkpt>
      <trkpt lon="-3.155574" lat="53.000661"><ele>422.602112</ele><time>2021-09-01T11:34:58Z</time><extensions><speed>0.045591</speed><course>53.307610</course><hAcc>0.885400</hAcc><vAcc>0.696698</vAcc></extensions></trkpt>
      <trkpt lon="-3.155573" lat="53.000660"><ele>422.607544</ele><time>2021-09-01T11:34:59Z</time><extensions><speed>0.046815</speed><course>-1.000000</course><hAcc>0.883970</hAcc><vAcc>0.694880</vAcc></extensions></trkpt>
      <trkpt lon="-3.155572" lat="53.000660"><ele>422.612183</ele><time>2021-09-01T11:35:00Z</time><extensions><speed>0.046809</speed><course>-1.000000</course><hAcc>0.882846</hAcc><vAcc>0.693377</vAcc></extensions></trkpt>
      <trkpt lon="-3.155572" lat="53.000660"><ele>422.615875</ele><time>2021-09-01T11:35:01Z</time><extensions><speed>0.044873</speed><course>-1.000000</course><hAcc>0.881978</hAcc><vAcc>0.692135</vAcc></extensions></trkpt>
      <trkpt lon="-3.155571" lat="53.000660"><ele>422.618591</ele><time>2021-09-01T11:35:02Z</time><extensions><speed>0.041373</speed><course>120.394302</course><hAcc>0.881316</hAcc><vAcc>0.691085</vAcc></extensions></trkpt>
      <trkpt lon="-3.155571" lat="53.000660"><ele>422.620392</ele><time>2021-09-01T11:35:03Z</time><extensions><speed>0.037463</speed><course>-1.000000</course><hAcc>0.880807</hAcc><vAcc>0.690159</vAcc></extensions></trkpt>
      <trkpt lon="-3.155571" lat="53.000659"><ele>422.621277</ele><time>2021-09-01T11:35:04Z</time><extensions><speed>0.035029</speed><course>-1.000000</course><hAcc>0.880412</hAcc><vAcc>0.689297</vAcc></extensions></trkpt>
      <trkpt lon="-3.155571" lat="53.000659"><ele>422.621277</ele><time>2021-09-01T11:35:05Z</time><extensions><speed>0.036305</speed><course>-1.000000</course><hAcc>0.880097</hAcc><vAcc>0.688467</vAcc></extensions></trkpt>
      <trkpt lon="-3.155571" lat="53.000659"><ele>422.620361</ele><time>2021-09-01T11:35:06Z</time><extensions><speed>0.042165</speed><course>-1.000000</course><hAcc>0.879844</hAcc><vAcc>0.687681</vAcc></extensions></trkpt>
      <trkpt lon="-3.155571" lat="53.000658"><ele>422.618530</ele><time>2021-09-01T11:35:07Z</time><extensions><speed>0.050873</speed><course>-1.000000</course><hAcc>0.879645</hAcc><vAcc>0.686986</vAcc></extensions></trkpt>
      <trkpt lon="-3.155572" lat="53.000658"><ele>422.615814</ele><time>2021-09-01T11:35:08Z</time><extensions><speed>0.059648</speed><course>-1.000000</course><hAcc>0.879496</hAcc><vAcc>0.686451</vAcc></extensions></trkpt>
      <trkpt lon="-3.155573" lat="53.000658"><ele>422.612183</ele><time>2021-09-01T11:35:09Z</time><extensions><speed>0.066340</speed><course>-1.000000</course><hAcc>0.879400</hAcc><vAcc>0.686140</vAcc></extensions></trkpt>
      <trkpt lon="-3.155574" lat="53.000657"><ele>422.607452</ele><time>2021-09-01T11:35:10Z</time><extensions><speed>0.070101</speed><course>-1.000000</course><hAcc>0.879353</hAcc><vAcc>0.686072</vAcc></extensions></trkpt>
      <trkpt lon="-3.155574" lat="53.000657"><ele>422.601501</ele><time>2021-09-01T11:35:11Z</time><extensions><speed>0.071142</speed><course>-1.000000</course><hAcc>0.879344</hAcc><vAcc>0.686202</vAcc></extensions></trkpt>
      <trkpt lon="-3.155575" lat="53.000657"><ele>422.594269</ele><time>2021-09-01T11:35:12Z</time><extensions><speed>0.069584</speed><course>-1.000000</course><hAcc>0.879354</hAcc><vAcc>0.686429</vAcc></extensions></trkpt>
      <trkpt lon="-3.155576" lat="53.000657"><ele>422.585938</ele><time>2021-09-01T11:35:13Z</time><extensions><speed>0.065663</speed><course>-1.000000</course><hAcc>0.879364</hAcc><vAcc>0.686633</vAcc></extensions></trkpt>
      <trkpt lon="-3.155577" lat="53.000656"><ele>422.576752</ele><time>2021-09-01T11:35:14Z</time><extensions><speed>0.059691</speed><course>-1.000000</course><hAcc>0.879357</hAcc><vAcc>0.686719</vAcc></extensions></trkpt>
      <trkpt lon="-3.155578" lat="53.000656"><ele>422.567078</ele><time>2021-09-01T11:35:15Z</time><extensions><speed>0.052168</speed><course>-1.000000</course><hAcc>0.879321</hAcc><vAcc>0.686632</vAcc></extensions></trkpt>
      <trkpt lon="-3.155579" lat="53.000656"><ele>422.557404</ele><time>2021-09-01T11:35:16Z</time><extensions><speed>0.043583</speed><course>-1.000000</course><hAcc>0.879252</hAcc><vAcc>0.686372</vAcc></extensions></trkpt>
      <trkpt lon="-3.155579" lat="53.000656"><ele>422.548218</ele><time>2021-09-01T11:35:17Z</time><extensions><speed>0.034169</speed><course>-1.000000</course><hAcc>0.879152</hAcc><vAcc>0.685978</vAcc></extensions></trkpt>
      <trkpt lon="-3.155580" lat="53.000656"><ele>422.540070</ele><time>2021-09-01T11:35:18Z</time><extensions><speed>0.024988</speed><course>-1.000000</course><hAcc>0.879029</hAcc><vAcc>0.685506</vAcc></extensions></trkpt>
      <trkpt lon="-3.155580" lat="53.000656"><ele>422.533264</ele><time>2021-09-01T11:35:19Z</time><extensions><speed>0.019651</speed><course>-1.000000</course><hAcc>0.878893</hAcc><vAcc>0.685009</vAcc></extensions></trkpt>
      <trkpt lon="-3.155580" lat="53.000656"><ele>422.528107</ele><time>2021-09-01T11:35:20Z</time><extensions><speed>0.022176</speed><course>-1.000000</course><hAcc>0.878755</hAcc><vAcc>0.684526</vAcc></extensions></trkpt>
      <trkpt lon="-3.155580" lat="53.000657"><ele>422.524780</ele><time>2021-09-01T11:35:21Z</time><extensions><speed>0.029993</speed><course>-1.000000</course><hAcc>0.878624</hAcc><vAcc>0.684067</vAcc></extensions></trkpt>
      <trkpt lon="-3.155580" lat="53.000657"><ele>422.523407</ele><time>2021-09-01T11:35:22Z</time><extensions><speed>0.038815</speed><course>116.725777</course><hAcc>0.878510</hAcc><vAcc>0.683631</vAcc></extensions></trkpt>
      <trkpt lon="-3.155580" lat="53.000657"><ele>422.524017</ele><time>2021-09-01T11:35:23Z</time><extensions><speed>0.047001</speed><course>116.725777</course><hAcc>0.878425</hAcc><vAcc>0.683244</vAcc></extensions></trkpt>
      <trkpt lon="-3.155580" lat="53.000658"><ele>422.526398</ele><time>2021-09-01T11:35:24Z</time><extensions><speed>0.054242</speed><course>116.725777</course><hAcc>0.878386</hAcc><vAcc>0.682975</vAcc></extensions></trkpt>
      <trkpt lon="-3.155580" lat="53.000658"><ele>422.530365</ele><time>2021-09-01T11:35:25Z</time><extensions><speed>0.060521</speed><course>116.725777</course><hAcc>0.878411</hAcc><vAcc>0.682910</vAcc></extensions></trkpt>
      <trkpt lon="-3.155580" lat="53.000659"><ele>422.535645</ele><time>2021-09-01T11:35:26Z</time><extensions><speed>0.065695</speed><course>116.725777</course><hAcc>0.878515</hAcc><vAcc>0.683124</vAcc></extensions></trkpt>
      <trkpt lon="-3.155580" lat="53.000659"><ele>422.541840</ele><time>2021-09-01T11:35:27Z</time><extensions><speed>0.069803</speed><course>116.725784</course><hAcc>0.878709</hAcc><vAcc>0.683676</vAcc></extensions></trkpt>
      <trkpt lon="-3.155581" lat="53.000660"><ele>422.548584</ele><time>2021-09-01T11:35:28Z</time><extensions><speed>0.073221</speed><course>116.725784</course><hAcc>0.878998</hAcc><vAcc>0.684609</vAcc></extensions></trkpt>
      <trkpt lon="-3.155581" lat="53.000661"><ele>422.555603</ele><time>2021-09-01T11:35:29Z</time><extensions><speed>0.076308</speed><course>116.725784</course><hAcc>0.879382</hAcc><vAcc>0.685944</vAcc></extensions></trkpt>
      <trkpt lon="-3.155582" lat="53.000661"><ele>422.562469</ele><time>2021-09-01T11:35:30Z</time><extensions><speed>0.079886</speed><course>116.725784</course><hAcc>0.879854</hAcc><vAcc>0.687663</vAcc></extensions></trkpt>
      <trkpt lon="-3.155583" lat="53.000662"><ele>422.568787</ele><time>2021-09-01T11:35:31Z</time><extensions><speed>0.084490</speed><course>116.725784</course><hAcc>0.880394</hAcc><vAcc>0.689702</vAcc></extensions></trkpt>
      <trkpt lon="-3.155583" lat="53.000662"><ele>422.574097</ele><time>2021-09-01T11:35:32Z</time><extensions><speed>0.090046</speed><course>116.725784</course><hAcc>0.880975</hAcc><vAcc>0.691932</vAcc></extensions></trkpt>
      <trkpt lon="-3.155585" lat="53.000663"><ele>422.578064</ele><time>2021-09-01T11:35:33Z</time><extensions><speed>0.096501</speed><course>116.725784</course><hAcc>0.881561</hAcc><vAcc>0.694178</vAcc></extensions></trkpt>
      <trkpt lon="-3.155586" lat="53.000663"><ele>422.580444</ele><time>2021-09-01T11:35:34Z</time><extensions><speed>0.103495</speed><course>116.725784</course><hAcc>0.882117</hAcc><vAcc>0.696266</vAcc></extensions></trkpt>
      <trkpt lon="-3.155587" lat="53.000664"><ele>422.581085</ele><time>2021-09-01T11:35:35Z</time><extensions><speed>0.110381</speed><course>116.725784</course><hAcc>0.882611</hAcc><vAcc>0.698049</vAcc></extensions></trkpt>
      <trkpt lon="-3.155589" lat="53.000664"><ele>422.579865</ele><time>2021-09-01T11:35:36Z</time><extensions><speed>0.116247</speed><course>116.725784</course><hAcc>0.883020</hAcc><vAcc>0.699429</vAcc></extensions></trkpt>
      <trkpt lon="-3.155591" lat="53.000664"><ele>422.576904</ele><time>2021-09-01T11:35:37Z</time><extensions><speed>0.119930</speed><course>116.725784</course><hAcc>0.883331</hAcc><vAcc>0.700353</vAcc></extensions></trkpt>
      <trkpt lon="-3.155592" lat="53.000664"><ele>422.572266</ele><time>2021-09-01T11:35:38Z</time><extensions><speed>0.120889</speed><course>116.725784</course><hAcc>0.883542</hAcc><vAcc>0.700821</vAcc></extensions></trkpt>
      <trkpt lon="-3.155594" lat="53.000665"><ele>422.566162</ele><time>2021-09-01T11:35:39Z</time><extensions><speed>0.119498</speed><course>116.725784</course><hAcc>0.883661</hAcc><vAcc>0.700877</vAcc></extensions></trkpt>
      <trkpt lon="-3.155596" lat="53.000665"><ele>422.558929</ele><time>2021-09-01T11:35:40Z</time><extensions><speed>0.116257</speed><course>116.725784</course><hAcc>0.883706</hAcc><vAcc>0.700617</vAcc></extensions></trkpt>
      <trkpt lon="-3.155598" lat="53.000665"><ele>422.550873</ele><time>2021-09-01T11:35:41Z</time><extensions><speed>0.111807</speed><course>116.725784</course><hAcc>0.883701</hAcc><vAcc>0.700172</vAcc></extensions></trkpt>
      <trkpt lon="-3.155599" lat="53.000665"><ele>422.542419</ele><time>2021-09-01T11:35:42Z</time><extensions><speed>0.106814</speed><course>116.725784</course><hAcc>0.883675</hAcc><vAcc>0.699691</vAcc></extensions></trkpt>
      <trkpt lon="-3.155601" lat="53.000665"><ele>422.533997</ele><time>2021-09-01T11:35:43Z</time><extensions><speed>0.101753</speed><course>116.725784</course><hAcc>0.883660</hAcc><vAcc>0.699319</vAcc></extensions></trkpt>
      <trkpt lon="-3.155602" lat="53.000665"><ele>422.525909</ele><time>2021-09-01T11:35:44Z</time><extensions><speed>0.096437</speed><course>116.725777</course><hAcc>0.883683</hAcc><vAcc>0.699177</vAcc></extensions></trkpt>
      <trkpt lon="-3.155604" lat="53.000665"><ele>422.518250</ele><time>2021-09-01T11:35:45Z</time><extensions><speed>0.090367</speed><course>116.725769</course><hAcc>0.883770</hAcc><vAcc>0.699345</vAcc></extensions></trkpt>
      <trkpt lon="-3.155605" lat="53.000665"><ele>422.511139</ele><time>2021-09-01T11:35:46Z</time><extensions><speed>0.083410</speed><course>116.725769</course><hAcc>0.883941</hAcc><vAcc>0.699859</vAcc></extensions></trkpt>
      <trkpt lon="-3.155606" lat="53.000665"><ele>422.504608</ele><time>2021-09-01T11:35:47Z</time><extensions><speed>0.075391</speed><course>116.725761</course><hAcc>0.884211</hAcc><vAcc>0.700714</vAcc></extensions></trkpt>
      <trkpt lon="-3.155607" lat="53.000665"><ele>422.498566</ele><time>2021-09-01T11:35:48Z</time><extensions><speed>0.066508</speed><course>116.725754</course><hAcc>0.884593</hAcc><vAcc>0.701874</vAcc></extensions></trkpt>
      <trkpt lon="-3.155608" lat="53.000665"><ele>422.492859</ele><time>2021-09-01T11:35:49Z</time><extensions><speed>0.057389</speed><course>116.725746</course><hAcc>0.885101</hAcc><vAcc>0.703299</vAcc></extensions></trkpt>
      <trkpt lon="-3.155609" lat="53.000665"><ele>422.487488</ele><time>2021-09-01T11:35:50Z</time><extensions><speed>0.048406</speed><course>116.725746</course><hAcc>0.885754</hAcc><vAcc>0.704956</vAcc></extensions></trkpt>
      <trkpt lon="-3.155609" lat="53.000665"><ele>422.482483</ele><time>2021-09-01T11:35:51Z</time><extensions><speed>0.039803</speed><course>116.725731</course><hAcc>0.886572</hAcc><vAcc>0.706812</vAcc></extensions></trkpt>
      <trkpt lon="-3.155610" lat="53.000665"><ele>422.477905</ele><time>2021-09-01T11:35:52Z</time><extensions><speed>0.031847</speed><course>116.725723</course><hAcc>0.887581</hAcc><vAcc>0.708831</vAcc></extensions></trkpt>
      <trkpt lon="-3.155610" lat="53.000665"><ele>422.473785</ele><time>2021-09-01T11:35:53Z</time><extensions><speed>0.024708</speed><course>116.725723</course><hAcc>0.888809</hAcc><vAcc>0.710985</vAcc></extensions></trkpt>
      <trkpt lon="-3.155611" lat="53.000665"><ele>422.470123</ele><time>2021-09-01T11:35:54Z</time><extensions><speed>0.018477</speed><course>116.725708</course><hAcc>0.890280</hAcc><vAcc>0.713254</vAcc></extensions></trkpt>
      <trkpt lon="-3.155611" lat="53.000665"><ele>422.466949</ele><time>2021-09-01T11:35:55Z</time><extensions><speed>0.013185</speed><course>116.725700</course><hAcc>0.892010</hAcc><vAcc>0.715619</vAcc></extensions></trkpt>
      <trkpt lon="-3.155611" lat="53.000665"><ele>422.464203</ele><time>2021-09-01T11:35:56Z</time><extensions><speed>0.008819</speed><course>116.725693</course><hAcc>0.893993</hAcc><vAcc>0.718048</vAcc></extensions></trkpt>
      <trkpt lon="-3.155611" lat="53.000665"><ele>422.461945</ele><time>2021-09-01T11:35:57Z</time><extensions><speed>0.005359</speed><course>116.725685</course><hAcc>0.896192</hAcc><vAcc>0.720476</vAcc></extensions></trkpt>
      <trkpt lon="-3.155611" lat="53.000665"><ele>422.460052</ele><time>2021-09-01T11:35:58Z</time><extensions><speed>0.002848</speed><course>116.725670</course><hAcc>0.898527</hAcc><vAcc>0.722809</vAcc></extensions></trkpt>
      <trkpt lon="-3.155611" lat="53.000665"><ele>422.458527</ele><time>2021-09-01T11:35:59Z</time><extensions><speed>0.001721</speed><course>116.725670</course><hAcc>0.900868</hAcc><vAcc>0.724917</vAcc></extensions></trkpt>
      <trkpt lon="-3.155611" lat="53.000665"><ele>422.457367</ele><time>2021-09-01T11:36:00Z</time><extensions><speed>0.002208</speed><course>116.725662</course><hAcc>0.903040</hAcc><vAcc>0.726655</vAcc></extensions></trkpt>
      <trkpt lon="-3.155611" lat="53.000665"><ele>422.456451</ele><time>2021-09-01T11:36:01Z</time><extensions><speed>0.002985</speed><course>316.510925</course><hAcc>0.904844</hAcc><vAcc>0.727894</vAcc></extensions></trkpt>
      <trkpt lon="-3.155611" lat="53.000665"><ele>422.455811</ele><time>2021-09-01T11:36:02Z</time><extensions><speed>0.003545</speed><course>325.771881</course><hAcc>0.906110</hAcc><vAcc>0.728592</vAcc></extensions></trkpt>
      <trkpt lon="-3.155611" lat="53.000665"><ele>422.455414</ele><time>2021-09-01T11:36:03Z</time><extensions><speed>0.003853</speed><course>329.412018</course><hAcc>0.906800</hAcc><vAcc>0.728889</vAcc></extensions></trkpt>
      <trkpt lon="-3.155611" lat="53.000665"><ele>422.455170</ele><time>2021-09-01T11:36:04Z</time><extensions><speed>0.003958</speed><course>328.807678</course><hAcc>0.907172</hAcc><vAcc>0.729257</vAcc></extensions></trkpt>
      <trkpt lon="-3.155611" lat="53.000665"><ele>422.455078</ele><time>2021-09-01T11:36:05Z</time><extensions><speed>0.003914</speed><course>328.238739</course><hAcc>0.908042</hAcc><vAcc>0.730700</vAcc></extensions></trkpt>
      <trkpt lon="-3.155611" lat="53.000665"><ele>422.455078</ele><time>2021-09-01T11:36:06Z</time><extensions><speed>0.003773</speed><course>328.754333</course><hAcc>0.911137</hAcc><vAcc>0.734987</vAcc></extensions></trkpt>
      <trkpt lon="-3.155611" lat="53.000665"><ele>422.455200</ele><time>2021-09-01T11:36:07Z</time><extensions><speed>0.003581</speed><course>321.291412</course><hAcc>0.919535</hAcc><vAcc>0.744888</vAcc></extensions></trkpt>
      <trkpt lon="-3.155611" lat="53.000665"><ele>422.455383</ele><time>2021-09-01T11:36:08Z</time><extensions><speed>0.003373</speed><course>315.163422</course><hAcc>0.938072</hAcc><vAcc>0.764305</vAcc></extensions></trkpt>
      <trkpt lon="-3.155611" lat="53.000665"><ele>422.455627</ele><time>2021-09-01T11:36:09Z</time><extensions><speed>0.003177</speed><course>320.356079</course><hAcc>0.973467</hAcc><vAcc>0.798129</vAcc></extensions></trkpt>
      <trkpt lon="-3.155611" lat="53.000665"><ele>422.458557</ele><time>2021-09-01T11:36:10Z</time><extensions><speed>0.000000</speed><course>-1.000000</course><hAcc>0.935983</hAcc><vAcc>0.764062</vAcc></extensions></trkpt>
      <trkpt lon="-3.155611" lat="53.000665"><ele>422.458557</ele><time>2021-09-01T11:36:11Z</time><extensions><speed>0.000000</speed><course>-1.000000</course><hAcc>0.917098</hAcc><vAcc>0.744097</vAcc></extensions></trkpt>
      <trkpt lon="-3.155611" lat="53.000665"><ele>422.458557</ele><time>2021-09-01T11:36:12Z</time><extensions><speed>0.000000</speed><course>-1.000000</course><hAcc>0.909731</hAcc><vAcc>0.734920</vAcc></extensions></trkpt>
      <trkpt lon="-3.155611" lat="53.000665"><ele>422.458557</ele><time>2021-09-01T11:36:13Z</time><extensions><speed>0.000000</speed><course>-1.000000</course><hAcc>0.908390</hAcc><vAcc>0.732192</vAcc></extensions></trkpt>
      <trkpt lon="-3.155611" lat="53.000665"><ele>422.458557</ele><time>2021-09-01T11:36:14Z</time><extensions><speed>0.000000</speed><course>-1.000000</course><hAcc>0.909597</hAcc><vAcc>0.732814</vAcc></extensions></trkpt>
      <trkpt lon="-3.155611" lat="53.000665"><ele>422.458557</ele><time>2021-09-01T11:36:15Z</time><extensions><speed>0.000000</speed><course>-1.000000</course><hAcc>0.911426</hAcc><vAcc>0.734801</vAcc></extensions></trkpt>
      <trkpt lon="-3.155611" lat="53.000665"><ele>422.458557</ele><time>2021-09-01T11:36:16Z</time><extensions><speed>0.000000</speed><course>-1.000000</course><hAcc>0.912990</hAcc><vAcc>0.737012</vAcc></extensions></trkpt>
      <trkpt lon="-3.155611" lat="53.000665"><ele>422.458557</ele><time>2021-09-01T11:36:17Z</time><extensions><speed>0.000000</speed><course>-1.000000</course><hAcc>0.914019</hAcc><vAcc>0.738876</vAcc></extensions></trkpt>
      <trkpt lon="-3.155611" lat="53.000665"><ele>422.458557</ele><time>2021-09-01T11:36:18Z</time><extensions><speed>0.000000</speed><course>-1.000000</course><hAcc>0.914547</hAcc><vAcc>0.740162</vAcc></extensions></trkpt>
      <trkpt lon="-3.155611" lat="53.000665"><ele>422.458557</ele><time>2021-09-01T11:36:19Z</time><extensions><speed>0.000000</speed><course>184.559082</course><hAcc>0.914710</hAcc><vAcc>0.740807</vAcc></extensions></trkpt>
      <trkpt lon="-3.155611" lat="53.000665"><ele>422.458557</ele><time>2021-09-01T11:36:20Z</time><extensions><speed>0.000000</speed><course>-1.000000</course><hAcc>0.914619</hAcc><vAcc>0.740809</vAcc></extensions></trkpt>
      <trkpt lon="-3.155611" lat="53.000665"><ele>422.458557</ele><time>2021-09-01T11:36:21Z</time><extensions><speed>0.000000</speed><course>-1.000000</course><hAcc>0.914309</hAcc><vAcc>0.740167</vAcc></extensions></trkpt>
      <trkpt lon="-3.155611" lat="53.000665"><ele>422.458557</ele><time>2021-09-01T11:36:22Z</time><extensions><speed>0.000000</speed><course>-1.000000</course><hAcc>0.913728</hAcc><vAcc>0.738876</vAcc></extensions></trkpt>
      <trkpt lon="-3.155611" lat="53.000665"><ele>422.458557</ele><time>2021-09-01T11:36:23Z</time><extensions><speed>0.000000</speed><course>-1.000000</course><hAcc>0.912791</hAcc><vAcc>0.736973</vAcc></extensions></trkpt>
      <trkpt lon="-3.155611" lat="53.000665"><ele>422.458557</ele><time>2021-09-01T11:36:24Z</time><extensions><speed>0.000000</speed><course>53.307610</course><hAcc>0.911487</hAcc><vAcc>0.734625</vAcc></extensions></trkpt>
      <trkpt lon="-3.155611" lat="53.000665"><ele>422.458557</ele><time>2021-09-01T11:36:25Z</time><extensions><speed>0.000000</speed><course>-1.000000</course><hAcc>0.910059</hAcc><vAcc>0.732287</vAcc></extensions></trkpt>
      <trkpt lon="-3.155611" lat="53.000665"><ele>422.458557</ele><time>2021-09-01T11:36:26Z</time><extensions><speed>0.000000</speed><course>-1.000000</course><hAcc>0.909276</hAcc><vAcc>0.730902</vAcc></extensions></trkpt>
      <trkpt lon="-3.155611" lat="53.000665"><ele>422.458557</ele><time>2021-09-01T11:36:27Z</time><extensions><speed>0.000000</speed><course>-1.000000</course><hAcc>0.910811</hAcc><vAcc>0.732167</vAcc></extensions></trkpt>
      <trkpt lon="-3.155611" lat="53.000665"><ele>422.458557</ele><time>2021-09-01T11:36:28Z</time><extensions><speed>0.000000</speed><course>120.394302</course><hAcc>0.917692</hAcc><vAcc>0.738788</vAcc></extensions></trkpt>
      <trkpt lon="-3.155611" lat="53.000665"><ele>422.458557</ele><time>2021-09-01T11:36:29Z</time><extensions><speed>0.000000</speed><course>-1.000000</course><hAcc>0.934734</hAcc><vAcc>0.754651</vAcc></extensions></trkpt>
      <trkpt lon="-3.155611" lat="53.000665"><ele>422.458557</ele><time>2021-09-01T11:36:30Z</time><extensions><speed>0.000000</speed><course>-1.000000</course><hAcc>0.968683</hAcc><vAcc>0.784719</vAcc></extensions></trkpt>
      <trkpt lon="-3.155611" lat="53.000665"><ele>422.458557</ele><time>2021-09-01T11:36:31Z</time><extensions><speed>0.000000</speed><course>-1.000000</course><hAcc>0.931675</hAcc><vAcc>0.751459</vAcc></extensions></trkpt>
      <trkpt lon="-3.155611" lat="53.000665"><ele>422.458557</ele><time>2021-09-01T11:36:32Z</time><extensions><speed>0.000000</speed><course>-1.000000</course><hAcc>0.912436</hAcc><vAcc>0.729961</vAcc></extensions></trkpt>
      <trkpt lon="-3.155611" lat="53.000665"><ele>422.458557</ele><time>2021-09-01T11:36:33Z</time><extensions><speed>0.000000</speed><course>-1.000000</course><hAcc>0.904710</hAcc><vAcc>0.719271</vAcc></extensions></trkpt>
      <trkpt lon="-3.155611" lat="53.000665"><ele>422.458557</ele><time>2021-09-01T11:36:34Z</time><extensions><speed>0.000000</speed><course>-1.000000</course><hAcc>0.903014</hAcc><vAcc>0.715113</vAcc></extensions></trkpt>
      <trkpt lon="-3.155611" lat="53.000665"><ele>422.458557</ele><time>2021-09-01T11:36:35Z</time><extensions><speed>0.000000</speed><course>-1.000000</course><hAcc>0.903881</hAcc><vAcc>0.714453</vAcc></extensions></trkpt>
      <trkpt lon="-3.155611" lat="53.000665"><ele>422.458557</ele><time>2021-09-01T11:36:36Z</time><extensions><speed>0.000000</speed><course>-1.000000</course><hAcc>0.905407</hAcc><vAcc>0.715380</vAcc></extensions></trkpt>
      <trkpt lon="-3.155611" lat="53.000665"><ele>422.458557</ele><time>2021-09-01T11:36:37Z</time><extensions><speed>0.000000</speed><course>-1.000000</course><hAcc>0.906732</hAcc><vAcc>0.716828</vAcc></extensions></trkpt>
      <trkpt lon="-3.155611" lat="53.000665"><ele>422.458557</ele><time>2021-09-01T11:36:38Z</time><extensions><speed>0.000000</speed><course>-1.000000</course><hAcc>0.907611</hAcc><vAcc>0.718288</vAcc></extensions></trkpt>
      <trkpt lon="-3.155611" lat="53.000665"><ele>422.458557</ele><time>2021-09-01T11:36:39Z</time><extensions><speed>0.000000</speed><course>-1.000000</course><hAcc>0.908101</hAcc><vAcc>0.719568</vAcc></extensions></trkpt>
      <trkpt lon="-3.155611" lat="53.000665"><ele>422.458557</ele><time>2021-09-01T11:36:40Z</time><extensions><speed>0.000000</speed><course>184.559082</course><hAcc>0.908353</hAcc><vAcc>0.720627</vAcc></extensions></trkpt>
      <trkpt lon="-3.155611" lat="53.000665"><ele>422.458557</ele><time>2021-09-01T11:36:41Z</time><extensions><speed>0.000000</speed><course>-1.000000</course><hAcc>0.908489</hAcc><vAcc>0.721456</vAcc></extensions></trkpt>
      <trkpt lon="-3.155611" lat="53.000665"><ele>422.458557</ele><time>2021-09-01T11:36:42Z</time><extensions><speed>0.000000</speed><course>-1.000000</course><hAcc>0.908544</hAcc><vAcc>0.722032</vAcc></extensions></trkpt>
      <trkpt lon="-3.155611" lat="53.000665"><ele>422.458557</ele><time>2021-09-01T11:36:43Z</time><extensions><speed>0.000000</speed><course>-1.000000</course><hAcc>0.908464</hAcc><vAcc>0.722326</vAcc></extensions></trkpt>
      <trkpt lon="-3.155611" lat="53.000665"><ele>422.458557</ele><time>2021-09-01T11:36:44Z</time><extensions><speed>0.000000</speed><course>-1.000000</course><hAcc>0.908160</hAcc><vAcc>0.722361</vAcc></extensions></trkpt>
      <trkpt lon="-3.155611" lat="53.000665"><ele>422.458557</ele><time>2021-09-01T11:36:45Z</time><extensions><speed>0.000000</speed><course>53.307610</course><hAcc>0.907622</hAcc><vAcc>0.722316</vAcc></extensions></trkpt>
      <trkpt lon="-3.155611" lat="53.000665"><ele>422.458557</ele><time>2021-09-01T11:36:46Z</time><extensions><speed>0.000000</speed><course>-1.000000</course><hAcc>0.907098</hAcc><vAcc>0.722674</vAcc></extensions></trkpt>
      <trkpt lon="-3.155611" lat="53.000665"><ele>422.458557</ele><time>2021-09-01T11:36:47Z</time><extensions><speed>0.000000</speed><course>-1.000000</course><hAcc>0.907371</hAcc><vAcc>0.724423</vAcc></extensions></trkpt>
      <trkpt lon="-3.155611" lat="53.000665"><ele>422.458557</ele><time>2021-09-01T11:36:48Z</time><extensions><speed>0.000000</speed><course>-1.000000</course><hAcc>0.910127</hAcc><vAcc>0.729296</vAcc></extensions></trkpt>
      <trkpt lon="-3.155611" lat="53.000665"><ele>422.458557</ele><time>2021-09-01T11:36:49Z</time><extensions><speed>0.000000</speed><course>120.394302</course><hAcc>0.918402</hAcc><vAcc>0.740015</vAcc></extensions></trkpt>
      <trkpt lon="-3.155611" lat="53.000665"><ele>422.458557</ele><time>2021-09-01T11:36:50Z</time><extensions><speed>0.000000</speed><course>-1.000000</course><hAcc>0.936991</hAcc><vAcc>0.760418</vAcc></extensions></trkpt>
      <trkpt lon="-3.155611" lat="53.000665"><ele>422.458557</ele><time>2021-09-01T11:36:51Z</time><extensions><speed>0.000000</speed><course>-1.000000</course><hAcc>0.972573</hAcc><vAcc>0.795320</vAcc></extensions></trkpt>
      <trkpt lon="-3.155611" lat="53.000665"><ele>422.458557</ele><time>2021-09-01T11:36:52Z</time><extensions><speed>0.000000</speed><course>-1.000000</course><hAcc>0.934660</hAcc><vAcc>0.760765</vAcc></extensions></trkpt>
      <trkpt lon="-3.155611" lat="53.000665"><ele>422.458557</ele><time>2021-09-01T11:36:53Z</time><extensions><speed>0.000000</speed><course>-1.000000</course><hAcc>0.916303</hAcc><vAcc>0.742286</vAcc></extensions></trkpt>
      <trkpt lon="-3.155611" lat="53.000665"><ele>422.458557</ele><time>2021-09-01T11:36:54Z</time><extensions><speed>0.000000</speed><course>-1.000000</course><hAcc>0.909378</hAcc><vAcc>0.734302</vAcc></extensions></trkpt>
      <trkpt lon="-3.155611" lat="53.000665"><ele>422.458557</ele><time>2021-09-01T11:36:55Z</time><extensions><speed>0.000000</speed><course>-1.000000</course><hAcc>0.908393</hAcc><vAcc>0.732497</vAcc></extensions></trkpt>
      <trkpt lon="-3.155611" lat="53.000665"><ele>422.458557</ele><time>2021-09-01T11:36:56Z</time><extensions><speed>0.000000</speed><course>-1.000000</course><hAcc>0.909879</hAcc><vAcc>0.733824</vAcc></extensions></trkpt>
      <trkpt lon="-3.155611" lat="53.000665"><ele>422.458557</ele><time>2021-09-01T11:36:57Z</time><extensions><speed>0.000000</speed><course>-1.000000</course><hAcc>0.911926</hAcc><vAcc>0.736358</vAcc></extensions></trkpt>
      <trkpt lon="-3.155611" lat="53.000665"><ele>422.458557</ele><time>2021-09-01T11:36:58Z</time><extensions><speed>0.000000</speed><course>-1.000000</course><hAcc>0.913666</hAcc><vAcc>0.739013</vAcc></extensions></trkpt>
      <trkpt lon="-3.155611" lat="53.000665"><ele>422.458557</ele><time>2021-09-01T11:36:59Z</time><extensions><speed>0.000000</speed><course>-1.000000</course><hAcc>0.914844</hAcc><vAcc>0.741267</vAcc></extensions></trkpt>
      <trkpt lon="-3.155611" lat="53.000665"><ele>422.458557</ele><time>2021-09-01T11:37:00Z</time><extensions><speed>0.000000</speed><course>-1.000000</course><hAcc>0.915506</hAcc><vAcc>0.742926</vAcc></extensions></trkpt>
      <trkpt lon="-3.155611" lat="53.000665"><ele>422.458557</ele><time>2021-09-01T11:37:01Z</time><extensions><speed>0.000000</speed><course>184.559082</course><hAcc>0.915800</hAcc><vAcc>0.743964</vAcc></extensions></trkpt>
      <trkpt lon="-3.155611" lat="53.000665"><ele>422.458557</ele><time>2021-09-01T11:37:02Z</time><extensions><speed>0.000000</speed><course>-1.000000</course><hAcc>0.915849</hAcc><vAcc>0.744408</vAcc></extensions></trkpt>
      <trkpt lon="-3.155611" lat="53.000665"><ele>422.458557</ele><time>2021-09-01T11:37:03Z</time><extensions><speed>0.000000</speed><course>-1.000000</course><hAcc>0.915698</hAcc><vAcc>0.744289</vAcc></extensions></trkpt>
      <trkpt lon="-3.155611" lat="53.000665"><ele>422.458557</ele><time>2021-09-01T11:37:04Z</time><extensions><speed>0.000000</speed><course>-1.000000</course><hAcc>0.915310</hAcc><vAcc>0.743637</vAcc></extensions></trkpt>
      <trkpt lon="-3.155611" lat="53.000665"><ele>422.458557</ele><time>2021-09-01T11:37:05Z</time><extensions><speed>0.000000</speed><course>-1.000000</course><hAcc>0.914618</hAcc><vAcc>0.742532</vAcc></extensions></trkpt>
      <trkpt lon="-3.155611" lat="53.000665"><ele>422.458557</ele><time>2021-09-01T11:37:06Z</time><extensions><speed>0.000000</speed><course>53.307610</course><hAcc>0.913634</hAcc><vAcc>0.741190</vAcc></extensions></trkpt>
      <trkpt lon="-3.155611" lat="53.000665"><ele>422.458557</ele><time>2021-09-01T11:37:07Z</time><extensions><speed>0.000000</speed><course>-1.000000</course><hAcc>0.912629</hAcc><vAcc>0.740120</vAcc></extensions></trkpt>
      <trkpt lon="-3.155611" lat="53.000665"><ele>422.458557</ele><time>2021-09-01T11:37:08Z</time><extensions><speed>0.000000</speed><course>-1.000000</course><hAcc>0.912404</hAcc><vAcc>0.740322</vAcc></extensions></trkpt>
      <trkpt lon="-3.155611" lat="53.000665"><ele>422.458557</ele><time>2021-09-01T11:37:09Z</time><extensions><speed>0.000000</speed><course>-1.000000</course><hAcc>0.914660</hAcc><vAcc>0.743546</vAcc></extensions></trkpt>
      <trkpt lon="-3.155611" lat="53.000665"><ele>422.458557</ele><time>2021-09-01T11:37:10Z</time><extensions><speed>0.000000</speed><course>120.394302</course><hAcc>0.922442</hAcc><vAcc>0.752529</vAcc></extensions></trkpt>
      <trkpt lon="-3.155611" lat="53.000665"><ele>422.458557</ele><time>2021-09-01T11:37:11Z</time><extensions><speed>0.000000</speed><course>-1.000000</course><hAcc>0.940550</hAcc><vAcc>0.771147</vAcc></extensions></trkpt>
      <trkpt lon="-3.155611" lat="53.000665"><ele>422.458557</ele><time>2021-09-01T11:37:12Z</time><extensions><speed>0.000000</speed><course>-1.000000</course><hAcc>0.975665</hAcc><vAcc>0.804279</vAcc></extensions></trkpt>
      <trkpt lon="-3.155611" lat="53.000665"><ele>422.458557</ele><time>2021-09-01T11:37:13Z</time><extensions><speed>0.000000</speed><course>-1.000000</course><hAcc>0.938422</hAcc><vAcc>0.770667</vAcc></extensions></trkpt>
      <trkpt lon="-3.155611" lat="53.000665"><ele>422.458557</ele><time>2021-09-01T11:37:14Z</time><extensions><speed>0.000000</speed><course>-1.000000</course><hAcc>0.919042</hAcc><vAcc>0.749309</vAcc></extensions></trkpt>
      <trkpt lon="-3.155611" lat="53.000665"><ele>422.458557</ele><time>2021-09-01T11:37:15Z</time><extensions><speed>0.000000</speed><course>-1.000000</course><hAcc>0.911266</hAcc><vAcc>0.739027</vAcc></extensions></trkpt>
      <trkpt lon="-3.155611" lat="53.000665"><ele>422.458557</ele><time>2021-09-01T11:37:16Z</time><extensions><speed>0.000000</speed><course>-1.000000</course><hAcc>0.909615</hAcc><vAcc>0.735496</vAcc></extensions></trkpt>
      <trkpt lon="-3.155611" lat="53.000665"><ele>422.458557</ele><time>2021-09-01T11:37:17Z</time><extensions><speed>0.000000</speed><course>-1.000000</course><hAcc>0.910601</hAcc><vAcc>0.735584</vAcc></extensions></trkpt>
      <trkpt lon="-3.155611" lat="53.000665"><ele>422.458557</ele><time>2021-09-01T11:37:18Z</time><extensions><speed>0.000000</speed><course>-1.000000</course><hAcc>0.912282</hAcc><vAcc>0.737247</vAcc></extensions></trkpt>
      <trkpt lon="-3.155611" lat="53.000665"><ele>422.458557</ele><time>2021-09-01T11:37:19Z</time><extensions><speed>0.000000</speed><course>-1.000000</course><hAcc>0.913754</hAcc><vAcc>0.739284</vAcc></extensions></trkpt>
      <trkpt lon="-3.155611" lat="53.000665"><ele>422.458557</ele><time>2021-09-01T11:37:20Z</time><extensions><speed>0.000000</speed><course>-1.000000</course><hAcc>0.914732</hAcc><vAcc>0.741067</vAcc></extensions></trkpt>
      <trkpt lon="-3.155611" lat="53.000665"><ele>422.458557</ele><time>2021-09-01T11:37:21Z</time><extensions><speed>0.000000</speed><course>-1.000000</course><hAcc>0.915236</hAcc><vAcc>0.742322</vAcc></extensions></trkpt>
      <trkpt lon="-3.155611" lat="53.000665"><ele>422.458557</ele><time>2021-09-01T11:37:22Z</time><extensions><speed>0.000000</speed><course>184.559082</course><hAcc>0.915394</hAcc><vAcc>0.742960</vAcc></extensions></trkpt>
      <trkpt lon="-3.155611" lat="53.000665"><ele>422.458557</ele><time>2021-09-01T11:37:23Z</time><extensions><speed>0.000000</speed><course>-1.000000</course><hAcc>0.915316</hAcc><vAcc>0.742969</vAcc></extensions></trkpt>
      <trkpt lon="-3.155611" lat="53.000665"><ele>422.458557</ele><time>2021-09-01T11:37:24Z</time><extensions><speed>0.000000</speed><course>-1.000000</course><hAcc>0.915040</hAcc><vAcc>0.742363</vAcc></extensions></trkpt>
      <trkpt lon="-3.155611" lat="53.000665"><ele>422.458557</ele><time>2021-09-01T11:37:25Z</time><extensions><speed>0.000000</speed><course>-1.000000</course><hAcc>0.914523</hAcc><vAcc>0.741171</vAcc></extensions></trkpt>
      <trkpt lon="-3.155611" lat="53.000665"><ele>422.458557</ele><time>2021-09-01T11:37:26Z</time><extensions><speed>0.000000</speed><course>-1.000000</course><hAcc>0.913694</hAcc><vAcc>0.739483</vAcc></extensions></trkpt>
      <trkpt lon="-3.155611" lat="53.000665"><ele>422.458557</ele><time>2021-09-01T11:37:27Z</time><extensions><speed>0.000000</speed><course>53.307610</course><hAcc>0.912564</hAcc><vAcc>0.737540</vAcc></extensions></trkpt>
      <trkpt lon="-3.155611" lat="53.000665"><ele>422.458557</ele><time>2021-09-01T11:37:28Z</time><extensions><speed>0.000000</speed><course>-1.000000</course><hAcc>0.911399</hAcc><vAcc>0.735875</vAcc></extensions></trkpt>
      <trkpt lon="-3.155611" lat="53.000665"><ele>422.458557</ele><time>2021-09-01T11:37:29Z</time><extensions><speed>0.000000</speed><course>-1.000000</course><hAcc>0.910999</hAcc><vAcc>0.735514</vAcc></extensions></trkpt>
      <trkpt lon="-3.155611" lat="53.000665"><ele>422.458557</ele><time>2021-09-01T11:37:30Z</time><extensions><speed>0.000000</speed><course>-1.000000</course><hAcc>0.913063</hAcc><vAcc>0.738221</vAcc></extensions></trkpt>
      <trkpt lon="-3.155611" lat="53.000665"><ele>422.458557</ele><time>2021-09-01T11:37:31Z</time><extensions><speed>0.000000</speed><course>120.394302</course><hAcc>0.920638</hAcc><vAcc>0.746747</vAcc></extensions></trkpt>
      <trkpt lon="-3.155611" lat="53.000665"><ele>422.458557</ele><time>2021-09-01T11:37:32Z</time><extensions><speed>0.000000</speed><course>-1.000000</course><hAcc>0.938533</hAcc><vAcc>0.764976</vAcc></extensions></trkpt>
      <trkpt lon="-3.155611" lat="53.000665"><ele>422.458557</ele><time>2021-09-01T11:37:33Z</time><extensions><speed>0.000000</speed><course>-1.000000</course><hAcc>0.973448</hAcc><vAcc>0.797789</vAcc></extensions></trkpt>
      <trkpt lon="-3.155611" lat="53.000665"><ele>422.458557</ele><time>2021-09-01T11:37:34Z</time><extensions><speed>0.000000</speed><course>-1.000000</course><hAcc>0.935789</hAcc><vAcc>0.763399</vAcc></extensions></trkpt>
      <trkpt lon="-3.155611" lat="53.000665"><ele>422.458557</ele><time>2021-09-01T11:37:35Z</time><extensions><speed>0.000000</speed><course>-1.000000</course><hAcc>0.916804</hAcc><vAcc>0.743053</vAcc></extensions></trkpt>
      <trkpt lon="-3.155611" lat="53.000665"><ele>422.458557</ele><time>2021-09-01T11:37:36Z</time><extensions><speed>0.000000</speed><course>-1.000000</course><hAcc>0.909348</hAcc><vAcc>0.733533</vAcc></extensions></trkpt>
      <trkpt lon="-3.155611" lat="53.000665"><ele>422.458557</ele><time>2021-09-01T11:37:37Z</time><extensions><speed>0.000000</speed><course>-1.000000</course><hAcc>0.907934</hAcc><vAcc>0.730520</vAcc></extensions></trkpt>
      <trkpt lon="-3.155611" lat="53.000665"><ele>422.458557</ele><time>2021-09-01T11:37:38Z</time><extensions><speed>0.000000</speed><course>-1.000000</course><hAcc>0.909085</hAcc><vAcc>0.730928</vAcc></extensions></trkpt>
      <trkpt lon="-3.155611" lat="53.000665"><ele>422.458557</ele><time>2021-09-01T11:37:39Z</time><extensions><speed>0.000000</speed><course>-1.000000</course><hAcc>0.910876</hAcc><vAcc>0.732779</vAcc></extensions></trkpt>
      <trkpt lon="-3.155611" lat="53.000665"><ele>422.458557</ele><time>2021-09-01T11:37:40Z</time><extensions><speed>0.000000</speed><course>-1.000000</course><hAcc>0.912423</hAcc><vAcc>0.734941</vAcc></extensions></trkpt>
      <trkpt lon="-3.155611" lat="53.000665"><ele>422.458557</ele><time>2021-09-01T11:37:41Z</time><extensions><speed>0.000000</speed><course>-1.000000</course><hAcc>0.913459</hAcc><vAcc>0.736844</vAcc></extensions></trkpt>
      <trkpt lon="-3.155611" lat="53.000665"><ele>422.458557</ele><time>2021-09-01T11:37:42Z</time><extensions><speed>0.000000</speed><course>-1.000000</course><hAcc>0.914023</hAcc><vAcc>0.738263</vAcc></extensions></trkpt>
      <trkpt lon="-3.155611" lat="53.000665"><ele>422.458557</ele><time>2021-09-01T11:37:43Z</time><extensions><speed>0.000000</speed><course>184.559082</course><hAcc>0.914254</hAcc><vAcc>0.739142</vAcc></extensions></trkpt>
      <trkpt lon="-3.155611" lat="53.000665"><ele>422.458557</ele><time>2021-09-01T11:37:44Z</time><extensions><speed>0.000000</speed><course>-1.000000</course><hAcc>0.914274</hAcc><vAcc>0.739496</vAcc></extensions></trkpt>
      <trkpt lon="-3.155611" lat="53.000665"><ele>422.458557</ele><time>2021-09-01T11:37:45Z</time><extensions><speed>0.000000</speed><course>-1.000000</course><hAcc>0.914127</hAcc><vAcc>0.739349</vAcc></extensions></trkpt>
      <trkpt lon="-3.155611" lat="53.000665"><ele>422.458557</ele><time>2021-09-01T11:37:46Z</time><extensions><speed>0.000000</speed><course>-1.000000</course><hAcc>0.913777</hAcc><vAcc>0.738740</vAcc></extensions></trkpt>
      <trkpt lon="-3.155611" lat="53.000665"><ele>422.458557</ele><time>2021-09-01T11:37:47Z</time><extensions><speed>0.000000</speed><course>-1.000000</course><hAcc>0.913158</hAcc><vAcc>0.737761</vAcc></extensions></trkpt>
      <trkpt lon="-3.155611" lat="53.000665"><ele>422.458557</ele><time>2021-09-01T11:37:48Z</time><extensions><speed>0.000000</speed><course>53.307610</course><hAcc>0.912286</hAcc><vAcc>0.736657</vAcc></extensions></trkpt>
      <trkpt lon="-3.155611" lat="53.000665"><ele>422.458557</ele><time>2021-09-01T11:37:49Z</time><extensions><speed>0.000000</speed><course>-1.000000</course><hAcc>0.911439</hAcc><vAcc>0.735968</vAcc></extensions></trkpt>
      <trkpt lon="-3.155611" lat="53.000665"><ele>422.458557</ele><time>2021-09-01T11:37:50Z</time><extensions><speed>0.000000</speed><course>-1.000000</course><hAcc>0.911425</hAcc><vAcc>0.736735</vAcc></extensions></trkpt>
      <trkpt lon="-3.155611" lat="53.000665"><ele>422.458557</ele><time>2021-09-01T11:37:51Z</time><extensions><speed>0.000000</speed><course>-1.000000</course><hAcc>0.913953</hAcc><vAcc>0.740741</vAcc></extensions></trkpt>
      <trkpt lon="-3.155611" lat="53.000665"><ele>422.458557</ele><time>2021-09-01T11:37:52Z</time><extensions><speed>0.000000</speed><course>120.394302</course><hAcc>0.922076</hAcc><vAcc>0.750758</vAcc></extensions></trkpt>
      <trkpt lon="-3.155611" lat="53.000665"><ele>422.458557</ele><time>2021-09-01T11:37:53Z</time><extensions><speed>0.000000</speed><course>-1.000000</course><hAcc>0.940590</hAcc><vAcc>0.770663</vAcc></extensions></trkpt>
      <trkpt lon="-3.155611" lat="53.000665"><ele>422.458557</ele><time>2021-09-01T11:37:54Z</time><extensions><speed>0.000000</speed><course>-1.000000</course><hAcc>0.976161</hAcc><vAcc>0.805293</vAcc></extensions></trkpt>
      <trkpt lon="-3.155611" lat="53.000665"><ele>422.458557</ele><time>2021-09-01T11:37:55Z</time><extensions><speed>0.000000</speed><course>-1.000000</course><hAcc>0.938133</hAcc><vAcc>0.770240</vAcc></extensions></trkpt>
      <trkpt lon="-3.155611" lat="53.000665"><ele>422.458557</ele><time>2021-09-01T11:37:56Z</time><extensions><speed>0.000000</speed><course>-1.000000</course><hAcc>0.919164</hAcc><vAcc>0.750200</vAcc></extensions></trkpt>
      <trkpt lon="-3.155611" lat="53.000665"><ele>422.458557</ele><time>2021-09-01T11:37:57Z</time><extensions><speed>0.000000</speed><course>-1.000000</course><hAcc>0.911740</hAcc><vAcc>0.741002</vAcc></extensions></trkpt>
      <trkpt lon="-3.155611" lat="53.000665"><ele>422.458557</ele><time>2021-09-01T11:37:58Z</time><extensions><speed>0.000000</speed><course>-1.000000</course><hAcc>0.910379</hAcc><vAcc>0.738308</vAcc></extensions></trkpt>
      <trkpt lon="-3.155611" lat="53.000665"><ele>422.458557</ele><time>2021-09-01T11:37:59Z</time><extensions><speed>0.000000</speed><course>-1.000000</course><hAcc>0.911596</hAcc><vAcc>0.739009</vAcc></extensions></trkpt>
      <trkpt lon="-3.155611" lat="53.000665"><ele>422.458557</ele><time>2021-09-01T11:38:00Z</time><extensions><speed>0.000000</speed><course>-1.000000</course><hAcc>0.913460</hAcc><vAcc>0.741111</vAcc></extensions></trkpt>
      <trkpt lon="-3.155611" lat="53.000665"><ele>422.458557</ele><time>2021-09-01T11:38:01Z</time><extensions><speed>0.000000</speed><course>-1.000000</course><hAcc>0.915074</hAcc><vAcc>0.743462</vAcc></extensions></trkpt>
      <trkpt lon="-3.155611" lat="53.000665"><ele>422.458557</ele><time>2021-09-01T11:38:02Z</time><extensions><speed>0.000000</speed><course>-1.000000</course><hAcc>0.916161</hAcc><vAcc>0.745480</vAcc></extensions></trkpt>
      <trkpt lon="-3.155611" lat="53.000665"><ele>422.458557</ele><time>2021-09-01T11:38:03Z</time><extensions><speed>0.000000</speed><course>-1.000000</course><hAcc>0.916750</hAcc><vAcc>0.746924</vAcc></extensions></trkpt>
      <trkpt lon="-3.155611" lat="53.000665"><ele>422.458557</ele><time>2021-09-01T11:38:04Z</time><extensions><speed>0.000000</speed><course>184.559082</course><hAcc>0.916974</hAcc><vAcc>0.747733</vAcc></extensions></trkpt>
      <trkpt lon="-3.155611" lat="53.000665"><ele>422.458557</ele><time>2021-09-01T11:38:05Z</time><extensions><speed>0.000000</speed><course>-1.000000</course><hAcc>0.916950</hAcc><vAcc>0.747917</vAcc></extensions></trkpt>
      <trkpt lon="-3.155611" lat="53.000665"><ele>422.458557</ele><time>2021-09-01T11:38:06Z</time><extensions><speed>0.000000</speed><course>-1.000000</course><hAcc>0.916724</hAcc><vAcc>0.747508</vAcc></extensions></trkpt>
      <trkpt lon="-3.155611" lat="53.000665"><ele>422.458557</ele><time>2021-09-01T11:38:07Z</time><extensions><speed>0.000000</speed><course>-1.000000</course><hAcc>0.916263</hAcc><vAcc>0.746551</vAcc></extensions></trkpt>
      <trkpt lon="-3.155611" lat="53.000665"><ele>422.458557</ele><time>2021-09-01T11:38:08Z</time><extensions><speed>0.000000</speed><course>-1.000000</course><hAcc>0.915507</hAcc><vAcc>0.745149</vAcc></extensions></trkpt>
      <trkpt lon="-3.155611" lat="53.000665"><ele>422.458557</ele><time>2021-09-01T11:38:09Z</time><extensions><speed>0.000000</speed><course>53.307610</course><hAcc>0.914481</hAcc><vAcc>0.743561</vAcc></extensions></trkpt>
      <trkpt lon="-3.155611" lat="53.000665"><ele>422.458557</ele><time>2021-09-01T11:38:10Z</time><extensions><speed>0.000000</speed><course>-1.000000</course><hAcc>0.913470</hAcc><vAcc>0.742344</vAcc></extensions></trkpt>
      <trkpt lon="-3.155611" lat="53.000665"><ele>422.458557</ele><time>2021-09-01T11:38:11Z</time><extensions><speed>0.000000</speed><course>-1.000000</course><hAcc>0.913291</hAcc><vAcc>0.742556</vAcc></extensions></trkpt>
      <trkpt lon="-3.155611" lat="53.000665"><ele>422.458557</ele><time>2021-09-01T11:38:12Z</time><extensions><speed>0.000000</speed><course>-1.000000</course><hAcc>0.915659</hAcc><vAcc>0.746000</vAcc></extensions></trkpt>
      <trkpt lon="-3.155611" lat="53.000665"><ele>422.458557</ele><time>2021-09-01T11:38:13Z</time><extensions><speed>0.000000</speed><course>120.394302</course><hAcc>0.923629</hAcc><vAcc>0.755458</vAcc></extensions></trkpt>
      <trkpt lon="-3.155611" lat="53.000665"><ele>422.458557</ele><time>2021-09-01T11:38:14Z</time><extensions><speed>0.000000</speed><course>-1.000000</course><hAcc>0.942001</hAcc><vAcc>0.774819</vAcc></extensions></trkpt>
      <trkpt lon="-3.155611" lat="53.000665"><ele>422.458557</ele><time>2021-09-01T11:38:15Z</time><extensions><speed>0.000000</speed><course>-1.000000</course><hAcc>0.977440</hAcc><vAcc>0.808933</vAcc></extensions></trkpt>
      <trkpt lon="-3.155611" lat="53.000665"><ele>422.458557</ele><time>2021-09-01T11:38:16Z</time><extensions><speed>0.000000</speed><course>-1.000000</course><hAcc>0.939359</hAcc><vAcc>0.773577</vAcc></extensions></trkpt>
      <trkpt lon="-3.155611" lat="53.000665"><ele>422.458557</ele><time>2021-09-01T11:38:17Z</time><extensions><speed>0.000000</speed><course>-1.000000</course><hAcc>0.920040</hAcc><vAcc>0.752578</vAcc></extensions></trkpt>
      <trkpt lon="-3.155611" lat="53.000665"><ele>422.458557</ele><time>2021-09-01T11:38:18Z</time><extensions><speed>0.000000</speed><course>-1.000000</course><hAcc>0.912307</hAcc><vAcc>0.742546</vAcc></extensions></trkpt>
      <trkpt lon="-3.155611" lat="53.000665"><ele>422.458557</ele><time>2021-09-01T11:38:19Z</time><extensions><speed>0.000000</speed><course>-1.000000</course><hAcc>0.910685</hAcc><vAcc>0.739150</vAcc></extensions></trkpt>
      <trkpt lon="-3.155611" lat="53.000665"><ele>422.458557</ele><time>2021-09-01T11:38:20Z</time><extensions><speed>0.000000</speed><course>-1.000000</course><hAcc>0.911690</hAcc><vAcc>0.739271</vAcc></extensions></trkpt>
      <trkpt lon="-3.155611" lat="53.000665"><ele>422.458557</ele><time>2021-09-01T11:38:21Z</time><extensions><speed>0.000000</speed><course>-1.000000</course><hAcc>0.913381</hAcc><vAcc>0.740895</vAcc></extensions></trkpt>
      <trkpt lon="-3.155611" lat="53.000665"><ele>422.458557</ele><time>2021-09-01T11:38:22Z</time><extensions><speed>0.000000</speed><course>-1.000000</course><hAcc>0.914857</hAcc><vAcc>0.742848</vAcc></extensions></trkpt>
      <trkpt lon="-3.155611" lat="53.000665"><ele>422.458557</ele><time>2021-09-01T11:38:23Z</time><extensions><speed>0.000000</speed><course>-1.000000</course><hAcc>0.915834</hAcc><vAcc>0.744527</vAcc></extensions></trkpt>
      <trkpt lon="-3.155611" lat="53.000665"><ele>422.458557</ele><time>2021-09-01T11:38:24Z</time><extensions><speed>0.000000</speed><course>-1.000000</course><hAcc>0.916335</hAcc><vAcc>0.745676</vAcc></extensions></trkpt>
      <trkpt lon="-3.155611" lat="53.000665"><ele>422.458557</ele><time>2021-09-01T11:38:25Z</time><extensions><speed>0.000000</speed><course>184.559082</course><hAcc>0.916492</hAcc><vAcc>0.746224</vAcc></extensions></trkpt>
      <trkpt lon="-3.155611" lat="53.000665"><ele>422.458557</ele><time>2021-09-01T11:38:26Z</time><extensions><speed>0.000000</speed><course>-1.000000</course><hAcc>0.916415</hAcc><vAcc>0.746175</vAcc></extensions></trkpt>
      <trkpt lon="-3.155611" lat="53.000665"><ele>422.458557</ele><time>2021-09-01T11:38:27Z</time><extensions><speed>0.000000</speed><course>-1.000000</course><hAcc>0.916144</hAcc><vAcc>0.745557</vAcc></extensions></trkpt>
      <trkpt lon="-3.155611" lat="53.000665"><ele>422.458557</ele><time>2021-09-01T11:38:28Z</time><extensions><speed>0.000000</speed><course>-1.000000</course><hAcc>0.915636</hAcc><vAcc>0.744409</vAcc></extensions></trkpt>
      <trkpt lon="-3.155611" lat="53.000665"><ele>422.458557</ele><time>2021-09-01T11:38:29Z</time><extensions><speed>0.000000</speed><course>-1.000000</course><hAcc>0.914818</hAcc><vAcc>0.742818</vAcc></extensions></trkpt>
      <trkpt lon="-3.155611" lat="53.000665"><ele>422.458557</ele><time>2021-09-01T11:38:30Z</time><extensions><speed>0.000000</speed><course>53.307610</course><hAcc>0.913694</hAcc><vAcc>0.741008</vAcc></extensions></trkpt>
      <trkpt lon="-3.155611" lat="53.000665"><ele>422.458557</ele><time>2021-09-01T11:38:31Z</time><extensions><speed>0.000000</speed><course>-1.000000</course><hAcc>0.912527</hAcc><vAcc>0.739479</vAcc></extensions></trkpt>
      <trkpt lon="-3.155611" lat="53.000665"><ele>422.458557</ele><time>2021-09-01T11:38:32Z</time><extensions><speed>0.000000</speed><course>-1.000000</course><hAcc>0.912106</hAcc><vAcc>0.739207</vAcc></extensions></trkpt>
      <trkpt lon="-3.155611" lat="53.000665"><ele>422.458557</ele><time>2021-09-01T11:38:33Z</time><extensions><speed>0.000000</speed><course>-1.000000</course><hAcc>0.914119</hAcc><vAcc>0.741894</vAcc></extensions></trkpt>
      <trkpt lon="-3.155611" lat="53.000665"><ele>422.458557</ele><time>2021-09-01T11:38:34Z</time><extensions><speed>0.000000</speed><course>120.394302</course><hAcc>0.921598</hAcc><vAcc>0.750220</vAcc></extensions></trkpt>
      <trkpt lon="-3.155611" lat="53.000665"><ele>422.458557</ele><time>2021-09-01T11:38:35Z</time><extensions><speed>0.000000</speed><course>-1.000000</course><hAcc>0.939341</hAcc><vAcc>0.768002</vAcc></extensions></trkpt>
      <trkpt lon="-3.155611" lat="53.000665"><ele>422.458557</ele><time>2021-09-01T11:38:36Z</time><extensions><speed>0.000000</speed><course>-1.000000</course><hAcc>0.974041</hAcc><vAcc>0.800084</vAcc></extensions></trkpt>
      <trkpt lon="-3.155611" lat="53.000665"><ele>422.458557</ele><time>2021-09-01T11:38:37Z</time><extensions><speed>0.000000</speed><course>-1.000000</course><hAcc>0.936249</hAcc><vAcc>0.763424</vAcc></extensions></trkpt>
      <trkpt lon="-3.155611" lat="53.000665"><ele>422.458557</ele><time>2021-09-01T11:38:38Z</time><extensions><speed>0.000000</speed><course>-1.000000</course><hAcc>0.916859</hAcc><vAcc>0.739837</vAcc></extensions></trkpt>
      <trkpt lon="-3.155611" lat="53.000665"><ele>422.458557</ele><time>2021-09-01T11:38:39Z</time><extensions><speed>0.000000</speed><course>-1.000000</course><hAcc>0.909365</hAcc><vAcc>0.726822</vAcc></extensions></trkpt>
      <trkpt lon="-3.155611" lat="53.000665"><ele>422.458557</ele><time>2021-09-01T11:38:40Z</time><extensions><speed>0.000000</speed><course>-1.000000</course><hAcc>0.908418</hAcc><vAcc>0.720192</vAcc></extensions></trkpt>
      <trkpt lon="-3.155611" lat="53.000665"><ele>422.458557</ele><time>2021-09-01T11:38:41Z</time><extensions><speed>0.000000</speed><course>-1.000000</course><hAcc>0.910668</hAcc><vAcc>0.716982</vAcc></extensions></trkpt>
      <trkpt lon="-3.155611" lat="53.000665"><ele>422.458557</ele><time>2021-09-01T11:38:42Z</time><extensions><speed>0.000000</speed><course>-1.000000</course><hAcc>0.914311</hAcc><vAcc>0.715341</vAcc></extensions></trkpt>
      <trkpt lon="-3.155611" lat="53.000665"><ele>422.458557</ele><time>2021-09-01T11:38:43Z</time><extensions><speed>0.000000</speed><course>-1.000000</course><hAcc>0.918540</hAcc><vAcc>0.714275</vAcc></extensions></trkpt>
      <trkpt lon="-3.155611" lat="53.000665"><ele>422.458557</ele><time>2021-09-01T11:38:44Z</time><extensions><speed>0.000000</speed><course>-1.000000</course><hAcc>0.923091</hAcc><vAcc>0.713363</vAcc></extensions></trkpt>
      <trkpt lon="-3.155611" lat="53.000665"><ele>422.458557</ele><time>2021-09-01T11:38:45Z</time><extensions><speed>0.000000</speed><course>-1.000000</course><hAcc>0.927884</hAcc><vAcc>0.712503</vAcc></extensions></trkpt>
      <trkpt lon="-3.155611" lat="53.000665"><ele>422.458557</ele><time>2021-09-01T11:38:46Z</time><extensions><speed>0.000000</speed><course>184.559082</course><hAcc>0.932786</hAcc><vAcc>0.711709</vAcc></extensions></trkpt>
      <trkpt lon="-3.155611" lat="53.000665"><ele>422.458557</ele><time>2021-09-01T11:38:47Z</time><extensions><speed>0.000000</speed><course>-1.000000</course><hAcc>0.937525</hAcc><vAcc>0.710977</vAcc></extensions></trkpt>
      <trkpt lon="-3.155611" lat="53.000665"><ele>422.458557</ele><time>2021-09-01T11:38:48Z</time><extensions><speed>0.000000</speed><course>-1.000000</course><hAcc>0.941771</hAcc><vAcc>0.710243</vAcc></extensions></trkpt>
      <trkpt lon="-3.155611" lat="53.000665"><ele>422.458557</ele><time>2021-09-01T11:38:49Z</time><extensions><speed>0.000000</speed><course>-1.000000</course><hAcc>0.945242</hAcc><vAcc>0.709398</vAcc></extensions></trkpt>
      <trkpt lon="-3.155611" lat="53.000665"><ele>422.458557</ele><time>2021-09-01T11:38:50Z</time><extensions><speed>0.000000</speed><course>-1.000000</course><hAcc>0.947773</hAcc><vAcc>0.708362</vAcc></extensions></trkpt>
      <trkpt lon="-3.155611" lat="53.000665"><ele>422.458557</ele><time>2021-09-01T11:38:51Z</time><extensions><speed>0.000000</speed><course>53.307610</course><hAcc>0.949427</hAcc><vAcc>0.707193</vAcc></extensions></trkpt>
      <trkpt lon="-3.155611" lat="53.000665"><ele>422.458557</ele><time>2021-09-01T11:38:52Z</time><extensions><speed>0.000000</speed><course>-1.000000</course><hAcc>0.950659</hAcc><vAcc>0.706242</vAcc></extensions></trkpt>
      <trkpt lon="-3.155611" lat="53.000665"><ele>422.458557</ele><time>2021-09-01T11:38:53Z</time><extensions><speed>0.000000</speed><course>-1.000000</course><hAcc>0.952556</hAcc><vAcc>0.706353</vAcc></extensions></trkpt>
      <trkpt lon="-3.155611" lat="53.000665"><ele>422.458557</ele><time>2021-09-01T11:38:54Z</time><extensions><speed>0.000000</speed><course>-1.000000</course><hAcc>0.957173</hAcc><vAcc>0.709115</vAcc></extensions></trkpt>
      <trkpt lon="-3.155611" lat="53.000665"><ele>422.458557</ele><time>2021-09-01T11:38:55Z</time><extensions><speed>0.000000</speed><course>120.394302</course><hAcc>0.967908</hAcc><vAcc>0.717117</vAcc></extensions></trkpt>
      <trkpt lon="-3.155611" lat="53.000665"><ele>422.458557</ele><time>2021-09-01T11:38:56Z</time><extensions><speed>0.000000</speed><course>-1.000000</course><hAcc>0.989833</hAcc><vAcc>0.734137</vAcc></extensions></trkpt>
      <trkpt lon="-3.155611" lat="53.000665"><ele>422.458557</ele><time>2021-09-01T11:38:57Z</time><extensions><speed>0.000000</speed><course>-1.000000</course><hAcc>1.029687</hAcc><vAcc>0.765058</vAcc></extensions></trkpt>
      <trkpt lon="-3.155611" lat="53.000665"><ele>422.458557</ele><time>2021-09-01T11:38:58Z</time><extensions><speed>0.000000</speed><course>-1.000000</course><hAcc>0.982267</hAcc><vAcc>0.732043</vAcc></extensions></trkpt>
      <trkpt lon="-3.155611" lat="53.000665"><ele>422.458557</ele><time>2021-09-01T11:38:59Z</time><extensions><speed>0.000000</speed><course>-1.000000</course><hAcc>0.957612</hAcc><vAcc>0.714079</vAcc></extensions></trkpt>
      <trkpt lon="-3.155611" lat="53.000665"><ele>422.458557</ele><time>2021-09-01T11:39:00Z</time><extensions><speed>0.000000</speed><course>-1.000000</course><hAcc>0.944678</hAcc><vAcc>0.706005</vAcc></extensions></trkpt>
      <trkpt lon="-3.155611" lat="53.000665"><ele>422.458557</ele><time>2021-09-01T11:39:01Z</time><extensions><speed>0.000000</speed><course>-1.000000</course><hAcc>0.937862</hAcc><vAcc>0.703585</vAcc></extensions></trkpt>
      <trkpt lon="-3.155611" lat="53.000665"><ele>422.458557</ele><time>2021-09-01T11:39:02Z</time><extensions><speed>0.000000</speed><course>-1.000000</course><hAcc>0.933701</hAcc><vAcc>0.703931</vAcc></extensions></trkpt>
      <trkpt lon="-3.155611" lat="53.000665"><ele>422.458557</ele><time>2021-09-01T11:39:03Z</time><extensions><speed>0.000000</speed><course>-1.000000</course><hAcc>0.930396</hAcc><vAcc>0.705298</vAcc></extensions></trkpt>
      <trkpt lon="-3.155611" lat="53.000665"><ele>422.458557</ele><time>2021-09-01T11:39:04Z</time><extensions><speed>0.000000</speed><course>-1.000000</course><hAcc>0.927205</hAcc><vAcc>0.706772</vAcc></extensions></trkpt>
      <trkpt lon="-3.155611" lat="53.000665"><ele>422.458557</ele><time>2021-09-01T11:39:05Z</time><extensions><speed>0.000000</speed><course>-1.000000</course><hAcc>0.923974</hAcc><vAcc>0.707974</vAcc></extensions></trkpt>
      <trkpt lon="-3.155611" lat="53.000665"><ele>422.458557</ele><time>2021-09-01T11:39:06Z</time><extensions><speed>0.000000</speed><course>-1.000000</course><hAcc>0.920805</hAcc><vAcc>0.708830</vAcc></extensions></trkpt>
      <trkpt lon="-3.155611" lat="53.000665"><ele>422.458557</ele><time>2021-09-01T11:39:07Z</time><extensions><speed>0.000000</speed><course>184.559082</course><hAcc>0.917843</hAcc><vAcc>0.709407</vAcc></extensions></trkpt>
      <trkpt lon="-3.155611" lat="53.000665"><ele>422.458557</ele><time>2021-09-01T11:39:08Z</time><extensions><speed>0.000000</speed><course>-1.000000</course><hAcc>0.915169</hAcc><vAcc>0.709789</vAcc></extensions></trkpt>
      <trkpt lon="-3.155611" lat="53.000665"><ele>422.458557</ele><time>2021-09-01T11:39:09Z</time><extensions><speed>0.000000</speed><course>-1.000000</course><hAcc>0.912791</hAcc><vAcc>0.710013</vAcc></extensions></trkpt>
      <trkpt lon="-3.155611" lat="53.000665"><ele>422.458557</ele><time>2021-09-01T11:39:10Z</time><extensions><speed>0.000000</speed><course>-1.000000</course><hAcc>0.910659</hAcc><vAcc>0.710061</vAcc></extensions></trkpt>
      <trkpt lon="-3.155611" lat="53.000665"><ele>422.458557</ele><time>2021-09-01T11:39:11Z</time><extensions><speed>0.000000</speed><course>-1.000000</course><hAcc>0.908675</hAcc><vAcc>0.709927</vAcc></extensions></trkpt>
      <trkpt lon="-3.155611" lat="53.000665"><ele>422.458557</ele><time>2021-09-01T11:39:12Z</time><extensions><speed>0.000000</speed><course>53.307610</course><hAcc>0.906785</hAcc><vAcc>0.709733</vAcc></extensions></trkpt>
      <trkpt lon="-3.155611" lat="53.000665"><ele>422.458557</ele><time>2021-09-01T11:39:13Z</time><extensions><speed>0.000000</speed><course>-1.000000</course><hAcc>0.905165</hAcc><vAcc>0.709881</vAcc></extensions></trkpt>
      <trkpt lon="-3.155611" lat="53.000665"><ele>422.458557</ele><time>2021-09-01T11:39:14Z</time><extensions><speed>0.000000</speed><course>-1.000000</course><hAcc>0.904518</hAcc><vAcc>0.711270</vAcc></extensions></trkpt>
      <trkpt lon="-3.155611" lat="53.000665"><ele>422.458557</ele><time>2021-09-01T11:39:15Z</time><extensions><speed>0.000000</speed><course>-1.000000</course><hAcc>0.906448</hAcc><vAcc>0.715541</vAcc></extensions></trkpt>
      <trkpt lon="-3.155611" lat="53.000665"><ele>422.458557</ele><time>2021-09-01T11:39:16Z</time><extensions><speed>0.000000</speed><course>120.394302</course><hAcc>0.913927</hAcc><vAcc>0.725336</vAcc></extensions></trkpt>
      <trkpt lon="-3.155611" lat="53.000665"><ele>422.458557</ele><time>2021-09-01T11:39:17Z</time><extensions><speed>0.000000</speed><course>-1.000000</course><hAcc>0.931717</hAcc><vAcc>0.744456</vAcc></extensions></trkpt>
      <trkpt lon="-3.155611" lat="53.000665"><ele>422.458557</ele><time>2021-09-01T11:39:18Z</time><extensions><speed>0.000000</speed><course>-1.000000</course><hAcc>0.966508</hAcc><vAcc>0.777744</vAcc></extensions></trkpt>
      <trkpt lon="-3.155611" lat="53.000665"><ele>422.458557</ele><time>2021-09-01T11:39:19Z</time><extensions><speed>0.000000</speed><course>-1.000000</course><hAcc>0.929076</hAcc><vAcc>0.744686</vAcc></extensions></trkpt>
      <trkpt lon="-3.155611" lat="53.000665"><ele>422.458557</ele><time>2021-09-01T11:39:20Z</time><extensions><speed>0.000000</speed><course>-1.000000</course><hAcc>0.911153</hAcc><vAcc>0.727077</vAcc></extensions></trkpt>
      <trkpt lon="-3.155611" lat="53.000665"><ele>422.458557</ele><time>2021-09-01T11:39:21Z</time><extensions><speed>0.000000</speed><course>-1.000000</course><hAcc>0.904531</hAcc><vAcc>0.719618</vAcc></extensions></trkpt>
      <trkpt lon="-3.155611" lat="53.000665"><ele>422.458557</ele><time>2021-09-01T11:39:22Z</time><extensions><speed>0.000000</speed><course>-1.000000</course><hAcc>0.903703</hAcc><vAcc>0.718009</vAcc></extensions></trkpt>
      <trkpt lon="-3.155611" lat="53.000665"><ele>422.458557</ele><time>2021-09-01T11:39:23Z</time><extensions><speed>0.000000</speed><course>-1.000000</course><hAcc>0.905213</hAcc><vAcc>0.719253</vAcc></extensions></trkpt>
      <trkpt lon="-3.155611" lat="53.000665"><ele>422.458557</ele><time>2021-09-01T11:39:24Z</time><extensions><speed>0.000000</speed><course>-1.000000</course><hAcc>0.907175</hAcc><vAcc>0.721484</vAcc></extensions></trkpt>
      <trkpt lon="-3.155611" lat="53.000665"><ele>422.458557</ele><time>2021-09-01T11:39:25Z</time><extensions><speed>0.000000</speed><course>-1.000000</course><hAcc>0.908748</hAcc><vAcc>0.723666</vAcc></extensions></trkpt>
      <trkpt lon="-3.155611" lat="53.000665"><ele>422.458557</ele><time>2021-09-01T11:39:26Z</time><extensions><speed>0.000000</speed><course>-1.000000</course><hAcc>0.909704</hAcc><vAcc>0.725302</vAcc></extensions></trkpt>
      <trkpt lon="-3.155611" lat="53.000665"><ele>422.458557</ele><time>2021-09-01T11:39:27Z</time><extensions><speed>0.000000</speed><course>-1.000000</course><hAcc>0.910117</hAcc><vAcc>0.726212</vAcc></extensions></trkpt>
      <trkpt lon="-3.155611" lat="53.000665"><ele>422.458557</ele><time>2021-09-01T11:39:28Z</time><extensions><speed>0.000000</speed><course>184.559082</course><hAcc>0.910158</hAcc><vAcc>0.726368</vAcc></extensions></trkpt>
      <trkpt lon="-3.155611" lat="53.000665"><ele>422.458557</ele><time>2021-09-01T11:39:29Z</time><extensions><speed>0.000000</speed><course>-1.000000</course><hAcc>0.909971</hAcc><vAcc>0.725792</vAcc></extensions></trkpt>
      <trkpt lon="-3.155611" lat="53.000665"><ele>422.458557</ele><time>2021-09-01T11:39:30Z</time><extensions><speed>0.000000</speed><course>-1.000000</course><hAcc>0.909625</hAcc><vAcc>0.724515</vAcc></extensions></trkpt>
      <trkpt lon="-3.155611" lat="53.000665"><ele>422.458557</ele><time>2021-09-01T11:39:31Z</time><extensions><speed>0.000000</speed><course>-1.000000</course><hAcc>0.909103</hAcc><vAcc>0.722574</vAcc></extensions></trkpt>
      <trkpt lon="-3.155611" lat="53.000665"><ele>422.458557</ele><time>2021-09-01T11:39:32Z</time><extensions><speed>0.000000</speed><course>-1.000000</course><hAcc>0.908362</hAcc><vAcc>0.720055</vAcc></extensions></trkpt>
      <trkpt lon="-3.155611" lat="53.000665"><ele>422.458557</ele><time>2021-09-01T11:39:33Z</time><extensions><speed>0.000000</speed><course>53.307610</course><hAcc>0.907441</hAcc><vAcc>0.717171</vAcc></extensions></trkpt>
      <trkpt lon="-3.155611" lat="53.000665"><ele>422.458557</ele><time>2021-09-01T11:39:34Z</time><extensions><speed>0.000000</speed><course>-1.000000</course><hAcc>0.906647</hAcc><vAcc>0.714393</vAcc></extensions></trkpt>
      <trkpt lon="-3.155611" lat="53.000665"><ele>422.458557</ele><time>2021-09-01T11:39:35Z</time><extensions><speed>0.000000</speed><course>-1.000000</course><hAcc>0.906827</hAcc><vAcc>0.712645</vAcc></extensions></trkpt>
      <trkpt lon="-3.155611" lat="53.000665"><ele>422.458557</ele><time>2021-09-01T11:39:36Z</time><extensions><speed>0.000000</speed><course>-1.000000</course><hAcc>0.909738</hAcc><vAcc>0.713559</vAcc></extensions></trkpt>
      <trkpt lon="-3.155611" lat="53.000665"><ele>422.458557</ele><time>2021-09-01T11:39:37Z</time><extensions><speed>0.000000</speed><course>120.394302</course><hAcc>0.918488</hAcc><vAcc>0.719765</vAcc></extensions></trkpt>
      <trkpt lon="-3.155611" lat="53.000665"><ele>422.458557</ele><time>2021-09-01T11:39:38Z</time><extensions><speed>0.000000</speed><course>-1.000000</course><hAcc>0.937941</hAcc><vAcc>0.735084</vAcc></extensions></trkpt>
      <trkpt lon="-3.155611" lat="53.000665"><ele>422.458557</ele><time>2021-09-01T11:39:39Z</time><extensions><speed>0.000000</speed><course>-1.000000</course><hAcc>0.974824</hAcc><vAcc>0.764467</vAcc></extensions></trkpt>
      <trkpt lon="-3.155611" lat="53.000665"><ele>422.458557</ele><time>2021-09-01T11:39:40Z</time><extensions><speed>0.000000</speed><course>-1.000000</course><hAcc>0.936948</hAcc><vAcc>0.732011</vAcc></extensions></trkpt>
      <trkpt lon="-3.155611" lat="53.000665"><ele>422.458557</ele><time>2021-09-01T11:39:41Z</time><extensions><speed>0.000000</speed><course>-1.000000</course><hAcc>0.920465</hAcc><vAcc>0.713372</vAcc></extensions></trkpt>
      <trkpt lon="-3.155611" lat="53.000665"><ele>422.458557</ele><time>2021-09-01T11:39:42Z</time><extensions><speed>0.000000</speed><course>-1.000000</course><hAcc>0.915028</hAcc><vAcc>0.704880</vAcc></extensions></trkpt>
      <trkpt lon="-3.155611" lat="53.000665"><ele>422.458557</ele><time>2021-09-01T11:39:43Z</time><extensions><speed>0.000000</speed><course>-1.000000</course><hAcc>0.915059</hAcc><vAcc>0.702266</vAcc></extensions></trkpt>
      <trkpt lon="-3.155611" lat="53.000665"><ele>422.458557</ele><time>2021-09-01T11:39:44Z</time><extensions><speed>0.000000</speed><course>-1.000000</course><hAcc>0.917077</hAcc><vAcc>0.702584</vAcc></extensions></trkpt>
      <trkpt lon="-3.155611" lat="53.000665"><ele>422.458557</ele><time>2021-09-01T11:39:45Z</time><extensions><speed>0.000000</speed><course>-1.000000</course><hAcc>0.919172</hAcc><vAcc>0.704025</vAcc></extensions></trkpt>
      <trkpt lon="-3.155611" lat="53.000665"><ele>422.458557</ele><time>2021-09-01T11:39:46Z</time><extensions><speed>0.000000</speed><course>-1.000000</course><hAcc>0.920457</hAcc><vAcc>0.705622</vAcc></extensions></trkpt>
      <trkpt lon="-3.155611" lat="53.000665"><ele>422.458557</ele><time>2021-09-01T11:39:47Z</time><extensions><speed>0.000000</speed><course>-1.000000</course><hAcc>0.920652</hAcc><vAcc>0.706958</vAcc></extensions></trkpt>
      <trkpt lon="-3.155611" lat="53.000665"><ele>422.458557</ele><time>2021-09-01T11:39:48Z</time><extensions><speed>0.000000</speed><course>-1.000000</course><hAcc>0.919823</hAcc><vAcc>0.707933</vAcc></extensions></trkpt>
      <trkpt lon="-3.155611" lat="53.000665"><ele>422.458557</ele><time>2021-09-01T11:39:49Z</time><extensions><speed>0.000000</speed><course>184.559082</course><hAcc>0.918213</hAcc><vAcc>0.708587</vAcc></extensions></trkpt>
      <trkpt lon="-3.155611" lat="53.000665"><ele>422.458557</ele><time>2021-09-01T11:39:50Z</time><extensions><speed>0.000000</speed><course>-1.000000</course><hAcc>0.916129</hAcc><vAcc>0.708985</vAcc></extensions></trkpt>
      <trkpt lon="-3.155611" lat="53.000665"><ele>422.458557</ele><time>2021-09-01T11:39:51Z</time><extensions><speed>0.000000</speed><course>-1.000000</course><hAcc>0.913854</hAcc><vAcc>0.709150</vAcc></extensions></trkpt>
      <trkpt lon="-3.155611" lat="53.000665"><ele>422.458557</ele><time>2021-09-01T11:39:52Z</time><extensions><speed>0.000000</speed><course>-1.000000</course><hAcc>0.911547</hAcc><vAcc>0.709064</vAcc></extensions></trkpt>
      <trkpt lon="-3.155611" lat="53.000665"><ele>422.458557</ele><time>2021-09-01T11:39:53Z</time><extensions><speed>0.000000</speed><course>-1.000000</course><hAcc>0.909247</hAcc><vAcc>0.708726</vAcc></extensions></trkpt>
      <trkpt lon="-3.155611" lat="53.000665"><ele>422.458557</ele><time>2021-09-01T11:39:54Z</time><extensions><speed>0.000000</speed><course>53.307610</course><hAcc>0.906981</hAcc><vAcc>0.708252</vAcc></extensions></trkpt>
      <trkpt lon="-3.155611" lat="53.000665"><ele>422.458557</ele><time>2021-09-01T11:39:55Z</time><extensions><speed>0.000000</speed><course>-1.000000</course><hAcc>0.904971</hAcc><vAcc>0.708026</vAcc></extensions></trkpt>
      <trkpt lon="-3.155611" lat="53.000665"><ele>422.458557</ele><time>2021-09-01T11:39:56Z</time><extensions><speed>0.000000</speed><course>-1.000000</course><hAcc>0.903928</hAcc><vAcc>0.708913</vAcc></extensions></trkpt>
      <trkpt lon="-3.155611" lat="53.000665"><ele>422.458557</ele><time>2021-09-01T11:39:57Z</time><extensions><speed>0.000000</speed><course>-1.000000</course><hAcc>0.905453</hAcc><vAcc>0.712513</vAcc></extensions></trkpt>
      <trkpt lon="-3.155611" lat="53.000665"><ele>422.458557</ele><time>2021-09-01T11:39:58Z</time><extensions><speed>0.000000</speed><course>120.394302</course><hAcc>0.912503</hAcc><vAcc>0.721428</vAcc></extensions></trkpt>
      <trkpt lon="-3.155611" lat="53.000665"><ele>422.458557</ele><time>2021-09-01T11:39:59Z</time><extensions><speed>0.000000</speed><course>-1.000000</course><hAcc>0.929836</hAcc><vAcc>0.739441</vAcc></extensions></trkpt>
      <trkpt lon="-3.155611" lat="53.000665"><ele>422.458557</ele><time>2021-09-01T11:40:00Z</time><extensions><speed>0.000000</speed><course>-1.000000</course><hAcc>0.964151</hAcc><vAcc>0.771423</vAcc></extensions></trkpt>
      <trkpt lon="-3.155611" lat="53.000665"><ele>422.458557</ele><time>2021-09-01T11:40:01Z</time><extensions><speed>0.000000</speed><course>-1.000000</course><hAcc>0.927402</hAcc><vAcc>0.739729</vAcc></extensions></trkpt>
      <trkpt lon="-3.155611" lat="53.000665"><ele>422.458557</ele><time>2021-09-01T11:40:02Z</time><extensions><speed>0.000000</speed><course>-1.000000</course><hAcc>0.909505</hAcc><vAcc>0.722030</vAcc></extensions></trkpt>
      <trkpt lon="-3.155611" lat="53.000665"><ele>422.458557</ele><time>2021-09-01T11:40:03Z</time><extensions><speed>0.000000</speed><course>-1.000000</course><hAcc>0.902926</hAcc><vAcc>0.714563</vAcc></extensions></trkpt>
      <trkpt lon="-3.155611" lat="53.000665"><ele>422.458557</ele><time>2021-09-01T11:40:04Z</time><extensions><speed>0.000000</speed><course>-1.000000</course><hAcc>0.902163</hAcc><vAcc>0.713052</vAcc></extensions></trkpt>
      <trkpt lon="-3.155611" lat="53.000665"><ele>422.458557</ele><time>2021-09-01T11:40:05Z</time><extensions><speed>0.000000</speed><course>-1.000000</course><hAcc>0.903763</hAcc><vAcc>0.714522</vAcc></extensions></trkpt>
      <trkpt lon="-3.155611" lat="53.000665"><ele>422.458557</ele><time>2021-09-01T11:40:06Z</time><extensions><speed>0.000000</speed><course>-1.000000</course><hAcc>0.905849</hAcc><vAcc>0.717121</vAcc></extensions></trkpt>
      <trkpt lon="-3.155611" lat="53.000665"><ele>422.458557</ele><time>2021-09-01T11:40:07Z</time><extensions><speed>0.000000</speed><course>-1.000000</course><hAcc>0.907587</hAcc><vAcc>0.719827</vAcc></extensions></trkpt>
      <trkpt lon="-3.155611" lat="53.000665"><ele>422.458557</ele><time>2021-09-01T11:40:08Z</time><extensions><speed>0.000000</speed><course>-1.000000</course><hAcc>0.908757</hAcc><vAcc>0.722168</vAcc></extensions></trkpt>
      <trkpt lon="-3.155611" lat="53.000665"><ele>422.458557</ele><time>2021-09-01T11:40:09Z</time><extensions><speed>0.000000</speed><course>-1.000000</course><hAcc>0.909431</hAcc><vAcc>0.723986</vAcc></extensions></trkpt>
      <trkpt lon="-3.155611" lat="53.000665"><ele>422.458557</ele><time>2021-09-01T11:40:10Z</time><extensions><speed>0.000000</speed><course>184.559082</course><hAcc>0.909777</hAcc><vAcc>0.725273</vAcc></extensions></trkpt>
      <trkpt lon="-3.155611" lat="53.000665"><ele>422.458557</ele><time>2021-09-01T11:40:11Z</time><extensions><speed>0.000000</speed><course>-1.000000</course><hAcc>0.909928</hAcc><vAcc>0.726067</vAcc></extensions></trkpt>
      <trkpt lon="-3.155611" lat="53.000665"><ele>422.458557</ele><time>2021-09-01T11:40:12Z</time><extensions><speed>0.000000</speed><course>-1.000000</course><hAcc>0.909926</hAcc><vAcc>0.726399</vAcc></extensions></trkpt>
      <trkpt lon="-3.155611" lat="53.000665"><ele>422.458557</ele><time>2021-09-01T11:40:13Z</time><extensions><speed>0.000000</speed><course>-1.000000</course><hAcc>0.909725</hAcc><vAcc>0.726279</vAcc></extensions></trkpt>
      <trkpt lon="-3.155611" lat="53.000665"><ele>422.458557</ele><time>2021-09-01T11:40:14Z</time><extensions><speed>0.000000</speed><course>-1.000000</course><hAcc>0.909237</hAcc><vAcc>0.725750</vAcc></extensions></trkpt>
      <trkpt lon="-3.155611" lat="53.000665"><ele>422.458557</ele><time>2021-09-01T11:40:15Z</time><extensions><speed>0.000000</speed><course>53.307610</course><hAcc>0.908444</hAcc><vAcc>0.724981</vAcc></extensions></trkpt>
      <trkpt lon="-3.155611" lat="53.000665"><ele>422.458557</ele><time>2021-09-01T11:40:16Z</time><extensions><speed>0.000000</speed><course>-1.000000</course><hAcc>0.907584</hAcc><vAcc>0.724417</vAcc></extensions></trkpt>
      <trkpt lon="-3.155611" lat="53.000665"><ele>422.458557</ele><time>2021-09-01T11:40:17Z</time><extensions><speed>0.000000</speed><course>-1.000000</course><hAcc>0.907422</hAcc><vAcc>0.724990</vAcc></extensions></trkpt>
      <trkpt lon="-3.155611" lat="53.000665"><ele>422.458557</ele><time>2021-09-01T11:40:18Z</time><extensions><speed>0.000000</speed><course>-1.000000</course><hAcc>0.909626</hAcc><vAcc>0.728362</vAcc></extensions></trkpt>
      <trkpt lon="-3.155611" lat="53.000665"><ele>422.458557</ele><time>2021-09-01T11:40:19Z</time><extensions><speed>0.000000</speed><course>120.394302</course><hAcc>0.917217</hAcc><vAcc>0.737191</vAcc></extensions></trkpt>
      <trkpt lon="-3.155611" lat="53.000665"><ele>422.458557</ele><time>2021-09-01T11:40:20Z</time><extensions><speed>0.000000</speed><course>-1.000000</course><hAcc>0.934995</hAcc><vAcc>0.755293</vAcc></extensions></trkpt>
      <trkpt lon="-3.155611" lat="53.000665"><ele>422.458557</ele><time>2021-09-01T11:40:21Z</time><extensions><speed>0.000000</speed><course>-1.000000</course><hAcc>0.969673</hAcc><vAcc>0.787537</vAcc></extensions></trkpt>
      <trkpt lon="-3.155611" lat="53.000665"><ele>422.458557</ele><time>2021-09-01T11:40:22Z</time><extensions><speed>0.000000</speed><course>-1.000000</course><hAcc>0.932421</hAcc><vAcc>0.754020</vAcc></extensions></trkpt>
      <trkpt lon="-3.155611" lat="53.000665"><ele>422.458557</ele><time>2021-09-01T11:40:23Z</time><extensions><speed>0.000000</speed><course>-1.000000</course><hAcc>0.913504</hAcc><vAcc>0.733618</vAcc></extensions></trkpt>
      <trkpt lon="-3.155611" lat="53.000665"><ele>422.458557</ele><time>2021-09-01T11:40:24Z</time><extensions><speed>0.000000</speed><course>-1.000000</course><hAcc>0.906023</hAcc><vAcc>0.723756</vAcc></extensions></trkpt>
      <trkpt lon="-3.155611" lat="53.000665"><ele>422.458557</ele><time>2021-09-01T11:40:25Z</time><extensions><speed>0.000000</speed><course>-1.000000</course><hAcc>0.904491</hAcc><vAcc>0.720168</vAcc></extensions></trkpt>
      <trkpt lon="-3.155611" lat="53.000665"><ele>422.458557</ele><time>2021-09-01T11:40:26Z</time><extensions><speed>0.000000</speed><course>-1.000000</course><hAcc>0.905444</hAcc><vAcc>0.719835</vAcc></extensions></trkpt>
      <trkpt lon="-3.155611" lat="53.000665"><ele>422.458557</ele><time>2021-09-01T11:40:27Z</time><extensions><speed>0.000000</speed><course>-1.000000</course><hAcc>0.906981</hAcc><vAcc>0.720849</vAcc></extensions></trkpt>
      <trkpt lon="-3.155611" lat="53.000665"><ele>422.458557</ele><time>2021-09-01T11:40:28Z</time><extensions><speed>0.000000</speed><course>-1.000000</course><hAcc>0.908240</hAcc><vAcc>0.722134</vAcc></extensions></trkpt>
      <trkpt lon="-3.155611" lat="53.000665"><ele>422.458557</ele><time>2021-09-01T11:40:29Z</time><extensions><speed>0.000000</speed><course>-1.000000</course><hAcc>0.908978</hAcc><vAcc>0.723159</vAcc></extensions></trkpt>
      <trkpt lon="-3.155611" lat="53.000665"><ele>422.458557</ele><time>2021-09-01T11:40:30Z</time><extensions><speed>0.000000</speed><course>-1.000000</course><hAcc>0.909252</hAcc><vAcc>0.723709</vAcc></extensions></trkpt>
      <trkpt lon="-3.155611" lat="53.000665"><ele>422.458557</ele><time>2021-09-01T11:40:31Z</time><extensions><speed>0.000000</speed><course>184.559082</course><hAcc>0.909217</hAcc><vAcc>0.723727</vAcc></extensions></trkpt>
      <trkpt lon="-3.155611" lat="53.000665"><ele>422.458557</ele><time>2021-09-01T11:40:32Z</time><extensions><speed>0.000000</speed><course>-1.000000</course><hAcc>0.909001</hAcc><vAcc>0.723209</vAcc></extensions></trkpt>
      <trkpt lon="-3.155611" lat="53.000665"><ele>422.458557</ele><time>2021-09-01T11:40:33Z</time><extensions><speed>0.000000</speed><course>-1.000000</course><hAcc>0.908644</hAcc><vAcc>0.722158</vAcc></extensions></trkpt>
      <trkpt lon="-3.155611" lat="53.000665"><ele>422.458557</ele><time>2021-09-01T11:40:34Z</time><extensions><speed>0.000000</speed><course>-1.000000</course><hAcc>0.908097</hAcc><vAcc>0.720578</vAcc></extensions></trkpt>
      <trkpt lon="-3.155611" lat="53.000665"><ele>422.458557</ele><time>2021-09-01T11:40:35Z</time><extensions><speed>0.000000</speed><course>-1.000000</course><hAcc>0.907266</hAcc><vAcc>0.718509</vAcc></extensions></trkpt>
      <trkpt lon="-3.155611" lat="53.000665"><ele>422.458557</ele><time>2021-09-01T11:40:36Z</time><extensions><speed>0.000000</speed><course>53.307610</course><hAcc>0.906124</hAcc><vAcc>0.716097</vAcc></extensions></trkpt>
      <trkpt lon="-3.155611" lat="53.000665"><ele>422.458557</ele><time>2021-09-01T11:40:37Z</time><extensions><speed>0.000000</speed><course>-1.000000</course><hAcc>0.904883</hAcc><vAcc>0.713732</vAcc></extensions></trkpt>
      <trkpt lon="-3.155611" lat="53.000665"><ele>422.458557</ele><time>2021-09-01T11:40:38Z</time><extensions><speed>0.000000</speed><course>-1.000000</course><hAcc>0.904274</hAcc><vAcc>0.712244</vAcc></extensions></trkpt>
      <trkpt lon="-3.155611" lat="53.000665"><ele>422.458557</ele><time>2021-09-01T11:40:39Z</time><extensions><speed>0.000000</speed><course>-1.000000</course><hAcc>0.905916</hAcc><vAcc>0.713156</vAcc></extensions></trkpt>
      <trkpt lon="-3.155611" lat="53.000665"><ele>422.458557</ele><time>2021-09-01T11:40:40Z</time><extensions><speed>0.000000</speed><course>120.394302</course><hAcc>0.912778</hAcc><vAcc>0.718966</vAcc></extensions></trkpt>
      <trkpt lon="-3.155611" lat="53.000665"><ele>422.458557</ele><time>2021-09-01T11:40:41Z</time><extensions><speed>0.000000</speed><course>-1.000000</course><hAcc>0.929612</hAcc><vAcc>0.733358</vAcc></extensions></trkpt>
      <trkpt lon="-3.155611" lat="53.000665"><ele>422.458557</ele><time>2021-09-01T11:40:42Z</time><extensions><speed>0.000000</speed><course>-1.000000</course><hAcc>0.963123</hAcc><vAcc>0.761179</vAcc></extensions></trkpt>
      <trkpt lon="-3.155611" lat="53.000665"><ele>422.458557</ele><time>2021-09-01T11:40:43Z</time><extensions><speed>0.000000</speed><course>-1.000000</course><hAcc>0.925549</hAcc><vAcc>0.727863</vAcc></extensions></trkpt>
      <trkpt lon="-3.155611" lat="53.000665"><ele>422.458557</ele><time>2021-09-01T11:40:44Z</time><extensions><speed>0.000000</speed><course>-1.000000</course><hAcc>0.906533</hAcc><vAcc>0.706829</vAcc></extensions></trkpt>
      <trkpt lon="-3.155611" lat="53.000665"><ele>422.458557</ele><time>2021-09-01T11:40:45Z</time><extensions><speed>0.000000</speed><course>-1.000000</course><hAcc>0.898624</hAcc><vAcc>0.695675</vAcc></extensions></trkpt>
      <trkpt lon="-3.155611" lat="53.000665"><ele>422.458557</ele><time>2021-09-01T11:40:46Z</time><extensions><speed>0.000000</speed><course>-1.000000</course><hAcc>0.896405</hAcc><vAcc>0.690327</vAcc></extensions></trkpt>
      <trkpt lon="-3.155611" lat="53.000665"><ele>422.458557</ele><time>2021-09-01T11:40:47Z</time><extensions><speed>0.000000</speed><course>-1.000000</course><hAcc>0.896525</hAcc><vAcc>0.688022</vAcc></extensions></trkpt>
      <trkpt lon="-3.155611" lat="53.000665"><ele>422.458557</ele><time>2021-09-01T11:40:48Z</time><extensions><speed>0.000000</speed><course>-1.000000</course><hAcc>0.897192</hAcc><vAcc>0.687092</vAcc></extensions></trkpt>
      <trkpt lon="-3.155611" lat="53.000665"><ele>422.458557</ele><time>2021-09-01T11:40:49Z</time><extensions><speed>0.000000</speed><course>-1.000000</course><hAcc>0.897640</hAcc><vAcc>0.686661</vAcc></extensions></trkpt>
      <trkpt lon="-3.155611" lat="53.000665"><ele>422.458557</ele><time>2021-09-01T11:40:50Z</time><extensions><speed>0.000000</speed><course>-1.000000</course><hAcc>0.897690</hAcc><vAcc>0.686343</vAcc></extensions></trkpt>
      <trkpt lon="-3.155611" lat="53.000665"><ele>422.458557</ele><time>2021-09-01T11:40:51Z</time><extensions><speed>0.000000</speed><course>-1.000000</course><hAcc>0.897436</hAcc><vAcc>0.685997</vAcc></extensions></trkpt>
      <trkpt lon="-3.155611" lat="53.000665"><ele>422.458557</ele><time>2021-09-01T11:40:52Z</time><extensions><speed>0.000000</speed><course>184.559082</course><hAcc>0.897033</hAcc><vAcc>0.685547</vAcc></extensions></trkpt>
      <trkpt lon="-3.155611" lat="53.000665"><ele>422.458557</ele><time>2021-09-01T11:40:53Z</time><extensions><speed>0.000000</speed><course>-1.000000</course><hAcc>0.896579</hAcc><vAcc>0.684882</vAcc></extensions></trkpt>
      <trkpt lon="-3.155611" lat="53.000665"><ele>422.458557</ele><time>2021-09-01T11:40:54Z</time><extensions><speed>0.000000</speed><course>-1.000000</course><hAcc>0.896055</hAcc><vAcc>0.683819</vAcc></extensions></trkpt>
      <trkpt lon="-3.155611" lat="53.000665"><ele>422.458557</ele><time>2021-09-01T11:40:55Z</time><extensions><speed>0.000000</speed><course>-1.000000</course><hAcc>0.895335</hAcc><vAcc>0.682142</vAcc></extensions></trkpt>
      <trkpt lon="-3.155611" lat="53.000665"><ele>422.458557</ele><time>2021-09-01T11:40:56Z</time><extensions><speed>0.000000</speed><course>-1.000000</course><hAcc>0.894240</hAcc><vAcc>0.679681</vAcc></extensions></trkpt>
      <trkpt lon="-3.155611" lat="53.000665"><ele>422.458557</ele><time>2021-09-01T11:40:57Z</time><extensions><speed>0.000000</speed><course>53.307610</course><hAcc>0.892658</hAcc><vAcc>0.676417</vAcc></extensions></trkpt>
      <trkpt lon="-3.155611" lat="53.000665"><ele>422.458557</ele><time>2021-09-01T11:40:58Z</time><extensions><speed>0.000000</speed><course>-1.000000</course><hAcc>0.890719</hAcc><vAcc>0.672606</vAcc></extensions></trkpt>
      <trkpt lon="-3.155611" lat="53.000665"><ele>422.458557</ele><time>2021-09-01T11:40:59Z</time><extensions><speed>0.000000</speed><course>-1.000000</course><hAcc>0.889070</hAcc><vAcc>0.668952</vAcc></extensions></trkpt>
      <trkpt lon="-3.155611" lat="53.000665"><ele>422.458557</ele><time>2021-09-01T11:41:00Z</time><extensions><speed>0.000000</speed><course>-1.000000</course><hAcc>0.889263</hAcc><vAcc>0.666856</vAcc></extensions></trkpt>
      <trkpt lon="-3.155611" lat="53.000665"><ele>422.458557</ele><time>2021-09-01T11:41:01Z</time><extensions><speed>0.000000</speed><course>120.394302</course><hAcc>0.894235</hAcc><vAcc>0.668729</vAcc></extensions></trkpt>
      <trkpt lon="-3.155611" lat="53.000665"><ele>422.458557</ele><time>2021-09-01T11:41:02Z</time><extensions><speed>0.000000</speed><course>-1.000000</course><hAcc>0.908786</hAcc><vAcc>0.678279</vAcc></extensions></trkpt>
      <trkpt lon="-3.155611" lat="53.000665"><ele>422.458557</ele><time>2021-09-01T11:41:03Z</time><extensions><speed>0.000000</speed><course>-1.000000</course><hAcc>0.939789</hAcc><vAcc>0.700572</vAcc></extensions></trkpt>
      <trkpt lon="-3.155611" lat="53.000665"><ele>422.458557</ele><time>2021-09-01T11:41:04Z</time><extensions><speed>0.000000</speed><course>-1.000000</course><hAcc>0.905578</hAcc><vAcc>0.675578</vAcc></extensions></trkpt>
      <trkpt lon="-3.155611" lat="53.000665"><ele>422.458557</ele><time>2021-09-01T11:41:05Z</time><extensions><speed>0.000000</speed><course>-1.000000</course><hAcc>0.889325</hAcc><vAcc>0.661928</vAcc></extensions></trkpt>
      <trkpt lon="-3.155611" lat="53.000665"><ele>422.458557</ele><time>2021-09-01T11:41:06Z</time><extensions><speed>0.000000</speed><course>-1.000000</course><hAcc>0.884043</hAcc><vAcc>0.657630</vAcc></extensions></trkpt>
      <trkpt lon="-3.155611" lat="53.000665"><ele>422.458557</ele><time>2021-09-01T11:41:07Z</time><extensions><speed>0.000000</speed><course>-1.000000</course><hAcc>0.884203</hAcc><vAcc>0.658453</vAcc></extensions></trkpt>
      <trkpt lon="-3.155611" lat="53.000665"><ele>422.458557</ele><time>2021-09-01T11:41:08Z</time><extensions><speed>0.000000</speed><course>-1.000000</course><hAcc>0.886389</hAcc><vAcc>0.661545</vAcc></extensions></trkpt>
      <trkpt lon="-3.155611" lat="53.000665"><ele>422.458557</ele><time>2021-09-01T11:41:09Z</time><extensions><speed>0.000000</speed><course>-1.000000</course><hAcc>0.888769</hAcc><vAcc>0.665138</vAcc></extensions></trkpt>
      <trkpt lon="-3.155611" lat="53.000665"><ele>422.458557</ele><time>2021-09-01T11:41:10Z</time><extensions><speed>0.000000</speed><course>-1.000000</course><hAcc>0.890551</hAcc><vAcc>0.668234</vAcc></extensions></trkpt>
      <trkpt lon="-3.155611" lat="53.000665"><ele>422.458557</ele><time>2021-09-01T11:41:11Z</time><extensions><speed>0.000000</speed><course>-1.000000</course><hAcc>0.891547</hAcc><vAcc>0.670346</vAcc></extensions></trkpt>
      <trkpt lon="-3.155611" lat="53.000665"><ele>422.458557</ele><time>2021-09-01T11:41:12Z</time><extensions><speed>0.000000</speed><course>-1.000000</course><hAcc>0.891864</hAcc><vAcc>0.671294</vAcc></extensions></trkpt>
      <trkpt lon="-3.155611" lat="53.000665"><ele>422.458557</ele><time>2021-09-01T11:41:13Z</time><extensions><speed>0.000000</speed><course>184.559082</course><hAcc>0.891701</hAcc><vAcc>0.671080</vAcc></extensions></trkpt>
      <trkpt lon="-3.155611" lat="53.000665"><ele>422.458557</ele><time>2021-09-01T11:41:14Z</time><extensions><speed>0.000000</speed><course>-1.000000</course><hAcc>0.891227</hAcc><vAcc>0.669807</vAcc></extensions></trkpt>
      <trkpt lon="-3.155611" lat="53.000665"><ele>422.458557</ele><time>2021-09-01T11:41:15Z</time><extensions><speed>0.000000</speed><course>-1.000000</course><hAcc>0.890529</hAcc><vAcc>0.667644</vAcc></extensions></trkpt>
      <trkpt lon="-3.155611" lat="53.000665"><ele>422.458557</ele><time>2021-09-01T11:41:16Z</time><extensions><speed>0.000000</speed><course>-1.000000</course><hAcc>0.889604</hAcc><vAcc>0.664808</vAcc></extensions></trkpt>
      <trkpt lon="-3.155611" lat="53.000665"><ele>422.458557</ele><time>2021-09-01T11:41:17Z</time><extensions><speed>0.000000</speed><course>-1.000000</course><hAcc>0.888396</hAcc><vAcc>0.661564</vAcc></extensions></trkpt>
      <trkpt lon="-3.155611" lat="53.000665"><ele>422.458557</ele><time>2021-09-01T11:41:18Z</time><extensions><speed>0.000000</speed><course>53.307610</course><hAcc>0.886901</hAcc><vAcc>0.658266</vAcc></extensions></trkpt>
      <trkpt lon="-3.155611" lat="53.000665"><ele>422.458557</ele><time>2021-09-01T11:41:19Z</time><extensions><speed>0.000000</speed><course>-1.000000</course><hAcc>0.885333</hAcc><vAcc>0.655435</vAcc></extensions></trkpt>
      <trkpt lon="-3.155611" lat="53.000665"><ele>422.458557</ele><time>2021-09-01T11:41:20Z</time><extensions><speed>0.000000</speed><course>-1.000000</course><hAcc>0.884390</hAcc><vAcc>0.653928</vAcc></extensions></trkpt>
      <trkpt lon="-3.155611" lat="53.000665"><ele>422.458557</ele><time>2021-09-01T11:41:21Z</time><extensions><speed>0.000000</speed><course>-1.000000</course><hAcc>0.885643</hAcc><vAcc>0.655177</vAcc></extensions></trkpt>
      <trkpt lon="-3.155611" lat="53.000665"><ele>422.458557</ele><time>2021-09-01T11:41:22Z</time><extensions><speed>0.000000</speed><course>120.394302</course><hAcc>0.892013</hAcc><vAcc>0.661498</vAcc></extensions></trkpt>
      <trkpt lon="-3.155611" lat="53.000665"><ele>422.458557</ele><time>2021-09-01T11:41:23Z</time><extensions><speed>0.000000</speed><course>-1.000000</course><hAcc>0.908243</hAcc><vAcc>0.676370</vAcc></extensions></trkpt>
      <trkpt lon="-3.155611" lat="53.000665"><ele>422.458557</ele><time>2021-09-01T11:41:24Z</time><extensions><speed>0.000000</speed><course>-1.000000</course><hAcc>0.941104</hAcc><vAcc>0.704502</vAcc></extensions></trkpt>
      <trkpt lon="-3.155611" lat="53.000665"><ele>422.458557</ele><time>2021-09-01T11:41:25Z</time><extensions><speed>0.000000</speed><course>-1.000000</course><hAcc>0.904262</hAcc><vAcc>0.672355</vAcc></extensions></trkpt>
      <trkpt lon="-3.155611" lat="53.000665"><ele>422.458557</ele><time>2021-09-01T11:41:26Z</time><extensions><speed>0.000000</speed><course>-1.000000</course><hAcc>0.889057</hAcc><vAcc>0.661723</vAcc></extensions></trkpt>
      <trkpt lon="-3.155611" lat="53.000665"><ele>422.458557</ele><time>2021-09-01T11:41:27Z</time><extensions><speed>0.000000</speed><course>-1.000000</course><hAcc>0.884312</hAcc><vAcc>0.658754</vAcc></extensions></trkpt>
      <trkpt lon="-3.155611" lat="53.000665"><ele>422.458557</ele><time>2021-09-01T11:41:28Z</time><extensions><speed>0.000000</speed><course>-1.000000</course><hAcc>0.884596</hAcc><vAcc>0.659556</vAcc></extensions></trkpt>
      <trkpt lon="-3.155611" lat="53.000665"><ele>422.458557</ele><time>2021-09-01T11:41:29Z</time><extensions><speed>0.000000</speed><course>-1.000000</course><hAcc>0.886629</hAcc><vAcc>0.661738</vAcc></extensions></trkpt>
      <trkpt lon="-3.155611" lat="53.000665"><ele>422.458557</ele><time>2021-09-01T11:41:30Z</time><extensions><speed>0.000000</speed><course>-1.000000</course><hAcc>0.888732</hAcc><vAcc>0.664065</vAcc></extensions></trkpt>
      <trkpt lon="-3.155611" lat="53.000665"><ele>422.458557</ele><time>2021-09-01T11:41:31Z</time><extensions><speed>0.000000</speed><course>-1.000000</course><hAcc>0.890264</hAcc><vAcc>0.666057</vAcc></extensions></trkpt>
      <trkpt lon="-3.155611" lat="53.000665"><ele>422.458557</ele><time>2021-09-01T11:41:32Z</time><extensions><speed>0.000000</speed><course>-1.000000</course><hAcc>0.891157</hAcc><vAcc>0.667651</vAcc></extensions></trkpt>
      <trkpt lon="-3.155611" lat="53.000665"><ele>422.458557</ele><time>2021-09-01T11:41:33Z</time><extensions><speed>0.000000</speed><course>-1.000000</course><hAcc>0.891596</hAcc><vAcc>0.668938</vAcc></extensions></trkpt>
      <trkpt lon="-3.155611" lat="53.000665"><ele>422.458557</ele><time>2021-09-01T11:41:34Z</time><extensions><speed>0.000000</speed><course>184.559082</course><hAcc>0.891802</hAcc><vAcc>0.669988</vAcc></extensions></trkpt>
      <trkpt lon="-3.155611" lat="53.000665"><ele>422.458557</ele><time>2021-09-01T11:41:35Z</time><extensions><speed>0.000000</speed><course>-1.000000</course><hAcc>0.891916</hAcc><vAcc>0.670780</vAcc></extensions></trkpt>
      <trkpt lon="-3.155611" lat="53.000665"><ele>422.458557</ele><time>2021-09-01T11:41:36Z</time><extensions><speed>0.000000</speed><course>-1.000000</course><hAcc>0.891954</hAcc><vAcc>0.671213</vAcc></extensions></trkpt>
      <trkpt lon="-3.155611" lat="53.000665"><ele>422.458557</ele><time>2021-09-01T11:41:37Z</time><extensions><speed>0.000000</speed><course>-1.000000</course><hAcc>0.891825</hAcc><vAcc>0.671164</vAcc></extensions></trkpt>
      <trkpt lon="-3.155611" lat="53.000665"><ele>422.458557</ele><time>2021-09-01T11:41:38Z</time><extensions><speed>0.000000</speed><course>-1.000000</course><hAcc>0.891387</hAcc><vAcc>0.670567</vAcc></extensions></trkpt>
      <trkpt lon="-3.155611" lat="53.000665"><ele>422.458557</ele><time>2021-09-01T11:41:39Z</time><extensions><speed>0.000000</speed><course>53.307610</course><hAcc>0.890565</hAcc><vAcc>0.669512</vAcc></extensions></trkpt>
      <trkpt lon="-3.155611" lat="53.000665"><ele>422.458557</ele><time>2021-09-01T11:41:40Z</time><extensions><speed>0.000000</speed><course>-1.000000</course><hAcc>0.889536</hAcc><vAcc>0.668388</vAcc></extensions></trkpt>
      <trkpt lon="-3.155611" lat="53.000665"><ele>422.458557</ele><time>2021-09-01T11:41:41Z</time><extensions><speed>0.000000</speed><course>-1.000000</course><hAcc>0.889009</hAcc><vAcc>0.668072</vAcc></extensions></trkpt>
      <trkpt lon="-3.155611" lat="53.000665"><ele>422.458557</ele><time>2021-09-01T11:41:42Z</time><extensions><speed>0.000000</speed><course>-1.000000</course><hAcc>0.890604</hAcc><vAcc>0.670180</vAcc></extensions></trkpt>
      <trkpt lon="-3.155611" lat="53.000665"><ele>422.458557</ele><time>2021-09-01T11:41:43Z</time><extensions><speed>0.000000</speed><course>120.394302</course><hAcc>0.897327</hAcc><vAcc>0.677345</vAcc></extensions></trkpt>
      <trkpt lon="-3.155611" lat="53.000665"><ele>422.458557</ele><time>2021-09-01T11:41:44Z</time><extensions><speed>0.000000</speed><course>-1.000000</course><hAcc>0.914018</hAcc><vAcc>0.693424</vAcc></extensions></trkpt>
      <trkpt lon="-3.155611" lat="53.000665"><ele>422.458557</ele><time>2021-09-01T11:41:45Z</time><extensions><speed>0.000000</speed><course>-1.000000</course><hAcc>0.947514</hAcc><vAcc>0.723429</vAcc></extensions></trkpt>
      <trkpt lon="-3.155611" lat="53.000665"><ele>422.458557</ele><time>2021-09-01T11:41:46Z</time><extensions><speed>0.000000</speed><course>-1.000000</course><hAcc>0.911177</hAcc><vAcc>0.692885</vAcc></extensions></trkpt>
      <trkpt lon="-3.155611" lat="53.000665"><ele>422.458557</ele><time>2021-09-01T11:41:47Z</time><extensions><speed>0.000000</speed><course>-1.000000</course><hAcc>0.895794</hAcc><vAcc>0.682140</vAcc></extensions></trkpt>
      <trkpt lon="-3.155611" lat="53.000665"><ele>422.458557</ele><time>2021-09-01T11:41:48Z</time><extensions><speed>0.000000</speed><course>-1.000000</course><hAcc>0.891281</hAcc><vAcc>0.680302</vAcc></extensions></trkpt>
      <trkpt lon="-3.155611" lat="53.000665"><ele>422.458557</ele><time>2021-09-01T11:41:49Z</time><extensions><speed>0.000000</speed><course>-1.000000</course><hAcc>0.892101</hAcc><vAcc>0.683080</vAcc></extensions></trkpt>
      <trkpt lon="-3.155611" lat="53.000665"><ele>422.458557</ele><time>2021-09-01T11:41:50Z</time><extensions><speed>0.000000</speed><course>-1.000000</course><hAcc>0.894854</hAcc><vAcc>0.687686</vAcc></extensions></trkpt>
      <trkpt lon="-3.155611" lat="53.000665"><ele>422.458557</ele><time>2021-09-01T11:41:51Z</time><extensions><speed>0.000000</speed><course>-1.000000</course><hAcc>0.897753</hAcc><vAcc>0.692534</vAcc></extensions></trkpt>
      <trkpt lon="-3.155611" lat="53.000665"><ele>422.458557</ele><time>2021-09-01T11:41:52Z</time><extensions><speed>0.000000</speed><course>-1.000000</course><hAcc>0.900057</hAcc><vAcc>0.696863</vAcc></extensions></trkpt>
      <trkpt lon="-3.155611" lat="53.000665"><ele>422.458557</ele><time>2021-09-01T11:41:53Z</time><extensions><speed>0.000000</speed><course>-1.000000</course><hAcc>0.901628</hAcc><vAcc>0.700411</vAcc></extensions></trkpt>
      <trkpt lon="-3.155611" lat="53.000665"><ele>422.458557</ele><time>2021-09-01T11:41:54Z</time><extensions><speed>0.000000</speed><course>-1.000000</course><hAcc>0.902606</hAcc><vAcc>0.703180</vAcc></extensions></trkpt>
      <trkpt lon="-3.155611" lat="53.000665"><ele>422.458557</ele><time>2021-09-01T11:41:55Z</time><extensions><speed>0.000000</speed><course>184.559082</course><hAcc>0.903207</hAcc><vAcc>0.705267</vAcc></extensions></trkpt>
      <trkpt lon="-3.155611" lat="53.000665"><ele>422.458557</ele><time>2021-09-01T11:41:56Z</time><extensions><speed>0.000000</speed><course>-1.000000</course><hAcc>0.903593</hAcc><vAcc>0.706774</vAcc></extensions></trkpt>
      <trkpt lon="-3.155611" lat="53.000665"><ele>422.458557</ele><time>2021-09-01T11:41:57Z</time><extensions><speed>0.000000</speed><course>-1.000000</course><hAcc>0.903823</hAcc><vAcc>0.707763</vAcc></extensions></trkpt>
      <trkpt lon="-3.155611" lat="53.000665"><ele>422.458557</ele><time>2021-09-01T11:41:58Z</time><extensions><speed>0.000000</speed><course>-1.000000</course><hAcc>0.903849</hAcc><vAcc>0.708257</vAcc></extensions></trkpt>
      <trkpt lon="-3.155611" lat="53.000665"><ele>422.458557</ele><time>2021-09-01T11:41:59Z</time><extensions><speed>0.000000</speed><course>-1.000000</course><hAcc>0.903569</hAcc><vAcc>0.708288</vAcc></extensions></trkpt>
      <trkpt lon="-3.155611" lat="53.000665"><ele>422.458557</ele><time>2021-09-01T11:42:00Z</time><extensions><speed>0.000000</speed><course>53.307610</course><hAcc>0.902941</hAcc><vAcc>0.707991</vAcc></extensions></trkpt>
      <trkpt lon="-3.155611" lat="53.000665"><ele>422.458557</ele><time>2021-09-01T11:42:01Z</time><extensions><speed>0.000000</speed><course>-1.000000</course><hAcc>0.902166</hAcc><vAcc>0.707752</vAcc></extensions></trkpt>
      <trkpt lon="-3.155611" lat="53.000665"><ele>422.458557</ele><time>2021-09-01T11:42:02Z</time><extensions><speed>0.000000</speed><course>-1.000000</course><hAcc>0.901967</hAcc><vAcc>0.708406</vAcc></extensions></trkpt>
      <trkpt lon="-3.155611" lat="53.000665"><ele>422.458557</ele><time>2021-09-01T11:42:03Z</time><extensions><speed>0.000000</speed><course>-1.000000</course><hAcc>0.903966</hAcc><vAcc>0.711504</vAcc></extensions></trkpt>
      <trkpt lon="-3.155611" lat="53.000665"><ele>422.458557</ele><time>2021-09-01T11:42:04Z</time><extensions><speed>0.000000</speed><course>120.394302</course><hAcc>0.911152</hAcc><vAcc>0.719577</vAcc></extensions></trkpt>
      <trkpt lon="-3.155611" lat="53.000665"><ele>422.458557</ele><time>2021-09-01T11:42:05Z</time><extensions><speed>0.000000</speed><course>-1.000000</course><hAcc>0.928312</hAcc><vAcc>0.736341</vAcc></extensions></trkpt>
      <trkpt lon="-3.155611" lat="53.000665"><ele>422.458557</ele><time>2021-09-01T11:42:06Z</time><extensions><speed>0.000000</speed><course>-1.000000</course><hAcc>0.962194</hAcc><vAcc>0.766639</vAcc></extensions></trkpt>
      <trkpt lon="-3.155611" lat="53.000665"><ele>422.458557</ele><time>2021-09-01T11:42:07Z</time><extensions><speed>0.000000</speed><course>-1.000000</course><hAcc>0.925448</hAcc><vAcc>0.734359</vAcc></extensions></trkpt>
      <trkpt lon="-3.155611" lat="53.000665"><ele>422.458557</ele><time>2021-09-01T11:42:08Z</time><extensions><speed>0.000000</speed><course>-1.000000</course><hAcc>0.906854</hAcc><vAcc>0.714455</vAcc></extensions></trkpt>
      <trkpt lon="-3.155611" lat="53.000665"><ele>422.458557</ele><time>2021-09-01T11:42:09Z</time><extensions><speed>0.000000</speed><course>-1.000000</course><hAcc>0.899496</hAcc><vAcc>0.704470</vAcc></extensions></trkpt>
      <trkpt lon="-3.155611" lat="53.000665"><ele>422.458557</ele><time>2021-09-01T11:42:10Z</time><extensions><speed>0.000000</speed><course>-1.000000</course><hAcc>0.897896</hAcc><vAcc>0.700244</vAcc></extensions></trkpt>
      <trkpt lon="-3.155611" lat="53.000665"><ele>422.458557</ele><time>2021-09-01T11:42:11Z</time><extensions><speed>0.000000</speed><course>-1.000000</course><hAcc>0.898631</hAcc><vAcc>0.698913</vAcc></extensions></trkpt>
      <trkpt lon="-3.155611" lat="53.000665"><ele>422.458557</ele><time>2021-09-01T11:42:12Z</time><extensions><speed>0.000000</speed><course>-1.000000</course><hAcc>0.899851</hAcc><vAcc>0.698731</vAcc></extensions></trkpt>
      <trkpt lon="-3.155611" lat="53.000665"><ele>422.458557</ele><time>2021-09-01T11:42:13Z</time><extensions><speed>0.000000</speed><course>-1.000000</course><hAcc>0.900755</hAcc><vAcc>0.698777</vAcc></extensions></trkpt>
      <trkpt lon="-3.155611" lat="53.000665"><ele>422.458557</ele><time>2021-09-01T11:42:14Z</time><extensions><speed>0.000000</speed><course>-1.000000</course><hAcc>0.901157</hAcc><vAcc>0.698675</vAcc></extensions></trkpt>
      <trkpt lon="-3.155611" lat="53.000665"><ele>422.458557</ele><time>2021-09-01T11:42:15Z</time><extensions><speed>0.000000</speed><course>-1.000000</course><hAcc>0.901168</hAcc><vAcc>0.698363</vAcc></extensions></trkpt>
      <trkpt lon="-3.155611" lat="53.000665"><ele>422.458557</ele><time>2021-09-01T11:42:16Z</time><extensions><speed>0.000000</speed><course>184.559082</course><hAcc>0.900987</hAcc><vAcc>0.697928</vAcc></extensions></trkpt>
      <trkpt lon="-3.155611" lat="53.000665"><ele>422.458557</ele><time>2021-09-01T11:42:17Z</time><extensions><speed>0.000000</speed><course>-1.000000</course><hAcc>0.900773</hAcc><vAcc>0.697489</vAcc></extensions></trkpt>
      <trkpt lon="-3.155611" lat="53.000665"><ele>422.458557</ele><time>2021-09-01T11:42:18Z</time><extensions><speed>0.000000</speed><course>-1.000000</course><hAcc>0.900585</hAcc><vAcc>0.697133</vAcc></extensions></trkpt>
      <trkpt lon="-3.155611" lat="53.000665"><ele>422.458557</ele><time>2021-09-01T11:42:19Z</time><extensions><speed>0.000000</speed><course>-1.000000</course><hAcc>0.900373</hAcc><vAcc>0.696890</vAcc></extensions></trkpt>
      <trkpt lon="-3.155611" lat="53.000665"><ele>422.458557</ele><time>2021-09-01T11:42:20Z</time><extensions><speed>0.000000</speed><course>-1.000000</course><hAcc>0.900026</hAcc><vAcc>0.696759</vAcc></extensions></trkpt>
      <trkpt lon="-3.155611" lat="53.000665"><ele>422.458557</ele><time>2021-09-01T11:42:21Z</time><extensions><speed>0.000000</speed><course>53.307610</course><hAcc>0.899485</hAcc><vAcc>0.696800</vAcc></extensions></trkpt>
      <trkpt lon="-3.155611" lat="53.000665"><ele>422.458557</ele><time>2021-09-01T11:42:22Z</time><extensions><speed>0.000000</speed><course>-1.000000</course><hAcc>0.898935</hAcc><vAcc>0.697316</vAcc></extensions></trkpt>
      <trkpt lon="-3.155611" lat="53.000665"><ele>422.458557</ele><time>2021-09-01T11:42:23Z</time><extensions><speed>0.000000</speed><course>-1.000000</course><hAcc>0.899088</hAcc><vAcc>0.699089</vAcc></extensions></trkpt>
      <trkpt lon="-3.155611" lat="53.000665"><ele>422.458557</ele><time>2021-09-01T11:42:24Z</time><extensions><speed>0.000000</speed><course>-1.000000</course><hAcc>0.901561</hAcc><vAcc>0.703652</vAcc></extensions></trkpt>
      <trkpt lon="-3.155611" lat="53.000665"><ele>422.458557</ele><time>2021-09-01T11:42:25Z</time><extensions><speed>0.000000</speed><course>120.394302</course><hAcc>0.909345</hAcc><vAcc>0.713548</vAcc></extensions></trkpt>
      <trkpt lon="-3.155611" lat="53.000665"><ele>422.458557</ele><time>2021-09-01T11:42:26Z</time><extensions><speed>0.000000</speed><course>-1.000000</course><hAcc>0.927225</hAcc><vAcc>0.732509</vAcc></extensions></trkpt>
      <trkpt lon="-3.155611" lat="53.000665"><ele>422.458557</ele><time>2021-09-01T11:42:27Z</time><extensions><speed>0.000000</speed><course>-1.000000</course><hAcc>0.961930</hAcc><vAcc>0.765357</vAcc></extensions></trkpt>
      <trkpt lon="-3.155611" lat="53.000665"><ele>422.458557</ele><time>2021-09-01T11:42:28Z</time><extensions><speed>0.000000</speed><course>-1.000000</course><hAcc>0.925167</hAcc><vAcc>0.733580</vAcc></extensions></trkpt>
      <trkpt lon="-3.155611" lat="53.000665"><ele>422.458557</ele><time>2021-09-01T11:42:29Z</time><extensions><speed>0.000000</speed><course>-1.000000</course><hAcc>0.907696</hAcc><vAcc>0.717069</vAcc></extensions></trkpt>
      <trkpt lon="-3.155611" lat="53.000665"><ele>422.458557</ele><time>2021-09-01T11:42:30Z</time><extensions><speed>0.000000</speed><course>-1.000000</course><hAcc>0.901437</hAcc><vAcc>0.710451</vAcc></extensions></trkpt>
      <trkpt lon="-3.155611" lat="53.000665"><ele>422.458557</ele><time>2021-09-01T11:42:31Z</time><extensions><speed>0.000000</speed><course>-1.000000</course><hAcc>0.900881</hAcc><vAcc>0.709465</vAcc></extensions></trkpt>
      <trkpt lon="-3.155611" lat="53.000665"><ele>422.458557</ele><time>2021-09-01T11:42:32Z</time><extensions><speed>0.000000</speed><course>-1.000000</course><hAcc>0.902591</hAcc><vAcc>0.711186</vAcc></extensions></trkpt>
      <trkpt lon="-3.155611" lat="53.000665"><ele>422.458557</ele><time>2021-09-01T11:42:33Z</time><extensions><speed>0.000000</speed><course>-1.000000</course><hAcc>0.904703</hAcc><vAcc>0.713823</vAcc></extensions></trkpt>
      <trkpt lon="-3.155611" lat="53.000665"><ele>422.458557</ele><time>2021-09-01T11:42:34Z</time><extensions><speed>0.000000</speed><course>-1.000000</course><hAcc>0.906400</hAcc><vAcc>0.716404</vAcc></extensions></trkpt>
      <trkpt lon="-3.155611" lat="53.000665"><ele>422.458557</ele><time>2021-09-01T11:42:35Z</time><extensions><speed>0.000000</speed><course>-1.000000</course><hAcc>0.907472</hAcc><vAcc>0.718487</vAcc></extensions></trkpt>
      <trkpt lon="-3.155611" lat="53.000665"><ele>422.458557</ele><time>2021-09-01T11:42:36Z</time><extensions><speed>0.000000</speed><course>-1.000000</course><hAcc>0.908000</hAcc><vAcc>0.719917</vAcc></extensions></trkpt>
      <trkpt lon="-3.155611" lat="53.000665"><ele>422.458557</ele><time>2021-09-01T11:42:37Z</time><extensions><speed>0.000000</speed><course>184.559082</course><hAcc>0.908148</hAcc><vAcc>0.720672</vAcc></extensions></trkpt>
      <trkpt lon="-3.155611" lat="53.000665"><ele>422.458557</ele><time>2021-09-01T11:42:38Z</time><extensions><speed>0.000000</speed><course>-1.000000</course><hAcc>0.908047</hAcc><vAcc>0.720751</vAcc></extensions></trkpt>
      <trkpt lon="-3.155611" lat="53.000665"><ele>422.458557</ele><time>2021-09-01T11:42:39Z</time><extensions><speed>0.000000</speed><course>-1.000000</course><hAcc>0.907728</hAcc><vAcc>0.720130</vAcc></extensions></trkpt>
      <trkpt lon="-3.155611" lat="53.000665"><ele>422.458557</ele><time>2021-09-01T11:42:40Z</time><extensions><speed>0.000000</speed><course>-1.000000</course><hAcc>0.907125</hAcc><vAcc>0.718760</vAcc></extensions></trkpt>
      <trkpt lon="-3.155611" lat="53.000665"><ele>422.458557</ele><time>2021-09-01T11:42:41Z</time><extensions><speed>0.000000</speed><course>-1.000000</course><hAcc>0.906127</hAcc><vAcc>0.716616</vAcc></extensions></trkpt>
      <trkpt lon="-3.155611" lat="53.000665"><ele>422.458557</ele><time>2021-09-01T11:42:42Z</time><extensions><speed>0.000000</speed><course>53.307610</course><hAcc>0.904685</hAcc><vAcc>0.713795</vAcc></extensions></trkpt>
      <trkpt lon="-3.155611" lat="53.000665"><ele>422.458557</ele><time>2021-09-01T11:42:43Z</time><extensions><speed>0.000000</speed><course>-1.000000</course><hAcc>0.902996</hAcc><vAcc>0.710678</vAcc></extensions></trkpt>
      <trkpt lon="-3.155611" lat="53.000665"><ele>422.458557</ele><time>2021-09-01T11:42:44Z</time><extensions><speed>0.000000</speed><course>-1.000000</course><hAcc>0.901781</hAcc><vAcc>0.708129</vAcc></extensions></trkpt>
      <trkpt lon="-3.155611" lat="53.000665"><ele>422.458557</ele><time>2021-09-01T11:42:45Z</time><extensions><speed>0.000000</speed><course>-1.000000</course><hAcc>0.902665</hAcc><vAcc>0.707752</vAcc></extensions></trkpt>
      <trkpt lon="-3.155611" lat="53.000665"><ele>422.458557</ele><time>2021-09-01T11:42:46Z</time><extensions><speed>0.000000</speed><course>120.394302</course><hAcc>0.908649</hAcc><vAcc>0.712165</vAcc></extensions></trkpt>
      <trkpt lon="-3.155611" lat="53.000665"><ele>422.458557</ele><time>2021-09-01T11:42:47Z</time><extensions><speed>0.000000</speed><course>-1.000000</course><hAcc>0.924558</hAcc><vAcc>0.725214</vAcc></extensions></trkpt>
      <trkpt lon="-3.155611" lat="53.000665"><ele>422.458557</ele><time>2021-09-01T11:42:48Z</time><extensions><speed>0.000000</speed><course>-1.000000</course><hAcc>0.957211</hAcc><vAcc>0.751940</vAcc></extensions></trkpt>
      <trkpt lon="-3.155611" lat="53.000665"><ele>422.458557</ele><time>2021-09-01T11:42:49Z</time><extensions><speed>0.000000</speed><course>-1.000000</course><hAcc>0.921320</hAcc><vAcc>0.720546</vAcc></extensions></trkpt>
      <trkpt lon="-3.155611" lat="53.000665"><ele>422.458557</ele><time>2021-09-01T11:42:50Z</time><extensions><speed>0.000000</speed><course>-1.000000</course><hAcc>0.903468</hAcc><vAcc>0.701490</vAcc></extensions></trkpt>
      <trkpt lon="-3.155611" lat="53.000665"><ele>422.458557</ele><time>2021-09-01T11:42:51Z</time><extensions><speed>0.000000</speed><course>-1.000000</course><hAcc>0.897038</hAcc><vAcc>0.692564</vAcc></extensions></trkpt>
      <trkpt lon="-3.155611" lat="53.000665"><ele>422.458557</ele><time>2021-09-01T11:42:51Z</time><extensions><speed>0.000000</speed><course>-1.000000</course><hAcc>0.896565</hAcc><vAcc>0.689531</vAcc></extensions></trkpt>
      <trkpt lon="-3.155611" lat="53.000665"><ele>422.458557</ele><time>2021-09-01T11:42:52Z</time><extensions><speed>0.000000</speed><course>-1.000000</course><hAcc>0.898638</hAcc><vAcc>0.689459</vAcc></extensions></trkpt>
      <trkpt lon="-3.155611" lat="53.000665"><ele>422.458557</ele><time>2021-09-01T11:42:53Z</time><extensions><speed>0.000000</speed><course>-1.000000</course><hAcc>0.901403</hAcc><vAcc>0.690550</vAcc></extensions></trkpt>
      <trkpt lon="-3.155611" lat="53.000665"><ele>422.458557</ele><time>2021-09-01T11:42:54Z</time><extensions><speed>0.000000</speed><course>-1.000000</course><hAcc>0.904062</hAcc><vAcc>0.691847</vAcc></extensions></trkpt>
      <trkpt lon="-3.155611" lat="53.000665"><ele>422.458557</ele><time>2021-09-01T11:42:56Z</time><extensions><speed>0.000000</speed><course>-1.000000</course><hAcc>0.906391</hAcc><vAcc>0.692922</vAcc></extensions></trkpt>
      <trkpt lon="-3.155611" lat="53.000665"><ele>422.458557</ele><time>2021-09-01T11:42:57Z</time><extensions><speed>0.000000</speed><course>-1.000000</course><hAcc>0.908460</hAcc><vAcc>0.693664</vAcc></extensions></trkpt>
      <trkpt lon="-3.155611" lat="53.000665"><ele>422.458557</ele><time>2021-09-01T11:42:57Z</time><extensions><speed>0.000000</speed><course>184.559082</course><hAcc>0.910460</hAcc><vAcc>0.694120</vAcc></extensions></trkpt>
      <trkpt lon="-3.155611" lat="53.000665"><ele>422.458557</ele><time>2021-09-01T11:42:58Z</time><extensions><speed>0.000000</speed><course>-1.000000</course><hAcc>0.912490</hAcc><vAcc>0.694333</vAcc></extensions></trkpt>
      <trkpt lon="-3.155611" lat="53.000665"><ele>422.458557</ele><time>2021-09-01T11:42:59Z</time><extensions><speed>0.000000</speed><course>-1.000000</course><hAcc>0.914483</hAcc><vAcc>0.694295</vAcc></extensions></trkpt>
      <trkpt lon="-3.155611" lat="53.000665"><ele>422.458557</ele><time>2021-09-01T11:43:00Z</time><extensions><speed>0.000000</speed><course>-1.000000</course><hAcc>0.916239</hAcc><vAcc>0.693973</vAcc></extensions></trkpt>
      <trkpt lon="-3.155611" lat="53.000665"><ele>422.458557</ele><time>2021-09-01T11:43:01Z</time><extensions><speed>0.000000</speed><course>-1.000000</course><hAcc>0.917467</hAcc><vAcc>0.693338</vAcc></extensions></trkpt>
      <trkpt lon="-3.155611" lat="53.000665"><ele>422.458557</ele><time>2021-09-01T11:43:02Z</time><extensions><speed>0.000000</speed><course>53.307610</course><hAcc>0.917933</hAcc><vAcc>0.692470</vAcc></extensions></trkpt>
      <trkpt lon="-3.155611" lat="53.000665"><ele>422.458557</ele><time>2021-09-01T11:43:04Z</time><extensions><speed>0.000000</speed><course>-1.000000</course><hAcc>0.917645</hAcc><vAcc>0.691684</vAcc></extensions></trkpt>
      <trkpt lon="-3.155611" lat="53.000665"><ele>422.458557</ele><time>2021-09-01T11:43:05Z</time><extensions><speed>0.000000</speed><course>-1.000000</course><hAcc>0.917187</hAcc><vAcc>0.691755</vAcc></extensions></trkpt>
      <trkpt lon="-3.155611" lat="53.000665"><ele>422.458557</ele><time>2021-09-01T11:43:06Z</time><extensions><speed>0.000000</speed><course>-1.000000</course><hAcc>0.918122</hAcc><vAcc>0.694178</vAcc></extensions></trkpt>
      <trkpt lon="-3.155611" lat="53.000665"><ele>422.458557</ele><time>2021-09-01T11:43:07Z</time><extensions><speed>0.000000</speed><course>120.394302</course><hAcc>0.923442</hAcc><vAcc>0.701429</vAcc></extensions></trkpt>
      <trkpt lon="-3.155611" lat="53.000665"><ele>422.458557</ele><time>2021-09-01T11:43:08Z</time><extensions><speed>0.000000</speed><course>-1.000000</course><hAcc>0.938067</hAcc><vAcc>0.717191</vAcc></extensions></trkpt>
      <trkpt lon="-3.155611" lat="53.000665"><ele>422.458557</ele><time>2021-09-01T11:43:09Z</time><extensions><speed>0.000000</speed><course>-1.000000</course><hAcc>0.969013</hAcc><vAcc>0.746314</vAcc></extensions></trkpt>
      <trkpt lon="-3.155611" lat="53.000665"><ele>422.458557</ele><time>2021-09-01T11:43:10Z</time><extensions><speed>0.000000</speed><course>-1.000000</course><hAcc>0.934441</hAcc><vAcc>0.717297</vAcc></extensions></trkpt>
      <trkpt lon="-3.155611" lat="53.000665"><ele>422.458557</ele><time>2021-09-01T11:43:11Z</time><extensions><speed>0.000000</speed><course>-1.000000</course><hAcc>0.912363</hAcc><vAcc>0.701042</vAcc></extensions></trkpt>
      <trkpt lon="-3.155611" lat="53.000665"><ele>422.458557</ele><time>2021-09-01T11:43:12Z</time><extensions><speed>0.000000</speed><course>-1.000000</course><hAcc>0.902794</hAcc><vAcc>0.694623</vAcc></extensions></trkpt>
      <trkpt lon="-3.155611" lat="53.000665"><ele>422.458557</ele><time>2021-09-01T11:43:13Z</time><extensions><speed>0.000000</speed><course>-1.000000</course><hAcc>0.900020</hAcc><vAcc>0.693865</vAcc></extensions></trkpt>
      <trkpt lon="-3.155611" lat="53.000665"><ele>422.458557</ele><time>2021-09-01T11:43:14Z</time><extensions><speed>0.000000</speed><course>-1.000000</course><hAcc>0.900350</hAcc><vAcc>0.695937</vAcc></extensions></trkpt>
      <trkpt lon="-3.155611" lat="53.000665"><ele>422.458557</ele><time>2021-09-01T11:43:15Z</time><extensions><speed>0.000000</speed><course>-1.000000</course><hAcc>0.901691</hAcc><vAcc>0.699107</vAcc></extensions></trkpt>
      <trkpt lon="-3.155611" lat="53.000665"><ele>422.458557</ele><time>2021-09-01T11:43:16Z</time><extensions><speed>0.000000</speed><course>-1.000000</course><hAcc>0.903041</hAcc><vAcc>0.702414</vAcc></extensions></trkpt>
      <trkpt lon="-3.155611" lat="53.000665"><ele>422.458557</ele><time>2021-09-01T11:43:17Z</time><extensions><speed>0.000000</speed><course>-1.000000</course><hAcc>0.904046</hAcc><vAcc>0.705382</vAcc></extensions></trkpt>
      <trkpt lon="-3.155611" lat="53.000665"><ele>422.458557</ele><time>2021-09-01T11:43:18Z</time><extensions><speed>0.000000</speed><course>-1.000000</course><hAcc>0.904688</hAcc><vAcc>0.707812</vAcc></extensions></trkpt>
      <trkpt lon="-3.155611" lat="53.000665"><ele>422.458557</ele><time>2021-09-01T11:43:19Z</time><extensions><speed>0.000000</speed><course>184.559082</course><hAcc>0.905064</hAcc><vAcc>0.709638</vAcc></extensions></trkpt>
      <trkpt lon="-3.155611" lat="53.000665"><ele>422.458557</ele><time>2021-09-01T11:43:20Z</time><extensions><speed>0.000000</speed><course>-1.000000</course><hAcc>0.905253</hAcc><vAcc>0.710835</vAcc></extensions></trkpt>
      <trkpt lon="-3.155611" lat="53.000665"><ele>422.458557</ele><time>2021-09-01T11:43:21Z</time><extensions><speed>0.000000</speed><course>-1.000000</course><hAcc>0.905256</hAcc><vAcc>0.711360</vAcc></extensions></trkpt>
      <trkpt lon="-3.155611" lat="53.000665"><ele>422.458557</ele><time>2021-09-01T11:43:22Z</time><extensions><speed>0.000000</speed><course>-1.000000</course><hAcc>0.904985</hAcc><vAcc>0.711149</vAcc></extensions></trkpt>
      <trkpt lon="-3.155611" lat="53.000665"><ele>422.458557</ele><time>2021-09-01T11:43:23Z</time><extensions><speed>0.000000</speed><course>-1.000000</course><hAcc>0.904309</hAcc><vAcc>0.710150</vAcc></extensions></trkpt>
      <trkpt lon="-3.155611" lat="53.000665"><ele>422.458557</ele><time>2021-09-01T11:43:24Z</time><extensions><speed>0.000000</speed><course>53.307610</course><hAcc>0.903166</hAcc><vAcc>0.708415</vAcc></extensions></trkpt>
      <trkpt lon="-3.155611" lat="53.000665"><ele>422.458557</ele><time>2021-09-01T11:43:25Z</time><extensions><speed>0.000000</speed><course>-1.000000</course><hAcc>0.901747</hAcc><vAcc>0.706224</vAcc></extensions></trkpt>
      <trkpt lon="-3.155611" lat="53.000665"><ele>422.458557</ele><time>2021-09-01T11:43:26Z</time><extensions><speed>0.000000</speed><course>-1.000000</course><hAcc>0.900775</hAcc><vAcc>0.704299</vAcc></extensions></trkpt>
      <trkpt lon="-3.155611" lat="53.000665"><ele>422.458557</ele><time>2021-09-01T11:43:27Z</time><extensions><speed>0.000000</speed><course>-1.000000</course><hAcc>0.901889</hAcc><vAcc>0.704071</vAcc></extensions></trkpt>
      <trkpt lon="-3.155611" lat="53.000665"><ele>422.458557</ele><time>2021-09-01T11:43:28Z</time><extensions><speed>0.000000</speed><course>120.394302</course><hAcc>0.908122</hAcc><vAcc>0.707999</vAcc></extensions></trkpt>
      <trkpt lon="-3.155611" lat="53.000665"><ele>422.458557</ele><time>2021-09-01T11:43:29Z</time><extensions><speed>0.000000</speed><course>-1.000000</course><hAcc>0.924348</hAcc><vAcc>0.719829</vAcc></extensions></trkpt>
      <trkpt lon="-3.155611" lat="53.000665"><ele>422.458557</ele><time>2021-09-01T11:43:30Z</time><extensions><speed>0.000000</speed><course>-1.000000</course><hAcc>0.957436</hAcc><vAcc>0.744606</vAcc></extensions></trkpt>
      <trkpt lon="-3.155611" lat="53.000665"><ele>422.458557</ele><time>2021-09-01T11:43:31Z</time><extensions><speed>0.000000</speed><course>-1.000000</course><hAcc>0.921748</hAcc><vAcc>0.714863</vAcc></extensions></trkpt>
      <trkpt lon="-3.155611" lat="53.000665"><ele>422.458557</ele><time>2021-09-01T11:43:32Z</time><extensions><speed>0.000000</speed><course>-1.000000</course><hAcc>0.903511</hAcc><vAcc>0.692454</vAcc></extensions></trkpt>
      <trkpt lon="-3.155611" lat="53.000665"><ele>422.458557</ele><time>2021-09-01T11:43:33Z</time><extensions><speed>0.000000</speed><course>-1.000000</course><hAcc>0.896524</hAcc><vAcc>0.679974</vAcc></extensions></trkpt>
      <trkpt lon="-3.155611" lat="53.000665"><ele>422.458557</ele><time>2021-09-01T11:43:34Z</time><extensions><speed>0.000000</speed><course>-1.000000</course><hAcc>0.895233</hAcc><vAcc>0.673210</vAcc></extensions></trkpt>
      <trkpt lon="-3.155611" lat="53.000665"><ele>422.458557</ele><time>2021-09-01T11:43:35Z</time><extensions><speed>0.000000</speed><course>-1.000000</course><hAcc>0.896161</hAcc><vAcc>0.669244</vAcc></extensions></trkpt>
      <trkpt lon="-3.155611" lat="53.000665"><ele>422.458557</ele><time>2021-09-01T11:43:36Z</time><extensions><speed>0.000000</speed><course>-1.000000</course><hAcc>0.897427</hAcc><vAcc>0.666300</vAcc></extensions></trkpt>
      <trkpt lon="-3.155611" lat="53.000665"><ele>422.458557</ele><time>2021-09-01T11:43:37Z</time><extensions><speed>0.000000</speed><course>-1.000000</course><hAcc>0.898225</hAcc><vAcc>0.663470</vAcc></extensions></trkpt>
      <trkpt lon="-3.155611" lat="53.000665"><ele>422.458557</ele><time>2021-09-01T11:43:38Z</time><extensions><speed>0.000000</speed><course>-1.000000</course><hAcc>0.898376</hAcc><vAcc>0.660446</vAcc></extensions></trkpt>
      <trkpt lon="-3.155611" lat="53.000665"><ele>422.458557</ele><time>2021-09-01T11:43:39Z</time><extensions><speed>0.000000</speed><course>-1.000000</course><hAcc>0.898013</hAcc><vAcc>0.657285</vAcc></extensions></trkpt>
      <trkpt lon="-3.155611" lat="53.000665"><ele>422.458557</ele><time>2021-09-01T11:43:40Z</time><extensions><speed>0.000000</speed><course>184.559082</course><hAcc>0.897365</hAcc><vAcc>0.654212</vAcc></extensions></trkpt>
      <trkpt lon="-3.155611" lat="53.000665"><ele>422.458557</ele><time>2021-09-01T11:43:41Z</time><extensions><speed>0.000000</speed><course>-1.000000</course><hAcc>0.896614</hAcc><vAcc>0.651479</vAcc></extensions></trkpt>
      <trkpt lon="-3.155611" lat="53.000665"><ele>422.458557</ele><time>2021-09-01T11:43:42Z</time><extensions><speed>0.000000</speed><course>-1.000000</course><hAcc>0.895828</hAcc><vAcc>0.649272</vAcc></extensions></trkpt>
      <trkpt lon="-3.155611" lat="53.000665"><ele>422.458557</ele><time>2021-09-01T11:43:43Z</time><extensions><speed>0.000000</speed><course>-1.000000</course><hAcc>0.894948</hAcc><vAcc>0.647676</vAcc></extensions></trkpt>
      <trkpt lon="-3.155611" lat="53.000665"><ele>422.458557</ele><time>2021-09-01T11:43:44Z</time><extensions><speed>0.000000</speed><course>-1.000000</course><hAcc>0.893848</hAcc><vAcc>0.646710</vAcc></extensions></trkpt>
      <trkpt lon="-3.155611" lat="53.000665"><ele>422.458557</ele><time>2021-09-01T11:43:45Z</time><extensions><speed>0.000000</speed><course>53.307610</course><hAcc>0.892459</hAcc><vAcc>0.646437</vAcc></extensions></trkpt>
      <trkpt lon="-3.155611" lat="53.000665"><ele>422.458557</ele><time>2021-09-01T11:43:46Z</time><extensions><speed>0.000000</speed><course>-1.000000</course><hAcc>0.890955</hAcc><vAcc>0.647118</vAcc></extensions></trkpt>
      <trkpt lon="-3.155611" lat="53.000665"><ele>422.458557</ele><time>2021-09-01T11:43:47Z</time><extensions><speed>0.000000</speed><course>-1.000000</course><hAcc>0.890032</hAcc><vAcc>0.649425</vAcc></extensions></trkpt>
      <trkpt lon="-3.155611" lat="53.000665"><ele>422.458557</ele><time>2021-09-01T11:43:48Z</time><extensions><speed>0.000000</speed><course>-1.000000</course><hAcc>0.891298</hAcc><vAcc>0.654706</vAcc></extensions></trkpt>
      <trkpt lon="-3.155611" lat="53.000665"><ele>422.458557</ele><time>2021-09-01T11:43:49Z</time><extensions><speed>0.000000</speed><course>120.394302</course><hAcc>0.897749</hAcc><vAcc>0.665266</vAcc></extensions></trkpt>
      <trkpt lon="-3.155611" lat="53.000665"><ele>422.458557</ele><time>2021-09-01T11:43:50Z</time><extensions><speed>0.000000</speed><course>-1.000000</course><hAcc>0.914216</hAcc><vAcc>0.684576</vAcc></extensions></trkpt>
      <trkpt lon="-3.155611" lat="53.000665"><ele>422.458557</ele><time>2021-09-01T11:43:51Z</time><extensions><speed>0.000000</speed><course>-1.000000</course><hAcc>0.947517</hAcc><vAcc>0.717264</vAcc></extensions></trkpt>
      <trkpt lon="-3.155611" lat="53.000665"><ele>422.458557</ele><time>2021-09-01T11:43:52Z</time><extensions><speed>0.000000</speed><course>-1.000000</course><hAcc>0.911019</hAcc><vAcc>0.687161</vAcc></extensions></trkpt>
      <trkpt lon="-3.155611" lat="53.000665"><ele>422.458557</ele><time>2021-09-01T11:43:53Z</time><extensions><speed>0.000000</speed><course>-1.000000</course><hAcc>0.895540</hAcc><vAcc>0.678474</vAcc></extensions></trkpt>
      <trkpt lon="-3.155611" lat="53.000665"><ele>422.458557</ele><time>2021-09-01T11:43:54Z</time><extensions><speed>0.000000</speed><course>-1.000000</course><hAcc>0.890920</hAcc><vAcc>0.677709</vAcc></extensions></trkpt>
      <trkpt lon="-3.155611" lat="53.000665"><ele>422.458557</ele><time>2021-09-01T11:43:55Z</time><extensions><speed>0.000000</speed><course>-1.000000</course><hAcc>0.891615</hAcc><vAcc>0.680852</vAcc></extensions></trkpt>
      <trkpt lon="-3.155611" lat="53.000665"><ele>422.458557</ele><time>2021-09-01T11:43:56Z</time><extensions><speed>0.000000</speed><course>-1.000000</course><hAcc>0.894225</hAcc><vAcc>0.685378</vAcc></extensions></trkpt>
      <trkpt lon="-3.155611" lat="53.000665"><ele>422.458557</ele><time>2021-09-01T11:43:57Z</time><extensions><speed>0.000000</speed><course>-1.000000</course><hAcc>0.896963</hAcc><vAcc>0.689898</vAcc></extensions></trkpt>
      <trkpt lon="-3.155611" lat="53.000665"><ele>422.458557</ele><time>2021-09-01T11:43:58Z</time><extensions><speed>0.000000</speed><course>-1.000000</course><hAcc>0.899092</hAcc><vAcc>0.693771</vAcc></extensions></trkpt>
      <trkpt lon="-3.155611" lat="53.000665"><ele>422.458557</ele><time>2021-09-01T11:43:59Z</time><extensions><speed>0.000000</speed><course>-1.000000</course><hAcc>0.900474</hAcc><vAcc>0.696802</vAcc></extensions></trkpt>
      <trkpt lon="-3.155611" lat="53.000665"><ele>422.458557</ele><time>2021-09-01T11:44:00Z</time><extensions><speed>0.000000</speed><course>-1.000000</course><hAcc>0.901254</hAcc><vAcc>0.699012</vAcc></extensions></trkpt>
      <trkpt lon="-3.155611" lat="53.000665"><ele>422.458557</ele><time>2021-09-01T11:44:01Z</time><extensions><speed>0.000000</speed><course>184.559082</course><hAcc>0.901652</hAcc><vAcc>0.700503</vAcc></extensions></trkpt>
      <trkpt lon="-3.155611" lat="53.000665"><ele>422.458557</ele><time>2021-09-01T11:44:02Z</time><extensions><speed>0.000000</speed><course>-1.000000</course><hAcc>0.901837</hAcc><vAcc>0.701381</vAcc></extensions></trkpt>
      <trkpt lon="-3.155611" lat="53.000665"><ele>422.458557</ele><time>2021-09-01T11:44:03Z</time><extensions><speed>0.000000</speed><course>-1.000000</course><hAcc>0.901882</hAcc><vAcc>0.701731</vAcc></extensions></trkpt>
      <trkpt lon="-3.155611" lat="53.000665"><ele>422.458557</ele><time>2021-09-01T11:44:04Z</time><extensions><speed>0.000000</speed><course>-1.000000</course><hAcc>0.901754</hAcc><vAcc>0.701635</vAcc></extensions></trkpt>
      <trkpt lon="-3.155611" lat="53.000665"><ele>422.458557</ele><time>2021-09-01T11:44:05Z</time><extensions><speed>0.000000</speed><course>-1.000000</course><hAcc>0.901377</hAcc><vAcc>0.701224</vAcc></extensions></trkpt>
      <trkpt lon="-3.155611" lat="53.000665"><ele>422.458557</ele><time>2021-09-01T11:44:06Z</time><extensions><speed>0.000000</speed><course>53.307610</course><hAcc>0.900736</hAcc><vAcc>0.700756</vAcc></extensions></trkpt>
      <trkpt lon="-3.155611" lat="53.000665"><ele>422.458557</ele><time>2021-09-01T11:44:07Z</time><extensions><speed>0.000000</speed><course>-1.000000</course><hAcc>0.900060</hAcc><vAcc>0.700729</vAcc></extensions></trkpt>
      <trkpt lon="-3.155611" lat="53.000665"><ele>422.458557</ele><time>2021-09-01T11:44:08Z</time><extensions><speed>0.000000</speed><course>-1.000000</course><hAcc>0.900096</hAcc><vAcc>0.702059</vAcc></extensions></trkpt>
      <trkpt lon="-3.155611" lat="53.000665"><ele>422.458557</ele><time>2021-09-01T11:44:09Z</time><extensions><speed>0.000000</speed><course>-1.000000</course><hAcc>0.902485</hAcc><vAcc>0.706330</vAcc></extensions></trkpt>
      <trkpt lon="-3.155611" lat="53.000665"><ele>422.458557</ele><time>2021-09-01T11:44:10Z</time><extensions><speed>0.000000</speed><course>120.394302</course><hAcc>0.910225</hAcc><vAcc>0.716096</vAcc></extensions></trkpt>
      <trkpt lon="-3.155611" lat="53.000665"><ele>422.458557</ele><time>2021-09-01T11:44:11Z</time><extensions><speed>0.000000</speed><course>-1.000000</course><hAcc>0.928109</hAcc><vAcc>0.735079</vAcc></extensions></trkpt>
      <trkpt lon="-3.155611" lat="53.000665"><ele>422.458557</ele><time>2021-09-01T11:44:12Z</time><extensions><speed>0.000000</speed><course>-1.000000</course><hAcc>0.962860</hAcc><vAcc>0.768076</vAcc></extensions></trkpt>
      <trkpt lon="-3.155611" lat="53.000665"><ele>422.458557</ele><time>2021-09-01T11:44:13Z</time><extensions><speed>0.000000</speed><course>-1.000000</course><hAcc>0.926112</hAcc><vAcc>0.736388</vAcc></extensions></trkpt>
      <trkpt lon="-3.155611" lat="53.000665"><ele>422.458557</ele><time>2021-09-01T11:44:14Z</time><extensions><speed>0.000000</speed><course>-1.000000</course><hAcc>0.908548</hAcc><vAcc>0.719642</vAcc></extensions></trkpt>
      <trkpt lon="-3.155611" lat="53.000665"><ele>422.458557</ele><time>2021-09-01T11:44:15Z</time><extensions><speed>0.000000</speed><course>-1.000000</course><hAcc>0.902207</hAcc><vAcc>0.712810</vAcc></extensions></trkpt>
      <trkpt lon="-3.155611" lat="53.000665"><ele>422.458557</ele><time>2021-09-01T11:44:16Z</time><extensions><speed>0.000000</speed><course>-1.000000</course><hAcc>0.901590</hAcc><vAcc>0.711646</vAcc></extensions></trkpt>
      <trkpt lon="-3.155611" lat="53.000665"><ele>422.458557</ele><time>2021-09-01T11:44:17Z</time><extensions><speed>0.000000</speed><course>-1.000000</course><hAcc>0.903259</hAcc><vAcc>0.713234</vAcc></extensions></trkpt>
      <trkpt lon="-3.155611" lat="53.000665"><ele>422.458557</ele><time>2021-09-01T11:44:18Z</time><extensions><speed>0.000000</speed><course>-1.000000</course><hAcc>0.905357</hAcc><vAcc>0.715788</vAcc></extensions></trkpt>
      <trkpt lon="-3.155611" lat="53.000665"><ele>422.458557</ele><time>2021-09-01T11:44:19Z</time><extensions><speed>0.000000</speed><course>-1.000000</course><hAcc>0.907067</hAcc><vAcc>0.718347</vAcc></extensions></trkpt>
      <trkpt lon="-3.155611" lat="53.000665"><ele>422.458557</ele><time>2021-09-01T11:44:20Z</time><extensions><speed>0.000000</speed><course>-1.000000</course><hAcc>0.908184</hAcc><vAcc>0.720480</vAcc></extensions></trkpt>
      <trkpt lon="-3.155611" lat="53.000665"><ele>422.458557</ele><time>2021-09-01T11:44:21Z</time><extensions><speed>0.000000</speed><course>-1.000000</course><hAcc>0.908793</hAcc><vAcc>0.722057</vAcc></extensions></trkpt>
      <trkpt lon="-3.155611" lat="53.000665"><ele>422.458557</ele><time>2021-09-01T11:44:22Z</time><extensions><speed>0.000000</speed><course>184.559082</course><hAcc>0.909068</hAcc><vAcc>0.723084</vAcc></extensions></trkpt>
      <trkpt lon="-3.155611" lat="53.000665"><ele>422.458557</ele><time>2021-09-01T11:44:23Z</time><extensions><speed>0.000000</speed><course>-1.000000</course><hAcc>0.909142</hAcc><vAcc>0.723600</vAcc></extensions></trkpt>
      <trkpt lon="-3.155611" lat="53.000665"><ele>422.458557</ele><time>2021-09-01T11:44:24Z</time><extensions><speed>0.000000</speed><course>-1.000000</course><hAcc>0.909056</hAcc><vAcc>0.723624</vAcc></extensions></trkpt>
      <trkpt lon="-3.155611" lat="53.000665"><ele>422.458557</ele><time>2021-09-01T11:44:25Z</time><extensions><speed>0.000000</speed><course>-1.000000</course><hAcc>0.908748</hAcc><vAcc>0.723150</vAcc></extensions></trkpt>
      <trkpt lon="-3.155611" lat="53.000665"><ele>422.458557</ele><time>2021-09-01T11:44:26Z</time><extensions><speed>0.000000</speed><course>-1.000000</course><hAcc>0.908109</hAcc><vAcc>0.722183</vAcc></extensions></trkpt>
      <trkpt lon="-3.155611" lat="53.000665"><ele>422.458557</ele><time>2021-09-01T11:44:27Z</time><extensions><speed>0.000000</speed><course>53.307610</course><hAcc>0.907090</hAcc><vAcc>0.720827</vAcc></extensions></trkpt>
      <trkpt lon="-3.155611" lat="53.000665"><ele>422.458557</ele><time>2021-09-01T11:44:28Z</time><extensions><speed>0.000000</speed><course>-1.000000</course><hAcc>0.905885</hAcc><vAcc>0.719426</vAcc></extensions></trkpt>
      <trkpt lon="-3.155611" lat="53.000665"><ele>422.458557</ele><time>2021-09-01T11:44:29Z</time><extensions><speed>0.000000</speed><course>-1.000000</course><hAcc>0.905205</hAcc><vAcc>0.718765</vAcc></extensions></trkpt>
      <trkpt lon="-3.155611" lat="53.000665"><ele>422.458557</ele><time>2021-09-01T11:44:30Z</time><extensions><speed>0.000000</speed><course>-1.000000</course><hAcc>0.906664</hAcc><vAcc>0.720330</vAcc></extensions></trkpt>
      <trkpt lon="-3.155611" lat="53.000665"><ele>422.458557</ele><time>2021-09-01T11:44:31Z</time><extensions><speed>0.000000</speed><course>120.394302</course><hAcc>0.913234</hAcc><vAcc>0.726592</vAcc></extensions></trkpt>
      <trkpt lon="-3.155611" lat="53.000665"><ele>422.458557</ele><time>2021-09-01T11:44:32Z</time><extensions><speed>0.000000</speed><course>-1.000000</course><hAcc>0.929698</hAcc><vAcc>0.741236</vAcc></extensions></trkpt>
      <trkpt lon="-3.155611" lat="53.000665"><ele>422.458557</ele><time>2021-09-01T11:44:33Z</time><extensions><speed>0.000000</speed><course>-1.000000</course><hAcc>0.962818</hAcc><vAcc>0.769144</vAcc></extensions></trkpt>
      <trkpt lon="-3.155611" lat="53.000665"><ele>422.458557</ele><time>2021-09-01T11:44:34Z</time><extensions><speed>0.000000</speed><course>-1.000000</course><hAcc>0.927697</hAcc><vAcc>0.740377</vAcc></extensions></trkpt>
      <trkpt lon="-3.155611" lat="53.000665"><ele>422.458557</ele><time>2021-09-01T11:44:35Z</time><extensions><speed>0.000000</speed><course>-1.000000</course><hAcc>0.908723</hAcc><vAcc>0.719223</vAcc></extensions></trkpt>
      <trkpt lon="-3.155611" lat="53.000665"><ele>422.458557</ele><time>2021-09-01T11:44:36Z</time><extensions><speed>0.000000</speed><course>-1.000000</course><hAcc>0.901233</hAcc><vAcc>0.708813</vAcc></extensions></trkpt>
      <trkpt lon="-3.155611" lat="53.000665"><ele>422.458557</ele><time>2021-09-01T11:44:37Z</time><extensions><speed>0.000000</speed><course>-1.000000</course><hAcc>0.899746</hAcc><vAcc>0.704995</vAcc></extensions></trkpt>
      <trkpt lon="-3.155611" lat="53.000665"><ele>422.458557</ele><time>2021-09-01T11:44:38Z</time><extensions><speed>0.000000</speed><course>-1.000000</course><hAcc>0.900810</hAcc><vAcc>0.704829</vAcc></extensions></trkpt>
      <trkpt lon="-3.155611" lat="53.000665"><ele>422.458557</ele><time>2021-09-01T11:44:39Z</time><extensions><speed>0.000000</speed><course>-1.000000</course><hAcc>0.902533</hAcc><vAcc>0.706424</vAcc></extensions></trkpt>
      <trkpt lon="-3.155611" lat="53.000665"><ele>422.458557</ele><time>2021-09-01T11:44:40Z</time><extensions><speed>0.000000</speed><course>-1.000000</course><hAcc>0.904057</hAcc><vAcc>0.708661</vAcc></extensions></trkpt>
      <trkpt lon="-3.155611" lat="53.000665"><ele>422.458557</ele><time>2021-09-01T11:44:41Z</time><extensions><speed>0.000000</speed><course>-1.000000</course><hAcc>0.905128</hAcc><vAcc>0.710922</vAcc></extensions></trkpt>
      <trkpt lon="-3.155611" lat="53.000665"><ele>422.458557</ele><time>2021-09-01T11:44:42Z</time><extensions><speed>0.000000</speed><course>-1.000000</course><hAcc>0.905790</hAcc><vAcc>0.712899</vAcc></extensions></trkpt>
      <trkpt lon="-3.155611" lat="53.000665"><ele>422.458557</ele><time>2021-09-01T11:44:43Z</time><extensions><speed>0.000000</speed><course>184.559082</course><hAcc>0.906175</hAcc><vAcc>0.714447</vAcc></extensions></trkpt>
      <trkpt lon="-3.155611" lat="53.000665"><ele>422.458557</ele><time>2021-09-01T11:44:44Z</time><extensions><speed>0.000000</speed><course>-1.000000</course><hAcc>0.906381</hAcc><vAcc>0.715488</vAcc></extensions></trkpt>
      <trkpt lon="-3.155611" lat="53.000665"><ele>422.458557</ele><time>2021-09-01T11:44:45Z</time><extensions><speed>0.000000</speed><course>-1.000000</course><hAcc>0.906415</hAcc><vAcc>0.715951</vAcc></extensions></trkpt>
      <trkpt lon="-3.155611" lat="53.000665"><ele>422.458557</ele><time>2021-09-01T11:44:46Z</time><extensions><speed>0.000000</speed><course>-1.000000</course><hAcc>0.906188</hAcc><vAcc>0.715757</vAcc></extensions></trkpt>
      <trkpt lon="-3.155611" lat="53.000665"><ele>422.458557</ele><time>2021-09-01T11:44:47Z</time><extensions><speed>0.000000</speed><course>-1.000000</course><hAcc>0.905563</hAcc><vAcc>0.714848</vAcc></extensions></trkpt>
      <trkpt lon="-3.155611" lat="53.000665"><ele>422.458557</ele><time>2021-09-01T11:44:48Z</time><extensions><speed>0.000000</speed><course>53.307610</course><hAcc>0.904468</hAcc><vAcc>0.713270</vAcc></extensions></trkpt>
      <trkpt lon="-3.155611" lat="53.000665"><ele>422.458557</ele><time>2021-09-01T11:44:49Z</time><extensions><speed>0.000000</speed><course>-1.000000</course><hAcc>0.903074</hAcc><vAcc>0.711309</vAcc></extensions></trkpt>
      <trkpt lon="-3.155611" lat="53.000665"><ele>422.458557</ele><time>2021-09-01T11:44:50Z</time><extensions><speed>0.000000</speed><course>-1.000000</course><hAcc>0.902077</hAcc><vAcc>0.709698</vAcc></extensions></trkpt>
      <trkpt lon="-3.155611" lat="53.000665"><ele>422.458557</ele><time>2021-09-01T11:44:51Z</time><extensions><speed>0.000000</speed><course>-1.000000</course><hAcc>0.903076</hAcc><vAcc>0.709892</vAcc></extensions></trkpt>
      <trkpt lon="-3.155611" lat="53.000665"><ele>422.458557</ele><time>2021-09-01T11:44:52Z</time><extensions><speed>0.000000</speed><course>120.394302</course><hAcc>0.909051</hAcc><vAcc>0.714379</vAcc></extensions></trkpt>
      <trkpt lon="-3.155611" lat="53.000665"><ele>422.458557</ele><time>2021-09-01T11:44:53Z</time><extensions><speed>0.000000</speed><course>-1.000000</course><hAcc>0.924815</hAcc><vAcc>0.726951</vAcc></extensions></trkpt>
      <trkpt lon="-3.155611" lat="53.000665"><ele>422.458557</ele><time>2021-09-01T11:44:54Z</time><extensions><speed>0.000000</speed><course>-1.000000</course><hAcc>0.957196</hAcc><vAcc>0.752698</vAcc></extensions></trkpt>
      <trkpt lon="-3.155611" lat="53.000665"><ele>422.458557</ele><time>2021-09-01T11:44:55Z</time><extensions><speed>0.000000</speed><course>-1.000000</course><hAcc>0.921859</hAcc><vAcc>0.723454</vAcc></extensions></trkpt>
      <trkpt lon="-3.155611" lat="53.000665"><ele>422.458557</ele><time>2021-09-01T11:44:56Z</time><extensions><speed>0.000000</speed><course>-1.000000</course><hAcc>0.902718</hAcc><vAcc>0.701459</vAcc></extensions></trkpt>
      <trkpt lon="-3.155611" lat="53.000665"><ele>422.458557</ele><time>2021-09-01T11:44:57Z</time><extensions><speed>0.000000</speed><course>-1.000000</course><hAcc>0.894959</hAcc><vAcc>0.689979</vAcc></extensions></trkpt>
      <trkpt lon="-3.155611" lat="53.000665"><ele>422.458557</ele><time>2021-09-01T11:44:58Z</time><extensions><speed>0.000000</speed><course>-1.000000</course><hAcc>0.893076</hAcc><vAcc>0.684766</vAcc></extensions></trkpt>
      <trkpt lon="-3.155611" lat="53.000665"><ele>422.458557</ele><time>2021-09-01T11:44:59Z</time><extensions><speed>0.000000</speed><course>-1.000000</course><hAcc>0.893615</hAcc><vAcc>0.682819</vAcc></extensions></trkpt>
      <trkpt lon="-3.155611" lat="53.000665"><ele>422.458557</ele><time>2021-09-01T11:45:00Z</time><extensions><speed>0.000000</speed><course>-1.000000</course><hAcc>0.894700</hAcc><vAcc>0.682267</vAcc></extensions></trkpt>
      <trkpt lon="-3.155611" lat="53.000665"><ele>422.458557</ele><time>2021-09-01T11:45:01Z</time><extensions><speed>0.000000</speed><course>-1.000000</course><hAcc>0.895513</hAcc><vAcc>0.682105</vAcc></extensions></trkpt>
      <trkpt lon="-3.155611" lat="53.000665"><ele>422.458557</ele><time>2021-09-01T11:45:02Z</time><extensions><speed>0.000000</speed><course>-1.000000</course><hAcc>0.895854</hAcc><vAcc>0.681899</vAcc></extensions></trkpt>
      <trkpt lon="-3.155611" lat="53.000665"><ele>422.458557</ele><time>2021-09-01T11:45:03Z</time><extensions><speed>0.000000</speed><course>-1.000000</course><hAcc>0.895819</hAcc><vAcc>0.681528</vAcc></extensions></trkpt>
      <trkpt lon="-3.155611" lat="53.000665"><ele>422.458557</ele><time>2021-09-01T11:45:04Z</time><extensions><speed>0.000000</speed><course>184.559082</course><hAcc>0.895584</hAcc><vAcc>0.680998</vAcc></extensions></trkpt>
      <trkpt lon="-3.155611" lat="53.000665"><ele>422.458557</ele><time>2021-09-01T11:45:05Z</time><extensions><speed>0.000000</speed><course>-1.000000</course><hAcc>0.895278</hAcc><vAcc>0.680320</vAcc></extensions></trkpt>
      <trkpt lon="-3.155611" lat="53.000665"><ele>422.458557</ele><time>2021-09-01T11:45:06Z</time><extensions><speed>0.000000</speed><course>-1.000000</course><hAcc>0.894922</hAcc><vAcc>0.679446</vAcc></extensions></trkpt>
      <trkpt lon="-3.155611" lat="53.000665"><ele>422.458557</ele><time>2021-09-01T11:45:07Z</time><extensions><speed>0.000000</speed><course>-1.000000</course><hAcc>0.894427</hAcc><vAcc>0.678260</vAcc></extensions></trkpt>
      <trkpt lon="-3.155611" lat="53.000665"><ele>422.458557</ele><time>2021-09-01T11:45:08Z</time><extensions><speed>0.000000</speed><course>-1.000000</course><hAcc>0.893645</hAcc><vAcc>0.676614</vAcc></extensions></trkpt>
      <trkpt lon="-3.155611" lat="53.000665"><ele>422.458557</ele><time>2021-09-01T11:45:09Z</time><extensions><speed>0.000000</speed><course>53.307610</course><hAcc>0.892487</hAcc><vAcc>0.674410</vAcc></extensions></trkpt>
      <trkpt lon="-3.155611" lat="53.000665"><ele>422.458557</ele><time>2021-09-01T11:45:10Z</time><extensions><speed>0.000000</speed><course>-1.000000</course><hAcc>0.891117</hAcc><vAcc>0.671742</vAcc></extensions></trkpt>
      <trkpt lon="-3.155611" lat="53.000665"><ele>422.458557</ele><time>2021-09-01T11:45:11Z</time><extensions><speed>0.000000</speed><course>-1.000000</course><hAcc>0.890230</hAcc><vAcc>0.669090</vAcc></extensions></trkpt>
      <trkpt lon="-3.155611" lat="53.000665"><ele>422.458557</ele><time>2021-09-01T11:45:12Z</time><extensions><speed>0.000000</speed><course>-1.000000</course><hAcc>0.891454</hAcc><vAcc>0.667602</vAcc></extensions></trkpt>
      <trkpt lon="-3.155611" lat="53.000665"><ele>422.458557</ele><time>2021-09-01T11:45:13Z</time><extensions><speed>0.000000</speed><course>120.394302</course><hAcc>0.897830</hAcc><vAcc>0.669442</vAcc></extensions></trkpt>
      <trkpt lon="-3.155611" lat="53.000665"><ele>422.458557</ele><time>2021-09-01T11:45:14Z</time><extensions><speed>0.000000</speed><course>-1.000000</course><hAcc>0.914263</hAcc><vAcc>0.678131</vAcc></extensions></trkpt>
      <trkpt lon="-3.155611" lat="53.000665"><ele>422.458557</ele><time>2021-09-01T11:45:15Z</time><extensions><speed>0.000000</speed><course>-1.000000</course><hAcc>0.947673</hAcc><vAcc>0.698636</vAcc></extensions></trkpt>
      <trkpt lon="-3.155611" lat="53.000665"><ele>422.458557</ele><time>2021-09-01T11:45:16Z</time><extensions><speed>0.000000</speed><course>-1.000000</course><hAcc>0.914225</hAcc><vAcc>0.673630</vAcc></extensions></trkpt>
      <trkpt lon="-3.155611" lat="53.000665"><ele>422.458557</ele><time>2021-09-01T11:45:17Z</time><extensions><speed>0.000000</speed><course>-1.000000</course><hAcc>0.899957</hAcc><vAcc>0.655386</vAcc></extensions></trkpt>
      <trkpt lon="-3.155611" lat="53.000665"><ele>422.458557</ele><time>2021-09-01T11:45:18Z</time><extensions><speed>0.000000</speed><course>-1.000000</course><hAcc>0.897091</hAcc><vAcc>0.646531</vAcc></extensions></trkpt>
      <trkpt lon="-3.155611" lat="53.000665"><ele>422.458557</ele><time>2021-09-01T11:45:19Z</time><extensions><speed>0.000000</speed><course>-1.000000</course><hAcc>0.900044</hAcc><vAcc>0.643019</vAcc></extensions></trkpt>
      <trkpt lon="-3.155611" lat="53.000665"><ele>422.458557</ele><time>2021-09-01T11:45:20Z</time><extensions><speed>0.000000</speed><course>-1.000000</course><hAcc>0.905358</hAcc><vAcc>0.642218</vAcc></extensions></trkpt>
      <trkpt lon="-3.155611" lat="53.000665"><ele>422.458557</ele><time>2021-09-01T11:45:21Z</time><extensions><speed>0.000000</speed><course>-1.000000</course><hAcc>0.911157</hAcc><vAcc>0.642606</vAcc></extensions></trkpt>
      <trkpt lon="-3.155611" lat="53.000665"><ele>422.458557</ele><time>2021-09-01T11:45:22Z</time><extensions><speed>0.000000</speed><course>-1.000000</course><hAcc>0.916569</hAcc><vAcc>0.643379</vAcc></extensions></trkpt>
      <trkpt lon="-3.155611" lat="53.000665"><ele>422.458557</ele><time>2021-09-01T11:45:23Z</time><extensions><speed>0.000000</speed><course>-1.000000</course><hAcc>0.921268</hAcc><vAcc>0.644136</vAcc></extensions></trkpt>
      <trkpt lon="-3.155611" lat="53.000665"><ele>422.458557</ele><time>2021-09-01T11:45:24Z</time><extensions><speed>0.000000</speed><course>-1.000000</course><hAcc>0.925165</hAcc><vAcc>0.644707</vAcc></extensions></trkpt>
      <trkpt lon="-3.155611" lat="53.000665"><ele>422.458557</ele><time>2021-09-01T11:45:25Z</time><extensions><speed>0.000000</speed><course>184.559082</course><hAcc>0.928239</hAcc><vAcc>0.645050</vAcc></extensions></trkpt>
      <trkpt lon="-3.155611" lat="53.000665"><ele>422.458557</ele><time>2021-09-01T11:45:26Z</time><extensions><speed>0.000000</speed><course>-1.000000</course><hAcc>0.930439</hAcc><vAcc>0.645186</vAcc></extensions></trkpt>
      <trkpt lon="-3.155611" lat="53.000665"><ele>422.458557</ele><time>2021-09-01T11:45:27Z</time><extensions><speed>0.000000</speed><course>-1.000000</course><hAcc>0.931646</hAcc><vAcc>0.645153</vAcc></extensions></trkpt>
      <trkpt lon="-3.155611" lat="53.000665"><ele>422.458557</ele><time>2021-09-01T11:45:28Z</time><extensions><speed>0.000000</speed><course>-1.000000</course><hAcc>0.931678</hAcc><vAcc>0.644996</vAcc></extensions></trkpt>
      <trkpt lon="-3.155611" lat="53.000665"><ele>422.458557</ele><time>2021-09-01T11:45:29Z</time><extensions><speed>0.000000</speed><course>-1.000000</course><hAcc>0.930349</hAcc><vAcc>0.644763</vAcc></extensions></trkpt>
      <trkpt lon="-3.155611" lat="53.000665"><ele>422.458557</ele><time>2021-09-01T11:45:30Z</time><extensions><speed>0.000000</speed><course>53.307610</course><hAcc>0.927608</hAcc><vAcc>0.644566</vAcc></extensions></trkpt>
      <trkpt lon="-3.155611" lat="53.000665"><ele>422.458557</ele><time>2021-09-01T11:45:31Z</time><extensions><speed>0.000000</speed><course>-1.000000</course><hAcc>0.923744</hAcc><vAcc>0.644718</vAcc></extensions></trkpt>
      <trkpt lon="-3.155611" lat="53.000665"><ele>422.458557</ele><time>2021-09-01T11:45:32Z</time><extensions><speed>0.000000</speed><course>-1.000000</course><hAcc>0.919631</hAcc><vAcc>0.645953</vAcc></extensions></trkpt>
      <trkpt lon="-3.155611" lat="53.000665"><ele>422.458557</ele><time>2021-09-01T11:45:33Z</time><extensions><speed>0.000000</speed><course>-1.000000</course><hAcc>0.917048</hAcc><vAcc>0.649710</vAcc></extensions></trkpt>
      <trkpt lon="-3.155611" lat="53.000665"><ele>422.458557</ele><time>2021-09-01T11:45:34Z</time><extensions><speed>0.000000</speed><course>120.394302</course><hAcc>0.919146</hAcc><vAcc>0.658422</vAcc></extensions></trkpt>
      <trkpt lon="-3.155611" lat="53.000665"><ele>422.458557</ele><time>2021-09-01T11:45:35Z</time><extensions><speed>0.000000</speed><course>-1.000000</course><hAcc>0.930923</hAcc><vAcc>0.675726</vAcc></extensions></trkpt>
      <trkpt lon="-3.155611" lat="53.000665"><ele>422.458557</ele><time>2021-09-01T11:45:36Z</time><extensions><speed>0.000000</speed><course>-1.000000</course><hAcc>0.959454</hAcc><vAcc>0.706412</vAcc></extensions></trkpt>
      <trkpt lon="-3.155611" lat="53.000665"><ele>422.458557</ele><time>2021-09-01T11:45:37Z</time><extensions><speed>0.000000</speed><course>-1.000000</course><hAcc>0.921832</hAcc><vAcc>0.675730</vAcc></extensions></trkpt>
      <trkpt lon="-3.155611" lat="53.000665"><ele>422.458557</ele><time>2021-09-01T11:45:38Z</time><extensions><speed>0.000000</speed><course>-1.000000</course><hAcc>0.901307</hAcc><vAcc>0.666103</vAcc></extensions></trkpt>
      <trkpt lon="-3.155611" lat="53.000665"><ele>422.458557</ele><time>2021-09-01T11:45:39Z</time><extensions><speed>0.000000</speed><course>-1.000000</course><hAcc>0.892829</hAcc><vAcc>0.664263</vAcc></extensions></trkpt>
      <trkpt lon="-3.155611" lat="53.000665"><ele>422.458557</ele><time>2021-09-01T11:45:40Z</time><extensions><speed>0.000000</speed><course>-1.000000</course><hAcc>0.890728</hAcc><vAcc>0.666158</vAcc></extensions></trkpt>
      <trkpt lon="-3.155611" lat="53.000665"><ele>422.458557</ele><time>2021-09-01T11:45:41Z</time><extensions><speed>0.000000</speed><course>-1.000000</course><hAcc>0.891385</hAcc><vAcc>0.669300</vAcc></extensions></trkpt>
      <trkpt lon="-3.155611" lat="53.000665"><ele>422.458557</ele><time>2021-09-01T11:45:42Z</time><extensions><speed>0.000000</speed><course>-1.000000</course><hAcc>0.892799</hAcc><vAcc>0.672394</vAcc></extensions></trkpt>
      <trkpt lon="-3.155611" lat="53.000665"><ele>422.458557</ele><time>2021-09-01T11:45:43Z</time><extensions><speed>0.000000</speed><course>-1.000000</course><hAcc>0.894065</hAcc><vAcc>0.674925</vAcc></extensions></trkpt>
      <trkpt lon="-3.155611" lat="53.000665"><ele>422.458557</ele><time>2021-09-01T11:45:44Z</time><extensions><speed>0.000000</speed><course>-1.000000</course><hAcc>0.894927</hAcc><vAcc>0.676820</vAcc></extensions></trkpt>
      <trkpt lon="-3.155611" lat="53.000665"><ele>422.458557</ele><time>2021-09-01T11:45:45Z</time><extensions><speed>0.000000</speed><course>-1.000000</course><hAcc>0.895444</hAcc><vAcc>0.678192</vAcc></extensions></trkpt>
      <trkpt lon="-3.155611" lat="53.000665"><ele>422.458557</ele><time>2021-09-01T11:45:46Z</time><extensions><speed>0.000000</speed><course>184.559082</course><hAcc>0.895772</hAcc><vAcc>0.679199</vAcc></extensions></trkpt>
      <trkpt lon="-3.155611" lat="53.000665"><ele>422.458557</ele><time>2021-09-01T11:45:47Z</time><extensions><speed>0.000000</speed><course>-1.000000</course><hAcc>0.896031</hAcc><vAcc>0.679965</vAcc></extensions></trkpt>
      <trkpt lon="-3.155611" lat="53.000665"><ele>422.458557</ele><time>2021-09-01T11:45:48Z</time><extensions><speed>0.000000</speed><course>-1.000000</course><hAcc>0.896237</hAcc><vAcc>0.680546</vAcc></extensions></trkpt>
      <trkpt lon="-3.155611" lat="53.000665"><ele>422.458557</ele><time>2021-09-01T11:45:49Z</time><extensions><speed>0.000000</speed><course>-1.000000</course><hAcc>0.896300</hAcc><vAcc>0.680939</vAcc></extensions></trkpt>
      <trkpt lon="-3.155611" lat="53.000665"><ele>422.458557</ele><time>2021-09-01T11:45:50Z</time><extensions><speed>0.000000</speed><course>-1.000000</course><hAcc>0.896073</hAcc><vAcc>0.681129</vAcc></extensions></trkpt>
      <trkpt lon="-3.155611" lat="53.000665"><ele>422.458557</ele><time>2021-09-01T11:45:51Z</time><extensions><speed>0.000000</speed><course>53.307610</course><hAcc>0.895485</hAcc><vAcc>0.681181</vAcc></extensions></trkpt>
      <trkpt lon="-3.155611" lat="53.000665"><ele>422.458557</ele><time>2021-09-01T11:45:52Z</time><extensions><speed>0.000000</speed><course>-1.000000</course><hAcc>0.894723</hAcc><vAcc>0.681394</vAcc></extensions></trkpt>
      <trkpt lon="-3.155611" lat="53.000665"><ele>422.458557</ele><time>2021-09-01T11:45:53Z</time><extensions><speed>0.000000</speed><course>-1.000000</course><hAcc>0.894500</hAcc><vAcc>0.682521</vAcc></extensions></trkpt>
      <trkpt lon="-3.155611" lat="53.000665"><ele>422.458557</ele><time>2021-09-01T11:45:54Z</time><extensions><speed>0.000000</speed><course>-1.000000</course><hAcc>0.896429</hAcc><vAcc>0.686036</vAcc></extensions></trkpt>
      <trkpt lon="-3.155611" lat="53.000665"><ele>422.458557</ele><time>2021-09-01T11:45:55Z</time><extensions><speed>0.000000</speed><course>120.394302</course><hAcc>0.903491</hAcc><vAcc>0.694431</vAcc></extensions></trkpt>
      <trkpt lon="-3.155611" lat="53.000665"><ele>422.458557</ele><time>2021-09-01T11:45:56Z</time><extensions><speed>0.000000</speed><course>-1.000000</course><hAcc>0.920485</hAcc><vAcc>0.711418</vAcc></extensions></trkpt>
      <trkpt lon="-3.155611" lat="53.000665"><ele>422.458557</ele><time>2021-09-01T11:45:57Z</time><extensions><speed>0.000000</speed><course>-1.000000</course><hAcc>0.954192</hAcc><vAcc>0.741887</vAcc></extensions></trkpt>
      <trkpt lon="-3.155611" lat="53.000665"><ele>422.458557</ele><time>2021-09-01T11:45:58Z</time><extensions><speed>0.000000</speed><course>-1.000000</course><hAcc>0.918405</hAcc><vAcc>0.713123</vAcc></extensions></trkpt>
      <trkpt lon="-3.155611" lat="53.000665"><ele>422.458557</ele><time>2021-09-01T11:45:59Z</time><extensions><speed>0.000000</speed><course>-1.000000</course><hAcc>0.901733</hAcc><vAcc>0.698679</vAcc></extensions></trkpt>
      <trkpt lon="-3.155611" lat="53.000665"><ele>422.458557</ele><time>2021-09-01T11:46:00Z</time><extensions><speed>0.000000</speed><course>-1.000000</course><hAcc>0.896166</hAcc><vAcc>0.693897</vAcc></extensions></trkpt>
      <trkpt lon="-3.155611" lat="53.000665"><ele>422.458557</ele><time>2021-09-01T11:46:01Z</time><extensions><speed>0.000000</speed><course>-1.000000</course><hAcc>0.896191</hAcc><vAcc>0.694532</vAcc></extensions></trkpt>
      <trkpt lon="-3.155611" lat="53.000665"><ele>422.458557</ele><time>2021-09-01T11:46:02Z</time><extensions><speed>0.000000</speed><course>-1.000000</course><hAcc>0.898390</hAcc><vAcc>0.697716</vAcc></extensions></trkpt>
      <trkpt lon="-3.155611" lat="53.000665"><ele>422.458557</ele><time>2021-09-01T11:46:03Z</time><extensions><speed>0.000000</speed><course>-1.000000</course><hAcc>0.900930</hAcc><vAcc>0.701723</vAcc></extensions></trkpt>
      <trkpt lon="-3.155611" lat="53.000665"><ele>422.458557</ele><time>2021-09-01T11:46:04Z</time><extensions><speed>0.000000</speed><course>-1.000000</course><hAcc>0.903023</hAcc><vAcc>0.705634</vAcc></extensions></trkpt>
      <trkpt lon="-3.155611" lat="53.000665"><ele>422.458557</ele><time>2021-09-01T11:46:05Z</time><extensions><speed>0.000000</speed><course>-1.000000</course><hAcc>0.904478</hAcc><vAcc>0.709038</vAcc></extensions></trkpt>
      <trkpt lon="-3.155611" lat="53.000665"><ele>422.458557</ele><time>2021-09-01T11:46:06Z</time><extensions><speed>0.000000</speed><course>-1.000000</course><hAcc>0.905392</hAcc><vAcc>0.711799</vAcc></extensions></trkpt>
      <trkpt lon="-3.155611" lat="53.000665"><ele>422.458557</ele><time>2021-09-01T11:46:07Z</time><extensions><speed>0.000000</speed><course>184.559082</course><hAcc>0.905941</hAcc><vAcc>0.713893</vAcc></extensions></trkpt>
      <trkpt lon="-3.155611" lat="53.000665"><ele>422.458557</ele><time>2021-09-01T11:46:08Z</time><extensions><speed>0.000000</speed><course>-1.000000</course><hAcc>0.906256</hAcc><vAcc>0.715323</vAcc></extensions></trkpt>
      <trkpt lon="-3.155611" lat="53.000665"><ele>422.458557</ele><time>2021-09-01T11:46:09Z</time><extensions><speed>0.000000</speed><course>-1.000000</course><hAcc>0.906373</hAcc><vAcc>0.716071</vAcc></extensions></trkpt>
      <trkpt lon="-3.155611" lat="53.000665"><ele>422.458557</ele><time>2021-09-01T11:46:10Z</time><extensions><speed>0.000000</speed><course>-1.000000</course><hAcc>0.906232</hAcc><vAcc>0.716112</vAcc></extensions></trkpt>
      <trkpt lon="-3.155611" lat="53.000665"><ele>422.458557</ele><time>2021-09-01T11:46:11Z</time><extensions><speed>0.000000</speed><course>-1.000000</course><hAcc>0.905725</hAcc><vAcc>0.715450</vAcc></extensions></trkpt>
      <trkpt lon="-3.155611" lat="53.000665"><ele>422.458557</ele><time>2021-09-01T11:46:12Z</time><extensions><speed>0.000000</speed><course>53.307610</course><hAcc>0.904816</hAcc><vAcc>0.714223</vAcc></extensions></trkpt>
      <trkpt lon="-3.155611" lat="53.000665"><ele>422.458557</ele><time>2021-09-01T11:46:13Z</time><extensions><speed>0.000000</speed><course>-1.000000</course><hAcc>0.903718</hAcc><vAcc>0.712851</vAcc></extensions></trkpt>
      <trkpt lon="-3.155611" lat="53.000665"><ele>422.458557</ele><time>2021-09-01T11:46:14Z</time><extensions><speed>0.000000</speed><course>-1.000000</course><hAcc>0.903175</hAcc><vAcc>0.712242</vAcc></extensions></trkpt>
      <trkpt lon="-3.155611" lat="53.000665"><ele>422.458557</ele><time>2021-09-01T11:46:15Z</time><extensions><speed>0.000000</speed><course>-1.000000</course><hAcc>0.904835</hAcc><vAcc>0.714050</vAcc></extensions></trkpt>
      <trkpt lon="-3.155611" lat="53.000665"><ele>422.458557</ele><time>2021-09-01T11:46:16Z</time><extensions><speed>0.000000</speed><course>120.394302</course><hAcc>0.911716</hAcc><vAcc>0.720947</vAcc></extensions></trkpt>
      <trkpt lon="-3.155611" lat="53.000665"><ele>422.458557</ele><time>2021-09-01T11:46:17Z</time><extensions><speed>0.000000</speed><course>-1.000000</course><hAcc>0.928642</hAcc><vAcc>0.736811</vAcc></extensions></trkpt>
      <trkpt lon="-3.155611" lat="53.000665"><ele>422.458557</ele><time>2021-09-01T11:46:18Z</time><extensions><speed>0.000000</speed><course>-1.000000</course><hAcc>0.962392</hAcc><vAcc>0.766640</vAcc></extensions></trkpt>
      <trkpt lon="-3.155611" lat="53.000665"><ele>422.458557</ele><time>2021-09-01T11:46:19Z</time><extensions><speed>0.000000</speed><course>-1.000000</course><hAcc>0.926297</hAcc><vAcc>0.736155</vAcc></extensions></trkpt>
      <trkpt lon="-3.155611" lat="53.000665"><ele>422.458557</ele><time>2021-09-01T11:46:20Z</time><extensions><speed>0.000000</speed><course>-1.000000</course><hAcc>0.908256</hAcc><vAcc>0.717971</vAcc></extensions></trkpt>
      <trkpt lon="-3.155611" lat="53.000665"><ele>422.458557</ele><time>2021-09-01T11:46:21Z</time><extensions><speed>0.000000</speed><course>-1.000000</course><hAcc>0.901581</hAcc><vAcc>0.710248</vAcc></extensions></trkpt>
      <trkpt lon="-3.155611" lat="53.000665"><ele>422.458557</ele><time>2021-09-01T11:46:22Z</time><extensions><speed>0.000000</speed><course>-1.000000</course><hAcc>0.900750</hAcc><vAcc>0.708644</vAcc></extensions></trkpt>
      <trkpt lon="-3.155611" lat="53.000665"><ele>422.458557</ele><time>2021-09-01T11:46:23Z</time><extensions><speed>0.000000</speed><course>-1.000000</course><hAcc>0.902291</hAcc><vAcc>0.710102</vAcc></extensions></trkpt>
      <trkpt lon="-3.155611" lat="53.000665"><ele>422.458557</ele><time>2021-09-01T11:46:24Z</time><extensions><speed>0.000000</speed><course>-1.000000</course><hAcc>0.904310</hAcc><vAcc>0.712682</vAcc></extensions></trkpt>
      <trkpt lon="-3.155611" lat="53.000665"><ele>422.458557</ele><time>2021-09-01T11:46:25Z</time><extensions><speed>0.000000</speed><course>-1.000000</course><hAcc>0.905955</hAcc><vAcc>0.715281</vAcc></extensions></trkpt>
      <trkpt lon="-3.155611" lat="53.000665"><ele>422.458557</ele><time>2021-09-01T11:46:26Z</time><extensions><speed>0.000000</speed><course>-1.000000</course><hAcc>0.906993</hAcc><vAcc>0.717354</vAcc></extensions></trkpt>
      <trkpt lon="-3.155611" lat="53.000665"><ele>422.458557</ele><time>2021-09-01T11:46:27Z</time><extensions><speed>0.000000</speed><course>-1.000000</course><hAcc>0.907492</hAcc><vAcc>0.718691</vAcc></extensions></trkpt>
      <trkpt lon="-3.155611" lat="53.000665"><ele>422.458557</ele><time>2021-09-01T11:46:28Z</time><extensions><speed>0.000000</speed><course>184.559082</course><hAcc>0.907616</hAcc><vAcc>0.719256</vAcc></extensions></trkpt>
      <trkpt lon="-3.155611" lat="53.000665"><ele>422.458557</ele><time>2021-09-01T11:46:29Z</time><extensions><speed>0.000000</speed><course>-1.000000</course><hAcc>0.907501</hAcc><vAcc>0.719088</vAcc></extensions></trkpt>
      <trkpt lon="-3.155611" lat="53.000665"><ele>422.458557</ele><time>2021-09-01T11:46:30Z</time><extensions><speed>0.000000</speed><course>-1.000000</course><hAcc>0.907199</hAcc><vAcc>0.718255</vAcc></extensions></trkpt>
      <trkpt lon="-3.155611" lat="53.000665"><ele>422.458557</ele><time>2021-09-01T11:46:31Z</time><extensions><speed>0.000000</speed><course>-1.000000</course><hAcc>0.906673</hAcc><vAcc>0.716837</vAcc></extensions></trkpt>
      <trkpt lon="-3.155611" lat="53.000665"><ele>422.458557</ele><time>2021-09-01T11:46:32Z</time><extensions><speed>0.000000</speed><course>-1.000000</course><hAcc>0.905847</hAcc><vAcc>0.714961</vAcc></extensions></trkpt>
      <trkpt lon="-3.155611" lat="53.000665"><ele>422.458557</ele><time>2021-09-01T11:46:33Z</time><extensions><speed>0.000000</speed><course>53.307610</course><hAcc>0.904714</hAcc><vAcc>0.712874</vAcc></extensions></trkpt>
      <trkpt lon="-3.155611" lat="53.000665"><ele>422.458557</ele><time>2021-09-01T11:46:34Z</time><extensions><speed>0.000000</speed><course>-1.000000</course><hAcc>0.903517</hAcc><vAcc>0.711096</vAcc></extensions></trkpt>
      <trkpt lon="-3.155611" lat="53.000665"><ele>422.458557</ele><time>2021-09-01T11:46:35Z</time><extensions><speed>0.000000</speed><course>-1.000000</course><hAcc>0.903026</hAcc><vAcc>0.710621</vAcc></extensions></trkpt>
      <trkpt lon="-3.155611" lat="53.000665"><ele>422.458557</ele><time>2021-09-01T11:46:36Z</time><extensions><speed>0.000000</speed><course>-1.000000</course><hAcc>0.904914</hAcc><vAcc>0.713169</vAcc></extensions></trkpt>
      <trkpt lon="-3.155611" lat="53.000665"><ele>422.458557</ele><time>2021-09-01T11:46:37Z</time><extensions><speed>0.000000</speed><course>120.394302</course><hAcc>0.912215</hAcc><vAcc>0.721447</vAcc></extensions></trkpt>
      <trkpt lon="-3.155611" lat="53.000665"><ele>422.458557</ele><time>2021-09-01T11:46:38Z</time><extensions><speed>0.000000</speed><course>-1.000000</course><hAcc>0.929750</hAcc><vAcc>0.739308</vAcc></extensions></trkpt>
      <trkpt lon="-3.155611" lat="53.000665"><ele>422.458557</ele><time>2021-09-01T11:46:39Z</time><extensions><speed>0.000000</speed><course>-1.000000</course><hAcc>0.964264</hAcc><vAcc>0.771633</vAcc></extensions></trkpt>
      <trkpt lon="-3.155611" lat="53.000665"><ele>422.458557</ele><time>2021-09-01T11:46:40Z</time><extensions><speed>0.000000</speed><course>-1.000000</course><hAcc>0.925915</hAcc><vAcc>0.736010</vAcc></extensions></trkpt>
      <trkpt lon="-3.155611" lat="53.000665"><ele>422.458557</ele><time>2021-09-01T11:46:41Z</time><extensions><speed>0.000000</speed><course>-1.000000</course><hAcc>0.907995</hAcc><vAcc>0.718428</vAcc></extensions></trkpt>
      <trkpt lon="-3.155611" lat="53.000665"><ele>422.458557</ele><time>2021-09-01T11:46:42Z</time><extensions><speed>0.000000</speed><course>-1.000000</course><hAcc>0.901223</hAcc><vAcc>0.710510</vAcc></extensions></trkpt>
      <trkpt lon="-3.155611" lat="53.000665"><ele>422.458557</ele><time>2021-09-01T11:46:43Z</time><extensions><speed>0.000000</speed><course>-1.000000</course><hAcc>0.900094</hAcc><vAcc>0.707955</vAcc></extensions></trkpt>
      <trkpt lon="-3.155611" lat="53.000665"><ele>422.458557</ele><time>2021-09-01T11:46:44Z</time><extensions><speed>0.000000</speed><course>-1.000000</course><hAcc>0.901171</hAcc><vAcc>0.707817</vAcc></extensions></trkpt>
      <trkpt lon="-3.155611" lat="53.000665"><ele>422.458557</ele><time>2021-09-01T11:46:45Z</time><extensions><speed>0.000000</speed><course>-1.000000</course><hAcc>0.902598</hAcc><vAcc>0.708313</vAcc></extensions></trkpt>
      <trkpt lon="-3.155611" lat="53.000665"><ele>422.458557</ele><time>2021-09-01T11:46:46Z</time><extensions><speed>0.000000</speed><course>-1.000000</course><hAcc>0.903573</hAcc><vAcc>0.708526</vAcc></extensions></trkpt>
      <trkpt lon="-3.155611" lat="53.000665"><ele>422.458557</ele><time>2021-09-01T11:46:47Z</time><extensions><speed>0.000000</speed><course>-1.000000</course><hAcc>0.903909</hAcc><vAcc>0.708106</vAcc></extensions></trkpt>
      <trkpt lon="-3.155611" lat="53.000665"><ele>422.458557</ele><time>2021-09-01T11:46:48Z</time><extensions><speed>0.000000</speed><course>-1.000000</course><hAcc>0.903719</hAcc><vAcc>0.707025</vAcc></extensions></trkpt>
      <trkpt lon="-3.155611" lat="53.000665"><ele>422.458557</ele><time>2021-09-01T11:46:49Z</time><extensions><speed>0.000000</speed><course>184.559082</course><hAcc>0.903210</hAcc><vAcc>0.705398</vAcc></extensions></trkpt>
      <trkpt lon="-3.155611" lat="53.000665"><ele>422.458557</ele><time>2021-09-01T11:46:50Z</time><extensions><speed>0.000000</speed><course>-1.000000</course><hAcc>0.902549</hAcc><vAcc>0.703373</vAcc></extensions></trkpt>
      <trkpt lon="-3.155611" lat="53.000665"><ele>422.458557</ele><time>2021-09-01T11:46:51Z</time><extensions><speed>0.000000</speed><course>-1.000000</course><hAcc>0.901810</hAcc><vAcc>0.701072</vAcc></extensions></trkpt>
      <trkpt lon="-3.155611" lat="53.000665"><ele>422.458557</ele><time>2021-09-01T11:46:52Z</time><extensions><speed>0.000000</speed><course>-1.000000</course><hAcc>0.900961</hAcc><vAcc>0.698592</vAcc></extensions></trkpt>
      <trkpt lon="-3.155611" lat="53.000665"><ele>422.458557</ele><time>2021-09-01T11:46:53Z</time><extensions><speed>0.000000</speed><course>-1.000000</course><hAcc>0.899917</hAcc><vAcc>0.696042</vAcc></extensions></trkpt>
      <trkpt lon="-3.155611" lat="53.000665"><ele>422.458557</ele><time>2021-09-01T11:46:54Z</time><extensions><speed>0.000000</speed><course>53.307610</course><hAcc>0.898647</hAcc><vAcc>0.693625</vAcc></extensions></trkpt>
      <trkpt lon="-3.155611" lat="53.000665"><ele>422.458557</ele><time>2021-09-01T11:46:55Z</time><extensions><speed>0.000000</speed><course>-1.000000</course><hAcc>0.897354</hAcc><vAcc>0.691765</vAcc></extensions></trkpt>
      <trkpt lon="-3.155611" lat="53.000665"><ele>422.458557</ele><time>2021-09-01T11:46:56Z</time><extensions><speed>0.000000</speed><course>-1.000000</course><hAcc>0.896754</hAcc><vAcc>0.691301</vAcc></extensions></trkpt>
      <trkpt lon="-3.155611" lat="53.000665"><ele>422.458557</ele><time>2021-09-01T11:46:57Z</time><extensions><speed>0.000000</speed><course>-1.000000</course><hAcc>0.898458</hAcc><vAcc>0.693760</vAcc></extensions></trkpt>
      <trkpt lon="-3.155611" lat="53.000665"><ele>422.458557</ele><time>2021-09-01T11:46:58Z</time><extensions><speed>0.000000</speed><course>120.394302</course><hAcc>0.905442</hAcc><vAcc>0.701638</vAcc></extensions></trkpt>
      <trkpt lon="-3.155611" lat="53.000665"><ele>422.458557</ele><time>2021-09-01T11:46:59Z</time><extensions><speed>0.000000</speed><course>-1.000000</course><hAcc>0.922491</hAcc><vAcc>0.718596</vAcc></extensions></trkpt>
      <trkpt lon="-3.155611" lat="53.000665"><ele>422.458557</ele><time>2021-09-01T11:47:00Z</time><extensions><speed>0.000000</speed><course>-1.000000</course><hAcc>0.956353</hAcc><vAcc>0.749386</vAcc></extensions></trkpt>
      <trkpt lon="-3.155611" lat="53.000665"><ele>422.458557</ele><time>2021-09-01T11:47:01Z</time><extensions><speed>0.000000</speed><course>-1.000000</course><hAcc>0.918991</hAcc><vAcc>0.716087</vAcc></extensions></trkpt>
      <trkpt lon="-3.155611" lat="53.000665"><ele>422.458557</ele><time>2021-09-01T11:47:02Z</time><extensions><speed>0.000000</speed><course>-1.000000</course><hAcc>0.901807</hAcc><vAcc>0.700142</vAcc></extensions></trkpt>
      <trkpt lon="-3.155611" lat="53.000665"><ele>422.458557</ele><time>2021-09-01T11:47:03Z</time><extensions><speed>0.000000</speed><course>-1.000000</course><hAcc>0.895588</hAcc><vAcc>0.693287</vAcc></extensions></trkpt>
      <trkpt lon="-3.155611" lat="53.000665"><ele>422.458557</ele><time>2021-09-01T11:47:04Z</time><extensions><speed>0.000000</speed><course>-1.000000</course><hAcc>0.894849</hAcc><vAcc>0.691383</vAcc></extensions></trkpt>
      <trkpt lon="-3.155611" lat="53.000665"><ele>422.458557</ele><time>2021-09-01T11:47:05Z</time><extensions><speed>0.000000</speed><course>-1.000000</course><hAcc>0.896202</hAcc><vAcc>0.691702</vAcc></extensions></trkpt>
      <trkpt lon="-3.155611" lat="53.000665"><ele>422.458557</ele><time>2021-09-01T11:47:06Z</time><extensions><speed>0.000000</speed><course>-1.000000</course><hAcc>0.897849</hAcc><vAcc>0.692669</vAcc></extensions></trkpt>
      <trkpt lon="-3.155611" lat="53.000665"><ele>422.458557</ele><time>2021-09-01T11:47:07Z</time><extensions><speed>0.000000</speed><course>-1.000000</course><hAcc>0.899041</hAcc><vAcc>0.693510</vAcc></extensions></trkpt>
      <trkpt lon="-3.155611" lat="53.000665"><ele>422.458557</ele><time>2021-09-01T11:47:08Z</time><extensions><speed>0.000000</speed><course>-1.000000</course><hAcc>0.899630</hAcc><vAcc>0.693955</vAcc></extensions></trkpt>
      <trkpt lon="-3.155611" lat="53.000665"><ele>422.458557</ele><time>2021-09-01T11:47:09Z</time><extensions><speed>0.000000</speed><course>-1.000000</course><hAcc>0.899756</hAcc><vAcc>0.694007</vAcc></extensions></trkpt>
      <trkpt lon="-3.155611" lat="53.000665"><ele>422.458557</ele><time>2021-09-01T11:47:10Z</time><extensions><speed>0.000000</speed><course>184.559082</course><hAcc>0.899637</hAcc><vAcc>0.693786</vAcc></extensions></trkpt>
      <trkpt lon="-3.155611" lat="53.000665"><ele>422.458557</ele><time>2021-09-01T11:47:11Z</time><extensions><speed>0.000000</speed><course>-1.000000</course><hAcc>0.899444</hAcc><vAcc>0.693423</vAcc></extensions></trkpt>
      <trkpt lon="-3.155611" lat="53.000665"><ele>422.458557</ele><time>2021-09-01T11:47:12Z</time><extensions><speed>0.000000</speed><course>-1.000000</course><hAcc>0.899236</hAcc><vAcc>0.693003</vAcc></extensions></trkpt>
      <trkpt lon="-3.155611" lat="53.000665"><ele>422.458557</ele><time>2021-09-01T11:47:13Z</time><extensions><speed>0.000000</speed><course>-1.000000</course><hAcc>0.898963</hAcc><vAcc>0.692557</vAcc></extensions></trkpt>
      <trkpt lon="-3.155611" lat="53.000665"><ele>422.458557</ele><time>2021-09-01T11:47:13Z</time><extensions><speed>0.000000</speed><course>-1.000000</course><hAcc>0.898529</hAcc><vAcc>0.692117</vAcc></extensions></trkpt>
      <trkpt lon="-3.155611" lat="53.000665"><ele>422.458557</ele><time>2021-09-01T11:47:14Z</time><extensions><speed>0.000000</speed><course>53.307610</course><hAcc>0.897870</hAcc><vAcc>0.691774</vAcc></extensions></trkpt>
      <trkpt lon="-3.155611" lat="53.000665"><ele>422.458557</ele><time>2021-09-01T11:47:15Z</time><extensions><speed>0.000000</speed><course>-1.000000</course><hAcc>0.897140</hAcc><vAcc>0.691824</vAcc></extensions></trkpt>
      <trkpt lon="-3.155611" lat="53.000665"><ele>422.458557</ele><time>2021-09-01T11:47:16Z</time><extensions><speed>0.000000</speed><course>-1.000000</course><hAcc>0.897021</hAcc><vAcc>0.692984</vAcc></extensions></trkpt>
      <trkpt lon="-3.155611" lat="53.000665"><ele>422.458557</ele><time>2021-09-01T11:47:17Z</time><extensions><speed>0.000000</speed><course>-1.000000</course><hAcc>0.899092</hAcc><vAcc>0.696637</vAcc></extensions></trkpt>
      <trkpt lon="-3.155611" lat="53.000665"><ele>422.458557</ele><time>2021-09-01T11:47:18Z</time><extensions><speed>0.000000</speed><course>120.394302</course><hAcc>0.906297</hAcc><vAcc>0.705143</vAcc></extensions></trkpt>
      <trkpt lon="-3.155611" lat="53.000665"><ele>422.458557</ele><time>2021-09-01T11:47:19Z</time><extensions><speed>0.000000</speed><course>-1.000000</course><hAcc>0.923394</hAcc><vAcc>0.722071</vAcc></extensions></trkpt>
      <trkpt lon="-3.155611" lat="53.000665"><ele>422.458557</ele><time>2021-09-01T11:47:20Z</time><extensions><speed>0.000000</speed><course>-1.000000</course><hAcc>0.957126</hAcc><vAcc>0.752186</vAcc></extensions></trkpt>
      <trkpt lon="-3.155611" lat="53.000665"><ele>422.458557</ele><time>2021-09-01T11:47:21Z</time><extensions><speed>0.000000</speed><course>-1.000000</course><hAcc>0.921738</hAcc><vAcc>0.723639</vAcc></extensions></trkpt>
      <trkpt lon="-3.155611" lat="53.000665"><ele>422.458557</ele><time>2021-09-01T11:47:22Z</time><extensions><speed>0.000000</speed><course>-1.000000</course><hAcc>0.904271</hAcc><vAcc>0.706755</vAcc></extensions></trkpt>
      <trkpt lon="-3.155611" lat="53.000665"><ele>422.458557</ele><time>2021-09-01T11:47:23Z</time><extensions><speed>0.000000</speed><course>-1.000000</course><hAcc>0.897986</hAcc><vAcc>0.699717</vAcc></extensions></trkpt>
      <trkpt lon="-3.155611" lat="53.000665"><ele>422.458557</ele><time>2021-09-01T11:47:24Z</time><extensions><speed>0.000000</speed><course>-1.000000</course><hAcc>0.897395</hAcc><vAcc>0.698398</vAcc></extensions></trkpt>
      <trkpt lon="-3.155611" lat="53.000665"><ele>422.458557</ele><time>2021-09-01T11:47:25Z</time><extensions><speed>0.000000</speed><course>-1.000000</course><hAcc>0.899081</hAcc><vAcc>0.699972</vAcc></extensions></trkpt>
      <trkpt lon="-3.155611" lat="53.000665"><ele>422.458557</ele><time>2021-09-01T11:47:26Z</time><extensions><speed>0.000000</speed><course>-1.000000</course><hAcc>0.901198</hAcc><vAcc>0.702684</vAcc></extensions></trkpt>
      <trkpt lon="-3.155611" lat="53.000665"><ele>422.458557</ele><time>2021-09-01T11:47:27Z</time><extensions><speed>0.000000</speed><course>-1.000000</course><hAcc>0.902937</hAcc><vAcc>0.705546</vAcc></extensions></trkpt>
      <trkpt lon="-3.155611" lat="53.000665"><ele>422.458557</ele><time>2021-09-01T11:47:28Z</time><extensions><speed>0.000000</speed><course>-1.000000</course><hAcc>0.904087</hAcc><vAcc>0.708054</vAcc></extensions></trkpt>
      <trkpt lon="-3.155611" lat="53.000665"><ele>422.458557</ele><time>2021-09-01T11:47:29Z</time><extensions><speed>0.000000</speed><course>-1.000000</course><hAcc>0.904724</hAcc><vAcc>0.709986</vAcc></extensions></trkpt>
      <trkpt lon="-3.155611" lat="53.000665"><ele>422.458557</ele><time>2021-09-01T11:47:30Z</time><extensions><speed>0.000000</speed><course>184.559082</course><hAcc>0.905008</hAcc><vAcc>0.711256</vAcc></extensions></trkpt>
      <trkpt lon="-3.155611" lat="53.000665"><ele>422.458557</ele><time>2021-09-01T11:47:31Z</time><extensions><speed>0.000000</speed><course>-1.000000</course><hAcc>0.905057</hAcc><vAcc>0.711818</vAcc></extensions></trkpt>
      <trkpt lon="-3.155611" lat="53.000665"><ele>422.458557</ele><time>2021-09-01T11:47:32Z</time><extensions><speed>0.000000</speed><course>-1.000000</course><hAcc>0.904891</hAcc><vAcc>0.711619</vAcc></extensions></trkpt>
      <trkpt lon="-3.155611" lat="53.000665"><ele>422.458557</ele><time>2021-09-01T11:47:33Z</time><extensions><speed>0.000000</speed><course>-1.000000</course><hAcc>0.904432</hAcc><vAcc>0.710594</vAcc></extensions></trkpt>
      <trkpt lon="-3.155611" lat="53.000665"><ele>422.458557</ele><time>2021-09-01T11:47:34Z</time><extensions><speed>0.000000</speed><course>-1.000000</course><hAcc>0.903549</hAcc><vAcc>0.708704</vAcc></extensions></trkpt>
      <trkpt lon="-3.155611" lat="53.000665"><ele>422.458557</ele><time>2021-09-01T11:47:35Z</time><extensions><speed>0.000000</speed><course>53.307610</course><hAcc>0.902173</hAcc><vAcc>0.706030</vAcc></extensions></trkpt>
      <trkpt lon="-3.155611" lat="53.000665"><ele>422.458557</ele><time>2021-09-01T11:47:36Z</time><extensions><speed>0.000000</speed><course>-1.000000</course><hAcc>0.900472</hAcc><vAcc>0.702906</vAcc></extensions></trkpt>
      <trkpt lon="-3.155611" lat="53.000665"><ele>422.458557</ele><time>2021-09-01T11:47:37Z</time><extensions><speed>0.000000</speed><course>-1.000000</course><hAcc>0.899133</hAcc><vAcc>0.700109</vAcc></extensions></trkpt>
      <trkpt lon="-3.155611" lat="53.000665"><ele>422.458557</ele><time>2021-09-01T11:47:38Z</time><extensions><speed>0.000000</speed><course>-1.000000</course><hAcc>0.899740</hAcc><vAcc>0.699113</vAcc></extensions></trkpt>
      <trkpt lon="-3.155611" lat="53.000665"><ele>422.458557</ele><time>2021-09-01T11:47:39Z</time><extensions><speed>0.000000</speed><course>120.394302</course><hAcc>0.905251</hAcc><vAcc>0.702380</vAcc></extensions></trkpt>
      <trkpt lon="-3.155611" lat="53.000665"><ele>422.458557</ele><time>2021-09-01T11:47:40Z</time><extensions><speed>0.000000</speed><course>-1.000000</course><hAcc>0.920463</hAcc><vAcc>0.713622</vAcc></extensions></trkpt>
      <trkpt lon="-3.155611" lat="53.000665"><ele>422.458557</ele><time>2021-09-01T11:47:41Z</time><extensions><speed>0.000000</speed><course>-1.000000</course><hAcc>0.952206</hAcc><vAcc>0.737833</vAcc></extensions></trkpt>
      <trkpt lon="-3.155611" lat="53.000665"><ele>422.458557</ele><time>2021-09-01T11:47:42Z</time><extensions><speed>0.000000</speed><course>-1.000000</course><hAcc>0.916581</hAcc><vAcc>0.708139</vAcc></extensions></trkpt>
      <trkpt lon="-3.155611" lat="53.000665"><ele>422.458557</ele><time>2021-09-01T11:47:43Z</time><extensions><speed>0.000000</speed><course>-1.000000</course><hAcc>0.898222</hAcc><vAcc>0.688325</vAcc></extensions></trkpt>
      <trkpt lon="-3.155611" lat="53.000665"><ele>422.458557</ele><time>2021-09-01T11:47:44Z</time><extensions><speed>0.000000</speed><course>-1.000000</course><hAcc>0.891055</hAcc><vAcc>0.678410</vAcc></extensions></trkpt>
      <trkpt lon="-3.155611" lat="53.000665"><ele>422.458557</ele><time>2021-09-01T11:47:45Z</time><extensions><speed>0.000000</speed><course>-1.000000</course><hAcc>0.889593</hAcc><vAcc>0.674261</vAcc></extensions></trkpt>
      <trkpt lon="-3.155611" lat="53.000665"><ele>422.458557</ele><time>2021-09-01T11:47:46Z</time><extensions><speed>0.000000</speed><course>-1.000000</course><hAcc>0.890425</hAcc><vAcc>0.673063</vAcc></extensions></trkpt>
      <trkpt lon="-3.155611" lat="53.000665"><ele>422.458557</ele><time>2021-09-01T11:47:47Z</time><extensions><speed>0.000000</speed><course>-1.000000</course><hAcc>0.891725</hAcc><vAcc>0.673115</vAcc></extensions></trkpt>
      <trkpt lon="-3.155611" lat="53.000665"><ele>422.458557</ele><time>2021-09-01T11:47:48Z</time><extensions><speed>0.000000</speed><course>-1.000000</course><hAcc>0.892712</hAcc><vAcc>0.673518</vAcc></extensions></trkpt>
      <trkpt lon="-3.155611" lat="53.000665"><ele>422.458557</ele><time>2021-09-01T11:47:49Z</time><extensions><speed>0.000000</speed><course>-1.000000</course><hAcc>0.893214</hAcc><vAcc>0.673888</vAcc></extensions></trkpt>
      <trkpt lon="-3.155611" lat="53.000665"><ele>422.458557</ele><time>2021-09-01T11:47:50Z</time><extensions><speed>0.000000</speed><course>-1.000000</course><hAcc>0.893345</hAcc><vAcc>0.674129</vAcc></extensions></trkpt>
      <trkpt lon="-3.155611" lat="53.000665"><ele>422.458557</ele><time>2021-09-01T11:47:51Z</time><extensions><speed>0.000000</speed><course>184.559082</course><hAcc>0.893296</hAcc><vAcc>0.674259</vAcc></extensions></trkpt>
      <trkpt lon="-3.155611" lat="53.000665"><ele>422.458557</ele><time>2021-09-01T11:47:52Z</time><extensions><speed>0.000000</speed><course>-1.000000</course><hAcc>0.893208</hAcc><vAcc>0.674299</vAcc></extensions></trkpt>
      <trkpt lon="-3.155611" lat="53.000665"><ele>422.458557</ele><time>2021-09-01T11:47:53Z</time><extensions><speed>0.000000</speed><course>-1.000000</course><hAcc>0.893109</hAcc><vAcc>0.674219</vAcc></extensions></trkpt>
      <trkpt lon="-3.155611" lat="53.000665"><ele>422.458557</ele><time>2021-09-01T11:47:54Z</time><extensions><speed>0.000000</speed><course>-1.000000</course><hAcc>0.892915</hAcc><vAcc>0.673948</vAcc></extensions></trkpt>
      <trkpt lon="-3.155611" lat="53.000665"><ele>422.458557</ele><time>2021-09-01T11:47:55Z</time><extensions><speed>0.000000</speed><course>-1.000000</course><hAcc>0.892482</hAcc><vAcc>0.673420</vAcc></extensions></trkpt>
      <trkpt lon="-3.155611" lat="53.000665"><ele>422.458557</ele><time>2021-09-01T11:47:56Z</time><extensions><speed>0.000000</speed><course>53.307610</course><hAcc>0.891720</hAcc><vAcc>0.672665</vAcc></extensions></trkpt>
      <trkpt lon="-3.155611" lat="53.000665"><ele>422.458557</ele><time>2021-09-01T11:47:57Z</time><extensions><speed>0.000000</speed><course>-1.000000</course><hAcc>0.890777</hAcc><vAcc>0.671952</vAcc></extensions></trkpt>
      <trkpt lon="-3.155611" lat="53.000665"><ele>422.458557</ele><time>2021-09-01T11:47:58Z</time><extensions><speed>0.000000</speed><course>-1.000000</course><hAcc>0.890322</hAcc><vAcc>0.672000</vAcc></extensions></trkpt>
      <trkpt lon="-3.155611" lat="53.000665"><ele>422.458557</ele><time>2021-09-01T11:47:59Z</time><extensions><speed>0.000000</speed><course>-1.000000</course><hAcc>0.891928</hAcc><vAcc>0.674248</vAcc></extensions></trkpt>
      <trkpt lon="-3.155611" lat="53.000665"><ele>422.458557</ele><time>2021-09-01T11:48:00Z</time><extensions><speed>0.000000</speed><course>120.394302</course><hAcc>0.898555</hAcc><vAcc>0.681155</vAcc></extensions></trkpt>
      <trkpt lon="-3.155611" lat="53.000665"><ele>422.458557</ele><time>2021-09-01T11:48:01Z</time><extensions><speed>0.000000</speed><course>-1.000000</course><hAcc>0.915001</hAcc><vAcc>0.696425</vAcc></extensions></trkpt>
      <trkpt lon="-3.155611" lat="53.000665"><ele>422.458557</ele><time>2021-09-01T11:48:02Z</time><extensions><speed>0.000000</speed><course>-1.000000</course><hAcc>0.948076</hAcc><vAcc>0.724986</vAcc></extensions></trkpt>
      <trkpt lon="-3.155611" lat="53.000665"><ele>422.458557</ele><time>2021-09-01T11:48:03Z</time><extensions><speed>0.000000</speed><course>-1.000000</course><hAcc>0.913084</hAcc><vAcc>0.698045</vAcc></extensions></trkpt>
      <trkpt lon="-3.155611" lat="53.000665"><ele>422.458557</ele><time>2021-09-01T11:48:04Z</time><extensions><speed>0.000000</speed><course>-1.000000</course><hAcc>0.897067</hAcc><vAcc>0.685333</vAcc></extensions></trkpt>
      <trkpt lon="-3.155611" lat="53.000665"><ele>422.458557</ele><time>2021-09-01T11:48:05Z</time><extensions><speed>0.000000</speed><course>-1.000000</course><hAcc>0.892072</hAcc><vAcc>0.682046</vAcc></extensions></trkpt>
      <trkpt lon="-3.155611" lat="53.000665"><ele>422.458557</ele><time>2021-09-01T11:48:06Z</time><extensions><speed>0.000000</speed><course>-1.000000</course><hAcc>0.892579</hAcc><vAcc>0.683961</vAcc></extensions></trkpt>
      <trkpt lon="-3.155611" lat="53.000665"><ele>422.458557</ele><time>2021-09-01T11:48:07Z</time><extensions><speed>0.000000</speed><course>-1.000000</course><hAcc>0.895181</hAcc><vAcc>0.688255</vAcc></extensions></trkpt>
      <trkpt lon="-3.155611" lat="53.000665"><ele>422.458557</ele><time>2021-09-01T11:48:08Z</time><extensions><speed>0.000000</speed><course>-1.000000</course><hAcc>0.898059</hAcc><vAcc>0.693228</vAcc></extensions></trkpt>
      <trkpt lon="-3.155611" lat="53.000665"><ele>422.458557</ele><time>2021-09-01T11:48:09Z</time><extensions><speed>0.000000</speed><course>-1.000000</course><hAcc>0.900439</hAcc><vAcc>0.697980</vAcc></extensions></trkpt>
      <trkpt lon="-3.155611" lat="53.000665"><ele>422.458557</ele><time>2021-09-01T11:48:10Z</time><extensions><speed>0.000000</speed><course>-1.000000</course><hAcc>0.902148</hAcc><vAcc>0.702119</vAcc></extensions></trkpt>
      <trkpt lon="-3.155611" lat="53.000665"><ele>422.458557</ele><time>2021-09-01T11:48:11Z</time><extensions><speed>0.000000</speed><course>-1.000000</course><hAcc>0.903296</hAcc><vAcc>0.705543</vAcc></extensions></trkpt>
      <trkpt lon="-3.155611" lat="53.000665"><ele>422.458557</ele><time>2021-09-01T11:48:12Z</time><extensions><speed>0.000000</speed><course>184.559082</course><hAcc>0.904074</hAcc><vAcc>0.708273</vAcc></extensions></trkpt>
      <trkpt lon="-3.155611" lat="53.000665"><ele>422.458557</ele><time>2021-09-01T11:48:13Z</time><extensions><speed>0.000000</speed><course>-1.000000</course><hAcc>0.904629</hAcc><vAcc>0.710361</vAcc></extensions></trkpt>
      <trkpt lon="-3.155611" lat="53.000665"><ele>422.458557</ele><time>2021-09-01T11:48:14Z</time><extensions><speed>0.000000</speed><course>-1.000000</course><hAcc>0.905012</hAcc><vAcc>0.711845</vAcc></extensions></trkpt>
      <trkpt lon="-3.155611" lat="53.000665"><ele>422.458557</ele><time>2021-09-01T11:48:15Z</time><extensions><speed>0.000000</speed><course>-1.000000</course><hAcc>0.905176</hAcc><vAcc>0.712750</vAcc></extensions></trkpt>
      <trkpt lon="-3.155611" lat="53.000665"><ele>422.458557</ele><time>2021-09-01T11:48:16Z</time><extensions><speed>0.000000</speed><course>-1.000000</course><hAcc>0.905033</hAcc><vAcc>0.713138</vAcc></extensions></trkpt>
      <trkpt lon="-3.155611" lat="53.000665"><ele>422.458557</ele><time>2021-09-01T11:48:17Z</time><extensions><speed>0.000000</speed><course>53.307610</course><hAcc>0.904562</hAcc><vAcc>0.713200</vAcc></extensions></trkpt>
      <trkpt lon="-3.155611" lat="53.000665"><ele>422.458557</ele><time>2021-09-01T11:48:18Z</time><extensions><speed>0.000000</speed><course>-1.000000</course><hAcc>0.903995</hAcc><vAcc>0.713406</vAcc></extensions></trkpt>
      <trkpt lon="-3.155611" lat="53.000665"><ele>422.458557</ele><time>2021-09-01T11:48:19Z</time><extensions><speed>0.000000</speed><course>-1.000000</course><hAcc>0.904096</hAcc><vAcc>0.714708</vAcc></extensions></trkpt>
      <trkpt lon="-3.155611" lat="53.000665"><ele>422.458557</ele><time>2021-09-01T11:48:20Z</time><extensions><speed>0.000000</speed><course>-1.000000</course><hAcc>0.906530</hAcc><vAcc>0.718790</vAcc></extensions></trkpt>
      <trkpt lon="-3.155611" lat="53.000665"><ele>422.458557</ele><time>2021-09-01T11:48:21Z</time><extensions><speed>0.000000</speed><course>120.394302</course><hAcc>0.914321</hAcc><vAcc>0.728325</vAcc></extensions></trkpt>
      <trkpt lon="-3.155611" lat="53.000665"><ele>422.458557</ele><time>2021-09-01T11:48:22Z</time><extensions><speed>0.000000</speed><course>-1.000000</course><hAcc>0.932272</hAcc><vAcc>0.747136</vAcc></extensions></trkpt>
      <trkpt lon="-3.155611" lat="53.000665"><ele>422.458557</ele><time>2021-09-01T11:48:23Z</time><extensions><speed>0.000000</speed><course>-1.000000</course><hAcc>0.967107</hAcc><vAcc>0.780083</vAcc></extensions></trkpt>
      <trkpt lon="-3.155611" lat="53.000665"><ele>422.458557</ele><time>2021-09-01T11:48:24Z</time><extensions><speed>0.000000</speed><course>-1.000000</course><hAcc>0.928650</hAcc><vAcc>0.743943</vAcc></extensions></trkpt>
      <trkpt lon="-3.155611" lat="53.000665"><ele>422.458557</ele><time>2021-09-01T11:48:25Z</time><extensions><speed>0.000000</speed><course>-1.000000</course><hAcc>0.909709</hAcc><vAcc>0.723680</vAcc></extensions></trkpt>
      <trkpt lon="-3.155611" lat="53.000665"><ele>422.458557</ele><time>2021-09-01T11:48:26Z</time><extensions><speed>0.000000</speed><course>-1.000000</course><hAcc>0.901904</hAcc><vAcc>0.713098</vAcc></extensions></trkpt>
      <trkpt lon="-3.155611" lat="53.000665"><ele>422.458557</ele><time>2021-09-01T11:48:27Z</time><extensions><speed>0.000000</speed><course>-1.000000</course><hAcc>0.899749</hAcc><vAcc>0.707935</vAcc></extensions></trkpt>
      <trkpt lon="-3.155611" lat="53.000665"><ele>422.458557</ele><time>2021-09-01T11:48:28Z</time><extensions><speed>0.000000</speed><course>-1.000000</course><hAcc>0.899808</hAcc><vAcc>0.705250</vAcc></extensions></trkpt>
      <trkpt lon="-3.155611" lat="53.000665"><ele>422.458557</ele><time>2021-09-01T11:48:29Z</time><extensions><speed>0.000000</speed><course>-1.000000</course><hAcc>0.900224</hAcc><vAcc>0.703269</vAcc></extensions></trkpt>
      <trkpt lon="-3.155611" lat="53.000665"><ele>422.458557</ele><time>2021-09-01T11:48:30Z</time><extensions><speed>0.000000</speed><course>-1.000000</course><hAcc>0.900202</hAcc><vAcc>0.701103</vAcc></extensions></trkpt>
      <trkpt lon="-3.155611" lat="53.000665"><ele>422.458557</ele><time>2021-09-01T11:48:31Z</time><extensions><speed>0.000000</speed><course>-1.000000</course><hAcc>0.899586</hAcc><vAcc>0.698465</vAcc></extensions></trkpt>
      <trkpt lon="-3.155611" lat="53.000665"><ele>422.458557</ele><time>2021-09-01T11:48:32Z</time><extensions><speed>0.000000</speed><course>-1.000000</course><hAcc>0.898552</hAcc><vAcc>0.695428</vAcc></extensions></trkpt>
      <trkpt lon="-3.155611" lat="53.000665"><ele>422.458557</ele><time>2021-09-01T11:48:33Z</time><extensions><speed>0.000000</speed><course>184.559082</course><hAcc>0.897401</hAcc><vAcc>0.692253</vAcc></extensions></trkpt>
      <trkpt lon="-3.155611" lat="53.000665"><ele>422.458557</ele><time>2021-09-01T11:48:34Z</time><extensions><speed>0.000000</speed><course>-1.000000</course><hAcc>0.896436</hAcc><vAcc>0.689273</vAcc></extensions></trkpt>
      <trkpt lon="-3.155611" lat="53.000665"><ele>422.458557</ele><time>2021-09-01T11:48:35Z</time><extensions><speed>0.000000</speed><course>-1.000000</course><hAcc>0.895900</hAcc><vAcc>0.686817</vAcc></extensions></trkpt>
      <trkpt lon="-3.155611" lat="53.000665"><ele>422.458557</ele><time>2021-09-01T11:48:36Z</time><extensions><speed>0.000000</speed><course>-1.000000</course><hAcc>0.895954</hAcc><vAcc>0.685153</vAcc></extensions></trkpt>
      <trkpt lon="-3.155611" lat="53.000665"><ele>422.458557</ele><time>2021-09-01T11:48:37Z</time><extensions><speed>0.000000</speed><course>-1.000000</course><hAcc>0.896704</hAcc><vAcc>0.684499</vAcc></extensions></trkpt>
      <trkpt lon="-3.155611" lat="53.000665"><ele>422.458557</ele><time>2021-09-01T11:48:38Z</time><extensions><speed>0.000000</speed><course>53.307610</course><hAcc>0.898273</hAcc><vAcc>0.685077</vAcc></extensions></trkpt>
      <trkpt lon="-3.155611" lat="53.000665"><ele>422.458557</ele><time>2021-09-01T11:48:39Z</time><extensions><speed>0.000000</speed><course>-1.000000</course><hAcc>0.900919</hAcc><vAcc>0.687211</vAcc></extensions></trkpt>
      <trkpt lon="-3.155611" lat="53.000665"><ele>422.458557</ele><time>2021-09-01T11:48:40Z</time><extensions><speed>0.000000</speed><course>-1.000000</course><hAcc>0.905212</hAcc><vAcc>0.691453</vAcc></extensions></trkpt>
      <trkpt lon="-3.155611" lat="53.000665"><ele>422.458557</ele><time>2021-09-01T11:48:41Z</time><extensions><speed>0.000000</speed><course>-1.000000</course><hAcc>0.912264</hAcc><vAcc>0.698755</vAcc></extensions></trkpt>
      <trkpt lon="-3.155611" lat="53.000665"><ele>422.458557</ele><time>2021-09-01T11:48:42Z</time><extensions><speed>0.000000</speed><course>120.394302</course><hAcc>0.924024</hAcc><vAcc>0.710681</vAcc></extensions></trkpt>
      <trkpt lon="-3.155611" lat="53.000665"><ele>422.458557</ele><time>2021-09-01T11:48:43Z</time><extensions><speed>0.000000</speed><course>-1.000000</course><hAcc>0.943563</hAcc><vAcc>0.729592</vAcc></extensions></trkpt>
      <trkpt lon="-3.155611" lat="53.000665"><ele>422.458557</ele><time>2021-09-01T11:48:44Z</time><extensions><speed>0.000000</speed><course>-1.000000</course><hAcc>0.975264</hAcc><vAcc>0.758700</vAcc></extensions></trkpt>
      <trkpt lon="-3.155611" lat="53.000664"><ele>422.460938</ele><time>2021-09-01T11:48:45Z</time><extensions><speed>0.000494</speed><course>-1.000000</course><hAcc>0.980848</hAcc><vAcc>0.761453</vAcc></extensions></trkpt>
      <trkpt lon="-3.155611" lat="53.000664"><ele>422.461395</ele><time>2021-09-01T11:48:47Z</time><extensions><speed>0.000169</speed><course>-1.000000</course><hAcc>0.968437</hAcc><vAcc>0.749129</vAcc></extensions></trkpt>
      <trkpt lon="-3.155611" lat="53.000664"><ele>422.461487</ele><time>2021-09-01T11:48:48Z</time><extensions><speed>0.000047</speed><course>-1.000000</course><hAcc>0.948029</hAcc><vAcc>0.734391</vAcc></extensions></trkpt>
      <trkpt lon="-3.155611" lat="53.000664"><ele>422.461487</ele><time>2021-09-01T11:48:49Z</time><extensions><speed>0.000122</speed><course>-1.000000</course><hAcc>0.933497</hAcc><vAcc>0.723853</vAcc></extensions></trkpt>
      <trkpt lon="-3.155611" lat="53.000664"><ele>422.461365</ele><time>2021-09-01T11:48:50Z</time><extensions><speed>0.000330</speed><course>-1.000000</course><hAcc>0.922598</hAcc><vAcc>0.715735</vAcc></extensions></trkpt>
      <trkpt lon="-3.155611" lat="53.000664"><ele>422.461090</ele><time>2021-09-01T11:48:51Z</time><extensions><speed>0.000591</speed><course>-1.000000</course><hAcc>0.913942</hAcc><vAcc>0.708923</vAcc></extensions></trkpt>
      <trkpt lon="-3.155611" lat="53.000665"><ele>422.460663</ele><time>2021-09-01T11:48:52Z</time><extensions><speed>0.000912</speed><course>-1.000000</course><hAcc>0.906736</hAcc><vAcc>0.702810</vAcc></extensions></trkpt>
      <trkpt lon="-3.155611" lat="53.000665"><ele>422.459991</ele><time>2021-09-01T11:48:53Z</time><extensions><speed>0.001299</speed><course>-1.000000</course><hAcc>0.900565</hAcc><vAcc>0.697144</vAcc></extensions></trkpt>
      <trkpt lon="-3.155611" lat="53.000665"><ele>422.459045</ele><time>2021-09-01T11:48:54Z</time><extensions><speed>0.001755</speed><course>-1.000000</course><hAcc>0.895240</hAcc><vAcc>0.691893</vAcc></extensions></trkpt>
      <trkpt lon="-3.155611" lat="53.000665"><ele>422.457794</ele><time>2021-09-01T11:48:55Z</time><extensions><speed>0.002284</speed><course>184.559082</course><hAcc>0.890683</hAcc><vAcc>0.687138</vAcc></extensions></trkpt>
      <trkpt lon="-3.155611" lat="53.000665"><ele>422.456207</ele><time>2021-09-01T11:48:56Z</time><extensions><speed>0.002883</speed><course>-1.000000</course><hAcc>0.886865</hAcc><vAcc>0.682986</vAcc></extensions></trkpt>
      <trkpt lon="-3.155611" lat="53.000665"><ele>422.454193</ele><time>2021-09-01T11:48:57Z</time><extensions><speed>0.003549</speed><course>-1.000000</course><hAcc>0.883768</hAcc><vAcc>0.679543</vAcc></extensions></trkpt>
      <trkpt lon="-3.155611" lat="53.000665"><ele>422.451721</ele><time>2021-09-01T11:48:58Z</time><extensions><speed>0.004270</speed><course>-1.000000</course><hAcc>0.881368</hAcc><vAcc>0.676894</vAcc></extensions></trkpt>
      <trkpt lon="-3.155611" lat="53.000665"><ele>422.448761</ele><time>2021-09-01T11:48:59Z</time><extensions><speed>0.005032</speed><course>-1.000000</course><hAcc>0.879632</hAcc><vAcc>0.675097</vAcc></extensions></trkpt>
      <trkpt lon="-3.155611" lat="53.000665"><ele>422.445312</ele><time>2021-09-01T11:49:00Z</time><extensions><speed>0.005810</speed><course>53.307610</course><hAcc>0.878519</hAcc><vAcc>0.674184</vAcc></extensions></trkpt>
      <trkpt lon="-3.155611" lat="53.000665"><ele>422.441376</ele><time>2021-09-01T11:49:01Z</time><extensions><speed>0.006571</speed><course>-1.000000</course><hAcc>0.877980</hAcc><vAcc>0.674147</vAcc></extensions></trkpt>
      <trkpt lon="-3.155611" lat="53.000665"><ele>422.436951</ele><time>2021-09-01T11:49:02Z</time><extensions><speed>0.007271</speed><course>-1.000000</course><hAcc>0.877962</hAcc><vAcc>0.674939</vAcc></extensions></trkpt>
      <trkpt lon="-3.155611" lat="53.000665"><ele>422.432068</ele><time>2021-09-01T11:49:03Z</time><extensions><speed>0.007857</speed><course>-1.000000</course><hAcc>0.878400</hAcc><vAcc>0.676451</vAcc></extensions></trkpt>
      <trkpt lon="-3.155611" lat="53.000665"><ele>422.426880</ele><time>2021-09-01T11:49:04Z</time><extensions><speed>0.008260</speed><course>120.394302</course><hAcc>0.879222</hAcc><vAcc>0.678525</vAcc></extensions></trkpt>
      <trkpt lon="-3.155611" lat="53.000665"><ele>422.421509</ele><time>2021-09-01T11:49:06Z</time><extensions><speed>0.008401</speed><course>-1.000000</course><hAcc>0.880335</hAcc><vAcc>0.680970</vAcc></extensions></trkpt>
      <trkpt lon="-3.155611" lat="53.000665"><ele>422.416107</ele><time>2021-09-01T11:49:07Z</time><extensions><speed>0.008188</speed><course>-1.000000</course><hAcc>0.881655</hAcc><vAcc>0.683609</vAcc></extensions></trkpt>
      <trkpt lon="-3.155611" lat="53.000665"><ele>422.411011</ele><time>2021-09-01T11:49:08Z</time><extensions><speed>0.007516</speed><course>-1.000000</course><hAcc>0.883120</hAcc><vAcc>0.686313</vAcc></extensions></trkpt>
      <trkpt lon="-3.155611" lat="53.000665"><ele>422.406494</ele><time>2021-09-01T11:49:09Z</time><extensions><speed>0.006267</speed><course>-1.000000</course><hAcc>0.884647</hAcc><vAcc>0.688968</vAcc></extensions></trkpt>
      <trkpt lon="-3.155611" lat="53.000665"><ele>422.402985</ele><time>2021-09-01T11:49:10Z</time><extensions><speed>0.004311</speed><course>-1.000000</course><hAcc>0.886162</hAcc><vAcc>0.691504</vAcc></extensions></trkpt>
      <trkpt lon="-3.155611" lat="53.000665"><ele>422.401001</ele><time>2021-09-01T11:49:11Z</time><extensions><speed>0.001517</speed><course>-1.000000</course><hAcc>0.887623</hAcc><vAcc>0.693908</vAcc></extensions></trkpt>
      <trkpt lon="-3.155611" lat="53.000665"><ele>422.401154</ele><time>2021-09-01T11:49:12Z</time><extensions><speed>0.002320</speed><course>-1.000000</course><hAcc>0.889048</hAcc><vAcc>0.696250</vAcc></extensions></trkpt>
      <trkpt lon="-3.155611" lat="53.000665"><ele>422.404114</ele><time>2021-09-01T11:49:13Z</time><extensions><speed>0.007255</speed><course>-1.000000</course><hAcc>0.890583</hAcc><vAcc>0.698732</vAcc></extensions></trkpt>
      <trkpt lon="-3.155611" lat="53.000665"><ele>422.410706</ele><time>2021-09-01T11:49:14Z</time><extensions><speed>0.013484</speed><course>-1.000000</course><hAcc>0.892592</hAcc><vAcc>0.701752</vAcc></extensions></trkpt>
      <trkpt lon="-3.155611" lat="53.000665"><ele>422.421814</ele><time>2021-09-01T11:49:15Z</time><extensions><speed>0.021130</speed><course>-1.000000</course><hAcc>0.895780</hAcc><vAcc>0.705981</vAcc></extensions></trkpt>
      <trkpt lon="-3.155611" lat="53.000665"><ele>422.438354</ele><time>2021-09-01T11:49:15Z</time><extensions><speed>0.030281</speed><course>-1.000000</course><hAcc>0.901365</hAcc><vAcc>0.712464</vAcc></extensions></trkpt>
      <trkpt lon="-3.155611" lat="53.000664"><ele>422.461426</ele><time>2021-09-01T11:49:16Z</time><extensions><speed>0.041046</speed><course>-1.000000</course><hAcc>0.911238</hAcc><vAcc>0.722706</vAcc></extensions></trkpt>
      <trkpt lon="-3.155611" lat="53.000664"><ele>422.492065</ele><time>2021-09-01T11:49:18Z</time><extensions><speed>0.053454</speed><course>-1.000000</course><hAcc>0.928073</hAcc><vAcc>0.738680</vAcc></extensions></trkpt>
      <trkpt lon="-3.155611" lat="53.000664"><ele>422.531281</ele><time>2021-09-01T11:49:19Z</time><extensions><speed>0.067409</speed><course>-1.000000</course><hAcc>0.955362</hAcc><vAcc>0.762789</vAcc></extensions></trkpt>
      <trkpt lon="-3.155611" lat="53.000663"><ele>422.580048</ele><time>2021-09-01T11:49:19Z</time><extensions><speed>0.082772</speed><course>-1.000000</course><hAcc>0.997232</hAcc><vAcc>0.797709</vAcc></extensions></trkpt>
      <trkpt lon="-3.155611" lat="53.000662"><ele>422.639313</ele><time>2021-09-01T11:49:20Z</time><extensions><speed>0.099360</speed><course>-1.000000</course><hAcc>1.058012</hAcc><vAcc>0.846123</vAcc></extensions></trkpt>
      <trkpt lon="-3.155611" lat="53.000661"><ele>422.709686</ele><time>2021-09-01T11:49:21Z</time><extensions><speed>0.116765</speed><course>-1.000000</course><hAcc>1.141300</hAcc><vAcc>0.910132</vAcc></extensions></trkpt>
      <trkpt lon="-3.155611" lat="53.000660"><ele>422.791504</ele><time>2021-09-01T11:49:22Z</time><extensions><speed>0.134451</speed><course>-1.000000</course><hAcc>1.249412</hAcc><vAcc>0.991036</vAcc></extensions></trkpt>
      <trkpt lon="-3.155611" lat="53.000659"><ele>422.884827</ele><time>2021-09-01T11:49:24Z</time><extensions><speed>0.151725</speed><course>-1.000000</course><hAcc>1.382967</hAcc><vAcc>1.089154</vAcc></extensions></trkpt>
      <trkpt lon="-3.155598" lat="53.000635"><ele>423.176208</ele><time>2021-09-01T11:49:41Z</time><extensions><speed>0.181039</speed><course>116.725777</course><hAcc>1.715483</hAcc><vAcc>1.259260</vAcc></extensions></trkpt>
      <trkpt lon="-3.155596" lat="53.000633"><ele>423.104858</ele><time>2021-09-01T11:49:42Z</time><extensions><speed>0.167163</speed><course>116.725777</course><hAcc>1.623289</hAcc><vAcc>1.178013</vAcc></extensions></trkpt>
      <trkpt lon="-3.155595" lat="53.000632"><ele>423.023071</ele><time>2021-09-01T11:49:43Z</time><extensions><speed>0.152965</speed><course>116.725777</course><hAcc>1.542851</hAcc><vAcc>1.105337</vAcc></extensions></trkpt>
      <trkpt lon="-3.155593" lat="53.000631"><ele>422.888214</ele><time>2021-09-01T11:49:45Z</time><extensions><speed>0.123038</speed><course>116.725777</course><hAcc>1.433880</hAcc><vAcc>1.007750</vAcc></extensions></trkpt>
      <trkpt lon="-3.155591" lat="53.000630"><ele>422.789948</ele><time>2021-09-01T11:49:46Z</time><extensions><speed>0.109519</speed><course>116.725777</course><hAcc>1.363279</hAcc><vAcc>0.946022</vAcc></extensions></trkpt>
      <trkpt lon="-3.155590" lat="53.000630"><ele>422.692230</ele><time>2021-09-01T11:49:47Z</time><extensions><speed>0.096058</speed><course>116.725784</course><hAcc>1.303172</hAcc><vAcc>0.893611</vAcc></extensions></trkpt>
      <trkpt lon="-3.155589" lat="53.000630"><ele>422.597809</ele><time>2021-09-01T11:49:48Z</time><extensions><speed>0.082731</speed><course>116.725784</course><hAcc>1.253466</hAcc><vAcc>0.850630</vAcc></extensions></trkpt>
      <trkpt lon="-3.155588" lat="53.000629"><ele>422.508881</ele><time>2021-09-01T11:49:49Z</time><extensions><speed>0.070156</speed><course>116.725784</course><hAcc>1.213554</hAcc><vAcc>0.816617</vAcc></extensions></trkpt>
      <trkpt lon="-3.155587" lat="53.000629"><ele>422.427094</ele><time>2021-09-01T11:49:50Z</time><extensions><speed>0.059513</speed><course>116.725784</course><hAcc>1.182475</hAcc><vAcc>0.790690</vAcc></extensions></trkpt>
      <trkpt lon="-3.155586" lat="53.000630"><ele>422.353271</ele><time>2021-09-01T11:49:51Z</time><extensions><speed>0.052380</speed><course>116.725784</course><hAcc>1.158923</hAcc><vAcc>0.771597</vAcc></extensions></trkpt>
      <trkpt lon="-3.155585" lat="53.000630"><ele>422.288086</ele><time>2021-09-01T11:49:52Z</time><extensions><speed>0.050228</speed><course>116.725784</course><hAcc>1.141581</hAcc><vAcc>0.758044</vAcc></extensions></trkpt>
      <trkpt lon="-3.155585" lat="53.000630"><ele>422.231567</ele><time>2021-09-01T11:49:53Z</time><extensions><speed>0.052940</speed><course>116.725784</course><hAcc>1.129149</hAcc><vAcc>0.748758</vAcc></extensions></trkpt>
      <trkpt lon="-3.155585" lat="53.000631"><ele>422.183502</ele><time>2021-09-01T11:49:54Z</time><extensions><speed>0.058774</speed><course>116.725784</course><hAcc>1.120457</hAcc><vAcc>0.742607</vAcc></extensions></trkpt>
      <trkpt lon="-3.155584" lat="53.000631"><ele>422.143372</ele><time>2021-09-01T11:49:55Z</time><extensions><speed>0.065747</speed><course>116.725784</course><hAcc>1.114510</hAcc><vAcc>0.738656</vAcc></extensions></trkpt>
      <trkpt lon="-3.155585" lat="53.000632"><ele>422.110565</ele><time>2021-09-01T11:49:56Z</time><extensions><speed>0.072443</speed><course>116.725784</course><hAcc>1.110530</hAcc><vAcc>0.736192</vAcc></extensions></trkpt>
      <trkpt lon="-3.155585" lat="53.000632"><ele>422.084381</ele><time>2021-09-01T11:49:57Z</time><extensions><speed>0.078005</speed><course>116.725784</course><hAcc>1.107892</hAcc><vAcc>0.734675</vAcc></extensions></trkpt>
      <trkpt lon="-3.155585" lat="53.000633"><ele>422.064026</ele><time>2021-09-01T11:49:58Z</time><extensions><speed>0.081805</speed><course>116.725784</course><hAcc>1.106132</hAcc><vAcc>0.733723</vAcc></extensions></trkpt>
      <trkpt lon="-3.155585" lat="53.000634"><ele>422.048676</ele><time>2021-09-01T11:49:59Z</time><extensions><speed>0.083455</speed><course>116.725784</course><hAcc>1.104929</hAcc><vAcc>0.733087</vAcc></extensions></trkpt>
      <trkpt lon="-3.155586" lat="53.000634"><ele>422.037445</ele><time>2021-09-01T11:50:00Z</time><extensions><speed>0.082859</speed><course>116.725784</course><hAcc>1.104066</hAcc><vAcc>0.732615</vAcc></extensions></trkpt>
      <trkpt lon="-3.155586" lat="53.000635"><ele>422.029663</ele><time>2021-09-01T11:50:01Z</time><extensions><speed>0.080190</speed><course>116.725784</course><hAcc>1.103403</hAcc><vAcc>0.732220</vAcc></extensions></trkpt>
      <trkpt lon="-3.155587" lat="53.000636"><ele>422.024628</ele><time>2021-09-01T11:50:02Z</time><extensions><speed>0.075850</speed><course>116.725784</course><hAcc>1.102856</hAcc><vAcc>0.731857</vAcc></extensions></trkpt>
      <trkpt lon="-3.155587" lat="53.000636"><ele>422.021820</ele><time>2021-09-01T11:50:03Z</time><extensions><speed>0.070349</speed><course>116.725784</course><hAcc>1.102394</hAcc><vAcc>0.731521</vAcc></extensions></trkpt>
      <trkpt lon="-3.155588" lat="53.000637"><ele>422.020752</ele><time>2021-09-01T11:50:04Z</time><extensions><speed>0.064094</speed><course>116.725777</course><hAcc>1.101992</hAcc><vAcc>0.731208</vAcc></extensions></trkpt>
      <trkpt lon="-3.155589" lat="53.000637"><ele>422.021027</ele><time>2021-09-01T11:50:05Z</time><extensions><speed>0.057461</speed><course>116.725769</course><hAcc>1.101625</hAcc><vAcc>0.730913</vAcc></extensions></trkpt>
      <trkpt lon="-3.155589" lat="53.000638"><ele>422.022247</ele><time>2021-09-01T11:50:06Z</time><extensions><speed>0.050748</speed><course>116.725769</course><hAcc>1.101290</hAcc><vAcc>0.730639</vAcc></extensions></trkpt>
      <trkpt lon="-3.155589" lat="53.000638"><ele>422.024170</ele><time>2021-09-01T11:50:07Z</time><extensions><speed>0.044195</speed><course>116.725761</course><hAcc>1.100989</hAcc><vAcc>0.730394</vAcc></extensions></trkpt>
      <trkpt lon="-3.155590" lat="53.000638"><ele>422.026489</ele><time>2021-09-01T11:50:08Z</time><extensions><speed>0.037990</speed><course>116.725754</course><hAcc>1.100725</hAcc><vAcc>0.730180</vAcc></extensions></trkpt>
      <trkpt lon="-3.155590" lat="53.000639"><ele>422.029083</ele><time>2021-09-01T11:50:09Z</time><extensions><speed>0.032273</speed><course>116.725746</course><hAcc>1.100498</hAcc><vAcc>0.729998</vAcc></extensions></trkpt>
      <trkpt lon="-3.155590" lat="53.000639"><ele>422.031738</ele><time>2021-09-01T11:50:10Z</time><extensions><speed>0.027144</speed><course>116.725746</course><hAcc>1.100309</hAcc><vAcc>0.729849</vAcc></extensions></trkpt>
      <trkpt lon="-3.155591" lat="53.000639"><ele>422.034393</ele><time>2021-09-01T11:50:11Z</time><extensions><speed>0.022667</speed><course>116.725731</course><hAcc>1.100155</hAcc><vAcc>0.729728</vAcc></extensions></trkpt>
      <trkpt lon="-3.155591" lat="53.000639"><ele>422.036896</ele><time>2021-09-01T11:50:12Z</time><extensions><speed>0.018877</speed><course>116.725723</course><hAcc>1.100031</hAcc><vAcc>0.729632</vAcc></extensions></trkpt>
      <trkpt lon="-3.155591" lat="53.000639"><ele>422.039246</ele><time>2021-09-01T11:50:13Z</time><extensions><speed>0.015779</speed><course>116.725723</course><hAcc>1.099931</hAcc><vAcc>0.729557</vAcc></extensions></trkpt>
      <trkpt lon="-3.155591" lat="53.000639"><ele>422.041382</ele><time>2021-09-01T11:50:14Z</time><extensions><speed>0.013352</speed><course>116.725708</course><hAcc>1.099842</hAcc><vAcc>0.729495</vAcc></extensions></trkpt>
      <trkpt lon="-3.155592" lat="53.000639"><ele>422.043274</ele><time>2021-09-01T11:50:15Z</time><extensions><speed>0.011558</speed><course>116.725700</course><hAcc>1.099764</hAcc><vAcc>0.729451</vAcc></extensions></trkpt>
      <trkpt lon="-3.155592" lat="53.000639"><ele>422.044891</ele><time>2021-09-01T11:50:16Z</time><extensions><speed>0.010334</speed><course>116.725693</course><hAcc>1.099673</hAcc><vAcc>0.729416</vAcc></extensions></trkpt>
      <trkpt lon="-3.155592" lat="53.000639"><ele>422.046295</ele><time>2021-09-01T11:50:17Z</time><extensions><speed>0.009632</speed><course>116.725685</course><hAcc>1.099519</hAcc><vAcc>0.729364</vAcc></extensions></trkpt>
      <trkpt lon="-3.155592" lat="53.000639"><ele>422.047485</ele><time>2021-09-01T11:50:18Z</time><extensions><speed>0.009413</speed><course>116.725670</course><hAcc>1.099257</hAcc><vAcc>0.729279</vAcc></extensions></trkpt>
      <trkpt lon="-3.155592" lat="53.000639"><ele>422.048462</ele><time>2021-09-01T11:50:19Z</time><extensions><speed>0.009653</speed><course>116.725670</course><hAcc>1.098829</hAcc><vAcc>0.729137</vAcc></extensions></trkpt>
      <trkpt lon="-3.155592" lat="53.000639"><ele>422.049255</ele><time>2021-09-01T11:50:20Z</time><extensions><speed>0.010322</speed><course>116.725662</course><hAcc>1.098159</hAcc><vAcc>0.728909</vAcc></extensions></trkpt>
      <trkpt lon="-3.155592" lat="53.000640"><ele>422.049896</ele><time>2021-09-01T11:50:21Z</time><extensions><speed>0.011367</speed><course>316.510925</course><hAcc>1.097155</hAcc><vAcc>0.728556</vAcc></extensions></trkpt>
      <trkpt lon="-3.155592" lat="53.000640"><ele>422.050415</ele><time>2021-09-01T11:50:22Z</time><extensions><speed>0.012709</speed><course>325.771881</course><hAcc>1.095710</hAcc><vAcc>0.728031</vAcc></extensions></trkpt>
      <trkpt lon="-3.155593" lat="53.000640"><ele>422.050812</ele><time>2021-09-01T11:50:23Z</time><extensions><speed>0.014245</speed><course>329.412018</course><hAcc>1.093701</hAcc><vAcc>0.727281</vAcc></extensions></trkpt>
      <trkpt lon="-3.155593" lat="53.000640"><ele>422.051178</ele><time>2021-09-01T11:50:24Z</time><extensions><speed>0.015851</speed><course>328.807678</course><hAcc>1.091002</hAcc><vAcc>0.726243</vAcc></extensions></trkpt>
      <trkpt lon="-3.155593" lat="53.000640"><ele>422.051514</ele><time>2021-09-01T11:50:25Z</time><extensions><speed>0.017389</speed><course>328.238739</course><hAcc>1.087490</hAcc><vAcc>0.724857</vAcc></extensions></trkpt>
      <trkpt lon="-3.155593" lat="53.000640"><ele>422.051819</ele><time>2021-09-01T11:50:26Z</time><extensions><speed>0.018703</speed><course>328.754333</course><hAcc>1.083064</hAcc><vAcc>0.723063</vAcc></extensions></trkpt>
      <trkpt lon="-3.155593" lat="53.000640"><ele>422.052124</ele><time>2021-09-01T11:50:27Z</time><extensions><speed>0.019623</speed><course>321.291412</course><hAcc>1.077667</hAcc><vAcc>0.720816</vAcc></extensions></trkpt>
      <trkpt lon="-3.155593" lat="53.000640"><ele>422.052429</ele><time>2021-09-01T11:50:28Z</time><extensions><speed>0.019957</speed><course>315.163422</course><hAcc>1.071309</hAcc><vAcc>0.718094</vAcc></extensions></trkpt>
      <trkpt lon="-3.155594" lat="53.000640"><ele>422.052765</ele><time>2021-09-01T11:50:29Z</time><extensions><speed>0.019492</speed><course>320.356079</course><hAcc>1.064107</hAcc><vAcc>0.714916</vAcc></extensions></trkpt>
      <trkpt lon="-3.155594" lat="53.000641"><ele>422.053101</ele><time>2021-09-01T11:50:30Z</time><extensions><speed>0.017995</speed><course>314.759003</course><hAcc>1.056308</hAcc><vAcc>0.711348</vAcc></extensions></trkpt>
      <trkpt lon="-3.155594" lat="53.000641"><ele>422.053436</ele><time>2021-09-01T11:50:31Z</time><extensions><speed>0.015212</speed><course>306.430359</course><hAcc>1.048321</hAcc><vAcc>0.707522</vAcc></extensions></trkpt>
      <trkpt lon="-3.155594" lat="53.000641"><ele>422.053680</ele><time>2021-09-01T11:50:32Z</time><extensions><speed>0.010870</speed><course>312.642456</course><hAcc>1.040721</hAcc><vAcc>0.703632</vAcc></extensions></trkpt>
      <trkpt lon="-3.155594" lat="53.000641"><ele>422.053864</ele><time>2021-09-01T11:50:33Z</time><extensions><speed>0.004681</speed><course>309.329712</course><hAcc>1.034218</hAcc><vAcc>0.699919</vAcc></extensions></trkpt>
      <trkpt lon="-3.155594" lat="53.000641"><ele>422.053864</ele><time>2021-09-01T11:50:33Z</time><extensions><speed>0.001125</speed><course>306.517120</course><hAcc>1.032099</hAcc><vAcc>0.698554</vAcc></extensions></trkpt>
      <trkpt lon="-3.155594" lat="53.000641"><ele>422.053864</ele><time>2021-09-01T11:50:34Z</time><extensions><speed>0.001347</speed><course>302.169647</course><hAcc>1.032619</hAcc><vAcc>0.698888</vAcc></extensions></trkpt>
      <trkpt lon="-3.155594" lat="53.000641"><ele>422.053711</ele><time>2021-09-01T11:50:35Z</time><extensions><speed>0.008979</speed><course>299.953156</course><hAcc>1.039435</hAcc><vAcc>0.703018</vAcc></extensions></trkpt>
      <trkpt lon="-3.155594" lat="53.000641"><ele>422.053406</ele><time>2021-09-01T11:50:36Z</time><extensions><speed>0.014627</speed><course>299.473511</course><hAcc>1.048079</hAcc><vAcc>0.707673</vAcc></extensions></trkpt>
      <trkpt lon="-3.155594" lat="53.000641"><ele>422.053040</ele><time>2021-09-01T11:50:37Z</time><extensions><speed>0.018562</speed><course>298.103729</course><hAcc>1.057829</hAcc><vAcc>0.712632</vAcc></extensions></trkpt>
      <trkpt lon="-3.155594" lat="53.000640"><ele>422.052673</ele><time>2021-09-01T11:50:38Z</time><extensions><speed>0.021064</speed><course>294.101929</course><hAcc>1.068008</hAcc><vAcc>0.717676</vAcc></extensions></trkpt>
      <trkpt lon="-3.155593" lat="53.000640"><ele>422.052338</ele><time>2021-09-01T11:50:39Z</time><extensions><speed>0.022390</speed><course>298.669067</course><hAcc>1.078051</hAcc><vAcc>0.722616</vAcc></extensions></trkpt>
      <trkpt lon="-3.155593" lat="53.000640"><ele>422.052063</ele><time>2021-09-01T11:50:40Z</time><extensions><speed>0.022776</speed><course>297.460327</course><hAcc>1.087518</hAcc><vAcc>0.727298</vAcc></extensions></trkpt>
      <trkpt lon="-3.155593" lat="53.000640"><ele>422.051849</ele><time>2021-09-01T11:50:41Z</time><extensions><speed>0.022432</speed><course>300.643127</course><hAcc>1.096075</hAcc><vAcc>0.731594</vAcc></extensions></trkpt>
      <trkpt lon="-3.155593" lat="53.000640"><ele>422.051758</ele><time>2021-09-01T11:50:42Z</time><extensions><speed>0.021545</speed><course>300.762909</course><hAcc>1.103474</hAcc><vAcc>0.735387</vAcc></extensions></trkpt>
      <trkpt lon="-3.155593" lat="53.000640"><ele>422.051727</ele><time>2021-09-01T11:50:43Z</time><extensions><speed>0.020276</speed><course>306.221161</course><hAcc>1.109541</hAcc><vAcc>0.738568</vAcc></extensions></trkpt>
      <trkpt lon="-3.155592" lat="53.000640"><ele>422.051788</ele><time>2021-09-01T11:50:44Z</time><extensions><speed>0.018761</speed><course>311.753571</course><hAcc>1.114183</hAcc><vAcc>0.741041</vAcc></extensions></trkpt>
      <trkpt lon="-3.155592" lat="53.000639"><ele>422.051941</ele><time>2021-09-01T11:50:45Z</time><extensions><speed>0.017116</speed><course>314.039551</course><hAcc>1.117432</hAcc><vAcc>0.742754</vAcc></extensions></trkpt>
      <trkpt lon="-3.155592" lat="53.000639"><ele>422.052155</ele><time>2021-09-01T11:50:46Z</time><extensions><speed>0.015433</speed><course>316.125336</course><hAcc>1.119527</hAcc><vAcc>0.743750</vAcc></extensions></trkpt>
      <trkpt lon="-3.155592" lat="53.000639"><ele>422.052429</ele><time>2021-09-01T11:50:47Z</time><extensions><speed>0.013790</speed><course>313.054962</course><hAcc>1.121056</hAcc><vAcc>0.744274</vAcc></extensions></trkpt>
      <trkpt lon="-3.155592" lat="53.000639"><ele>422.052765</ele><time>2021-09-01T11:50:48Z</time><extensions><speed>0.012242</speed><course>309.718231</course><hAcc>1.123154</hAcc><vAcc>0.744904</vAcc></extensions></trkpt>
      <trkpt lon="-3.155592" lat="53.000639"><ele>422.053162</ele><time>2021-09-01T11:50:49Z</time><extensions><speed>0.010834</speed><course>315.993652</course><hAcc>1.127759</hAcc><vAcc>0.746754</vAcc></extensions></trkpt>
      <trkpt lon="-3.155592" lat="53.000639"><ele>422.053558</ele><time>2021-09-01T11:50:50Z</time><extensions><speed>0.009595</speed><course>314.639465</course><hAcc>1.137903</hAcc><vAcc>0.751700</vAcc></extensions></trkpt>
      <trkpt lon="-3.155592" lat="53.000639"><ele>422.053986</ele><time>2021-09-01T11:50:51Z</time><extensions><speed>0.008541</speed><course>314.699524</course><hAcc>1.157938</hAcc><vAcc>0.762603</vAcc></extensions></trkpt>
      <trkpt lon="-3.155591" lat="53.000639"><ele>422.054443</ele><time>2021-09-01T11:50:52Z</time><extensions><speed>0.007681</speed><course>315.537170</course><hAcc>1.193571</hAcc><vAcc>0.783415</vAcc></extensions></trkpt>
      <trkpt lon="-3.155591" lat="53.000639"><ele>422.054901</ele><time>2021-09-01T11:50:53Z</time><extensions><speed>0.007010</speed><course>315.384186</course><hAcc>1.251512</hAcc><vAcc>0.819007</vAcc></extensions></trkpt>
      <trkpt lon="-3.155591" lat="53.000639"><ele>422.055115</ele><time>2021-09-01T11:50:54Z</time><extensions><speed>0.000000</speed><course>-1.000000</course><hAcc>1.194927</hAcc><vAcc>0.783274</vAcc></extensions></trkpt>
      <trkpt lon="-3.155591" lat="53.000639"><ele>422.055115</ele><time>2021-09-01T11:50:55Z</time><extensions><speed>0.000000</speed><course>-1.000000</course><hAcc>1.158386</hAcc><vAcc>0.761865</vAcc></extensions></trkpt>
      <trkpt lon="-3.155591" lat="53.000639"><ele>422.055115</ele><time>2021-09-01T11:50:56Z</time><extensions><speed>0.000000</speed><course>-1.000000</course><hAcc>1.139161</hAcc><vAcc>0.751553</vAcc></extensions></trkpt>
      <trkpt lon="-3.155591" lat="53.000639"><ele>422.055115</ele><time>2021-09-01T11:50:57Z</time><extensions><speed>0.000000</speed><course>-1.000000</course><hAcc>1.130939</hAcc><vAcc>0.747939</vAcc></extensions></trkpt>
      <trkpt lon="-3.155591" lat="53.000639"><ele>422.055115</ele><time>2021-09-01T11:50:58Z</time><extensions><speed>0.000000</speed><course>-1.000000</course><hAcc>1.128858</hAcc><vAcc>0.747813</vAcc></extensions></trkpt>
      <trkpt lon="-3.155591" lat="53.000639"><ele>422.055115</ele><time>2021-09-01T11:50:59Z</time><extensions><speed>0.000000</speed><course>-1.000000</course><hAcc>1.129493</hAcc><vAcc>0.749058</vAcc></extensions></trkpt>
      <trkpt lon="-3.155591" lat="53.000639"><ele>422.055115</ele><time>2021-09-01T11:51:00Z</time><extensions><speed>0.000000</speed><course>-1.000000</course><hAcc>1.130610</hAcc><vAcc>0.750398</vAcc></extensions></trkpt>
      <trkpt lon="-3.155591" lat="53.000639"><ele>422.055115</ele><time>2021-09-01T11:51:01Z</time><extensions><speed>0.000000</speed><course>-1.000000</course><hAcc>1.130836</hAcc><vAcc>0.751127</vAcc></extensions></trkpt>
      <trkpt lon="-3.155591" lat="53.000639"><ele>422.055115</ele><time>2021-09-01T11:51:02Z</time><extensions><speed>0.000000</speed><course>-1.000000</course><hAcc>1.129370</hAcc><vAcc>0.750894</vAcc></extensions></trkpt>
      <trkpt lon="-3.155591" lat="53.000639"><ele>422.055115</ele><time>2021-09-01T11:51:03Z</time><extensions><speed>0.000000</speed><course>184.559082</course><hAcc>1.125772</hAcc><vAcc>0.749539</vAcc></extensions></trkpt>
      <trkpt lon="-3.155591" lat="53.000639"><ele>422.055115</ele><time>2021-09-01T11:51:04Z</time><extensions><speed>0.000000</speed><course>-1.000000</course><hAcc>1.119828</hAcc><vAcc>0.746996</vAcc></extensions></trkpt>
      <trkpt lon="-3.155591" lat="53.000639"><ele>422.055115</ele><time>2021-09-01T11:51:05Z</time><extensions><speed>0.000000</speed><course>-1.000000</course><hAcc>1.111512</hAcc><vAcc>0.743259</vAcc></extensions></trkpt>
      <trkpt lon="-3.155591" lat="53.000639"><ele>422.055115</ele><time>2021-09-01T11:51:06Z</time><extensions><speed>0.000000</speed><course>-1.000000</course><hAcc>1.101017</hAcc><vAcc>0.738398</vAcc></extensions></trkpt>
      <trkpt lon="-3.155591" lat="53.000639"><ele>422.055115</ele><time>2021-09-01T11:51:07Z</time><extensions><speed>0.000000</speed><course>-1.000000</course><hAcc>1.088884</hAcc><vAcc>0.732632</vAcc></extensions></trkpt>
      <trkpt lon="-3.155591" lat="53.000639"><ele>422.055115</ele><time>2021-09-01T11:51:08Z</time><extensions><speed>0.000000</speed><course>53.307610</course><hAcc>1.076208</hAcc><vAcc>0.726457</vAcc></extensions></trkpt>
      <trkpt lon="-3.155591" lat="53.000639"><ele>422.055115</ele><time>2021-09-01T11:51:09Z</time><extensions><speed>0.000000</speed><course>-1.000000</course><hAcc>1.064924</hAcc><vAcc>0.720833</vAcc></extensions></trkpt>
      <trkpt lon="-3.155591" lat="53.000639"><ele>422.055115</ele><time>2021-09-01T11:51:10Z</time><extensions><speed>0.000000</speed><course>-1.000000</course><hAcc>1.058144</hAcc><vAcc>0.717416</vAcc></extensions></trkpt>
      <trkpt lon="-3.155591" lat="53.000639"><ele>422.055115</ele><time>2021-09-01T11:51:11Z</time><extensions><speed>0.000000</speed><course>-1.000000</course><hAcc>1.060262</hAcc><vAcc>0.718705</vAcc></extensions></trkpt>
      <trkpt lon="-3.155591" lat="53.000639"><ele>422.055115</ele><time>2021-09-01T11:51:12Z</time><extensions><speed>0.000000</speed><course>120.394302</course><hAcc>1.076723</hAcc><vAcc>0.728048</vAcc></extensions></trkpt>
      <trkpt lon="-3.155591" lat="53.000639"><ele>422.055115</ele><time>2021-09-01T11:51:13Z</time><extensions><speed>0.000000</speed><course>-1.000000</course><hAcc>1.113651</hAcc><vAcc>0.749566</vAcc></extensions></trkpt>
      <trkpt lon="-3.155591" lat="53.000639"><ele>422.055115</ele><time>2021-09-01T11:51:14Z</time><extensions><speed>0.000000</speed><course>-1.000000</course><hAcc>1.177245</hAcc><vAcc>0.787878</vAcc></extensions></trkpt>
      <trkpt lon="-3.155591" lat="53.000639"><ele>422.055115</ele><time>2021-09-01T11:51:15Z</time><extensions><speed>0.000000</speed><course>-1.000000</course><hAcc>1.083776</hAcc><vAcc>0.735988</vAcc></extensions></trkpt>
      <trkpt lon="-3.155591" lat="53.000639"><ele>422.055115</ele><time>2021-09-01T11:51:16Z</time><extensions><speed>0.000000</speed><course>-1.000000</course><hAcc>1.080019</hAcc><vAcc>0.729242</vAcc></extensions></trkpt>
      <trkpt lon="-3.155591" lat="53.000639"><ele>422.055115</ele><time>2021-09-01T11:51:17Z</time><extensions><speed>0.000000</speed><course>-1.000000</course><hAcc>1.086731</hAcc><vAcc>0.730263</vAcc></extensions></trkpt>
      <trkpt lon="-3.155591" lat="53.000639"><ele>422.055115</ele><time>2021-09-01T11:51:18Z</time><extensions><speed>0.000000</speed><course>-1.000000</course><hAcc>1.097942</hAcc><vAcc>0.734901</vAcc></extensions></trkpt>
      <trkpt lon="-3.155591" lat="53.000639"><ele>422.055115</ele><time>2021-09-01T11:51:19Z</time><extensions><speed>0.000000</speed><course>-1.000000</course><hAcc>1.109932</hAcc><vAcc>0.740555</vAcc></extensions></trkpt>
      <trkpt lon="-3.155591" lat="53.000639"><ele>422.055115</ele><time>2021-09-01T11:51:20Z</time><extensions><speed>0.000000</speed><course>-1.000000</course><hAcc>1.120670</hAcc><vAcc>0.745798</vAcc></extensions></trkpt>
      <trkpt lon="-3.155591" lat="53.000639"><ele>422.055115</ele><time>2021-09-01T11:51:21Z</time><extensions><speed>0.000000</speed><course>-1.000000</course><hAcc>1.129257</hAcc><vAcc>0.749991</vAcc></extensions></trkpt>
      <trkpt lon="-3.155591" lat="53.000639"><ele>422.055115</ele><time>2021-09-01T11:51:22Z</time><extensions><speed>0.000000</speed><course>-1.000000</course><hAcc>1.135468</hAcc><vAcc>0.752970</vAcc></extensions></trkpt>
      <trkpt lon="-3.155591" lat="53.000639"><ele>422.055115</ele><time>2021-09-01T11:51:23Z</time><extensions><speed>0.000000</speed><course>-1.000000</course><hAcc>1.139437</hAcc><vAcc>0.754811</vAcc></extensions></trkpt>
      <trkpt lon="-3.155591" lat="53.000639"><ele>422.055115</ele><time>2021-09-01T11:51:24Z</time><extensions><speed>0.000000</speed><course>184.559082</course><hAcc>1.141445</hAcc><vAcc>0.755678</vAcc></extensions></trkpt>
      <trkpt lon="-3.155591" lat="53.000639"><ele>422.055115</ele><time>2021-09-01T11:51:25Z</time><extensions><speed>0.000000</speed><course>-1.000000</course><hAcc>1.141801</hAcc><vAcc>0.755741</vAcc></extensions></trkpt>
      <trkpt lon="-3.155591" lat="53.000639"><ele>422.055115</ele><time>2021-09-01T11:51:26Z</time><extensions><speed>0.000000</speed><course>-1.000000</course><hAcc>1.140807</hAcc><vAcc>0.755134</vAcc></extensions></trkpt>
      <trkpt lon="-3.155591" lat="53.000639"><ele>422.055115</ele><time>2021-09-01T11:51:27Z</time><extensions><speed>0.000000</speed><course>-1.000000</course><hAcc>1.138775</hAcc><vAcc>0.753970</vAcc></extensions></trkpt>
      <trkpt lon="-3.155591" lat="53.000639"><ele>422.055115</ele><time>2021-09-01T11:51:28Z</time><extensions><speed>0.000000</speed><course>-1.000000</course><hAcc>1.136125</hAcc><vAcc>0.752402</vAcc></extensions></trkpt>
      <trkpt lon="-3.155591" lat="53.000639"><ele>422.055115</ele><time>2021-09-01T11:51:29Z</time><extensions><speed>0.000000</speed><course>53.307610</course><hAcc>1.133537</hAcc><vAcc>0.750723</vAcc></extensions></trkpt>
      <trkpt lon="-3.155591" lat="53.000639"><ele>422.055115</ele><time>2021-09-01T11:51:30Z</time><extensions><speed>0.000000</speed><course>-1.000000</course><hAcc>1.132174</hAcc><vAcc>0.749525</vAcc></extensions></trkpt>
      <trkpt lon="-3.155591" lat="53.000639"><ele>422.055115</ele><time>2021-09-01T11:51:31Z</time><extensions><speed>0.000000</speed><course>-1.000000</course><hAcc>1.133964</hAcc><vAcc>0.749907</vAcc></extensions></trkpt>
      <trkpt lon="-3.155591" lat="53.000639"><ele>422.055115</ele><time>2021-09-01T11:51:32Z</time><extensions><speed>0.000000</speed><course>-1.000000</course><hAcc>1.141899</hAcc><vAcc>0.753718</vAcc></extensions></trkpt>
      <trkpt lon="-3.155591" lat="53.000639"><ele>422.055115</ele><time>2021-09-01T11:51:33Z</time><extensions><speed>0.000000</speed><course>120.394302</course><hAcc>1.160289</hAcc><vAcc>0.763785</vAcc></extensions></trkpt>
      <trkpt lon="-3.155591" lat="53.000639"><ele>422.055115</ele><time>2021-09-01T11:51:34Z</time><extensions><speed>0.000000</speed><course>-1.000000</course><hAcc>1.194790</hAcc><vAcc>0.784030</vAcc></extensions></trkpt>
      <trkpt lon="-3.155591" lat="53.000639"><ele>422.055115</ele><time>2021-09-01T11:51:35Z</time><extensions><speed>0.000000</speed><course>-1.000000</course><hAcc>1.252061</hAcc><vAcc>0.819289</vAcc></extensions></trkpt>
      <trkpt lon="-3.155591" lat="53.000638"><ele>422.051422</ele><time>2021-09-01T11:51:36Z</time><extensions><speed>0.012639</speed><course>-1.000000</course><hAcc>1.192939</hAcc><vAcc>0.782438</vAcc></extensions></trkpt>
      <trkpt lon="-3.155591" lat="53.000638"><ele>422.049377</ele><time>2021-09-01T11:51:37Z</time><extensions><speed>0.012236</speed><course>-1.000000</course><hAcc>1.155266</hAcc><vAcc>0.760431</vAcc></extensions></trkpt>
      <trkpt lon="-3.155591" lat="53.000638"><ele>422.047272</ele><time>2021-09-01T11:51:38Z</time><extensions><speed>0.011579</speed><course>-1.000000</course><hAcc>1.134807</hAcc><vAcc>0.749392</vAcc></extensions></trkpt>
      <trkpt lon="-3.155591" lat="53.000638"><ele>422.045166</ele><time>2021-09-01T11:51:39Z</time><extensions><speed>0.010596</speed><course>-1.000000</course><hAcc>1.125342</hAcc><vAcc>0.744950</vAcc></extensions></trkpt>
      <trkpt lon="-3.155591" lat="53.000638"><ele>422.043030</ele><time>2021-09-01T11:51:40Z</time><extensions><speed>0.009234</speed><course>-1.000000</course><hAcc>1.122123</hAcc><vAcc>0.743939</vAcc></extensions></trkpt>
      <trkpt lon="-3.155591" lat="53.000638"><ele>422.040985</ele><time>2021-09-01T11:51:41Z</time><extensions><speed>0.007530</speed><course>-1.000000</course><hAcc>1.121882</hAcc><vAcc>0.744300</vAcc></extensions></trkpt>
      <trkpt lon="-3.155591" lat="53.000638"><ele>422.039093</ele><time>2021-09-01T11:51:42Z</time><extensions><speed>0.005878</speed><course>-1.000000</course><hAcc>1.122576</hAcc><vAcc>0.744844</vAcc></extensions></trkpt>
      <trkpt lon="-3.155591" lat="53.000638"><ele>422.037476</ele><time>2021-09-01T11:51:43Z</time><extensions><speed>0.005769</speed><course>-1.000000</course><hAcc>1.123076</hAcc><vAcc>0.744986</vAcc></extensions></trkpt>
      <trkpt lon="-3.155591" lat="53.000638"><ele>422.036255</ele><time>2021-09-01T11:51:44Z</time><extensions><speed>0.008736</speed><course>-1.000000</course><hAcc>1.122866</hAcc><vAcc>0.744526</vAcc></extensions></trkpt>
      <trkpt lon="-3.155591" lat="53.000638"><ele>422.035675</ele><time>2021-09-01T11:51:45Z</time><extensions><speed>0.014108</speed><course>184.559082</course><hAcc>1.121804</hAcc><vAcc>0.743483</vAcc></extensions></trkpt>
      <trkpt lon="-3.155591" lat="53.000638"><ele>422.035889</ele><time>2021-09-01T11:51:46Z</time><extensions><speed>0.021251</speed><course>-1.000000</course><hAcc>1.119953</hAcc><vAcc>0.741976</vAcc></extensions></trkpt>
      <trkpt lon="-3.155591" lat="53.000638"><ele>422.037170</ele><time>2021-09-01T11:51:47Z</time><extensions><speed>0.030026</speed><course>-1.000000</course><hAcc>1.117453</hAcc><vAcc>0.740150</vAcc></extensions></trkpt>
      <trkpt lon="-3.155591" lat="53.000639"><ele>422.039795</ele><time>2021-09-01T11:51:48Z</time><extensions><speed>0.040441</speed><course>-1.000000</course><hAcc>1.114444</hAcc><vAcc>0.738127</vAcc></extensions></trkpt>
      <trkpt lon="-3.155590" lat="53.000639"><ele>422.044067</ele><time>2021-09-01T11:51:49Z</time><extensions><speed>0.052522</speed><course>-1.000000</course><hAcc>1.111019</hAcc><vAcc>0.735982</vAcc></extensions></trkpt>
      <trkpt lon="-3.155590" lat="53.000640"><ele>422.050354</ele><time>2021-09-01T11:51:50Z</time><extensions><speed>0.066266</speed><course>53.307610</course><hAcc>1.107194</hAcc><vAcc>0.733733</vAcc></extensions></trkpt>
      <trkpt lon="-3.155590" lat="53.000640"><ele>422.058990</ele><time>2021-09-01T11:51:51Z</time><extensions><speed>0.081618</speed><course>-1.000000</course><hAcc>1.102903</hAcc><vAcc>0.731336</vAcc></extensions></trkpt>
      <trkpt lon="-3.155590" lat="53.000641"><ele>422.070282</ele><time>2021-09-01T11:51:52Z</time><extensions><speed>0.098450</speed><course>-1.000000</course><hAcc>1.098000</hAcc><vAcc>0.728696</vAcc></extensions></trkpt>
      <trkpt lon="-3.155590" lat="53.000642"><ele>422.084564</ele><time>2021-09-01T11:51:53Z</time><extensions><speed>0.116536</speed><course>-1.000000</course><hAcc>1.092273</hAcc><vAcc>0.725677</vAcc></extensions></trkpt>
      <trkpt lon="-3.155590" lat="53.000643"><ele>422.102112</ele><time>2021-09-01T11:51:54Z</time><extensions><speed>0.135539</speed><course>120.394302</course><hAcc>1.085468</hAcc><vAcc>0.722112</vAcc></extensions></trkpt>
      <trkpt lon="-3.155590" lat="53.000644"><ele>422.123138</ele><time>2021-09-01T11:51:55Z</time><extensions><speed>0.154982</speed><course>-1.000000</course><hAcc>1.077316</hAcc><vAcc>0.717831</vAcc></extensions></trkpt>
      <trkpt lon="-3.155590" lat="53.000646"><ele>422.147736</ele><time>2021-09-01T11:51:56Z</time><extensions><speed>0.174232</speed><course>-1.000000</course><hAcc>1.067574</hAcc><vAcc>0.712679</vAcc></extensions></trkpt>
      <trkpt lon="-3.155590" lat="53.000648"><ele>422.175842</ele><time>2021-09-01T11:51:57Z</time><extensions><speed>0.192474</speed><course>-1.000000</course><hAcc>1.056079</hAcc><vAcc>0.706549</vAcc></extensions></trkpt>
      <trkpt lon="-3.155591" lat="53.000649"><ele>422.207245</ele><time>2021-09-01T11:51:58Z</time><extensions><speed>0.208695</speed><course>-1.000000</course><hAcc>1.042803</hAcc><vAcc>0.699416</vAcc></extensions></trkpt>
      <trkpt lon="-3.155591" lat="53.000651"><ele>422.241425</ele><time>2021-09-01T11:51:59Z</time><extensions><speed>0.221667</speed><course>-1.000000</course><hAcc>1.027925</hAcc><vAcc>0.691377</vAcc></extensions></trkpt>
      <trkpt lon="-3.155591" lat="53.000653"><ele>422.277557</ele><time>2021-09-01T11:52:00Z</time><extensions><speed>0.229939</speed><course>-1.000000</course><hAcc>1.011899</hAcc><vAcc>0.682691</vAcc></extensions></trkpt>
      <trkpt lon="-3.155592" lat="53.000655"><ele>422.314453</ele><time>2021-09-01T11:52:00Z</time><extensions><speed>0.231851</speed><course>-1.000000</course><hAcc>0.995583</hAcc><vAcc>0.673842</vAcc></extensions></trkpt>
      <trkpt lon="-3.155592" lat="53.000657"><ele>422.350891</ele><time>2021-09-01T11:52:01Z</time><extensions><speed>0.227699</speed><course>-1.000000</course><hAcc>0.979932</hAcc><vAcc>0.665320</vAcc></extensions></trkpt>
      <trkpt lon="-3.155593" lat="53.000659"><ele>422.385773</ele><time>2021-09-01T11:52:02Z</time><extensions><speed>0.219023</speed><course>-1.000000</course><hAcc>0.965891</hAcc><vAcc>0.657507</vAcc></extensions></trkpt>
      <trkpt lon="-3.155594" lat="53.000661"><ele>422.418396</ele><time>2021-09-01T11:52:03Z</time><extensions><speed>0.206598</speed><course>-1.000000</course><hAcc>0.954131</hAcc><vAcc>0.650597</vAcc></extensions></trkpt>
      <trkpt lon="-3.155595" lat="53.000663"><ele>422.448242</ele><time>2021-09-01T11:52:04Z</time><extensions><speed>0.191148</speed><course>-1.000000</course><hAcc>0.945075</hAcc><vAcc>0.644611</vAcc></extensions></trkpt>
      <trkpt lon="-3.155596" lat="53.000664"><ele>422.474945</ele><time>2021-09-01T11:52:05Z</time><extensions><speed>0.173135</speed><course>-1.000000</course><hAcc>0.938963</hAcc><vAcc>0.639434</vAcc></extensions></trkpt>
      <trkpt lon="-3.155597" lat="53.000666"><ele>422.498199</ele><time>2021-09-01T11:52:06Z</time><extensions><speed>0.152603</speed><course>-1.000000</course><hAcc>0.935842</hAcc><vAcc>0.634910</vAcc></extensions></trkpt>
      <trkpt lon="-3.155598" lat="53.000667"><ele>422.517578</ele><time>2021-09-01T11:52:07Z</time><extensions><speed>0.129255</speed><course>-1.000000</course><hAcc>0.935538</hAcc><vAcc>0.630940</vAcc></extensions></trkpt>
      <trkpt lon="-3.155600" lat="53.000667"><ele>422.532654</ele><time>2021-09-01T11:52:08Z</time><extensions><speed>0.104178</speed><course>-1.000000</course><hAcc>0.937692</hAcc><vAcc>0.627520</vAcc></extensions></trkpt>
      <trkpt lon="-3.155601" lat="53.000668"><ele>422.543182</ele><time>2021-09-01T11:52:09Z</time><extensions><speed>0.080620</speed><course>-1.000000</course><hAcc>0.941845</hAcc><vAcc>0.624715</vAcc></extensions></trkpt>
      <trkpt lon="-3.155602" lat="53.000668"><ele>422.549042</ele><time>2021-09-01T11:52:10Z</time><extensions><speed>0.063859</speed><course>-1.000000</course><hAcc>0.947559</hAcc><vAcc>0.622615</vAcc></extensions></trkpt>
      <trkpt lon="-3.155603" lat="53.000668"><ele>422.550140</ele><time>2021-09-01T11:52:11Z</time><extensions><speed>0.060766</speed><course>-1.000000</course><hAcc>0.954531</hAcc><vAcc>0.621314</vAcc></extensions></trkpt>
      <trkpt lon="-3.155603" lat="53.000668"><ele>422.546448</ele><time>2021-09-01T11:52:12Z</time><extensions><speed>0.072463</speed><course>-1.000000</course><hAcc>0.962634</hAcc><vAcc>0.620906</vAcc></extensions></trkpt>
      <trkpt lon="-3.155604" lat="53.000667"><ele>422.537689</ele><time>2021-09-01T11:52:13Z</time><extensions><speed>0.091911</speed><course>116.725777</course><hAcc>0.971828</hAcc><vAcc>0.621462</vAcc></extensions></trkpt>
      <trkpt lon="-3.155605" lat="53.000666"><ele>422.523773</ele><time>2021-09-01T11:52:14Z</time><extensions><speed>0.112750</speed><course>116.725777</course><hAcc>0.981979</hAcc><vAcc>0.622988</vAcc></extensions></trkpt>
      <trkpt lon="-3.155605" lat="53.000665"><ele>422.504791</ele><time>2021-09-01T11:52:15Z</time><extensions><speed>0.131538</speed><course>116.725777</course><hAcc>0.992815</hAcc><vAcc>0.625416</vAcc></extensions></trkpt>
      <trkpt lon="-3.155605" lat="53.000664"><ele>422.481140</ele><time>2021-09-01T11:52:16Z</time><extensions><speed>0.146479</speed><course>116.725777</course><hAcc>1.003978</hAcc><vAcc>0.628596</vAcc></extensions></trkpt>
      <trkpt lon="-3.155605" lat="53.000663"><ele>422.453308</ele><time>2021-09-01T11:52:17Z</time><extensions><speed>0.156862</speed><course>116.725777</course><hAcc>1.015094</hAcc><vAcc>0.632315</vAcc></extensions></trkpt>
      <trkpt lon="-3.155605" lat="53.000661"><ele>422.421783</ele><time>2021-09-01T11:52:18Z</time><extensions><speed>0.162411</speed><course>116.725784</course><hAcc>1.025847</hAcc><vAcc>0.636369</vAcc></extensions></trkpt>
      <trkpt lon="-3.155605" lat="53.000660"><ele>422.387268</ele><time>2021-09-01T11:52:19Z</time><extensions><speed>0.162843</speed><course>116.725784</course><hAcc>1.036039</hAcc><vAcc>0.640625</vAcc></extensions></trkpt>
      <trkpt lon="-3.155605" lat="53.000658"><ele>422.350647</ele><time>2021-09-01T11:52:20Z</time><extensions><speed>0.157784</speed><course>116.725784</course><hAcc>1.045629</hAcc><vAcc>0.645077</vAcc></extensions></trkpt>
      <trkpt lon="-3.155605" lat="53.000657"><ele>422.312927</ele><time>2021-09-01T11:52:21Z</time><extensions><speed>0.146559</speed><course>116.725784</course><hAcc>1.054707</hAcc><vAcc>0.649841</vAcc></extensions></trkpt>
      <trkpt lon="-3.155605" lat="53.000656"><ele>422.275360</ele><time>2021-09-01T11:52:22Z</time><extensions><speed>0.128210</speed><course>116.725784</course><hAcc>1.063324</hAcc><vAcc>0.655023</vAcc></extensions></trkpt>
      <trkpt lon="-3.155605" lat="53.000655"><ele>422.239563</ele><time>2021-09-01T11:52:23Z</time><extensions><speed>0.103537</speed><course>116.725784</course><hAcc>1.071237</hAcc><vAcc>0.660516</vAcc></extensions></trkpt>
      <trkpt lon="-3.155605" lat="53.000654"><ele>422.207031</ele><time>2021-09-01T11:52:24Z</time><extensions><speed>0.075102</speed><course>116.725784</course><hAcc>1.077877</hAcc><vAcc>0.665960</vAcc></extensions></trkpt>
      <trkpt lon="-3.155605" lat="53.000653"><ele>422.179047</ele><time>2021-09-01T11:52:25Z</time><extensions><speed>0.045231</speed><course>116.725784</course><hAcc>1.082496</hAcc><vAcc>0.670847</vAcc></extensions></trkpt>
      <trkpt lon="-3.155605" lat="53.000653"><ele>422.156372</ele><time>2021-09-01T11:52:26Z</time><extensions><speed>0.016340</speed><course>116.725784</course><hAcc>1.084323</hAcc><vAcc>0.674641</vAcc></extensions></trkpt>
      <trkpt lon="-3.155605" lat="53.000653"><ele>422.139404</ele><time>2021-09-01T11:52:27Z</time><extensions><speed>0.012137</speed><course>116.725784</course><hAcc>1.082688</hAcc><vAcc>0.676881</vAcc></extensions></trkpt>
      <trkpt lon="-3.155605" lat="53.000653"><ele>422.128143</ele><time>2021-09-01T11:52:28Z</time><extensions><speed>0.035037</speed><course>116.725784</course><hAcc>1.077157</hAcc><vAcc>0.677293</vAcc></extensions></trkpt>
      <trkpt lon="-3.155605" lat="53.000653"><ele>422.122437</ele><time>2021-09-01T11:52:29Z</time><extensions><speed>0.054686</speed><course>116.725784</course><hAcc>1.067666</hAcc><vAcc>0.675901</vAcc></extensions></trkpt>
      <trkpt lon="-3.155605" lat="53.000654"><ele>422.122009</ele><time>2021-09-01T11:52:30Z</time><extensions><speed>0.070336</speed><course>116.725784</course><hAcc>1.054606</hAcc><vAcc>0.673072</vAcc></extensions></trkpt>
      <trkpt lon="-3.155606" lat="53.000655"><ele>422.126465</ele><time>2021-09-01T11:52:31Z</time><extensions><speed>0.081462</speed><course>116.725784</course><hAcc>1.038740</hAcc><vAcc>0.669419</vAcc></extensions></trkpt>
      <trkpt lon="-3.155606" lat="53.000655"><ele>422.135254</ele><time>2021-09-01T11:52:32Z</time><extensions><speed>0.087382</speed><course>116.725784</course><hAcc>1.021047</hAcc><vAcc>0.665639</vAcc></extensions></trkpt>
      <trkpt lon="-3.155607" lat="53.000656"><ele>422.147705</ele><time>2021-09-01T11:52:33Z</time><extensions><speed>0.087195</speed><course>116.725784</course><hAcc>1.002589</hAcc><vAcc>0.662383</vAcc></extensions></trkpt>
      <trkpt lon="-3.155608" lat="53.000657"><ele>422.162842</ele><time>2021-09-01T11:52:34Z</time><extensions><speed>0.079712</speed><course>116.725784</course><hAcc>0.984329</hAcc><vAcc>0.660141</vAcc></extensions></trkpt>
      <trkpt lon="-3.155608" lat="53.000657"><ele>422.179596</ele><time>2021-09-01T11:52:35Z</time><extensions><speed>0.063558</speed><course>116.725777</course><hAcc>0.966985</hAcc><vAcc>0.659181</vAcc></extensions></trkpt>
      <trkpt lon="-3.155609" lat="53.000657"><ele>422.196716</ele><time>2021-09-01T11:52:36Z</time><extensions><speed>0.040363</speed><course>116.725769</course><hAcc>0.951022</hAcc><vAcc>0.659579</vAcc></extensions></trkpt>
      <trkpt lon="-3.155609" lat="53.000658"><ele>422.213226</ele><time>2021-09-01T11:52:37Z</time><extensions><speed>0.015791</speed><course>116.725769</course><hAcc>0.936726</hAcc><vAcc>0.661263</vAcc></extensions></trkpt>
      <trkpt lon="-3.155609" lat="53.000657"><ele>422.228363</ele><time>2021-09-01T11:52:38Z</time><extensions><speed>0.019370</speed><course>116.725761</course><hAcc>0.924277</hAcc><vAcc>0.664051</vAcc></extensions></trkpt>
      <trkpt lon="-3.155609" lat="53.000657"><ele>422.241638</ele><time>2021-09-01T11:52:39Z</time><extensions><speed>0.045905</speed><course>116.725754</course><hAcc>0.913767</hAcc><vAcc>0.667706</vAcc></extensions></trkpt>
      <trkpt lon="-3.155609" lat="53.000657"><ele>422.252716</ele><time>2021-09-01T11:52:40Z</time><extensions><speed>0.073954</speed><course>116.725746</course><hAcc>0.905178</hAcc><vAcc>0.671969</vAcc></extensions></trkpt>
      <trkpt lon="-3.155608" lat="53.000656"><ele>422.261353</ele><time>2021-09-01T11:52:41Z</time><extensions><speed>0.101961</speed><course>116.725746</course><hAcc>0.898427</hAcc><vAcc>0.676588</vAcc></extensions></trkpt>
      <trkpt lon="-3.155606" lat="53.000656"><ele>422.267395</ele><time>2021-09-01T11:52:42Z</time><extensions><speed>0.128979</speed><course>116.725731</course><hAcc>0.893392</hAcc><vAcc>0.681326</vAcc></extensions></trkpt>
      <trkpt lon="-3.155605" lat="53.000655"><ele>422.270874</ele><time>2021-09-01T11:52:43Z</time><extensions><speed>0.153631</speed><course>116.725723</course><hAcc>0.889889</hAcc><vAcc>0.685984</vAcc></extensions></trkpt>
      <trkpt lon="-3.155602" lat="53.000654"><ele>422.271912</ele><time>2021-09-01T11:52:44Z</time><extensions><speed>0.174111</speed><course>116.725723</course><hAcc>0.887679</hAcc><vAcc>0.690425</vAcc></extensions></trkpt>
      <trkpt lon="-3.155600" lat="53.000653"><ele>422.270782</ele><time>2021-09-01T11:52:45Z</time><extensions><speed>0.188176</speed><course>116.725708</course><hAcc>0.886505</hAcc><vAcc>0.694575</vAcc></extensions></trkpt>
      <trkpt lon="-3.155598" lat="53.000653"><ele>422.267792</ele><time>2021-09-01T11:52:46Z</time><extensions><speed>0.193142</speed><course>116.725700</course><hAcc>0.886128</hAcc><vAcc>0.698414</vAcc></extensions></trkpt>
      <trkpt lon="-3.155595" lat="53.000652"><ele>422.263336</ele><time>2021-09-01T11:52:47Z</time><extensions><speed>0.188924</speed><course>116.725693</course><hAcc>0.886350</hAcc><vAcc>0.701965</vAcc></extensions></trkpt>
      <trkpt lon="-3.155593" lat="53.000651"><ele>422.257874</ele><time>2021-09-01T11:52:48Z</time><extensions><speed>0.178092</speed><course>116.725685</course><hAcc>0.887025</hAcc><vAcc>0.705277</vAcc></extensions></trkpt>
      <trkpt lon="-3.155590" lat="53.000650"><ele>422.251678</ele><time>2021-09-01T11:52:49Z</time><extensions><speed>0.162842</speed><course>116.725670</course><hAcc>0.888053</hAcc><vAcc>0.708415</vAcc></extensions></trkpt>
      <trkpt lon="-3.155588" lat="53.000650"><ele>422.245087</ele><time>2021-09-01T11:52:50Z</time><extensions><speed>0.144980</speed><course>116.725670</course><hAcc>0.889377</hAcc><vAcc>0.711444</vAcc></extensions></trkpt>
      <trkpt lon="-3.155586" lat="53.000649"><ele>422.238373</ele><time>2021-09-01T11:52:51Z</time><extensions><speed>0.125942</speed><course>116.725662</course><hAcc>0.890971</hAcc><vAcc>0.714418</vAcc></extensions></trkpt>
      <trkpt lon="-3.155585" lat="53.000649"><ele>422.231659</ele><time>2021-09-01T11:52:52Z</time><extensions><speed>0.106834</speed><course>316.510925</course><hAcc>0.892818</hAcc><vAcc>0.717363</vAcc></extensions></trkpt>
      <trkpt lon="-3.155584" lat="53.000648"><ele>422.225189</ele><time>2021-09-01T11:52:53Z</time><extensions><speed>0.088466</speed><course>325.771881</course><hAcc>0.894898</hAcc><vAcc>0.720269</vAcc></extensions></trkpt>
      <trkpt lon="-3.155582" lat="53.000648"><ele>422.219055</ele><time>2021-09-01T11:52:54Z</time><extensions><speed>0.071404</speed><course>329.412018</course><hAcc>0.897171</hAcc><vAcc>0.723079</vAcc></extensions></trkpt>
      <trkpt lon="-3.155582" lat="53.000648"><ele>422.213348</ele><time>2021-09-01T11:52:55Z</time><extensions><speed>0.056007</speed><course>328.807678</course><hAcc>0.899557</hAcc><vAcc>0.725702</vAcc></extensions></trkpt>
      <trkpt lon="-3.155581" lat="53.000648"><ele>422.208130</ele><time>2021-09-01T11:52:56Z</time><extensions><speed>0.042469</speed><course>328.238739</course><hAcc>0.901930</hAcc><vAcc>0.728019</vAcc></extensions></trkpt>
      <trkpt lon="-3.155581" lat="53.000647"><ele>422.203430</ele><time>2021-09-01T11:52:57Z</time><extensions><speed>0.030854</speed><course>328.754333</course><hAcc>0.904119</hAcc><vAcc>0.729897</vAcc></extensions></trkpt>
      <trkpt lon="-3.155580" lat="53.000647"><ele>422.199249</ele><time>2021-09-01T11:52:58Z</time><extensions><speed>0.021134</speed><course>321.291412</course><hAcc>0.905934</hAcc><vAcc>0.731229</vAcc></extensions></trkpt>
      <trkpt lon="-3.155580" lat="53.000647"><ele>422.195618</ele><time>2021-09-01T11:52:59Z</time><extensions><speed>0.013232</speed><course>315.163422</course><hAcc>0.907212</hAcc><vAcc>0.731998</vAcc></extensions></trkpt>
      <trkpt lon="-3.155580" lat="53.000647"><ele>422.192444</ele><time>2021-09-01T11:53:00Z</time><extensions><speed>0.007104</speed><course>320.356079</course><hAcc>0.907925</hAcc><vAcc>0.732371</vAcc></extensions></trkpt>
      <trkpt lon="-3.155580" lat="53.000647"><ele>422.189758</ele><time>2021-09-01T11:53:01Z</time><extensions><speed>0.003238</speed><course>314.759003</course><hAcc>0.908343</hAcc><vAcc>0.732851</vAcc></extensions></trkpt>
      <trkpt lon="-3.155580" lat="53.000647"><ele>422.187469</ele><time>2021-09-01T11:53:02Z</time><extensions><speed>0.003676</speed><course>306.430359</course><hAcc>0.909292</hAcc><vAcc>0.734472</vAcc></extensions></trkpt>
      <trkpt lon="-3.155580" lat="53.000647"><ele>422.185547</ele><time>2021-09-01T11:53:03Z</time><extensions><speed>0.005822</speed><course>312.642456</course><hAcc>0.912509</hAcc><vAcc>0.739030</vAcc></extensions></trkpt>
      <trkpt lon="-3.155580" lat="53.000647"><ele>422.183960</ele><time>2021-09-01T11:53:04Z</time><extensions><speed>0.007575</speed><course>309.329712</course><hAcc>0.921080</hAcc><vAcc>0.749320</vAcc></extensions></trkpt>
      <trkpt lon="-3.155580" lat="53.000647"><ele>422.182617</ele><time>2021-09-01T11:53:05Z</time><extensions><speed>0.008790</speed><course>306.517120</course><hAcc>0.939835</hAcc><vAcc>0.769256</vAcc></extensions></trkpt>
      <trkpt lon="-3.155580" lat="53.000647"><ele>422.181458</ele><time>2021-09-01T11:53:06Z</time><extensions><speed>0.009561</speed><course>302.169647</course><hAcc>0.975479</hAcc><vAcc>0.803713</vAcc></extensions></trkpt>
      <trkpt lon="-3.155581" lat="53.000647"><ele>422.186951</ele><time>2021-09-01T11:53:07Z</time><extensions><speed>0.003902</speed><course>-1.000000</course><hAcc>0.937232</hAcc><vAcc>0.768262</vAcc></extensions></trkpt>
      <trkpt lon="-3.155581" lat="53.000647"><ele>422.186127</ele><time>2021-09-01T11:53:08Z</time><extensions><speed>0.004149</speed><course>-1.000000</course><hAcc>0.917785</hAcc><vAcc>0.747401</vAcc></extensions></trkpt>
      <trkpt lon="-3.155581" lat="53.000647"><ele>422.185303</ele><time>2021-09-01T11:53:09Z</time><extensions><speed>0.004431</speed><course>-1.000000</course><hAcc>0.909717</hAcc><vAcc>0.737204</vAcc></extensions></trkpt>
      <trkpt lon="-3.155581" lat="53.000647"><ele>422.184509</ele><time>2021-09-01T11:53:10Z</time><extensions><speed>0.004732</speed><course>-1.000000</course><hAcc>0.907519</hAcc><vAcc>0.733324</vAcc></extensions></trkpt>
      <trkpt lon="-3.155581" lat="53.000647"><ele>422.183746</ele><time>2021-09-01T11:53:11Z</time><extensions><speed>0.005029</speed><course>-1.000000</course><hAcc>0.907685</hAcc><vAcc>0.732657</vAcc></extensions></trkpt>
      <trkpt lon="-3.155581" lat="53.000647"><ele>422.183014</ele><time>2021-09-01T11:53:12Z</time><extensions><speed>0.005295</speed><course>-1.000000</course><hAcc>0.908257</hAcc><vAcc>0.733218</vAcc></extensions></trkpt>
      <trkpt lon="-3.155581" lat="53.000647"><ele>422.182312</ele><time>2021-09-01T11:53:13Z</time><extensions><speed>0.005495</speed><course>-1.000000</course><hAcc>0.908329</hAcc><vAcc>0.733883</vAcc></extensions></trkpt>
      <trkpt lon="-3.155581" lat="53.000647"><ele>422.181671</ele><time>2021-09-01T11:53:14Z</time><extensions><speed>0.005588</speed><course>-1.000000</course><hAcc>0.907629</hAcc><vAcc>0.734124</vAcc></extensions></trkpt>
      <trkpt lon="-3.155581" lat="53.000647"><ele>422.181122</ele><time>2021-09-01T11:53:15Z</time><extensions><speed>0.005525</speed><course>-1.000000</course><hAcc>0.906225</hAcc><vAcc>0.733780</vAcc></extensions></trkpt>
      <trkpt lon="-3.155581" lat="53.000647"><ele>422.180695</ele><time>2021-09-01T11:53:16Z</time><extensions><speed>0.005256</speed><course>184.559082</course><hAcc>0.904335</hAcc><vAcc>0.732903</vAcc></extensions></trkpt>
      <trkpt lon="-3.155581" lat="53.000647"><ele>422.180389</ele><time>2021-09-01T11:53:18Z</time><extensions><speed>0.004726</speed><course>-1.000000</course><hAcc>0.902184</hAcc><vAcc>0.731624</vAcc></extensions></trkpt>
      <trkpt lon="-3.155581" lat="53.000647"><ele>422.180237</ele><time>2021-09-01T11:53:19Z</time><extensions><speed>0.003903</speed><course>-1.000000</course><hAcc>0.899995</hAcc><vAcc>0.730112</vAcc></extensions></trkpt>
      <trkpt lon="-3.155581" lat="53.000647"><ele>422.180298</ele><time>2021-09-01T11:53:20Z</time><extensions><speed>0.002849</speed><course>-1.000000</course><hAcc>0.897944</hAcc><vAcc>0.728533</vAcc></extensions></trkpt>
      <trkpt lon="-3.155581" lat="53.000647"><ele>422.180573</ele><time>2021-09-01T11:53:21Z</time><extensions><speed>0.002176</speed><course>-1.000000</course><hAcc>0.896132</hAcc><vAcc>0.727006</vAcc></extensions></trkpt>
      <trkpt lon="-3.155581" lat="53.000647"><ele>422.181122</ele><time>2021-09-01T11:53:22Z</time><extensions><speed>0.003423</speed><course>53.307610</course><hAcc>0.894606</hAcc><vAcc>0.725614</vAcc></extensions></trkpt>
      <trkpt lon="-3.155581" lat="53.000647"><ele>422.181946</ele><time>2021-09-01T11:53:23Z</time><extensions><speed>0.006293</speed><course>-1.000000</course><hAcc>0.893373</hAcc><vAcc>0.724401</vAcc></extensions></trkpt>
      <trkpt lon="-3.155581" lat="53.000647"><ele>422.183105</ele><time>2021-09-01T11:53:24Z</time><extensions><speed>0.010201</speed><course>-1.000000</course><hAcc>0.892411</hAcc><vAcc>0.723383</vAcc></extensions></trkpt>
      <trkpt lon="-3.155581" lat="53.000647"><ele>422.184601</ele><time>2021-09-01T11:53:25Z</time><extensions><speed>0.015063</speed><course>-1.000000</course><hAcc>0.891682</hAcc><vAcc>0.722550</vAcc></extensions></trkpt>
      <trkpt lon="-3.155581" lat="53.000647"><ele>422.186523</ele><time>2021-09-01T11:53:26Z</time><extensions><speed>0.020904</speed><course>120.394302</course><hAcc>0.891141</hAcc><vAcc>0.721878</vAcc></extensions></trkpt>
      <trkpt lon="-3.155581" lat="53.000648"><ele>422.188843</ele><time>2021-09-01T11:53:27Z</time><extensions><speed>0.027757</speed><course>-1.000000</course><hAcc>0.890739</hAcc><vAcc>0.721330</vAcc></extensions></trkpt>
      <trkpt lon="-3.155581" lat="53.000648"><ele>422.191650</ele><time>2021-09-01T11:53:28Z</time><extensions><speed>0.035637</speed><course>-1.000000</course><hAcc>0.890432</hAcc><vAcc>0.720865</vAcc></extensions></trkpt>
      <trkpt lon="-3.155581" lat="53.000648"><ele>422.194946</ele><time>2021-09-01T11:53:29Z</time><extensions><speed>0.044525</speed><course>-1.000000</course><hAcc>0.890176</hAcc><vAcc>0.720432</vAcc></extensions></trkpt>
      <trkpt lon="-3.155581" lat="53.000649"><ele>422.198792</ele><time>2021-09-01T11:53:29Z</time><extensions><speed>0.054335</speed><course>-1.000000</course><hAcc>0.889953</hAcc><vAcc>0.719993</vAcc></extensions></trkpt>
      <trkpt lon="-3.155581" lat="53.000649"><ele>422.203217</ele><time>2021-09-01T11:53:30Z</time><extensions><speed>0.064979</speed><course>-1.000000</course><hAcc>0.889729</hAcc><vAcc>0.719488</vAcc></extensions></trkpt>
      <trkpt lon="-3.155581" lat="53.000650"><ele>422.208313</ele><time>2021-09-01T11:53:31Z</time><extensions><speed>0.076238</speed><course>-1.000000</course><hAcc>0.889460</hAcc><vAcc>0.718842</vAcc></extensions></trkpt>
      <trkpt lon="-3.155582" lat="53.000651"><ele>422.214142</ele><time>2021-09-01T11:53:32Z</time><extensions><speed>0.087817</speed><course>-1.000000</course><hAcc>0.889121</hAcc><vAcc>0.717988</vAcc></extensions></trkpt>
      <trkpt lon="-3.155582" lat="53.000651"><ele>422.220795</ele><time>2021-09-01T11:53:33Z</time><extensions><speed>0.099318</speed><course>-1.000000</course><hAcc>0.888693</hAcc><vAcc>0.716859</vAcc></extensions></trkpt>
      <trkpt lon="-3.155582" lat="53.000652"><ele>422.228394</ele><time>2021-09-01T11:53:34Z</time><extensions><speed>0.110213</speed><course>-1.000000</course><hAcc>0.888159</hAcc><vAcc>0.715388</vAcc></extensions></trkpt>
      <trkpt lon="-3.155583" lat="53.000653"><ele>422.237122</ele><time>2021-09-01T11:53:36Z</time><extensions><speed>0.119853</speed><course>-1.000000</course><hAcc>0.887490</hAcc><vAcc>0.713503</vAcc></extensions></trkpt>
      <trkpt lon="-3.155584" lat="53.000654"><ele>422.247131</ele><time>2021-09-01T11:53:37Z</time><extensions><speed>0.127370</speed><course>-1.000000</course><hAcc>0.886678</hAcc><vAcc>0.711157</vAcc></extensions></trkpt>
      <trkpt lon="-3.155584" lat="53.000655"><ele>422.258698</ele><time>2021-09-01T11:53:38Z</time><extensions><speed>0.131779</speed><course>-1.000000</course><hAcc>0.885739</hAcc><vAcc>0.708331</vAcc></extensions></trkpt>
      <trkpt lon="-3.155585" lat="53.000656"><ele>422.272095</ele><time>2021-09-01T11:53:39Z</time><extensions><speed>0.131892</speed><course>-1.000000</course><hAcc>0.884675</hAcc><vAcc>0.705018</vAcc></extensions></trkpt>
      <trkpt lon="-3.155586" lat="53.000658"><ele>422.287567</ele><time>2021-09-01T11:53:40Z</time><extensions><speed>0.127969</speed><course>-1.000000</course><hAcc>0.883497</hAcc><vAcc>0.701246</vAcc></extensions></trkpt>
      <trkpt lon="-3.155587" lat="53.000659"><ele>422.305023</ele><time>2021-09-01T11:53:41Z</time><extensions><speed>0.121620</speed><course>-1.000000</course><hAcc>0.882221</hAcc><vAcc>0.697073</vAcc></extensions></trkpt>
      <trkpt lon="-3.155587" lat="53.000659"><ele>422.324097</ele><time>2021-09-01T11:53:42Z</time><extensions><speed>0.113995</speed><course>-1.000000</course><hAcc>0.880866</hAcc><vAcc>0.692587</vAcc></extensions></trkpt>
      <trkpt lon="-3.155588" lat="53.000660"><ele>422.344208</ele><time>2021-09-01T11:53:43Z</time><extensions><speed>0.105812</speed><course>-1.000000</course><hAcc>0.879461</hAcc><vAcc>0.687899</vAcc></extensions></trkpt>
      <trkpt lon="-3.155589" lat="53.000661"><ele>422.364594</ele><time>2021-09-01T11:53:44Z</time><extensions><speed>0.097664</speed><course>-1.000000</course><hAcc>0.878033</hAcc><vAcc>0.683131</vAcc></extensions></trkpt>
      <trkpt lon="-3.155590" lat="53.000662"><ele>422.384583</ele><time>2021-09-01T11:53:45Z</time><extensions><speed>0.090022</speed><course>-1.000000</course><hAcc>0.876611</hAcc><vAcc>0.678407</vAcc></extensions></trkpt>
      <trkpt lon="-3.155591" lat="53.000662"><ele>422.403564</ele><time>2021-09-01T11:53:46Z</time><extensions><speed>0.083191</speed><course>116.725777</course><hAcc>0.875224</hAcc><vAcc>0.673835</vAcc></extensions></trkpt>
      <trkpt lon="-3.155592" lat="53.000662"><ele>422.420807</ele><time>2021-09-01T11:53:47Z</time><extensions><speed>0.077772</speed><course>116.725777</course><hAcc>0.873891</hAcc><vAcc>0.669489</vAcc></extensions></trkpt>
      <trkpt lon="-3.155593" lat="53.000663"><ele>422.435486</ele><time>2021-09-01T11:53:48Z</time><extensions><speed>0.074747</speed><course>116.725777</course><hAcc>0.872626</hAcc><vAcc>0.665412</vAcc></extensions></trkpt>
      <trkpt lon="-3.155594" lat="53.000663"><ele>422.446930</ele><time>2021-09-01T11:53:49Z</time><extensions><speed>0.075206</speed><course>116.725777</course><hAcc>0.871437</hAcc><vAcc>0.661610</vAcc></extensions></trkpt>
      <trkpt lon="-3.155596" lat="53.000663"><ele>422.454681</ele><time>2021-09-01T11:53:50Z</time><extensions><speed>0.079649</speed><course>116.725777</course><hAcc>0.870327</hAcc><vAcc>0.658074</vAcc></extensions></trkpt>
      <trkpt lon="-3.155597" lat="53.000662"><ele>422.458313</ele><time>2021-09-01T11:53:51Z</time><extensions><speed>0.087183</speed><course>116.725784</course><hAcc>0.869304</hAcc><vAcc>0.654802</vAcc></extensions></trkpt>
      <trkpt lon="-3.155598" lat="53.000662"><ele>422.457642</ele><time>2021-09-01T11:53:52Z</time><extensions><speed>0.096145</speed><course>116.725784</course><hAcc>0.868373</hAcc><vAcc>0.651804</vAcc></extensions></trkpt>
      <trkpt lon="-3.155599" lat="53.000662"><ele>422.452515</ele><time>2021-09-01T11:53:53Z</time><extensions><speed>0.105072</speed><course>116.725784</course><hAcc>0.867547</hAcc><vAcc>0.649101</vAcc></extensions></trkpt>
      <trkpt lon="-3.155600" lat="53.000661"><ele>422.442963</ele><time>2021-09-01T11:53:54Z</time><extensions><speed>0.112991</speed><course>116.725784</course><hAcc>0.866840</hAcc><vAcc>0.646734</vAcc></extensions></trkpt>
      <trkpt lon="-3.155602" lat="53.000660"><ele>422.429230</ele><time>2021-09-01T11:53:55Z</time><extensions><speed>0.119215</speed><course>116.725784</course><hAcc>0.866267</hAcc><vAcc>0.644745</vAcc></extensions></trkpt>
      <trkpt lon="-3.155603" lat="53.000659"><ele>422.411621</ele><time>2021-09-01T11:53:56Z</time><extensions><speed>0.123303</speed><course>116.725784</course><hAcc>0.865839</hAcc><vAcc>0.643167</vAcc></extensions></trkpt>
      <trkpt lon="-3.155604" lat="53.000658"><ele>422.390533</ele><time>2021-09-01T11:53:57Z</time><extensions><speed>0.124675</speed><course>116.725784</course><hAcc>0.865558</hAcc><vAcc>0.641996</vAcc></extensions></trkpt>
      <trkpt lon="-3.155605" lat="53.000658"><ele>422.366638</ele><time>2021-09-01T11:53:58Z</time><extensions><speed>0.122697</speed><course>116.725784</course><hAcc>0.865412</hAcc><vAcc>0.641195</vAcc></extensions></trkpt>
      <trkpt lon="-3.155606" lat="53.000657"><ele>422.340790</ele><time>2021-09-01T11:53:59Z</time><extensions><speed>0.117165</speed><course>116.725784</course><hAcc>0.865389</hAcc><vAcc>0.640733</vAcc></extensions></trkpt>
      <trkpt lon="-3.155606" lat="53.000656"><ele>422.313995</ele><time>2021-09-01T11:54:00Z</time><extensions><speed>0.108556</speed><course>116.725784</course><hAcc>0.865488</hAcc><vAcc>0.640658</vAcc></extensions></trkpt>
      <trkpt lon="-3.155607" lat="53.000655"><ele>422.287170</ele><time>2021-09-01T11:54:01Z</time><extensions><speed>0.097709</speed><course>116.725784</course><hAcc>0.865729</hAcc><vAcc>0.641124</vAcc></extensions></trkpt>
      <trkpt lon="-3.155607" lat="53.000654"><ele>422.261108</ele><time>2021-09-01T11:54:02Z</time><extensions><speed>0.085085</speed><course>116.725784</course><hAcc>0.866134</hAcc><vAcc>0.642317</vAcc></extensions></trkpt>
      <trkpt lon="-3.155608" lat="53.000653"><ele>422.236359</ele><time>2021-09-01T11:54:03Z</time><extensions><speed>0.071365</speed><course>116.725784</course><hAcc>0.866718</hAcc><vAcc>0.644341</vAcc></extensions></trkpt>
      <trkpt lon="-3.155608" lat="53.000653"><ele>422.213379</ele><time>2021-09-01T11:54:04Z</time><extensions><speed>0.058388</speed><course>116.725784</course><hAcc>0.867492</hAcc><vAcc>0.647196</vAcc></extensions></trkpt>
      <trkpt lon="-3.155607" lat="53.000652"><ele>422.192535</ele><time>2021-09-01T11:54:05Z</time><extensions><speed>0.048848</speed><course>116.725784</course><hAcc>0.868458</hAcc><vAcc>0.650803</vAcc></extensions></trkpt>
      <trkpt lon="-3.155607" lat="53.000652"><ele>422.174072</ele><time>2021-09-01T11:54:06Z</time><extensions><speed>0.045153</speed><course>116.725784</course><hAcc>0.869596</hAcc><vAcc>0.655023</vAcc></extensions></trkpt>
      <trkpt lon="-3.155606" lat="53.000652"><ele>422.158203</ele><time>2021-09-01T11:54:07Z</time><extensions><speed>0.047231</speed><course>116.725784</course><hAcc>0.870872</hAcc><vAcc>0.659693</vAcc></extensions></trkpt>
      <trkpt lon="-3.155606" lat="53.000651"><ele>422.144806</ele><time>2021-09-01T11:54:08Z</time><extensions><speed>0.052471</speed><course>116.725777</course><hAcc>0.872246</hAcc><vAcc>0.664650</vAcc></extensions></trkpt>
      <trkpt lon="-3.155605" lat="53.000651"><ele>422.133728</ele><time>2021-09-01T11:54:09Z</time><extensions><speed>0.058396</speed><course>116.725769</course><hAcc>0.873671</hAcc><vAcc>0.669718</vAcc></extensions></trkpt>
      <trkpt lon="-3.155604" lat="53.000651"><ele>422.124695</ele><time>2021-09-01T11:54:10Z</time><extensions><speed>0.063607</speed><course>116.725769</course><hAcc>0.875093</hAcc><vAcc>0.674686</vAcc></extensions></trkpt>
      <trkpt lon="-3.155603" lat="53.000651"><ele>422.117523</ele><time>2021-09-01T11:54:11Z</time><extensions><speed>0.067684</speed><course>116.725761</course><hAcc>0.876450</hAcc><vAcc>0.679321</vAcc></extensions></trkpt>
      <trkpt lon="-3.155602" lat="53.000651"><ele>422.112061</ele><time>2021-09-01T11:54:12Z</time><extensions><speed>0.070785</speed><course>116.725754</course><hAcc>0.877687</hAcc><vAcc>0.683418</vAcc></extensions></trkpt>
      <trkpt lon="-3.155601" lat="53.000652"><ele>422.108093</ele><time>2021-09-01T11:54:13Z</time><extensions><speed>0.072909</speed><course>116.725746</course><hAcc>0.878758</hAcc><vAcc>0.686838</vAcc></extensions></trkpt>
      <trkpt lon="-3.155600" lat="53.000652"><ele>422.105530</ele><time>2021-09-01T11:54:14Z</time><extensions><speed>0.073810</speed><course>116.725746</course><hAcc>0.879629</hAcc><vAcc>0.689505</vAcc></extensions></trkpt>
      <trkpt lon="-3.155599" lat="53.000652"><ele>422.104279</ele><time>2021-09-01T11:54:15Z</time><extensions><speed>0.073026</speed><course>116.725731</course><hAcc>0.880281</hAcc><vAcc>0.691400</vAcc></extensions></trkpt>
      <trkpt lon="-3.155598" lat="53.000652"><ele>422.104309</ele><time>2021-09-01T11:54:16Z</time><extensions><speed>0.069902</speed><course>116.725723</course><hAcc>0.880706</hAcc><vAcc>0.692536</vAcc></extensions></trkpt>
      <trkpt lon="-3.155597" lat="53.000653"><ele>422.105621</ele><time>2021-09-01T11:54:17Z</time><extensions><speed>0.064456</speed><course>116.725723</course><hAcc>0.880907</hAcc><vAcc>0.692955</vAcc></extensions></trkpt>
      <trkpt lon="-3.155596" lat="53.000653"><ele>422.108154</ele><time>2021-09-01T11:54:18Z</time><extensions><speed>0.057517</speed><course>116.725708</course><hAcc>0.880893</hAcc><vAcc>0.692719</vAcc></extensions></trkpt>
      <trkpt lon="-3.155596" lat="53.000653"><ele>422.111847</ele><time>2021-09-01T11:54:19Z</time><extensions><speed>0.050001</speed><course>116.725700</course><hAcc>0.880683</hAcc><vAcc>0.691893</vAcc></extensions></trkpt>
      <trkpt lon="-3.155595" lat="53.000654"><ele>422.116638</ele><time>2021-09-01T11:54:20Z</time><extensions><speed>0.042917</speed><course>116.725693</course><hAcc>0.880299</hAcc><vAcc>0.690537</vAcc></extensions></trkpt>
      <trkpt lon="-3.155595" lat="53.000654"><ele>422.122467</ele><time>2021-09-01T11:54:21Z</time><extensions><speed>0.037372</speed><course>116.725685</course><hAcc>0.879769</hAcc><vAcc>0.688707</vAcc></extensions></trkpt>
      <trkpt lon="-3.155595" lat="53.000654"><ele>422.129242</ele><time>2021-09-01T11:54:22Z</time><extensions><speed>0.034299</speed><course>116.725670</course><hAcc>0.879125</hAcc><vAcc>0.686478</vAcc></extensions></trkpt>
      <trkpt lon="-3.155595" lat="53.000655"><ele>422.136932</ele><time>2021-09-01T11:54:23Z</time><extensions><speed>0.034058</speed><course>116.725670</course><hAcc>0.878403</hAcc><vAcc>0.683962</vAcc></extensions></trkpt>
      <trkpt lon="-3.155595" lat="53.000655"><ele>422.145569</ele><time>2021-09-01T11:54:24Z</time><extensions><speed>0.036056</speed><course>116.725662</course><hAcc>0.877644</hAcc><vAcc>0.681308</vAcc></extensions></trkpt>
      <trkpt lon="-3.155595" lat="53.000655"><ele>422.155365</ele><time>2021-09-01T11:54:25Z</time><extensions><speed>0.039164</speed><course>316.510925</course><hAcc>0.876892</hAcc><vAcc>0.678681</vAcc></extensions></trkpt>
      <trkpt lon="-3.155595" lat="53.000655"><ele>422.166443</ele><time>2021-09-01T11:54:26Z</time><extensions><speed>0.042358</speed><course>325.771881</course><hAcc>0.876188</hAcc><vAcc>0.676238</vAcc></extensions></trkpt>
      <trkpt lon="-3.155596" lat="53.000656"><ele>422.178986</ele><time>2021-09-01T11:54:27Z</time><extensions><speed>0.045020</speed><course>329.412018</course><hAcc>0.875571</hAcc><vAcc>0.674114</vAcc></extensions></trkpt>
      <trkpt lon="-3.155596" lat="53.000656"><ele>422.193085</ele><time>2021-09-01T11:54:28Z</time><extensions><speed>0.046824</speed><course>328.807678</course><hAcc>0.875073</hAcc><vAcc>0.672412</vAcc></extensions></trkpt>
      <trkpt lon="-3.155596" lat="53.000657"><ele>422.208740</ele><time>2021-09-01T11:54:29Z</time><extensions><speed>0.047530</speed><course>328.238739</course><hAcc>0.874724</hAcc><vAcc>0.671208</vAcc></extensions></trkpt>
      <trkpt lon="-3.155597" lat="53.000657"><ele>422.225647</ele><time>2021-09-01T11:54:30Z</time><extensions><speed>0.047081</speed><course>328.754333</course><hAcc>0.874553</hAcc><vAcc>0.670571</vAcc></extensions></trkpt>
      <trkpt lon="-3.155597" lat="53.000657"><ele>422.243530</ele><time>2021-09-01T11:54:31Z</time><extensions><speed>0.045634</speed><course>321.291412</course><hAcc>0.874591</hAcc><vAcc>0.670586</vAcc></extensions></trkpt>
      <trkpt lon="-3.155597" lat="53.000658"><ele>422.262024</ele><time>2021-09-01T11:54:32Z</time><extensions><speed>0.043361</speed><course>315.163422</course><hAcc>0.874876</hAcc><vAcc>0.671356</vAcc></extensions></trkpt>
      <trkpt lon="-3.155598" lat="53.000658"><ele>422.280762</ele><time>2021-09-01T11:54:33Z</time><extensions><speed>0.040418</speed><course>320.356079</course><hAcc>0.875445</hAcc><vAcc>0.672970</vAcc></extensions></trkpt>
      <trkpt lon="-3.155598" lat="53.000658"><ele>422.299286</ele><time>2021-09-01T11:54:34Z</time><extensions><speed>0.036893</speed><course>314.759003</course><hAcc>0.876329</hAcc><vAcc>0.675460</vAcc></extensions></trkpt>
      <trkpt lon="-3.155598" lat="53.000658"><ele>422.317078</ele><time>2021-09-01T11:54:35Z</time><extensions><speed>0.032925</speed><course>306.430359</course><hAcc>0.877539</hAcc><vAcc>0.678758</vAcc></extensions></trkpt>
      <trkpt lon="-3.155599" lat="53.000659"><ele>422.333771</ele><time>2021-09-01T11:54:36Z</time><extensions><speed>0.028779</speed><course>312.642456</course><hAcc>0.879072</hAcc><vAcc>0.682693</vAcc></extensions></trkpt>
      <trkpt lon="-3.155599" lat="53.000659"><ele>422.349091</ele><time>2021-09-01T11:54:37Z</time><extensions><speed>0.024655</speed><course>309.329712</course><hAcc>0.880912</hAcc><vAcc>0.687054</vAcc></extensions></trkpt>
      <trkpt lon="-3.155599" lat="53.000659"><ele>422.362854</ele><time>2021-09-01T11:54:38Z</time><extensions><speed>0.020698</speed><course>306.517120</course><hAcc>0.883044</hAcc><vAcc>0.691645</vAcc></extensions></trkpt>
      <trkpt lon="-3.155599" lat="53.000659"><ele>422.375031</ele><time>2021-09-01T11:54:39Z</time><extensions><speed>0.017009</speed><course>302.169647</course><hAcc>0.885446</hAcc><vAcc>0.696294</vAcc></extensions></trkpt>
      <trkpt lon="-3.155599" lat="53.000659"><ele>422.385590</ele><time>2021-09-01T11:54:40Z</time><extensions><speed>0.013653</speed><course>299.953156</course><hAcc>0.888083</hAcc><vAcc>0.700854</vAcc></extensions></trkpt>
      <trkpt lon="-3.155599" lat="53.000659"><ele>422.394592</ele><time>2021-09-01T11:54:41Z</time><extensions><speed>0.010667</speed><course>299.473511</course><hAcc>0.890896</hAcc><vAcc>0.705187</vAcc></extensions></trkpt>
      <trkpt lon="-3.155599" lat="53.000659"><ele>422.402130</ele><time>2021-09-01T11:54:42Z</time><extensions><speed>0.008064</speed><course>298.103729</course><hAcc>0.893788</hAcc><vAcc>0.709154</vAcc></extensions></trkpt>
      <trkpt lon="-3.155599" lat="53.000660"><ele>422.408295</ele><time>2021-09-01T11:54:43Z</time><extensions><speed>0.005840</speed><course>294.101929</course><hAcc>0.896621</hAcc><vAcc>0.712611</vAcc></extensions></trkpt>
      <trkpt lon="-3.155600" lat="53.000660"><ele>422.413239</ele><time>2021-09-01T11:54:44Z</time><extensions><speed>0.003981</speed><course>298.669067</course><hAcc>0.899213</hAcc><vAcc>0.715422</vAcc></extensions></trkpt>
      <trkpt lon="-3.155600" lat="53.000660"><ele>422.417084</ele><time>2021-09-01T11:54:45Z</time><extensions><speed>0.002470</speed><course>297.460327</course><hAcc>0.901363</hAcc><vAcc>0.717485</vAcc></extensions></trkpt>
      <trkpt lon="-3.155600" lat="53.000660"><ele>422.419952</ele><time>2021-09-01T11:54:46Z</time><extensions><speed>0.001310</speed><course>300.643127</course><hAcc>0.902898</hAcc><vAcc>0.718791</vAcc></extensions></trkpt>
      <trkpt lon="-3.155600" lat="53.000660"><ele>422.422028</ele><time>2021-09-01T11:54:47Z</time><extensions><speed>0.000668</speed><course>300.762909</course><hAcc>0.903777</hAcc><vAcc>0.719510</vAcc></extensions></trkpt>
      <trkpt lon="-3.155600" lat="53.000660"><ele>422.423370</ele><time>2021-09-01T11:54:48Z</time><extensions><speed>0.000885</speed><course>306.221161</course><hAcc>0.904253</hAcc><vAcc>0.720136</vAcc></extensions></trkpt>
      <trkpt lon="-3.155599" lat="53.000660"><ele>422.424164</ele><time>2021-09-01T11:54:49Z</time><extensions><speed>0.001335</speed><course>311.753571</course><hAcc>0.905133</hAcc><vAcc>0.721670</vAcc></extensions></trkpt>
      <trkpt lon="-3.155599" lat="53.000660"><ele>422.424500</ele><time>2021-09-01T11:54:50Z</time><extensions><speed>0.001703</speed><course>314.039551</course><hAcc>0.908140</hAcc><vAcc>0.725865</vAcc></extensions></trkpt>
      <trkpt lon="-3.155599" lat="53.000660"><ele>422.424469</ele><time>2021-09-01T11:54:51Z</time><extensions><speed>0.001967</speed><course>316.125336</course><hAcc>0.916349</hAcc><vAcc>0.735465</vAcc></extensions></trkpt>
      <trkpt lon="-3.155599" lat="53.000660"><ele>422.424133</ele><time>2021-09-01T11:54:52Z</time><extensions><speed>0.002143</speed><course>313.054962</course><hAcc>0.934608</hAcc><vAcc>0.754357</vAcc></extensions></trkpt>
      <trkpt lon="-3.155599" lat="53.000660"><ele>422.423615</ele><time>2021-09-01T11:54:53Z</time><extensions><speed>0.002252</speed><course>309.718231</course><hAcc>0.969663</hAcc><vAcc>0.787450</vAcc></extensions></trkpt>
      <trkpt lon="-3.155599" lat="53.000659"><ele>422.413391</ele><time>2021-09-01T11:54:54Z</time><extensions><speed>0.000000</speed><course>-1.000000</course><hAcc>0.932371</hAcc><vAcc>0.753892</vAcc></extensions></trkpt>
      <trkpt lon="-3.155599" lat="53.000659"><ele>422.413391</ele><time>2021-09-01T11:54:55Z</time><extensions><speed>0.000000</speed><course>-1.000000</course><hAcc>0.913868</hAcc><vAcc>0.734762</vAcc></extensions></trkpt>
      <trkpt lon="-3.155599" lat="53.000659"><ele>422.413391</ele><time>2021-09-01T11:54:56Z</time><extensions><speed>0.000000</speed><course>-1.000000</course><hAcc>0.906794</hAcc><vAcc>0.726158</vAcc></extensions></trkpt>
      <trkpt lon="-3.155599" lat="53.000659"><ele>422.413391</ele><time>2021-09-01T11:54:57Z</time><extensions><speed>0.000000</speed><course>-1.000000</course><hAcc>0.905653</hAcc><vAcc>0.723771</vAcc></extensions></trkpt>
      <trkpt lon="-3.155599" lat="53.000659"><ele>422.413391</ele><time>2021-09-01T11:54:58Z</time><extensions><speed>0.000000</speed><course>-1.000000</course><hAcc>0.906976</hAcc><vAcc>0.724563</vAcc></extensions></trkpt>
      <trkpt lon="-3.155599" lat="53.000659"><ele>422.413391</ele><time>2021-09-01T11:54:59Z</time><extensions><speed>0.000000</speed><course>-1.000000</course><hAcc>0.908861</hAcc><vAcc>0.726616</vAcc></extensions></trkpt>
      <trkpt lon="-3.155599" lat="53.000659"><ele>422.413391</ele><time>2021-09-01T11:55:00Z</time><extensions><speed>0.000000</speed><course>-1.000000</course><hAcc>0.910445</hAcc><vAcc>0.728855</vAcc></extensions></trkpt>
      <trkpt lon="-3.155599" lat="53.000659"><ele>422.413391</ele><time>2021-09-01T11:55:01Z</time><extensions><speed>0.000000</speed><course>-1.000000</course><hAcc>0.911481</hAcc><vAcc>0.730757</vAcc></extensions></trkpt>
      <trkpt lon="-3.155599" lat="53.000659"><ele>422.413391</ele><time>2021-09-01T11:55:02Z</time><extensions><speed>0.000000</speed><course>-1.000000</course><hAcc>0.912023</hAcc><vAcc>0.732127</vAcc></extensions></trkpt>
      <trkpt lon="-3.155599" lat="53.000659"><ele>422.413391</ele><time>2021-09-01T11:55:03Z</time><extensions><speed>0.000000</speed><course>184.559082</course><hAcc>0.912224</hAcc><vAcc>0.732926</vAcc></extensions></trkpt>
      <trkpt lon="-3.155599" lat="53.000659"><ele>422.413391</ele><time>2021-09-01T11:55:04Z</time><extensions><speed>0.000000</speed><course>-1.000000</course><hAcc>0.912210</hAcc><vAcc>0.733174</vAcc></extensions></trkpt>
      <trkpt lon="-3.155599" lat="53.000659"><ele>422.413391</ele><time>2021-09-01T11:55:05Z</time><extensions><speed>0.000000</speed><course>-1.000000</course><hAcc>0.912022</hAcc><vAcc>0.732889</vAcc></extensions></trkpt>
      <trkpt lon="-3.155599" lat="53.000659"><ele>422.413391</ele><time>2021-09-01T11:55:06Z</time><extensions><speed>0.000000</speed><course>-1.000000</course><hAcc>0.911619</hAcc><vAcc>0.732092</vAcc></extensions></trkpt>
      <trkpt lon="-3.155599" lat="53.000659"><ele>422.413391</ele><time>2021-09-01T11:55:07Z</time><extensions><speed>0.000000</speed><course>-1.000000</course><hAcc>0.910919</hAcc><vAcc>0.730846</vAcc></extensions></trkpt>
      <trkpt lon="-3.155599" lat="53.000659"><ele>422.413391</ele><time>2021-09-01T11:55:08Z</time><extensions><speed>0.000000</speed><course>53.307610</course><hAcc>0.909919</hAcc><vAcc>0.729359</vAcc></extensions></trkpt>
      <trkpt lon="-3.155599" lat="53.000659"><ele>422.413391</ele><time>2021-09-01T11:55:09Z</time><extensions><speed>0.000000</speed><course>-1.000000</course><hAcc>0.908870</hAcc><vAcc>0.728123</vAcc></extensions></trkpt>
      <trkpt lon="-3.155599" lat="53.000659"><ele>422.413391</ele><time>2021-09-01T11:55:10Z</time><extensions><speed>0.000000</speed><course>-1.000000</course><hAcc>0.908553</hAcc><vAcc>0.728120</vAcc></extensions></trkpt>
      <trkpt lon="-3.155599" lat="53.000659"><ele>422.413391</ele><time>2021-09-01T11:55:11Z</time><extensions><speed>0.000000</speed><course>-1.000000</course><hAcc>0.910648</hAcc><vAcc>0.731068</vAcc></extensions></trkpt>
      <trkpt lon="-3.155599" lat="53.000659"><ele>422.413391</ele><time>2021-09-01T11:55:12Z</time><extensions><speed>0.000000</speed><course>120.394302</course><hAcc>0.918190</hAcc><vAcc>0.739673</vAcc></extensions></trkpt>
      <trkpt lon="-3.155599" lat="53.000659"><ele>422.413391</ele><time>2021-09-01T11:55:13Z</time><extensions><speed>0.000000</speed><course>-1.000000</course><hAcc>0.935985</hAcc><vAcc>0.757789</vAcc></extensions></trkpt>
      <trkpt lon="-3.155599" lat="53.000659"><ele>422.413391</ele><time>2021-09-01T11:55:14Z</time><extensions><speed>0.000000</speed><course>-1.000000</course><hAcc>0.970746</hAcc><vAcc>0.790293</vAcc></extensions></trkpt>
      <trkpt lon="-3.155599" lat="53.000659"><ele>422.413391</ele><time>2021-09-01T11:55:15Z</time><extensions><speed>0.000000</speed><course>-1.000000</course><hAcc>0.933251</hAcc><vAcc>0.756338</vAcc></extensions></trkpt>
      <trkpt lon="-3.155599" lat="53.000659"><ele>422.413391</ele><time>2021-09-01T11:55:16Z</time><extensions><speed>0.000000</speed><course>-1.000000</course><hAcc>0.914478</hAcc><vAcc>0.736453</vAcc></extensions></trkpt>
      <trkpt lon="-3.155599" lat="53.000659"><ele>422.413391</ele><time>2021-09-01T11:55:17Z</time><extensions><speed>0.000000</speed><course>-1.000000</course><hAcc>0.907158</hAcc><vAcc>0.727164</vAcc></extensions></trkpt>
      <trkpt lon="-3.155599" lat="53.000659"><ele>422.413391</ele><time>2021-09-01T11:55:18Z</time><extensions><speed>0.000000</speed><course>-1.000000</course><hAcc>0.905801</hAcc><vAcc>0.724171</vAcc></extensions></trkpt>
      <trkpt lon="-3.155599" lat="53.000659"><ele>422.413391</ele><time>2021-09-01T11:55:19Z</time><extensions><speed>0.000000</speed><course>-1.000000</course><hAcc>0.906937</hAcc><vAcc>0.724429</vAcc></extensions></trkpt>
      <trkpt lon="-3.155599" lat="53.000659"><ele>422.413391</ele><time>2021-09-01T11:55:20Z</time><extensions><speed>0.000000</speed><course>-1.000000</course><hAcc>0.908659</hAcc><vAcc>0.726008</vAcc></extensions></trkpt>
      <trkpt lon="-3.155599" lat="53.000659"><ele>422.413391</ele><time>2021-09-01T11:55:21Z</time><extensions><speed>0.000000</speed><course>-1.000000</course><hAcc>0.910100</hAcc><vAcc>0.727817</vAcc></extensions></trkpt>
      <trkpt lon="-3.155599" lat="53.000659"><ele>422.413391</ele><time>2021-09-01T11:55:22Z</time><extensions><speed>0.000000</speed><course>-1.000000</course><hAcc>0.911010</hAcc><vAcc>0.729324</vAcc></extensions></trkpt>
      <trkpt lon="-3.155599" lat="53.000659"><ele>422.413391</ele><time>2021-09-01T11:55:23Z</time><extensions><speed>0.000000</speed><course>-1.000000</course><hAcc>0.911443</hAcc><vAcc>0.730330</vAcc></extensions></trkpt>
      <trkpt lon="-3.155599" lat="53.000659"><ele>422.413391</ele><time>2021-09-01T11:55:24Z</time><extensions><speed>0.000000</speed><course>184.559082</course><hAcc>0.911550</hAcc><vAcc>0.730802</vAcc></extensions></trkpt>
      <trkpt lon="-3.155599" lat="53.000659"><ele>422.413391</ele><time>2021-09-01T11:55:25Z</time><extensions><speed>0.000000</speed><course>-1.000000</course><hAcc>0.911458</hAcc><vAcc>0.730769</vAcc></extensions></trkpt>
      <trkpt lon="-3.155599" lat="53.000659"><ele>422.413391</ele><time>2021-09-01T11:55:26Z</time><extensions><speed>0.000000</speed><course>-1.000000</course><hAcc>0.911211</hAcc><vAcc>0.730263</vAcc></extensions></trkpt>
      <trkpt lon="-3.155599" lat="53.000659"><ele>422.413391</ele><time>2021-09-01T11:55:27Z</time><extensions><speed>0.000000</speed><course>-1.000000</course><hAcc>0.910768</hAcc><vAcc>0.729316</vAcc></extensions></trkpt>
      <trkpt lon="-3.155599" lat="53.000659"><ele>422.413391</ele><time>2021-09-01T11:55:28Z</time><extensions><speed>0.000000</speed><course>-1.000000</course><hAcc>0.910050</hAcc><vAcc>0.728002</vAcc></extensions></trkpt>
      <trkpt lon="-3.155599" lat="53.000659"><ele>422.413391</ele><time>2021-09-01T11:55:29Z</time><extensions><speed>0.000000</speed><course>53.307610</course><hAcc>0.909054</hAcc><vAcc>0.726532</vAcc></extensions></trkpt>
      <trkpt lon="-3.155599" lat="53.000659"><ele>422.413391</ele><time>2021-09-01T11:55:30Z</time><extensions><speed>0.000000</speed><course>-1.000000</course><hAcc>0.908032</hAcc><vAcc>0.725402</vAcc></extensions></trkpt>
      <trkpt lon="-3.155599" lat="53.000659"><ele>422.413391</ele><time>2021-09-01T11:55:31Z</time><extensions><speed>0.000000</speed><course>-1.000000</course><hAcc>0.907767</hAcc><vAcc>0.725593</vAcc></extensions></trkpt>
      <trkpt lon="-3.155599" lat="53.000659"><ele>422.413391</ele><time>2021-09-01T11:55:31Z</time><extensions><speed>0.000000</speed><course>-1.000000</course><hAcc>0.909957</hAcc><vAcc>0.728838</vAcc></extensions></trkpt>
      <trkpt lon="-3.155599" lat="53.000659"><ele>422.413391</ele><time>2021-09-01T11:55:32Z</time><extensions><speed>0.000000</speed><course>120.394302</course><hAcc>0.917637</hAcc><vAcc>0.737853</vAcc></extensions></trkpt>
      <trkpt lon="-3.155599" lat="53.000659"><ele>422.413391</ele><time>2021-09-01T11:55:33Z</time><extensions><speed>0.000000</speed><course>-1.000000</course><hAcc>0.935594</hAcc><vAcc>0.756481</vAcc></extensions></trkpt>
      <trkpt lon="-3.155599" lat="53.000659"><ele>422.413391</ele><time>2021-09-01T11:55:34Z</time><extensions><speed>0.000000</speed><course>-1.000000</course><hAcc>0.970534</hAcc><vAcc>0.789586</vAcc></extensions></trkpt>
      <trkpt lon="-3.155599" lat="53.000659"><ele>422.413391</ele><time>2021-09-01T11:55:35Z</time><extensions><speed>0.000000</speed><course>-1.000000</course><hAcc>0.932988</hAcc><vAcc>0.755600</vAcc></extensions></trkpt>
      <trkpt lon="-3.155599" lat="53.000659"><ele>422.413391</ele><time>2021-09-01T11:55:36Z</time><extensions><speed>0.000000</speed><course>-1.000000</course><hAcc>0.914502</hAcc><vAcc>0.736550</vAcc></extensions></trkpt>
      <trkpt lon="-3.155599" lat="53.000659"><ele>422.413391</ele><time>2021-09-01T11:55:38Z</time><extensions><speed>0.000000</speed><course>-1.000000</course><hAcc>0.907438</hAcc><vAcc>0.728032</vAcc></extensions></trkpt>
      <trkpt lon="-3.155599" lat="53.000659"><ele>422.413391</ele><time>2021-09-01T11:55:39Z</time><extensions><speed>0.000000</speed><course>-1.000000</course><hAcc>0.906305</hAcc><vAcc>0.725736</vAcc></extensions></trkpt>
      <trkpt lon="-3.155599" lat="53.000659"><ele>422.413391</ele><time>2021-09-01T11:55:40Z</time><extensions><speed>0.000000</speed><course>-1.000000</course><hAcc>0.907643</hAcc><vAcc>0.726615</vAcc></extensions></trkpt>
      <trkpt lon="-3.155599" lat="53.000659"><ele>422.413391</ele><time>2021-09-01T11:55:41Z</time><extensions><speed>0.000000</speed><course>-1.000000</course><hAcc>0.909543</hAcc><vAcc>0.728745</vAcc></extensions></trkpt>
      <trkpt lon="-3.155599" lat="53.000659"><ele>422.413391</ele><time>2021-09-01T11:55:42Z</time><extensions><speed>0.000000</speed><course>-1.000000</course><hAcc>0.911143</hAcc><vAcc>0.731041</vAcc></extensions></trkpt>
      <trkpt lon="-3.155599" lat="53.000659"><ele>422.413391</ele><time>2021-09-01T11:55:43Z</time><extensions><speed>0.000000</speed><course>-1.000000</course><hAcc>0.912190</hAcc><vAcc>0.732978</vAcc></extensions></trkpt>
      <trkpt lon="-3.155599" lat="53.000659"><ele>422.413391</ele><time>2021-09-01T11:55:44Z</time><extensions><speed>0.000000</speed><course>-1.000000</course><hAcc>0.912739</hAcc><vAcc>0.734358</vAcc></extensions></trkpt>
      <trkpt lon="-3.155599" lat="53.000659"><ele>422.413391</ele><time>2021-09-01T11:55:45Z</time><extensions><speed>0.000000</speed><course>184.559082</course><hAcc>0.912938</hAcc><vAcc>0.735146</vAcc></extensions></trkpt>
      <trkpt lon="-3.155599" lat="53.000659"><ele>422.413391</ele><time>2021-09-01T11:55:46Z</time><extensions><speed>0.000000</speed><course>-1.000000</course><hAcc>0.912915</hAcc><vAcc>0.735361</vAcc></extensions></trkpt>
      <trkpt lon="-3.155599" lat="53.000659"><ele>422.413391</ele><time>2021-09-01T11:55:47Z</time><extensions><speed>0.000000</speed><course>-1.000000</course><hAcc>0.912714</hAcc><vAcc>0.735031</vAcc></extensions></trkpt>
      <trkpt lon="-3.155599" lat="53.000659"><ele>422.413391</ele><time>2021-09-01T11:55:48Z</time><extensions><speed>0.000000</speed><course>-1.000000</course><hAcc>0.912292</hAcc><vAcc>0.734182</vAcc></extensions></trkpt>
      <trkpt lon="-3.155599" lat="53.000659"><ele>422.413391</ele><time>2021-09-01T11:55:49Z</time><extensions><speed>0.000000</speed><course>-1.000000</course><hAcc>0.911577</hAcc><vAcc>0.732889</vAcc></extensions></trkpt>
      <trkpt lon="-3.155599" lat="53.000659"><ele>422.413391</ele><time>2021-09-01T11:55:50Z</time><extensions><speed>0.000000</speed><course>53.307610</course><hAcc>0.910569</hAcc><vAcc>0.731368</vAcc></extensions></trkpt>
      <trkpt lon="-3.155599" lat="53.000659"><ele>422.413391</ele><time>2021-09-01T11:55:51Z</time><extensions><speed>0.000000</speed><course>-1.000000</course><hAcc>0.909525</hAcc><vAcc>0.730126</vAcc></extensions></trkpt>
      <trkpt lon="-3.155599" lat="53.000659"><ele>422.413391</ele><time>2021-09-01T11:55:52Z</time><extensions><speed>0.000000</speed><course>-1.000000</course><hAcc>0.909235</hAcc><vAcc>0.730161</vAcc></extensions></trkpt>
      <trkpt lon="-3.155599" lat="53.000659"><ele>422.413391</ele><time>2021-09-01T11:55:53Z</time><extensions><speed>0.000000</speed><course>-1.000000</course><hAcc>0.911386</hAcc><vAcc>0.733215</vAcc></extensions></trkpt>
      <trkpt lon="-3.155599" lat="53.000659"><ele>422.413391</ele><time>2021-09-01T11:55:54Z</time><extensions><speed>0.000000</speed><course>120.394302</course><hAcc>0.919019</hAcc><vAcc>0.742017</vAcc></extensions></trkpt>
      <trkpt lon="-3.155599" lat="53.000659"><ele>422.413391</ele><time>2021-09-01T11:55:55Z</time><extensions><speed>0.000000</speed><course>-1.000000</course><hAcc>0.936941</hAcc><vAcc>0.760432</vAcc></extensions></trkpt>
      <trkpt lon="-3.155599" lat="53.000659"><ele>422.413391</ele><time>2021-09-01T11:55:56Z</time><extensions><speed>0.000000</speed><course>-1.000000</course><hAcc>0.971856</hAcc><vAcc>0.793339</vAcc></extensions></trkpt>
      <trkpt lon="-3.155599" lat="53.000659"><ele>422.413391</ele><time>2021-09-01T11:55:57Z</time><extensions><speed>0.000000</speed><course>-1.000000</course><hAcc>0.934384</hAcc><vAcc>0.759490</vAcc></extensions></trkpt>
      <trkpt lon="-3.155599" lat="53.000659"><ele>422.413391</ele><time>2021-09-01T11:55:58Z</time><extensions><speed>0.000000</speed><course>-1.000000</course><hAcc>0.915676</hAcc><vAcc>0.739870</vAcc></extensions></trkpt>
      <trkpt lon="-3.155599" lat="53.000659"><ele>422.413391</ele><time>2021-09-01T11:55:59Z</time><extensions><speed>0.000000</speed><course>-1.000000</course><hAcc>0.908456</hAcc><vAcc>0.730964</vAcc></extensions></trkpt>
      <trkpt lon="-3.155599" lat="53.000659"><ele>422.413391</ele><time>2021-09-01T11:56:00Z</time><extensions><speed>0.000000</speed><course>-1.000000</course><hAcc>0.907232</hAcc><vAcc>0.728453</vAcc></extensions></trkpt>
      <trkpt lon="-3.155599" lat="53.000659"><ele>422.413391</ele><time>2021-09-01T11:56:01Z</time><extensions><speed>0.000000</speed><course>-1.000000</course><hAcc>0.908528</hAcc><vAcc>0.729264</vAcc></extensions></trkpt>
      <trkpt lon="-3.155599" lat="53.000659"><ele>422.413391</ele><time>2021-09-01T11:56:02Z</time><extensions><speed>0.000000</speed><course>-1.000000</course><hAcc>0.910427</hAcc><vAcc>0.731436</vAcc></extensions></trkpt>
      <trkpt lon="-3.155599" lat="53.000659"><ele>422.413391</ele><time>2021-09-01T11:56:03Z</time><extensions><speed>0.000000</speed><course>-1.000000</course><hAcc>0.912051</hAcc><vAcc>0.733847</vAcc></extensions></trkpt>
      <trkpt lon="-3.155599" lat="53.000659"><ele>422.413391</ele><time>2021-09-01T11:56:04Z</time><extensions><speed>0.000000</speed><course>-1.000000</course><hAcc>0.913141</hAcc><vAcc>0.735938</vAcc></extensions></trkpt>
      <trkpt lon="-3.155599" lat="53.000659"><ele>422.413391</ele><time>2021-09-01T11:56:05Z</time><extensions><speed>0.000000</speed><course>-1.000000</course><hAcc>0.913738</hAcc><vAcc>0.737486</vAcc></extensions></trkpt>
      <trkpt lon="-3.155599" lat="53.000659"><ele>422.413391</ele><time>2021-09-01T11:56:06Z</time><extensions><speed>0.000000</speed><course>184.559082</course><hAcc>0.913988</hAcc><vAcc>0.738439</vAcc></extensions></trkpt>
      <trkpt lon="-3.155599" lat="53.000659"><ele>422.413391</ele><time>2021-09-01T11:56:07Z</time><extensions><speed>0.000000</speed><course>-1.000000</course><hAcc>0.914013</hAcc><vAcc>0.738811</vAcc></extensions></trkpt>
      <trkpt lon="-3.155599" lat="53.000659"><ele>422.413391</ele><time>2021-09-01T11:56:08Z</time><extensions><speed>0.000000</speed><course>-1.000000</course><hAcc>0.913857</hAcc><vAcc>0.738628</vAcc></extensions></trkpt>
      <trkpt lon="-3.155599" lat="53.000659"><ele>422.413391</ele><time>2021-09-01T11:56:09Z</time><extensions><speed>0.000000</speed><course>-1.000000</course><hAcc>0.913483</hAcc><vAcc>0.737928</vAcc></extensions></trkpt>
      <trkpt lon="-3.155599" lat="53.000659"><ele>422.413391</ele><time>2021-09-01T11:56:10Z</time><extensions><speed>0.000000</speed><course>-1.000000</course><hAcc>0.912826</hAcc><vAcc>0.736803</vAcc></extensions></trkpt>
      <trkpt lon="-3.155599" lat="53.000659"><ele>422.413391</ele><time>2021-09-01T11:56:11Z</time><extensions><speed>0.000000</speed><course>53.307610</course><hAcc>0.911896</hAcc><vAcc>0.735497</vAcc></extensions></trkpt>
      <trkpt lon="-3.155599" lat="53.000659"><ele>422.413391</ele><time>2021-09-01T11:56:12Z</time><extensions><speed>0.000000</speed><course>-1.000000</course><hAcc>0.910969</hAcc><vAcc>0.734549</vAcc></extensions></trkpt>
      <trkpt lon="-3.155599" lat="53.000659"><ele>422.413391</ele><time>2021-09-01T11:56:13Z</time><extensions><speed>0.000000</speed><course>-1.000000</course><hAcc>0.910848</hAcc><vAcc>0.734995</vAcc></extensions></trkpt>
      <trkpt lon="-3.155599" lat="53.000659"><ele>422.413391</ele><time>2021-09-01T11:56:14Z</time><extensions><speed>0.000000</speed><course>-1.000000</course><hAcc>0.913238</hAcc><vAcc>0.738618</vAcc></extensions></trkpt>
      <trkpt lon="-3.155599" lat="53.000659"><ele>422.413391</ele><time>2021-09-01T11:56:15Z</time><extensions><speed>0.000000</speed><course>120.394302</course><hAcc>0.921190</hAcc><vAcc>0.748187</vAcc></extensions></trkpt>
      <trkpt lon="-3.155599" lat="53.000659"><ele>422.413391</ele><time>2021-09-01T11:56:16Z</time><extensions><speed>0.000000</speed><course>-1.000000</course><hAcc>0.939507</hAcc><vAcc>0.767586</vAcc></extensions></trkpt>
      <trkpt lon="-3.155599" lat="53.000659"><ele>422.413391</ele><time>2021-09-01T11:56:17Z</time><extensions><speed>0.000000</speed><course>-1.000000</course><hAcc>0.974868</hAcc><vAcc>0.801669</vAcc></extensions></trkpt>
      <trkpt lon="-3.155599" lat="53.000659"><ele>422.413391</ele><time>2021-09-01T11:56:18Z</time><extensions><speed>0.000000</speed><course>-1.000000</course><hAcc>0.936865</hAcc><vAcc>0.766646</vAcc></extensions></trkpt>
      <trkpt lon="-3.155599" lat="53.000659"><ele>422.413391</ele><time>2021-09-01T11:56:19Z</time><extensions><speed>0.000000</speed><course>-1.000000</course><hAcc>0.917951</hAcc><vAcc>0.746673</vAcc></extensions></trkpt>
      <trkpt lon="-3.155599" lat="53.000659"><ele>422.413391</ele><time>2021-09-01T11:56:20Z</time><extensions><speed>0.000000</speed><course>-1.000000</course><hAcc>0.910554</hAcc><vAcc>0.737470</vAcc></extensions></trkpt>
      <trkpt lon="-3.155599" lat="53.000659"><ele>422.413391</ele><time>2021-09-01T11:56:21Z</time><extensions><speed>0.000000</speed><course>-1.000000</course><hAcc>0.909190</hAcc><vAcc>0.734700</vAcc></extensions></trkpt>
      <trkpt lon="-3.155599" lat="53.000659"><ele>422.413391</ele><time>2021-09-01T11:56:22Z</time><extensions><speed>0.000000</speed><course>-1.000000</course><hAcc>0.910380</hAcc><vAcc>0.735267</vAcc></extensions></trkpt>
      <trkpt lon="-3.155599" lat="53.000659"><ele>422.413391</ele><time>2021-09-01T11:56:23Z</time><extensions><speed>0.000000</speed><course>-1.000000</course><hAcc>0.912196</hAcc><vAcc>0.737193</vAcc></extensions></trkpt>
      <trkpt lon="-3.155599" lat="53.000659"><ele>422.413391</ele><time>2021-09-01T11:56:24Z</time><extensions><speed>0.000000</speed><course>-1.000000</course><hAcc>0.913752</hAcc><vAcc>0.739344</vAcc></extensions></trkpt>
      <trkpt lon="-3.155599" lat="53.000659"><ele>422.413391</ele><time>2021-09-01T11:56:25Z</time><extensions><speed>0.000000</speed><course>-1.000000</course><hAcc>0.914777</hAcc><vAcc>0.741157</vAcc></extensions></trkpt>
      <trkpt lon="-3.155599" lat="53.000659"><ele>422.413391</ele><time>2021-09-01T11:56:26Z</time><extensions><speed>0.000000</speed><course>-1.000000</course><hAcc>0.915307</hAcc><vAcc>0.742410</vAcc></extensions></trkpt>
      <trkpt lon="-3.155599" lat="53.000659"><ele>422.413391</ele><time>2021-09-01T11:56:27Z</time><extensions><speed>0.000000</speed><course>184.559082</course><hAcc>0.915482</hAcc><vAcc>0.743054</vAcc></extensions></trkpt>
      <trkpt lon="-3.155599" lat="53.000659"><ele>422.413391</ele><time>2021-09-01T11:56:28Z</time><extensions><speed>0.000000</speed><course>-1.000000</course><hAcc>0.915424</hAcc><vAcc>0.743108</vAcc></extensions></trkpt>
      <trkpt lon="-3.155599" lat="53.000659"><ele>422.413391</ele><time>2021-09-01T11:56:29Z</time><extensions><speed>0.000000</speed><course>-1.000000</course><hAcc>0.915176</hAcc><vAcc>0.742607</vAcc></extensions></trkpt>
      <trkpt lon="-3.155599" lat="53.000659"><ele>422.413391</ele><time>2021-09-01T11:56:30Z</time><extensions><speed>0.000000</speed><course>-1.000000</course><hAcc>0.914705</hAcc><vAcc>0.741596</vAcc></extensions></trkpt>
      <trkpt lon="-3.155599" lat="53.000659"><ele>422.413391</ele><time>2021-09-01T11:56:31Z</time><extensions><speed>0.000000</speed><course>-1.000000</course><hAcc>0.913947</hAcc><vAcc>0.740171</vAcc></extensions></trkpt>
      <trkpt lon="-3.155599" lat="53.000659"><ele>422.413391</ele><time>2021-09-01T11:56:32Z</time><extensions><speed>0.000000</speed><course>53.307610</course><hAcc>0.912917</hAcc><vAcc>0.738577</vAcc></extensions></trkpt>
      <trkpt lon="-3.155599" lat="53.000659"><ele>422.413391</ele><time>2021-09-01T11:56:33Z</time><extensions><speed>0.000000</speed><course>-1.000000</course><hAcc>0.911892</hAcc><vAcc>0.737352</vAcc></extensions></trkpt>
      <trkpt lon="-3.155599" lat="53.000659"><ele>422.413391</ele><time>2021-09-01T11:56:34Z</time><extensions><speed>0.000000</speed><course>-1.000000</course><hAcc>0.911677</hAcc><vAcc>0.737530</vAcc></extensions></trkpt>
      <trkpt lon="-3.155599" lat="53.000659"><ele>422.413391</ele><time>2021-09-01T11:56:35Z</time><extensions><speed>0.000000</speed><course>-1.000000</course><hAcc>0.913978</hAcc><vAcc>0.740890</vAcc></extensions></trkpt>
      <trkpt lon="-3.155599" lat="53.000659"><ele>422.413391</ele><time>2021-09-01T11:56:36Z</time><extensions><speed>0.000000</speed><course>120.394302</course><hAcc>0.921845</hAcc><vAcc>0.750193</vAcc></extensions></trkpt>
      <trkpt lon="-3.155599" lat="53.000659"><ele>422.413391</ele><time>2021-09-01T11:56:37Z</time><extensions><speed>0.000000</speed><course>-1.000000</course><hAcc>0.940080</hAcc><vAcc>0.769319</vAcc></extensions></trkpt>
      <trkpt lon="-3.155599" lat="53.000659"><ele>422.413391</ele><time>2021-09-01T11:56:38Z</time><extensions><speed>0.000000</speed><course>-1.000000</course><hAcc>0.975360</hAcc><vAcc>0.803120</vAcc></extensions></trkpt>
      <trkpt lon="-3.155599" lat="53.000659"><ele>422.413391</ele><time>2021-09-01T11:56:39Z</time><extensions><speed>0.000000</speed><course>-1.000000</course><hAcc>0.937254</hAcc><vAcc>0.767746</vAcc></extensions></trkpt>
      <trkpt lon="-3.155599" lat="53.000659"><ele>422.413391</ele><time>2021-09-01T11:56:40Z</time><extensions><speed>0.000000</speed><course>-1.000000</course><hAcc>0.918100</hAcc><vAcc>0.747093</vAcc></extensions></trkpt>
      <trkpt lon="-3.155599" lat="53.000659"><ele>422.413391</ele><time>2021-09-01T11:56:41Z</time><extensions><speed>0.000000</speed><course>-1.000000</course><hAcc>0.910472</hAcc><vAcc>0.737218</vAcc></extensions></trkpt>
      <trkpt lon="-3.155599" lat="53.000659"><ele>422.413391</ele><time>2021-09-01T11:56:42Z</time><extensions><speed>0.000000</speed><course>-1.000000</course><hAcc>0.908891</hAcc><vAcc>0.733799</vAcc></extensions></trkpt>
      <trkpt lon="-3.155599" lat="53.000659"><ele>422.413391</ele><time>2021-09-01T11:56:43Z</time><extensions><speed>0.000000</speed><course>-1.000000</course><hAcc>0.909880</hAcc><vAcc>0.733752</vAcc></extensions></trkpt>
      <trkpt lon="-3.155599" lat="53.000659"><ele>422.413391</ele><time>2021-09-01T11:56:44Z</time><extensions><speed>0.000000</speed><course>-1.000000</course><hAcc>0.911512</hAcc><vAcc>0.735101</vAcc></extensions></trkpt>
      <trkpt lon="-3.155599" lat="53.000659"><ele>422.413391</ele><time>2021-09-01T11:56:45Z</time><extensions><speed>0.000000</speed><course>-1.000000</course><hAcc>0.912903</hAcc><vAcc>0.736719</vAcc></extensions></trkpt>
      <trkpt lon="-3.155599" lat="53.000659"><ele>422.413391</ele><time>2021-09-01T11:56:46Z</time><extensions><speed>0.000000</speed><course>-1.000000</course><hAcc>0.913782</hAcc><vAcc>0.738050</vAcc></extensions></trkpt>
      <trkpt lon="-3.155599" lat="53.000659"><ele>422.413391</ele><time>2021-09-01T11:56:47Z</time><extensions><speed>0.000000</speed><course>-1.000000</course><hAcc>0.914189</hAcc><vAcc>0.738879</vAcc></extensions></trkpt>
      <trkpt lon="-3.155599" lat="53.000659"><ele>422.413391</ele><time>2021-09-01T11:56:48Z</time><extensions><speed>0.000000</speed><course>184.559082</course><hAcc>0.914265</hAcc><vAcc>0.739169</vAcc></extensions></trkpt>
      <trkpt lon="-3.155599" lat="53.000659"><ele>422.413391</ele><time>2021-09-01T11:56:49Z</time><extensions><speed>0.000000</speed><course>-1.000000</course><hAcc>0.914132</hAcc><vAcc>0.738948</vAcc></extensions></trkpt>
      <trkpt lon="-3.155599" lat="53.000659"><ele>422.413391</ele><time>2021-09-01T11:56:50Z</time><extensions><speed>0.000000</speed><course>-1.000000</course><hAcc>0.913834</hAcc><vAcc>0.738255</vAcc></extensions></trkpt>
      <trkpt lon="-3.155599" lat="53.000659"><ele>422.413391</ele><time>2021-09-01T11:56:51Z</time><extensions><speed>0.000000</speed><course>-1.000000</course><hAcc>0.913335</hAcc><vAcc>0.737132</vAcc></extensions></trkpt>
      <trkpt lon="-3.155599" lat="53.000659"><ele>422.413391</ele><time>2021-09-01T11:56:52Z</time><extensions><speed>0.000000</speed><course>-1.000000</course><hAcc>0.912564</hAcc><vAcc>0.735663</vAcc></extensions></trkpt>
      <trkpt lon="-3.155599" lat="53.000659"><ele>422.413391</ele><time>2021-09-01T11:56:53Z</time><extensions><speed>0.000000</speed><course>53.307610</course><hAcc>0.911528</hAcc><vAcc>0.734072</vAcc></extensions></trkpt>
      <trkpt lon="-3.155599" lat="53.000659"><ele>422.413391</ele><time>2021-09-01T11:56:54Z</time><extensions><speed>0.000000</speed><course>-1.000000</course><hAcc>0.910490</hAcc><vAcc>0.732870</vAcc></extensions></trkpt>
      <trkpt lon="-3.155599" lat="53.000659"><ele>422.413391</ele><time>2021-09-01T11:56:55Z</time><extensions><speed>0.000000</speed><course>-1.000000</course><hAcc>0.910245</hAcc><vAcc>0.733062</vAcc></extensions></trkpt>
      <trkpt lon="-3.155599" lat="53.000659"><ele>422.413391</ele><time>2021-09-01T11:56:56Z</time><extensions><speed>0.000000</speed><course>-1.000000</course><hAcc>0.912484</hAcc><vAcc>0.736390</vAcc></extensions></trkpt>
      <trkpt lon="-3.155599" lat="53.000659"><ele>422.413391</ele><time>2021-09-01T11:56:57Z</time><extensions><speed>0.000000</speed><course>120.394302</course><hAcc>0.920247</hAcc><vAcc>0.745578</vAcc></extensions></trkpt>
      <trkpt lon="-3.155599" lat="53.000659"><ele>422.413391</ele><time>2021-09-01T11:56:58Z</time><extensions><speed>0.000000</speed><course>-1.000000</course><hAcc>0.938334</hAcc><vAcc>0.764464</vAcc></extensions></trkpt>
      <trkpt lon="-3.155599" lat="53.000659"><ele>422.413391</ele><time>2021-09-01T11:56:59Z</time><extensions><speed>0.000000</speed><course>-1.000000</course><hAcc>0.973433</hAcc><vAcc>0.797875</vAcc></extensions></trkpt>
      <trkpt lon="-3.155599" lat="53.000659"><ele>422.413391</ele><time>2021-09-01T11:57:00Z</time><extensions><speed>0.000000</speed><course>-1.000000</course><hAcc>0.935704</hAcc><vAcc>0.763431</vAcc></extensions></trkpt>
      <trkpt lon="-3.155599" lat="53.000659"><ele>422.413391</ele><time>2021-09-01T11:57:01Z</time><extensions><speed>0.000000</speed><course>-1.000000</course><hAcc>0.916899</hAcc><vAcc>0.743602</vAcc></extensions></trkpt>
      <trkpt lon="-3.155599" lat="53.000659"><ele>422.413391</ele><time>2021-09-01T11:57:02Z</time><extensions><speed>0.000000</speed><course>-1.000000</course><hAcc>0.909593</hAcc><vAcc>0.734479</vAcc></extensions></trkpt>
      <trkpt lon="-3.155599" lat="53.000659"><ele>422.413391</ele><time>2021-09-01T11:57:03Z</time><extensions><speed>0.000000</speed><course>-1.000000</course><hAcc>0.908301</hAcc><vAcc>0.731770</vAcc></extensions></trkpt>
      <trkpt lon="-3.155599" lat="53.000659"><ele>422.413391</ele><time>2021-09-01T11:57:04Z</time><extensions><speed>0.000000</speed><course>-1.000000</course><hAcc>0.909547</hAcc><vAcc>0.732421</vAcc></extensions></trkpt>
      <trkpt lon="-3.155599" lat="53.000659"><ele>422.413391</ele><time>2021-09-01T11:57:05Z</time><extensions><speed>0.000000</speed><course>-1.000000</course><hAcc>0.911411</hAcc><vAcc>0.734478</vAcc></extensions></trkpt>
      <trkpt lon="-3.155599" lat="53.000659"><ele>422.413391</ele><time>2021-09-01T11:57:06Z</time><extensions><speed>0.000000</speed><course>-1.000000</course><hAcc>0.913014</hAcc><vAcc>0.736812</vAcc></extensions></trkpt>
      <trkpt lon="-3.155599" lat="53.000659"><ele>422.413391</ele><time>2021-09-01T11:57:07Z</time><extensions><speed>0.000000</speed><course>-1.000000</course><hAcc>0.914088</hAcc><vAcc>0.738857</vAcc></extensions></trkpt>
      <trkpt lon="-3.155599" lat="53.000659"><ele>422.413391</ele><time>2021-09-01T11:57:08Z</time><extensions><speed>0.000000</speed><course>-1.000000</course><hAcc>0.914673</hAcc><vAcc>0.740375</vAcc></extensions></trkpt>
      <trkpt lon="-3.155599" lat="53.000659"><ele>422.413391</ele><time>2021-09-01T11:57:09Z</time><extensions><speed>0.000000</speed><course>184.559082</course><hAcc>0.914908</hAcc><vAcc>0.741301</vAcc></extensions></trkpt>
      <trkpt lon="-3.155599" lat="53.000659"><ele>422.413391</ele><time>2021-09-01T11:57:10Z</time><extensions><speed>0.000000</speed><course>-1.000000</course><hAcc>0.914910</hAcc><vAcc>0.741634</vAcc></extensions></trkpt>
      <trkpt lon="-3.155599" lat="53.000659"><ele>422.413391</ele><time>2021-09-01T11:57:11Z</time><extensions><speed>0.000000</speed><course>-1.000000</course><hAcc>0.914722</hAcc><vAcc>0.741385</vAcc></extensions></trkpt>
      <trkpt lon="-3.155599" lat="53.000659"><ele>422.413391</ele><time>2021-09-01T11:57:12Z</time><extensions><speed>0.000000</speed><course>-1.000000</course><hAcc>0.914304</hAcc><vAcc>0.740578</vAcc></extensions></trkpt>
      <trkpt lon="-3.155599" lat="53.000659"><ele>422.413391</ele><time>2021-09-01T11:57:13Z</time><extensions><speed>0.000000</speed><course>-1.000000</course><hAcc>0.913588</hAcc><vAcc>0.739293</vAcc></extensions></trkpt>
      <trkpt lon="-3.155599" lat="53.000659"><ele>422.413391</ele><time>2021-09-01T11:57:14Z</time><extensions><speed>0.000000</speed><course>53.307610</course><hAcc>0.912585</hAcc><vAcc>0.737765</vAcc></extensions></trkpt>
      <trkpt lon="-3.155599" lat="53.000659"><ele>422.413391</ele><time>2021-09-01T11:57:15Z</time><extensions><speed>0.000000</speed><course>-1.000000</course><hAcc>0.911567</hAcc><vAcc>0.736532</vAcc></extensions></trkpt>
      <trkpt lon="-3.155599" lat="53.000659"><ele>422.413391</ele><time>2021-09-01T11:57:16Z</time><extensions><speed>0.000000</speed><course>-1.000000</course><hAcc>0.911336</hAcc><vAcc>0.736630</vAcc></extensions></trkpt>
      <trkpt lon="-3.155599" lat="53.000659"><ele>422.413391</ele><time>2021-09-01T11:57:17Z</time><extensions><speed>0.000000</speed><course>-1.000000</course><hAcc>0.913595</hAcc><vAcc>0.739843</vAcc></extensions></trkpt>
      <trkpt lon="-3.155599" lat="53.000659"><ele>422.413391</ele><time>2021-09-01T11:57:18Z</time><extensions><speed>0.000000</speed><course>120.394302</course><hAcc>0.921393</hAcc><vAcc>0.748936</vAcc></extensions></trkpt>
      <trkpt lon="-3.155599" lat="53.000659"><ele>422.413391</ele><time>2021-09-01T11:57:19Z</time><extensions><speed>0.000000</speed><course>-1.000000</course><hAcc>0.939535</hAcc><vAcc>0.767798</vAcc></extensions></trkpt>
      <trkpt lon="-3.155599" lat="53.000659"><ele>422.413391</ele><time>2021-09-01T11:57:20Z</time><extensions><speed>0.000000</speed><course>-1.000000</course><hAcc>0.974707</hAcc><vAcc>0.801295</vAcc></extensions></trkpt>
      <trkpt lon="-3.155599" lat="53.000659"><ele>422.413391</ele><time>2021-09-01T11:57:21Z</time><extensions><speed>0.000000</speed><course>-1.000000</course><hAcc>0.936802</hAcc><vAcc>0.766387</vAcc></extensions></trkpt>
      <trkpt lon="-3.155599" lat="53.000659"><ele>422.413391</ele><time>2021-09-01T11:57:22Z</time><extensions><speed>0.000000</speed><course>-1.000000</course><hAcc>0.917758</hAcc><vAcc>0.745995</vAcc></extensions></trkpt>
      <trkpt lon="-3.155599" lat="53.000659"><ele>422.413391</ele><time>2021-09-01T11:57:23Z</time><extensions><speed>0.000000</speed><course>-1.000000</course><hAcc>0.910244</hAcc><vAcc>0.736416</vAcc></extensions></trkpt>
      <trkpt lon="-3.155599" lat="53.000659"><ele>422.413391</ele><time>2021-09-01T11:57:24Z</time><extensions><speed>0.000000</speed><course>-1.000000</course><hAcc>0.908774</hAcc><vAcc>0.733324</vAcc></extensions></trkpt>
      <trkpt lon="-3.155599" lat="53.000659"><ele>422.413391</ele><time>2021-09-01T11:57:25Z</time><extensions><speed>0.000000</speed><course>-1.000000</course><hAcc>0.909870</hAcc><vAcc>0.733621</vAcc></extensions></trkpt>
      <trkpt lon="-3.155599" lat="53.000659"><ele>422.413391</ele><time>2021-09-01T11:57:26Z</time><extensions><speed>0.000000</speed><course>-1.000000</course><hAcc>0.911601</hAcc><vAcc>0.735321</vAcc></extensions></trkpt>
      <trkpt lon="-3.155599" lat="53.000659"><ele>422.413391</ele><time>2021-09-01T11:57:27Z</time><extensions><speed>0.000000</speed><course>-1.000000</course><hAcc>0.913080</hAcc><vAcc>0.737275</vAcc></extensions></trkpt>
      <trkpt lon="-3.155599" lat="53.000659"><ele>422.413391</ele><time>2021-09-01T11:57:28Z</time><extensions><speed>0.000000</speed><course>-1.000000</course><hAcc>0.914033</hAcc><vAcc>0.738908</vAcc></extensions></trkpt>
      <trkpt lon="-3.155599" lat="53.000659"><ele>422.413391</ele><time>2021-09-01T11:57:29Z</time><extensions><speed>0.000000</speed><course>-1.000000</course><hAcc>0.914492</hAcc><vAcc>0.739979</vAcc></extensions></trkpt>
      <trkpt lon="-3.155599" lat="53.000659"><ele>422.413391</ele><time>2021-09-01T11:57:30Z</time><extensions><speed>0.000000</speed><course>184.559082</course><hAcc>0.914595</hAcc><vAcc>0.740423</vAcc></extensions></trkpt>
      <trkpt lon="-3.155599" lat="53.000659"><ele>422.413391</ele><time>2021-09-01T11:57:31Z</time><extensions><speed>0.000000</speed><course>-1.000000</course><hAcc>0.914456</hAcc><vAcc>0.740240</vAcc></extensions></trkpt>
      <trkpt lon="-3.155599" lat="53.000659"><ele>422.413391</ele><time>2021-09-01T11:57:32Z</time><extensions><speed>0.000000</speed><course>-1.000000</course><hAcc>0.914113</hAcc><vAcc>0.739444</vAcc></extensions></trkpt>
      <trkpt lon="-3.155599" lat="53.000659"><ele>422.413391</ele><time>2021-09-01T11:57:33Z</time><extensions><speed>0.000000</speed><course>-1.000000</course><hAcc>0.913520</hAcc><vAcc>0.738055</vAcc></extensions></trkpt>
      <trkpt lon="-3.155599" lat="53.000659"><ele>422.413391</ele><time>2021-09-01T11:57:34Z</time><extensions><speed>0.000000</speed><course>-1.000000</course><hAcc>0.912600</hAcc><vAcc>0.736145</vAcc></extensions></trkpt>
      <trkpt lon="-3.155599" lat="53.000659"><ele>422.413391</ele><time>2021-09-01T11:57:35Z</time><extensions><speed>0.000000</speed><course>53.307610</course><hAcc>0.911352</hAcc><vAcc>0.733919</vAcc></extensions></trkpt>
      <trkpt lon="-3.155599" lat="53.000659"><ele>422.413391</ele><time>2021-09-01T11:57:36Z</time><extensions><speed>0.000000</speed><course>-1.000000</course><hAcc>0.910032</hAcc><vAcc>0.731868</vAcc></extensions></trkpt>
      <trkpt lon="-3.155599" lat="53.000659"><ele>422.413391</ele><time>2021-09-01T11:57:37Z</time><extensions><speed>0.000000</speed><course>-1.000000</course><hAcc>0.909427</hAcc><vAcc>0.730974</vAcc></extensions></trkpt>
      <trkpt lon="-3.155599" lat="53.000659"><ele>422.413391</ele><time>2021-09-01T11:57:38Z</time><extensions><speed>0.000000</speed><course>-1.000000</course><hAcc>0.911226</hAcc><vAcc>0.732973</vAcc></extensions></trkpt>
      <trkpt lon="-3.155599" lat="53.000659"><ele>422.413391</ele><time>2021-09-01T11:57:39Z</time><extensions><speed>0.000000</speed><course>120.394302</course><hAcc>0.918473</hAcc><vAcc>0.740612</vAcc></extensions></trkpt>
      <trkpt lon="-3.155599" lat="53.000659"><ele>422.413391</ele><time>2021-09-01T11:57:40Z</time><extensions><speed>0.000000</speed><course>-1.000000</course><hAcc>0.935987</hAcc><vAcc>0.757806</vAcc></extensions></trkpt>
      <trkpt lon="-3.155599" lat="53.000659"><ele>422.413391</ele><time>2021-09-01T11:57:41Z</time><extensions><speed>0.000000</speed><course>-1.000000</course><hAcc>0.970500</hAcc><vAcc>0.789510</vAcc></extensions></trkpt>
      <trkpt lon="-3.155599" lat="53.000659"><ele>422.413391</ele><time>2021-09-01T11:57:41Z</time><extensions><speed>0.000000</speed><course>-1.000000</course><hAcc>0.933482</hAcc><vAcc>0.756640</vAcc></extensions></trkpt>
      <trkpt lon="-3.155599" lat="53.000659"><ele>422.413391</ele><time>2021-09-01T11:57:42Z</time><extensions><speed>0.000000</speed><course>-1.000000</course><hAcc>0.914671</hAcc><vAcc>0.736650</vAcc></extensions></trkpt>
      <trkpt lon="-3.155599" lat="53.000659"><ele>422.413391</ele><time>2021-09-01T11:57:43Z</time><extensions><speed>0.000000</speed><course>-1.000000</course><hAcc>0.907393</hAcc><vAcc>0.727554</vAcc></extensions></trkpt>
      <trkpt lon="-3.155599" lat="53.000659"><ele>422.413391</ele><time>2021-09-01T11:57:44Z</time><extensions><speed>0.000000</speed><course>-1.000000</course><hAcc>0.906142</hAcc><vAcc>0.724983</vAcc></extensions></trkpt>
      <trkpt lon="-3.155599" lat="53.000659"><ele>422.413391</ele><time>2021-09-01T11:57:45Z</time><extensions><speed>0.000000</speed><course>-1.000000</course><hAcc>0.907431</hAcc><vAcc>0.725818</vAcc></extensions></trkpt>
      <trkpt lon="-3.155599" lat="53.000659"><ele>422.413391</ele><time>2021-09-01T11:57:46Z</time><extensions><speed>0.000000</speed><course>-1.000000</course><hAcc>0.909336</hAcc><vAcc>0.728059</vAcc></extensions></trkpt>
      <trkpt lon="-3.155599" lat="53.000659"><ele>422.413391</ele><time>2021-09-01T11:57:47Z</time><extensions><speed>0.000000</speed><course>-1.000000</course><hAcc>0.910974</hAcc><vAcc>0.730558</vAcc></extensions></trkpt>
      <trkpt lon="-3.155599" lat="53.000659"><ele>422.413391</ele><time>2021-09-01T11:57:48Z</time><extensions><speed>0.000000</speed><course>-1.000000</course><hAcc>0.912081</hAcc><vAcc>0.732735</vAcc></extensions></trkpt>
      <trkpt lon="-3.155599" lat="53.000659"><ele>422.413391</ele><time>2021-09-01T11:57:49Z</time><extensions><speed>0.000000</speed><course>-1.000000</course><hAcc>0.912698</hAcc><vAcc>0.734354</vAcc></extensions></trkpt>
      <trkpt lon="-3.155599" lat="53.000659"><ele>422.413391</ele><time>2021-09-01T11:57:50Z</time><extensions><speed>0.000000</speed><course>184.559082</course><hAcc>0.912969</hAcc><vAcc>0.735361</vAcc></extensions></trkpt>
      <trkpt lon="-3.155599" lat="53.000659"><ele>422.413391</ele><time>2021-09-01T11:57:51Z</time><extensions><speed>0.000000</speed><course>-1.000000</course><hAcc>0.913016</hAcc><vAcc>0.735772</vAcc></extensions></trkpt>
      <trkpt lon="-3.155599" lat="53.000659"><ele>422.413391</ele><time>2021-09-01T11:57:52Z</time><extensions><speed>0.000000</speed><course>-1.000000</course><hAcc>0.912881</hAcc><vAcc>0.735618</vAcc></extensions></trkpt>
      <trkpt lon="-3.155599" lat="53.000659"><ele>422.413391</ele><time>2021-09-01T11:57:53Z</time><extensions><speed>0.000000</speed><course>-1.000000</course><hAcc>0.912528</hAcc><vAcc>0.734942</vAcc></extensions></trkpt>
      <trkpt lon="-3.155599" lat="53.000659"><ele>422.413391</ele><time>2021-09-01T11:57:54Z</time><extensions><speed>0.000000</speed><course>-1.000000</course><hAcc>0.911888</hAcc><vAcc>0.733839</vAcc></extensions></trkpt>
      <trkpt lon="-3.155599" lat="53.000659"><ele>422.413391</ele><time>2021-09-01T11:57:55Z</time><extensions><speed>0.000000</speed><course>53.307610</course><hAcc>0.910969</hAcc><vAcc>0.732549</vAcc></extensions></trkpt>
      <trkpt lon="-3.155599" lat="53.000659"><ele>422.413391</ele><time>2021-09-01T11:57:56Z</time><extensions><speed>0.000000</speed><course>-1.000000</course><hAcc>0.910042</hAcc><vAcc>0.731608</vAcc></extensions></trkpt>
      <trkpt lon="-3.155599" lat="53.000659"><ele>422.413391</ele><time>2021-09-01T11:57:57Z</time><extensions><speed>0.000000</speed><course>-1.000000</course><hAcc>0.909905</hAcc><vAcc>0.732046</vAcc></extensions></trkpt>
      <trkpt lon="-3.155599" lat="53.000659"><ele>422.413391</ele><time>2021-09-01T11:57:58Z</time><extensions><speed>0.000000</speed><course>-1.000000</course><hAcc>0.912261</hAcc><vAcc>0.735636</vAcc></extensions></trkpt>
      <trkpt lon="-3.155599" lat="53.000659"><ele>422.413391</ele><time>2021-09-01T11:57:59Z</time><extensions><speed>0.000000</speed><course>120.394302</course><hAcc>0.920155</hAcc><vAcc>0.745131</vAcc></extensions></trkpt>
      <trkpt lon="-3.155599" lat="53.000659"><ele>422.413391</ele><time>2021-09-01T11:58:00Z</time><extensions><speed>0.000000</speed><course>-1.000000</course><hAcc>0.938395</hAcc><vAcc>0.764404</vAcc></extensions></trkpt>
      <trkpt lon="-3.155599" lat="53.000659"><ele>422.413391</ele><time>2021-09-01T11:58:01Z</time><extensions><speed>0.000000</speed><course>-1.000000</course><hAcc>0.973665</hAcc><vAcc>0.798309</vAcc></extensions></trkpt>
      <trkpt lon="-3.155599" lat="53.000660"><ele>422.427490</ele><time>2021-09-01T11:58:02Z</time><extensions><speed>0.022090</speed><course>-1.000000</course><hAcc>0.934960</hAcc><vAcc>0.761996</vAcc></extensions></trkpt>
      <trkpt lon="-3.155599" lat="53.000660"><ele>422.433197</ele><time>2021-09-01T11:58:03Z</time><extensions><speed>0.024121</speed><course>-1.000000</course><hAcc>0.915698</hAcc><vAcc>0.741495</vAcc></extensions></trkpt>
      <trkpt lon="-3.155599" lat="53.000660"><ele>422.438873</ele><time>2021-09-01T11:58:04Z</time><extensions><speed>0.026551</speed><course>-1.000000</course><hAcc>0.907741</hAcc><vAcc>0.731413</vAcc></extensions></trkpt>
      <trkpt lon="-3.155599" lat="53.000660"><ele>422.444489</ele><time>2021-09-01T11:58:05Z</time><extensions><speed>0.029310</speed><course>-1.000000</course><hAcc>0.905584</hAcc><vAcc>0.727437</vAcc></extensions></trkpt>
      <trkpt lon="-3.155599" lat="53.000661"><ele>422.449951</ele><time>2021-09-01T11:58:06Z</time><extensions><speed>0.032294</speed><course>-1.000000</course><hAcc>0.905735</hAcc><vAcc>0.726516</vAcc></extensions></trkpt>
      <trkpt lon="-3.155599" lat="53.000661"><ele>422.455139</ele><time>2021-09-01T11:58:07Z</time><extensions><speed>0.035356</speed><course>-1.000000</course><hAcc>0.906260</hAcc><vAcc>0.726739</vAcc></extensions></trkpt>
      <trkpt lon="-3.155599" lat="53.000661"><ele>422.459961</ele><time>2021-09-01T11:58:08Z</time><extensions><speed>0.038306</speed><course>-1.000000</course><hAcc>0.906280</hAcc><vAcc>0.727065</vAcc></extensions></trkpt>
      <trkpt lon="-3.155599" lat="53.000662"><ele>422.464233</ele><time>2021-09-01T11:58:09Z</time><extensions><speed>0.040898</speed><course>-1.000000</course><hAcc>0.905550</hAcc><vAcc>0.727047</vAcc></extensions></trkpt>
      <trkpt lon="-3.155600" lat="53.000662"><ele>422.467804</ele><time>2021-09-01T11:58:10Z</time><extensions><speed>0.042832</speed><course>-1.000000</course><hAcc>0.904169</hAcc><vAcc>0.726604</vAcc></extensions></trkpt>
      <trkpt lon="-3.155600" lat="53.000662"><ele>422.470428</ele><time>2021-09-01T11:58:11Z</time><extensions><speed>0.043748</speed><course>184.559082</course><hAcc>0.902384</hAcc><vAcc>0.725847</vAcc></extensions></trkpt>
      <trkpt lon="-3.155600" lat="53.000663"><ele>422.471893</ele><time>2021-09-01T11:58:12Z</time><extensions><speed>0.043224</speed><course>-1.000000</course><hAcc>0.900473</hAcc><vAcc>0.724968</vAcc></extensions></trkpt>
      <trkpt lon="-3.155600" lat="53.000663"><ele>422.471924</ele><time>2021-09-01T11:58:13Z</time><extensions><speed>0.040773</speed><course>-1.000000</course><hAcc>0.898686</hAcc><vAcc>0.724169</vAcc></extensions></trkpt>
      <trkpt lon="-3.155600" lat="53.000663"><ele>422.470215</ele><time>2021-09-01T11:58:14Z</time><extensions><speed>0.035853</speed><course>-1.000000</course><hAcc>0.897220</hAcc><vAcc>0.723619</vAcc></extensions></trkpt>
      <trkpt lon="-3.155600" lat="53.000664"><ele>422.466522</ele><time>2021-09-01T11:58:15Z</time><extensions><speed>0.027866</speed><course>-1.000000</course><hAcc>0.896209</hAcc><vAcc>0.723436</vAcc></extensions></trkpt>
      <trkpt lon="-3.155600" lat="53.000664"><ele>422.460510</ele><time>2021-09-01T11:58:16Z</time><extensions><speed>0.016189</speed><course>53.307610</course><hAcc>0.895736</hAcc><vAcc>0.723686</vAcc></extensions></trkpt>
      <trkpt lon="-3.155600" lat="53.000664"><ele>422.451935</ele><time>2021-09-01T11:58:17Z</time><extensions><speed>0.001983</speed><course>-1.000000</course><hAcc>0.895833</hAcc><vAcc>0.724379</vAcc></extensions></trkpt>
      <trkpt lon="-3.155600" lat="53.000664"><ele>422.440521</ele><time>2021-09-01T11:58:18Z</time><extensions><speed>0.021427</speed><course>-1.000000</course><hAcc>0.896496</hAcc><vAcc>0.725478</vAcc></extensions></trkpt>
      <trkpt lon="-3.155600" lat="53.000664"><ele>422.426086</ele><time>2021-09-01T11:58:19Z</time><extensions><speed>0.048454</speed><course>-1.000000</course><hAcc>0.897680</hAcc><vAcc>0.726907</vAcc></extensions></trkpt>
      <trkpt lon="-3.155600" lat="53.000663"><ele>422.408447</ele><time>2021-09-01T11:58:20Z</time><extensions><speed>0.082005</speed><course>120.394302</course><hAcc>0.899299</hAcc><vAcc>0.728550</vAcc></extensions></trkpt>
      <trkpt lon="-3.155600" lat="53.000662"><ele>422.387512</ele><time>2021-09-01T11:58:21Z</time><extensions><speed>0.122653</speed><course>-1.000000</course><hAcc>0.901226</hAcc><vAcc>0.730260</vAcc></extensions></trkpt>
      <trkpt lon="-3.155600" lat="53.000661"><ele>422.363251</ele><time>2021-09-01T11:58:22Z</time><extensions><speed>0.170879</speed><course>-1.000000</course><hAcc>0.903282</hAcc><vAcc>0.731865</vAcc></extensions></trkpt>
      <trkpt lon="-3.155600" lat="53.000659"><ele>422.335693</ele><time>2021-09-01T11:58:23Z</time><extensions><speed>0.226993</speed><course>-1.000000</course><hAcc>0.905249</hAcc><vAcc>0.733178</vAcc></extensions></trkpt>
      <trkpt lon="-3.155599" lat="53.000657"><ele>422.305054</ele><time>2021-09-01T11:58:24Z</time><extensions><speed>0.291068</speed><course>-1.000000</course><hAcc>0.906886</hAcc><vAcc>0.734037</vAcc></extensions></trkpt>
      <trkpt lon="-3.155599" lat="53.000654"><ele>422.271545</ele><time>2021-09-01T11:58:25Z</time><extensions><speed>0.362861</speed><course>-1.000000</course><hAcc>0.907986</hAcc><vAcc>0.734352</vAcc></extensions></trkpt>
      <trkpt lon="-3.155599" lat="53.000650"><ele>422.235474</ele><time>2021-09-01T11:58:26Z</time><extensions><speed>0.441716</speed><course>-1.000000</course><hAcc>0.908467</hAcc><vAcc>0.734203</vAcc></extensions></trkpt>
      <trkpt lon="-3.155599" lat="53.000646"><ele>422.197235</ele><time>2021-09-01T11:58:27Z</time><extensions><speed>0.526464</speed><course>-1.000000</course><hAcc>0.908547</hAcc><vAcc>0.733964</vAcc></extensions></trkpt>
      <trkpt lon="-3.155598" lat="53.000641"><ele>422.157288</ele><time>2021-09-01T11:58:28Z</time><extensions><speed>0.615313</speed><course>-1.000000</course><hAcc>0.908991</hAcc><vAcc>0.734496</vAcc></extensions></trkpt>
      <trkpt lon="-3.155598" lat="53.000635"><ele>422.116028</ele><time>2021-09-01T11:58:29Z</time><extensions><speed>0.705740</speed><course>-1.000000</course><hAcc>0.911480</hAcc><vAcc>0.737386</vAcc></extensions></trkpt>
      <trkpt lon="-3.155597" lat="53.000628"><ele>422.073914</ele><time>2021-09-01T11:58:30Z</time><extensions><speed>0.794371</speed><course>-1.000000</course><hAcc>0.919049</hAcc><vAcc>0.745210</vAcc></extensions></trkpt>
      <trkpt lon="-3.155596" lat="53.000620"><ele>422.031189</ele><time>2021-09-01T11:58:31Z</time><extensions><speed>0.876849</speed><course>-1.000000</course><hAcc>0.936512</hAcc><vAcc>0.761718</vAcc></extensions></trkpt>
      <trkpt lon="-3.155595" lat="53.000612"><ele>421.987976</ele><time>2021-09-01T11:58:32Z</time><extensions><speed>0.947713</speed><course>-1.000000</course><hAcc>0.970613</hAcc><vAcc>0.791767</vAcc></extensions></trkpt>
      <trkpt lon="-3.155593" lat="53.000602"><ele>421.745789</ele><time>2021-09-01T11:58:33Z</time><extensions><speed>1.451733</speed><course>-1.000000</course><hAcc>0.932343</hAcc><vAcc>0.755037</vAcc></extensions></trkpt>
      <trkpt lon="-3.155591" lat="53.000589"><ele>421.569000</ele><time>2021-09-01T11:58:34Z</time><extensions><speed>1.431959</speed><course>-1.000000</course><hAcc>0.911080</hAcc><vAcc>0.728089</vAcc></extensions></trkpt>
      <trkpt lon="-3.155589" lat="53.000577"><ele>421.390106</ele><time>2021-09-01T11:58:35Z</time><extensions><speed>1.405911</speed><course>-1.000000</course><hAcc>0.901085</hAcc><vAcc>0.711052</vAcc></extensions></trkpt>
      <trkpt lon="-3.155587" lat="53.000564"><ele>421.209991</ele><time>2021-09-01T11:58:36Z</time><extensions><speed>1.376852</speed><course>-1.000000</course><hAcc>0.896929</hAcc><vAcc>0.699763</vAcc></extensions></trkpt>
      <trkpt lon="-3.155585" lat="53.000552"><ele>421.029602</ele><time>2021-09-01T11:58:37Z</time><extensions><speed>1.347636</speed><course>-1.000000</course><hAcc>0.895185</hAcc><vAcc>0.691267</vAcc></extensions></trkpt>
      <trkpt lon="-3.155583" lat="53.000540"><ele>420.850128</ele><time>2021-09-01T11:58:38Z</time><extensions><speed>1.320276</speed><course>-1.000000</course><hAcc>0.893988</hAcc><vAcc>0.683709</vAcc></extensions></trkpt>
      <trkpt lon="-3.155581" lat="53.000528"><ele>420.673462</ele><time>2021-09-01T11:58:39Z</time><extensions><speed>1.295431</speed><course>-1.000000</course><hAcc>0.892530</hAcc><vAcc>0.676097</vAcc></extensions></trkpt>
      <trkpt lon="-3.155579" lat="53.000517"><ele>420.501556</ele><time>2021-09-01T11:58:40Z</time><extensions><speed>1.273160</speed><course>-1.000000</course><hAcc>0.890645</hAcc><vAcc>0.668042</vAcc></extensions></trkpt>
      <trkpt lon="-3.155578" lat="53.000506"><ele>420.336060</ele><time>2021-09-01T11:58:41Z</time><extensions><speed>1.253175</speed><course>-1.000000</course><hAcc>0.888488</hAcc><vAcc>0.659550</vAcc></extensions></trkpt>
      <trkpt lon="-3.155576" lat="53.000494"><ele>420.177887</ele><time>2021-09-01T11:58:42Z</time><extensions><speed>1.234703</speed><course>184.559082</course><hAcc>0.886326</hAcc><vAcc>0.650855</vAcc></extensions></trkpt>
      <trkpt lon="-3.155575" lat="53.000483"><ele>420.027222</ele><time>2021-09-01T11:58:43Z</time><extensions><speed>1.216771</speed><course>-1.000000</course><hAcc>0.884394</hAcc><vAcc>0.642296</vAcc></extensions></trkpt>
      <trkpt lon="-3.155573" lat="53.000473"><ele>419.883392</ele><time>2021-09-01T11:58:44Z</time><extensions><speed>1.198959</speed><course>-1.000000</course><hAcc>0.882822</hAcc><vAcc>0.634215</vAcc></extensions></trkpt>
      <trkpt lon="-3.155572" lat="53.000462"><ele>419.745544</ele><time>2021-09-01T11:58:45Z</time><extensions><speed>1.181275</speed><course>-1.000000</course><hAcc>0.881639</hAcc><vAcc>0.626907</vAcc></extensions></trkpt>
      <trkpt lon="-3.155570" lat="53.000451"><ele>419.613129</ele><time>2021-09-01T11:58:46Z</time><extensions><speed>1.163947</speed><course>-1.000000</course><hAcc>0.880806</hAcc><vAcc>0.620581</vAcc></extensions></trkpt>
      <trkpt lon="-3.155569" lat="53.000441"><ele>419.486389</ele><time>2021-09-01T11:58:47Z</time><extensions><speed>1.147845</speed><course>53.307610</course><hAcc>0.880268</hAcc><vAcc>0.615327</vAcc></extensions></trkpt>
      <trkpt lon="-3.155567" lat="53.000431"><ele>419.365601</ele><time>2021-09-01T11:58:48Z</time><extensions><speed>1.134364</speed><course>-1.000000</course><hAcc>0.880007</hAcc><vAcc>0.611121</vAcc></extensions></trkpt>
      <trkpt lon="-3.155565" lat="53.000421"><ele>419.250854</ele><time>2021-09-01T11:58:49Z</time><extensions><speed>1.124355</speed><course>-1.000000</course><hAcc>0.880078</hAcc><vAcc>0.607850</vAcc></extensions></trkpt>
      <trkpt lon="-3.155563" lat="53.000411"><ele>419.142242</ele><time>2021-09-01T11:58:50Z</time><extensions><speed>1.117706</speed><course>-1.000000</course><hAcc>0.880601</hAcc><vAcc>0.605347</vAcc></extensions></trkpt>
      <trkpt lon="-3.155561" lat="53.000401"><ele>419.039764</ele><time>2021-09-01T11:58:51Z</time><extensions><speed>1.113915</speed><course>120.394302</course><hAcc>0.881727</hAcc><vAcc>0.603422</vAcc></extensions></trkpt>
      <trkpt lon="-3.155559" lat="53.000391"><ele>418.943085</ele><time>2021-09-01T11:58:52Z</time><extensions><speed>1.112181</speed><course>-1.000000</course><hAcc>0.883583</hAcc><vAcc>0.601877</vAcc></extensions></trkpt>
      <trkpt lon="-3.155557" lat="53.000381"><ele>418.851227</ele><time>2021-09-01T11:58:53Z</time><extensions><speed>1.111883</speed><course>-1.000000</course><hAcc>0.886244</hAcc><vAcc>0.600534</vAcc></extensions></trkpt>
      <trkpt lon="-3.155554" lat="53.000371"><ele>418.762512</ele><time>2021-09-01T11:58:54Z</time><extensions><speed>1.112636</speed><course>-1.000000</course><hAcc>0.889693</hAcc><vAcc>0.599270</vAcc></extensions></trkpt>
      <trkpt lon="-3.155550" lat="53.000361"><ele>418.675079</ele><time>2021-09-01T11:58:55Z</time><extensions><speed>1.114311</speed><course>-1.000000</course><hAcc>0.893791</hAcc><vAcc>0.598017</vAcc></extensions></trkpt>
      <trkpt lon="-3.155547" lat="53.000352"><ele>418.587677</ele><time>2021-09-01T11:58:56Z</time><extensions><speed>1.117403</speed><course>-1.000000</course><hAcc>0.898280</hAcc><vAcc>0.596731</vAcc></extensions></trkpt>
      <trkpt lon="-3.155542" lat="53.000342"><ele>418.499695</ele><time>2021-09-01T11:58:57Z</time><extensions><speed>1.122478</speed><course>-1.000000</course><hAcc>0.902826</hAcc><vAcc>0.595385</vAcc></extensions></trkpt>
      <trkpt lon="-3.155537" lat="53.000332"><ele>418.410217</ele><time>2021-09-01T11:58:58Z</time><extensions><speed>1.129978</speed><course>-1.000000</course><hAcc>0.907110</hAcc><vAcc>0.593965</vAcc></extensions></trkpt>
      <trkpt lon="-3.155532" lat="53.000323"><ele>418.317749</ele><time>2021-09-01T11:58:59Z</time><extensions><speed>1.140071</speed><course>-1.000000</course><hAcc>0.910903</hAcc><vAcc>0.592478</vAcc></extensions></trkpt>
      <trkpt lon="-3.155526" lat="53.000313"><ele>418.221344</ele><time>2021-09-01T11:59:00Z</time><extensions><speed>1.152139</speed><course>-1.000000</course><hAcc>0.914111</hAcc><vAcc>0.590957</vAcc></extensions></trkpt>
      <trkpt lon="-3.155519" lat="53.000303"><ele>418.121765</ele><time>2021-09-01T11:59:01Z</time><extensions><speed>1.165062</speed><course>-1.000000</course><hAcc>0.916771</hAcc><vAcc>0.589444</vAcc></extensions></trkpt>
      <trkpt lon="-3.155513" lat="53.000294"><ele>418.020599</ele><time>2021-09-01T11:59:02Z</time><extensions><speed>1.177948</speed><course>-1.000000</course><hAcc>0.919024</hAcc><vAcc>0.587989</vAcc></extensions></trkpt>
      <trkpt lon="-3.155505" lat="53.000284"><ele>417.917389</ele><time>2021-09-01T11:59:03Z</time><extensions><speed>1.190366</speed><course>-1.000000</course><hAcc>0.921075</hAcc><vAcc>0.586646</vAcc></extensions></trkpt>
      <trkpt lon="-3.155498" lat="53.000274"><ele>417.809784</ele><time>2021-09-01T11:59:04Z</time><extensions><speed>1.201717</speed><course>-1.000000</course><hAcc>0.923152</hAcc><vAcc>0.585487</vAcc></extensions></trkpt>
      <trkpt lon="-3.155490" lat="53.000264"><ele>417.695160</ele><time>2021-09-01T11:59:05Z</time><extensions><speed>1.211006</speed><course>-1.000000</course><hAcc>0.925462</hAcc><vAcc>0.584606</vAcc></extensions></trkpt>
      <trkpt lon="-3.155482" lat="53.000255"><ele>417.572144</ele><time>2021-09-01T11:59:06Z</time><extensions><speed>1.217272</speed><course>-1.000000</course><hAcc>0.928161</hAcc><vAcc>0.584112</vAcc></extensions></trkpt>
      <trkpt lon="-3.155475" lat="53.000245"><ele>417.440216</ele><time>2021-09-01T11:59:07Z</time><extensions><speed>1.219863</speed><course>-1.000000</course><hAcc>0.931337</hAcc><vAcc>0.584107</vAcc></extensions></trkpt>
      <trkpt lon="-3.155467" lat="53.000235"><ele>417.299255</ele><time>2021-09-01T11:59:08Z</time><extensions><speed>1.218951</speed><course>-1.000000</course><hAcc>0.935002</hAcc><vAcc>0.584653</vAcc></extensions></trkpt>
      <trkpt lon="-3.155459" lat="53.000225"><ele>417.149323</ele><time>2021-09-01T11:59:09Z</time><extensions><speed>1.215352</speed><course>-1.000000</course><hAcc>0.939093</hAcc><vAcc>0.585762</vAcc></extensions></trkpt>
      <trkpt lon="-3.155451" lat="53.000215"><ele>416.990997</ele><time>2021-09-01T11:59:10Z</time><extensions><speed>1.209458</speed><course>-1.000000</course><hAcc>0.943477</hAcc><vAcc>0.587402</vAcc></extensions></trkpt>
      <trkpt lon="-3.155443" lat="53.000205"><ele>416.825958</ele><time>2021-09-01T11:59:11Z</time><extensions><speed>1.201954</speed><course>116.725777</course><hAcc>0.947997</hAcc><vAcc>0.589535</vAcc></extensions></trkpt>
      <trkpt lon="-3.155436" lat="53.000196"><ele>416.656189</ele><time>2021-09-01T11:59:12Z</time><extensions><speed>1.194464</speed><course>116.725777</course><hAcc>0.952481</hAcc><vAcc>0.592131</vAcc></extensions></trkpt>
      <trkpt lon="-3.155428" lat="53.000186"><ele>416.482269</ele><time>2021-09-01T11:59:13Z</time><extensions><speed>1.188608</speed><course>116.725777</course><hAcc>0.956728</hAcc><vAcc>0.595162</vAcc></extensions></trkpt>
      <trkpt lon="-3.155421" lat="53.000176"><ele>416.303864</ele><time>2021-09-01T11:59:14Z</time><extensions><speed>1.185447</speed><course>116.725777</course><hAcc>0.960486</hAcc><vAcc>0.598606</vAcc></extensions></trkpt>
      <trkpt lon="-3.155414" lat="53.000166"><ele>416.120483</ele><time>2021-09-01T11:59:15Z</time><extensions><speed>1.185704</speed><course>116.725777</course><hAcc>0.963442</hAcc><vAcc>0.602435</vAcc></extensions></trkpt>
      <trkpt lon="-3.155406" lat="53.000157"><ele>415.932068</ele><time>2021-09-01T11:59:16Z</time><extensions><speed>1.189557</speed><course>116.725784</course><hAcc>0.965211</hAcc><vAcc>0.606591</vAcc></extensions></trkpt>
      <trkpt lon="-3.155399" lat="53.000147"><ele>415.739105</ele><time>2021-09-01T11:59:17Z</time><extensions><speed>1.196510</speed><course>116.725784</course><hAcc>0.965353</hAcc><vAcc>0.610971</vAcc></extensions></trkpt>
      <trkpt lon="-3.155391" lat="53.000137"><ele>415.542419</ele><time>2021-09-01T11:59:18Z</time><extensions><speed>1.205363</speed><course>116.725784</course><hAcc>0.963445</hAcc><vAcc>0.615462</vAcc></extensions></trkpt>
      <trkpt lon="-3.155384" lat="53.000127"><ele>415.342621</ele><time>2021-09-01T11:59:19Z</time><extensions><speed>1.214398</speed><course>116.725784</course><hAcc>0.959198</hAcc><vAcc>0.620001</vAcc></extensions></trkpt>
      <trkpt lon="-3.155376" lat="53.000117"><ele>415.139862</ele><time>2021-09-01T11:59:20Z</time><extensions><speed>1.221599</speed><course>116.725784</course><hAcc>0.952565</hAcc><vAcc>0.624638</vAcc></extensions></trkpt>
      <trkpt lon="-3.155369" lat="53.000107"><ele>414.933746</ele><time>2021-09-01T11:59:21Z</time><extensions><speed>1.225096</speed><course>116.725784</course><hAcc>0.943818</hAcc><vAcc>0.629547</vAcc></extensions></trkpt>
      <trkpt lon="-3.155361" lat="53.000097"><ele>414.723969</ele><time>2021-09-01T11:59:22Z</time><extensions><speed>1.224338</speed><course>116.725784</course><hAcc>0.933568</hAcc><vAcc>0.634977</vAcc></extensions></trkpt>
      <trkpt lon="-3.155353" lat="53.000087"><ele>414.510559</ele><time>2021-09-01T11:59:23Z</time><extensions><speed>1.220221</speed><course>116.725784</course><hAcc>0.922722</hAcc><vAcc>0.641157</vAcc></extensions></trkpt>
      <trkpt lon="-3.155346" lat="53.000078"><ele>414.294403</ele><time>2021-09-01T11:59:24Z</time><extensions><speed>1.214248</speed><course>116.725784</course><hAcc>0.912305</hAcc><vAcc>0.648121</vAcc></extensions></trkpt>
      <trkpt lon="-3.155338" lat="53.000068"><ele>414.077393</ele><time>2021-09-01T11:59:25Z</time><extensions><speed>1.207829</speed><course>116.725784</course><hAcc>0.903171</hAcc><vAcc>0.655610</vAcc></extensions></trkpt>
      <trkpt lon="-3.155330" lat="53.000058"><ele>413.861877</ele><time>2021-09-01T11:59:26Z</time><extensions><speed>1.201506</speed><course>116.725784</course><hAcc>0.895797</hAcc><vAcc>0.663201</vAcc></extensions></trkpt>
      <trkpt lon="-3.155321" lat="53.000049"><ele>413.649628</ele><time>2021-09-01T11:59:27Z</time><extensions><speed>1.195489</speed><course>116.725784</course><hAcc>0.890297</hAcc><vAcc>0.670480</vAcc></extensions></trkpt>
      <trkpt lon="-3.155313" lat="53.000039"><ele>413.441925</ele><time>2021-09-01T11:59:28Z</time><extensions><speed>1.190305</speed><course>116.725784</course><hAcc>0.886530</hAcc><vAcc>0.677121</vAcc></extensions></trkpt>
      <trkpt lon="-3.155304" lat="53.000030"><ele>413.239594</ele><time>2021-09-01T11:59:29Z</time><extensions><speed>1.186233</speed><course>116.725784</course><hAcc>0.884207</hAcc><vAcc>0.682912</vAcc></extensions></trkpt>
      <trkpt lon="-3.155295" lat="53.000021"><ele>413.042572</ele><time>2021-09-01T11:59:30Z</time><extensions><speed>1.183109</speed><course>116.725784</course><hAcc>0.882979</hAcc><vAcc>0.687749</vAcc></extensions></trkpt>
      <trkpt lon="-3.155285" lat="53.000012"><ele>412.850342</ele><time>2021-09-01T11:59:31Z</time><extensions><speed>1.180752</speed><course>116.725784</course><hAcc>0.882508</hAcc><vAcc>0.691618</vAcc></extensions></trkpt>
      <trkpt lon="-3.155275" lat="53.000003"><ele>412.662750</ele><time>2021-09-01T11:59:32Z</time><extensions><speed>1.179280</speed><course>116.725784</course><hAcc>0.882505</hAcc><vAcc>0.694578</vAcc></extensions></trkpt>
      <trkpt lon="-3.155265" lat="52.999995"><ele>412.479950</ele><time>2021-09-01T11:59:33Z</time><extensions><speed>1.179143</speed><course>116.725777</course><hAcc>0.882745</hAcc><vAcc>0.696733</vAcc></extensions></trkpt>
      <trkpt lon="-3.155254" lat="52.999986"><ele>412.302643</ele><time>2021-09-01T11:59:34Z</time><extensions><speed>1.180379</speed><course>116.725769</course><hAcc>0.883072</hAcc><vAcc>0.698213</vAcc></extensions></trkpt>
      <trkpt lon="-3.155243" lat="52.999978"><ele>412.131348</ele><time>2021-09-01T11:59:36Z</time><extensions><speed>1.182397</speed><course>116.725769</course><hAcc>0.883371</hAcc><vAcc>0.699141</vAcc></extensions></trkpt>
      <trkpt lon="-3.155232" lat="52.999970"><ele>411.967224</ele><time>2021-09-01T11:59:37Z</time><extensions><speed>1.184972</speed><course>116.725761</course><hAcc>0.883588</hAcc><vAcc>0.699641</vAcc></extensions></trkpt>
      <trkpt lon="-3.155220" lat="52.999962"><ele>411.811035</ele><time>2021-09-01T11:59:38Z</time><extensions><speed>1.187937</speed><course>116.725754</course><hAcc>0.883725</hAcc><vAcc>0.699833</vAcc></extensions></trkpt>
      <trkpt lon="-3.155208" lat="52.999954"><ele>411.663605</ele><time>2021-09-01T11:59:39Z</time><extensions><speed>1.190750</speed><course>116.725746</course><hAcc>0.883782</hAcc><vAcc>0.699802</vAcc></extensions></trkpt>
      <trkpt lon="-3.155195" lat="52.999947"><ele>411.525055</ele><time>2021-09-01T11:59:40Z</time><extensions><speed>1.193031</speed><course>116.725746</course><hAcc>0.883776</hAcc><vAcc>0.699625</vAcc></extensions></trkpt>
      <trkpt lon="-3.155183" lat="52.999939"><ele>411.395233</ele><time>2021-09-01T11:59:41Z</time><extensions><speed>1.194588</speed><course>116.725731</course><hAcc>0.883724</hAcc><vAcc>0.699372</vAcc></extensions></trkpt>
      <trkpt lon="-3.155170" lat="52.999932"><ele>411.273956</ele><time>2021-09-01T11:59:42Z</time><extensions><speed>1.195471</speed><course>116.725723</course><hAcc>0.883648</hAcc><vAcc>0.699103</vAcc></extensions></trkpt>
      <trkpt lon="-3.155157" lat="52.999924"><ele>411.161224</ele><time>2021-09-01T11:59:43Z</time><extensions><speed>1.195717</speed><course>116.725723</course><hAcc>0.883564</hAcc><vAcc>0.698870</vAcc></extensions></trkpt>
      <trkpt lon="-3.155144" lat="52.999917"><ele>411.057343</ele><time>2021-09-01T11:59:44Z</time><extensions><speed>1.195574</speed><course>116.725708</course><hAcc>0.883485</hAcc><vAcc>0.698702</vAcc></extensions></trkpt>
      <trkpt lon="-3.155131" lat="52.999909"><ele>410.962463</ele><time>2021-09-01T11:59:45Z</time><extensions><speed>1.195867</speed><course>116.725700</course><hAcc>0.883418</hAcc><vAcc>0.698608</vAcc></extensions></trkpt>
      <trkpt lon="-3.155118" lat="52.999902"><ele>410.876068</ele><time>2021-09-01T11:59:46Z</time><extensions><speed>1.196846</speed><course>116.725693</course><hAcc>0.883365</hAcc><vAcc>0.698577</vAcc></extensions></trkpt>
      <trkpt lon="-3.155105" lat="52.999895"><ele>410.797211</ele><time>2021-09-01T11:59:47Z</time><extensions><speed>1.198376</speed><course>116.725685</course><hAcc>0.883326</hAcc><vAcc>0.698586</vAcc></extensions></trkpt>
      <trkpt lon="-3.155092" lat="52.999887"><ele>410.724792</ele><time>2021-09-01T11:59:48Z</time><extensions><speed>1.200583</speed><course>116.725670</course><hAcc>0.883296</hAcc><vAcc>0.698611</vAcc></extensions></trkpt>
      <trkpt lon="-3.155079" lat="52.999880"><ele>410.657501</ele><time>2021-09-01T11:59:49Z</time><extensions><speed>1.203845</speed><course>116.725670</course><hAcc>0.883272</hAcc><vAcc>0.698629</vAcc></extensions></trkpt>
      <trkpt lon="-3.155066" lat="52.999872"><ele>410.593567</ele><time>2021-09-01T11:59:50Z</time><extensions><speed>1.208686</speed><course>116.725662</course><hAcc>0.883247</hAcc><vAcc>0.698626</vAcc></extensions></trkpt>
      <trkpt lon="-3.155054" lat="52.999864"><ele>410.531036</ele><time>2021-09-01T11:59:51Z</time><extensions><speed>1.215481</speed><course>316.510925</course><hAcc>0.883219</hAcc><vAcc>0.698591</vAcc></extensions></trkpt>
      <trkpt lon="-3.155041" lat="52.999856"><ele>410.468018</ele><time>2021-09-01T11:59:51Z</time><extensions><speed>1.223967</speed><course>325.771881</course><hAcc>0.883201</hAcc><vAcc>0.698535</vAcc></extensions></trkpt>
      <trkpt lon="-3.155029" lat="52.999848"><ele>410.402740</ele><time>2021-09-01T11:59:52Z</time><extensions><speed>1.233734</speed><course>329.412018</course><hAcc>0.883193</hAcc><vAcc>0.698459</vAcc></extensions></trkpt>
      <trkpt lon="-3.155016" lat="52.999840"><ele>410.333862</ele><time>2021-09-01T11:59:53Z</time><extensions><speed>1.244098</speed><course>328.807678</course><hAcc>0.883178</hAcc><vAcc>0.698356</vAcc></extensions></trkpt>
      <trkpt lon="-3.155004" lat="52.999832"><ele>410.260468</ele><time>2021-09-01T11:59:54Z</time><extensions><speed>1.253997</speed><course>328.238739</course><hAcc>0.883156</hAcc><vAcc>0.698235</vAcc></extensions></trkpt>
      <trkpt lon="-3.154992" lat="52.999823"><ele>410.182007</ele><time>2021-09-01T11:59:55Z</time><extensions><speed>1.262642</speed><course>328.754333</course><hAcc>0.883130</hAcc><vAcc>0.698108</vAcc></extensions></trkpt>
      <trkpt lon="-3.154980" lat="52.999814"><ele>410.098389</ele><time>2021-09-01T11:59:56Z</time><extensions><speed>1.269271</speed><course>321.291412</course><hAcc>0.883104</hAcc><vAcc>0.697989</vAcc></extensions></trkpt>
      <trkpt lon="-3.154968" lat="52.999805"><ele>410.010132</ele><time>2021-09-01T11:59:57Z</time><extensions><speed>1.273180</speed><course>315.163422</course><hAcc>0.883080</hAcc><vAcc>0.697891</vAcc></extensions></trkpt>
      <trkpt lon="-3.154956" lat="52.999796"><ele>409.917908</ele><time>2021-09-01T11:59:58Z</time><extensions><speed>1.274306</speed><course>320.356079</course><hAcc>0.883061</hAcc><vAcc>0.697820</vAcc></extensions></trkpt>
      <trkpt lon="-3.154945" lat="52.999787"><ele>409.822357</ele><time>2021-09-01T11:59:59Z</time><extensions><speed>1.272567</speed><course>314.759003</course><hAcc>0.883049</hAcc><vAcc>0.697780</vAcc></extensions></trkpt>
      <trkpt lon="-3.154933" lat="52.999778"><ele>409.723877</ele><time>2021-09-01T12:00:00Z</time><extensions><speed>1.267629</speed><course>306.430359</course><hAcc>0.883046</hAcc><vAcc>0.697767</vAcc></extensions></trkpt>
      <trkpt lon="-3.154922" lat="52.999769"><ele>409.622772</ele><time>2021-09-01T12:00:01Z</time><extensions><speed>1.259608</speed><course>312.642456</course><hAcc>0.883055</hAcc><vAcc>0.697779</vAcc></extensions></trkpt>
      <trkpt lon="-3.154912" lat="52.999760"><ele>409.519867</ele><time>2021-09-01T12:00:02Z</time><extensions><speed>1.248724</speed><course>309.329712</course><hAcc>0.883078</hAcc><vAcc>0.697821</vAcc></extensions></trkpt>
      <trkpt lon="-3.154901" lat="52.999751"><ele>409.416565</ele><time>2021-09-01T12:00:03Z</time><extensions><speed>1.234918</speed><course>306.517120</course><hAcc>0.883117</hAcc><vAcc>0.697907</vAcc></extensions></trkpt>
      <trkpt lon="-3.154891" lat="52.999741"><ele>409.314209</ele><time>2021-09-01T12:00:04Z</time><extensions><speed>1.218075</speed><course>302.169647</course><hAcc>0.883176</hAcc><vAcc>0.698055</vAcc></extensions></trkpt>
      <trkpt lon="-3.154882" lat="52.999732"><ele>409.213593</ele><time>2021-09-01T12:00:05Z</time><extensions><speed>1.198253</speed><course>299.953156</course><hAcc>0.883257</hAcc><vAcc>0.698282</vAcc></extensions></trkpt>
      <trkpt lon="-3.154873" lat="52.999723"><ele>409.114807</ele><time>2021-09-01T12:00:06Z</time><extensions><speed>1.175388</speed><course>299.473511</course><hAcc>0.883361</hAcc><vAcc>0.698601</vAcc></extensions></trkpt>
      <trkpt lon="-3.154864" lat="52.999714"><ele>409.017548</ele><time>2021-09-01T12:00:07Z</time><extensions><speed>1.149697</speed><course>298.103729</course><hAcc>0.883488</hAcc><vAcc>0.699017</vAcc></extensions></trkpt>
      <trkpt lon="-3.154856" lat="52.999705"><ele>408.921600</ele><time>2021-09-01T12:00:08Z</time><extensions><speed>1.121640</speed><course>294.101929</course><hAcc>0.883638</hAcc><vAcc>0.699525</vAcc></extensions></trkpt>
      <trkpt lon="-3.154848" lat="52.999696"><ele>408.826782</ele><time>2021-09-01T12:00:09Z</time><extensions><speed>1.091413</speed><course>298.669067</course><hAcc>0.883806</hAcc><vAcc>0.700109</vAcc></extensions></trkpt>
      <trkpt lon="-3.154841" lat="52.999688"><ele>408.733063</ele><time>2021-09-01T12:00:10Z</time><extensions><speed>1.059362</speed><course>297.460327</course><hAcc>0.883989</hAcc><vAcc>0.700747</vAcc></extensions></trkpt>
      <trkpt lon="-3.154834" lat="52.999679"><ele>408.640564</ele><time>2021-09-01T12:00:11Z</time><extensions><speed>1.026345</speed><course>300.643127</course><hAcc>0.884182</hAcc><vAcc>0.701416</vAcc></extensions></trkpt>
      <trkpt lon="-3.154828" lat="52.999671"><ele>408.549377</ele><time>2021-09-01T12:00:12Z</time><extensions><speed>0.993672</speed><course>300.762909</course><hAcc>0.884380</hAcc><vAcc>0.702096</vAcc></extensions></trkpt>
      <trkpt lon="-3.154823" lat="52.999663"><ele>408.459534</ele><time>2021-09-01T12:00:13Z</time><extensions><speed>0.962520</speed><course>306.221161</course><hAcc>0.884577</hAcc><vAcc>0.702769</vAcc></extensions></trkpt>
      <trkpt lon="-3.154818" lat="52.999655"><ele>408.370789</ele><time>2021-09-01T12:00:14Z</time><extensions><speed>0.933929</speed><course>311.753571</course><hAcc>0.884767</hAcc><vAcc>0.703416</vAcc></extensions></trkpt>
      <trkpt lon="-3.154813" lat="52.999647"><ele>408.283051</ele><time>2021-09-01T12:00:15Z</time><extensions><speed>0.908793</speed><course>314.039551</course><hAcc>0.884947</hAcc><vAcc>0.704017</vAcc></extensions></trkpt>
      <trkpt lon="-3.154810" lat="52.999639"><ele>408.196533</ele><time>2021-09-01T12:00:16Z</time><extensions><speed>0.887855</speed><course>316.125336</course><hAcc>0.885111</hAcc><vAcc>0.704558</vAcc></extensions></trkpt>
      <trkpt lon="-3.154807" lat="52.999631"><ele>408.111572</ele><time>2021-09-01T12:00:17Z</time><extensions><speed>0.871745</speed><course>313.054962</course><hAcc>0.885254</hAcc><vAcc>0.705026</vAcc></extensions></trkpt>
      <trkpt lon="-3.154804" lat="52.999624"><ele>408.028473</ele><time>2021-09-01T12:00:18Z</time><extensions><speed>0.860993</speed><course>309.718231</course><hAcc>0.885375</hAcc><vAcc>0.705418</vAcc></extensions></trkpt>
      <trkpt lon="-3.154802" lat="52.999616"><ele>407.947510</ele><time>2021-09-01T12:00:19Z</time><extensions><speed>0.855851</speed><course>315.993652</course><hAcc>0.885468</hAcc><vAcc>0.705730</vAcc></extensions></trkpt>
      <trkpt lon="-3.154801" lat="52.999608"><ele>407.868927</ele><time>2021-09-01T12:00:20Z</time><extensions><speed>0.856117</speed><course>314.639465</course><hAcc>0.885533</hAcc><vAcc>0.705958</vAcc></extensions></trkpt>
      <trkpt lon="-3.154800" lat="52.999601"><ele>407.792938</ele><time>2021-09-01T12:00:21Z</time><extensions><speed>0.861125</speed><course>314.699524</course><hAcc>0.885565</hAcc><vAcc>0.706091</vAcc></extensions></trkpt>
      <trkpt lon="-3.154799" lat="52.999593"><ele>407.719543</ele><time>2021-09-01T12:00:22Z</time><extensions><speed>0.869747</speed><course>315.537170</course><hAcc>0.885561</hAcc><vAcc>0.706117</vAcc></extensions></trkpt>
      <trkpt lon="-3.154798" lat="52.999585"><ele>407.648651</ele><time>2021-09-01T12:00:23Z</time><extensions><speed>0.880751</speed><course>315.384186</course><hAcc>0.885521</hAcc><vAcc>0.706026</vAcc></extensions></trkpt>
      <trkpt lon="-3.154797" lat="52.999577"><ele>407.580322</ele><time>2021-09-01T12:00:24Z</time><extensions><speed>0.892983</speed><course>316.068207</course><hAcc>0.885442</hAcc><vAcc>0.705805</vAcc></extensions></trkpt>
      <trkpt lon="-3.154797" lat="52.999569"><ele>407.515106</ele><time>2021-09-01T12:00:25Z</time><extensions><speed>0.905537</speed><course>319.526184</course><hAcc>0.885321</hAcc><vAcc>0.705446</vAcc></extensions></trkpt>
      <trkpt lon="-3.154796" lat="52.999561"><ele>407.454224</ele><time>2021-09-01T12:00:26Z</time><extensions><speed>0.917765</speed><course>322.032959</course><hAcc>0.885158</hAcc><vAcc>0.704940</vAcc></extensions></trkpt>
      <trkpt lon="-3.154795" lat="52.999553"><ele>407.399353</ele><time>2021-09-01T12:00:27Z</time><extensions><speed>0.928819</speed><course>326.209290</course><hAcc>0.884951</hAcc><vAcc>0.704282</vAcc></extensions></trkpt>
      <trkpt lon="-3.154793" lat="52.999544"><ele>407.352020</ele><time>2021-09-01T12:00:28Z</time><extensions><speed>0.937577</speed><course>324.142303</course><hAcc>0.884700</hAcc><vAcc>0.703476</vAcc></extensions></trkpt>
      <trkpt lon="-3.154791" lat="52.999536"><ele>407.313293</ele><time>2021-09-01T12:00:29Z</time><extensions><speed>0.942859</speed><course>332.193542</course><hAcc>0.884402</hAcc><vAcc>0.702531</vAcc></extensions></trkpt>
      <trkpt lon="-3.154789" lat="52.999528"><ele>407.283295</ele><time>2021-09-01T12:00:30Z</time><extensions><speed>0.943706</speed><course>329.558014</course><hAcc>0.884057</hAcc><vAcc>0.701457</vAcc></extensions></trkpt>
      <trkpt lon="-3.154786" lat="52.999519"><ele>407.261841</ele><time>2021-09-01T12:00:31Z</time><extensions><speed>0.939717</speed><course>323.309692</course><hAcc>0.883660</hAcc><vAcc>0.700251</vAcc></extensions></trkpt>
      <trkpt lon="-3.154783" lat="52.999511"><ele>407.249146</ele><time>2021-09-01T12:00:32Z</time><extensions><speed>0.930948</speed><course>319.992767</course><hAcc>0.883210</hAcc><vAcc>0.698896</vAcc></extensions></trkpt>
      <trkpt lon="-3.154780" lat="52.999503"><ele>407.245697</ele><time>2021-09-01T12:00:33Z</time><extensions><speed>0.917231</speed><course>322.539886</course><hAcc>0.882701</hAcc><vAcc>0.697366</vAcc></extensions></trkpt>
      <trkpt lon="-3.154776" lat="52.999495"><ele>407.252014</ele><time>2021-09-01T12:00:34Z</time><extensions><speed>0.898117</speed><course>317.532928</course><hAcc>0.882132</hAcc><vAcc>0.695631</vAcc></extensions></trkpt>
      <trkpt lon="-3.154772" lat="52.999488"><ele>407.268097</ele><time>2021-09-01T12:00:35Z</time><extensions><speed>0.873239</speed><course>314.725220</course><hAcc>0.881498</hAcc><vAcc>0.693670</vAcc></extensions></trkpt>
      <trkpt lon="-3.154769" lat="52.999480"><ele>407.293335</ele><time>2021-09-01T12:00:36Z</time><extensions><speed>0.842472</speed><course>325.463684</course><hAcc>0.880798</hAcc><vAcc>0.691477</vAcc></extensions></trkpt>
      <trkpt lon="-3.154766" lat="52.999473"><ele>407.326965</ele><time>2021-09-01T12:00:37Z</time><extensions><speed>0.806572</speed><course>326.490570</course><hAcc>0.880030</hAcc><vAcc>0.689065</vAcc></extensions></trkpt>
      <trkpt lon="-3.154764" lat="52.999466"><ele>407.368805</ele><time>2021-09-01T12:00:38Z</time><extensions><speed>0.768093</speed><course>316.111328</course><hAcc>0.879191</hAcc><vAcc>0.686451</vAcc></extensions></trkpt>
      <trkpt lon="-3.154762" lat="52.999459"><ele>407.419189</ele><time>2021-09-01T12:00:39Z</time><extensions><speed>0.730933</speed><course>316.470520</course><hAcc>0.878281</hAcc><vAcc>0.683648</vAcc></extensions></trkpt>
      <trkpt lon="-3.154762" lat="52.999453"><ele>407.478027</ele><time>2021-09-01T12:00:40Z</time><extensions><speed>0.699333</speed><course>317.921600</course><hAcc>0.877296</hAcc><vAcc>0.680646</vAcc></extensions></trkpt>
      <trkpt lon="-3.154763" lat="52.999447"><ele>407.544556</ele><time>2021-09-01T12:00:41Z</time><extensions><speed>0.677368</speed><course>317.925903</course><hAcc>0.876233</hAcc><vAcc>0.677419</vAcc></extensions></trkpt>
      <trkpt lon="-3.154765" lat="52.999441"><ele>407.617645</ele><time>2021-09-01T12:00:42Z</time><extensions><speed>0.668033</speed><course>316.840515</course><hAcc>0.875089</hAcc><vAcc>0.673928</vAcc></extensions></trkpt>
      <trkpt lon="-3.154768" lat="52.999435"><ele>407.696503</ele><time>2021-09-01T12:00:43Z</time><extensions><speed>0.672040</speed><course>321.987762</course><hAcc>0.873869</hAcc><vAcc>0.670151</vAcc></extensions></trkpt>
      <trkpt lon="-3.154773" lat="52.999430"><ele>407.780334</ele><time>2021-09-01T12:00:44Z</time><extensions><speed>0.687414</speed><course>314.291290</course><hAcc>0.872585</hAcc><vAcc>0.666103</vAcc></extensions></trkpt>
      <trkpt lon="-3.154779" lat="52.999425"><ele>407.868195</ele><time>2021-09-01T12:00:45Z</time><extensions><speed>0.710229</speed><course>311.665222</course><hAcc>0.871261</hAcc><vAcc>0.661859</vAcc></extensions></trkpt>
      <trkpt lon="-3.154786" lat="52.999420"><ele>407.959167</ele><time>2021-09-01T12:00:46Z</time><extensions><speed>0.735321</speed><course>315.645782</course><hAcc>0.869929</hAcc><vAcc>0.657542</vAcc></extensions></trkpt>
      <trkpt lon="-3.154794" lat="52.999415"><ele>408.052521</ele><time>2021-09-01T12:00:47Z</time><extensions><speed>0.758070</speed><course>312.390594</course><hAcc>0.868625</hAcc><vAcc>0.653293</vAcc></extensions></trkpt>
      <trkpt lon="-3.154803" lat="52.999411"><ele>408.148041</ele><time>2021-09-01T12:00:48Z</time><extensions><speed>0.775725</speed><course>315.968140</course><hAcc>0.867386</hAcc><vAcc>0.649243</vAcc></extensions></trkpt>
      <trkpt lon="-3.154812" lat="52.999407"><ele>408.245728</ele><time>2021-09-01T12:00:49Z</time><extensions><speed>0.787321</speed><course>305.843231</course><hAcc>0.866235</hAcc><vAcc>0.645489</vAcc></extensions></trkpt>
      <trkpt lon="-3.154822" lat="52.999402"><ele>408.345734</ele><time>2021-09-01T12:00:50Z</time><extensions><speed>0.792978</speed><course>307.428955</course><hAcc>0.865194</hAcc><vAcc>0.642094</vAcc></extensions></trkpt>
      <trkpt lon="-3.154831" lat="52.999398"><ele>408.447754</ele><time>2021-09-01T12:00:51Z</time><extensions><speed>0.793616</speed><course>303.591888</course><hAcc>0.864277</hAcc><vAcc>0.639108</vAcc></extensions></trkpt>
      <trkpt lon="-3.154841" lat="52.999394"><ele>408.551544</ele><time>2021-09-01T12:00:52Z</time><extensions><speed>0.791197</speed><course>302.311584</course><hAcc>0.863505</hAcc><vAcc>0.636591</vAcc></extensions></trkpt>
      <trkpt lon="-3.154851" lat="52.999390"><ele>408.657196</ele><time>2021-09-01T12:00:53Z</time><extensions><speed>0.788275</speed><course>296.010498</course><hAcc>0.862896</hAcc><vAcc>0.634609</vAcc></extensions></trkpt>
      <trkpt lon="-3.154860" lat="52.999386"><ele>408.765167</ele><time>2021-09-01T12:00:54Z</time><extensions><speed>0.786672</speed><course>298.597748</course><hAcc>0.862466</hAcc><vAcc>0.633212</vAcc></extensions></trkpt>
      <trkpt lon="-3.154869" lat="52.999381"><ele>408.876038</ele><time>2021-09-01T12:00:55Z</time><extensions><speed>0.786600</speed><course>307.419373</course><hAcc>0.862218</hAcc><vAcc>0.632412</vAcc></extensions></trkpt>
      <trkpt lon="-3.154878" lat="52.999377"><ele>408.990387</ele><time>2021-09-01T12:00:56Z</time><extensions><speed>0.787553</speed><course>311.127045</course><hAcc>0.862141</hAcc><vAcc>0.632169</vAcc></extensions></trkpt>
      <trkpt lon="-3.154886" lat="52.999372"><ele>409.108887</ele><time>2021-09-01T12:00:57Z</time><extensions><speed>0.789350</speed><course>308.779785</course><hAcc>0.862210</hAcc><vAcc>0.632403</vAcc></extensions></trkpt>
      <trkpt lon="-3.154894" lat="52.999367"><ele>409.232269</ele><time>2021-09-01T12:00:58Z</time><extensions><speed>0.792212</speed><course>310.817932</course><hAcc>0.862396</hAcc><vAcc>0.633013</vAcc></extensions></trkpt>
      <trkpt lon="-3.154902" lat="52.999361"><ele>409.360992</ele><time>2021-09-01T12:00:59Z</time><extensions><speed>0.796605</speed><course>313.903961</course><hAcc>0.862671</hAcc><vAcc>0.633901</vAcc></extensions></trkpt>
      <trkpt lon="-3.154909" lat="52.999355"><ele>409.495178</ele><time>2021-09-01T12:01:00Z</time><extensions><speed>0.802447</speed><course>312.113068</course><hAcc>0.863009</hAcc><vAcc>0.634981</vAcc></extensions></trkpt>
      <trkpt lon="-3.154916" lat="52.999349"><ele>409.634491</ele><time>2021-09-01T12:01:01Z</time><extensions><speed>0.808892</speed><course>298.693726</course><hAcc>0.863388</hAcc><vAcc>0.636185</vAcc></extensions></trkpt>
      <trkpt lon="-3.154922" lat="52.999343"><ele>409.778442</ele><time>2021-09-01T12:01:02Z</time><extensions><speed>0.815025</speed><course>304.126526</course><hAcc>0.863794</hAcc><vAcc>0.637468</vAcc></extensions></trkpt>
      <trkpt lon="-3.154928" lat="52.999337"><ele>409.926788</ele><time>2021-09-01T12:01:03Z</time><extensions><speed>0.820408</speed><course>307.202972</course><hAcc>0.864218</hAcc><vAcc>0.638804</vAcc></extensions></trkpt>
      <trkpt lon="-3.154934" lat="52.999330"><ele>410.079285</ele><time>2021-09-01T12:01:04Z</time><extensions><speed>0.825582</speed><course>306.849365</course><hAcc>0.864655</hAcc><vAcc>0.640182</vAcc></extensions></trkpt>
      <trkpt lon="-3.154940" lat="52.999324"><ele>410.235352</ele><time>2021-09-01T12:01:05Z</time><extensions><speed>0.830792</speed><course>311.228149</course><hAcc>0.865098</hAcc><vAcc>0.641585</vAcc></extensions></trkpt>
      <trkpt lon="-3.154945" lat="52.999317"><ele>410.394196</ele><time>2021-09-01T12:01:06Z</time><extensions><speed>0.835720</speed><course>314.984741</course><hAcc>0.865541</hAcc><vAcc>0.642991</vAcc></extensions></trkpt>
      <trkpt lon="-3.154951" lat="52.999310"><ele>410.555084</ele><time>2021-09-01T12:01:07Z</time><extensions><speed>0.840416</speed><course>312.149628</course><hAcc>0.865976</hAcc><vAcc>0.644374</vAcc></extensions></trkpt>
      <trkpt lon="-3.154956" lat="52.999303"><ele>410.717529</ele><time>2021-09-01T12:01:08Z</time><extensions><speed>0.845101</speed><course>303.811646</course><hAcc>0.866397</hAcc><vAcc>0.645715</vAcc></extensions></trkpt>
      <trkpt lon="-3.154961" lat="52.999296"><ele>410.881622</ele><time>2021-09-01T12:01:09Z</time><extensions><speed>0.849924</speed><course>306.939087</course><hAcc>0.866797</hAcc><vAcc>0.646988</vAcc></extensions></trkpt>
      <trkpt lon="-3.154967" lat="52.999290"><ele>411.048126</ele><time>2021-09-01T12:01:10Z</time><extensions><speed>0.855051</speed><course>305.149933</course><hAcc>0.867169</hAcc><vAcc>0.648167</vAcc></extensions></trkpt>
      <trkpt lon="-3.154973" lat="52.999283"><ele>411.217834</ele><time>2021-09-01T12:01:11Z</time><extensions><speed>0.860697</speed><course>307.460999</course><hAcc>0.867506</hAcc><vAcc>0.649224</vAcc></extensions></trkpt>
      <trkpt lon="-3.154979" lat="52.999276"><ele>411.391388</ele><time>2021-09-01T12:01:12Z</time><extensions><speed>0.867097</speed><course>310.556549</course><hAcc>0.867805</hAcc><vAcc>0.650144</vAcc></extensions></trkpt>
      <trkpt lon="-3.154985" lat="52.999269"><ele>411.569153</ele><time>2021-09-01T12:01:13Z</time><extensions><speed>0.874846</speed><course>316.643463</course><hAcc>0.868068</hAcc><vAcc>0.650933</vAcc></extensions></trkpt>
      <trkpt lon="-3.154992" lat="52.999262"><ele>411.751404</ele><time>2021-09-01T12:01:14Z</time><extensions><speed>0.885019</speed><course>310.111420</course><hAcc>0.868303</hAcc><vAcc>0.651622</vAcc></extensions></trkpt>
      <trkpt lon="-3.154999" lat="52.999256"><ele>411.938385</ele><time>2021-09-01T12:01:15Z</time><extensions><speed>0.898112</speed><course>309.394775</course><hAcc>0.868521</hAcc><vAcc>0.652259</vAcc></extensions></trkpt>
      <trkpt lon="-3.155007" lat="52.999249"><ele>412.130310</ele><time>2021-09-01T12:01:16Z</time><extensions><speed>0.913140</speed><course>312.734375</course><hAcc>0.868735</hAcc><vAcc>0.652897</vAcc></extensions></trkpt>
      <trkpt lon="-3.155015" lat="52.999242"><ele>412.326996</ele><time>2021-09-01T12:01:17Z</time><extensions><speed>0.928401</speed><course>307.110260</course><hAcc>0.868954</hAcc><vAcc>0.653574</vAcc></extensions></trkpt>
      <trkpt lon="-3.155023" lat="52.999235"><ele>412.528137</ele><time>2021-09-01T12:01:18Z</time><extensions><speed>0.942201</speed><course>304.794312</course><hAcc>0.869180</hAcc><vAcc>0.654297</vAcc></extensions></trkpt>
      <trkpt lon="-3.155032" lat="52.999229"><ele>412.733582</ele><time>2021-09-01T12:01:19Z</time><extensions><speed>0.953146</speed><course>309.669006</course><hAcc>0.869409</hAcc><vAcc>0.655049</vAcc></extensions></trkpt>
      <trkpt lon="-3.155040" lat="52.999222"><ele>412.943146</ele><time>2021-09-01T12:01:20Z</time><extensions><speed>0.960512</speed><course>309.747101</course><hAcc>0.869633</hAcc><vAcc>0.655804</vAcc></extensions></trkpt>
      <trkpt lon="-3.155049" lat="52.999215"><ele>413.156036</ele><time>2021-09-01T12:01:21Z</time><extensions><speed>0.964454</speed><course>308.451904</course><hAcc>0.869843</hAcc><vAcc>0.656520</vAcc></extensions></trkpt>
      <trkpt lon="-3.155058" lat="52.999208"><ele>413.370758</ele><time>2021-09-01T12:01:22Z</time><extensions><speed>0.965858</speed><course>313.674774</course><hAcc>0.870027</hAcc><vAcc>0.657152</vAcc></extensions></trkpt>
      <trkpt lon="-3.155067" lat="52.999201"><ele>413.585449</ele><time>2021-09-01T12:01:23Z</time><extensions><speed>0.965496</speed><course>310.174561</course><hAcc>0.870176</hAcc><vAcc>0.657657</vAcc></extensions></trkpt>
      <trkpt lon="-3.155075" lat="52.999194"><ele>413.798401</ele><time>2021-09-01T12:01:24Z</time><extensions><speed>0.963973</speed><course>312.894348</course><hAcc>0.870280</hAcc><vAcc>0.658000</vAcc></extensions></trkpt>
      <trkpt lon="-3.155084" lat="52.999187"><ele>414.008240</ele><time>2021-09-01T12:01:25Z</time><extensions><speed>0.962338</speed><course>309.740997</course><hAcc>0.870336</hAcc><vAcc>0.658159</vAcc></extensions></trkpt>
      <trkpt lon="-3.155092" lat="52.999180"><ele>414.213776</ele><time>2021-09-01T12:01:26Z</time><extensions><speed>0.962072</speed><course>309.271240</course><hAcc>0.870349</hAcc><vAcc>0.658148</vAcc></extensions></trkpt>
      <trkpt lon="-3.155101" lat="52.999173"><ele>414.414093</ele><time>2021-09-01T12:01:27Z</time><extensions><speed>0.964443</speed><course>309.840485</course><hAcc>0.870330</hAcc><vAcc>0.658012</vAcc></extensions></trkpt>
      <trkpt lon="-3.155109" lat="52.999166"><ele>414.608612</ele><time>2021-09-01T12:01:28Z</time><extensions><speed>0.969880</speed><course>308.054108</course><hAcc>0.870296</hAcc><vAcc>0.657818</vAcc></extensions></trkpt>
      <trkpt lon="-3.155117" lat="52.999159"><ele>414.797485</ele><time>2021-09-01T12:01:29Z</time><extensions><speed>0.978658</speed><course>306.226685</course><hAcc>0.870265</hAcc><vAcc>0.657633</vAcc></extensions></trkpt>
      <trkpt lon="-3.155125" lat="52.999151"><ele>414.981506</ele><time>2021-09-01T12:01:30Z</time><extensions><speed>0.990890</speed><course>316.211884</course><hAcc>0.870254</hAcc><vAcc>0.657523</vAcc></extensions></trkpt>
      <trkpt lon="-3.155133" lat="52.999144"><ele>415.161560</ele><time>2021-09-01T12:01:31Z</time><extensions><speed>1.006007</speed><course>312.798523</course><hAcc>0.870279</hAcc><vAcc>0.657546</vAcc></extensions></trkpt>
      <trkpt lon="-3.155141" lat="52.999136"><ele>415.338379</ele><time>2021-09-01T12:01:32Z</time><extensions><speed>1.023411</speed><course>314.823364</course><hAcc>0.870352</hAcc><vAcc>0.657750</vAcc></extensions></trkpt>
      <trkpt lon="-3.155148" lat="52.999128"><ele>415.512695</ele><time>2021-09-01T12:01:33Z</time><extensions><speed>1.041872</speed><course>317.560303</course><hAcc>0.870479</hAcc><vAcc>0.658153</vAcc></extensions></trkpt>
      <trkpt lon="-3.155157" lat="52.999120"><ele>415.685089</ele><time>2021-09-01T12:01:34Z</time><extensions><speed>1.059681</speed><course>313.870911</course><hAcc>0.870656</hAcc><vAcc>0.658744</vAcc></extensions></trkpt>
      <trkpt lon="-3.155165" lat="52.999112"><ele>415.855774</ele><time>2021-09-01T12:01:35Z</time><extensions><speed>1.075582</speed><course>320.858917</course><hAcc>0.870875</hAcc><vAcc>0.659488</vAcc></extensions></trkpt>
      <trkpt lon="-3.155174" lat="52.999104"><ele>416.024445</ele><time>2021-09-01T12:01:36Z</time><extensions><speed>1.089009</speed><course>322.110107</course><hAcc>0.871122</hAcc><vAcc>0.660331</vAcc></extensions></trkpt>
      <trkpt lon="-3.155183" lat="52.999095"><ele>416.190552</ele><time>2021-09-01T12:01:37Z</time><extensions><speed>1.100007</speed><course>322.258118</course><hAcc>0.871380</hAcc><vAcc>0.661211</vAcc></extensions></trkpt>
      <trkpt lon="-3.155192" lat="52.999087"><ele>416.353882</ele><time>2021-09-01T12:01:38Z</time><extensions><speed>1.108552</speed><course>323.751770</course><hAcc>0.871631</hAcc><vAcc>0.662054</vAcc></extensions></trkpt>
      <trkpt lon="-3.155202" lat="52.999079"><ele>416.514313</ele><time>2021-09-01T12:01:39Z</time><extensions><speed>1.115297</speed><course>311.017761</course><hAcc>0.871858</hAcc><vAcc>0.662791</vAcc></extensions></trkpt>
      <trkpt lon="-3.155213" lat="52.999072"><ele>416.671722</ele><time>2021-09-01T12:01:40Z</time><extensions><speed>1.121377</speed><course>303.134949</course><hAcc>0.872047</hAcc><vAcc>0.663369</vAcc></extensions></trkpt>
      <trkpt lon="-3.155224" lat="52.999064"><ele>416.825989</ele><time>2021-09-01T12:01:42Z</time><extensions><speed>1.127143</speed><course>305.266266</course><hAcc>0.872173</hAcc><vAcc>0.663750</vAcc></extensions></trkpt>
      <trkpt lon="-3.155236" lat="52.999057"><ele>416.976685</ele><time>2021-09-01T12:01:43Z</time><extensions><speed>1.132315</speed><course>306.244568</course><hAcc>0.872236</hAcc><vAcc>0.663937</vAcc></extensions></trkpt>
      <trkpt lon="-3.155249" lat="52.999050"><ele>417.123383</ele><time>2021-09-01T12:01:44Z</time><extensions><speed>1.136823</speed><course>311.028961</course><hAcc>0.872261</hAcc><vAcc>0.663977</vAcc></extensions></trkpt>
      <trkpt lon="-3.155262" lat="52.999044"><ele>417.264801</ele><time>2021-09-01T12:01:45Z</time><extensions><speed>1.141468</speed><course>304.990997</course><hAcc>0.872259</hAcc><vAcc>0.663916</vAcc></extensions></trkpt>
      <trkpt lon="-3.155276" lat="52.999038"><ele>417.399628</ele><time>2021-09-01T12:01:46Z</time><extensions><speed>1.146489</speed><course>305.619354</course><hAcc>0.872246</hAcc><vAcc>0.663809</vAcc></extensions></trkpt>
      <trkpt lon="-3.155290" lat="52.999032"><ele>417.526550</ele><time>2021-09-01T12:01:47Z</time><extensions><speed>1.151191</speed><course>319.038269</course><hAcc>0.872242</hAcc><vAcc>0.663713</vAcc></extensions></trkpt>
      <trkpt lon="-3.155305" lat="52.999027"><ele>417.644226</ele><time>2021-09-01T12:01:48Z</time><extensions><speed>1.154579</speed><course>314.772644</course><hAcc>0.872268</hAcc><vAcc>0.663683</vAcc></extensions></trkpt>
      <trkpt lon="-3.155320" lat="52.999022"><ele>417.751678</ele><time>2021-09-01T12:01:49Z</time><extensions><speed>1.155595</speed><course>314.865356</course><hAcc>0.872350</hAcc><vAcc>0.663769</vAcc></extensions></trkpt>
      <trkpt lon="-3.155336" lat="52.999018"><ele>417.848846</ele><time>2021-09-01T12:01:49Z</time><extensions><speed>1.154530</speed><course>315.584076</course><hAcc>0.872538</hAcc><vAcc>0.664036</vAcc></extensions></trkpt>
      <trkpt lon="-3.155351" lat="52.999013"><ele>417.936371</ele><time>2021-09-01T12:01:50Z</time><extensions><speed>1.152388</speed><course>318.301117</course><hAcc>0.872866</hAcc><vAcc>0.664526</vAcc></extensions></trkpt>
      <trkpt lon="-3.155367" lat="52.999010"><ele>418.015198</ele><time>2021-09-01T12:01:52Z</time><extensions><speed>1.149732</speed><course>308.957520</course><hAcc>0.873338</hAcc><vAcc>0.665243</vAcc></extensions></trkpt>
      <trkpt lon="-3.155383" lat="52.999006"><ele>418.086456</ele><time>2021-09-01T12:01:53Z</time><extensions><speed>1.146957</speed><course>309.679749</course><hAcc>0.873993</hAcc><vAcc>0.666204</vAcc></extensions></trkpt>
      <trkpt lon="-3.155400" lat="52.999003"><ele>418.151611</ele><time>2021-09-01T12:01:54Z</time><extensions><speed>1.144616</speed><course>315.508118</course><hAcc>0.874889</hAcc><vAcc>0.667423</vAcc></extensions></trkpt>
      <trkpt lon="-3.155416" lat="52.999000"><ele>418.211761</ele><time>2021-09-01T12:01:55Z</time><extensions><speed>1.143608</speed><course>315.740204</course><hAcc>0.876062</hAcc><vAcc>0.668886</vAcc></extensions></trkpt>
      <trkpt lon="-3.155432" lat="52.998997"><ele>418.267944</ele><time>2021-09-01T12:01:56Z</time><extensions><speed>1.145103</speed><course>310.654785</course><hAcc>0.877534</hAcc><vAcc>0.670569</vAcc></extensions></trkpt>
      <trkpt lon="-3.155449" lat="52.998994"><ele>418.321381</ele><time>2021-09-01T12:01:57Z</time><extensions><speed>1.149677</speed><course>314.784058</course><hAcc>0.879306</hAcc><vAcc>0.672424</vAcc></extensions></trkpt>
      <trkpt lon="-3.155465" lat="52.998991"><ele>418.373413</ele><time>2021-09-01T12:01:58Z</time><extensions><speed>1.157130</speed><course>306.836517</course><hAcc>0.881343</hAcc><vAcc>0.674367</vAcc></extensions></trkpt>
      <trkpt lon="-3.155482" lat="52.998989"><ele>418.425262</ele><time>2021-09-01T12:01:59Z</time><extensions><speed>1.166491</speed><course>319.014709</course><hAcc>0.883559</hAcc><vAcc>0.676272</vAcc></extensions></trkpt>
      <trkpt lon="-3.155499" lat="52.998986"><ele>418.477966</ele><time>2021-09-01T12:01:59Z</time><extensions><speed>1.176419</speed><course>316.668060</course><hAcc>0.885821</hAcc><vAcc>0.677971</vAcc></extensions></trkpt>
      <trkpt lon="-3.155516" lat="52.998984"><ele>418.532623</ele><time>2021-09-01T12:02:00Z</time><extensions><speed>1.186531</speed><course>317.381256</course><hAcc>0.887926</hAcc><vAcc>0.679256</vAcc></extensions></trkpt>
      <trkpt lon="-3.155533" lat="52.998981"><ele>418.589905</ele><time>2021-09-01T12:02:01Z</time><extensions><speed>1.196738</speed><course>315.522644</course><hAcc>0.889603</hAcc><vAcc>0.679891</vAcc></extensions></trkpt>
      <trkpt lon="-3.155551" lat="52.998978"><ele>418.650421</ele><time>2021-09-01T12:02:02Z</time><extensions><speed>1.206587</speed><course>313.748596</course><hAcc>0.890608</hAcc><vAcc>0.679689</vAcc></extensions></trkpt>
      <trkpt lon="-3.155568" lat="52.998976"><ele>418.714722</ele><time>2021-09-01T12:02:03Z</time><extensions><speed>1.215230</speed><course>311.298676</course><hAcc>0.890800</hAcc><vAcc>0.678579</vAcc></extensions></trkpt>
      <trkpt lon="-3.155586" lat="52.998973"><ele>418.783020</ele><time>2021-09-01T12:02:04Z</time><extensions><speed>1.222186</speed><course>307.453308</course><hAcc>0.890308</hAcc><vAcc>0.676734</vAcc></extensions></trkpt>
      <trkpt lon="-3.155603" lat="52.998970"><ele>418.855408</ele><time>2021-09-01T12:02:05Z</time><extensions><speed>1.227643</speed><course>308.937561</course><hAcc>0.889796</hAcc><vAcc>0.674765</vAcc></extensions></trkpt>
      <trkpt lon="-3.155621" lat="52.998966"><ele>418.931854</ele><time>2021-09-01T12:02:06Z</time><extensions><speed>1.231304</speed><course>304.505646</course><hAcc>0.890837</hAcc><vAcc>0.673990</vAcc></extensions></trkpt>
      <trkpt lon="-3.155638" lat="52.998963"><ele>419.012115</ele><time>2021-09-01T12:02:07Z</time><extensions><speed>1.233025</speed><course>299.094574</course><hAcc>0.896396</hAcc><vAcc>0.676772</vAcc></extensions></trkpt>
      <trkpt lon="-3.155656" lat="52.998960"><ele>419.095917</ele><time>2021-09-01T12:02:08Z</time><extensions><speed>1.233390</speed><course>310.704071</course><hAcc>0.911308</hAcc><vAcc>0.686816</vAcc></extensions></trkpt>
      <trkpt lon="-3.155673" lat="52.998956"><ele>419.182281</ele><time>2021-09-01T12:02:09Z</time><extensions><speed>1.233105</speed><course>308.713898</course><hAcc>0.942479</hAcc><vAcc>0.709242</vAcc></extensions></trkpt>
      <trkpt lon="-3.155688" lat="52.998951"><ele>419.313446</ele><time>2021-09-01T12:02:10Z</time><extensions><speed>1.223754</speed><course>-1.000000</course><hAcc>0.908040</hAcc><vAcc>0.680634</vAcc></extensions></trkpt>
      <trkpt lon="-3.155702" lat="52.998944"><ele>419.436066</ele><time>2021-09-01T12:02:11Z</time><extensions><speed>1.220984</speed><course>-1.000000</course><hAcc>0.890514</hAcc><vAcc>0.661638</vAcc></extensions></trkpt>
      <trkpt lon="-3.155717" lat="52.998938"><ele>419.560150</ele><time>2021-09-01T12:02:12Z</time><extensions><speed>1.218895</speed><course>-1.000000</course><hAcc>0.883999</hAcc><vAcc>0.651926</vAcc></extensions></trkpt>
      <trkpt lon="-3.155731" lat="52.998931"><ele>419.686340</ele><time>2021-09-01T12:02:13Z</time><extensions><speed>1.218064</speed><course>-1.000000</course><hAcc>0.882938</hAcc><vAcc>0.647326</vAcc></extensions></trkpt>
      <trkpt lon="-3.155744" lat="52.998924"><ele>419.815948</ele><time>2021-09-01T12:02:14Z</time><extensions><speed>1.218824</speed><course>-1.000000</course><hAcc>0.883877</hAcc><vAcc>0.645101</vAcc></extensions></trkpt>
      <trkpt lon="-3.155758" lat="52.998916"><ele>419.950256</ele><time>2021-09-01T12:02:15Z</time><extensions><speed>1.221321</speed><course>-1.000000</course><hAcc>0.884950</hAcc><vAcc>0.643719</vAcc></extensions></trkpt>
      <trkpt lon="-3.155771" lat="52.998909"><ele>420.089417</ele><time>2021-09-01T12:02:16Z</time><extensions><speed>1.225134</speed><course>-1.000000</course><hAcc>0.885328</hAcc><vAcc>0.642483</vAcc></extensions></trkpt>
      <trkpt lon="-3.155785" lat="52.998901"><ele>420.232452</ele><time>2021-09-01T12:02:17Z</time><extensions><speed>1.229496</speed><course>-1.000000</course><hAcc>0.884796</hAcc><vAcc>0.641201</vAcc></extensions></trkpt>
      <trkpt lon="-3.155798" lat="52.998894"><ele>420.378204</ele><time>2021-09-01T12:02:18Z</time><extensions><speed>1.233557</speed><course>-1.000000</course><hAcc>0.883453</hAcc><vAcc>0.639930</vAcc></extensions></trkpt>
      <trkpt lon="-3.155811" lat="52.998886"><ele>420.526215</ele><time>2021-09-01T12:02:19Z</time><extensions><speed>1.236441</speed><course>184.559082</course><hAcc>0.881523</hAcc><vAcc>0.638804</vAcc></extensions></trkpt>
      <trkpt lon="-3.155824" lat="52.998878"><ele>420.676788</ele><time>2021-09-01T12:02:20Z</time><extensions><speed>1.237680</speed><course>-1.000000</course><hAcc>0.879247</hAcc><vAcc>0.637937</vAcc></extensions></trkpt>
      <trkpt lon="-3.155837" lat="52.998870"><ele>420.830414</ele><time>2021-09-01T12:02:21Z</time><extensions><speed>1.236742</speed><course>-1.000000</course><hAcc>0.876853</hAcc><vAcc>0.637393</vAcc></extensions></trkpt>
      <trkpt lon="-3.155850" lat="52.998862"><ele>420.986664</ele><time>2021-09-01T12:02:22Z</time><extensions><speed>1.233193</speed><course>-1.000000</course><hAcc>0.874544</hAcc><vAcc>0.637197</vAcc></extensions></trkpt>
      <trkpt lon="-3.155863" lat="52.998854"><ele>421.144684</ele><time>2021-09-01T12:02:23Z</time><extensions><speed>1.227076</speed><course>-1.000000</course><hAcc>0.872480</hAcc><vAcc>0.637362</vAcc></extensions></trkpt>
      <trkpt lon="-3.155876" lat="52.998847"><ele>421.304016</ele><time>2021-09-01T12:02:24Z</time><extensions><speed>1.219322</speed><course>53.307610</course><hAcc>0.870771</hAcc><vAcc>0.637890</vAcc></extensions></trkpt>
      <trkpt lon="-3.155889" lat="52.998839"><ele>421.464539</ele><time>2021-09-01T12:02:25Z</time><extensions><speed>1.211379</speed><course>-1.000000</course><hAcc>0.869474</hAcc><vAcc>0.638764</vAcc></extensions></trkpt>
      <trkpt lon="-3.155902" lat="52.998831"><ele>421.626190</ele><time>2021-09-01T12:02:26Z</time><extensions><speed>1.204076</speed><course>-1.000000</course><hAcc>0.868610</hAcc><vAcc>0.639928</vAcc></extensions></trkpt>
      <trkpt lon="-3.155915" lat="52.998824"><ele>421.789276</ele><time>2021-09-01T12:02:27Z</time><extensions><speed>1.198102</speed><course>-1.000000</course><hAcc>0.868165</hAcc><vAcc>0.641274</vAcc></extensions></trkpt>
      <trkpt lon="-3.155928" lat="52.998817"><ele>421.953308</ele><time>2021-09-01T12:02:28Z</time><extensions><speed>1.194437</speed><course>120.394302</course><hAcc>0.868099</hAcc><vAcc>0.642651</vAcc></extensions></trkpt>
      <trkpt lon="-3.155941" lat="52.998809"><ele>422.116699</ele><time>2021-09-01T12:02:29Z</time><extensions><speed>1.193596</speed><course>-1.000000</course><hAcc>0.868355</hAcc><vAcc>0.643902</vAcc></extensions></trkpt>
      <trkpt lon="-3.155954" lat="52.998802"><ele>422.277649</ele><time>2021-09-01T12:02:30Z</time><extensions><speed>1.195429</speed><course>-1.000000</course><hAcc>0.868874</hAcc><vAcc>0.644903</vAcc></extensions></trkpt>
      <trkpt lon="-3.155968" lat="52.998795"><ele>422.435120</ele><time>2021-09-01T12:02:31Z</time><extensions><speed>1.199569</speed><course>-1.000000</course><hAcc>0.869601</hAcc><vAcc>0.645581</vAcc></extensions></trkpt>
      <trkpt lon="-3.155981" lat="52.998788"><ele>422.589050</ele><time>2021-09-01T12:02:32Z</time><extensions><speed>1.205444</speed><course>-1.000000</course><hAcc>0.870475</hAcc><vAcc>0.645908</vAcc></extensions></trkpt>
      <trkpt lon="-3.155995" lat="52.998782"><ele>422.740082</ele><time>2021-09-01T12:02:33Z</time><extensions><speed>1.212319</speed><course>-1.000000</course><hAcc>0.871429</hAcc><vAcc>0.645896</vAcc></extensions></trkpt>
      <trkpt lon="-3.156010" lat="52.998775"><ele>422.888184</ele><time>2021-09-01T12:02:34Z</time><extensions><speed>1.219758</speed><course>-1.000000</course><hAcc>0.872389</hAcc><vAcc>0.645593</vAcc></extensions></trkpt>
      <trkpt lon="-3.156024" lat="52.998768"><ele>423.032013</ele><time>2021-09-01T12:02:35Z</time><extensions><speed>1.227548</speed><course>-1.000000</course><hAcc>0.873281</hAcc><vAcc>0.645081</vAcc></extensions></trkpt>
      <trkpt lon="-3.156039" lat="52.998762"><ele>423.170288</ele><time>2021-09-01T12:02:36Z</time><extensions><speed>1.235089</speed><course>-1.000000</course><hAcc>0.874022</hAcc><vAcc>0.644466</vAcc></extensions></trkpt>
      <trkpt lon="-3.156055" lat="52.998756"><ele>423.302582</ele><time>2021-09-01T12:02:37Z</time><extensions><speed>1.242004</speed><course>-1.000000</course><hAcc>0.874531</hAcc><vAcc>0.643859</vAcc></extensions></trkpt>
      <trkpt lon="-3.156070" lat="52.998750"><ele>423.428925</ele><time>2021-09-01T12:02:38Z</time><extensions><speed>1.248705</speed><course>-1.000000</course><hAcc>0.874756</hAcc><vAcc>0.643358</vAcc></extensions></trkpt>
      <trkpt lon="-3.156086" lat="52.998744"><ele>423.550018</ele><time>2021-09-01T12:02:39Z</time><extensions><speed>1.255350</speed><course>-1.000000</course><hAcc>0.874674</hAcc><vAcc>0.643020</vAcc></extensions></trkpt>
      <trkpt lon="-3.156102" lat="52.998738"><ele>423.667114</ele><time>2021-09-01T12:02:40Z</time><extensions><speed>1.261184</speed><course>-1.000000</course><hAcc>0.874288</hAcc><vAcc>0.642848</vAcc></extensions></trkpt>
      <trkpt lon="-3.156118" lat="52.998732"><ele>423.781433</ele><time>2021-09-01T12:02:41Z</time><extensions><speed>1.265617</speed><course>-1.000000</course><hAcc>0.873633</hAcc><vAcc>0.642795</vAcc></extensions></trkpt>
      <trkpt lon="-3.156134" lat="52.998726"><ele>423.893982</ele><time>2021-09-01T12:02:42Z</time><extensions><speed>1.268961</speed><course>-1.000000</course><hAcc>0.872766</hAcc><vAcc>0.642794</vAcc></extensions></trkpt>
      <trkpt lon="-3.156151" lat="52.998720"><ele>424.005798</ele><time>2021-09-01T12:02:43Z</time><extensions><speed>1.271548</speed><course>-1.000000</course><hAcc>0.871744</hAcc><vAcc>0.642779</vAcc></extensions></trkpt>
      <trkpt lon="-3.156167" lat="52.998715"><ele>424.117737</ele><time>2021-09-01T12:02:44Z</time><extensions><speed>1.273324</speed><course>-1.000000</course><hAcc>0.870623</hAcc><vAcc>0.642686</vAcc></extensions></trkpt>
      <trkpt lon="-3.156184" lat="52.998710"><ele>424.230408</ele><time>2021-09-01T12:02:45Z</time><extensions><speed>1.273751</speed><course>-1.000000</course><hAcc>0.869469</hAcc><vAcc>0.642462</vAcc></extensions></trkpt>
      <trkpt lon="-3.156201" lat="52.998704"><ele>424.344788</ele><time>2021-09-01T12:02:46Z</time><extensions><speed>1.272096</speed><course>-1.000000</course><hAcc>0.868339</hAcc><vAcc>0.642051</vAcc></extensions></trkpt>
      <trkpt lon="-3.156218" lat="52.998699"><ele>424.462036</ele><time>2021-09-01T12:02:47Z</time><extensions><speed>1.267824</speed><course>-1.000000</course><hAcc>0.867262</hAcc><vAcc>0.641390</vAcc></extensions></trkpt>
      <trkpt lon="-3.156235" lat="52.998695"><ele>424.583130</ele><time>2021-09-01T12:02:48Z</time><extensions><speed>1.260923</speed><course>116.725777</course><hAcc>0.866237</hAcc><vAcc>0.640404</vAcc></extensions></trkpt>
      <trkpt lon="-3.156252" lat="52.998690"><ele>424.707947</ele><time>2021-09-01T12:02:49Z</time><extensions><speed>1.251767</speed><course>116.725777</course><hAcc>0.865240</hAcc><vAcc>0.639024</vAcc></extensions></trkpt>
      <trkpt lon="-3.156270" lat="52.998686"><ele>424.835876</ele><time>2021-09-01T12:02:50Z</time><extensions><speed>1.240916</speed><course>116.725777</course><hAcc>0.864239</hAcc><vAcc>0.637192</vAcc></extensions></trkpt>
      <trkpt lon="-3.156287" lat="52.998682"><ele>424.966400</ele><time>2021-09-01T12:02:51Z</time><extensions><speed>1.229256</speed><course>116.725777</course><hAcc>0.863203</hAcc><vAcc>0.634875</vAcc></extensions></trkpt>
      <trkpt lon="-3.156304" lat="52.998678"><ele>425.098969</ele><time>2021-09-01T12:02:52Z</time><extensions><speed>1.217834</speed><course>116.725777</course><hAcc>0.862109</hAcc><vAcc>0.632075</vAcc></extensions></trkpt>
      <trkpt lon="-3.156321" lat="52.998674"><ele>425.233093</ele><time>2021-09-01T12:02:53Z</time><extensions><speed>1.207624</speed><course>116.725784</course><hAcc>0.860949</hAcc><vAcc>0.628832</vAcc></extensions></trkpt>
      <trkpt lon="-3.156338" lat="52.998671"><ele>425.368591</ele><time>2021-09-01T12:02:54Z</time><extensions><speed>1.199118</speed><course>116.725784</course><hAcc>0.859730</hAcc><vAcc>0.625223</vAcc></extensions></trkpt>
      <trkpt lon="-3.156355" lat="52.998667"><ele>425.504852</ele><time>2021-09-01T12:02:55Z</time><extensions><speed>1.191889</speed><course>116.725784</course><hAcc>0.858477</hAcc><vAcc>0.621377</vAcc></extensions></trkpt>
      <trkpt lon="-3.156371" lat="52.998664"><ele>425.640808</ele><time>2021-09-01T12:02:56Z</time><extensions><speed>1.185211</speed><course>116.725784</course><hAcc>0.857233</hAcc><vAcc>0.617472</vAcc></extensions></trkpt>
      <trkpt lon="-3.156388" lat="52.998661"><ele>425.775513</ele><time>2021-09-01T12:02:57Z</time><extensions><speed>1.179077</speed><course>116.725784</course><hAcc>0.856051</hAcc><vAcc>0.613703</vAcc></extensions></trkpt>
      <trkpt lon="-3.156405" lat="52.998658"><ele>425.908478</ele><time>2021-09-01T12:02:58Z</time><extensions><speed>1.174077</speed><course>116.725784</course><hAcc>0.854982</hAcc><vAcc>0.610257</vAcc></extensions></trkpt>
      <trkpt lon="-3.156422" lat="52.998655"><ele>426.039703</ele><time>2021-09-01T12:02:59Z</time><extensions><speed>1.170525</speed><course>116.725784</course><hAcc>0.854069</hAcc><vAcc>0.607289</vAcc></extensions></trkpt>
      <trkpt lon="-3.156439" lat="52.998652"><ele>426.169495</ele><time>2021-09-01T12:03:00Z</time><extensions><speed>1.168513</speed><course>116.725784</course><hAcc>0.853336</hAcc><vAcc>0.604890</vAcc></extensions></trkpt>
      <trkpt lon="-3.156455" lat="52.998649"><ele>426.297699</ele><time>2021-09-01T12:03:01Z</time><extensions><speed>1.168200</speed><course>116.725784</course><hAcc>0.852788</hAcc><vAcc>0.603079</vAcc></extensions></trkpt>
      <trkpt lon="-3.156472" lat="52.998646"><ele>426.423248</ele><time>2021-09-01T12:03:02Z</time><extensions><speed>1.169562</speed><course>116.725784</course><hAcc>0.852403</hAcc><vAcc>0.601799</vAcc></extensions></trkpt>
      <trkpt lon="-3.156489" lat="52.998643"><ele>426.544861</ele><time>2021-09-01T12:03:03Z</time><extensions><speed>1.172324</speed><course>116.725784</course><hAcc>0.852149</hAcc><vAcc>0.600950</vAcc></extensions></trkpt>
      <trkpt lon="-3.156506" lat="52.998640"><ele>426.661713</ele><time>2021-09-01T12:03:04Z</time><extensions><speed>1.175842</speed><course>116.725784</course><hAcc>0.851989</hAcc><vAcc>0.600414</vAcc></extensions></trkpt>
      <trkpt lon="-3.156522" lat="52.998638"><ele>426.773468</ele><time>2021-09-01T12:03:05Z</time><extensions><speed>1.179262</speed><course>116.725784</course><hAcc>0.851887</hAcc><vAcc>0.600081</vAcc></extensions></trkpt>
      <trkpt lon="-3.156539" lat="52.998635"><ele>426.880371</ele><time>2021-09-01T12:03:06Z</time><extensions><speed>1.181701</speed><course>116.725784</course><hAcc>0.851818</hAcc><vAcc>0.599866</vAcc></extensions></trkpt>
      <trkpt lon="-3.156556" lat="52.998632"><ele>426.983490</ele><time>2021-09-01T12:03:07Z</time><extensions><speed>1.182982</speed><course>116.725784</course><hAcc>0.851764</hAcc><vAcc>0.599718</vAcc></extensions></trkpt>
      <trkpt lon="-3.156573" lat="52.998629"><ele>427.084076</ele><time>2021-09-01T12:03:08Z</time><extensions><speed>1.183454</speed><course>116.725784</course><hAcc>0.851719</hAcc><vAcc>0.599615</vAcc></extensions></trkpt>
      <trkpt lon="-3.156590" lat="52.998625"><ele>427.181763</ele><time>2021-09-01T12:03:09Z</time><extensions><speed>1.183015</speed><course>116.725784</course><hAcc>0.851690</hAcc><vAcc>0.599582</vAcc></extensions></trkpt>
      <trkpt lon="-3.156607" lat="52.998622"><ele>427.274078</ele><time>2021-09-01T12:03:10Z</time><extensions><speed>1.181005</speed><course>116.725777</course><hAcc>0.851705</hAcc><vAcc>0.599704</vAcc></extensions></trkpt>
      <trkpt lon="-3.156623" lat="52.998619"><ele>427.358368</ele><time>2021-09-01T12:03:11Z</time><extensions><speed>1.176592</speed><course>116.725769</course><hAcc>0.851811</hAcc><vAcc>0.600135</vAcc></extensions></trkpt>
      <trkpt lon="-3.156640" lat="52.998616"><ele>427.432892</ele><time>2021-09-01T12:03:12Z</time><extensions><speed>1.168903</speed><course>116.725769</course><hAcc>0.852073</hAcc><vAcc>0.601072</vAcc></extensions></trkpt>
      <trkpt lon="-3.156656" lat="52.998612"><ele>427.497009</ele><time>2021-09-01T12:03:13Z</time><extensions><speed>1.157064</speed><course>116.725761</course><hAcc>0.852551</hAcc><vAcc>0.602704</vAcc></extensions></trkpt>
      <trkpt lon="-3.156672" lat="52.998609"><ele>427.551117</ele><time>2021-09-01T12:03:14Z</time><extensions><speed>1.141437</speed><course>116.725754</course><hAcc>0.853289</hAcc><vAcc>0.605160</vAcc></extensions></trkpt>
      <trkpt lon="-3.156688" lat="52.998605"><ele>427.596497</ele><time>2021-09-01T12:03:15Z</time><extensions><speed>1.123467</speed><course>116.725746</course><hAcc>0.854301</hAcc><vAcc>0.608476</vAcc></extensions></trkpt>
      <trkpt lon="-3.156703" lat="52.998601"><ele>427.634735</ele><time>2021-09-01T12:03:16Z</time><extensions><speed>1.104847</speed><course>116.725746</course><hAcc>0.855567</hAcc><vAcc>0.612582</vAcc></extensions></trkpt>
      <trkpt lon="-3.156718" lat="52.998597"><ele>427.667053</ele><time>2021-09-01T12:03:17Z</time><extensions><speed>1.088484</speed><course>116.725731</course><hAcc>0.857041</hAcc><vAcc>0.617328</vAcc></extensions></trkpt>
      <trkpt lon="-3.156733" lat="52.998593"><ele>427.694489</ele><time>2021-09-01T12:03:18Z</time><extensions><speed>1.078096</speed><course>116.725723</course><hAcc>0.858665</hAcc><vAcc>0.622527</vAcc></extensions></trkpt>
      <trkpt lon="-3.156747" lat="52.998589"><ele>427.718231</ele><time>2021-09-01T12:03:19Z</time><extensions><speed>1.076776</speed><course>116.725723</course><hAcc>0.860384</hAcc><vAcc>0.628003</vAcc></extensions></trkpt>
      <trkpt lon="-3.156761" lat="52.998584"><ele>427.739899</ele><time>2021-09-01T12:03:20Z</time><extensions><speed>1.086690</speed><course>116.725708</course><hAcc>0.862152</hAcc><vAcc>0.633623</vAcc></extensions></trkpt>
      <trkpt lon="-3.156775" lat="52.998579"><ele>427.761292</ele><time>2021-09-01T12:03:21Z</time><extensions><speed>1.108241</speed><course>116.725700</course><hAcc>0.863938</hAcc><vAcc>0.639295</vAcc></extensions></trkpt>
      <trkpt lon="-3.156790" lat="52.998574"><ele>427.784180</ele><time>2021-09-01T12:03:22Z</time><extensions><speed>1.139332</speed><course>116.725693</course><hAcc>0.865719</hAcc><vAcc>0.644961</vAcc></extensions></trkpt>
      <trkpt lon="-3.156804" lat="52.998568"><ele>427.810425</ele><time>2021-09-01T12:03:23Z</time><extensions><speed>1.176286</speed><course>116.725685</course><hAcc>0.867481</hAcc><vAcc>0.650572</vAcc></extensions></trkpt>
      <trkpt lon="-3.156819" lat="52.998562"><ele>427.841614</ele><time>2021-09-01T12:03:24Z</time><extensions><speed>1.214840</speed><course>116.725670</course><hAcc>0.869201</hAcc><vAcc>0.656044</vAcc></extensions></trkpt>
      <trkpt lon="-3.156834" lat="52.998556"><ele>427.879150</ele><time>2021-09-01T12:03:25Z</time><extensions><speed>1.251856</speed><course>116.725670</course><hAcc>0.870848</hAcc><vAcc>0.661252</vAcc></extensions></trkpt>
      <trkpt lon="-3.156850" lat="52.998549"><ele>427.924133</ele><time>2021-09-01T12:03:26Z</time><extensions><speed>1.286273</speed><course>116.725662</course><hAcc>0.872390</hAcc><vAcc>0.666072</vAcc></extensions></trkpt>
      <trkpt lon="-3.156865" lat="52.998542"><ele>427.977356</ele><time>2021-09-01T12:03:27Z</time><extensions><speed>1.317873</speed><course>316.510925</course><hAcc>0.873803</hAcc><vAcc>0.670419</vAcc></extensions></trkpt>
      <trkpt lon="-3.156881" lat="52.998535"><ele>428.039337</ele><time>2021-09-01T12:03:28Z</time><extensions><speed>1.346204</speed><course>325.771881</course><hAcc>0.875075</hAcc><vAcc>0.674260</vAcc></extensions></trkpt>
      <trkpt lon="-3.156898" lat="52.998528"><ele>428.110016</ele><time>2021-09-01T12:03:29Z</time><extensions><speed>1.370571</speed><course>329.412018</course><hAcc>0.876203</hAcc><vAcc>0.677607</vAcc></extensions></trkpt>
      <trkpt lon="-3.156914" lat="52.998521"><ele>428.189117</ele><time>2021-09-01T12:03:30Z</time><extensions><speed>1.390696</speed><course>328.807678</course><hAcc>0.877190</hAcc><vAcc>0.680508</vAcc></extensions></trkpt>
      <trkpt lon="-3.156931" lat="52.998513"><ele>428.275909</ele><time>2021-09-01T12:03:31Z</time><extensions><speed>1.406346</speed><course>328.238739</course><hAcc>0.878048</hAcc><vAcc>0.683019</vAcc></extensions></trkpt>
      <trkpt lon="-3.156948" lat="52.998505"><ele>428.369232</ele><time>2021-09-01T12:03:32Z</time><extensions><speed>1.416769</speed><course>328.754333</course><hAcc>0.878787</hAcc><vAcc>0.685198</vAcc></extensions></trkpt>
      <trkpt lon="-3.156964" lat="52.998498"><ele>428.467651</ele><time>2021-09-01T12:03:33Z</time><extensions><speed>1.420851</speed><course>321.291412</course><hAcc>0.879419</hAcc><vAcc>0.687085</vAcc></extensions></trkpt>
      <trkpt lon="-3.156981" lat="52.998490"><ele>428.569580</ele><time>2021-09-01T12:03:34Z</time><extensions><speed>1.417593</speed><course>315.163422</course><hAcc>0.879956</hAcc><vAcc>0.688707</vAcc></extensions></trkpt>
      <trkpt lon="-3.156997" lat="52.998482"><ele>428.673096</ele><time>2021-09-01T12:03:35Z</time><extensions><speed>1.406745</speed><course>320.356079</course><hAcc>0.880406</hAcc><vAcc>0.690081</vAcc></extensions></trkpt>
      <trkpt lon="-3.157013" lat="52.998474"><ele>428.776276</ele><time>2021-09-01T12:03:36Z</time><extensions><speed>1.388412</speed><course>314.759003</course><hAcc>0.880779</hAcc><vAcc>0.691216</vAcc></extensions></trkpt>
      <trkpt lon="-3.157029" lat="52.998466"><ele>428.877441</ele><time>2021-09-01T12:03:37Z</time><extensions><speed>1.363332</speed><course>306.430359</course><hAcc>0.881081</hAcc><vAcc>0.692127</vAcc></extensions></trkpt>
      <trkpt lon="-3.157045" lat="52.998459"><ele>428.975403</ele><time>2021-09-01T12:03:38Z</time><extensions><speed>1.332235</speed><course>312.642456</course><hAcc>0.881321</hAcc><vAcc>0.692827</vAcc></extensions></trkpt>
      <trkpt lon="-3.157060" lat="52.998451"><ele>429.069153</ele><time>2021-09-01T12:03:39Z</time><extensions><speed>1.295647</speed><course>309.329712</course><hAcc>0.881508</hAcc><vAcc>0.693338</vAcc></extensions></trkpt>
      <trkpt lon="-3.157075" lat="52.998444"><ele>429.157928</ele><time>2021-09-01T12:03:40Z</time><extensions><speed>1.253980</speed><course>306.517120</course><hAcc>0.881650</hAcc><vAcc>0.693689</vAcc></extensions></trkpt>
      <trkpt lon="-3.157090" lat="52.998438"><ele>429.241241</ele><time>2021-09-01T12:03:41Z</time><extensions><speed>1.206880</speed><course>302.169647</course><hAcc>0.881755</hAcc><vAcc>0.693919</vAcc></extensions></trkpt>
      <trkpt lon="-3.157104" lat="52.998431"><ele>429.318481</ele><time>2021-09-01T12:03:42Z</time><extensions><speed>1.153983</speed><course>299.953156</course><hAcc>0.881834</hAcc><vAcc>0.694069</vAcc></extensions></trkpt>
      <trkpt lon="-3.157118" lat="52.998425"><ele>429.388794</ele><time>2021-09-01T12:03:43Z</time><extensions><speed>1.095150</speed><course>299.473511</course><hAcc>0.881895</hAcc><vAcc>0.694174</vAcc></extensions></trkpt>
      <trkpt lon="-3.157131" lat="52.998420"><ele>429.451355</ele><time>2021-09-01T12:03:44Z</time><extensions><speed>1.030567</speed><course>298.103729</course><hAcc>0.881945</hAcc><vAcc>0.694257</vAcc></extensions></trkpt>
      <trkpt lon="-3.157143" lat="52.998415"><ele>429.505615</ele><time>2021-09-01T12:03:46Z</time><extensions><speed>0.960037</speed><course>294.101929</course><hAcc>0.881970</hAcc><vAcc>0.694316</vAcc></extensions></trkpt>
      <trkpt lon="-3.157155" lat="52.998410"><ele>429.551056</ele><time>2021-09-01T12:03:47Z</time><extensions><speed>0.883153</speed><course>298.669067</course><hAcc>0.881974</hAcc><vAcc>0.694356</vAcc></extensions></trkpt>
      <trkpt lon="-3.157165" lat="52.998406"><ele>429.587433</ele><time>2021-09-01T12:03:48Z</time><extensions><speed>0.799142</speed><course>297.460327</course><hAcc>0.881976</hAcc><vAcc>0.694389</vAcc></extensions></trkpt>
      <trkpt lon="-3.157174" lat="52.998403"><ele>429.614471</ele><time>2021-09-01T12:03:49Z</time><extensions><speed>0.708571</speed><course>300.643127</course><hAcc>0.881974</hAcc><vAcc>0.694412</vAcc></extensions></trkpt>
      <trkpt lon="-3.157183" lat="52.998399"><ele>429.632263</ele><time>2021-09-01T12:03:50Z</time><extensions><speed>0.614114</speed><course>300.762909</course><hAcc>0.881968</hAcc><vAcc>0.694419</vAcc></extensions></trkpt>
      <trkpt lon="-3.157190" lat="52.998396"><ele>429.641235</ele><time>2021-09-01T12:03:51Z</time><extensions><speed>0.520158</speed><course>306.221161</course><hAcc>0.881953</hAcc><vAcc>0.694402</vAcc></extensions></trkpt>
      <trkpt lon="-3.157195" lat="52.998394"><ele>429.642334</ele><time>2021-09-01T12:03:52Z</time><extensions><speed>0.431811</speed><course>311.753571</course><hAcc>0.881926</hAcc><vAcc>0.694357</vAcc></extensions></trkpt>
      <trkpt lon="-3.157200" lat="52.998392"><ele>429.636658</ele><time>2021-09-01T12:03:53Z</time><extensions><speed>0.353146</speed><course>314.039551</course><hAcc>0.881883</hAcc><vAcc>0.694277</vAcc></extensions></trkpt>
      <trkpt lon="-3.157204" lat="52.998390"><ele>429.625458</ele><time>2021-09-01T12:03:54Z</time><extensions><speed>0.286534</speed><course>316.125336</course><hAcc>0.881817</hAcc><vAcc>0.694152</vAcc></extensions></trkpt>
      <trkpt lon="-3.157207" lat="52.998389"><ele>429.610168</ele><time>2021-09-01T12:03:55Z</time><extensions><speed>0.233397</speed><course>313.054962</course><hAcc>0.881724</hAcc><vAcc>0.693957</vAcc></extensions></trkpt>
      <trkpt lon="-3.157209" lat="52.998387"><ele>429.592285</ele><time>2021-09-01T12:03:56Z</time><extensions><speed>0.194432</speed><course>309.718231</course><hAcc>0.881595</hAcc><vAcc>0.693658</vAcc></extensions></trkpt>
      <trkpt lon="-3.157211" lat="52.998386"><ele>429.573273</ele><time>2021-09-01T12:03:57Z</time><extensions><speed>0.169602</speed><course>315.993652</course><hAcc>0.881427</hAcc><vAcc>0.693219</vAcc></extensions></trkpt>
      <trkpt lon="-3.157213" lat="52.998385"><ele>429.554626</ele><time>2021-09-01T12:03:58Z</time><extensions><speed>0.158360</speed><course>314.639465</course><hAcc>0.881215</hAcc><vAcc>0.692613</vAcc></extensions></trkpt>
      <trkpt lon="-3.157214" lat="52.998384"><ele>429.537811</ele><time>2021-09-01T12:03:59Z</time><extensions><speed>0.160098</speed><course>314.699524</course><hAcc>0.880958</hAcc><vAcc>0.691826</vAcc></extensions></trkpt>
      <trkpt lon="-3.157216" lat="52.998383"><ele>429.524109</ele><time>2021-09-01T12:03:59Z</time><extensions><speed>0.174298</speed><course>315.537170</course><hAcc>0.880680</hAcc><vAcc>0.690885</vAcc></extensions></trkpt>
      <trkpt lon="-3.157218" lat="52.998382"><ele>429.514740</ele><time>2021-09-01T12:04:00Z</time><extensions><speed>0.200638</speed><course>315.384186</course><hAcc>0.880388</hAcc><vAcc>0.689825</vAcc></extensions></trkpt>
      <trkpt lon="-3.157221" lat="52.998380"><ele>429.510925</ele><time>2021-09-01T12:04:01Z</time><extensions><speed>0.238581</speed><course>316.068207</course><hAcc>0.880075</hAcc><vAcc>0.688690</vAcc></extensions></trkpt>
      <trkpt lon="-3.157224" lat="52.998379"><ele>429.513977</ele><time>2021-09-01T12:04:02Z</time><extensions><speed>0.287262</speed><course>319.526184</course><hAcc>0.879754</hAcc><vAcc>0.687544</vAcc></extensions></trkpt>
      <trkpt lon="-3.157227" lat="52.998377"><ele>429.524902</ele><time>2021-09-01T12:04:03Z</time><extensions><speed>0.345293</speed><course>322.032959</course><hAcc>0.879439</hAcc><vAcc>0.686439</vAcc></extensions></trkpt>
      <trkpt lon="-3.157232" lat="52.998375"><ele>429.544342</ele><time>2021-09-01T12:04:04Z</time><extensions><speed>0.410301</speed><course>326.209290</course><hAcc>0.879140</hAcc><vAcc>0.685410</vAcc></extensions></trkpt>
      <trkpt lon="-3.157237" lat="52.998373"><ele>429.572479</ele><time>2021-09-01T12:04:05Z</time><extensions><speed>0.479203</speed><course>324.142303</course><hAcc>0.878866</hAcc><vAcc>0.684482</vAcc></extensions></trkpt>
      <trkpt lon="-3.157244" lat="52.998370"><ele>429.609283</ele><time>2021-09-01T12:04:06Z</time><extensions><speed>0.549575</speed><course>332.193542</course><hAcc>0.878626</hAcc><vAcc>0.683680</vAcc></extensions></trkpt>
      <trkpt lon="-3.157251" lat="52.998367"><ele>429.654633</ele><time>2021-09-01T12:04:07Z</time><extensions><speed>0.620186</speed><course>329.558014</course><hAcc>0.878427</hAcc><vAcc>0.683029</vAcc></extensions></trkpt>
      <trkpt lon="-3.157259" lat="52.998364"><ele>429.708069</ele><time>2021-09-01T12:04:08Z</time><extensions><speed>0.690105</speed><course>323.309692</course><hAcc>0.878270</hAcc><vAcc>0.682534</vAcc></extensions></trkpt>
      <trkpt lon="-3.157268" lat="52.998360"><ele>429.769470</ele><time>2021-09-01T12:04:09Z</time><extensions><speed>0.758129</speed><course>319.992767</course><hAcc>0.878157</hAcc><vAcc>0.682188</vAcc></extensions></trkpt>
      <trkpt lon="-3.157277" lat="52.998356"><ele>429.839264</ele><time>2021-09-01T12:04:10Z</time><extensions><speed>0.823066</speed><course>322.539886</course><hAcc>0.878086</hAcc><vAcc>0.681982</vAcc></extensions></trkpt>
      <trkpt lon="-3.157288" lat="52.998352"><ele>429.917786</ele><time>2021-09-01T12:04:11Z</time><extensions><speed>0.883702</speed><course>317.532928</course><hAcc>0.878056</hAcc><vAcc>0.681904</vAcc></extensions></trkpt>
      <trkpt lon="-3.157299" lat="52.998348"><ele>430.005035</ele><time>2021-09-01T12:04:12Z</time><extensions><speed>0.939138</speed><course>314.725220</course><hAcc>0.878064</hAcc><vAcc>0.681948</vAcc></extensions></trkpt>
      <trkpt lon="-3.157311" lat="52.998343"><ele>430.101013</ele><time>2021-09-01T12:04:13Z</time><extensions><speed>0.988938</speed><course>325.463684</course><hAcc>0.878107</hAcc><vAcc>0.682100</vAcc></extensions></trkpt>
      <trkpt lon="-3.157324" lat="52.998338"><ele>430.205383</ele><time>2021-09-01T12:04:14Z</time><extensions><speed>1.032690</speed><course>326.490570</course><hAcc>0.878183</hAcc><vAcc>0.682353</vAcc></extensions></trkpt>
      <trkpt lon="-3.157337" lat="52.998333"><ele>430.317413</ele><time>2021-09-01T12:04:15Z</time><extensions><speed>1.070395</speed><course>316.111328</course><hAcc>0.878290</hAcc><vAcc>0.682696</vAcc></extensions></trkpt>
      <trkpt lon="-3.157351" lat="52.998328"><ele>430.435944</ele><time>2021-09-01T12:04:16Z</time><extensions><speed>1.102807</speed><course>316.470520</course><hAcc>0.878424</hAcc><vAcc>0.683123</vAcc></extensions></trkpt>
      <trkpt lon="-3.157366" lat="52.998323"><ele>430.559448</ele><time>2021-09-01T12:04:17Z</time><extensions><speed>1.131003</speed><course>317.921600</course><hAcc>0.878584</hAcc><vAcc>0.683627</vAcc></extensions></trkpt>
      <trkpt lon="-3.157380" lat="52.998318"><ele>430.686218</ele><time>2021-09-01T12:04:18Z</time><extensions><speed>1.155785</speed><course>317.925903</course><hAcc>0.878768</hAcc><vAcc>0.684205</vAcc></extensions></trkpt>
      <trkpt lon="-3.157395" lat="52.998312"><ele>430.814331</ele><time>2021-09-01T12:04:19Z</time><extensions><speed>1.177429</speed><course>316.840515</course><hAcc>0.878974</hAcc><vAcc>0.684857</vAcc></extensions></trkpt>
      <trkpt lon="-3.157410" lat="52.998307"><ele>430.941956</ele><time>2021-09-01T12:04:20Z</time><extensions><speed>1.196144</speed><course>321.987762</course><hAcc>0.879200</hAcc><vAcc>0.685584</vAcc></extensions></trkpt>
      <trkpt lon="-3.157426" lat="52.998301"><ele>431.067810</ele><time>2021-09-01T12:04:21Z</time><extensions><speed>1.212350</speed><course>314.291290</course><hAcc>0.879442</hAcc><vAcc>0.686377</vAcc></extensions></trkpt>
      <trkpt lon="-3.157442" lat="52.998296"><ele>431.191071</ele><time>2021-09-01T12:04:22Z</time><extensions><speed>1.226215</speed><course>311.665222</course><hAcc>0.879694</hAcc><vAcc>0.687222</vAcc></extensions></trkpt>
      <trkpt lon="-3.157457" lat="52.998290"><ele>431.311249</ele><time>2021-09-01T12:04:23Z</time><extensions><speed>1.238212</speed><course>315.645782</course><hAcc>0.879951</hAcc><vAcc>0.688094</vAcc></extensions></trkpt>
      <trkpt lon="-3.157473" lat="52.998284"><ele>431.427917</ele><time>2021-09-01T12:04:24Z</time><extensions><speed>1.248808</speed><course>312.390594</course><hAcc>0.880204</hAcc><vAcc>0.688964</vAcc></extensions></trkpt>
      <trkpt lon="-3.157489" lat="52.998279"><ele>431.541016</ele><time>2021-09-01T12:04:25Z</time><extensions><speed>1.258033</speed><course>315.968140</course><hAcc>0.880444</hAcc><vAcc>0.689795</vAcc></extensions></trkpt>
      <trkpt lon="-3.157505" lat="52.998273"><ele>431.650726</ele><time>2021-09-01T12:04:26Z</time><extensions><speed>1.265839</speed><course>305.843231</course><hAcc>0.880664</hAcc><vAcc>0.690552</vAcc></extensions></trkpt>
      <trkpt lon="-3.157521" lat="52.998267"><ele>431.757660</ele><time>2021-09-01T12:04:27Z</time><extensions><speed>1.271720</speed><course>307.428955</course><hAcc>0.880855</hAcc><vAcc>0.691204</vAcc></extensions></trkpt>
      <trkpt lon="-3.157537" lat="52.998260"><ele>431.862671</ele><time>2021-09-01T12:04:28Z</time><extensions><speed>1.275319</speed><course>303.591888</course><hAcc>0.881011</hAcc><vAcc>0.691727</vAcc></extensions></trkpt>
      <trkpt lon="-3.157553" lat="52.998254"><ele>431.966522</ele><time>2021-09-01T12:04:29Z</time><extensions><speed>1.276886</speed><course>302.311584</course><hAcc>0.881126</hAcc><vAcc>0.692109</vAcc></extensions></trkpt>
      <trkpt lon="-3.157569" lat="52.998248"><ele>432.069916</ele><time>2021-09-01T12:04:30Z</time><extensions><speed>1.276789</speed><course>296.010498</course><hAcc>0.881200</hAcc><vAcc>0.692344</vAcc></extensions></trkpt>
      <trkpt lon="-3.157585" lat="52.998242"><ele>432.173462</ele><time>2021-09-01T12:04:31Z</time><extensions><speed>1.275682</speed><course>298.597748</course><hAcc>0.881230</hAcc><vAcc>0.692431</vAcc></extensions></trkpt>
      <trkpt lon="-3.157601" lat="52.998235"><ele>432.277313</ele><time>2021-09-01T12:04:32Z</time><extensions><speed>1.274903</speed><course>307.419373</course><hAcc>0.881217</hAcc><vAcc>0.692372</vAcc></extensions></trkpt>
      <trkpt lon="-3.157616" lat="52.998229"><ele>432.381470</ele><time>2021-09-01T12:04:33Z</time><extensions><speed>1.275733</speed><course>311.127045</course><hAcc>0.881164</hAcc><vAcc>0.692174</vAcc></extensions></trkpt>
      <trkpt lon="-3.157632" lat="52.998222"><ele>432.485840</ele><time>2021-09-01T12:04:34Z</time><extensions><speed>1.278827</speed><course>308.779785</course><hAcc>0.881077</hAcc><vAcc>0.691850</vAcc></extensions></trkpt>
      <trkpt lon="-3.157648" lat="52.998216"><ele>432.590271</ele><time>2021-09-01T12:04:35Z</time><extensions><speed>1.284653</speed><course>310.817932</course><hAcc>0.880961</hAcc><vAcc>0.691420</vAcc></extensions></trkpt>
      <trkpt lon="-3.157664" lat="52.998209"><ele>432.694855</ele><time>2021-09-01T12:04:36Z</time><extensions><speed>1.293816</speed><course>313.903961</course><hAcc>0.880823</hAcc><vAcc>0.690913</vAcc></extensions></trkpt>
      <trkpt lon="-3.157680" lat="52.998203"><ele>432.799896</ele><time>2021-09-01T12:04:37Z</time><extensions><speed>1.305938</speed><course>312.113068</course><hAcc>0.880673</hAcc><vAcc>0.690362</vAcc></extensions></trkpt>
      <trkpt lon="-3.157696" lat="52.998196"><ele>432.905914</ele><time>2021-09-01T12:04:38Z</time><extensions><speed>1.320120</speed><course>298.693726</course><hAcc>0.880520</hAcc><vAcc>0.689805</vAcc></extensions></trkpt>
      <trkpt lon="-3.157712" lat="52.998190"><ele>433.013214</ele><time>2021-09-01T12:04:39Z</time><extensions><speed>1.335594</speed><course>304.126526</course><hAcc>0.880372</hAcc><vAcc>0.689278</vAcc></extensions></trkpt>
      <trkpt lon="-3.157729" lat="52.998183"><ele>433.121948</ele><time>2021-09-01T12:04:40Z</time><extensions><speed>1.351237</speed><course>307.202972</course><hAcc>0.880236</hAcc><vAcc>0.688806</vAcc></extensions></trkpt>
      <trkpt lon="-3.157746" lat="52.998176"><ele>433.232300</ele><time>2021-09-01T12:04:41Z</time><extensions><speed>1.365704</speed><course>306.849365</course><hAcc>0.880116</hAcc><vAcc>0.688405</vAcc></extensions></trkpt>
      <trkpt lon="-3.157762" lat="52.998169"><ele>433.344086</ele><time>2021-09-01T12:04:42Z</time><extensions><speed>1.377893</speed><course>311.228149</course><hAcc>0.880017</hAcc><vAcc>0.688082</vAcc></extensions></trkpt>
      <trkpt lon="-3.157779" lat="52.998161"><ele>433.456635</ele><time>2021-09-01T12:04:43Z</time><extensions><speed>1.387418</speed><course>314.984741</course><hAcc>0.879938</hAcc><vAcc>0.687840</vAcc></extensions></trkpt>
      <trkpt lon="-3.157796" lat="52.998154"><ele>433.568665</ele><time>2021-09-01T12:04:44Z</time><extensions><speed>1.394356</speed><course>312.149628</course><hAcc>0.879880</hAcc><vAcc>0.687680</vAcc></extensions></trkpt>
      <trkpt lon="-3.157812" lat="52.998147"><ele>433.678680</ele><time>2021-09-01T12:04:45Z</time><extensions><speed>1.399058</speed><course>303.811646</course><hAcc>0.879840</hAcc><vAcc>0.687594</vAcc></extensions></trkpt>
      <trkpt lon="-3.157829" lat="52.998139"><ele>433.785431</ele><time>2021-09-01T12:04:46Z</time><extensions><speed>1.402312</speed><course>306.939087</course><hAcc>0.879814</hAcc><vAcc>0.687567</vAcc></extensions></trkpt>
      <trkpt lon="-3.157846" lat="52.998131"><ele>433.888123</ele><time>2021-09-01T12:04:47Z</time><extensions><speed>1.404534</speed><course>305.149933</course><hAcc>0.879797</hAcc><vAcc>0.687573</vAcc></extensions></trkpt>
      <trkpt lon="-3.157863" lat="52.998124"><ele>433.986176</ele><time>2021-09-01T12:04:48Z</time><extensions><speed>1.405139</speed><course>307.460999</course><hAcc>0.879782</hAcc><vAcc>0.687586</vAcc></extensions></trkpt>
      <trkpt lon="-3.157879" lat="52.998116"><ele>434.079285</ele><time>2021-09-01T12:04:49Z</time><extensions><speed>1.403552</speed><course>310.556549</course><hAcc>0.879764</hAcc><vAcc>0.687576</vAcc></extensions></trkpt>
      <trkpt lon="-3.157896" lat="52.998108"><ele>434.167816</ele><time>2021-09-01T12:04:50Z</time><extensions><speed>1.399915</speed><course>316.643463</course><hAcc>0.879738</hAcc><vAcc>0.687520</vAcc></extensions></trkpt>
      <trkpt lon="-3.157912" lat="52.998101"><ele>434.252625</ele><time>2021-09-01T12:04:51Z</time><extensions><speed>1.394779</speed><course>310.111420</course><hAcc>0.879700</hAcc><vAcc>0.687403</vAcc></extensions></trkpt>
      <trkpt lon="-3.157928" lat="52.998093"><ele>434.334991</ele><time>2021-09-01T12:04:52Z</time><extensions><speed>1.388189</speed><course>309.394775</course><hAcc>0.879651</hAcc><vAcc>0.687226</vAcc></extensions></trkpt>
      <trkpt lon="-3.157944" lat="52.998085"><ele>434.416077</ele><time>2021-09-01T12:04:53Z</time><extensions><speed>1.379980</speed><course>312.734375</course><hAcc>0.879592</hAcc><vAcc>0.687001</vAcc></extensions></trkpt>
      <trkpt lon="-3.157960" lat="52.998077"><ele>434.496674</ele><time>2021-09-01T12:04:54Z</time><extensions><speed>1.370189</speed><course>307.110260</course><hAcc>0.879524</hAcc><vAcc>0.686745</vAcc></extensions></trkpt>
      <trkpt lon="-3.157976" lat="52.998070"><ele>434.577362</ele><time>2021-09-01T12:04:55Z</time><extensions><speed>1.358761</speed><course>304.794312</course><hAcc>0.879454</hAcc><vAcc>0.686481</vAcc></extensions></trkpt>
      <trkpt lon="-3.157992" lat="52.998062"><ele>434.658966</ele><time>2021-09-01T12:04:56Z</time><extensions><speed>1.345520</speed><course>309.669006</course><hAcc>0.879384</hAcc><vAcc>0.686228</vAcc></extensions></trkpt>
      <trkpt lon="-3.158007" lat="52.998055"><ele>434.742371</ele><time>2021-09-01T12:04:57Z</time><extensions><speed>1.330632</speed><course>309.747101</course><hAcc>0.879319</hAcc><vAcc>0.686001</vAcc></extensions></trkpt>
      <trkpt lon="-3.158023" lat="52.998047"><ele>434.828217</ele><time>2021-09-01T12:04:58Z</time><extensions><speed>1.315587</speed><course>308.451904</course><hAcc>0.879261</hAcc><vAcc>0.685807</vAcc></extensions></trkpt>
      <trkpt lon="-3.158039" lat="52.998040"><ele>434.916870</ele><time>2021-09-01T12:04:59Z</time><extensions><speed>1.302226</speed><course>313.674774</course><hAcc>0.879212</hAcc><vAcc>0.685645</vAcc></extensions></trkpt>
      <trkpt lon="-3.158054" lat="52.998033"><ele>435.008698</ele><time>2021-09-01T12:05:00Z</time><extensions><speed>1.291249</speed><course>310.174561</course><hAcc>0.879174</hAcc><vAcc>0.685520</vAcc></extensions></trkpt>
      <trkpt lon="-3.158070" lat="52.998027"><ele>435.104431</ele><time>2021-09-01T12:05:01Z</time><extensions><speed>1.282945</speed><course>312.894348</course><hAcc>0.879150</hAcc><vAcc>0.685438</vAcc></extensions></trkpt>
      <trkpt lon="-3.158086" lat="52.998020"><ele>435.204376</ele><time>2021-09-01T12:05:02Z</time><extensions><speed>1.277646</speed><course>309.740997</course><hAcc>0.879140</hAcc><vAcc>0.685404</vAcc></extensions></trkpt>
      <trkpt lon="-3.158101" lat="52.998014"><ele>435.308350</ele><time>2021-09-01T12:05:03Z</time><extensions><speed>1.275030</speed><course>309.271240</course><hAcc>0.879145</hAcc><vAcc>0.685421</vAcc></extensions></trkpt>
      <trkpt lon="-3.158117" lat="52.998008"><ele>435.415710</ele><time>2021-09-01T12:05:04Z</time><extensions><speed>1.274086</speed><course>309.840485</course><hAcc>0.879165</hAcc><vAcc>0.685487</vAcc></extensions></trkpt>
      <trkpt lon="-3.158134" lat="52.998002"><ele>435.525879</ele><time>2021-09-01T12:05:05Z</time><extensions><speed>1.274214</speed><course>308.054108</course><hAcc>0.879201</hAcc><vAcc>0.685601</vAcc></extensions></trkpt>
      <trkpt lon="-3.158150" lat="52.997996"><ele>435.638519</ele><time>2021-09-01T12:05:06Z</time><extensions><speed>1.274744</speed><course>306.226685</course><hAcc>0.879251</hAcc><vAcc>0.685761</vAcc></extensions></trkpt>
      <trkpt lon="-3.158166" lat="52.997990"><ele>435.753021</ele><time>2021-09-01T12:05:07Z</time><extensions><speed>1.274487</speed><course>316.211884</course><hAcc>0.879315</hAcc><vAcc>0.685968</vAcc></extensions></trkpt>
      <trkpt lon="-3.158182" lat="52.997984"><ele>435.868591</ele><time>2021-09-01T12:05:08Z</time><extensions><speed>1.273303</speed><course>312.798523</course><hAcc>0.879393</hAcc><vAcc>0.686219</vAcc></extensions></trkpt>
      <trkpt lon="-3.158199" lat="52.997978"><ele>435.984619</ele><time>2021-09-01T12:05:09Z</time><extensions><speed>1.271952</speed><course>314.823364</course><hAcc>0.879484</hAcc><vAcc>0.686508</vAcc></extensions></trkpt>
      <trkpt lon="-3.158215" lat="52.997973"><ele>436.100647</ele><time>2021-09-01T12:05:10Z</time><extensions><speed>1.270850</speed><course>317.560303</course><hAcc>0.879585</hAcc><vAcc>0.686834</vAcc></extensions></trkpt>
      <trkpt lon="-3.158232" lat="52.997967"><ele>436.216370</ele><time>2021-09-01T12:05:11Z</time><extensions><speed>1.270397</speed><course>313.870911</course><hAcc>0.879697</hAcc><vAcc>0.687195</vAcc></extensions></trkpt>
      <trkpt lon="-3.158248" lat="52.997961"><ele>436.331268</ele><time>2021-09-01T12:05:12Z</time><extensions><speed>1.270886</speed><course>320.858917</course><hAcc>0.879817</hAcc><vAcc>0.687589</vAcc></extensions></trkpt>
      <trkpt lon="-3.158265" lat="52.997956"><ele>436.444733</ele><time>2021-09-01T12:05:13Z</time><extensions><speed>1.271937</speed><course>322.110107</course><hAcc>0.879943</hAcc><vAcc>0.688008</vAcc></extensions></trkpt>
      <trkpt lon="-3.158281" lat="52.997950"><ele>436.556305</ele><time>2021-09-01T12:05:14Z</time><extensions><speed>1.272741</speed><course>322.258118</course><hAcc>0.880072</hAcc><vAcc>0.688441</vAcc></extensions></trkpt>
      <trkpt lon="-3.158298" lat="52.997945"><ele>436.665833</ele><time>2021-09-01T12:05:15Z</time><extensions><speed>1.272573</speed><course>323.751770</course><hAcc>0.880202</hAcc><vAcc>0.688874</vAcc></extensions></trkpt>
      <trkpt lon="-3.158314" lat="52.997939"><ele>436.773041</ele><time>2021-09-01T12:05:16Z</time><extensions><speed>1.271321</speed><course>311.017761</course><hAcc>0.880330</hAcc><vAcc>0.689300</vAcc></extensions></trkpt>
      <trkpt lon="-3.158331" lat="52.997934"><ele>436.877380</ele><time>2021-09-01T12:05:17Z</time><extensions><speed>1.269127</speed><course>303.134949</course><hAcc>0.880455</hAcc><vAcc>0.689706</vAcc></extensions></trkpt>
      <trkpt lon="-3.158347" lat="52.997928"><ele>436.978210</ele><time>2021-09-01T12:05:18Z</time><extensions><speed>1.266461</speed><course>305.266266</course><hAcc>0.880574</hAcc><vAcc>0.690083</vAcc></extensions></trkpt>
      <trkpt lon="-3.158364" lat="52.997923"><ele>437.075317</ele><time>2021-09-01T12:05:19Z</time><extensions><speed>1.263973</speed><course>306.244568</course><hAcc>0.880685</hAcc><vAcc>0.690427</vAcc></extensions></trkpt>
      <trkpt lon="-3.158381" lat="52.997917"><ele>437.168549</ele><time>2021-09-01T12:05:20Z</time><extensions><speed>1.262190</speed><course>311.028961</course><hAcc>0.880790</hAcc><vAcc>0.690741</vAcc></extensions></trkpt>
      <trkpt lon="-3.158397" lat="52.997912"><ele>437.257904</ele><time>2021-09-01T12:05:21Z</time><extensions><speed>1.261058</speed><course>304.990997</course><hAcc>0.880889</hAcc><vAcc>0.691034</vAcc></extensions></trkpt>
      <trkpt lon="-3.158414" lat="52.997907"><ele>437.343384</ele><time>2021-09-01T12:05:22Z</time><extensions><speed>1.259803</speed><course>305.619354</course><hAcc>0.880982</hAcc><vAcc>0.691316</vAcc></extensions></trkpt>
      <trkpt lon="-3.158430" lat="52.997901"><ele>437.425140</ele><time>2021-09-01T12:05:23Z</time><extensions><speed>1.258102</speed><course>319.038269</course><hAcc>0.881070</hAcc><vAcc>0.691592</vAcc></extensions></trkpt>
      <trkpt lon="-3.158447" lat="52.997896"><ele>437.503632</ele><time>2021-09-01T12:05:24Z</time><extensions><speed>1.255892</speed><course>314.772644</course><hAcc>0.881153</hAcc><vAcc>0.691860</vAcc></extensions></trkpt>
      <trkpt lon="-3.158464" lat="52.997891"><ele>437.579681</ele><time>2021-09-01T12:05:25Z</time><extensions><speed>1.252610</speed><course>314.865356</course><hAcc>0.881230</hAcc><vAcc>0.692116</vAcc></extensions></trkpt>
      <trkpt lon="-3.158480" lat="52.997886"><ele>437.653931</ele><time>2021-09-01T12:05:26Z</time><extensions><speed>1.247703</speed><course>315.584076</course><hAcc>0.881300</hAcc><vAcc>0.692352</vAcc></extensions></trkpt>
      <trkpt lon="-3.158496" lat="52.997881"><ele>437.726593</ele><time>2021-09-01T12:05:27Z</time><extensions><speed>1.241011</speed><course>318.301117</course><hAcc>0.881361</hAcc><vAcc>0.692561</vAcc></extensions></trkpt>
      <trkpt lon="-3.158513" lat="52.997875"><ele>437.797821</ele><time>2021-09-01T12:05:28Z</time><extensions><speed>1.232271</speed><course>308.957520</course><hAcc>0.881412</hAcc><vAcc>0.692737</vAcc></extensions></trkpt>
      <trkpt lon="-3.158529" lat="52.997870"><ele>437.868103</ele><time>2021-09-01T12:05:29Z</time><extensions><speed>1.221373</speed><course>309.679749</course><hAcc>0.881452</hAcc><vAcc>0.692875</vAcc></extensions></trkpt>
      <trkpt lon="-3.158545" lat="52.997865"><ele>437.938202</ele><time>2021-09-01T12:05:30Z</time><extensions><speed>1.208665</speed><course>315.508118</course><hAcc>0.881481</hAcc><vAcc>0.692973</vAcc></extensions></trkpt>
      <trkpt lon="-3.158560" lat="52.997860"><ele>438.008942</ele><time>2021-09-01T12:05:31Z</time><extensions><speed>1.194717</speed><course>315.740204</course><hAcc>0.881496</hAcc><vAcc>0.693029</vAcc></extensions></trkpt>
      <trkpt lon="-3.158576" lat="52.997855"><ele>438.081085</ele><time>2021-09-01T12:05:32Z</time><extensions><speed>1.180337</speed><course>310.654785</course><hAcc>0.881499</hAcc><vAcc>0.693042</vAcc></extensions></trkpt>
      <trkpt lon="-3.158591" lat="52.997849"><ele>438.155151</ele><time>2021-09-01T12:05:33Z</time><extensions><speed>1.166548</speed><course>314.784058</course><hAcc>0.881489</hAcc><vAcc>0.693010</vAcc></extensions></trkpt>
      <trkpt lon="-3.158606" lat="52.997844"><ele>438.231262</ele><time>2021-09-01T12:05:34Z</time><extensions><speed>1.154133</speed><course>306.836517</course><hAcc>0.881466</hAcc><vAcc>0.692935</vAcc></extensions></trkpt>
      <trkpt lon="-3.158621" lat="52.997839"><ele>438.309326</ele><time>2021-09-01T12:05:35Z</time><extensions><speed>1.143340</speed><course>319.014709</course><hAcc>0.881430</hAcc><vAcc>0.692816</vAcc></extensions></trkpt>
      <trkpt lon="-3.158636" lat="52.997834"><ele>438.389008</ele><time>2021-09-01T12:05:36Z</time><extensions><speed>1.134241</speed><course>316.668060</course><hAcc>0.881383</hAcc><vAcc>0.692655</vAcc></extensions></trkpt>
      <trkpt lon="-3.158651" lat="52.997830"><ele>438.470032</ele><time>2021-09-01T12:05:37Z</time><extensions><speed>1.127100</speed><course>317.381256</course><hAcc>0.881325</hAcc><vAcc>0.692454</vAcc></extensions></trkpt>
      <trkpt lon="-3.158666" lat="52.997825"><ele>438.552246</ele><time>2021-09-01T12:05:38Z</time><extensions><speed>1.122055</speed><course>315.522644</course><hAcc>0.881257</hAcc><vAcc>0.692221</vAcc></extensions></trkpt>
      <trkpt lon="-3.158681" lat="52.997821"><ele>438.635742</ele><time>2021-09-01T12:05:39Z</time><extensions><speed>1.118638</speed><course>313.748596</course><hAcc>0.881179</hAcc><vAcc>0.691963</vAcc></extensions></trkpt>
      <trkpt lon="-3.158696" lat="52.997816"><ele>438.720734</ele><time>2021-09-01T12:05:40Z</time><extensions><speed>1.116536</speed><course>311.298676</course><hAcc>0.881091</hAcc><vAcc>0.691684</vAcc></extensions></trkpt>
      <trkpt lon="-3.158711" lat="52.997812"><ele>438.807220</ele><time>2021-09-01T12:05:41Z</time><extensions><speed>1.115757</speed><course>307.453308</course><hAcc>0.880989</hAcc><vAcc>0.691382</vAcc></extensions></trkpt>
      <trkpt lon="-3.158726" lat="52.997808"><ele>438.894989</ele><time>2021-09-01T12:05:42Z</time><extensions><speed>1.116356</speed><course>308.937561</course><hAcc>0.880870</hAcc><vAcc>0.691047</vAcc></extensions></trkpt>
      <trkpt lon="-3.158742" lat="52.997804"><ele>438.983673</ele><time>2021-09-01T12:05:43Z</time><extensions><speed>1.118159</speed><course>304.505646</course><hAcc>0.880727</hAcc><vAcc>0.690661</vAcc></extensions></trkpt>
      <trkpt lon="-3.158757" lat="52.997801"><ele>439.073059</ele><time>2021-09-01T12:05:44Z</time><extensions><speed>1.120821</speed><course>299.094574</course><hAcc>0.880553</hAcc><vAcc>0.690194</vAcc></extensions></trkpt>
      <trkpt lon="-3.158773" lat="52.997797"><ele>439.163177</ele><time>2021-09-01T12:05:45Z</time><extensions><speed>1.124488</speed><course>310.704071</course><hAcc>0.880337</hAcc><vAcc>0.689610</vAcc></extensions></trkpt>
      <trkpt lon="-3.158788" lat="52.997794"><ele>439.253876</ele><time>2021-09-01T12:05:46Z</time><extensions><speed>1.129693</speed><course>308.713898</course><hAcc>0.880070</hAcc><vAcc>0.688866</vAcc></extensions></trkpt>
      <trkpt lon="-3.158804" lat="52.997790"><ele>439.344604</ele><time>2021-09-01T12:05:47Z</time><extensions><speed>1.136525</speed><course>315.990417</course><hAcc>0.879740</hAcc><vAcc>0.687922</vAcc></extensions></trkpt>
      <trkpt lon="-3.158821" lat="52.997787"><ele>439.434296</ele><time>2021-09-01T12:05:48Z</time><extensions><speed>1.144200</speed><course>316.941956</course><hAcc>0.879338</hAcc><vAcc>0.686738</vAcc></extensions></trkpt>
      <trkpt lon="-3.158837" lat="52.997784"><ele>439.521698</ele><time>2021-09-01T12:05:49Z</time><extensions><speed>1.152074</speed><course>326.025696</course><hAcc>0.878856</hAcc><vAcc>0.685285</vAcc></extensions></trkpt>
      <trkpt lon="-3.158853" lat="52.997781"><ele>439.605652</ele><time>2021-09-01T12:05:50Z</time><extensions><speed>1.159804</speed><course>316.997101</course><hAcc>0.878288</hAcc><vAcc>0.683543</vAcc></extensions></trkpt>
      <trkpt lon="-3.158870" lat="52.997778"><ele>439.684784</ele><time>2021-09-01T12:05:51Z</time><extensions><speed>1.167231</speed><course>307.396637</course><hAcc>0.877630</hAcc><vAcc>0.681498</vAcc></extensions></trkpt>
      <trkpt lon="-3.158887" lat="52.997775"><ele>439.757751</ele><time>2021-09-01T12:05:52Z</time><extensions><speed>1.174178</speed><course>307.245117</course><hAcc>0.876881</hAcc><vAcc>0.679145</vAcc></extensions></trkpt>
      <trkpt lon="-3.158904" lat="52.997772"><ele>439.823303</ele><time>2021-09-01T12:05:54Z</time><extensions><speed>1.180673</speed><course>302.943970</course><hAcc>0.876026</hAcc><vAcc>0.676473</vAcc></extensions></trkpt>
      <trkpt lon="-3.158921" lat="52.997770"><ele>439.880035</ele><time>2021-09-01T12:05:55Z</time><extensions><speed>1.187094</speed><course>310.986115</course><hAcc>0.875071</hAcc><vAcc>0.673501</vAcc></extensions></trkpt>
      <trkpt lon="-3.158938" lat="52.997767"><ele>439.927338</ele><time>2021-09-01T12:05:56Z</time><extensions><speed>1.193724</speed><course>317.229156</course><hAcc>0.874042</hAcc><vAcc>0.670271</vAcc></extensions></trkpt>
      <trkpt lon="-3.158955" lat="52.997765"><ele>439.965210</ele><time>2021-09-01T12:05:57Z</time><extensions><speed>1.200870</speed><course>310.287506</course><hAcc>0.872953</hAcc><vAcc>0.666824</vAcc></extensions></trkpt>
      <trkpt lon="-3.158973" lat="52.997762"><ele>439.993652</ele><time>2021-09-01T12:05:58Z</time><extensions><speed>1.209125</speed><course>314.657898</course><hAcc>0.871820</hAcc><vAcc>0.663222</vAcc></extensions></trkpt>
      <trkpt lon="-3.158990" lat="52.997760"><ele>440.012146</ele><time>2021-09-01T12:05:59Z</time><extensions><speed>1.219188</speed><course>316.163879</course><hAcc>0.870662</hAcc><vAcc>0.659533</vAcc></extensions></trkpt>
      <trkpt lon="-3.159008" lat="52.997757"><ele>440.019928</ele><time>2021-09-01T12:06:00Z</time><extensions><speed>1.231382</speed><course>315.280670</course><hAcc>0.869500</hAcc><vAcc>0.655829</vAcc></extensions></trkpt>
      <trkpt lon="-3.159026" lat="52.997755"><ele>440.016724</ele><time>2021-09-01T12:06:01Z</time><extensions><speed>1.245251</speed><course>323.358459</course><hAcc>0.868353</hAcc><vAcc>0.652176</vAcc></extensions></trkpt>
      <trkpt lon="-3.159044" lat="52.997752"><ele>440.002838</ele><time>2021-09-01T12:06:02Z</time><extensions><speed>1.260062</speed><course>323.478973</course><hAcc>0.867240</hAcc><vAcc>0.648633</vAcc></extensions></trkpt>
      <trkpt lon="-3.159063" lat="52.997749"><ele>439.978729</ele><time>2021-09-01T12:06:03Z</time><extensions><speed>1.275211</speed><course>327.884216</course><hAcc>0.866182</hAcc><vAcc>0.645268</vAcc></extensions></trkpt>
      <trkpt lon="-3.159081" lat="52.997747"><ele>439.944672</ele><time>2021-09-01T12:06:03Z</time><extensions><speed>1.290354</speed><course>318.187775</course><hAcc>0.865219</hAcc><vAcc>0.642168</vAcc></extensions></trkpt>
      <trkpt lon="-3.159100" lat="52.997744"><ele>439.901123</ele><time>2021-09-01T12:06:04Z</time><extensions><speed>1.305057</speed><course>318.936035</course><hAcc>0.864370</hAcc><vAcc>0.639394</vAcc></extensions></trkpt>
      <trkpt lon="-3.159119" lat="52.997741"><ele>439.849945</ele><time>2021-09-01T12:06:05Z</time><extensions><speed>1.318523</speed><course>326.780121</course><hAcc>0.863633</hAcc><vAcc>0.636991</vAcc></extensions></trkpt>
      <trkpt lon="-3.159138" lat="52.997737"><ele>439.794891</ele><time>2021-09-01T12:06:06Z</time><extensions><speed>1.329610</speed><course>314.218445</course><hAcc>0.863021</hAcc><vAcc>0.634997</vAcc></extensions></trkpt>
      <trkpt lon="-3.159157" lat="52.997734"><ele>439.741272</ele><time>2021-09-01T12:06:07Z</time><extensions><speed>1.336945</speed><course>317.554047</course><hAcc>0.862541</hAcc><vAcc>0.633439</vAcc></extensions></trkpt>
      <trkpt lon="-3.159176" lat="52.997731"><ele>439.694946</ele><time>2021-09-01T12:06:08Z</time><extensions><speed>1.340391</speed><course>317.225586</course><hAcc>0.862195</hAcc><vAcc>0.632319</vAcc></extensions></trkpt>
      <trkpt lon="-3.159195" lat="52.997727"><ele>439.660400</ele><time>2021-09-01T12:06:09Z</time><extensions><speed>1.340679</speed><course>318.371796</course><hAcc>0.861973</hAcc><vAcc>0.631603</vAcc></extensions></trkpt>
      <trkpt lon="-3.159214" lat="52.997724"><ele>439.639832</ele><time>2021-09-01T12:06:10Z</time><extensions><speed>1.338179</speed><course>319.534454</course><hAcc>0.861856</hAcc><vAcc>0.631232</vAcc></extensions></trkpt>
      <trkpt lon="-3.159233" lat="52.997720"><ele>439.633087</ele><time>2021-09-01T12:06:11Z</time><extensions><speed>1.332381</speed><course>319.948578</course><hAcc>0.861827</hAcc><vAcc>0.631148</vAcc></extensions></trkpt>
      <trkpt lon="-3.159251" lat="52.997716"><ele>439.638611</ele><time>2021-09-01T12:06:12Z</time><extensions><speed>1.322577</speed><course>326.867279</course><hAcc>0.861870</hAcc><vAcc>0.631294</vAcc></extensions></trkpt>
      <trkpt lon="-3.159270" lat="52.997711"><ele>439.654510</ele><time>2021-09-01T12:06:13Z</time><extensions><speed>1.308923</speed><course>319.995087</course><hAcc>0.861966</hAcc><vAcc>0.631611</vAcc></extensions></trkpt>
      <trkpt lon="-3.159287" lat="52.997707"><ele>439.679565</ele><time>2021-09-01T12:06:14Z</time><extensions><speed>1.292469</speed><course>323.754486</course><hAcc>0.862100</hAcc><vAcc>0.632040</vAcc></extensions></trkpt>
      <trkpt lon="-3.159305" lat="52.997702"><ele>439.712738</ele><time>2021-09-01T12:06:15Z</time><extensions><speed>1.274530</speed><course>327.994751</course><hAcc>0.862257</hAcc><vAcc>0.632524</vAcc></extensions></trkpt>
      <trkpt lon="-3.159322" lat="52.997697"><ele>439.752594</ele><time>2021-09-01T12:06:16Z</time><extensions><speed>1.256297</speed><course>338.740143</course><hAcc>0.862427</hAcc><vAcc>0.633016</vAcc></extensions></trkpt>
      <trkpt lon="-3.159338" lat="52.997691"><ele>439.798035</ele><time>2021-09-01T12:06:17Z</time><extensions><speed>1.238797</speed><course>336.648224</course><hAcc>0.862607</hAcc><vAcc>0.633480</vAcc></extensions></trkpt>
      <trkpt lon="-3.159353" lat="52.997686"><ele>439.848907</ele><time>2021-09-01T12:06:18Z</time><extensions><speed>1.223162</speed><course>335.818359</course><hAcc>0.862802</hAcc><vAcc>0.633901</vAcc></extensions></trkpt>
      <trkpt lon="-3.159369" lat="52.997679"><ele>439.905670</ele><time>2021-09-01T12:06:19Z</time><extensions><speed>1.210618</speed><course>332.183533</course><hAcc>0.863027</hAcc><vAcc>0.634283</vAcc></extensions></trkpt>
      <trkpt lon="-3.159383" lat="52.997673"><ele>439.969086</ele><time>2021-09-01T12:06:20Z</time><extensions><speed>1.202179</speed><course>329.123840</course><hAcc>0.863304</hAcc><vAcc>0.634640</vAcc></extensions></trkpt>
      <trkpt lon="-3.159397" lat="52.997666"><ele>440.039825</ele><time>2021-09-01T12:06:21Z</time><extensions><speed>1.198523</speed><course>331.386230</course><hAcc>0.863658</hAcc><vAcc>0.634979</vAcc></extensions></trkpt>
      <trkpt lon="-3.159410" lat="52.997659"><ele>440.117554</ele><time>2021-09-01T12:06:22Z</time><extensions><speed>1.199630</speed><course>327.161377</course><hAcc>0.864116</hAcc><vAcc>0.635303</vAcc></extensions></trkpt>
      <trkpt lon="-3.159423" lat="52.997652"><ele>440.200806</ele><time>2021-09-01T12:06:23Z</time><extensions><speed>1.204858</speed><course>327.868042</course><hAcc>0.864702</hAcc><vAcc>0.635613</vAcc></extensions></trkpt>
      <trkpt lon="-3.159436" lat="52.997644"><ele>440.288330</ele><time>2021-09-01T12:06:24Z</time><extensions><speed>1.213040</speed><course>323.627838</course><hAcc>0.865443</hAcc><vAcc>0.635916</vAcc></extensions></trkpt>
      <trkpt lon="-3.159448" lat="52.997636"><ele>440.379211</ele><time>2021-09-01T12:06:25Z</time><extensions><speed>1.222437</speed><course>324.612000</course><hAcc>0.866353</hAcc><vAcc>0.636223</vAcc></extensions></trkpt>
      <trkpt lon="-3.159460" lat="52.997627"><ele>440.473297</ele><time>2021-09-01T12:06:26Z</time><extensions><speed>1.231642</speed><course>314.250275</course><hAcc>0.867431</hAcc><vAcc>0.636542</vAcc></extensions></trkpt>
      <trkpt lon="-3.159471" lat="52.997619"><ele>440.570526</ele><time>2021-09-01T12:06:27Z</time><extensions><speed>1.240207</speed><course>324.325928</course><hAcc>0.868651</hAcc><vAcc>0.636873</vAcc></extensions></trkpt>
      <trkpt lon="-3.159482" lat="52.997610"><ele>440.670074</ele><time>2021-09-01T12:06:28Z</time><extensions><speed>1.248581</speed><course>323.620239</course><hAcc>0.869962</hAcc><vAcc>0.637206</vAcc></extensions></trkpt>
      <trkpt lon="-3.159493" lat="52.997600"><ele>440.770294</ele><time>2021-09-01T12:06:29Z</time><extensions><speed>1.257306</speed><course>318.647095</course><hAcc>0.871304</hAcc><vAcc>0.637534</vAcc></extensions></trkpt>
      <trkpt lon="-3.159503" lat="52.997591"><ele>440.869751</ele><time>2021-09-01T12:06:30Z</time><extensions><speed>1.265966</speed><course>325.356964</course><hAcc>0.872619</hAcc><vAcc>0.637853</vAcc></extensions></trkpt>
      <trkpt lon="-3.159513" lat="52.997581"><ele>440.967407</ele><time>2021-09-01T12:06:31Z</time><extensions><speed>1.273379</speed><course>319.826599</course><hAcc>0.873855</hAcc><vAcc>0.638169</vAcc></extensions></trkpt>
      <trkpt lon="-3.159523" lat="52.997571"><ele>441.062408</ele><time>2021-09-01T12:06:32Z</time><extensions><speed>1.278437</speed><course>314.735016</course><hAcc>0.874969</hAcc><vAcc>0.638502</vAcc></extensions></trkpt>
      <trkpt lon="-3.159532" lat="52.997561"><ele>441.153992</ele><time>2021-09-01T12:06:33Z</time><extensions><speed>1.279838</speed><course>309.478760</course><hAcc>0.875928</hAcc><vAcc>0.638880</vAcc></extensions></trkpt>
      <trkpt lon="-3.159541" lat="52.997551"><ele>441.241608</ele><time>2021-09-01T12:06:34Z</time><extensions><speed>1.276635</speed><course>319.543488</course><hAcc>0.876708</hAcc><vAcc>0.639338</vAcc></extensions></trkpt>
      <trkpt lon="-3.159550" lat="52.997541"><ele>441.325104</ele><time>2021-09-01T12:06:35Z</time><extensions><speed>1.269083</speed><course>324.087982</course><hAcc>0.877295</hAcc><vAcc>0.639901</vAcc></extensions></trkpt>
      <trkpt lon="-3.159559" lat="52.997531"><ele>441.404755</ele><time>2021-09-01T12:06:36Z</time><extensions><speed>1.258161</speed><course>317.628326</course><hAcc>0.877691</hAcc><vAcc>0.640578</vAcc></extensions></trkpt>
      <trkpt lon="-3.159567" lat="52.997521"><ele>441.480560</ele><time>2021-09-01T12:06:37Z</time><extensions><speed>1.245062</speed><course>311.843903</course><hAcc>0.877915</hAcc><vAcc>0.641362</vAcc></extensions></trkpt>
      <trkpt lon="-3.159575" lat="52.997511"><ele>441.552216</ele><time>2021-09-01T12:06:38Z</time><extensions><speed>1.230784</speed><course>320.026215</course><hAcc>0.878010</hAcc><vAcc>0.642232</vAcc></extensions></trkpt>
      <trkpt lon="-3.159583" lat="52.997501"><ele>441.619354</ele><time>2021-09-01T12:06:39Z</time><extensions><speed>1.216627</speed><course>320.448669</course><hAcc>0.878039</hAcc><vAcc>0.643157</vAcc></extensions></trkpt>
      <trkpt lon="-3.159591" lat="52.997491"><ele>441.681793</ele><time>2021-09-01T12:06:40Z</time><extensions><speed>1.204261</speed><course>324.626526</course><hAcc>0.878079</hAcc><vAcc>0.644108</vAcc></extensions></trkpt>
      <trkpt lon="-3.159599" lat="52.997482"><ele>441.739594</ele><time>2021-09-01T12:06:41Z</time><extensions><speed>1.194563</speed><course>326.167938</course><hAcc>0.878205</hAcc><vAcc>0.645061</vAcc></extensions></trkpt>
      <trkpt lon="-3.159606" lat="52.997472"><ele>441.793030</ele><time>2021-09-01T12:06:42Z</time><extensions><speed>1.187569</speed><course>325.390656</course><hAcc>0.878471</hAcc><vAcc>0.646011</vAcc></extensions></trkpt>
      <trkpt lon="-3.159614" lat="52.997462"><ele>441.842529</ele><time>2021-09-01T12:06:43Z</time><extensions><speed>1.183450</speed><course>314.974457</course><hAcc>0.878909</hAcc><vAcc>0.646966</vAcc></extensions></trkpt>
      <trkpt lon="-3.159622" lat="52.997453"><ele>441.888580</ele><time>2021-09-01T12:06:44Z</time><extensions><speed>1.182164</speed><course>325.724579</course><hAcc>0.879528</hAcc><vAcc>0.647946</vAcc></extensions></trkpt>
      <trkpt lon="-3.159630" lat="52.997443"><ele>441.931885</ele><time>2021-09-01T12:06:45Z</time><extensions><speed>1.183317</speed><course>318.034210</course><hAcc>0.880328</hAcc><vAcc>0.648966</vAcc></extensions></trkpt>
      <trkpt lon="-3.159639" lat="52.997434"><ele>441.973206</ele><time>2021-09-01T12:06:46Z</time><extensions><speed>1.186739</speed><course>313.475250</course><hAcc>0.881301</hAcc><vAcc>0.650029</vAcc></extensions></trkpt>
      <trkpt lon="-3.159647" lat="52.997425"><ele>442.013092</ele><time>2021-09-01T12:06:47Z</time><extensions><speed>1.192715</speed><course>321.089203</course><hAcc>0.882445</hAcc><vAcc>0.651123</vAcc></extensions></trkpt>
      <trkpt lon="-3.159656" lat="52.997415"><ele>442.051544</ele><time>2021-09-01T12:06:48Z</time><extensions><speed>1.201760</speed><course>329.810181</course><hAcc>0.883763</hAcc><vAcc>0.652220</vAcc></extensions></trkpt>
      <trkpt lon="-3.159666" lat="52.997406"><ele>442.088562</ele><time>2021-09-01T12:06:49Z</time><extensions><speed>1.213791</speed><course>327.314850</course><hAcc>0.885261</hAcc><vAcc>0.653285</vAcc></extensions></trkpt>
      <trkpt lon="-3.159675" lat="52.997397"><ele>442.124176</ele><time>2021-09-01T12:06:50Z</time><extensions><speed>1.228043</speed><course>321.503876</course><hAcc>0.886929</hAcc><vAcc>0.654286</vAcc></extensions></trkpt>
      <trkpt lon="-3.159685" lat="52.997388"><ele>442.158600</ele><time>2021-09-01T12:06:51Z</time><extensions><speed>1.243092</speed><course>323.534607</course><hAcc>0.888732</hAcc><vAcc>0.655199</vAcc></extensions></trkpt>
      <trkpt lon="-3.159696" lat="52.997378"><ele>442.192291</ele><time>2021-09-01T12:06:52Z</time><extensions><speed>1.257579</speed><course>325.158722</course><hAcc>0.890604</hAcc><vAcc>0.656015</vAcc></extensions></trkpt>
      <trkpt lon="-3.159706" lat="52.997369"><ele>442.225769</ele><time>2021-09-01T12:06:53Z</time><extensions><speed>1.270749</speed><course>329.447083</course><hAcc>0.892453</hAcc><vAcc>0.656741</vAcc></extensions></trkpt>
      <trkpt lon="-3.159718" lat="52.997360"><ele>442.259308</ele><time>2021-09-01T12:06:54Z</time><extensions><speed>1.282019</speed><course>331.191650</course><hAcc>0.894168</hAcc><vAcc>0.657395</vAcc></extensions></trkpt>
      <trkpt lon="-3.159729" lat="52.997350"><ele>442.293152</ele><time>2021-09-01T12:06:55Z</time><extensions><speed>1.291164</speed><course>334.557068</course><hAcc>0.895642</hAcc><vAcc>0.658000</vAcc></extensions></trkpt>
      <trkpt lon="-3.159740" lat="52.997341"><ele>442.327820</ele><time>2021-09-01T12:06:56Z</time><extensions><speed>1.298640</speed><course>336.690918</course><hAcc>0.896790</hAcc><vAcc>0.658564</vAcc></extensions></trkpt>
      <trkpt lon="-3.159751" lat="52.997331"><ele>442.364227</ele><time>2021-09-01T12:06:57Z</time><extensions><speed>1.305014</speed><course>337.183258</course><hAcc>0.897568</hAcc><vAcc>0.659078</vAcc></extensions></trkpt>
      <trkpt lon="-3.159763" lat="52.997322"><ele>442.403351</ele><time>2021-09-01T12:06:58Z</time><extensions><speed>1.310492</speed><course>318.997711</course><hAcc>0.897997</hAcc><vAcc>0.659511</vAcc></extensions></trkpt>
      <trkpt lon="-3.159774" lat="52.997312"><ele>442.446289</ele><time>2021-09-01T12:06:59Z</time><extensions><speed>1.315331</speed><course>315.791901</course><hAcc>0.898149</hAcc><vAcc>0.659833</vAcc></extensions></trkpt>
      <trkpt lon="-3.159785" lat="52.997302"><ele>442.493744</ele><time>2021-09-01T12:07:00Z</time><extensions><speed>1.320071</speed><course>315.791901</course><hAcc>0.898131</hAcc><vAcc>0.660025</vAcc></extensions></trkpt>
      <trkpt lon="-3.159796" lat="52.997293"><ele>442.545776</ele><time>2021-09-01T12:07:01Z</time><extensions><speed>1.325655</speed><course>315.791901</course><hAcc>0.898044</hAcc><vAcc>0.660083</vAcc></extensions></trkpt>
      <trkpt lon="-3.159807" lat="52.997283"><ele>442.601807</ele><time>2021-09-01T12:07:02Z</time><extensions><speed>1.333041</speed><course>315.791901</course><hAcc>0.897980</hAcc><vAcc>0.660016</vAcc></extensions></trkpt>
      <trkpt lon="-3.159818" lat="52.997272"><ele>442.660583</ele><time>2021-09-01T12:07:03Z</time><extensions><speed>1.342543</speed><course>315.791901</course><hAcc>0.898008</hAcc><vAcc>0.659845</vAcc></extensions></trkpt>
      <trkpt lon="-3.159829" lat="52.997262"><ele>442.720917</ele><time>2021-09-01T12:07:04Z</time><extensions><speed>1.353647</speed><course>315.791901</course><hAcc>0.898164</hAcc><vAcc>0.659601</vAcc></extensions></trkpt>
      <trkpt lon="-3.159839" lat="52.997252"><ele>442.782013</ele><time>2021-09-01T12:07:05Z</time><extensions><speed>1.365729</speed><course>315.791901</course><hAcc>0.898453</hAcc><vAcc>0.659323</vAcc></extensions></trkpt>
      <trkpt lon="-3.159850" lat="52.997241"><ele>442.843933</ele><time>2021-09-01T12:07:06Z</time><extensions><speed>1.379037</speed><course>315.791901</course><hAcc>0.898847</hAcc><vAcc>0.659047</vAcc></extensions></trkpt>
      <trkpt lon="-3.159861" lat="52.997231"><ele>442.907135</ele><time>2021-09-01T12:07:07Z</time><extensions><speed>1.394120</speed><course>315.791901</course><hAcc>0.899289</hAcc><vAcc>0.658800</vAcc></extensions></trkpt>
      <trkpt lon="-3.159872" lat="52.997220"><ele>442.971558</ele><time>2021-09-01T12:07:08Z</time><extensions><speed>1.411242</speed><course>315.791901</course><hAcc>0.899702</hAcc><vAcc>0.658600</vAcc></extensions></trkpt>
      <trkpt lon="-3.159884" lat="52.997209"><ele>443.036591</ele><time>2021-09-01T12:07:09Z</time><extensions><speed>1.429812</speed><course>315.791901</course><hAcc>0.900010</hAcc><vAcc>0.658456</vAcc></extensions></trkpt>
      <trkpt lon="-3.159895" lat="52.997198"><ele>443.101654</ele><time>2021-09-01T12:07:10Z</time><extensions><speed>1.448420</speed><course>315.791901</course><hAcc>0.900166</hAcc><vAcc>0.658371</vAcc></extensions></trkpt>
      <trkpt lon="-3.159907" lat="52.997187"><ele>443.166504</ele><time>2021-09-01T12:07:11Z</time><extensions><speed>1.465643</speed><course>315.791901</course><hAcc>0.900157</hAcc><vAcc>0.658329</vAcc></extensions></trkpt>
      <trkpt lon="-3.159919" lat="52.997176"><ele>443.231201</ele><time>2021-09-01T12:07:12Z</time><extensions><speed>1.480162</speed><course>315.791901</course><hAcc>0.900007</hAcc><vAcc>0.658294</vAcc></extensions></trkpt>
      <trkpt lon="-3.159931" lat="52.997165"><ele>443.295746</ele><time>2021-09-01T12:07:13Z</time><extensions><speed>1.491389</speed><course>315.791901</course><hAcc>0.899779</hAcc><vAcc>0.658219</vAcc></extensions></trkpt>
      <trkpt lon="-3.159943" lat="52.997154"><ele>443.360016</ele><time>2021-09-01T12:07:14Z</time><extensions><speed>1.499063</speed><course>324.368835</course><hAcc>0.899571</hAcc><vAcc>0.658056</vAcc></extensions></trkpt>
      <trkpt lon="-3.159955" lat="52.997142"><ele>443.423676</ele><time>2021-09-01T12:07:15Z</time><extensions><speed>1.502398</speed><course>336.936340</course><hAcc>0.899501</hAcc><vAcc>0.657785</vAcc></extensions></trkpt>
      <trkpt lon="-3.159967" lat="52.997131"><ele>443.486298</ele><time>2021-09-01T12:07:16Z</time><extensions><speed>1.500966</speed><course>334.067902</course><hAcc>0.899664</hAcc><vAcc>0.657415</vAcc></extensions></trkpt>
      <trkpt lon="-3.159979" lat="52.997120"><ele>443.547546</ele><time>2021-09-01T12:07:17Z</time><extensions><speed>1.495099</speed><course>335.500000</course><hAcc>0.900112</hAcc><vAcc>0.656987</vAcc></extensions></trkpt>
      <trkpt lon="-3.159991" lat="52.997108"><ele>443.607391</ele><time>2021-09-01T12:07:18Z</time><extensions><speed>1.485149</speed><course>331.822205</course><hAcc>0.900853</hAcc><vAcc>0.656553</vAcc></extensions></trkpt>
      <trkpt lon="-3.160002" lat="52.997097"><ele>443.665894</ele><time>2021-09-01T12:07:19Z</time><extensions><speed>1.471746</speed><course>332.566284</course><hAcc>0.901857</hAcc><vAcc>0.656175</vAcc></extensions></trkpt>
      <trkpt lon="-3.160014" lat="52.997086"><ele>443.722961</ele><time>2021-09-01T12:07:20Z</time><extensions><speed>1.455167</speed><course>322.442413</course><hAcc>0.903063</hAcc><vAcc>0.655923</vAcc></extensions></trkpt>
      <trkpt lon="-3.160026" lat="52.997075"><ele>443.778839</ele><time>2021-09-01T12:07:21Z</time><extensions><speed>1.435211</speed><course>328.923309</course><hAcc>0.904392</hAcc><vAcc>0.655865</vAcc></extensions></trkpt>
      <trkpt lon="-3.160037" lat="52.997064"><ele>443.834137</ele><time>2021-09-01T12:07:22Z</time><extensions><speed>1.411667</speed><course>332.979462</course><hAcc>0.905760</hAcc><vAcc>0.656052</vAcc></extensions></trkpt>
      <trkpt lon="-3.160048" lat="52.997054"><ele>443.889496</ele><time>2021-09-01T12:07:23Z</time><extensions><speed>1.384112</speed><course>326.583588</course><hAcc>0.907101</hAcc><vAcc>0.656507</vAcc></extensions></trkpt>
      <trkpt lon="-3.160059" lat="52.997043"><ele>443.945129</ele><time>2021-09-01T12:07:24Z</time><extensions><speed>1.353029</speed><course>333.004852</course><hAcc>0.908387</hAcc><vAcc>0.657218</vAcc></extensions></trkpt>
      <trkpt lon="-3.160070" lat="52.997033"><ele>444.001038</ele><time>2021-09-01T12:07:25Z</time><extensions><speed>1.319914</speed><course>328.891602</course><hAcc>0.909610</hAcc><vAcc>0.658149</vAcc></extensions></trkpt>
      <trkpt lon="-3.160080" lat="52.997023"><ele>444.057373</ele><time>2021-09-01T12:07:26Z</time><extensions><speed>1.285995</speed><course>329.156494</course><hAcc>0.910775</hAcc><vAcc>0.659243</vAcc></extensions></trkpt>
      <trkpt lon="-3.160090" lat="52.997014"><ele>444.114441</ele><time>2021-09-01T12:07:27Z</time><extensions><speed>1.251918</speed><course>329.450256</course><hAcc>0.911886</hAcc><vAcc>0.660424</vAcc></extensions></trkpt>
      <trkpt lon="-3.160100" lat="52.997004"><ele>444.172760</ele><time>2021-09-01T12:07:28Z</time><extensions><speed>1.218332</speed><course>329.886902</course><hAcc>0.912942</hAcc><vAcc>0.661606</vAcc></extensions></trkpt>
      <trkpt lon="-3.160109" lat="52.996995"><ele>444.233032</ele><time>2021-09-01T12:07:29Z</time><extensions><speed>1.186011</speed><course>332.708923</course><hAcc>0.913937</hAcc><vAcc>0.662707</vAcc></extensions></trkpt>
      <trkpt lon="-3.160119" lat="52.996986"><ele>444.296112</ele><time>2021-09-01T12:07:30Z</time><extensions><speed>1.155419</speed><course>337.086456</course><hAcc>0.914853</hAcc><vAcc>0.663654</vAcc></extensions></trkpt>
      <trkpt lon="-3.160128" lat="52.996977"><ele>444.362640</ele><time>2021-09-01T12:07:31Z</time><extensions><speed>1.126808</speed><course>335.947693</course><hAcc>0.915663</hAcc><vAcc>0.664397</vAcc></extensions></trkpt>
      <trkpt lon="-3.160136" lat="52.996969"><ele>444.432800</ele><time>2021-09-01T12:07:32Z</time><extensions><speed>1.100424</speed><course>332.293579</course><hAcc>0.916328</hAcc><vAcc>0.664912</vAcc></extensions></trkpt>
      <trkpt lon="-3.160145" lat="52.996961"><ele>444.506287</ele><time>2021-09-01T12:07:33Z</time><extensions><speed>1.076595</speed><course>330.673279</course><hAcc>0.916803</hAcc><vAcc>0.665189</vAcc></extensions></trkpt>
      <trkpt lon="-3.160153" lat="52.996952"><ele>444.582367</ele><time>2021-09-01T12:07:34Z</time><extensions><speed>1.055675</speed><course>325.868774</course><hAcc>0.917051</hAcc><vAcc>0.665235</vAcc></extensions></trkpt>
      <trkpt lon="-3.160161" lat="52.996944"><ele>444.660156</ele><time>2021-09-01T12:07:35Z</time><extensions><speed>1.037693</speed><course>320.652771</course><hAcc>0.917061</hAcc><vAcc>0.665077</vAcc></extensions></trkpt>
      <trkpt lon="-3.160170" lat="52.996937"><ele>444.738800</ele><time>2021-09-01T12:07:36Z</time><extensions><speed>1.022218</speed><course>317.759430</course><hAcc>0.916854</hAcc><vAcc>0.664765</vAcc></extensions></trkpt>
      <trkpt lon="-3.160177" lat="52.996929"><ele>444.816986</ele><time>2021-09-01T12:07:37Z</time><extensions><speed>1.009226</speed><course>312.631989</course><hAcc>0.916475</hAcc><vAcc>0.664370</vAcc></extensions></trkpt>
      <trkpt lon="-3.160185" lat="52.996921"><ele>444.892975</ele><time>2021-09-01T12:07:38Z</time><extensions><speed>0.999700</speed><course>318.114197</course><hAcc>0.915992</hAcc><vAcc>0.663966</vAcc></extensions></trkpt>
      <trkpt lon="-3.160193" lat="52.996914"><ele>444.965363</ele><time>2021-09-01T12:07:39Z</time><extensions><speed>0.994802</speed><course>324.507172</course><hAcc>0.915504</hAcc><vAcc>0.663611</vAcc></extensions></trkpt>
      <trkpt lon="-3.160201" lat="52.996906"><ele>445.033264</ele><time>2021-09-01T12:07:40Z</time><extensions><speed>0.995502</speed><course>327.082703</course><hAcc>0.915126</hAcc><vAcc>0.663355</vAcc></extensions></trkpt>
      <trkpt lon="-3.160208" lat="52.996898"><ele>445.095764</ele><time>2021-09-01T12:07:41Z</time><extensions><speed>1.002699</speed><course>329.958954</course><hAcc>0.914966</hAcc><vAcc>0.663237</vAcc></extensions></trkpt>
      <trkpt lon="-3.160216" lat="52.996890"><ele>445.151794</ele><time>2021-09-01T12:07:42Z</time><extensions><speed>1.016775</speed><course>328.035645</course><hAcc>0.915102</hAcc><vAcc>0.663288</vAcc></extensions></trkpt>
      <trkpt lon="-3.160223" lat="52.996882"><ele>445.200439</ele><time>2021-09-01T12:07:43Z</time><extensions><speed>1.037328</speed><course>327.514526</course><hAcc>0.915554</hAcc><vAcc>0.663507</vAcc></extensions></trkpt>
      <trkpt lon="-3.160230" lat="52.996874"><ele>445.241333</ele><time>2021-09-01T12:07:44Z</time><extensions><speed>1.063454</speed><course>320.027710</course><hAcc>0.916279</hAcc><vAcc>0.663862</vAcc></extensions></trkpt>
      <trkpt lon="-3.160237" lat="52.996865"><ele>445.274841</ele><time>2021-09-01T12:07:45Z</time><extensions><speed>1.094283</speed><course>323.596710</course><hAcc>0.917171</hAcc><vAcc>0.664292</vAcc></extensions></trkpt>
      <trkpt lon="-3.160244" lat="52.996856"><ele>445.301636</ele><time>2021-09-01T12:07:46Z</time><extensions><speed>1.129113</speed><course>326.277405</course><hAcc>0.918074</hAcc><vAcc>0.664728</vAcc></extensions></trkpt>
      <trkpt lon="-3.160251" lat="52.996846"><ele>445.322693</ele><time>2021-09-01T12:07:47Z</time><extensions><speed>1.167138</speed><course>327.083344</course><hAcc>0.918809</hAcc><vAcc>0.665100</vAcc></extensions></trkpt>
      <trkpt lon="-3.160257" lat="52.996837"><ele>445.339355</ele><time>2021-09-01T12:07:48Z</time><extensions><speed>1.207473</speed><course>330.723541</course><hAcc>0.919198</hAcc><vAcc>0.665337</vAcc></extensions></trkpt>
      <trkpt lon="-3.160264" lat="52.996826"><ele>445.353271</ele><time>2021-09-01T12:07:49Z</time><extensions><speed>1.249106</speed><course>328.902985</course><hAcc>0.919094</hAcc><vAcc>0.665375</vAcc></extensions></trkpt>
      <trkpt lon="-3.160270" lat="52.996815"><ele>445.366241</ele><time>2021-09-01T12:07:50Z</time><extensions><speed>1.290810</speed><course>325.540680</course><hAcc>0.918405</hAcc><vAcc>0.665155</vAcc></extensions></trkpt>
      <trkpt lon="-3.160276" lat="52.996804"><ele>445.379852</ele><time>2021-09-01T12:07:51Z</time><extensions><speed>1.330980</speed><course>326.969879</course><hAcc>0.917118</hAcc><vAcc>0.664617</vAcc></extensions></trkpt>
      <trkpt lon="-3.160281" lat="52.996792"><ele>445.394806</ele><time>2021-09-01T12:07:52Z</time><extensions><speed>1.367248</speed><course>320.316467</course><hAcc>0.915289</hAcc><vAcc>0.663701</vAcc></extensions></trkpt>
      <trkpt lon="-3.160286" lat="52.996780"><ele>445.411041</ele><time>2021-09-01T12:07:53Z</time><extensions><speed>1.396965</speed><course>319.871765</course><hAcc>0.913017</hAcc><vAcc>0.662347</vAcc></extensions></trkpt>
      <trkpt lon="-3.160292" lat="52.996768"><ele>445.428192</ele><time>2021-09-01T12:07:54Z</time><extensions><speed>1.418537</speed><course>316.990692</course><hAcc>0.910417</hAcc><vAcc>0.660515</vAcc></extensions></trkpt>
      <trkpt lon="-3.160296" lat="52.996756"><ele>445.445770</ele><time>2021-09-01T12:07:55Z</time><extensions><speed>1.431524</speed><course>317.272278</course><hAcc>0.907604</hAcc><vAcc>0.658193</vAcc></extensions></trkpt>
      <trkpt lon="-3.160301" lat="52.996743"><ele>445.463409</ele><time>2021-09-01T12:07:56Z</time><extensions><speed>1.435187</speed><course>317.305878</course><hAcc>0.904686</hAcc><vAcc>0.655414</vAcc></extensions></trkpt>
      <trkpt lon="-3.160305" lat="52.996731"><ele>445.480560</ele><time>2021-09-01T12:07:57Z</time><extensions><speed>1.428923</speed><course>319.626617</course><hAcc>0.901760</hAcc><vAcc>0.652260</vAcc></extensions></trkpt>
      <trkpt lon="-3.160309" lat="52.996718"><ele>445.496796</ele><time>2021-09-01T12:07:58Z</time><extensions><speed>1.413268</speed><course>316.946777</course><hAcc>0.898900</hAcc><vAcc>0.648877</vAcc></extensions></trkpt>
      <trkpt lon="-3.160312" lat="52.996706"><ele>445.512146</ele><time>2021-09-01T12:08:00Z</time><extensions><speed>1.389498</speed><course>316.848175</course><hAcc>0.896134</hAcc><vAcc>0.645464</vAcc></extensions></trkpt>
      <trkpt lon="-3.160315" lat="52.996693"><ele>445.527161</ele><time>2021-09-01T12:08:01Z</time><extensions><speed>1.359769</speed><course>306.129730</course><hAcc>0.893493</hAcc><vAcc>0.642310</vAcc></extensions></trkpt>
      <trkpt lon="-3.160318" lat="52.996681"><ele>445.542755</ele><time>2021-09-01T12:08:02Z</time><extensions><speed>1.326115</speed><course>311.287872</course><hAcc>0.891004</hAcc><vAcc>0.639760</vAcc></extensions></trkpt>
      <trkpt lon="-3.160320" lat="52.996670"><ele>445.559723</ele><time>2021-09-01T12:08:03Z</time><extensions><speed>1.289536</speed><course>316.150696</course><hAcc>0.888677</hAcc><vAcc>0.638161</vAcc></extensions></trkpt>
      <trkpt lon="-3.160323" lat="52.996658"><ele>445.578217</ele><time>2021-09-01T12:08:04Z</time><extensions><speed>1.251211</speed><course>319.589172</course><hAcc>0.886533</hAcc><vAcc>0.637829</vAcc></extensions></trkpt>
      <trkpt lon="-3.160325" lat="52.996647"><ele>445.597443</ele><time>2021-09-01T12:08:05Z</time><extensions><speed>1.213016</speed><course>317.826752</course><hAcc>0.884587</hAcc><vAcc>0.638996</vAcc></extensions></trkpt>
      <trkpt lon="-3.160327" lat="52.996637"><ele>445.615875</ele><time>2021-09-01T12:08:06Z</time><extensions><speed>1.176532</speed><course>316.582428</course><hAcc>0.882850</hAcc><vAcc>0.641766</vAcc></extensions></trkpt>
      <trkpt lon="-3.160328" lat="52.996626"><ele>445.632050</ele><time>2021-09-01T12:08:07Z</time><extensions><speed>1.142701</speed><course>322.533203</course><hAcc>0.881351</hAcc><vAcc>0.646076</vAcc></extensions></trkpt>
      <trkpt lon="-3.160330" lat="52.996616"><ele>445.644531</ele><time>2021-09-01T12:08:08Z</time><extensions><speed>1.111911</speed><course>322.533203</course><hAcc>0.880157</hAcc><vAcc>0.651679</vAcc></extensions></trkpt>
      <trkpt lon="-3.160332" lat="52.996606"><ele>445.651764</ele><time>2021-09-01T12:08:09Z</time><extensions><speed>1.084831</speed><course>322.533203</course><hAcc>0.879356</hAcc><vAcc>0.658164</vAcc></extensions></trkpt>
      <trkpt lon="-3.160334" lat="52.996597"><ele>445.652802</ele><time>2021-09-01T12:08:10Z</time><extensions><speed>1.061839</speed><course>322.533203</course><hAcc>0.879000</hAcc><vAcc>0.665067</vAcc></extensions></trkpt>
      <trkpt lon="-3.160336" lat="52.996588"><ele>445.647339</ele><time>2021-09-01T12:08:11Z</time><extensions><speed>1.042496</speed><course>322.533203</course><hAcc>0.879076</hAcc><vAcc>0.671974</vAcc></extensions></trkpt>
      <trkpt lon="-3.160339" lat="52.996578"><ele>445.635071</ele><time>2021-09-01T12:08:12Z</time><extensions><speed>1.026038</speed><course>310.635162</course><hAcc>0.879517</hAcc><vAcc>0.678564</vAcc></extensions></trkpt>
      <trkpt lon="-3.160342" lat="52.996569"><ele>445.615631</ele><time>2021-09-01T12:08:13Z</time><extensions><speed>1.012171</speed><course>317.610291</course><hAcc>0.880227</hAcc><vAcc>0.684613</vAcc></extensions></trkpt>
      <trkpt lon="-3.160345" lat="52.996561"><ele>445.589081</ele><time>2021-09-01T12:08:14Z</time><extensions><speed>1.000990</speed><course>306.125671</course><hAcc>0.881100</hAcc><vAcc>0.689979</vAcc></extensions></trkpt>
      <trkpt lon="-3.160348" lat="52.996552"><ele>445.556213</ele><time>2021-09-01T12:08:15Z</time><extensions><speed>0.992379</speed><course>318.134308</course><hAcc>0.882035</hAcc><vAcc>0.694590</vAcc></extensions></trkpt>
      <trkpt lon="-3.160351" lat="52.996543"><ele>445.518402</ele><time>2021-09-01T12:08:16Z</time><extensions><speed>0.986371</speed><course>310.926819</course><hAcc>0.882946</hAcc><vAcc>0.698430</vAcc></extensions></trkpt>
      <trkpt lon="-3.160354" lat="52.996534"><ele>445.477356</ele><time>2021-09-01T12:08:17Z</time><extensions><speed>0.983390</speed><course>312.939606</course><hAcc>0.883764</hAcc><vAcc>0.701514</vAcc></extensions></trkpt>
      <trkpt lon="-3.160357" lat="52.996526"><ele>445.434875</ele><time>2021-09-01T12:08:17Z</time><extensions><speed>0.984010</speed><course>305.606995</course><hAcc>0.884459</hAcc><vAcc>0.703889</vAcc></extensions></trkpt>
      <trkpt lon="-3.160360" lat="52.996517"><ele>445.392365</ele><time>2021-09-01T12:08:18Z</time><extensions><speed>0.988493</speed><course>302.541321</course><hAcc>0.884999</hAcc><vAcc>0.705596</vAcc></extensions></trkpt>
      <trkpt lon="-3.160362" lat="52.996508"><ele>445.351044</ele><time>2021-09-01T12:08:20Z</time><extensions><speed>0.995962</speed><course>303.802917</course><hAcc>0.885326</hAcc><vAcc>0.706640</vAcc></extensions></trkpt>
      <trkpt lon="-3.160365" lat="52.996499"><ele>445.311646</ele><time>2021-09-01T12:08:20Z</time><extensions><speed>1.004880</speed><course>300.395538</course><hAcc>0.885448</hAcc><vAcc>0.707054</vAcc></extensions></trkpt>
      <trkpt lon="-3.160366" lat="52.996490"><ele>445.274261</ele><time>2021-09-01T12:08:21Z</time><extensions><speed>1.014195</speed><course>303.076660</course><hAcc>0.885376</hAcc><vAcc>0.706863</vAcc></extensions></trkpt>
      <trkpt lon="-3.160368" lat="52.996481"><ele>445.238953</ele><time>2021-09-01T12:08:22Z</time><extensions><speed>1.022987</speed><course>301.521118</course><hAcc>0.885089</hAcc><vAcc>0.706051</vAcc></extensions></trkpt>
      <trkpt lon="-3.160368" lat="52.996472"><ele>445.205750</ele><time>2021-09-01T12:08:23Z</time><extensions><speed>1.030519</speed><course>315.953857</course><hAcc>0.884585</hAcc><vAcc>0.704614</vAcc></extensions></trkpt>
      <trkpt lon="-3.160369" lat="52.996463"><ele>445.174713</ele><time>2021-09-01T12:08:24Z</time><extensions><speed>1.036193</speed><course>321.613922</course><hAcc>0.883864</hAcc><vAcc>0.702540</vAcc></extensions></trkpt>
      <trkpt lon="-3.160368" lat="52.996453"><ele>445.145721</ele><time>2021-09-01T12:08:25Z</time><extensions><speed>1.039679</speed><course>320.530426</course><hAcc>0.882929</hAcc><vAcc>0.699819</vAcc></extensions></trkpt>
      <trkpt lon="-3.160367" lat="52.996444"><ele>445.118591</ele><time>2021-09-01T12:08:26Z</time><extensions><speed>1.040560</speed><course>319.105469</course><hAcc>0.881786</hAcc><vAcc>0.696433</vAcc></extensions></trkpt>
      <trkpt lon="-3.160365" lat="52.996435"><ele>445.093201</ele><time>2021-09-01T12:08:27Z</time><extensions><speed>1.038713</speed><course>320.005280</course><hAcc>0.880449</hAcc><vAcc>0.692371</vAcc></extensions></trkpt>
      <trkpt lon="-3.160363" lat="52.996426"><ele>445.069885</ele><time>2021-09-01T12:08:28Z</time><extensions><speed>1.034523</speed><course>320.540527</course><hAcc>0.878938</hAcc><vAcc>0.687652</vAcc></extensions></trkpt>
      <trkpt lon="-3.160359" lat="52.996417"><ele>445.049133</ele><time>2021-09-01T12:08:29Z</time><extensions><speed>1.027855</speed><course>316.635681</course><hAcc>0.877284</hAcc><vAcc>0.682351</vAcc></extensions></trkpt>
      <trkpt lon="-3.160355" lat="52.996408"><ele>445.031372</ele><time>2021-09-01T12:08:30Z</time><extensions><speed>1.017923</speed><course>319.322998</course><hAcc>0.875526</hAcc><vAcc>0.676606</vAcc></extensions></trkpt>
      <trkpt lon="-3.160351" lat="52.996399"><ele>445.017029</ele><time>2021-09-01T12:08:31Z</time><extensions><speed>1.003866</speed><course>319.244141</course><hAcc>0.873710</hAcc><vAcc>0.670604</vAcc></extensions></trkpt>
      <trkpt lon="-3.160345" lat="52.996391"><ele>445.006378</ele><time>2021-09-01T12:08:32Z</time><extensions><speed>0.985284</speed><course>315.425568</course><hAcc>0.871891</hAcc><vAcc>0.664544</vAcc></extensions></trkpt>
      <trkpt lon="-3.160340" lat="52.996383"><ele>444.999908</ele><time>2021-09-01T12:08:33Z</time><extensions><speed>0.962244</speed><course>318.059448</course><hAcc>0.870118</hAcc><vAcc>0.658601</vAcc></extensions></trkpt>
      <trkpt lon="-3.160334" lat="52.996375"><ele>444.998108</ele><time>2021-09-01T12:08:34Z</time><extensions><speed>0.935011</speed><course>318.243683</course><hAcc>0.868440</hAcc><vAcc>0.652898</vAcc></extensions></trkpt>
      <trkpt lon="-3.160328" lat="52.996367"><ele>445.001129</ele><time>2021-09-01T12:08:35Z</time><extensions><speed>0.903765</speed><course>319.840027</course><hAcc>0.866902</hAcc><vAcc>0.647513</vAcc></extensions></trkpt>
      <trkpt lon="-3.160322" lat="52.996360"><ele>445.008728</ele><time>2021-09-01T12:08:36Z</time><extensions><speed>0.868545</speed><course>320.630524</course><hAcc>0.865555</hAcc><vAcc>0.642506</vAcc></extensions></trkpt>
      <trkpt lon="-3.160317" lat="52.996354"><ele>445.020416</ele><time>2021-09-01T12:08:37Z</time><extensions><speed>0.829204</speed><course>318.435181</course><hAcc>0.864458</hAcc><vAcc>0.637936</vAcc></extensions></trkpt>
      <trkpt lon="-3.160311" lat="52.996347"><ele>445.035400</ele><time>2021-09-01T12:08:38Z</time><extensions><speed>0.785017</speed><course>313.959320</course><hAcc>0.863671</hAcc><vAcc>0.633841</vAcc></extensions></trkpt>
      <trkpt lon="-3.160306" lat="52.996341"><ele>445.052765</ele><time>2021-09-01T12:08:39Z</time><extensions><speed>0.735088</speed><course>314.005951</course><hAcc>0.863249</hAcc><vAcc>0.630234</vAcc></extensions></trkpt>
      <trkpt lon="-3.160301" lat="52.996335"><ele>445.071808</ele><time>2021-09-01T12:08:40Z</time><extensions><speed>0.679244</speed><course>315.776367</course><hAcc>0.863244</hAcc><vAcc>0.627118</vAcc></extensions></trkpt>
      <trkpt lon="-3.160297" lat="52.996330"><ele>445.092255</ele><time>2021-09-01T12:08:42Z</time><extensions><speed>0.618174</speed><course>317.643280</course><hAcc>0.863671</hAcc><vAcc>0.624472</vAcc></extensions></trkpt>
      <trkpt lon="-3.160293" lat="52.996325"><ele>445.113922</ele><time>2021-09-01T12:08:42Z</time><extensions><speed>0.554129</speed><course>316.187012</course><hAcc>0.864552</hAcc><vAcc>0.622316</vAcc></extensions></trkpt>
      <trkpt lon="-3.160290" lat="52.996321"><ele>445.136322</ele><time>2021-09-01T12:08:43Z</time><extensions><speed>0.489374</speed><course>313.238525</course><hAcc>0.865876</hAcc><vAcc>0.620694</vAcc></extensions></trkpt>
      <trkpt lon="-3.160287" lat="52.996317"><ele>445.158569</ele><time>2021-09-01T12:08:44Z</time><extensions><speed>0.427183</speed><course>309.102142</course><hAcc>0.867550</hAcc><vAcc>0.619717</vAcc></extensions></trkpt>
      <trkpt lon="-3.160285" lat="52.996314"><ele>445.180573</ele><time>2021-09-01T12:08:45Z</time><extensions><speed>0.370458</speed><course>313.839325</course><hAcc>0.869444</hAcc><vAcc>0.619614</vAcc></extensions></trkpt>
      <trkpt lon="-3.160284" lat="52.996311"><ele>445.202576</ele><time>2021-09-01T12:08:47Z</time><extensions><speed>0.320999</speed><course>315.040405</course><hAcc>0.871353</hAcc><vAcc>0.620666</vAcc></extensions></trkpt>
      <trkpt lon="-3.160283" lat="52.996308"><ele>445.224426</ele><time>2021-09-01T12:08:48Z</time><extensions><speed>0.280298</speed><course>315.010925</course><hAcc>0.873043</hAcc><vAcc>0.623131</vAcc></extensions></trkpt>
      <trkpt lon="-3.160282" lat="52.996306"><ele>445.245514</ele><time>2021-09-01T12:08:49Z</time><extensions><speed>0.248923</speed><course>312.357758</course><hAcc>0.874349</hAcc><vAcc>0.627138</vAcc></extensions></trkpt>
      <trkpt lon="-3.160282" lat="52.996304"><ele>445.264954</ele><time>2021-09-01T12:08:50Z</time><extensions><speed>0.226764</speed><course>316.888885</course><hAcc>0.875212</hAcc><vAcc>0.632587</vAcc></extensions></trkpt>
      <trkpt lon="-3.160282" lat="52.996302"><ele>445.281830</ele><time>2021-09-01T12:08:50Z</time><extensions><speed>0.212432</speed><course>320.096283</course><hAcc>0.875723</hAcc><vAcc>0.639198</vAcc></extensions></trkpt>
      <trkpt lon="-3.160283" lat="52.996300"><ele>445.295319</ele><time>2021-09-01T12:08:51Z</time><extensions><speed>0.203769</speed><course>330.452972</course><hAcc>0.876042</hAcc><vAcc>0.646583</vAcc></extensions></trkpt>
      <trkpt lon="-3.160283" lat="52.996298"><ele>445.304657</ele><time>2021-09-01T12:08:53Z</time><extensions><speed>0.199462</speed><course>325.892334</course><hAcc>0.876308</hAcc><vAcc>0.654263</vAcc></extensions></trkpt>
      <trkpt lon="-3.160284" lat="52.996297"><ele>445.309631</ele><time>2021-09-01T12:08:54Z</time><extensions><speed>0.198791</speed><course>323.150330</course><hAcc>0.876638</hAcc><vAcc>0.661770</vAcc></extensions></trkpt>
      <trkpt lon="-3.160285" lat="52.996295"><ele>445.310364</ele><time>2021-09-01T12:08:55Z</time><extensions><speed>0.201193</speed><course>318.355499</course><hAcc>0.877083</hAcc><vAcc>0.668743</vAcc></extensions></trkpt>
      <trkpt lon="-3.160285" lat="52.996293"><ele>445.307434</ele><time>2021-09-01T12:08:55Z</time><extensions><speed>0.206293</speed><course>319.900726</course><hAcc>0.877634</hAcc><vAcc>0.674900</vAcc></extensions></trkpt>
      <trkpt lon="-3.160286" lat="52.996291"><ele>445.301636</ele><time>2021-09-01T12:08:57Z</time><extensions><speed>0.214445</speed><course>327.705719</course><hAcc>0.878213</hAcc><vAcc>0.680042</vAcc></extensions></trkpt>
      <trkpt lon="-3.160286" lat="52.996289"><ele>445.293732</ele><time>2021-09-01T12:08:58Z</time><extensions><speed>0.226239</speed><course>325.864380</course><hAcc>0.878721</hAcc><vAcc>0.684005</vAcc></extensions></trkpt>
      <trkpt lon="-3.160286" lat="52.996287"><ele>445.284424</ele><time>2021-09-01T12:08:59Z</time><extensions><speed>0.242119</speed><course>316.016541</course><hAcc>0.879101</hAcc><vAcc>0.686724</vAcc></extensions></trkpt>
      <trkpt lon="-3.160286" lat="52.996285"><ele>445.274323</ele><time>2021-09-01T12:09:00Z</time><extensions><speed>0.262256</speed><course>317.886536</course><hAcc>0.879290</hAcc><vAcc>0.688158</vAcc></extensions></trkpt>
      <trkpt lon="-3.160285" lat="52.996282"><ele>445.263916</ele><time>2021-09-01T12:09:01Z</time><extensions><speed>0.286586</speed><course>327.267029</course><hAcc>0.879248</hAcc><vAcc>0.688293</vAcc></extensions></trkpt>
      <trkpt lon="-3.160284" lat="52.996280"><ele>445.253906</ele><time>2021-09-01T12:09:02Z</time><extensions><speed>0.314692</speed><course>326.251373</course><hAcc>0.878955</hAcc><vAcc>0.687156</vAcc></extensions></trkpt>
      <trkpt lon="-3.160283" lat="52.996277"><ele>445.244995</ele><time>2021-09-01T12:09:03Z</time><extensions><speed>0.345552</speed><course>330.160339</course><hAcc>0.878419</hAcc><vAcc>0.684817</vAcc></extensions></trkpt>
      <trkpt lon="-3.160282" lat="52.996274"><ele>445.237762</ele><time>2021-09-01T12:09:04Z</time><extensions><speed>0.378100</speed><course>329.350830</course><hAcc>0.877662</hAcc><vAcc>0.681410</vAcc></extensions></trkpt>
      <trkpt lon="-3.160280" lat="52.996270"><ele>445.232910</ele><time>2021-09-01T12:09:05Z</time><extensions><speed>0.411441</speed><course>328.046906</course><hAcc>0.876723</hAcc><vAcc>0.677141</vAcc></extensions></trkpt>
      <trkpt lon="-3.160278" lat="52.996267"><ele>445.231293</ele><time>2021-09-01T12:09:06Z</time><extensions><speed>0.444987</speed><course>328.036682</course><hAcc>0.875641</hAcc><vAcc>0.672298</vAcc></extensions></trkpt>
      <trkpt lon="-3.160276" lat="52.996263"><ele>445.233490</ele><time>2021-09-01T12:09:07Z</time><extensions><speed>0.478789</speed><course>328.321899</course><hAcc>0.874453</hAcc><vAcc>0.667210</vAcc></extensions></trkpt>
      <trkpt lon="-3.160275" lat="52.996258"><ele>445.239655</ele><time>2021-09-01T12:09:08Z</time><extensions><speed>0.512674</speed><course>326.366882</course><hAcc>0.873179</hAcc><vAcc>0.662190</vAcc></extensions></trkpt>
      <trkpt lon="-3.160273" lat="52.996254"><ele>445.249542</ele><time>2021-09-01T12:09:09Z</time><extensions><speed>0.545826</speed><course>331.362152</course><hAcc>0.871838</hAcc><vAcc>0.657487</vAcc></extensions></trkpt>
      <trkpt lon="-3.160271" lat="52.996249"><ele>445.262604</ele><time>2021-09-01T12:09:10Z</time><extensions><speed>0.577588</speed><course>329.394318</course><hAcc>0.870473</hAcc><vAcc>0.653266</vAcc></extensions></trkpt>
      <trkpt lon="-3.160270" lat="52.996243"><ele>445.278198</ele><time>2021-09-01T12:09:11Z</time><extensions><speed>0.607209</speed><course>332.464355</course><hAcc>0.869155</hAcc><vAcc>0.649607</vAcc></extensions></trkpt>
      <trkpt lon="-3.160269" lat="52.996238"><ele>445.295746</ele><time>2021-09-01T12:09:12Z</time><extensions><speed>0.634670</speed><course>335.973755</course><hAcc>0.867939</hAcc><vAcc>0.646509</vAcc></extensions></trkpt>
      <trkpt lon="-3.160269" lat="52.996232"><ele>445.314697</ele><time>2021-09-01T12:09:13Z</time><extensions><speed>0.661527</speed><course>334.588074</course><hAcc>0.866852</hAcc><vAcc>0.643906</vAcc></extensions></trkpt>
      <trkpt lon="-3.160269" lat="52.996226"><ele>445.334503</ele><time>2021-09-01T12:09:14Z</time><extensions><speed>0.690333</speed><course>337.558624</course><hAcc>0.865897</hAcc><vAcc>0.641696</vAcc></extensions></trkpt>
      <trkpt lon="-3.160270" lat="52.996220"><ele>445.354279</ele><time>2021-09-01T12:09:15Z</time><extensions><speed>0.723796</speed><course>337.377197</course><hAcc>0.865062</hAcc><vAcc>0.639768</vAcc></extensions></trkpt>
      <trkpt lon="-3.160272" lat="52.996213"><ele>445.373016</ele><time>2021-09-01T12:09:16Z</time><extensions><speed>0.763302</speed><course>334.236908</course><hAcc>0.864332</hAcc><vAcc>0.638034</vAcc></extensions></trkpt>
      <trkpt lon="-3.160275" lat="52.996206"><ele>445.390015</ele><time>2021-09-01T12:09:17Z</time><extensions><speed>0.808174</speed><course>333.116516</course><hAcc>0.863690</hAcc><vAcc>0.636439</vAcc></extensions></trkpt>
      <trkpt lon="-3.160279" lat="52.996199"><ele>445.404694</ele><time>2021-09-01T12:09:18Z</time><extensions><speed>0.855532</speed><course>331.193451</course><hAcc>0.863129</hAcc><vAcc>0.634965</vAcc></extensions></trkpt>
      <trkpt lon="-3.160284" lat="52.996192"><ele>445.416718</ele><time>2021-09-01T12:09:19Z</time><extensions><speed>0.902150</speed><course>327.071960</course><hAcc>0.862650</hAcc><vAcc>0.633637</vAcc></extensions></trkpt>
      <trkpt lon="-3.160289" lat="52.996184"><ele>445.425873</ele><time>2021-09-01T12:09:20Z</time><extensions><speed>0.946496</speed><course>323.969269</course><hAcc>0.862264</hAcc><vAcc>0.632516</vAcc></extensions></trkpt>
      <trkpt lon="-3.160295" lat="52.996176"><ele>445.431702</ele><time>2021-09-01T12:09:21Z</time><extensions><speed>0.988316</speed><course>325.035614</course><hAcc>0.861987</hAcc><vAcc>0.631684</vAcc></extensions></trkpt>
      <trkpt lon="-3.160302" lat="52.996168"><ele>445.433472</ele><time>2021-09-01T12:09:22Z</time><extensions><speed>1.028045</speed><course>325.080109</course><hAcc>0.861844</hAcc><vAcc>0.631243</vAcc></extensions></trkpt>
      <trkpt lon="-3.160310" lat="52.996160"><ele>445.429840</ele><time>2021-09-01T12:09:23Z</time><extensions><speed>1.066498</speed><course>320.596710</course><hAcc>0.861858</hAcc><vAcc>0.631289</vAcc></extensions></trkpt>
      <trkpt lon="-3.160318" lat="52.996152"><ele>445.418671</ele><time>2021-09-01T12:09:24Z</time><extensions><speed>1.103675</speed><course>325.164429</course><hAcc>0.862050</hAcc><vAcc>0.631898</vAcc></extensions></trkpt>
      <trkpt lon="-3.160327" lat="52.996143"><ele>445.397491</ele><time>2021-09-01T12:09:25Z</time><extensions><speed>1.138480</speed><course>323.691345</course><hAcc>0.862428</hAcc><vAcc>0.633111</vAcc></extensions></trkpt>
      <trkpt lon="-3.160336" lat="52.996134"><ele>445.363953</ele><time>2021-09-01T12:09:26Z</time><extensions><speed>1.169812</speed><course>332.829010</course><hAcc>0.862992</hAcc><vAcc>0.634927</vAcc></extensions></trkpt>
      <trkpt lon="-3.160345" lat="52.996125"><ele>445.315735</ele><time>2021-09-01T12:09:27Z</time><extensions><speed>1.196792</speed><course>333.287506</course><hAcc>0.863734</hAcc><vAcc>0.637326</vAcc></extensions></trkpt>
      <trkpt lon="-3.160354" lat="52.996116"><ele>445.250946</ele><time>2021-09-01T12:09:28Z</time><extensions><speed>1.218806</speed><course>320.664337</course><hAcc>0.864644</hAcc><vAcc>0.640269</vAcc></extensions></trkpt>
      <trkpt lon="-3.160363" lat="52.996106"><ele>445.169067</ele><time>2021-09-01T12:09:29Z</time><extensions><speed>1.235647</speed><course>319.581818</course><hAcc>0.865705</hAcc><vAcc>0.643704</vAcc></extensions></trkpt>
      <trkpt lon="-3.160372" lat="52.996096"><ele>445.070862</ele><time>2021-09-01T12:09:30Z</time><extensions><speed>1.247144</speed><course>320.113190</course><hAcc>0.866896</hAcc><vAcc>0.647564</vAcc></extensions></trkpt>
      <trkpt lon="-3.160380" lat="52.996086"><ele>444.957703</ele><time>2021-09-01T12:09:31Z</time><extensions><speed>1.253204</speed><course>325.625488</course><hAcc>0.868194</hAcc><vAcc>0.651772</vAcc></extensions></trkpt>
      <trkpt lon="-3.160387" lat="52.996076"><ele>444.830994</ele><time>2021-09-01T12:09:32Z</time><extensions><speed>1.254139</speed><course>320.008789</course><hAcc>0.869577</hAcc><vAcc>0.656260</vAcc></extensions></trkpt>
      <trkpt lon="-3.160394" lat="52.996065"><ele>444.691986</ele><time>2021-09-01T12:09:33Z</time><extensions><speed>1.250575</speed><course>318.909088</course><hAcc>0.871021</hAcc><vAcc>0.660960</vAcc></extensions></trkpt>
      <trkpt lon="-3.160400" lat="52.996055"><ele>444.542053</ele><time>2021-09-01T12:09:34Z</time><extensions><speed>1.243588</speed><course>323.298828</course><hAcc>0.872501</hAcc><vAcc>0.665782</vAcc></extensions></trkpt>
      <trkpt lon="-3.160405" lat="52.996044"><ele>444.382843</ele><time>2021-09-01T12:09:35Z</time><extensions><speed>1.234494</speed><course>319.843567</course><hAcc>0.873983</hAcc><vAcc>0.670604</vAcc></extensions></trkpt>
      <trkpt lon="-3.160409" lat="52.996033"><ele>444.216461</ele><time>2021-09-01T12:09:36Z</time><extensions><speed>1.224637</speed><course>314.311829</course><hAcc>0.875431</hAcc><vAcc>0.675298</vAcc></extensions></trkpt>
      <trkpt lon="-3.160412" lat="52.996022"><ele>444.045197</ele><time>2021-09-01T12:09:37Z</time><extensions><speed>1.214849</speed><course>319.089264</course><hAcc>0.876813</hAcc><vAcc>0.679746</vAcc></extensions></trkpt>
      <trkpt lon="-3.160414" lat="52.996012"><ele>443.870850</ele><time>2021-09-01T12:09:38Z</time><extensions><speed>1.205248</speed><course>322.114319</course><hAcc>0.878100</hAcc><vAcc>0.683856</vAcc></extensions></trkpt>
      <trkpt lon="-3.160416" lat="52.996001"><ele>443.694397</ele><time>2021-09-01T12:09:39Z</time><extensions><speed>1.196065</speed><course>313.771057</course><hAcc>0.879271</hAcc><vAcc>0.687560</vAcc></extensions></trkpt>
      <trkpt lon="-3.160416" lat="52.995990"><ele>443.516510</ele><time>2021-09-01T12:09:40Z</time><extensions><speed>1.188114</speed><course>306.383820</course><hAcc>0.880309</hAcc><vAcc>0.690806</vAcc></extensions></trkpt>
      <trkpt lon="-3.160416" lat="52.995980"><ele>443.337891</ele><time>2021-09-01T12:09:41Z</time><extensions><speed>1.182788</speed><course>308.594727</course><hAcc>0.881202</hAcc><vAcc>0.693566</vAcc></extensions></trkpt>
      <trkpt lon="-3.160415" lat="52.995969"><ele>443.159576</ele><time>2021-09-01T12:09:42Z</time><extensions><speed>1.181034</speed><course>313.438293</course><hAcc>0.881945</hAcc><vAcc>0.695829</vAcc></extensions></trkpt>
      <trkpt lon="-3.160413" lat="52.995958"><ele>442.982849</ele><time>2021-09-01T12:09:43Z</time><extensions><speed>1.182634</speed><course>315.261749</course><hAcc>0.882538</hAcc><vAcc>0.697596</vAcc></extensions></trkpt>
      <trkpt lon="-3.160411" lat="52.995948"><ele>442.809082</ele><time>2021-09-01T12:09:44Z</time><extensions><speed>1.186770</speed><course>314.962799</course><hAcc>0.882983</hAcc><vAcc>0.698882</vAcc></extensions></trkpt>
      <trkpt lon="-3.160408" lat="52.995937"><ele>442.639862</ele><time>2021-09-01T12:09:45Z</time><extensions><speed>1.192984</speed><course>311.864380</course><hAcc>0.883289</hAcc><vAcc>0.699713</vAcc></extensions></trkpt>
      <trkpt lon="-3.160405" lat="52.995927"><ele>442.476746</ele><time>2021-09-01T12:09:46Z</time><extensions><speed>1.200885</speed><course>305.555115</course><hAcc>0.883464</hAcc><vAcc>0.700130</vAcc></extensions></trkpt>
      <trkpt lon="-3.160401" lat="52.995916"><ele>442.320953</ele><time>2021-09-01T12:09:47Z</time><extensions><speed>1.210150</speed><course>309.414368</course><hAcc>0.883522</hAcc><vAcc>0.700181</vAcc></extensions></trkpt>
      <trkpt lon="-3.160397" lat="52.995906"><ele>442.173828</ele><time>2021-09-01T12:09:48Z</time><extensions><speed>1.220528</speed><course>312.426361</course><hAcc>0.883475</hAcc><vAcc>0.699919</vAcc></extensions></trkpt>
      <trkpt lon="-3.160392" lat="52.995895"><ele>442.036407</ele><time>2021-09-01T12:09:49Z</time><extensions><speed>1.231494</speed><course>315.779877</course><hAcc>0.883338</hAcc><vAcc>0.699388</vAcc></extensions></trkpt>
      <trkpt lon="-3.160388" lat="52.995884"><ele>441.909058</ele><time>2021-09-01T12:09:50Z</time><extensions><speed>1.242430</speed><course>309.393494</course><hAcc>0.883128</hAcc><vAcc>0.698623</vAcc></extensions></trkpt>
      <trkpt lon="-3.160383" lat="52.995873"><ele>441.791656</ele><time>2021-09-01T12:09:51Z</time><extensions><speed>1.253175</speed><course>315.161163</course><hAcc>0.882860</hAcc><vAcc>0.697660</vAcc></extensions></trkpt>
      <trkpt lon="-3.160378" lat="52.995862"><ele>441.684052</ele><time>2021-09-01T12:09:52Z</time><extensions><speed>1.263736</speed><course>313.978088</course><hAcc>0.882550</hAcc><vAcc>0.696547</vAcc></extensions></trkpt>
      <trkpt lon="-3.160374" lat="52.995851"><ele>441.585846</ele><time>2021-09-01T12:09:53Z</time><extensions><speed>1.273577</speed><course>310.683502</course><hAcc>0.882217</hAcc><vAcc>0.695347</vAcc></extensions></trkpt>
      <trkpt lon="-3.160369" lat="52.995840"><ele>441.496368</ele><time>2021-09-01T12:09:54Z</time><extensions><speed>1.282229</speed><course>311.301880</course><hAcc>0.881875</hAcc><vAcc>0.694132</vAcc></extensions></trkpt>
      <trkpt lon="-3.160365" lat="52.995829"><ele>441.414948</ele><time>2021-09-01T12:09:55Z</time><extensions><speed>1.289762</speed><course>311.208435</course><hAcc>0.881540</hAcc><vAcc>0.692970</vAcc></extensions></trkpt>
      <trkpt lon="-3.160361" lat="52.995817"><ele>441.341095</ele><time>2021-09-01T12:09:56Z</time><extensions><speed>1.296632</speed><course>309.569458</course><hAcc>0.881224</hAcc><vAcc>0.691912</vAcc></extensions></trkpt>
      <trkpt lon="-3.160358" lat="52.995806"><ele>441.274353</ele><time>2021-09-01T12:09:57Z</time><extensions><speed>1.303324</speed><course>310.187012</course><hAcc>0.880934</hAcc><vAcc>0.690981</vAcc></extensions></trkpt>
      <trkpt lon="-3.160354" lat="52.995794"><ele>441.214020</ele><time>2021-09-01T12:09:58Z</time><extensions><speed>1.310175</speed><course>310.459808</course><hAcc>0.880676</hAcc><vAcc>0.690174</vAcc></extensions></trkpt>
      <trkpt lon="-3.160352" lat="52.995783"><ele>441.159607</ele><time>2021-09-01T12:09:59Z</time><extensions><speed>1.317506</speed><course>310.191071</course><hAcc>0.880452</hAcc><vAcc>0.689478</vAcc></extensions></trkpt>
      <trkpt lon="-3.160349" lat="52.995771"><ele>441.111176</ele><time>2021-09-01T12:10:00Z</time><extensions><speed>1.325625</speed><course>313.202332</course><hAcc>0.880264</hAcc><vAcc>0.688888</vAcc></extensions></trkpt>
      <trkpt lon="-3.160347" lat="52.995759"><ele>441.069122</ele><time>2021-09-01T12:10:01Z</time><extensions><speed>1.334409</speed><course>317.375305</course><hAcc>0.880116</hAcc><vAcc>0.688410</vAcc></extensions></trkpt>
      <trkpt lon="-3.160346" lat="52.995747"><ele>441.033630</ele><time>2021-09-01T12:10:02Z</time><extensions><speed>1.343155</speed><course>320.965942</course><hAcc>0.880011</hAcc><vAcc>0.688048</vAcc></extensions></trkpt>
      <trkpt lon="-3.160344" lat="52.995735"><ele>441.004517</ele><time>2021-09-01T12:10:03Z</time><extensions><speed>1.351335</speed><course>318.335114</course><hAcc>0.879951</hAcc><vAcc>0.687814</vAcc></extensions></trkpt>
      <trkpt lon="-3.160343" lat="52.995723"><ele>440.981293</ele><time>2021-09-01T12:10:04Z</time><extensions><speed>1.358374</speed><course>322.780487</course><hAcc>0.879943</hAcc><vAcc>0.687731</vAcc></extensions></trkpt>
      <trkpt lon="-3.160342" lat="52.995711"><ele>440.963196</ele><time>2021-09-01T12:10:05Z</time><extensions><speed>1.363452</speed><course>321.324005</course><hAcc>0.879990</hAcc><vAcc>0.687831</vAcc></extensions></trkpt>
      <trkpt lon="-3.160342" lat="52.995698"><ele>440.949097</ele><time>2021-09-01T12:10:06Z</time><extensions><speed>1.366299</speed><course>322.516296</course><hAcc>0.880098</hAcc><vAcc>0.688145</vAcc></extensions></trkpt>
      <trkpt lon="-3.160342" lat="52.995686"><ele>440.937866</ele><time>2021-09-01T12:10:07Z</time><extensions><speed>1.367195</speed><course>319.995483</course><hAcc>0.880266</hAcc><vAcc>0.688686</vAcc></extensions></trkpt>
      <trkpt lon="-3.160342" lat="52.995674"><ele>440.928528</ele><time>2021-09-01T12:10:08Z</time><extensions><speed>1.366616</speed><course>324.182892</course><hAcc>0.880494</hAcc><vAcc>0.689448</vAcc></extensions></trkpt>
      <trkpt lon="-3.160342" lat="52.995661"><ele>440.919922</ele><time>2021-09-01T12:10:09Z</time><extensions><speed>1.364684</speed><course>328.616821</course><hAcc>0.880775</hAcc><vAcc>0.690409</vAcc></extensions></trkpt>
      <trkpt lon="-3.160342" lat="52.995649"><ele>440.910828</ele><time>2021-09-01T12:10:10Z</time><extensions><speed>1.361495</speed><course>324.016815</course><hAcc>0.881100</hAcc><vAcc>0.691545</vAcc></extensions></trkpt>
      <trkpt lon="-3.160343" lat="52.995637"><ele>440.900513</ele><time>2021-09-01T12:10:11Z</time><extensions><speed>1.357333</speed><course>329.825897</course><hAcc>0.881460</hAcc><vAcc>0.692825</vAcc></extensions></trkpt>
      <trkpt lon="-3.160343" lat="52.995625"><ele>440.889252</ele><time>2021-09-01T12:10:11Z</time><extensions><speed>1.352260</speed><course>327.868408</course><hAcc>0.881861</hAcc><vAcc>0.694221</vAcc></extensions></trkpt>
      <trkpt lon="-3.160344" lat="52.995613"><ele>440.877533</ele><time>2021-09-01T12:10:12Z</time><extensions><speed>1.346164</speed><course>336.001526</course><hAcc>0.882291</hAcc><vAcc>0.695680</vAcc></extensions></trkpt>
      <trkpt lon="-3.160345" lat="52.995601"><ele>440.865631</ele><time>2021-09-01T12:10:13Z</time><extensions><speed>1.338652</speed><course>319.189575</course><hAcc>0.882718</hAcc><vAcc>0.697132</vAcc></extensions></trkpt>
      <trkpt lon="-3.160345" lat="52.995589"><ele>440.853668</ele><time>2021-09-01T12:10:14Z</time><extensions><speed>1.329572</speed><course>314.045624</course><hAcc>0.883129</hAcc><vAcc>0.698517</vAcc></extensions></trkpt>
      <trkpt lon="-3.160346" lat="52.995577"><ele>440.841797</ele><time>2021-09-01T12:10:15Z</time><extensions><speed>1.319218</speed><course>316.798950</course><hAcc>0.883516</hAcc><vAcc>0.699791</vAcc></extensions></trkpt>
      <trkpt lon="-3.160346" lat="52.995565"><ele>440.829773</ele><time>2021-09-01T12:10:16Z</time><extensions><speed>1.308125</speed><course>316.381958</course><hAcc>0.883870</hAcc><vAcc>0.700922</vAcc></extensions></trkpt>
      <trkpt lon="-3.160346" lat="52.995553"><ele>440.817108</ele><time>2021-09-01T12:10:17Z</time><extensions><speed>1.297012</speed><course>324.109985</course><hAcc>0.884185</hAcc><vAcc>0.701898</vAcc></extensions></trkpt>
      <trkpt lon="-3.160346" lat="52.995542"><ele>440.803314</ele><time>2021-09-01T12:10:18Z</time><extensions><speed>1.286811</speed><course>319.248718</course><hAcc>0.884461</hAcc><vAcc>0.702715</vAcc></extensions></trkpt>
      <trkpt lon="-3.160345" lat="52.995530"><ele>440.788269</ele><time>2021-09-01T12:10:19Z</time><extensions><speed>1.278373</speed><course>322.755310</course><hAcc>0.884695</hAcc><vAcc>0.703381</vAcc></extensions></trkpt>
      <trkpt lon="-3.160344" lat="52.995519"><ele>440.771759</ele><time>2021-09-01T12:10:20Z</time><extensions><speed>1.271938</speed><course>326.625031</course><hAcc>0.884891</hAcc><vAcc>0.703913</vAcc></extensions></trkpt>
      <trkpt lon="-3.160342" lat="52.995507"><ele>440.753418</ele><time>2021-09-01T12:10:21Z</time><extensions><speed>1.267749</speed><course>328.024994</course><hAcc>0.885050</hAcc><vAcc>0.704337</vAcc></extensions></trkpt>
      <trkpt lon="-3.160340" lat="52.995496"><ele>440.732849</ele><time>2021-09-01T12:10:22Z</time><extensions><speed>1.266182</speed><course>332.378082</course><hAcc>0.885177</hAcc><vAcc>0.704681</vAcc></extensions></trkpt>
      <trkpt lon="-3.160338" lat="52.995485"><ele>440.709381</ele><time>2021-09-01T12:10:23Z</time><extensions><speed>1.267530</speed><course>332.526154</course><hAcc>0.885274</hAcc><vAcc>0.704970</vAcc></extensions></trkpt>
      <trkpt lon="-3.160336" lat="52.995473"><ele>440.682434</ele><time>2021-09-01T12:10:24Z</time><extensions><speed>1.271998</speed><course>335.486633</course><hAcc>0.885342</hAcc><vAcc>0.705207</vAcc></extensions></trkpt>
      <trkpt lon="-3.160333" lat="52.995462"><ele>440.651855</ele><time>2021-09-01T12:10:25Z</time><extensions><speed>1.279142</speed><course>336.016846</course><hAcc>0.885382</hAcc><vAcc>0.705381</vAcc></extensions></trkpt>
      <trkpt lon="-3.160329" lat="52.995451"><ele>440.618164</ele><time>2021-09-01T12:10:26Z</time><extensions><speed>1.288110</speed><course>334.888000</course><hAcc>0.885395</hAcc><vAcc>0.705474</vAcc></extensions></trkpt>
      <trkpt lon="-3.160326" lat="52.995439"><ele>440.582214</ele><time>2021-09-01T12:10:27Z</time><extensions><speed>1.297751</speed><course>333.393311</course><hAcc>0.885381</hAcc><vAcc>0.705473</vAcc></extensions></trkpt>
      <trkpt lon="-3.160322" lat="52.995428"><ele>440.545013</ele><time>2021-09-01T12:10:28Z</time><extensions><speed>1.306673</speed><course>318.935883</course><hAcc>0.885339</hAcc><vAcc>0.705367</vAcc></extensions></trkpt>
      <trkpt lon="-3.160317" lat="52.995416"><ele>440.507507</ele><time>2021-09-01T12:10:29Z</time><extensions><speed>1.313690</speed><course>311.891724</course><hAcc>0.885271</hAcc><vAcc>0.705149</vAcc></extensions></trkpt>
      <trkpt lon="-3.160313" lat="52.995405"><ele>440.470154</ele><time>2021-09-01T12:10:30Z</time><extensions><speed>1.317960</speed><course>312.578461</course><hAcc>0.885179</hAcc><vAcc>0.704823</vAcc></extensions></trkpt>
      <trkpt lon="-3.160308" lat="52.995393"><ele>440.433441</ele><time>2021-09-01T12:10:31Z</time><extensions><speed>1.318777</speed><course>320.602325</course><hAcc>0.885066</hAcc><vAcc>0.704403</vAcc></extensions></trkpt>
      <trkpt lon="-3.160304" lat="52.995382"><ele>440.397919</ele><time>2021-09-01T12:10:32Z</time><extensions><speed>1.315124</speed><course>323.639648</course><hAcc>0.884938</hAcc><vAcc>0.703916</vAcc></extensions></trkpt>
      <trkpt lon="-3.160299" lat="52.995371"><ele>440.363739</ele><time>2021-09-01T12:10:33Z</time><extensions><speed>1.305926</speed><course>325.641083</course><hAcc>0.884799</hAcc><vAcc>0.703395</vAcc></extensions></trkpt>
      <trkpt lon="-3.160294" lat="52.995359"><ele>440.330505</ele><time>2021-09-01T12:10:34Z</time><extensions><speed>1.290359</speed><course>324.286163</course><hAcc>0.884658</hAcc><vAcc>0.702870</vAcc></extensions></trkpt>
      <trkpt lon="-3.160290" lat="52.995348"><ele>440.297791</ele><time>2021-09-01T12:10:35Z</time><extensions><speed>1.267573</speed><course>330.884674</course><hAcc>0.884520</hAcc><vAcc>0.702367</vAcc></extensions></trkpt>
      <trkpt lon="-3.160285" lat="52.995337"><ele>440.264923</ele><time>2021-09-01T12:10:36Z</time><extensions><speed>1.236948</speed><course>342.591980</course><hAcc>0.884394</hAcc><vAcc>0.701906</vAcc></extensions></trkpt>
      <trkpt lon="-3.160281" lat="52.995326"><ele>440.230804</ele><time>2021-09-01T12:10:37Z</time><extensions><speed>1.198275</speed><course>340.473694</course><hAcc>0.884286</hAcc><vAcc>0.701506</vAcc></extensions></trkpt>
      <trkpt lon="-3.160278" lat="52.995316"><ele>440.193848</ele><time>2021-09-01T12:10:38Z</time><extensions><speed>1.151610</speed><course>337.459930</course><hAcc>0.884201</hAcc><vAcc>0.701189</vAcc></extensions></trkpt>
      <trkpt lon="-3.160275" lat="52.995306"><ele>440.152435</ele><time>2021-09-01T12:10:39Z</time><extensions><speed>1.097579</speed><course>334.977905</course><hAcc>0.884146</hAcc><vAcc>0.700978</vAcc></extensions></trkpt>
      <trkpt lon="-3.160272" lat="52.995297"><ele>440.105255</ele><time>2021-09-01T12:10:40Z</time><extensions><speed>1.037318</speed><course>334.909821</course><hAcc>0.884123</hAcc><vAcc>0.700886</vAcc></extensions></trkpt>
      <trkpt lon="-3.160270" lat="52.995288"><ele>440.051025</ele><time>2021-09-01T12:10:41Z</time><extensions><speed>0.972407</speed><course>335.401093</course><hAcc>0.884134</hAcc><vAcc>0.700917</vAcc></extensions></trkpt>
      <trkpt lon="-3.160269" lat="52.995279"><ele>439.988922</ele><time>2021-09-01T12:10:42Z</time><extensions><speed>0.904750</speed><course>335.416534</course><hAcc>0.884179</hAcc><vAcc>0.701073</vAcc></extensions></trkpt>
      <trkpt lon="-3.160269" lat="52.995272"><ele>439.918304</ele><time>2021-09-01T12:10:43Z</time><extensions><speed>0.836370</speed><course>333.502777</course><hAcc>0.884256</hAcc><vAcc>0.701351</vAcc></extensions></trkpt>
      <trkpt lon="-3.160270" lat="52.995264"><ele>439.838562</ele><time>2021-09-01T12:10:44Z</time><extensions><speed>0.770011</speed><course>334.704010</course><hAcc>0.884360</hAcc><vAcc>0.701745</vAcc></extensions></trkpt>
      <trkpt lon="-3.160272" lat="52.995258"><ele>439.749725</ele><time>2021-09-01T12:10:45Z</time><extensions><speed>0.709270</speed><course>336.400421</course><hAcc>0.884486</hAcc><vAcc>0.702235</vAcc></extensions></trkpt>
      <trkpt lon="-3.160275" lat="52.995252"><ele>439.652466</ele><time>2021-09-01T12:10:46Z</time><extensions><speed>0.658332</speed><course>347.265839</course><hAcc>0.884628</hAcc><vAcc>0.702784</vAcc></extensions></trkpt>
      <trkpt lon="-3.160279" lat="52.995247"><ele>439.548279</ele><time>2021-09-01T12:10:47Z</time><extensions><speed>0.620612</speed><course>344.062927</course><hAcc>0.884776</hAcc><vAcc>0.703351</vAcc></extensions></trkpt>
      <trkpt lon="-3.160284" lat="52.995242"><ele>439.439423</ele><time>2021-09-01T12:10:48Z</time><extensions><speed>0.596322</speed><course>337.032654</course><hAcc>0.884924</hAcc><vAcc>0.703898</vAcc></extensions></trkpt>
      <trkpt lon="-3.160290" lat="52.995238"><ele>439.328491</ele><time>2021-09-01T12:10:49Z</time><extensions><speed>0.581822</speed><course>338.548584</course><hAcc>0.885064</hAcc><vAcc>0.704394</vAcc></extensions></trkpt>
      <trkpt lon="-3.160296" lat="52.995235"><ele>439.218353</ele><time>2021-09-01T12:10:50Z</time><extensions><speed>0.570747</speed><course>340.790558</course><hAcc>0.885192</hAcc><vAcc>0.704820</vAcc></extensions></trkpt>
      <trkpt lon="-3.160303" lat="52.995232"><ele>439.111389</ele><time>2021-09-01T12:10:51Z</time><extensions><speed>0.556243</speed><course>331.528198</course><hAcc>0.885301</hAcc><vAcc>0.705165</vAcc></extensions></trkpt>
      <trkpt lon="-3.160311" lat="52.995230"><ele>439.009003</ele><time>2021-09-01T12:10:52Z</time><extensions><speed>0.532972</speed><course>326.705475</course><hAcc>0.885390</hAcc><vAcc>0.705426</vAcc></extensions></trkpt>
      <trkpt lon="-3.160318" lat="52.995228"><ele>438.911774</ele><time>2021-09-01T12:10:53Z</time><extensions><speed>0.498405</speed><course>334.332062</course><hAcc>0.885458</hAcc><vAcc>0.705606</vAcc></extensions></trkpt>
      <trkpt lon="-3.160324" lat="52.995227"><ele>438.820099</ele><time>2021-09-01T12:10:54Z</time><extensions><speed>0.452592</speed><course>321.684448</course><hAcc>0.885503</hAcc><vAcc>0.705709</vAcc></extensions></trkpt>
      <trkpt lon="-3.160330" lat="52.995225"><ele>438.734406</ele><time>2021-09-01T12:10:55Z</time><extensions><speed>0.397374</speed><course>319.446838</course><hAcc>0.885525</hAcc><vAcc>0.705746</vAcc></extensions></trkpt>
      <trkpt lon="-3.160336" lat="52.995224"><ele>438.655670</ele><time>2021-09-01T12:10:56Z</time><extensions><speed>0.334975</speed><course>327.299927</course><hAcc>0.885526</hAcc><vAcc>0.705728</vAcc></extensions></trkpt>
      <trkpt lon="-3.160340" lat="52.995224"><ele>438.585022</ele><time>2021-09-01T12:10:57Z</time><extensions><speed>0.267315</speed><course>327.362518</course><hAcc>0.885504</hAcc><vAcc>0.705662</vAcc></extensions></trkpt>
      <trkpt lon="-3.160343" lat="52.995223"><ele>438.523651</ele><time>2021-09-01T12:10:58Z</time><extensions><speed>0.198540</speed><course>320.449799</course><hAcc>0.885460</hAcc><vAcc>0.705551</vAcc></extensions></trkpt>
      <trkpt lon="-3.160345" lat="52.995222"><ele>438.472321</ele><time>2021-09-01T12:10:59Z</time><extensions><speed>0.141029</speed><course>323.666901</course><hAcc>0.885393</hAcc><vAcc>0.705387</vAcc></extensions></trkpt>
      <trkpt lon="-3.160346" lat="52.995221"><ele>438.431274</ele><time>2021-09-01T12:11:00Z</time><extensions><speed>0.127688</speed><course>325.310486</course><hAcc>0.885302</hAcc><vAcc>0.705150</vAcc></extensions></trkpt>
      <trkpt lon="-3.160345" lat="52.995220"><ele>438.400513</ele><time>2021-09-01T12:11:01Z</time><extensions><speed>0.178254</speed><course>323.024933</course><hAcc>0.885187</hAcc><vAcc>0.704826</vAcc></extensions></trkpt>
      <trkpt lon="-3.160344" lat="52.995218"><ele>438.379974</ele><time>2021-09-01T12:11:02Z</time><extensions><speed>0.262973</speed><course>321.641022</course><hAcc>0.885049</hAcc><vAcc>0.704406</vAcc></extensions></trkpt>
      <trkpt lon="-3.160340" lat="52.995216"><ele>438.369354</ele><time>2021-09-01T12:11:03Z</time><extensions><speed>0.361640</speed><course>323.471222</course><hAcc>0.884889</hAcc><vAcc>0.703892</vAcc></extensions></trkpt>
      <trkpt lon="-3.160336" lat="52.995213"><ele>438.367737</ele><time>2021-09-01T12:11:04Z</time><extensions><speed>0.466817</speed><course>324.875793</course><hAcc>0.884711</hAcc><vAcc>0.703294</vAcc></extensions></trkpt>
      <trkpt lon="-3.160330" lat="52.995210"><ele>438.373566</ele><time>2021-09-01T12:11:05Z</time><extensions><speed>0.574294</speed><course>318.989594</course><hAcc>0.884521</hAcc><vAcc>0.702633</vAcc></extensions></trkpt>
      <trkpt lon="-3.160324" lat="52.995206"><ele>438.384583</ele><time>2021-09-01T12:11:06Z</time><extensions><speed>0.680038</speed><course>325.887390</course><hAcc>0.884327</hAcc><vAcc>0.701936</vAcc></extensions></trkpt>
      <trkpt lon="-3.160316" lat="52.995202"><ele>438.397949</ele><time>2021-09-01T12:11:07Z</time><extensions><speed>0.779552</speed><course>320.176544</course><hAcc>0.884139</hAcc><vAcc>0.701236</vAcc></extensions></trkpt>
      <trkpt lon="-3.160307" lat="52.995196"><ele>438.411072</ele><time>2021-09-01T12:11:08Z</time><extensions><speed>0.868111</speed><course>316.970215</course><hAcc>0.883966</hAcc><vAcc>0.700569</vAcc></extensions></trkpt>
      <trkpt lon="-3.160298" lat="52.995190"><ele>438.421967</ele><time>2021-09-01T12:11:09Z</time><extensions><speed>0.941241</speed><course>317.579376</course><hAcc>0.883820</hAcc><vAcc>0.699978</vAcc></extensions></trkpt>
      <trkpt lon="-3.160289" lat="52.995184"><ele>438.429688</ele><time>2021-09-01T12:11:10Z</time><extensions><speed>0.996799</speed><course>318.426422</course><hAcc>0.883712</hAcc><vAcc>0.699516</vAcc></extensions></trkpt>
      <trkpt lon="-3.160280" lat="52.995176"><ele>438.434387</ele><time>2021-09-01T12:11:11Z</time><extensions><speed>1.035904</speed><course>326.252594</course><hAcc>0.883651</hAcc><vAcc>0.699235</vAcc></extensions></trkpt>
      <trkpt lon="-3.160271" lat="52.995169"><ele>438.436096</ele><time>2021-09-01T12:11:12Z</time><extensions><speed>1.060739</speed><course>323.145020</course><hAcc>0.883645</hAcc><vAcc>0.699179</vAcc></extensions></trkpt>
      <trkpt lon="-3.160263" lat="52.995160"><ele>438.434113</ele><time>2021-09-01T12:11:13Z</time><extensions><speed>1.072934</speed><course>325.683777</course><hAcc>0.883694</hAcc><vAcc>0.699358</vAcc></extensions></trkpt>
      <trkpt lon="-3.160255" lat="52.995152"><ele>438.427704</ele><time>2021-09-01T12:11:14Z</time><extensions><speed>1.073997</speed><course>328.591705</course><hAcc>0.883795</hAcc><vAcc>0.699753</vAcc></extensions></trkpt>
      <trkpt lon="-3.160248" lat="52.995143"><ele>438.416382</ele><time>2021-09-01T12:11:15Z</time><extensions><speed>1.065856</speed><course>330.002411</course><hAcc>0.883942</hAcc><vAcc>0.700324</vAcc></extensions></trkpt>
      <trkpt lon="-3.160242" lat="52.995135"><ele>438.399750</ele><time>2021-09-01T12:11:16Z</time><extensions><speed>1.050592</speed><course>336.475830</course><hAcc>0.884124</hAcc><vAcc>0.701021</vAcc></extensions></trkpt>
      <trkpt lon="-3.160236" lat="52.995126"><ele>438.377289</ele><time>2021-09-01T12:11:17Z</time><extensions><speed>1.030312</speed><course>344.051849</course><hAcc>0.884327</hAcc><vAcc>0.701796</vAcc></extensions></trkpt>
      <trkpt lon="-3.160231" lat="52.995117"><ele>438.348450</ele><time>2021-09-01T12:11:18Z</time><extensions><speed>1.007530</speed><course>336.407532</course><hAcc>0.884537</hAcc><vAcc>0.702602</vAcc></extensions></trkpt>
      <trkpt lon="-3.160226" lat="52.995109"><ele>438.312988</ele><time>2021-09-01T12:11:19Z</time><extensions><speed>0.986002</speed><course>333.640045</course><hAcc>0.884739</hAcc><vAcc>0.703393</vAcc></extensions></trkpt>
      <trkpt lon="-3.160223" lat="52.995100"><ele>438.271332</ele><time>2021-09-01T12:11:20Z</time><extensions><speed>0.969806</speed><course>342.498993</course><hAcc>0.884918</hAcc><vAcc>0.704119</vAcc></extensions></trkpt>
      <trkpt lon="-3.160219" lat="52.995092"><ele>438.224243</ele><time>2021-09-01T12:11:21Z</time><extensions><speed>0.961604</speed><course>346.370605</course><hAcc>0.885061</hAcc><vAcc>0.704732</vAcc></extensions></trkpt>
      <trkpt lon="-3.160216" lat="52.995083"><ele>438.172485</ele><time>2021-09-01T12:11:22Z</time><extensions><speed>0.962500</speed><course>342.144836</course><hAcc>0.885157</hAcc><vAcc>0.705185</vAcc></extensions></trkpt>
      <trkpt lon="-3.160213" lat="52.995075"><ele>438.117096</ele><time>2021-09-01T12:11:23Z</time><extensions><speed>0.972635</speed><course>335.813446</course><hAcc>0.885198</hAcc><vAcc>0.705433</vAcc></extensions></trkpt>
      <trkpt lon="-3.160210" lat="52.995066"><ele>438.059906</ele><time>2021-09-01T12:11:24Z</time><extensions><speed>0.991640</speed><course>332.699371</course><hAcc>0.885182</hAcc><vAcc>0.705442</vAcc></extensions></trkpt>
      <trkpt lon="-3.160207" lat="52.995057"><ele>438.002472</ele><time>2021-09-01T12:11:25Z</time><extensions><speed>1.018607</speed><course>329.959167</course><hAcc>0.885113</hAcc><vAcc>0.705195</vAcc></extensions></trkpt>
      <trkpt lon="-3.160204" lat="52.995048"><ele>437.945221</ele><time>2021-09-01T12:11:26Z</time><extensions><speed>1.051610</speed><course>328.573547</course><hAcc>0.884997</hAcc><vAcc>0.704705</vAcc></extensions></trkpt>
      <trkpt lon="-3.160201" lat="52.995039"><ele>437.887878</ele><time>2021-09-01T12:11:27Z</time><extensions><speed>1.087947</speed><course>326.699219</course><hAcc>0.884847</hAcc><vAcc>0.704020</vAcc></extensions></trkpt>
      <trkpt lon="-3.160198" lat="52.995029"><ele>437.830048</ele><time>2021-09-01T12:11:28Z</time><extensions><speed>1.125180</speed><course>323.768890</course><hAcc>0.884678</hAcc><vAcc>0.703221</vAcc></extensions></trkpt>
      <trkpt lon="-3.160195" lat="52.995019"><ele>437.771118</ele><time>2021-09-01T12:11:29Z</time><extensions><speed>1.161626</speed><course>323.826019</course><hAcc>0.884509</hAcc><vAcc>0.702417</vAcc></extensions></trkpt>
      <trkpt lon="-3.160191" lat="52.995009"><ele>437.709930</ele><time>2021-09-01T12:11:30Z</time><extensions><speed>1.196373</speed><course>332.271057</course><hAcc>0.884357</hAcc><vAcc>0.701721</vAcc></extensions></trkpt>
      <trkpt lon="-3.160187" lat="52.994998"><ele>437.644653</ele><time>2021-09-01T12:11:31Z</time><extensions><speed>1.228783</speed><course>333.951233</course><hAcc>0.884237</hAcc><vAcc>0.701227</vAcc></extensions></trkpt>
      <trkpt lon="-3.160182" lat="52.994987"><ele>437.572906</ele><time>2021-09-01T12:11:32Z</time><extensions><speed>1.258343</speed><course>329.776917</course><hAcc>0.884158</hAcc><vAcc>0.700980</vAcc></extensions></trkpt>
      <trkpt lon="-3.160177" lat="52.994976"><ele>437.492310</ele><time>2021-09-01T12:11:33Z</time><extensions><speed>1.284969</speed><course>319.463959</course><hAcc>0.884123</hAcc><vAcc>0.700963</vAcc></extensions></trkpt>
      <trkpt lon="-3.160172" lat="52.994965"><ele>437.401733</ele><time>2021-09-01T12:11:34Z</time><extensions><speed>1.308919</speed><course>318.313507</course><hAcc>0.884128</hAcc><vAcc>0.701112</vAcc></extensions></trkpt>
      <trkpt lon="-3.160166" lat="52.994954"><ele>437.301605</ele><time>2021-09-01T12:11:35Z</time><extensions><speed>1.330361</speed><course>318.491211</course><hAcc>0.884168</hAcc><vAcc>0.701355</vAcc></extensions></trkpt>
      <trkpt lon="-3.160159" lat="52.994942"><ele>437.192993</ele><time>2021-09-01T12:11:36Z</time><extensions><speed>1.349402</speed><course>324.025574</course><hAcc>0.884233</hAcc><vAcc>0.701636</vAcc></extensions></trkpt>
      <trkpt lon="-3.160153" lat="52.994931"><ele>437.077118</ele><time>2021-09-01T12:11:37Z</time><extensions><speed>1.365979</speed><course>330.489594</course><hAcc>0.884317</hAcc><vAcc>0.701925</vAcc></extensions></trkpt>
      <trkpt lon="-3.160145" lat="52.994919"><ele>436.955109</ele><time>2021-09-01T12:11:38Z</time><extensions><speed>1.379827</speed><course>319.490967</course><hAcc>0.884412</hAcc><vAcc>0.702218</vAcc></extensions></trkpt>
      <trkpt lon="-3.160138" lat="52.994908"><ele>436.828247</ele><time>2021-09-01T12:11:39Z</time><extensions><speed>1.390757</speed><course>318.785126</course><hAcc>0.884514</hAcc><vAcc>0.702522</vAcc></extensions></trkpt>
      <trkpt lon="-3.160130" lat="52.994896"><ele>436.698242</ele><time>2021-09-01T12:11:40Z</time><extensions><speed>1.398465</speed><course>319.524078</course><hAcc>0.884618</hAcc><vAcc>0.702839</vAcc></extensions></trkpt>
      <trkpt lon="-3.160122" lat="52.994885"><ele>436.567139</ele><time>2021-09-01T12:11:41Z</time><extensions><speed>1.402891</speed><course>320.200592</course><hAcc>0.884721</hAcc><vAcc>0.703160</vAcc></extensions></trkpt>
      <trkpt lon="-3.160113" lat="52.994873"><ele>436.436768</ele><time>2021-09-01T12:11:42Z</time><extensions><speed>1.404239</speed><course>316.905914</course><hAcc>0.884821</hAcc><vAcc>0.703471</vAcc></extensions></trkpt>
      <trkpt lon="-3.160104" lat="52.994862"><ele>436.308716</ele><time>2021-09-01T12:11:43Z</time><extensions><speed>1.402424</speed><course>304.890350</course><hAcc>0.884916</hAcc><vAcc>0.703761</vAcc></extensions></trkpt>
      <trkpt lon="-3.160096" lat="52.994850"><ele>436.184174</ele><time>2021-09-01T12:11:44Z</time><extensions><speed>1.397330</speed><course>307.400696</course><hAcc>0.885006</hAcc><vAcc>0.704026</vAcc></extensions></trkpt>
      <trkpt lon="-3.160087" lat="52.994839"><ele>436.064087</ele><time>2021-09-01T12:11:45Z</time><extensions><speed>1.389118</speed><course>312.802460</course><hAcc>0.885089</hAcc><vAcc>0.704268</vAcc></extensions></trkpt>
      <trkpt lon="-3.160077" lat="52.994828"><ele>435.949097</ele><time>2021-09-01T12:11:46Z</time><extensions><speed>1.378106</speed><course>316.368164</course><hAcc>0.885165</hAcc><vAcc>0.704495</vAcc></extensions></trkpt>
      <trkpt lon="-3.160068" lat="52.994817"><ele>435.839447</ele><time>2021-09-01T12:11:47Z</time><extensions><speed>1.364465</speed><course>316.320160</course><hAcc>0.885233</hAcc><vAcc>0.704713</vAcc></extensions></trkpt>
      <trkpt lon="-3.160059" lat="52.994806"><ele>435.734955</ele><time>2021-09-01T12:11:48Z</time><extensions><speed>1.348484</speed><course>316.450867</course><hAcc>0.885290</hAcc><vAcc>0.704920</vAcc></extensions></trkpt>
      <trkpt lon="-3.160049" lat="52.994795"><ele>435.634521</ele><time>2021-09-01T12:11:49Z</time><extensions><speed>1.330909</speed><course>319.349792</course><hAcc>0.885335</hAcc><vAcc>0.705107</vAcc></extensions></trkpt>
      <trkpt lon="-3.160039" lat="52.994785"><ele>435.536682</ele><time>2021-09-01T12:11:50Z</time><extensions><speed>1.312780</speed><course>313.071381</course><hAcc>0.885365</hAcc><vAcc>0.705255</vAcc></extensions></trkpt>
      <trkpt lon="-3.160029" lat="52.994775"><ele>435.440216</ele><time>2021-09-01T12:11:51Z</time><extensions><speed>1.294939</speed><course>306.006348</course><hAcc>0.885376</hAcc><vAcc>0.705345</vAcc></extensions></trkpt>
      <trkpt lon="-3.160019" lat="52.994765"><ele>435.344574</ele><time>2021-09-01T12:11:52Z</time><extensions><speed>1.278010</speed><course>311.452911</course><hAcc>0.885365</hAcc><vAcc>0.705358</vAcc></extensions></trkpt>
      <trkpt lon="-3.160009" lat="52.994756"><ele>435.249725</ele><time>2021-09-01T12:11:53Z</time><extensions><speed>1.262746</speed><course>310.591675</course><hAcc>0.885331</hAcc><vAcc>0.705280</vAcc></extensions></trkpt>
      <trkpt lon="-3.159998" lat="52.994746"><ele>435.156036</ele><time>2021-09-01T12:11:54Z</time><extensions><speed>1.249591</speed><course>316.620819</course><hAcc>0.885270</hAcc><vAcc>0.705104</vAcc></extensions></trkpt>
      <trkpt lon="-3.159987" lat="52.994737"><ele>435.063934</ele><time>2021-09-01T12:11:55Z</time><extensions><speed>1.238489</speed><course>320.076630</course><hAcc>0.885184</hAcc><vAcc>0.704827</vAcc></extensions></trkpt>
      <trkpt lon="-3.159976" lat="52.994729"><ele>434.973480</ele><time>2021-09-01T12:11:56Z</time><extensions><speed>1.229492</speed><course>314.990906</course><hAcc>0.885074</hAcc><vAcc>0.704450</vAcc></extensions></trkpt>
      <trkpt lon="-3.159965" lat="52.994720"><ele>434.884521</ele><time>2021-09-01T12:11:57Z</time><extensions><speed>1.222989</speed><course>313.547699</course><hAcc>0.884941</hAcc><vAcc>0.703984</vAcc></extensions></trkpt>
      <trkpt lon="-3.159953" lat="52.994712"><ele>434.796967</ele><time>2021-09-01T12:11:58Z</time><extensions><speed>1.219048</speed><course>312.795837</course><hAcc>0.884789</hAcc><vAcc>0.703444</vAcc></extensions></trkpt>
      <trkpt lon="-3.159941" lat="52.994703"><ele>434.710388</ele><time>2021-09-01T12:11:59Z</time><extensions><speed>1.217056</speed><course>316.185669</course><hAcc>0.884625</hAcc><vAcc>0.702852</vAcc></extensions></trkpt>
      <trkpt lon="-3.159929" lat="52.994695"><ele>434.623871</ele><time>2021-09-01T12:12:00Z</time><extensions><speed>1.216244</speed><course>317.614319</course><hAcc>0.884454</hAcc><vAcc>0.702233</vAcc></extensions></trkpt>
      <trkpt lon="-3.159917" lat="52.994687"><ele>434.536377</ele><time>2021-09-01T12:12:01Z</time><extensions><speed>1.216385</speed><course>316.517609</course><hAcc>0.884283</hAcc><vAcc>0.701612</vAcc></extensions></trkpt>
      <trkpt lon="-3.159904" lat="52.994679"><ele>434.446960</ele><time>2021-09-01T12:12:02Z</time><extensions><speed>1.217363</speed><course>310.556824</course><hAcc>0.884117</hAcc><vAcc>0.701016</vAcc></extensions></trkpt>
      <trkpt lon="-3.159891" lat="52.994672"><ele>434.355011</ele><time>2021-09-01T12:12:04Z</time><extensions><speed>1.218902</speed><course>304.635742</course><hAcc>0.883945</hAcc><vAcc>0.700454</vAcc></extensions></trkpt>
      <trkpt lon="-3.159879" lat="52.994664"><ele>434.260529</ele><time>2021-09-01T12:12:04Z</time><extensions><speed>1.220571</speed><course>315.495270</course><hAcc>0.883790</hAcc><vAcc>0.699955</vAcc></extensions></trkpt>
      <trkpt lon="-3.159866" lat="52.994656"><ele>434.162781</ele><time>2021-09-01T12:12:05Z</time><extensions><speed>1.221681</speed><course>313.552460</course><hAcc>0.883673</hAcc><vAcc>0.699541</vAcc></extensions></trkpt>
      <trkpt lon="-3.159853" lat="52.994648"><ele>434.061096</ele><time>2021-09-01T12:12:06Z</time><extensions><speed>1.221769</speed><course>313.420563</course><hAcc>0.883577</hAcc><vAcc>0.699206</vAcc></extensions></trkpt>
      <trkpt lon="-3.159841" lat="52.994640"><ele>433.954681</ele><time>2021-09-01T12:12:07Z</time><extensions><speed>1.220809</speed><course>317.431976</course><hAcc>0.883506</hAcc><vAcc>0.698957</vAcc></extensions></trkpt>
      <trkpt lon="-3.159828" lat="52.994632"><ele>433.843231</ele><time>2021-09-01T12:12:08Z</time><extensions><speed>1.218748</speed><course>314.662933</course><hAcc>0.883459</hAcc><vAcc>0.698800</vAcc></extensions></trkpt>
      <trkpt lon="-3.159816" lat="52.994624"><ele>433.726959</ele><time>2021-09-01T12:12:10Z</time><extensions><speed>1.215355</speed><course>316.217957</course><hAcc>0.883417</hAcc><vAcc>0.698723</vAcc></extensions></trkpt>
      <trkpt lon="-3.159804" lat="52.994616"><ele>433.606140</ele><time>2021-09-01T12:12:10Z</time><extensions><speed>1.210681</speed><course>314.471741</course><hAcc>0.883396</hAcc><vAcc>0.698729</vAcc></extensions></trkpt>
      <trkpt lon="-3.159793" lat="52.994607"><ele>433.480133</ele><time>2021-09-01T12:12:12Z</time><extensions><speed>1.205176</speed><course>317.281403</course><hAcc>0.883391</hAcc><vAcc>0.698789</vAcc></extensions></trkpt>
      <trkpt lon="-3.159781" lat="52.994599"><ele>433.348999</ele><time>2021-09-01T12:12:13Z</time><extensions><speed>1.199187</speed><course>311.230988</course><hAcc>0.883380</hAcc><vAcc>0.698855</vAcc></extensions></trkpt>
      <trkpt lon="-3.159770" lat="52.994591"><ele>433.212341</ele><time>2021-09-01T12:12:14Z</time><extensions><speed>1.192917</speed><course>311.227600</course><hAcc>0.883377</hAcc><vAcc>0.698903</vAcc></extensions></trkpt>
      <trkpt lon="-3.159759" lat="52.994582"><ele>433.069824</ele><time>2021-09-01T12:12:15Z</time><extensions><speed>1.186749</speed><course>310.576416</course><hAcc>0.883379</hAcc><vAcc>0.698916</vAcc></extensions></trkpt>
      <trkpt lon="-3.159748" lat="52.994574"><ele>432.921082</ele><time>2021-09-01T12:12:16Z</time><extensions><speed>1.180501</speed><course>313.656311</course><hAcc>0.883387</hAcc><vAcc>0.698896</vAcc></extensions></trkpt>
      <trkpt lon="-3.159738" lat="52.994565"><ele>432.765869</ele><time>2021-09-01T12:12:17Z</time><extensions><speed>1.173455</speed><course>319.881683</course><hAcc>0.883401</hAcc><vAcc>0.698866</vAcc></extensions></trkpt>
      <trkpt lon="-3.159728" lat="52.994557"><ele>432.604034</ele><time>2021-09-01T12:12:18Z</time><extensions><speed>1.165340</speed><course>322.545044</course><hAcc>0.883425</hAcc><vAcc>0.698858</vAcc></extensions></trkpt>
      <trkpt lon="-3.159718" lat="52.994548"><ele>432.435516</ele><time>2021-09-01T12:12:19Z</time><extensions><speed>1.155956</speed><course>315.377472</course><hAcc>0.883463</hAcc><vAcc>0.698908</vAcc></extensions></trkpt>
      <trkpt lon="-3.159708" lat="52.994540"><ele>432.260529</ele><time>2021-09-01T12:12:20Z</time><extensions><speed>1.144804</speed><course>321.220673</course><hAcc>0.883518</hAcc><vAcc>0.699041</vAcc></extensions></trkpt>
      <trkpt lon="-3.159698" lat="52.994532"><ele>432.079468</ele><time>2021-09-01T12:12:21Z</time><extensions><speed>1.131851</speed><course>319.716766</course><hAcc>0.883591</hAcc><vAcc>0.699268</vAcc></extensions></trkpt>
      <trkpt lon="-3.159688" lat="52.994523"><ele>431.892853</ele><time>2021-09-01T12:12:22Z</time><extensions><speed>1.117378</speed><course>323.703217</course><hAcc>0.883681</hAcc><vAcc>0.699587</vAcc></extensions></trkpt>
      <trkpt lon="-3.159679" lat="52.994515"><ele>431.700928</ele><time>2021-09-01T12:12:23Z</time><extensions><speed>1.101573</speed><course>322.763458</course><hAcc>0.883786</hAcc><vAcc>0.699984</vAcc></extensions></trkpt>
      <trkpt lon="-3.159669" lat="52.994507"><ele>431.504181</ele><time>2021-09-01T12:12:24Z</time><extensions><speed>1.085055</speed><course>321.396271</course><hAcc>0.883901</hAcc><vAcc>0.700435</vAcc></extensions></trkpt>
      <trkpt lon="-3.159660" lat="52.994500"><ele>431.303406</ele><time>2021-09-01T12:12:25Z</time><extensions><speed>1.069242</speed><course>324.253845</course><hAcc>0.884021</hAcc><vAcc>0.700909</vAcc></extensions></trkpt>
      <trkpt lon="-3.159650" lat="52.994492"><ele>431.099365</ele><time>2021-09-01T12:12:26Z</time><extensions><speed>1.055442</speed><course>322.941711</course><hAcc>0.884138</hAcc><vAcc>0.701370</vAcc></extensions></trkpt>
      <trkpt lon="-3.159641" lat="52.994484"><ele>430.892914</ele><time>2021-09-01T12:12:27Z</time><extensions><speed>1.044400</speed><course>324.827728</course><hAcc>0.884246</hAcc><vAcc>0.701784</vAcc></extensions></trkpt>
      <trkpt lon="-3.159631" lat="52.994477"><ele>430.684906</ele><time>2021-09-01T12:12:28Z</time><extensions><speed>1.036613</speed><course>323.315277</course><hAcc>0.884337</hAcc><vAcc>0.702124</vAcc></extensions></trkpt>
      <trkpt lon="-3.159622" lat="52.994470"><ele>430.476624</ele><time>2021-09-01T12:12:29Z</time><extensions><speed>1.032629</speed><course>316.049652</course><hAcc>0.884408</hAcc><vAcc>0.702371</vAcc></extensions></trkpt>
      <trkpt lon="-3.159612" lat="52.994462"><ele>430.269196</ele><time>2021-09-01T12:12:30Z</time><extensions><speed>1.032639</speed><course>321.640442</course><hAcc>0.884452</hAcc><vAcc>0.702513</vAcc></extensions></trkpt>
      <trkpt lon="-3.159602" lat="52.994455"><ele>430.063507</ele><time>2021-09-01T12:12:31Z</time><extensions><speed>1.036414</speed><course>318.527374</course><hAcc>0.884469</hAcc><vAcc>0.702552</vAcc></extensions></trkpt>
      <trkpt lon="-3.159592" lat="52.994448"><ele>429.860077</ele><time>2021-09-01T12:12:32Z</time><extensions><speed>1.044012</speed><course>327.209106</course><hAcc>0.884456</hAcc><vAcc>0.702490</vAcc></extensions></trkpt>
      <trkpt lon="-3.159582" lat="52.994441"><ele>429.658997</ele><time>2021-09-01T12:12:33Z</time><extensions><speed>1.055565</speed><course>321.431091</course><hAcc>0.884413</hAcc><vAcc>0.702333</vAcc></extensions></trkpt>
      <trkpt lon="-3.159571" lat="52.994434"><ele>429.459686</ele><time>2021-09-01T12:12:34Z</time><extensions><speed>1.070545</speed><course>309.255585</course><hAcc>0.884341</hAcc><vAcc>0.702092</vAcc></extensions></trkpt>
      <trkpt lon="-3.159559" lat="52.994427"><ele>429.261475</ele><time>2021-09-01T12:12:35Z</time><extensions><speed>1.087957</speed><course>316.262177</course><hAcc>0.884241</hAcc><vAcc>0.701771</vAcc></extensions></trkpt>
      <trkpt lon="-3.159548" lat="52.994421"><ele>429.064087</ele><time>2021-09-01T12:12:36Z</time><extensions><speed>1.107212</speed><course>318.486328</course><hAcc>0.884116</hAcc><vAcc>0.701372</vAcc></extensions></trkpt>
      <trkpt lon="-3.159535" lat="52.994414"><ele>428.867493</ele><time>2021-09-01T12:12:37Z</time><extensions><speed>1.127993</speed><course>323.918549</course><hAcc>0.883968</hAcc><vAcc>0.700895</vAcc></extensions></trkpt>
      <trkpt lon="-3.159523" lat="52.994407"><ele>428.671753</ele><time>2021-09-01T12:12:38Z</time><extensions><speed>1.149526</speed><course>326.771637</course><hAcc>0.883799</hAcc><vAcc>0.700342</vAcc></extensions></trkpt>
      <trkpt lon="-3.159510" lat="52.994400"><ele>428.476776</ele><time>2021-09-01T12:12:39Z</time><extensions><speed>1.170852</speed><course>322.066162</course><hAcc>0.883615</hAcc><vAcc>0.699722</vAcc></extensions></trkpt>
      <trkpt lon="-3.159497" lat="52.994393"><ele>428.282196</ele><time>2021-09-01T12:12:40Z</time><extensions><speed>1.191313</speed><course>315.897980</course><hAcc>0.883418</hAcc><vAcc>0.699050</vAcc></extensions></trkpt>
      <trkpt lon="-3.159483" lat="52.994386"><ele>428.087555</ele><time>2021-09-01T12:12:41Z</time><extensions><speed>1.210397</speed><course>320.677979</course><hAcc>0.883216</hAcc><vAcc>0.698347</vAcc></extensions></trkpt>
      <trkpt lon="-3.159470" lat="52.994379"><ele>427.892517</ele><time>2021-09-01T12:12:42Z</time><extensions><speed>1.227966</speed><course>328.194458</course><hAcc>0.883012</hAcc><vAcc>0.697642</vAcc></extensions></trkpt>
      <trkpt lon="-3.159456" lat="52.994371"><ele>427.697174</ele><time>2021-09-01T12:12:43Z</time><extensions><speed>1.243880</speed><course>342.191681</course><hAcc>0.882811</hAcc><vAcc>0.696960</vAcc></extensions></trkpt>
      <trkpt lon="-3.159442" lat="52.994363"><ele>427.501648</ele><time>2021-09-01T12:12:44Z</time><extensions><speed>1.258142</speed><course>338.973602</course><hAcc>0.882617</hAcc><vAcc>0.696323</vAcc></extensions></trkpt>
      <trkpt lon="-3.159429" lat="52.994356"><ele>427.306183</ele><time>2021-09-01T12:12:45Z</time><extensions><speed>1.271147</speed><course>338.845032</course><hAcc>0.882434</hAcc><vAcc>0.695738</vAcc></extensions></trkpt>
      <trkpt lon="-3.159415" lat="52.994348"><ele>427.110870</ele><time>2021-09-01T12:12:46Z</time><extensions><speed>1.282928</speed><course>343.294373</course><hAcc>0.882260</hAcc><vAcc>0.695206</vAcc></extensions></trkpt>
      <trkpt lon="-3.159402" lat="52.994339"><ele>426.915741</ele><time>2021-09-01T12:12:47Z</time><extensions><speed>1.293046</speed><course>345.380096</course><hAcc>0.882098</hAcc><vAcc>0.694717</vAcc></extensions></trkpt>
      <trkpt lon="-3.159388" lat="52.994331"><ele>426.720734</ele><time>2021-09-01T12:12:48Z</time><extensions><speed>1.300979</speed><course>336.417389</course><hAcc>0.881946</hAcc><vAcc>0.694259</vAcc></extensions></trkpt>
      <trkpt lon="-3.159375" lat="52.994323"><ele>426.525635</ele><time>2021-09-01T12:12:49Z</time><extensions><speed>1.306382</speed><course>349.627289</course><hAcc>0.881803</hAcc><vAcc>0.693822</vAcc></extensions></trkpt>
      <trkpt lon="-3.159362" lat="52.994314"><ele>426.330078</ele><time>2021-09-01T12:12:50Z</time><extensions><speed>1.309209</speed><course>333.102356</course><hAcc>0.881668</hAcc><vAcc>0.693401</vAcc></extensions></trkpt>
      <trkpt lon="-3.159349" lat="52.994305"><ele>426.133545</ele><time>2021-09-01T12:12:51Z</time><extensions><speed>1.309883</speed><course>345.486877</course><hAcc>0.881543</hAcc><vAcc>0.692999</vAcc></extensions></trkpt>
      <trkpt lon="-3.159336" lat="52.994296"><ele>425.935730</ele><time>2021-09-01T12:12:52Z</time><extensions><speed>1.309220</speed><course>343.184906</course><hAcc>0.881427</hAcc><vAcc>0.692622</vAcc></extensions></trkpt>
      <trkpt lon="-3.159324" lat="52.994287"><ele>425.736725</ele><time>2021-09-01T12:12:53Z</time><extensions><speed>1.307737</speed><course>342.239624</course><hAcc>0.881322</hAcc><vAcc>0.692278</vAcc></extensions></trkpt>
      <trkpt lon="-3.159312" lat="52.994278"><ele>425.536957</ele><time>2021-09-01T12:12:54Z</time><extensions><speed>1.305496</speed><course>352.331055</course><hAcc>0.881229</hAcc><vAcc>0.691971</vAcc></extensions></trkpt>
      <trkpt lon="-3.159301" lat="52.994268"><ele>425.336945</ele><time>2021-09-01T12:12:55Z</time><extensions><speed>1.302324</speed><course>352.560638</course><hAcc>0.881150</hAcc><vAcc>0.691705</vAcc></extensions></trkpt>
      <trkpt lon="-3.159290" lat="52.994259"><ele>425.137299</ele><time>2021-09-01T12:12:56Z</time><extensions><speed>1.298043</speed><course>349.901215</course><hAcc>0.881088</hAcc><vAcc>0.691489</vAcc></extensions></trkpt>
      <trkpt lon="-3.159279" lat="52.994249"><ele>424.938690</ele><time>2021-09-01T12:12:57Z</time><extensions><speed>1.292695</speed><course>347.225525</course><hAcc>0.881044</hAcc><vAcc>0.691333</vAcc></extensions></trkpt>
      <trkpt lon="-3.159268" lat="52.994239"><ele>424.741882</ele><time>2021-09-01T12:12:58Z</time><extensions><speed>1.286339</speed><course>342.525452</course><hAcc>0.881022</hAcc><vAcc>0.691248</vAcc></extensions></trkpt>
      <trkpt lon="-3.159258" lat="52.994229"><ele>424.548004</ele><time>2021-09-01T12:12:59Z</time><extensions><speed>1.279035</speed><course>344.186432</course><hAcc>0.881026</hAcc><vAcc>0.691241</vAcc></extensions></trkpt>
      <trkpt lon="-3.159248" lat="52.994220"><ele>424.358337</ele><time>2021-09-01T12:13:00Z</time><extensions><speed>1.270939</speed><course>344.723938</course><hAcc>0.881058</hAcc><vAcc>0.691317</vAcc></extensions></trkpt>
      <trkpt lon="-3.159239" lat="52.994210"><ele>424.174103</ele><time>2021-09-01T12:13:01Z</time><extensions><speed>1.262154</speed><course>335.783966</course><hAcc>0.881121</hAcc><vAcc>0.691484</vAcc></extensions></trkpt>
      <trkpt lon="-3.159230" lat="52.994200"><ele>423.996368</ele><time>2021-09-01T12:13:02Z</time><extensions><speed>1.252843</speed><course>346.047455</course><hAcc>0.881219</hAcc><vAcc>0.691756</vAcc></extensions></trkpt>
      <trkpt lon="-3.159221" lat="52.994190"><ele>423.826019</ele><time>2021-09-01T12:13:03Z</time><extensions><speed>1.243280</speed><course>348.227631</course><hAcc>0.881354</hAcc><vAcc>0.692154</vAcc></extensions></trkpt>
      <trkpt lon="-3.159213" lat="52.994180"><ele>423.663879</ele><time>2021-09-01T12:13:04Z</time><extensions><speed>1.233715</speed><course>346.562134</course><hAcc>0.881529</hAcc><vAcc>0.692695</vAcc></extensions></trkpt>
      <trkpt lon="-3.159205" lat="52.994170"><ele>423.511108</ele><time>2021-09-01T12:13:05Z</time><extensions><speed>1.224886</speed><course>340.164734</course><hAcc>0.881745</hAcc><vAcc>0.693390</vAcc></extensions></trkpt>
      <trkpt lon="-3.159197" lat="52.994160"><ele>423.369324</ele><time>2021-09-01T12:13:06Z</time><extensions><speed>1.218115</speed><course>340.903290</course><hAcc>0.882000</hAcc><vAcc>0.694234</vAcc></extensions></trkpt>
      <trkpt lon="-3.159190" lat="52.994150"><ele>423.240723</ele><time>2021-09-01T12:13:07Z</time><extensions><speed>1.214292</speed><course>337.951172</course><hAcc>0.882289</hAcc><vAcc>0.695214</vAcc></extensions></trkpt>
      <trkpt lon="-3.159183" lat="52.994140"><ele>423.127594</ele><time>2021-09-01T12:13:08Z</time><extensions><speed>1.213268</speed><course>343.976532</course><hAcc>0.882607</hAcc><vAcc>0.696303</vAcc></extensions></trkpt>
      <trkpt lon="-3.159177" lat="52.994130"><ele>423.031586</ele><time>2021-09-01T12:13:09Z</time><extensions><speed>1.214176</speed><course>344.587616</course><hAcc>0.882946</hAcc><vAcc>0.697470</vAcc></extensions></trkpt>
      <trkpt lon="-3.159170" lat="52.994120"><ele>422.953491</ele><time>2021-09-01T12:13:10Z</time><extensions><speed>1.215731</speed><course>341.405151</course><hAcc>0.883299</hAcc><vAcc>0.698675</vAcc></extensions></trkpt>
      <trkpt lon="-3.159164" lat="52.994109"><ele>422.893494</ele><time>2021-09-01T12:13:11Z</time><extensions><speed>1.216787</speed><course>339.649231</course><hAcc>0.883656</hAcc><vAcc>0.699876</vAcc></extensions></trkpt>
      <trkpt lon="-3.159158" lat="52.994099"><ele>422.851288</ele><time>2021-09-01T12:13:12Z</time><extensions><speed>1.217105</speed><course>334.810822</course><hAcc>0.884010</hAcc><vAcc>0.701041</vAcc></extensions></trkpt>
      <trkpt lon="-3.159153" lat="52.994089"><ele>422.826233</ele><time>2021-09-01T12:13:13Z</time><extensions><speed>1.216895</speed><course>330.628723</course><hAcc>0.884353</hAcc><vAcc>0.702145</vAcc></extensions></trkpt>
      <trkpt lon="-3.159147" lat="52.994078"><ele>422.817474</ele><time>2021-09-01T12:13:14Z</time><extensions><speed>1.216161</speed><course>326.820862</course><hAcc>0.884679</hAcc><vAcc>0.703178</vAcc></extensions></trkpt>
      <trkpt lon="-3.159141" lat="52.994068"><ele>422.824005</ele><time>2021-09-01T12:13:15Z</time><extensions><speed>1.214854</speed><course>329.993256</course><hAcc>0.884983</hAcc><vAcc>0.704136</vAcc></extensions></trkpt>
      <trkpt lon="-3.159135" lat="52.994058"><ele>422.844879</ele><time>2021-09-01T12:13:16Z</time><extensions><speed>1.212693</speed><course>333.108307</course><hAcc>0.885261</hAcc><vAcc>0.705018</vAcc></extensions></trkpt>
      <trkpt lon="-3.159130" lat="52.994047"><ele>422.879395</ele><time>2021-09-01T12:13:17Z</time><extensions><speed>1.209537</speed><course>328.264221</course><hAcc>0.885509</hAcc><vAcc>0.705820</vAcc></extensions></trkpt>
      <trkpt lon="-3.159123" lat="52.994037"><ele>422.926636</ele><time>2021-09-01T12:13:18Z</time><extensions><speed>1.205890</speed><course>336.747131</course><hAcc>0.885722</hAcc><vAcc>0.706529</vAcc></extensions></trkpt>
      <trkpt lon="-3.159117" lat="52.994027"><ele>422.985413</ele><time>2021-09-01T12:13:19Z</time><extensions><speed>1.202155</speed><course>330.065033</course><hAcc>0.885899</hAcc><vAcc>0.707132</vAcc></extensions></trkpt>
      <trkpt lon="-3.159111" lat="52.994017"><ele>423.054291</ele><time>2021-09-01T12:13:20Z</time><extensions><speed>1.198328</speed><course>317.215851</course><hAcc>0.886035</hAcc><vAcc>0.707617</vAcc></extensions></trkpt>
      <trkpt lon="-3.159104" lat="52.994007"><ele>423.131531</ele><time>2021-09-01T12:13:21Z</time><extensions><speed>1.194402</speed><course>321.035828</course><hAcc>0.886130</hAcc><vAcc>0.707974</vAcc></extensions></trkpt>
      <trkpt lon="-3.159098" lat="52.993997"><ele>423.215424</ele><time>2021-09-01T12:13:22Z</time><extensions><speed>1.190267</speed><course>319.935577</course><hAcc>0.886181</hAcc><vAcc>0.708192</vAcc></extensions></trkpt>
      <trkpt lon="-3.159091" lat="52.993987"><ele>423.304504</ele><time>2021-09-01T12:13:23Z</time><extensions><speed>1.185429</speed><course>325.102844</course><hAcc>0.886191</hAcc><vAcc>0.708259</vAcc></extensions></trkpt>
      <trkpt lon="-3.159085" lat="52.993977"><ele>423.397491</ele><time>2021-09-01T12:13:24Z</time><extensions><speed>1.179321</speed><course>327.812073</course><hAcc>0.886162</hAcc><vAcc>0.708169</vAcc></extensions></trkpt>
      <trkpt lon="-3.159079" lat="52.993967"><ele>423.493011</ele><time>2021-09-01T12:13:25Z</time><extensions><speed>1.171766</speed><course>320.427582</course><hAcc>0.886102</hAcc><vAcc>0.707922</vAcc></extensions></trkpt>
      <trkpt lon="-3.159073" lat="52.993957"><ele>423.589569</ele><time>2021-09-01T12:13:26Z</time><extensions><speed>1.163016</speed><course>321.194977</course><hAcc>0.886018</hAcc><vAcc>0.707538</vAcc></extensions></trkpt>
      <trkpt lon="-3.159068" lat="52.993947"><ele>423.685486</ele><time>2021-09-01T12:13:27Z</time><extensions><speed>1.153481</speed><course>318.963165</course><hAcc>0.885921</hAcc><vAcc>0.707058</vAcc></extensions></trkpt>
      <trkpt lon="-3.159064" lat="52.993937"><ele>423.779541</ele><time>2021-09-01T12:13:28Z</time><extensions><speed>1.143209</speed><course>318.221771</course><hAcc>0.885822</hAcc><vAcc>0.706549</vAcc></extensions></trkpt>
      <trkpt lon="-3.159060" lat="52.993927"><ele>423.871155</ele><time>2021-09-01T12:13:29Z</time><extensions><speed>1.131918</speed><course>325.110291</course><hAcc>0.885733</hAcc><vAcc>0.706087</vAcc></extensions></trkpt>
      <trkpt lon="-3.159057" lat="52.993917"><ele>423.960419</ele><time>2021-09-01T12:13:30Z</time><extensions><speed>1.119898</speed><course>325.968475</course><hAcc>0.885665</hAcc><vAcc>0.705734</vAcc></extensions></trkpt>
      <trkpt lon="-3.159055" lat="52.993907"><ele>424.047607</ele><time>2021-09-01T12:13:31Z</time><extensions><speed>1.107915</speed><course>319.629425</course><hAcc>0.885626</hAcc><vAcc>0.705529</vAcc></extensions></trkpt>
      <trkpt lon="-3.159054" lat="52.993898"><ele>424.132935</ele><time>2021-09-01T12:13:32Z</time><extensions><speed>1.096735</speed><course>319.103638</course><hAcc>0.885621</hAcc><vAcc>0.705494</vAcc></extensions></trkpt>
      <trkpt lon="-3.159053" lat="52.993888"><ele>424.217041</ele><time>2021-09-01T12:13:33Z</time><extensions><speed>1.087167</speed><course>314.591980</course><hAcc>0.885654</hAcc><vAcc>0.705635</vAcc></extensions></trkpt>
      <trkpt lon="-3.159054" lat="52.993878"><ele>424.300934</ele><time>2021-09-01T12:13:34Z</time><extensions><speed>1.079443</speed><course>315.007294</course><hAcc>0.885723</hAcc><vAcc>0.705938</vAcc></extensions></trkpt>
      <trkpt lon="-3.159055" lat="52.993868"><ele>424.385986</ele><time>2021-09-01T12:13:35Z</time><extensions><speed>1.072812</speed><course>322.287598</course><hAcc>0.885826</hAcc><vAcc>0.706372</vAcc></extensions></trkpt>
      <trkpt lon="-3.159057" lat="52.993859"><ele>424.473419</ele><time>2021-09-01T12:13:36Z</time><extensions><speed>1.065939</speed><course>320.536743</course><hAcc>0.885957</hAcc><vAcc>0.706894</vAcc></extensions></trkpt>
      <trkpt lon="-3.159059" lat="52.993849"><ele>424.564301</ele><time>2021-09-01T12:13:37Z</time><extensions><speed>1.057504</speed><course>317.691437</course><hAcc>0.886110</hAcc><vAcc>0.707466</vAcc></extensions></trkpt>
      <trkpt lon="-3.159061" lat="52.993840"><ele>424.659668</ele><time>2021-09-01T12:13:38Z</time><extensions><speed>1.046599</speed><course>319.879181</course><hAcc>0.886277</hAcc><vAcc>0.708059</vAcc></extensions></trkpt>
      <trkpt lon="-3.159064" lat="52.993831"><ele>424.760773</ele><time>2021-09-01T12:13:39Z</time><extensions><speed>1.033189</speed><course>320.065887</course><hAcc>0.886452</hAcc><vAcc>0.708651</vAcc></extensions></trkpt>
      <trkpt lon="-3.159066" lat="52.993822"><ele>424.868622</ele><time>2021-09-01T12:13:40Z</time><extensions><speed>1.017810</speed><course>321.533569</course><hAcc>0.886629</hAcc><vAcc>0.709228</vAcc></extensions></trkpt>
      <trkpt lon="-3.159069" lat="52.993813"><ele>424.983490</ele><time>2021-09-01T12:13:41Z</time><extensions><speed>1.001028</speed><course>324.813110</course><hAcc>0.886804</hAcc><vAcc>0.709782</vAcc></extensions></trkpt>
      <trkpt lon="-3.159071" lat="52.993804"><ele>425.105011</ele><time>2021-09-01T12:13:42Z</time><extensions><speed>0.983612</speed><course>329.013580</course><hAcc>0.886974</hAcc><vAcc>0.710309</vAcc></extensions></trkpt>
      <trkpt lon="-3.159073" lat="52.993795"><ele>425.232391</ele><time>2021-09-01T12:13:43Z</time><extensions><speed>0.965933</speed><course>324.901581</course><hAcc>0.887136</hAcc><vAcc>0.710808</vAcc></extensions></trkpt>
      <trkpt lon="-3.159075" lat="52.993787"><ele>425.364868</ele><time>2021-09-01T12:13:44Z</time><extensions><speed>0.948253</speed><course>318.603180</course><hAcc>0.887290</hAcc><vAcc>0.711279</vAcc></extensions></trkpt>
      <trkpt lon="-3.159077" lat="52.993779"><ele>425.501678</ele><time>2021-09-01T12:13:45Z</time><extensions><speed>0.931423</speed><course>314.278656</course><hAcc>0.887434</hAcc><vAcc>0.711723</vAcc></extensions></trkpt>
      <trkpt lon="-3.159080" lat="52.993770"><ele>425.641998</ele><time>2021-09-01T12:13:46Z</time><extensions><speed>0.916181</speed><course>319.463074</course><hAcc>0.887568</hAcc><vAcc>0.712142</vAcc></extensions></trkpt>
      <trkpt lon="-3.159082" lat="52.993762"><ele>425.784210</ele><time>2021-09-01T12:13:47Z</time><extensions><speed>0.903220</speed><course>323.368469</course><hAcc>0.887691</hAcc><vAcc>0.712540</vAcc></extensions></trkpt>
      <trkpt lon="-3.159084" lat="52.993754"><ele>425.925873</ele><time>2021-09-01T12:13:48Z</time><extensions><speed>0.893486</speed><course>324.877350</course><hAcc>0.887803</hAcc><vAcc>0.712915</vAcc></extensions></trkpt>
      <trkpt lon="-3.159087" lat="52.993746"><ele>426.064209</ele><time>2021-09-01T12:13:49Z</time><extensions><speed>0.887890</speed><course>328.239716</course><hAcc>0.887903</hAcc><vAcc>0.713263</vAcc></extensions></trkpt>
      <trkpt lon="-3.159090" lat="52.993739"><ele>426.196045</ele><time>2021-09-01T12:13:50Z</time><extensions><speed>0.887224</speed><course>325.680328</course><hAcc>0.887990</hAcc><vAcc>0.713576</vAcc></extensions></trkpt>
      <trkpt lon="-3.159093" lat="52.993731"><ele>426.318146</ele><time>2021-09-01T12:13:51Z</time><extensions><speed>0.891799</speed><course>329.865967</course><hAcc>0.888064</hAcc><vAcc>0.713843</vAcc></extensions></trkpt>
      <trkpt lon="-3.159097" lat="52.993723"><ele>426.428070</ele><time>2021-09-01T12:13:52Z</time><extensions><speed>0.901547</speed><course>328.590454</course><hAcc>0.888126</hAcc><vAcc>0.714052</vAcc></extensions></trkpt>
      <trkpt lon="-3.159101" lat="52.993715"><ele>426.524872</ele><time>2021-09-01T12:13:53Z</time><extensions><speed>0.916470</speed><course>328.102966</course><hAcc>0.888176</hAcc><vAcc>0.714198</vAcc></extensions></trkpt>
      <trkpt lon="-3.159106" lat="52.993708"><ele>426.608429</ele><time>2021-09-01T12:13:54Z</time><extensions><speed>0.936375</speed><course>314.592194</course><hAcc>0.888215</hAcc><vAcc>0.714286</vAcc></extensions></trkpt>
      <trkpt lon="-3.159111" lat="52.993700"><ele>426.679199</ele><time>2021-09-01T12:13:55Z</time><extensions><speed>0.960683</speed><course>318.557648</course><hAcc>0.888243</hAcc><vAcc>0.714330</vAcc></extensions></trkpt>
      <trkpt lon="-3.159116" lat="52.993691"><ele>426.738037</ele><time>2021-09-01T12:13:56Z</time><extensions><speed>0.988267</speed><course>323.922150</course><hAcc>0.888261</hAcc><vAcc>0.714344</vAcc></extensions></trkpt>
      <trkpt lon="-3.159122" lat="52.993683"><ele>426.786163</ele><time>2021-09-01T12:13:57Z</time><extensions><speed>1.017877</speed><course>321.145691</course><hAcc>0.888271</hAcc><vAcc>0.714344</vAcc></extensions></trkpt>
      <trkpt lon="-3.159128" lat="52.993675"><ele>426.825378</ele><time>2021-09-01T12:13:58Z</time><extensions><speed>1.048857</speed><course>322.786774</course><hAcc>0.888274</hAcc><vAcc>0.714337</vAcc></extensions></trkpt>
      <trkpt lon="-3.159135" lat="52.993666"><ele>426.857513</ele><time>2021-09-01T12:13:59Z</time><extensions><speed>1.080652</speed><course>326.716736</course><hAcc>0.888273</hAcc><vAcc>0.714327</vAcc></extensions></trkpt>
      <trkpt lon="-3.159142" lat="52.993657"><ele>426.884277</ele><time>2021-09-01T12:14:00Z</time><extensions><speed>1.112453</speed><course>329.036499</course><hAcc>0.888269</hAcc><vAcc>0.714316</vAcc></extensions></trkpt>
      <trkpt lon="-3.159149" lat="52.993648"><ele>426.906952</ele><time>2021-09-01T12:14:01Z</time><extensions><speed>1.143385</speed><course>334.350830</course><hAcc>0.888264</hAcc><vAcc>0.714302</vAcc></extensions></trkpt>
      <trkpt lon="-3.159157" lat="52.993639"><ele>426.926605</ele><time>2021-09-01T12:14:02Z</time><extensions><speed>1.172389</speed><course>328.154053</course><hAcc>0.888260</hAcc><vAcc>0.714286</vAcc></extensions></trkpt>
      <trkpt lon="-3.159164" lat="52.993629"><ele>426.943939</ele><time>2021-09-01T12:14:03Z</time><extensions><speed>1.198372</speed><course>334.753510</course><hAcc>0.888257</hAcc><vAcc>0.714269</vAcc></extensions></trkpt>
      <trkpt lon="-3.159172" lat="52.993619"><ele>426.959198</ele><time>2021-09-01T12:14:04Z</time><extensions><speed>1.220821</speed><course>331.588837</course><hAcc>0.888256</hAcc><vAcc>0.714256</vAcc></extensions></trkpt>
      <trkpt lon="-3.159180" lat="52.993609"><ele>426.971985</ele><time>2021-09-01T12:14:05Z</time><extensions><speed>1.239917</speed><course>334.240753</course><hAcc>0.888261</hAcc><vAcc>0.714253</vAcc></extensions></trkpt>
      <trkpt lon="-3.159188" lat="52.993599"><ele>426.982025</ele><time>2021-09-01T12:14:06Z</time><extensions><speed>1.255996</speed><course>338.277435</course><hAcc>0.888270</hAcc><vAcc>0.714266</vAcc></extensions></trkpt>
      <trkpt lon="-3.159195" lat="52.993589"><ele>426.989563</ele><time>2021-09-01T12:14:07Z</time><extensions><speed>1.269528</speed><course>328.841278</course><hAcc>0.888286</hAcc><vAcc>0.714299</vAcc></extensions></trkpt>
      <trkpt lon="-3.159202" lat="52.993578"><ele>426.995331</ele><time>2021-09-01T12:14:08Z</time><extensions><speed>1.280691</speed><course>323.726990</course><hAcc>0.888311</hAcc><vAcc>0.714356</vAcc></extensions></trkpt>
      <trkpt lon="-3.159209" lat="52.993567"><ele>427.000061</ele><time>2021-09-01T12:14:09Z</time><extensions><speed>1.288937</speed><course>317.846680</course><hAcc>0.888344</hAcc><vAcc>0.714443</vAcc></extensions></trkpt>
      <trkpt lon="-3.159216" lat="52.993556"><ele>427.004150</ele><time>2021-09-01T12:14:10Z</time><extensions><speed>1.293809</speed><course>319.877411</course><hAcc>0.888386</hAcc><vAcc>0.714562</vAcc></extensions></trkpt>
      <trkpt lon="-3.159222" lat="52.993545"><ele>427.007751</ele><time>2021-09-01T12:14:11Z</time><extensions><speed>1.295131</speed><course>318.901947</course><hAcc>0.888437</hAcc><vAcc>0.714718</vAcc></extensions></trkpt>
      <trkpt lon="-3.159228" lat="52.993534"><ele>427.011169</ele><time>2021-09-01T12:14:12Z</time><extensions><speed>1.292725</speed><course>320.825470</course><hAcc>0.888497</hAcc><vAcc>0.714912</vAcc></extensions></trkpt>
      <trkpt lon="-3.159234" lat="52.993523"><ele>427.015076</ele><time>2021-09-01T12:14:13Z</time><extensions><speed>1.286510</speed><course>331.940704</course><hAcc>0.888563</hAcc><vAcc>0.715140</vAcc></extensions></trkpt>
      <trkpt lon="-3.159238" lat="52.993512"><ele>427.020416</ele><time>2021-09-01T12:14:14Z</time><extensions><speed>1.276389</speed><course>329.732300</course><hAcc>0.888633</hAcc><vAcc>0.715397</vAcc></extensions></trkpt>
      <trkpt lon="-3.159243" lat="52.993501"><ele>427.028229</ele><time>2021-09-01T12:14:15Z</time><extensions><speed>1.262030</speed><course>330.480469</course><hAcc>0.888703</hAcc><vAcc>0.715671</vAcc></extensions></trkpt>
      <trkpt lon="-3.159247" lat="52.993490"><ele>427.038910</ele><time>2021-09-01T12:14:16Z</time><extensions><speed>1.243324</speed><course>327.453430</course><hAcc>0.888769</hAcc><vAcc>0.715949</vAcc></extensions></trkpt>
      <trkpt lon="-3.159250" lat="52.993479"><ele>427.052277</ele><time>2021-09-01T12:14:17Z</time><extensions><speed>1.220426</speed><course>332.608093</course><hAcc>0.888827</hAcc><vAcc>0.716212</vAcc></extensions></trkpt>
      <trkpt lon="-3.159253" lat="52.993468"><ele>427.067810</ele><time>2021-09-01T12:14:18Z</time><extensions><speed>1.193719</speed><course>330.647522</course><hAcc>0.888873</hAcc><vAcc>0.716438</vAcc></extensions></trkpt>
      <trkpt lon="-3.159256" lat="52.993458"><ele>427.085144</ele><time>2021-09-01T12:14:19Z</time><extensions><speed>1.163764</speed><course>325.179230</course><hAcc>0.888903</hAcc><vAcc>0.716608</vAcc></extensions></trkpt>
      <trkpt lon="-3.159258" lat="52.993448"><ele>427.104065</ele><time>2021-09-01T12:14:20Z</time><extensions><speed>1.131184</speed><course>323.492767</course><hAcc>0.888915</hAcc><vAcc>0.716702</vAcc></extensions></trkpt>
      <trkpt lon="-3.159260" lat="52.993438"><ele>427.124542</ele><time>2021-09-01T12:14:21Z</time><extensions><speed>1.097287</speed><course>319.068512</course><hAcc>0.888908</hAcc><vAcc>0.716705</vAcc></extensions></trkpt>
      <trkpt lon="-3.159262" lat="52.993428"><ele>427.146637</ele><time>2021-09-01T12:14:22Z</time><extensions><speed>1.063717</speed><course>318.607483</course><hAcc>0.888882</hAcc><vAcc>0.716612</vAcc></extensions></trkpt>
      <trkpt lon="-3.159263" lat="52.993419"><ele>427.170227</ele><time>2021-09-01T12:14:23Z</time><extensions><speed>1.032588</speed><course>331.980591</course><hAcc>0.888841</hAcc><vAcc>0.716428</vAcc></extensions></trkpt>
      <trkpt lon="-3.159264" lat="52.993410"><ele>427.195007</ele><time>2021-09-01T12:14:24Z</time><extensions><speed>1.006913</speed><course>339.684753</course><hAcc>0.888788</hAcc><vAcc>0.716166</vAcc></extensions></trkpt>
      <trkpt lon="-3.159265" lat="52.993401"><ele>427.221069</ele><time>2021-09-01T12:14:25Z</time><extensions><speed>0.989524</speed><course>332.990814</course><hAcc>0.888729</hAcc><vAcc>0.715853</vAcc></extensions></trkpt>
      <trkpt lon="-3.159266" lat="52.993392"><ele>427.248840</ele><time>2021-09-01T12:14:26Z</time><extensions><speed>0.982094</speed><course>322.191711</course><hAcc>0.888670</hAcc><vAcc>0.715525</vAcc></extensions></trkpt>
      <trkpt lon="-3.159266" lat="52.993383"><ele>427.278961</ele><time>2021-09-01T12:14:27Z</time><extensions><speed>0.984898</speed><course>322.481537</course><hAcc>0.888617</hAcc><vAcc>0.715225</vAcc></extensions></trkpt>
      <trkpt lon="-3.159267" lat="52.993374"><ele>427.311707</ele><time>2021-09-01T12:14:28Z</time><extensions><speed>0.996844</speed><course>324.494202</course><hAcc>0.888574</hAcc><vAcc>0.714997</vAcc></extensions></trkpt>
      <trkpt lon="-3.159267" lat="52.993365"><ele>427.347015</ele><time>2021-09-01T12:14:29Z</time><extensions><speed>1.015493</speed><course>326.900543</course><hAcc>0.888548</hAcc><vAcc>0.714872</vAcc></extensions></trkpt>
      <trkpt lon="-3.159268" lat="52.993356"><ele>427.384430</ele><time>2021-09-01T12:14:30Z</time><extensions><speed>1.037867</speed><course>327.108612</course><hAcc>0.888540</hAcc><vAcc>0.714860</vAcc></extensions></trkpt>
      <trkpt lon="-3.159269" lat="52.993346"><ele>427.423340</ele><time>2021-09-01T12:14:31Z</time><extensions><speed>1.061467</speed><course>326.961395</course><hAcc>0.888552</hAcc><vAcc>0.714952</vAcc></extensions></trkpt>
      <trkpt lon="-3.159269" lat="52.993337"><ele>427.462738</ele><time>2021-09-01T12:14:32Z</time><extensions><speed>1.084352</speed><course>328.725586</course><hAcc>0.888585</hAcc><vAcc>0.715127</vAcc></extensions></trkpt>
      <trkpt lon="-3.159270" lat="52.993327"><ele>427.501801</ele><time>2021-09-01T12:14:33Z</time><extensions><speed>1.105376</speed><course>324.538879</course><hAcc>0.888636</hAcc><vAcc>0.715364</vAcc></extensions></trkpt>
      <trkpt lon="-3.159271" lat="52.993317"><ele>427.540222</ele><time>2021-09-01T12:14:34Z</time><extensions><speed>1.124081</speed><course>322.792755</course><hAcc>0.888703</hAcc><vAcc>0.715641</vAcc></extensions></trkpt>
      <trkpt lon="-3.159273" lat="52.993307"><ele>427.577911</ele><time>2021-09-01T12:14:35Z</time><extensions><speed>1.140180</speed><course>321.878906</course><hAcc>0.888781</hAcc><vAcc>0.715939</vAcc></extensions></trkpt>
      <trkpt lon="-3.159274" lat="52.993297"><ele>427.615112</ele><time>2021-09-01T12:14:36Z</time><extensions><speed>1.153912</speed><course>332.119232</course><hAcc>0.888867</hAcc><vAcc>0.716247</vAcc></extensions></trkpt>
      <trkpt lon="-3.159275" lat="52.993286"><ele>427.652252</ele><time>2021-09-01T12:14:37Z</time><extensions><speed>1.166061</speed><course>333.921204</course><hAcc>0.888956</hAcc><vAcc>0.716552</vAcc></extensions></trkpt>
      <trkpt lon="-3.159276" lat="52.993276"><ele>427.690094</ele><time>2021-09-01T12:14:38Z</time><extensions><speed>1.177585</speed><course>333.199188</course><hAcc>0.889044</hAcc><vAcc>0.716848</vAcc></extensions></trkpt>
      <trkpt lon="-3.159276" lat="52.993265"><ele>427.729370</ele><time>2021-09-01T12:14:39Z</time><extensions><speed>1.189319</speed><course>332.370575</course><hAcc>0.889130</hAcc><vAcc>0.717130</vAcc></extensions></trkpt>
      <trkpt lon="-3.159277" lat="52.993254"><ele>427.770630</ele><time>2021-09-01T12:14:40Z</time><extensions><speed>1.202078</speed><course>324.975555</course><hAcc>0.889209</hAcc><vAcc>0.717391</vAcc></extensions></trkpt>
      <trkpt lon="-3.159277" lat="52.993243"><ele>427.814575</ele><time>2021-09-01T12:14:41Z</time><extensions><speed>1.216202</speed><course>335.518433</course><hAcc>0.889280</hAcc><vAcc>0.717626</vAcc></extensions></trkpt>
      <trkpt lon="-3.159278" lat="52.993232"><ele>427.862030</ele><time>2021-09-01T12:14:42Z</time><extensions><speed>1.231178</speed><course>325.564209</course><hAcc>0.889342</hAcc><vAcc>0.717831</vAcc></extensions></trkpt>
      <trkpt lon="-3.159277" lat="52.993221"><ele>427.913544</ele><time>2021-09-01T12:14:43Z</time><extensions><speed>1.246331</speed><course>328.563263</course><hAcc>0.889394</hAcc><vAcc>0.718003</vAcc></extensions></trkpt>
      <trkpt lon="-3.159277" lat="52.993210"><ele>427.968933</ele><time>2021-09-01T12:14:44Z</time><extensions><speed>1.261232</speed><course>326.994080</course><hAcc>0.889435</hAcc><vAcc>0.718137</vAcc></extensions></trkpt>
      <trkpt lon="-3.159276" lat="52.993199"><ele>428.027405</ele><time>2021-09-01T12:14:45Z</time><extensions><speed>1.276044</speed><course>318.473267</course><hAcc>0.889466</hAcc><vAcc>0.718233</vAcc></extensions></trkpt>
      <trkpt lon="-3.159275" lat="52.993187"><ele>428.088196</ele><time>2021-09-01T12:14:46Z</time><extensions><speed>1.290918</speed><course>311.042542</course><hAcc>0.889487</hAcc><vAcc>0.718292</vAcc></extensions></trkpt>
      <trkpt lon="-3.159274" lat="52.993175"><ele>428.150543</ele><time>2021-09-01T12:14:47Z</time><extensions><speed>1.305337</speed><course>305.538330</course><hAcc>0.889497</hAcc><vAcc>0.718316</vAcc></extensions></trkpt>
      <trkpt lon="-3.159272" lat="52.993164"><ele>428.213959</ele><time>2021-09-01T12:14:48Z</time><extensions><speed>1.318503</speed><course>315.153778</course><hAcc>0.889498</hAcc><vAcc>0.718309</vAcc></extensions></trkpt>
      <trkpt lon="-3.159271" lat="52.993152"><ele>428.278076</ele><time>2021-09-01T12:14:49Z</time><extensions><speed>1.329644</speed><course>316.503418</course><hAcc>0.889490</hAcc><vAcc>0.718275</vAcc></extensions></trkpt>
      <trkpt lon="-3.159268" lat="52.993140"><ele>428.342072</ele><time>2021-09-01T12:14:50Z</time><extensions><speed>1.338251</speed><course>335.833191</course><hAcc>0.889477</hAcc><vAcc>0.718216</vAcc></extensions></trkpt>
      <trkpt lon="-3.159266" lat="52.993128"><ele>428.404755</ele><time>2021-09-01T12:14:51Z</time><extensions><speed>1.344321</speed><course>327.010254</course><hAcc>0.889458</hAcc><vAcc>0.718137</vAcc></extensions></trkpt>
      <trkpt lon="-3.159264" lat="52.993116"><ele>428.464966</ele><time>2021-09-01T12:14:52Z</time><extensions><speed>1.348242</speed><course>325.252136</course><hAcc>0.889437</hAcc><vAcc>0.718045</vAcc></extensions></trkpt>
      <trkpt lon="-3.159261" lat="52.993104"><ele>428.521942</ele><time>2021-09-01T12:14:53Z</time><extensions><speed>1.350325</speed><course>322.968475</course><hAcc>0.889414</hAcc><vAcc>0.717947</vAcc></extensions></trkpt>
      <trkpt lon="-3.159259" lat="52.993092"><ele>428.575165</ele><time>2021-09-01T12:14:54Z</time><extensions><speed>1.351078</speed><course>323.501465</course><hAcc>0.889392</hAcc><vAcc>0.717852</vAcc></extensions></trkpt>
      <trkpt lon="-3.159256" lat="52.993080"><ele>428.624573</ele><time>2021-09-01T12:14:55Z</time><extensions><speed>1.351068</speed><course>321.425781</course><hAcc>0.889373</hAcc><vAcc>0.717767</vAcc></extensions></trkpt>
      <trkpt lon="-3.159254" lat="52.993068"><ele>428.670319</ele><time>2021-09-01T12:14:56Z</time><extensions><speed>1.350561</speed><course>320.251373</course><hAcc>0.889358</hAcc><vAcc>0.717699</vAcc></extensions></trkpt>
      <trkpt lon="-3.159251" lat="52.993056"><ele>428.712646</ele><time>2021-09-01T12:14:57Z</time><extensions><speed>1.349750</speed><course>324.252075</course><hAcc>0.889348</hAcc><vAcc>0.717654</vAcc></extensions></trkpt>
      <trkpt lon="-3.159249" lat="52.993044"><ele>428.752075</ele><time>2021-09-01T12:14:58Z</time><extensions><speed>1.348948</speed><course>324.152374</course><hAcc>0.889344</hAcc><vAcc>0.717638</vAcc></extensions></trkpt>
      <trkpt lon="-3.159246" lat="52.993032"><ele>428.789490</ele><time>2021-09-01T12:14:59Z</time><extensions><speed>1.348358</speed><course>325.481750</course><hAcc>0.889346</hAcc><vAcc>0.717652</vAcc></extensions></trkpt>
      <trkpt lon="-3.159244" lat="52.993020"><ele>428.825958</ele><time>2021-09-01T12:15:00Z</time><extensions><speed>1.347858</speed><course>319.205566</course><hAcc>0.889354</hAcc><vAcc>0.717694</vAcc></extensions></trkpt>
      <trkpt lon="-3.159242" lat="52.993008"><ele>428.862579</ele><time>2021-09-01T12:15:01Z</time><extensions><speed>1.347189</speed><course>318.376190</course><hAcc>0.889368</hAcc><vAcc>0.717762</vAcc></extensions></trkpt>
      <trkpt lon="-3.159239" lat="52.992996"><ele>428.899811</ele><time>2021-09-01T12:15:02Z</time><extensions><speed>1.346305</speed><course>314.977020</course><hAcc>0.889387</hAcc><vAcc>0.717847</vAcc></extensions></trkpt>
      <trkpt lon="-3.159237" lat="52.992984"><ele>428.937622</ele><time>2021-09-01T12:15:03Z</time><extensions><speed>1.345582</speed><course>311.302399</course><hAcc>0.889410</hAcc><vAcc>0.717942</vAcc></extensions></trkpt>
      <trkpt lon="-3.159235" lat="52.992972"><ele>428.976044</ele><time>2021-09-01T12:15:04Z</time><extensions><speed>1.344993</speed><course>310.834198</course><hAcc>0.889436</hAcc><vAcc>0.718040</vAcc></extensions></trkpt>
      <trkpt lon="-3.159232" lat="52.992960"><ele>429.014954</ele><time>2021-09-01T12:15:05Z</time><extensions><speed>1.344027</speed><course>309.925598</course><hAcc>0.889462</hAcc><vAcc>0.718135</vAcc></extensions></trkpt>
      <trkpt lon="-3.159230" lat="52.992948"><ele>429.054291</ele><time>2021-09-01T12:15:06Z</time><extensions><speed>1.342486</speed><course>306.104523</course><hAcc>0.889486</hAcc><vAcc>0.718224</vAcc></extensions></trkpt>
      <trkpt lon="-3.159228" lat="52.992936"><ele>429.094177</ele><time>2021-09-01T12:15:07Z</time><extensions><speed>1.340255</speed><course>306.130798</course><hAcc>0.889506</hAcc><vAcc>0.718301</vAcc></extensions></trkpt>
      <trkpt lon="-3.159225" lat="52.992924"><ele>429.134796</ele><time>2021-09-01T12:15:08Z</time><extensions><speed>1.337017</speed><course>309.163177</course><hAcc>0.889519</hAcc><vAcc>0.718360</vAcc></extensions></trkpt>
      <trkpt lon="-3.159223" lat="52.992912"><ele>429.176331</ele><time>2021-09-01T12:15:09Z</time><extensions><speed>1.332577</speed><course>311.638824</course><hAcc>0.889521</hAcc><vAcc>0.718390</vAcc></extensions></trkpt>
      <trkpt lon="-3.159221" lat="52.992900"><ele>429.218719</ele><time>2021-09-01T12:15:10Z</time><extensions><speed>1.327015</speed><course>306.319550</course><hAcc>0.889509</hAcc><vAcc>0.718378</vAcc></extensions></trkpt>
      <trkpt lon="-3.159219" lat="52.992888"><ele>429.262054</ele><time>2021-09-01T12:15:11Z</time><extensions><speed>1.320582</speed><course>309.448608</course><hAcc>0.889478</hAcc><vAcc>0.718313</vAcc></extensions></trkpt>
      <trkpt lon="-3.159217" lat="52.992876"><ele>429.306458</ele><time>2021-09-01T12:15:12Z</time><extensions><speed>1.313598</speed><course>307.055084</course><hAcc>0.889421</hAcc><vAcc>0.718181</vAcc></extensions></trkpt>
      <trkpt lon="-3.159215" lat="52.992865"><ele>429.352295</ele><time>2021-09-01T12:15:13Z</time><extensions><speed>1.306400</speed><course>309.609528</course><hAcc>0.889333</hAcc><vAcc>0.717966</vAcc></extensions></trkpt>
      <trkpt lon="-3.159213" lat="52.992853"><ele>429.400055</ele><time>2021-09-01T12:15:14Z</time><extensions><speed>1.298928</speed><course>304.747925</course><hAcc>0.889207</hAcc><vAcc>0.717651</vAcc></extensions></trkpt>
      <trkpt lon="-3.159211" lat="52.992841"><ele>429.450073</ele><time>2021-09-01T12:15:15Z</time><extensions><speed>1.290909</speed><course>298.413086</course><hAcc>0.889035</hAcc><vAcc>0.717212</vAcc></extensions></trkpt>
      <trkpt lon="-3.159209" lat="52.992830"><ele>429.502197</ele><time>2021-09-01T12:15:16Z</time><extensions><speed>1.282268</speed><course>304.495026</course><hAcc>0.888812</hAcc><vAcc>0.716626</vAcc></extensions></trkpt>
      <trkpt lon="-3.159208" lat="52.992818"><ele>429.556213</ele><time>2021-09-01T12:15:17Z</time><extensions><speed>1.272949</speed><course>308.805939</course><hAcc>0.888533</hAcc><vAcc>0.715870</vAcc></extensions></trkpt>
      <trkpt lon="-3.159206" lat="52.992807"><ele>429.611633</ele><time>2021-09-01T12:15:18Z</time><extensions><speed>1.263133</speed><course>311.789917</course><hAcc>0.888197</hAcc><vAcc>0.714922</vAcc></extensions></trkpt>
      <trkpt lon="-3.159204" lat="52.992796"><ele>429.667755</ele><time>2021-09-01T12:15:19Z</time><extensions><speed>1.252910</speed><course>310.886353</course><hAcc>0.887807</hAcc><vAcc>0.713765</vAcc></extensions></trkpt>
      <trkpt lon="-3.159203" lat="52.992785"><ele>429.723297</ele><time>2021-09-01T12:15:20Z</time><extensions><speed>1.242024</speed><course>314.533539</course><hAcc>0.887369</hAcc><vAcc>0.712393</vAcc></extensions></trkpt>
      <trkpt lon="-3.159201" lat="52.992774"><ele>429.776489</ele><time>2021-09-01T12:15:21Z</time><extensions><speed>1.230545</speed><course>315.680542</course><hAcc>0.886896</hAcc><vAcc>0.710818</vAcc></extensions></trkpt>
      <trkpt lon="-3.159199" lat="52.992763"><ele>429.826080</ele><time>2021-09-01T12:15:22Z</time><extensions><speed>1.219227</speed><course>318.090881</course><hAcc>0.886406</hAcc><vAcc>0.709081</vAcc></extensions></trkpt>
      <trkpt lon="-3.159197" lat="52.992752"><ele>429.871582</ele><time>2021-09-01T12:15:23Z</time><extensions><speed>1.208975</speed><course>322.434174</course><hAcc>0.885919</hAcc><vAcc>0.707254</vAcc></extensions></trkpt>
      <trkpt lon="-3.159195" lat="52.992741"><ele>429.912872</ele><time>2021-09-01T12:15:24Z</time><extensions><speed>1.200501</speed><course>326.481506</course><hAcc>0.885461</hAcc><vAcc>0.705450</vAcc></extensions></trkpt>
      <trkpt lon="-3.159193" lat="52.992730"><ele>429.950012</ele><time>2021-09-01T12:15:25Z</time><extensions><speed>1.194587</speed><course>309.522247</course><hAcc>0.885057</hAcc><vAcc>0.703807</vAcc></extensions></trkpt>
      <trkpt lon="-3.159191" lat="52.992720"><ele>429.983185</ele><time>2021-09-01T12:15:26Z</time><extensions><speed>1.191847</speed><course>317.105560</course><hAcc>0.884729</hAcc><vAcc>0.702464</vAcc></extensions></trkpt>
      <trkpt lon="-3.159189" lat="52.992709"><ele>430.012665</ele><time>2021-09-01T12:15:27Z</time><extensions><speed>1.192549</speed><course>325.631348</course><hAcc>0.884498</hAcc><vAcc>0.701531</vAcc></extensions></trkpt>
      <trkpt lon="-3.159187" lat="52.992698"><ele>430.038971</ele><time>2021-09-01T12:15:28Z</time><extensions><speed>1.196629</speed><course>323.961853</course><hAcc>0.884377</hAcc><vAcc>0.701073</vAcc></extensions></trkpt>
      <trkpt lon="-3.159185" lat="52.992688"><ele>430.062622</ele><time>2021-09-01T12:15:29Z</time><extensions><speed>1.204031</speed><course>321.394775</course><hAcc>0.884369</hAcc><vAcc>0.701101</vAcc></extensions></trkpt>
      <trkpt lon="-3.159183" lat="52.992677"><ele>430.084198</ele><time>2021-09-01T12:15:30Z</time><extensions><speed>1.214488</speed><course>321.108948</course><hAcc>0.884469</hAcc><vAcc>0.701572</vAcc></extensions></trkpt>
      <trkpt lon="-3.159181" lat="52.992666"><ele>430.103973</ele><time>2021-09-01T12:15:31Z</time><extensions><speed>1.227274</speed><course>321.170013</course><hAcc>0.884665</hAcc><vAcc>0.702407</vAcc></extensions></trkpt>
      <trkpt lon="-3.159179" lat="52.992655"><ele>430.122131</ele><time>2021-09-01T12:15:32Z</time><extensions><speed>1.241571</speed><course>306.176178</course><hAcc>0.884939</hAcc><vAcc>0.703521</vAcc></extensions></trkpt>
      <trkpt lon="-3.159176" lat="52.992644"><ele>430.138702</ele><time>2021-09-01T12:15:33Z</time><extensions><speed>1.256755</speed><course>315.376495</course><hAcc>0.885272</hAcc><vAcc>0.704818</vAcc></extensions></trkpt>
      <trkpt lon="-3.159174" lat="52.992633"><ele>430.153717</ele><time>2021-09-01T12:15:34Z</time><extensions><speed>1.272325</speed><course>318.757812</course><hAcc>0.885641</hAcc><vAcc>0.706205</vAcc></extensions></trkpt>
      <trkpt lon="-3.159172" lat="52.992621"><ele>430.167328</ele><time>2021-09-01T12:15:35Z</time><extensions><speed>1.288029</speed><course>302.990356</course><hAcc>0.886027</hAcc><vAcc>0.707595</vAcc></extensions></trkpt>
      <trkpt lon="-3.159170" lat="52.992610"><ele>430.179810</ele><time>2021-09-01T12:15:36Z</time><extensions><speed>1.303706</speed><course>313.317535</course><hAcc>0.886410</hAcc><vAcc>0.708920</vAcc></extensions></trkpt>
      <trkpt lon="-3.159168" lat="52.992598"><ele>430.191559</ele><time>2021-09-01T12:15:37Z</time><extensions><speed>1.318901</speed><course>312.441528</course><hAcc>0.886774</hAcc><vAcc>0.710133</vAcc></extensions></trkpt>
      <trkpt lon="-3.159166" lat="52.992586"><ele>430.203094</ele><time>2021-09-01T12:15:38Z</time><extensions><speed>1.333439</speed><course>316.780334</course><hAcc>0.887107</hAcc><vAcc>0.711204</vAcc></extensions></trkpt>
      <trkpt lon="-3.159164" lat="52.992574"><ele>430.214905</ele><time>2021-09-01T12:15:39Z</time><extensions><speed>1.347227</speed><course>316.095612</course><hAcc>0.887400</hAcc><vAcc>0.712117</vAcc></extensions></trkpt>
      <trkpt lon="-3.159161" lat="52.992562"><ele>430.226868</ele><time>2021-09-01T12:15:40Z</time><extensions><speed>1.360048</speed><course>314.234863</course><hAcc>0.887649</hAcc><vAcc>0.712869</vAcc></extensions></trkpt>
      <trkpt lon="-3.159158" lat="52.992550"><ele>430.238464</ele><time>2021-09-01T12:15:41Z</time><extensions><speed>1.371697</speed><course>308.545959</course><hAcc>0.887852</hAcc><vAcc>0.713459</vAcc></extensions></trkpt>
      <trkpt lon="-3.159154" lat="52.992538"><ele>430.249207</ele><time>2021-09-01T12:15:42Z</time><extensions><speed>1.382322</speed><course>317.115723</course><hAcc>0.888009</hAcc><vAcc>0.713895</vAcc></extensions></trkpt>
      <trkpt lon="-3.159150" lat="52.992525"><ele>430.258667</ele><time>2021-09-01T12:15:43Z</time><extensions><speed>1.392022</speed><course>324.999634</course><hAcc>0.888124</hAcc><vAcc>0.714192</vAcc></extensions></trkpt>
      <trkpt lon="-3.159146" lat="52.992513"><ele>430.266266</ele><time>2021-09-01T12:15:44Z</time><extensions><speed>1.400525</speed><course>317.924194</course><hAcc>0.888200</hAcc><vAcc>0.714368</vAcc></extensions></trkpt>
      <trkpt lon="-3.159142" lat="52.992501"><ele>430.271423</ele><time>2021-09-01T12:15:45Z</time><extensions><speed>1.407721</speed><course>315.987152</course><hAcc>0.888243</hAcc><vAcc>0.714445</vAcc></extensions></trkpt>
      <trkpt lon="-3.159137" lat="52.992489"><ele>430.274139</ele><time>2021-09-01T12:15:46Z</time><extensions><speed>1.413485</speed><course>314.734009</course><hAcc>0.888257</hAcc><vAcc>0.714442</vAcc></extensions></trkpt>
      <trkpt lon="-3.159132" lat="52.992476"><ele>430.275177</ele><time>2021-09-01T12:15:47Z</time><extensions><speed>1.417802</speed><course>317.632782</course><hAcc>0.888249</hAcc><vAcc>0.714374</vAcc></extensions></trkpt>
      <trkpt lon="-3.159126" lat="52.992464"><ele>430.274841</ele><time>2021-09-01T12:15:48Z</time><extensions><speed>1.420605</speed><course>301.352448</course><hAcc>0.888224</hAcc><vAcc>0.714254</vAcc></extensions></trkpt>
      <trkpt lon="-3.159121" lat="52.992451"><ele>430.272858</ele><time>2021-09-01T12:15:49Z</time><extensions><speed>1.421867</speed><course>311.835449</course><hAcc>0.888187</hAcc><vAcc>0.714099</vAcc></extensions></trkpt>
      <trkpt lon="-3.159115" lat="52.992439"><ele>430.268951</ele><time>2021-09-01T12:15:50Z</time><extensions><speed>1.422240</speed><course>314.400024</course><hAcc>0.888141</hAcc><vAcc>0.713922</vAcc></extensions></trkpt>
      <trkpt lon="-3.159110" lat="52.992427"><ele>430.263519</ele><time>2021-09-01T12:15:51Z</time><extensions><speed>1.422326</speed><course>314.080444</course><hAcc>0.888092</hAcc><vAcc>0.713734</vAcc></extensions></trkpt>
      <trkpt lon="-3.159104" lat="52.992415"><ele>430.257233</ele><time>2021-09-01T12:15:52Z</time><extensions><speed>1.422262</speed><course>307.602600</course><hAcc>0.888041</hAcc><vAcc>0.713545</vAcc></extensions></trkpt>
      <trkpt lon="-3.159098" lat="52.992402"><ele>430.250488</ele><time>2021-09-01T12:15:53Z</time><extensions><speed>1.421948</speed><course>311.268951</course><hAcc>0.887990</hAcc><vAcc>0.713365</vAcc></extensions></trkpt>
      <trkpt lon="-3.159092" lat="52.992390"><ele>430.243835</ele><time>2021-09-01T12:15:54Z</time><extensions><speed>1.421313</speed><course>316.568695</course><hAcc>0.887941</hAcc><vAcc>0.713201</vAcc></extensions></trkpt>
      <trkpt lon="-3.159086" lat="52.992378"><ele>430.238159</ele><time>2021-09-01T12:15:55Z</time><extensions><speed>1.420179</speed><course>324.849396</course><hAcc>0.887893</hAcc><vAcc>0.713056</vAcc></extensions></trkpt>
      <trkpt lon="-3.159081" lat="52.992365"><ele>430.233856</ele><time>2021-09-01T12:15:56Z</time><extensions><speed>1.418100</speed><course>318.929504</course><hAcc>0.887845</hAcc><vAcc>0.712927</vAcc></extensions></trkpt>
      <trkpt lon="-3.159075" lat="52.992353"><ele>430.230011</ele><time>2021-09-01T12:15:57Z</time><extensions><speed>1.414723</speed><course>315.514008</course><hAcc>0.887795</hAcc><vAcc>0.712806</vAcc></extensions></trkpt>
      <trkpt lon="-3.159069" lat="52.992341"><ele>430.225250</ele><time>2021-09-01T12:15:58Z</time><extensions><speed>1.410090</speed><course>309.432922</course><hAcc>0.887742</hAcc><vAcc>0.712682</vAcc></extensions></trkpt>
      <trkpt lon="-3.159063" lat="52.992329"><ele>430.218811</ele><time>2021-09-01T12:15:59Z</time><extensions><speed>1.404421</speed><course>306.068817</course><hAcc>0.887684</hAcc><vAcc>0.712539</vAcc></extensions></trkpt>
      <trkpt lon="-3.159058" lat="52.992317"><ele>430.210510</ele><time>2021-09-01T12:16:00Z</time><extensions><speed>1.397962</speed><course>319.983490</course><hAcc>0.887617</hAcc><vAcc>0.712364</vAcc></extensions></trkpt>
      <trkpt lon="-3.159052" lat="52.992305"><ele>430.200378</ele><time>2021-09-01T12:16:01Z</time><extensions><speed>1.391068</speed><course>315.606720</course><hAcc>0.887541</hAcc><vAcc>0.712147</vAcc></extensions></trkpt>
      <trkpt lon="-3.159046" lat="52.992293"><ele>430.188568</ele><time>2021-09-01T12:16:02Z</time><extensions><speed>1.383878</speed><course>317.784515</course><hAcc>0.887452</hAcc><vAcc>0.711881</vAcc></extensions></trkpt>
      <trkpt lon="-3.159040" lat="52.992281"><ele>430.175659</ele><time>2021-09-01T12:16:03Z</time><extensions><speed>1.376435</speed><course>313.524780</course><hAcc>0.887351</hAcc><vAcc>0.711564</vAcc></extensions></trkpt>
      <trkpt lon="-3.159034" lat="52.992269"><ele>430.162384</ele><time>2021-09-01T12:16:04Z</time><extensions><speed>1.368626</speed><course>310.903687</course><hAcc>0.887238</hAcc><vAcc>0.711195</vAcc></extensions></trkpt>
      <trkpt lon="-3.159028" lat="52.992257"><ele>430.148712</ele><time>2021-09-01T12:16:05Z</time><extensions><speed>1.360006</speed><course>315.823334</course><hAcc>0.887113</hAcc><vAcc>0.710777</vAcc></extensions></trkpt>
      <trkpt lon="-3.159022" lat="52.992246"><ele>430.134216</ele><time>2021-09-01T12:16:06Z</time><extensions><speed>1.350181</speed><course>318.320831</course><hAcc>0.886980</hAcc><vAcc>0.710318</vAcc></extensions></trkpt>
      <trkpt lon="-3.159016" lat="52.992234"><ele>430.118835</ele><time>2021-09-01T12:16:07Z</time><extensions><speed>1.339030</speed><course>306.579529</course><hAcc>0.886841</hAcc><vAcc>0.709829</vAcc></extensions></trkpt>
      <trkpt lon="-3.159010" lat="52.992223"><ele>430.102844</ele><time>2021-09-01T12:16:08Z</time><extensions><speed>1.326609</speed><course>308.750916</course><hAcc>0.886701</hAcc><vAcc>0.709327</vAcc></extensions></trkpt>
      <trkpt lon="-3.159004" lat="52.992212"><ele>430.086395</ele><time>2021-09-01T12:16:09Z</time><extensions><speed>1.313098</speed><course>310.705475</course><hAcc>0.886565</hAcc><vAcc>0.708831</vAcc></extensions></trkpt>
      <trkpt lon="-3.158998" lat="52.992200"><ele>430.069489</ele><time>2021-09-01T12:16:10Z</time><extensions><speed>1.298856</speed><course>309.681793</course><hAcc>0.886437</hAcc><vAcc>0.708363</vAcc></extensions></trkpt>
      <trkpt lon="-3.158992" lat="52.992189"><ele>430.052307</ele><time>2021-09-01T12:16:11Z</time><extensions><speed>1.284510</speed><course>322.348389</course><hAcc>0.886323</hAcc><vAcc>0.707942</vAcc></extensions></trkpt>
      <trkpt lon="-3.158986" lat="52.992178"><ele>430.035217</ele><time>2021-09-01T12:16:12Z</time><extensions><speed>1.270606</speed><course>326.702148</course><hAcc>0.886226</hAcc><vAcc>0.707588</vAcc></extensions></trkpt>
      <trkpt lon="-3.158980" lat="52.992168"><ele>430.017517</ele><time>2021-09-01T12:16:13Z</time><extensions><speed>1.257086</speed><course>331.813965</course><hAcc>0.886149</hAcc><vAcc>0.707318</vAcc></extensions></trkpt>
      <trkpt lon="-3.158974" lat="52.992157"><ele>429.997406</ele><time>2021-09-01T12:16:14Z</time><extensions><speed>1.243881</speed><course>329.095581</course><hAcc>0.886096</hAcc><vAcc>0.707145</vAcc></extensions></trkpt>
      <trkpt lon="-3.158968" lat="52.992146"><ele>429.973419</ele><time>2021-09-01T12:16:15Z</time><extensions><speed>1.231208</speed><course>317.013092</course><hAcc>0.886067</hAcc><vAcc>0.707074</vAcc></extensions></trkpt>
      <trkpt lon="-3.158963" lat="52.992136"><ele>429.944641</ele><time>2021-09-01T12:16:16Z</time><extensions><speed>1.218741</speed><course>304.237976</course><hAcc>0.886061</hAcc><vAcc>0.707099</vAcc></extensions></trkpt>
      <trkpt lon="-3.158957" lat="52.992126"><ele>429.910461</ele><time>2021-09-01T12:16:17Z</time><extensions><speed>1.205775</speed><course>306.732727</course><hAcc>0.886079</hAcc><vAcc>0.707202</vAcc></extensions></trkpt>
      <trkpt lon="-3.158951" lat="52.992116"><ele>429.870941</ele><time>2021-09-01T12:16:18Z</time><extensions><speed>1.191871</speed><course>314.620697</course><hAcc>0.886117</hAcc><vAcc>0.707363</vAcc></extensions></trkpt>
      <trkpt lon="-3.158945" lat="52.992106"><ele>429.826843</ele><time>2021-09-01T12:16:19Z</time><extensions><speed>1.176999</speed><course>308.721527</course><hAcc>0.886173</hAcc><vAcc>0.707564</vAcc></extensions></trkpt>
      <trkpt lon="-3.158939" lat="52.992096"><ele>429.778687</ele><time>2021-09-01T12:16:20Z</time><extensions><speed>1.161420</speed><course>324.142334</course><hAcc>0.886245</hAcc><vAcc>0.707798</vAcc></extensions></trkpt>
      <trkpt lon="-3.158933" lat="52.992086"><ele>429.726410</ele><time>2021-09-01T12:16:21Z</time><extensions><speed>1.145524</speed><course>320.497589</course><hAcc>0.886329</hAcc><vAcc>0.708066</vAcc></extensions></trkpt>
      <trkpt lon="-3.158927" lat="52.992076"><ele>429.669342</ele><time>2021-09-01T12:16:22Z</time><extensions><speed>1.129987</speed><course>317.760712</course><hAcc>0.886422</hAcc><vAcc>0.708371</vAcc></extensions></trkpt>
      <trkpt lon="-3.158921" lat="52.992067"><ele>429.607269</ele><time>2021-09-01T12:16:23Z</time><extensions><speed>1.115718</speed><course>320.404846</course><hAcc>0.886520</hAcc><vAcc>0.708712</vAcc></extensions></trkpt>
      <trkpt lon="-3.158915" lat="52.992058"><ele>429.541046</ele><time>2021-09-01T12:16:24Z</time><extensions><speed>1.103423</speed><course>325.015778</course><hAcc>0.886620</hAcc><vAcc>0.709076</vAcc></extensions></trkpt>
      <trkpt lon="-3.158909" lat="52.992048"><ele>429.472107</ele><time>2021-09-01T12:16:25Z</time><extensions><speed>1.093247</speed><course>317.077057</course><hAcc>0.886718</hAcc><vAcc>0.709444</vAcc></extensions></trkpt>
      <trkpt lon="-3.158903" lat="52.992039"><ele>429.401428</ele><time>2021-09-01T12:16:26Z</time><extensions><speed>1.084998</speed><course>311.682465</course><hAcc>0.886812</hAcc><vAcc>0.709794</vAcc></extensions></trkpt>
      <trkpt lon="-3.158897" lat="52.992030"><ele>429.329773</ele><time>2021-09-01T12:16:27Z</time><extensions><speed>1.078498</speed><course>306.448975</course><hAcc>0.886898</hAcc><vAcc>0.710106</vAcc></extensions></trkpt>
      <trkpt lon="-3.158891" lat="52.992021"><ele>429.257507</ele><time>2021-09-01T12:16:28Z</time><extensions><speed>1.073382</speed><course>313.316711</course><hAcc>0.886972</hAcc><vAcc>0.710369</vAcc></extensions></trkpt>
      <trkpt lon="-3.158885" lat="52.992013"><ele>429.184937</ele><time>2021-09-01T12:16:29Z</time><extensions><speed>1.069375</speed><course>315.373596</course><hAcc>0.887034</hAcc><vAcc>0.710576</vAcc></extensions></trkpt>
      <trkpt lon="-3.158878" lat="52.992004"><ele>429.112366</ele><time>2021-09-01T12:16:30Z</time><extensions><speed>1.066652</speed><course>312.668671</course><hAcc>0.887081</hAcc><vAcc>0.710726</vAcc></extensions></trkpt>
      <trkpt lon="-3.158872" lat="52.991995"><ele>429.039917</ele><time>2021-09-01T12:16:31Z</time><extensions><speed>1.066251</speed><course>309.354675</course><hAcc>0.887113</hAcc><vAcc>0.710823</vAcc></extensions></trkpt>
      <trkpt lon="-3.158866" lat="52.991986"><ele>428.967468</ele><time>2021-09-01T12:16:32Z</time><extensions><speed>1.069307</speed><course>313.043518</course><hAcc>0.887130</hAcc><vAcc>0.710870</vAcc></extensions></trkpt>
      <trkpt lon="-3.158859" lat="52.991977"><ele>428.894897</ele><time>2021-09-01T12:16:33Z</time><extensions><speed>1.075861</speed><course>317.199493</course><hAcc>0.887132</hAcc><vAcc>0.710871</vAcc></extensions></trkpt>
      <trkpt lon="-3.158852" lat="52.991969"><ele>428.822266</ele><time>2021-09-01T12:16:33Z</time><extensions><speed>1.085328</speed><course>310.331177</course><hAcc>0.887139</hAcc><vAcc>0.710844</vAcc></extensions></trkpt>
      <trkpt lon="-3.158845" lat="52.991960"><ele>428.749603</ele><time>2021-09-01T12:16:34Z</time><extensions><speed>1.097279</speed><course>317.756012</course><hAcc>0.887154</hAcc><vAcc>0.710797</vAcc></extensions></trkpt>
      <trkpt lon="-3.158838" lat="52.991951"><ele>428.677216</ele><time>2021-09-01T12:16:36Z</time><extensions><speed>1.111142</speed><course>318.781036</course><hAcc>0.887144</hAcc><vAcc>0.710718</vAcc></extensions></trkpt>
      <trkpt lon="-3.158831" lat="52.991942"><ele>428.605469</ele><time>2021-09-01T12:16:37Z</time><extensions><speed>1.125976</speed><course>314.656464</course><hAcc>0.887110</hAcc><vAcc>0.710616</vAcc></extensions></trkpt>
      <trkpt lon="-3.158823" lat="52.991933"><ele>428.534393</ele><time>2021-09-01T12:16:38Z</time><extensions><speed>1.140940</speed><course>319.512268</course><hAcc>0.887074</hAcc><vAcc>0.710510</vAcc></extensions></trkpt>
      <trkpt lon="-3.158815" lat="52.991924"><ele>428.463928</ele><time>2021-09-01T12:16:39Z</time><extensions><speed>1.155243</speed><course>322.101624</course><hAcc>0.887035</hAcc><vAcc>0.710405</vAcc></extensions></trkpt>
      <trkpt lon="-3.158807" lat="52.991914"><ele>428.393921</ele><time>2021-09-01T12:16:40Z</time><extensions><speed>1.168158</speed><course>318.612640</course><hAcc>0.886995</hAcc><vAcc>0.710303</vAcc></extensions></trkpt>
      <trkpt lon="-3.158799" lat="52.991905"><ele>428.324310</ele><time>2021-09-01T12:16:41Z</time><extensions><speed>1.179609</speed><course>318.709808</course><hAcc>0.886951</hAcc><vAcc>0.710204</vAcc></extensions></trkpt>
      <trkpt lon="-3.158791" lat="52.991896"><ele>428.255310</ele><time>2021-09-01T12:16:41Z</time><extensions><speed>1.189983</speed><course>309.168610</course><hAcc>0.886924</hAcc><vAcc>0.710122</vAcc></extensions></trkpt>
      <trkpt lon="-3.158783" lat="52.991886"><ele>428.186981</ele><time>2021-09-01T12:16:42Z</time><extensions><speed>1.199724</speed><course>318.520874</course><hAcc>0.886911</hAcc><vAcc>0.710054</vAcc></extensions></trkpt>
      <trkpt lon="-3.158774" lat="52.991877"><ele>428.119751</ele><time>2021-09-01T12:16:43Z</time><extensions><speed>1.209414</speed><course>322.226654</course><hAcc>0.886895</hAcc><vAcc>0.709986</vAcc></extensions></trkpt>
      <trkpt lon="-3.158765" lat="52.991867"><ele>428.054382</ele><time>2021-09-01T12:16:44Z</time><extensions><speed>1.219713</speed><course>319.023285</course><hAcc>0.886877</hAcc><vAcc>0.709916</vAcc></extensions></trkpt>
      <trkpt lon="-3.158756" lat="52.991857"><ele>427.991333</ele><time>2021-09-01T12:16:45Z</time><extensions><speed>1.231233</speed><course>325.928833</course><hAcc>0.886855</hAcc><vAcc>0.709841</vAcc></extensions></trkpt>
      <trkpt lon="-3.158747" lat="52.991848"><ele>427.930664</ele><time>2021-09-01T12:16:46Z</time><extensions><speed>1.244608</speed><course>330.973969</course><hAcc>0.886830</hAcc><vAcc>0.709756</vAcc></extensions></trkpt>
      <trkpt lon="-3.158738" lat="52.991838"><ele>427.872223</ele><time>2021-09-01T12:16:47Z</time><extensions><speed>1.260159</speed><course>325.462158</course><hAcc>0.886801</hAcc><vAcc>0.709657</vAcc></extensions></trkpt>
      <trkpt lon="-3.158728" lat="52.991828"><ele>427.815918</ele><time>2021-09-01T12:16:48Z</time><extensions><speed>1.277648</speed><course>319.000732</course><hAcc>0.886768</hAcc><vAcc>0.709536</vAcc></extensions></trkpt>
      <trkpt lon="-3.158718" lat="52.991818"><ele>427.761505</ele><time>2021-09-01T12:16:49Z</time><extensions><speed>1.296838</speed><course>324.049713</course><hAcc>0.886732</hAcc><vAcc>0.709391</vAcc></extensions></trkpt>
      <trkpt lon="-3.158708" lat="52.991808"><ele>427.708801</ele><time>2021-09-01T12:16:51Z</time><extensions><speed>1.317295</speed><course>322.275696</course><hAcc>0.886674</hAcc><vAcc>0.709203</vAcc></extensions></trkpt>
      <trkpt lon="-3.158697" lat="52.991798"><ele>427.657623</ele><time>2021-09-01T12:16:52Z</time><extensions><speed>1.338027</speed><course>319.519531</course><hAcc>0.886594</hAcc><vAcc>0.708971</vAcc></extensions></trkpt>
      <trkpt lon="-3.158686" lat="52.991788"><ele>427.607758</ele><time>2021-09-01T12:16:53Z</time><extensions><speed>1.358084</speed><course>317.980042</course><hAcc>0.886508</hAcc><vAcc>0.708708</vAcc></extensions></trkpt>
      <trkpt lon="-3.158675" lat="52.991778"><ele>427.558929</ele><time>2021-09-01T12:16:54Z</time><extensions><speed>1.376508</speed><course>318.102478</course><hAcc>0.886417</hAcc><vAcc>0.708422</vAcc></extensions></trkpt>
      <trkpt lon="-3.158663" lat="52.991768"><ele>427.510406</ele><time>2021-09-01T12:16:55Z</time><extensions><speed>1.392665</speed><course>303.135742</course><hAcc>0.886319</hAcc><vAcc>0.708115</vAcc></extensions></trkpt>
      <trkpt lon="-3.158652" lat="52.991757"><ele>427.461151</ele><time>2021-09-01T12:16:56Z</time><extensions><speed>1.405964</speed><course>309.585754</course><hAcc>0.886211</hAcc><vAcc>0.707790</vAcc></extensions></trkpt>
      <trkpt lon="-3.158640" lat="52.991747"><ele>427.410461</ele><time>2021-09-01T12:16:57Z</time><extensions><speed>1.415833</speed><course>312.043945</course><hAcc>0.886093</hAcc><vAcc>0.707444</vAcc></extensions></trkpt>
      <trkpt lon="-3.158627" lat="52.991736"><ele>427.358124</ele><time>2021-09-01T12:16:58Z</time><extensions><speed>1.421889</speed><course>296.473785</course><hAcc>0.885963</hAcc><vAcc>0.707071</vAcc></extensions></trkpt>
      <trkpt lon="-3.158615" lat="52.991726"><ele>427.304138</ele><time>2021-09-01T12:16:59Z</time><extensions><speed>1.424212</speed><course>304.000305</course><hAcc>0.885820</hAcc><vAcc>0.706659</vAcc></extensions></trkpt>
      <trkpt lon="-3.158603" lat="52.991716"><ele>427.248535</ele><time>2021-09-01T12:17:00Z</time><extensions><speed>1.423313</speed><course>310.101471</course><hAcc>0.885662</hAcc><vAcc>0.706194</vAcc></extensions></trkpt>
      <trkpt lon="-3.158590" lat="52.991705"><ele>427.191467</ele><time>2021-09-01T12:17:01Z</time><extensions><speed>1.419314</speed><course>314.593170</course><hAcc>0.885488</hAcc><vAcc>0.705667</vAcc></extensions></trkpt>
      <trkpt lon="-3.158578" lat="52.991695"><ele>427.133392</ele><time>2021-09-01T12:17:02Z</time><extensions><speed>1.412273</speed><course>319.388824</course><hAcc>0.885299</hAcc><vAcc>0.705077</vAcc></extensions></trkpt>
      <trkpt lon="-3.158565" lat="52.991685"><ele>427.074982</ele><time>2021-09-01T12:17:03Z</time><extensions><speed>1.402649</speed><course>321.438110</course><hAcc>0.885095</hAcc><vAcc>0.704425</vAcc></extensions></trkpt>
      <trkpt lon="-3.158553" lat="52.991675"><ele>427.016785</ele><time>2021-09-01T12:17:04Z</time><extensions><speed>1.390872</speed><course>328.475067</course><hAcc>0.884879</hAcc><vAcc>0.703717</vAcc></extensions></trkpt>
      <trkpt lon="-3.158541" lat="52.991665"><ele>426.959015</ele><time>2021-09-01T12:17:05Z</time><extensions><speed>1.377423</speed><course>323.126923</course><hAcc>0.884655</hAcc><vAcc>0.702965</vAcc></extensions></trkpt>
      <trkpt lon="-3.158529" lat="52.991655"><ele>426.901459</ele><time>2021-09-01T12:17:06Z</time><extensions><speed>1.363409</speed><course>317.031311</course><hAcc>0.884428</hAcc><vAcc>0.702184</vAcc></extensions></trkpt>
      <trkpt lon="-3.158517" lat="52.991645"><ele>426.843781</ele><time>2021-09-01T12:17:07Z</time><extensions><speed>1.350066</speed><course>312.376312</course><hAcc>0.884204</hAcc><vAcc>0.701397</vAcc></extensions></trkpt>
      <trkpt lon="-3.158505" lat="52.991635"><ele>426.785797</ele><time>2021-09-01T12:17:08Z</time><extensions><speed>1.338525</speed><course>318.822571</course><hAcc>0.883990</hAcc><vAcc>0.700635</vAcc></extensions></trkpt>
      <trkpt lon="-3.158493" lat="52.991626"><ele>426.727478</ele><time>2021-09-01T12:17:09Z</time><extensions><speed>1.329473</speed><course>319.617462</course><hAcc>0.883794</hAcc><vAcc>0.699933</vAcc></extensions></trkpt>
      <trkpt lon="-3.158481" lat="52.991616"><ele>426.668976</ele><time>2021-09-01T12:17:10Z</time><extensions><speed>1.322752</speed><course>313.608459</course><hAcc>0.883623</hAcc><vAcc>0.699323</vAcc></extensions></trkpt>
      <trkpt lon="-3.158469" lat="52.991607"><ele>426.610809</ele><time>2021-09-01T12:17:11Z</time><extensions><speed>1.317912</speed><course>304.402069</course><hAcc>0.883483</hAcc><vAcc>0.698834</vAcc></extensions></trkpt>
      <trkpt lon="-3.158457" lat="52.991597"><ele>426.553833</ele><time>2021-09-01T12:17:12Z</time><extensions><speed>1.314756</speed><course>313.372192</course><hAcc>0.883377</hAcc><vAcc>0.698483</vAcc></extensions></trkpt>
      <trkpt lon="-3.158445" lat="52.991588"><ele>426.498627</ele><time>2021-09-01T12:17:13Z</time><extensions><speed>1.312941</speed><course>314.449158</course><hAcc>0.883309</hAcc><vAcc>0.698279</vAcc></extensions></trkpt>
      <trkpt lon="-3.158433" lat="52.991579"><ele>426.445251</ele><time>2021-09-01T12:17:14Z</time><extensions><speed>1.311742</speed><course>316.455048</course><hAcc>0.883279</hAcc><vAcc>0.698215</vAcc></extensions></trkpt>
      <trkpt lon="-3.158421" lat="52.991569"><ele>426.393585</ele><time>2021-09-01T12:17:15Z</time><extensions><speed>1.310246</speed><course>322.827759</course><hAcc>0.883286</hAcc><vAcc>0.698274</vAcc></extensions></trkpt>
      <trkpt lon="-3.158410" lat="52.991560"><ele>426.343689</ele><time>2021-09-01T12:17:16Z</time><extensions><speed>1.307721</speed><course>335.256775</course><hAcc>0.883326</hAcc><vAcc>0.698433</vAcc></extensions></trkpt>
      <trkpt lon="-3.158398" lat="52.991551"><ele>426.295746</ele><time>2021-09-01T12:17:17Z</time><extensions><speed>1.304149</speed><course>334.470093</course><hAcc>0.883396</hAcc><vAcc>0.698679</vAcc></extensions></trkpt>
      <trkpt lon="-3.158386" lat="52.991541"><ele>426.249939</ele><time>2021-09-01T12:17:18Z</time><extensions><speed>1.299730</speed><course>329.142944</course><hAcc>0.883491</hAcc><vAcc>0.699003</vAcc></extensions></trkpt>
      <trkpt lon="-3.158375" lat="52.991532"><ele>426.206360</ele><time>2021-09-01T12:17:19Z</time><extensions><speed>1.294818</speed><course>330.236481</course><hAcc>0.883607</hAcc><vAcc>0.699401</vAcc></extensions></trkpt>
      <trkpt lon="-3.158364" lat="52.991522"><ele>426.165100</ele><time>2021-09-01T12:17:20Z</time><extensions><speed>1.290265</speed><course>327.126953</course><hAcc>0.883738</hAcc><vAcc>0.699861</vAcc></extensions></trkpt>
      <trkpt lon="-3.158353" lat="52.991513"><ele>426.126404</ele><time>2021-09-01T12:17:21Z</time><extensions><speed>1.286611</speed><course>324.196686</course><hAcc>0.883878</hAcc><vAcc>0.700366</vAcc></extensions></trkpt>
      <trkpt lon="-3.158342" lat="52.991503"><ele>426.089752</ele><time>2021-09-01T12:17:22Z</time><extensions><speed>1.283949</speed><course>323.671265</course><hAcc>0.884021</hAcc><vAcc>0.700891</vAcc></extensions></trkpt>
      <trkpt lon="-3.158332" lat="52.991494"><ele>426.054138</ele><time>2021-09-01T12:17:23Z</time><extensions><speed>1.282365</speed><course>327.262970</course><hAcc>0.884159</hAcc><vAcc>0.701407</vAcc></extensions></trkpt>
      <trkpt lon="-3.158321" lat="52.991484"><ele>426.018616</ele><time>2021-09-01T12:17:24Z</time><extensions><speed>1.281837</speed><course>327.549561</course><hAcc>0.884287</hAcc><vAcc>0.701883</vAcc></extensions></trkpt>
      <trkpt lon="-3.158311" lat="52.991474"><ele>425.982513</ele><time>2021-09-01T12:17:25Z</time><extensions><speed>1.282514</speed><course>319.078094</course><hAcc>0.884399</hAcc><vAcc>0.702290</vAcc></extensions></trkpt>
      <trkpt lon="-3.158301" lat="52.991465"><ele>425.945129</ele><time>2021-09-01T12:17:26Z</time><extensions><speed>1.284305</speed><course>327.008026</course><hAcc>0.884491</hAcc><vAcc>0.702606</vAcc></extensions></trkpt>
      <trkpt lon="-3.158291" lat="52.991455"><ele>425.905823</ele><time>2021-09-01T12:17:27Z</time><extensions><speed>1.286654</speed><course>328.155212</course><hAcc>0.884562</hAcc><vAcc>0.702824</vAcc></extensions></trkpt>
      <trkpt lon="-3.158281" lat="52.991445"><ele>425.863953</ele><time>2021-09-01T12:17:28Z</time><extensions><speed>1.288975</speed><course>325.350311</course><hAcc>0.884611</hAcc><vAcc>0.702943</vAcc></extensions></trkpt>
      <trkpt lon="-3.158271" lat="52.991435"><ele>425.818970</ele><time>2021-09-01T12:17:29Z</time><extensions><speed>1.291120</speed><course>322.145447</course><hAcc>0.884639</hAcc><vAcc>0.702976</vAcc></extensions></trkpt>
      <trkpt lon="-3.158261" lat="52.991425"><ele>425.770264</ele><time>2021-09-01T12:17:30Z</time><extensions><speed>1.293049</speed><course>312.279083</course><hAcc>0.884650</hAcc><vAcc>0.702943</vAcc></extensions></trkpt>
      <trkpt lon="-3.158251" lat="52.991415"><ele>425.717529</ele><time>2021-09-01T12:17:31Z</time><extensions><speed>1.294846</speed><course>313.047180</course><hAcc>0.884648</hAcc><vAcc>0.702869</vAcc></extensions></trkpt>
      <trkpt lon="-3.158241" lat="52.991405"><ele>425.660675</ele><time>2021-09-01T12:17:32Z</time><extensions><speed>1.296825</speed><course>316.630066</course><hAcc>0.884637</hAcc><vAcc>0.702777</vAcc></extensions></trkpt>
      <trkpt lon="-3.158230" lat="52.991395"><ele>425.599884</ele><time>2021-09-01T12:17:33Z</time><extensions><speed>1.299010</speed><course>322.903290</course><hAcc>0.884623</hAcc><vAcc>0.702684</vAcc></extensions></trkpt>
      <trkpt lon="-3.158220" lat="52.991385"><ele>425.535492</ele><time>2021-09-01T12:17:34Z</time><extensions><speed>1.301431</speed><course>317.613495</course><hAcc>0.884608</hAcc><vAcc>0.702604</vAcc></extensions></trkpt>
      <trkpt lon="-3.158210" lat="52.991375"><ele>425.468140</ele><time>2021-09-01T12:17:35Z</time><extensions><speed>1.303932</speed><course>317.406921</course><hAcc>0.884596</hAcc><vAcc>0.702548</vAcc></extensions></trkpt>
      <trkpt lon="-3.158199" lat="52.991366"><ele>425.398438</ele><time>2021-09-01T12:17:36Z</time><extensions><speed>1.306207</speed><course>309.276642</course><hAcc>0.884588</hAcc><vAcc>0.702527</vAcc></extensions></trkpt>
      <trkpt lon="-3.158189" lat="52.991356"><ele>425.327209</ele><time>2021-09-01T12:17:37Z</time><extensions><speed>1.308327</speed><course>302.809937</course><hAcc>0.884587</hAcc><vAcc>0.702543</vAcc></extensions></trkpt>
      <trkpt lon="-3.158178" lat="52.991346"><ele>425.255768</ele><time>2021-09-01T12:17:38Z</time><extensions><speed>1.309917</speed><course>314.849945</course><hAcc>0.884590</hAcc><vAcc>0.702593</vAcc></extensions></trkpt>
      <trkpt lon="-3.158167" lat="52.991336"><ele>425.185638</ele><time>2021-09-01T12:17:39Z</time><extensions><speed>1.310326</speed><course>316.032379</course><hAcc>0.884597</hAcc><vAcc>0.702662</vAcc></extensions></trkpt>
      <trkpt lon="-3.158156" lat="52.991326"><ele>425.118195</ele><time>2021-09-01T12:17:40Z</time><extensions><speed>1.309327</speed><course>320.107025</course><hAcc>0.884606</hAcc><vAcc>0.702736</vAcc></extensions></trkpt>
      <trkpt lon="-3.158146" lat="52.991317"><ele>425.054504</ele><time>2021-09-01T12:17:41Z</time><extensions><speed>1.307030</speed><course>319.827759</course><hAcc>0.884615</hAcc><vAcc>0.702796</vAcc></extensions></trkpt>
      <trkpt lon="-3.158135" lat="52.991307"><ele>424.994904</ele><time>2021-09-01T12:17:42Z</time><extensions><speed>1.303713</speed><course>317.291443</course><hAcc>0.884621</hAcc><vAcc>0.702829</vAcc></extensions></trkpt>
      <trkpt lon="-3.158124" lat="52.991297"><ele>424.939087</ele><time>2021-09-01T12:17:43Z</time><extensions><speed>1.299464</speed><course>316.565765</course><hAcc>0.884623</hAcc><vAcc>0.702827</vAcc></extensions></trkpt>
      <trkpt lon="-3.158113" lat="52.991287"><ele>424.886383</ele><time>2021-09-01T12:17:44Z</time><extensions><speed>1.294633</speed><course>317.082489</course><hAcc>0.884620</hAcc><vAcc>0.702792</vAcc></extensions></trkpt>
      <trkpt lon="-3.158103" lat="52.991278"><ele>424.836365</ele><time>2021-09-01T12:17:45Z</time><extensions><speed>1.289292</speed><course>321.237793</course><hAcc>0.884612</hAcc><vAcc>0.702736</vAcc></extensions></trkpt>
      <trkpt lon="-3.158092" lat="52.991268"><ele>424.788483</ele><time>2021-09-01T12:17:46Z</time><extensions><speed>1.283201</speed><course>320.387238</course><hAcc>0.884598</hAcc><vAcc>0.702673</vAcc></extensions></trkpt>
      <trkpt lon="-3.158082" lat="52.991258"><ele>424.742218</ele><time>2021-09-01T12:17:47Z</time><extensions><speed>1.276377</speed><course>318.741028</course><hAcc>0.884578</hAcc><vAcc>0.702609</vAcc></extensions></trkpt>
      <trkpt lon="-3.158072" lat="52.991249"><ele>424.697052</ele><time>2021-09-01T12:17:48Z</time><extensions><speed>1.268829</speed><course>315.727936</course><hAcc>0.884550</hAcc><vAcc>0.702543</vAcc></extensions></trkpt>
      <trkpt lon="-3.158062" lat="52.991239"><ele>424.652435</ele><time>2021-09-01T12:17:49Z</time><extensions><speed>1.260881</speed><course>317.296539</course><hAcc>0.884515</hAcc><vAcc>0.702465</vAcc></extensions></trkpt>
      <trkpt lon="-3.158052" lat="52.991229"><ele>424.607819</ele><time>2021-09-01T12:17:50Z</time><extensions><speed>1.253229</speed><course>313.502228</course><hAcc>0.884470</hAcc><vAcc>0.702365</vAcc></extensions></trkpt>
      <trkpt lon="-3.158042" lat="52.991220"><ele>424.562714</ele><time>2021-09-01T12:17:51Z</time><extensions><speed>1.246712</speed><course>312.228180</course><hAcc>0.884415</hAcc><vAcc>0.702227</vAcc></extensions></trkpt>
      <trkpt lon="-3.158033" lat="52.991210"><ele>424.517303</ele><time>2021-09-01T12:17:52Z</time><extensions><speed>1.241657</speed><course>312.650360</course><hAcc>0.884351</hAcc><vAcc>0.702038</vAcc></extensions></trkpt>
      <trkpt lon="-3.158023" lat="52.991201"><ele>424.471985</ele><time>2021-09-01T12:17:53Z</time><extensions><speed>1.237849</speed><course>311.625397</course><hAcc>0.884278</hAcc><vAcc>0.701791</vAcc></extensions></trkpt>
      <trkpt lon="-3.158013" lat="52.991191"><ele>424.426758</ele><time>2021-09-01T12:17:54Z</time><extensions><speed>1.235099</speed><course>315.749390</course><hAcc>0.884199</hAcc><vAcc>0.701494</vAcc></extensions></trkpt>
      <trkpt lon="-3.158004" lat="52.991182"><ele>424.381226</ele><time>2021-09-01T12:17:55Z</time><extensions><speed>1.233441</speed><course>314.449219</course><hAcc>0.884117</hAcc><vAcc>0.701168</vAcc></extensions></trkpt>
      <trkpt lon="-3.157994" lat="52.991172"><ele>424.334808</ele><time>2021-09-01T12:17:56Z</time><extensions><speed>1.232789</speed><course>311.108612</course><hAcc>0.884037</hAcc><vAcc>0.700842</vAcc></extensions></trkpt>
      <trkpt lon="-3.157985" lat="52.991163"><ele>424.287079</ele><time>2021-09-01T12:17:57Z</time><extensions><speed>1.233078</speed><course>320.153503</course><hAcc>0.883963</hAcc><vAcc>0.700546</vAcc></extensions></trkpt>
      <trkpt lon="-3.157975" lat="52.991153"><ele>424.237854</ele><time>2021-09-01T12:17:58Z</time><extensions><speed>1.234058</speed><course>323.888458</course><hAcc>0.883900</hAcc><vAcc>0.700305</vAcc></extensions></trkpt>
      <trkpt lon="-3.157966" lat="52.991144"><ele>424.187164</ele><time>2021-09-01T12:17:59Z</time><extensions><speed>1.235314</speed><course>319.318787</course><hAcc>0.883852</hAcc><vAcc>0.700129</vAcc></extensions></trkpt>
      <trkpt lon="-3.157956" lat="52.991134"><ele>424.135254</ele><time>2021-09-01T12:18:00Z</time><extensions><speed>1.236748</speed><course>319.011444</course><hAcc>0.883820</hAcc><vAcc>0.700024</vAcc></extensions></trkpt>
      <trkpt lon="-3.157947" lat="52.991125"><ele>424.082642</ele><time>2021-09-01T12:18:01Z</time><extensions><speed>1.238268</speed><course>317.439087</course><hAcc>0.883806</hAcc><vAcc>0.699987</vAcc></extensions></trkpt>
      <trkpt lon="-3.157938" lat="52.991115"><ele>424.029694</ele><time>2021-09-01T12:18:02Z</time><extensions><speed>1.240111</speed><course>321.202881</course><hAcc>0.883810</hAcc><vAcc>0.700014</vAcc></extensions></trkpt>
      <trkpt lon="-3.157929" lat="52.991105"><ele>423.976929</ele><time>2021-09-01T12:18:03Z</time><extensions><speed>1.242540</speed><course>311.468506</course><hAcc>0.883833</hAcc><vAcc>0.700099</vAcc></extensions></trkpt>
      <trkpt lon="-3.157920" lat="52.991096"><ele>423.925201</ele><time>2021-09-01T12:18:04Z</time><extensions><speed>1.245191</speed><course>244.738815</course><hAcc>0.883873</hAcc><vAcc>0.700234</vAcc></extensions></trkpt>
      <trkpt lon="-3.157911" lat="52.991086"><ele>423.875275</ele><time>2021-09-01T12:18:05Z</time><extensions><speed>1.247554</speed><course>244.738815</course><hAcc>0.883927</hAcc><vAcc>0.700414</vAcc></extensions></trkpt>
      <trkpt lon="-3.157903" lat="52.991076"><ele>423.827301</ele><time>2021-09-01T12:18:06Z</time><extensions><speed>1.249399</speed><course>244.738815</course><hAcc>0.883993</hAcc><vAcc>0.700637</vAcc></extensions></trkpt>
      <trkpt lon="-3.157894" lat="52.991066"><ele>423.781219</ele><time>2021-09-01T12:18:07Z</time><extensions><speed>1.250705</speed><course>229.832458</course><hAcc>0.884068</hAcc><vAcc>0.700898</vAcc></extensions></trkpt>
      <trkpt lon="-3.157886" lat="52.991056"><ele>423.737183</ele><time>2021-09-01T12:18:08Z</time><extensions><speed>1.251731</speed><course>221.166580</course><hAcc>0.884147</hAcc><vAcc>0.701183</vAcc></extensions></trkpt>
      <trkpt lon="-3.157878" lat="52.991046"><ele>423.696075</ele><time>2021-09-01T12:18:09Z</time><extensions><speed>1.252911</speed><course>221.166580</course><hAcc>0.884225</hAcc><vAcc>0.701471</vAcc></extensions></trkpt>
      <trkpt lon="-3.157870" lat="52.991035"><ele>423.658539</ele><time>2021-09-01T12:18:10Z</time><extensions><speed>1.254261</speed><course>221.166580</course><hAcc>0.884298</hAcc><vAcc>0.701738</vAcc></extensions></trkpt>
      <trkpt lon="-3.157862" lat="52.991025"><ele>423.624664</ele><time>2021-09-01T12:18:11Z</time><extensions><speed>1.255404</speed><course>221.166580</course><hAcc>0.884360</hAcc><vAcc>0.701967</vAcc></extensions></trkpt>
      <trkpt lon="-3.157854" lat="52.991015"><ele>423.594391</ele><time>2021-09-01T12:18:12Z</time><extensions><speed>1.256380</speed><course>221.166580</course><hAcc>0.884407</hAcc><vAcc>0.702144</vAcc></extensions></trkpt>
      <trkpt lon="-3.157847" lat="52.991004"><ele>423.568024</ele><time>2021-09-01T12:18:13Z</time><extensions><speed>1.257588</speed><course>221.166565</course><hAcc>0.884435</hAcc><vAcc>0.702259</vAcc></extensions></trkpt>
      <trkpt lon="-3.157840" lat="52.990994"><ele>423.546204</ele><time>2021-09-01T12:18:14Z</time><extensions><speed>1.259098</speed><course>221.166565</course><hAcc>0.884442</hAcc><vAcc>0.702302</vAcc></extensions></trkpt>
      <trkpt lon="-3.157832" lat="52.990984"><ele>423.529083</ele><time>2021-09-01T12:18:15Z</time><extensions><speed>1.260561</speed><course>221.166565</course><hAcc>0.884429</hAcc><vAcc>0.702269</vAcc></extensions></trkpt>
      <trkpt lon="-3.157825" lat="52.990973"><ele>423.516296</ele><time>2021-09-01T12:18:16Z</time><extensions><speed>1.259382</speed><course>-1.000000</course><hAcc>0.884365</hAcc><vAcc>0.702097</vAcc></extensions></trkpt>
      <trkpt lon="-3.157817" lat="52.990963"><ele>423.509094</ele><time>2021-09-01T12:18:17Z</time><extensions><speed>1.258819</speed><course>-1.000000</course><hAcc>0.884283</hAcc><vAcc>0.701845</vAcc></extensions></trkpt>
      <trkpt lon="-3.157809" lat="52.990953"><ele>423.506256</ele><time>2021-09-01T12:18:18Z</time><extensions><speed>1.257312</speed><course>-1.000000</course><hAcc>0.884177</hAcc><vAcc>0.701503</vAcc></extensions></trkpt>
      <trkpt lon="-3.157801" lat="52.990942"><ele>423.507294</ele><time>2021-09-01T12:18:19Z</time><extensions><speed>1.254805</speed><course>-1.000000</course><hAcc>0.884050</hAcc><vAcc>0.701075</vAcc></extensions></trkpt>
      <trkpt lon="-3.157793" lat="52.990932"><ele>423.511902</ele><time>2021-09-01T12:18:20Z</time><extensions><speed>1.251786</speed><course>-1.000000</course><hAcc>0.883905</hAcc><vAcc>0.700573</vAcc></extensions></trkpt>
      <trkpt lon="-3.157784" lat="52.990923"><ele>423.519897</ele><time>2021-09-01T12:18:21Z</time><extensions><speed>1.249018</speed><course>-1.000000</course><hAcc>0.883749</hAcc><vAcc>0.700018</vAcc></extensions></trkpt>
      <trkpt lon="-3.157775" lat="52.990913"><ele>423.530945</ele><time>2021-09-01T12:18:22Z</time><extensions><speed>1.246961</speed><course>-1.000000</course><hAcc>0.883589</hAcc><vAcc>0.699436</vAcc></extensions></trkpt>
      <trkpt lon="-3.157765" lat="52.990903"><ele>423.544373</ele><time>2021-09-01T12:18:23Z</time><extensions><speed>1.245705</speed><course>-1.000000</course><hAcc>0.883434</hAcc><vAcc>0.698861</vAcc></extensions></trkpt>
      <trkpt lon="-3.157755" lat="52.990894"><ele>423.559296</ele><time>2021-09-01T12:18:24Z</time><extensions><speed>1.244964</speed><course>-1.000000</course><hAcc>0.883293</hAcc><vAcc>0.698329</vAcc></extensions></trkpt>
      <trkpt lon="-3.157745" lat="52.990885"><ele>423.574371</ele><time>2021-09-01T12:18:25Z</time><extensions><speed>1.244569</speed><course>-1.000000</course><hAcc>0.883175</hAcc><vAcc>0.697879</vAcc></extensions></trkpt>
      <trkpt lon="-3.157734" lat="52.990876"><ele>423.588348</ele><time>2021-09-01T12:18:26Z</time><extensions><speed>1.244340</speed><course>-1.000000</course><hAcc>0.883087</hAcc><vAcc>0.697544</vAcc></extensions></trkpt>
      <trkpt lon="-3.157722" lat="52.990867"><ele>423.600281</ele><time>2021-09-01T12:18:27Z</time><extensions><speed>1.243995</speed><course>-1.000000</course><hAcc>0.883034</hAcc><vAcc>0.697348</vAcc></extensions></trkpt>
      <trkpt lon="-3.157711" lat="52.990858"><ele>423.609467</ele><time>2021-09-01T12:18:28Z</time><extensions><speed>1.243391</speed><course>-1.000000</course><hAcc>0.883018</hAcc><vAcc>0.697305</vAcc></extensions></trkpt>
      <trkpt lon="-3.157699" lat="52.990849"><ele>423.615631</ele><time>2021-09-01T12:18:29Z</time><extensions><speed>1.242445</speed><course>116.725777</course><hAcc>0.883040</hAcc><vAcc>0.697415</vAcc></extensions></trkpt>
      <trkpt lon="-3.157687" lat="52.990841"><ele>423.618896</ele><time>2021-09-01T12:18:30Z</time><extensions><speed>1.240894</speed><course>116.725777</course><hAcc>0.883095</hAcc><vAcc>0.697667</vAcc></extensions></trkpt>
      <trkpt lon="-3.157675" lat="52.990832"><ele>423.619629</ele><time>2021-09-01T12:18:31Z</time><extensions><speed>1.238528</speed><course>116.725777</course><hAcc>0.883178</hAcc><vAcc>0.698037</vAcc></extensions></trkpt>
      <trkpt lon="-3.157663" lat="52.990824"><ele>423.618103</ele><time>2021-09-01T12:18:32Z</time><extensions><speed>1.235287</speed><course>116.725777</course><hAcc>0.883279</hAcc><vAcc>0.698481</vAcc></extensions></trkpt>
      <trkpt lon="-3.157651" lat="52.990816"><ele>423.614532</ele><time>2021-09-01T12:18:33Z</time><extensions><speed>1.231041</speed><course>116.725777</course><hAcc>0.883389</hAcc><vAcc>0.698951</vAcc></extensions></trkpt>
      <trkpt lon="-3.157639" lat="52.990807"><ele>423.608826</ele><time>2021-09-01T12:18:34Z</time><extensions><speed>1.226038</speed><course>116.725784</course><hAcc>0.883498</hAcc><vAcc>0.699400</vAcc></extensions></trkpt>
      <trkpt lon="-3.157628" lat="52.990799"><ele>423.601013</ele><time>2021-09-01T12:18:35Z</time><extensions><speed>1.220921</speed><course>116.725784</course><hAcc>0.883597</hAcc><vAcc>0.699795</vAcc></extensions></trkpt>
      <trkpt lon="-3.157616" lat="52.990790"><ele>423.591187</ele><time>2021-09-01T12:18:36Z</time><extensions><speed>1.216147</speed><course>116.725784</course><hAcc>0.883678</hAcc><vAcc>0.700111</vAcc></extensions></trkpt>
      <trkpt lon="-3.157605" lat="52.990782"><ele>423.579346</ele><time>2021-09-01T12:18:37Z</time><extensions><speed>1.212158</speed><course>116.725784</course><hAcc>0.883735</hAcc><vAcc>0.700334</vAcc></extensions></trkpt>
      <trkpt lon="-3.157594" lat="52.990773"><ele>423.565216</ele><time>2021-09-01T12:18:37Z</time><extensions><speed>1.209626</speed><course>116.725784</course><hAcc>0.883786</hAcc><vAcc>0.700473</vAcc></extensions></trkpt>
      <trkpt lon="-3.157584" lat="52.990764"><ele>423.548309</ele><time>2021-09-01T12:18:38Z</time><extensions><speed>1.208743</speed><course>116.725784</course><hAcc>0.883831</hAcc><vAcc>0.700531</vAcc></extensions></trkpt>
      <trkpt lon="-3.157573" lat="52.990755"><ele>423.528198</ele><time>2021-09-01T12:18:39Z</time><extensions><speed>1.209359</speed><course>116.725784</course><hAcc>0.883856</hAcc><vAcc>0.700508</vAcc></extensions></trkpt>
      <trkpt lon="-3.157563" lat="52.990746"><ele>423.504700</ele><time>2021-09-01T12:18:40Z</time><extensions><speed>1.211414</speed><course>116.725784</course><hAcc>0.883867</hAcc><vAcc>0.700427</vAcc></extensions></trkpt>
      <trkpt lon="-3.157554" lat="52.990737"><ele>423.477722</ele><time>2021-09-01T12:18:41Z</time><extensions><speed>1.214869</speed><course>116.725784</course><hAcc>0.883873</hAcc><vAcc>0.700318</vAcc></extensions></trkpt>
      <trkpt lon="-3.157545" lat="52.990727"><ele>423.447296</ele><time>2021-09-01T12:18:42Z</time><extensions><speed>1.219536</speed><course>116.725784</course><hAcc>0.883884</hAcc><vAcc>0.700218</vAcc></extensions></trkpt>
      <trkpt lon="-3.157536" lat="52.990718"><ele>423.413361</ele><time>2021-09-01T12:18:44Z</time><extensions><speed>1.224951</speed><course>116.725784</course><hAcc>0.883889</hAcc><vAcc>0.700152</vAcc></extensions></trkpt>
      <trkpt lon="-3.157527" lat="52.990708"><ele>423.375549</ele><time>2021-09-01T12:18:45Z</time><extensions><speed>1.230360</speed><course>116.725784</course><hAcc>0.883898</hAcc><vAcc>0.700158</vAcc></extensions></trkpt>
      <trkpt lon="-3.157519" lat="52.990698"><ele>423.333008</ele><time>2021-09-01T12:18:46Z</time><extensions><speed>1.235047</speed><course>116.725784</course><hAcc>0.883935</hAcc><vAcc>0.700278</vAcc></extensions></trkpt>
      <trkpt lon="-3.157511" lat="52.990688"><ele>423.284790</ele><time>2021-09-01T12:18:47Z</time><extensions><speed>1.238405</speed><course>116.725784</course><hAcc>0.884002</hAcc><vAcc>0.700533</vAcc></extensions></trkpt>
      <trkpt lon="-3.157503" lat="52.990678"><ele>423.230194</ele><time>2021-09-01T12:18:47Z</time><extensions><speed>1.240067</speed><course>116.725784</course><hAcc>0.884121</hAcc><vAcc>0.700938</vAcc></extensions></trkpt>
      <trkpt lon="-3.157495" lat="52.990668"><ele>423.168488</ele><time>2021-09-01T12:18:48Z</time><extensions><speed>1.240090</speed><course>116.725784</course><hAcc>0.884290</hAcc><vAcc>0.701484</vAcc></extensions></trkpt>
      <trkpt lon="-3.157488" lat="52.990658"><ele>423.098969</ele><time>2021-09-01T12:18:49Z</time><extensions><speed>1.238691</speed><course>116.725784</course><hAcc>0.884491</hAcc><vAcc>0.702144</vAcc></extensions></trkpt>
      <trkpt lon="-3.157480" lat="52.990648"><ele>423.020905</ele><time>2021-09-01T12:18:50Z</time><extensions><speed>1.235792</speed><course>116.725777</course><hAcc>0.884723</hAcc><vAcc>0.702900</vAcc></extensions></trkpt>
      <trkpt lon="-3.157472" lat="52.990638"><ele>422.933502</ele><time>2021-09-01T12:18:51Z</time><extensions><speed>1.231065</speed><course>116.725769</course><hAcc>0.884980</hAcc><vAcc>0.703742</vAcc></extensions></trkpt>
      <trkpt lon="-3.157464" lat="52.990628"><ele>422.836426</ele><time>2021-09-01T12:18:52Z</time><extensions><speed>1.224590</speed><course>116.725769</course><hAcc>0.885260</hAcc><vAcc>0.704661</vAcc></extensions></trkpt>
      <trkpt lon="-3.157456" lat="52.990618"><ele>422.730316</ele><time>2021-09-01T12:18:53Z</time><extensions><speed>1.216470</speed><course>116.725761</course><hAcc>0.885557</hAcc><vAcc>0.705647</vAcc></extensions></trkpt>
      <trkpt lon="-3.157448" lat="52.990608"><ele>422.616577</ele><time>2021-09-01T12:18:54Z</time><extensions><speed>1.207049</speed><course>116.725754</course><hAcc>0.885867</hAcc><vAcc>0.706684</vAcc></extensions></trkpt>
      <trkpt lon="-3.157439" lat="52.990599"><ele>422.497375</ele><time>2021-09-01T12:18:55Z</time><extensions><speed>1.197397</speed><course>116.725746</course><hAcc>0.886182</hAcc><vAcc>0.707750</vAcc></extensions></trkpt>
      <trkpt lon="-3.157431" lat="52.990589"><ele>422.374695</ele><time>2021-09-01T12:18:56Z</time><extensions><speed>1.188581</speed><course>116.725746</course><hAcc>0.886498</hAcc><vAcc>0.708815</vAcc></extensions></trkpt>
      <trkpt lon="-3.157423" lat="52.990580"><ele>422.249817</ele><time>2021-09-01T12:18:57Z</time><extensions><speed>1.181044</speed><course>116.725731</course><hAcc>0.886809</hAcc><vAcc>0.709854</vAcc></extensions></trkpt>
      <trkpt lon="-3.157414" lat="52.990571"><ele>422.123535</ele><time>2021-09-01T12:18:58Z</time><extensions><speed>1.174807</speed><course>116.725723</course><hAcc>0.887109</hAcc><vAcc>0.710846</vAcc></extensions></trkpt>
      <trkpt lon="-3.157406" lat="52.990562"><ele>421.996613</ele><time>2021-09-01T12:18:59Z</time><extensions><speed>1.169899</speed><course>116.725723</course><hAcc>0.887395</hAcc><vAcc>0.711775</vAcc></extensions></trkpt>
      <trkpt lon="-3.157397" lat="52.990552"><ele>421.870056</ele><time>2021-09-01T12:19:00Z</time><extensions><speed>1.166151</speed><course>116.725708</course><hAcc>0.887662</hAcc><vAcc>0.712631</vAcc></extensions></trkpt>
      <trkpt lon="-3.157389" lat="52.990543"><ele>421.744568</ele><time>2021-09-01T12:19:01Z</time><extensions><speed>1.163461</speed><course>116.725700</course><hAcc>0.887906</hAcc><vAcc>0.713410</vAcc></extensions></trkpt>
      <trkpt lon="-3.157381" lat="52.990534"><ele>421.620422</ele><time>2021-09-01T12:19:02Z</time><extensions><speed>1.161933</speed><course>116.725693</course><hAcc>0.888128</hAcc><vAcc>0.714108</vAcc></extensions></trkpt>
      <trkpt lon="-3.157372" lat="52.990525"><ele>421.497314</ele><time>2021-09-01T12:19:03Z</time><extensions><speed>1.161410</speed><course>116.725685</course><hAcc>0.888324</hAcc><vAcc>0.714726</vAcc></extensions></trkpt>
      <trkpt lon="-3.157364" lat="52.990516"><ele>421.374664</ele><time>2021-09-01T12:19:04Z</time><extensions><speed>1.161328</speed><course>116.725670</course><hAcc>0.888495</hAcc><vAcc>0.715262</vAcc></extensions></trkpt>
      <trkpt lon="-3.157355" lat="52.990507"><ele>421.252350</ele><time>2021-09-01T12:19:05Z</time><extensions><speed>1.161255</speed><course>116.725670</course><hAcc>0.888641</hAcc><vAcc>0.715718</vAcc></extensions></trkpt>
      <trkpt lon="-3.157347" lat="52.990498"><ele>421.130554</ele><time>2021-09-01T12:19:06Z</time><extensions><speed>1.161245</speed><course>116.725662</course><hAcc>0.888763</hAcc><vAcc>0.716094</vAcc></extensions></trkpt>
      <trkpt lon="-3.157338" lat="52.990489"><ele>421.009430</ele><time>2021-09-01T12:19:07Z</time><extensions><speed>1.161566</speed><course>316.510925</course><hAcc>0.888863</hAcc><vAcc>0.716396</vAcc></extensions></trkpt>
      <trkpt lon="-3.157329" lat="52.990480"><ele>420.889252</ele><time>2021-09-01T12:19:08Z</time><extensions><speed>1.162274</speed><course>325.771881</course><hAcc>0.888941</hAcc><vAcc>0.716628</vAcc></extensions></trkpt>
      <trkpt lon="-3.157321" lat="52.990471"><ele>420.770691</ele><time>2021-09-01T12:19:09Z</time><extensions><speed>1.163232</speed><course>329.412018</course><hAcc>0.889001</hAcc><vAcc>0.716796</vAcc></extensions></trkpt>
      <trkpt lon="-3.157312" lat="52.990462"><ele>420.654633</ele><time>2021-09-01T12:19:10Z</time><extensions><speed>1.164389</speed><course>328.807678</course><hAcc>0.889044</hAcc><vAcc>0.716907</vAcc></extensions></trkpt>
      <trkpt lon="-3.157303" lat="52.990453"><ele>420.541901</ele><time>2021-09-01T12:19:11Z</time><extensions><speed>1.165645</speed><course>328.238739</course><hAcc>0.889072</hAcc><vAcc>0.716969</vAcc></extensions></trkpt>
      <trkpt lon="-3.157294" lat="52.990443"><ele>420.433197</ele><time>2021-09-01T12:19:12Z</time><extensions><speed>1.166895</speed><course>328.754333</course><hAcc>0.889089</hAcc><vAcc>0.716991</vAcc></extensions></trkpt>
      <trkpt lon="-3.157286" lat="52.990434"><ele>420.328949</ele><time>2021-09-01T12:19:13Z</time><extensions><speed>1.167860</speed><course>321.291412</course><hAcc>0.889097</hAcc><vAcc>0.716983</vAcc></extensions></trkpt>
      <trkpt lon="-3.157277" lat="52.990425"><ele>420.229706</ele><time>2021-09-01T12:19:14Z</time><extensions><speed>1.168242</speed><course>315.163422</course><hAcc>0.889098</hAcc><vAcc>0.716956</vAcc></extensions></trkpt>
      <trkpt lon="-3.157268" lat="52.990416"><ele>420.135864</ele><time>2021-09-01T12:19:15Z</time><extensions><speed>1.167529</speed><course>320.356079</course><hAcc>0.889095</hAcc><vAcc>0.716918</vAcc></extensions></trkpt>
      <trkpt lon="-3.157260" lat="52.990407"><ele>420.047607</ele><time>2021-09-01T12:19:16Z</time><extensions><speed>1.165091</speed><course>314.759003</course><hAcc>0.889088</hAcc><vAcc>0.716876</vAcc></extensions></trkpt>
      <trkpt lon="-3.157251" lat="52.990398"><ele>419.964966</ele><time>2021-09-01T12:19:17Z</time><extensions><speed>1.160818</speed><course>306.430359</course><hAcc>0.889081</hAcc><vAcc>0.716837</vAcc></extensions></trkpt>
      <trkpt lon="-3.157242" lat="52.990389"><ele>419.887909</ele><time>2021-09-01T12:19:18Z</time><extensions><speed>1.154852</speed><course>312.642456</course><hAcc>0.889073</hAcc><vAcc>0.716804</vAcc></extensions></trkpt>
      <trkpt lon="-3.157233" lat="52.990380"><ele>419.816437</ele><time>2021-09-01T12:19:19Z</time><extensions><speed>1.147512</speed><course>309.329712</course><hAcc>0.889064</hAcc><vAcc>0.716781</vAcc></extensions></trkpt>
      <trkpt lon="-3.157225" lat="52.990371"><ele>419.750519</ele><time>2021-09-01T12:19:20Z</time><extensions><speed>1.139122</speed><course>306.517120</course><hAcc>0.889055</hAcc><vAcc>0.716767</vAcc></extensions></trkpt>
      <trkpt lon="-3.157216" lat="52.990363"><ele>419.690063</ele><time>2021-09-01T12:19:21Z</time><extensions><speed>1.129766</speed><course>302.169647</course><hAcc>0.889044</hAcc><vAcc>0.716761</vAcc></extensions></trkpt>
      <trkpt lon="-3.157207" lat="52.990354"><ele>419.634674</ele><time>2021-09-01T12:19:22Z</time><extensions><speed>1.119563</speed><course>299.953156</course><hAcc>0.889030</hAcc><vAcc>0.716755</vAcc></extensions></trkpt>
      <trkpt lon="-3.157199" lat="52.990345"><ele>419.583771</ele><time>2021-09-01T12:19:23Z</time><extensions><speed>1.108913</speed><course>299.473511</course><hAcc>0.889012</hAcc><vAcc>0.716738</vAcc></extensions></trkpt>
      <trkpt lon="-3.157190" lat="52.990337"><ele>419.536346</ele><time>2021-09-01T12:19:24Z</time><extensions><speed>1.098612</speed><course>298.103729</course><hAcc>0.888990</hAcc><vAcc>0.716697</vAcc></extensions></trkpt>
      <trkpt lon="-3.157182" lat="52.990329"><ele>419.491119</ele><time>2021-09-01T12:19:25Z</time><extensions><speed>1.089967</speed><course>294.101929</course><hAcc>0.888962</hAcc><vAcc>0.716621</vAcc></extensions></trkpt>
      <trkpt lon="-3.157174" lat="52.990320"><ele>419.446808</ele><time>2021-09-01T12:19:26Z</time><extensions><speed>1.084345</speed><course>298.669067</course><hAcc>0.888929</hAcc><vAcc>0.716507</vAcc></extensions></trkpt>
      <trkpt lon="-3.157165" lat="52.990312"><ele>419.402191</ele><time>2021-09-01T12:19:27Z</time><extensions><speed>1.082503</speed><course>297.460327</course><hAcc>0.888888</hAcc><vAcc>0.716358</vAcc></extensions></trkpt>
      <trkpt lon="-3.157157" lat="52.990304"><ele>419.355927</ele><time>2021-09-01T12:19:28Z</time><extensions><speed>1.084787</speed><course>300.643127</course><hAcc>0.888841</hAcc><vAcc>0.716178</vAcc></extensions></trkpt>
      <trkpt lon="-3.157148" lat="52.990295"><ele>419.307037</ele><time>2021-09-01T12:19:29Z</time><extensions><speed>1.091032</speed><course>300.762909</course><hAcc>0.888787</hAcc><vAcc>0.715976</vAcc></extensions></trkpt>
      <trkpt lon="-3.157138" lat="52.990287"><ele>419.255005</ele><time>2021-09-01T12:19:30Z</time><extensions><speed>1.100581</speed><course>306.221161</course><hAcc>0.888726</hAcc><vAcc>0.715759</vAcc></extensions></trkpt>
      <trkpt lon="-3.157129" lat="52.990279"><ele>419.199677</ele><time>2021-09-01T12:19:31Z</time><extensions><speed>1.112683</speed><course>311.753571</course><hAcc>0.888658</hAcc><vAcc>0.715534</vAcc></extensions></trkpt>
      <trkpt lon="-3.157119" lat="52.990271"><ele>419.140564</ele><time>2021-09-01T12:19:32Z</time><extensions><speed>1.126475</speed><course>314.039551</course><hAcc>0.888584</hAcc><vAcc>0.715303</vAcc></extensions></trkpt>
      <trkpt lon="-3.157108" lat="52.990263"><ele>419.076721</ele><time>2021-09-01T12:19:33Z</time><extensions><speed>1.140944</speed><course>316.125336</course><hAcc>0.888503</hAcc><vAcc>0.715064</vAcc></extensions></trkpt>
      <trkpt lon="-3.157097" lat="52.990256"><ele>419.007141</ele><time>2021-09-01T12:19:34Z</time><extensions><speed>1.154871</speed><course>313.054962</course><hAcc>0.888415</hAcc><vAcc>0.714815</vAcc></extensions></trkpt>
      <trkpt lon="-3.157085" lat="52.990248"><ele>418.930847</ele><time>2021-09-01T12:19:35Z</time><extensions><speed>1.167078</speed><course>309.718231</course><hAcc>0.888320</hAcc><vAcc>0.714548</vAcc></extensions></trkpt>
      <trkpt lon="-3.157073" lat="52.990240"><ele>418.847076</ele><time>2021-09-01T12:19:36Z</time><extensions><speed>1.176655</speed><course>315.993652</course><hAcc>0.888219</hAcc><vAcc>0.714255</vAcc></extensions></trkpt>
      <trkpt lon="-3.157061" lat="52.990232"><ele>418.755554</ele><time>2021-09-01T12:19:37Z</time><extensions><speed>1.183038</speed><course>314.639465</course><hAcc>0.888113</hAcc><vAcc>0.713931</vAcc></extensions></trkpt>
      <trkpt lon="-3.157049" lat="52.990225"><ele>418.656342</ele><time>2021-09-01T12:19:38Z</time><extensions><speed>1.186002</speed><course>314.699524</course><hAcc>0.888004</hAcc><vAcc>0.713574</vAcc></extensions></trkpt>
      <trkpt lon="-3.157036" lat="52.990217"><ele>418.549713</ele><time>2021-09-01T12:19:39Z</time><extensions><speed>1.185469</speed><course>315.537170</course><hAcc>0.887895</hAcc><vAcc>0.713186</vAcc></extensions></trkpt>
      <trkpt lon="-3.157024" lat="52.990210"><ele>418.435852</ele><time>2021-09-01T12:19:40Z</time><extensions><speed>1.181588</speed><course>315.384186</course><hAcc>0.887787</hAcc><vAcc>0.712780</vAcc></extensions></trkpt>
      <trkpt lon="-3.157012" lat="52.990202"><ele>418.315155</ele><time>2021-09-01T12:19:41Z</time><extensions><speed>1.175178</speed><course>316.068207</course><hAcc>0.887684</hAcc><vAcc>0.712373</vAcc></extensions></trkpt>
      <trkpt lon="-3.157000" lat="52.990195"><ele>418.188324</ele><time>2021-09-01T12:19:42Z</time><extensions><speed>1.167491</speed><course>319.526184</course><hAcc>0.887590</hAcc><vAcc>0.711990</vAcc></extensions></trkpt>
      <trkpt lon="-3.156987" lat="52.990187"><ele>418.056091</ele><time>2021-09-01T12:19:43Z</time><extensions><speed>1.159730</speed><course>322.032959</course><hAcc>0.887505</hAcc><vAcc>0.711658</vAcc></extensions></trkpt>
      <trkpt lon="-3.156975" lat="52.990180"><ele>417.918945</ele><time>2021-09-01T12:19:44Z</time><extensions><speed>1.153067</speed><course>326.209290</course><hAcc>0.887431</hAcc><vAcc>0.711397</vAcc></extensions></trkpt>
      <trkpt lon="-3.156963" lat="52.990172"><ele>417.777252</ele><time>2021-09-01T12:19:45Z</time><extensions><speed>1.148613</speed><course>324.142303</course><hAcc>0.887366</hAcc><vAcc>0.711213</vAcc></extensions></trkpt>
      <trkpt lon="-3.156951" lat="52.990165"><ele>417.631409</ele><time>2021-09-01T12:19:46Z</time><extensions><speed>1.146539</speed><course>332.193542</course><hAcc>0.887308</hAcc><vAcc>0.711096</vAcc></extensions></trkpt>
      <trkpt lon="-3.156939" lat="52.990158"><ele>417.482147</ele><time>2021-09-01T12:19:47Z</time><extensions><speed>1.146578</speed><course>329.558014</course><hAcc>0.887253</hAcc><vAcc>0.711022</vAcc></extensions></trkpt>
      <trkpt lon="-3.156927" lat="52.990151"><ele>417.330658</ele><time>2021-09-01T12:19:48Z</time><extensions><speed>1.148968</speed><course>323.309692</course><hAcc>0.887195</hAcc><vAcc>0.710960</vAcc></extensions></trkpt>
      <trkpt lon="-3.156914" lat="52.990144"><ele>417.178192</ele><time>2021-09-01T12:19:49Z</time><extensions><speed>1.154135</speed><course>319.992767</course><hAcc>0.887127</hAcc><vAcc>0.710869</vAcc></extensions></trkpt>
      <trkpt lon="-3.156901" lat="52.990137"><ele>417.025940</ele><time>2021-09-01T12:19:50Z</time><extensions><speed>1.161895</speed><course>322.539886</course><hAcc>0.887044</hAcc><vAcc>0.710710</vAcc></extensions></trkpt>
      <trkpt lon="-3.156888" lat="52.990130"><ele>416.874664</ele><time>2021-09-01T12:19:51Z</time><extensions><speed>1.171829</speed><course>317.532928</course><hAcc>0.886937</hAcc><vAcc>0.710451</vAcc></extensions></trkpt>
      <trkpt lon="-3.156874" lat="52.990123"><ele>416.724884</ele><time>2021-09-01T12:19:52Z</time><extensions><speed>1.183936</speed><course>314.725220</course><hAcc>0.886804</hAcc><vAcc>0.710071</vAcc></extensions></trkpt>
      <trkpt lon="-3.156860" lat="52.990117"><ele>416.577179</ele><time>2021-09-01T12:19:53Z</time><extensions><speed>1.197859</speed><course>325.463684</course><hAcc>0.886639</hAcc><vAcc>0.709560</vAcc></extensions></trkpt>
      <trkpt lon="-3.156845" lat="52.990111"><ele>416.431946</ele><time>2021-09-01T12:19:54Z</time><extensions><speed>1.212844</speed><course>326.490570</course><hAcc>0.886443</hAcc><vAcc>0.708918</vAcc></extensions></trkpt>
      <trkpt lon="-3.156830" lat="52.990105"><ele>416.289124</ele><time>2021-09-01T12:19:55Z</time><extensions><speed>1.227908</speed><course>316.111328</course><hAcc>0.886216</hAcc><vAcc>0.708155</vAcc></extensions></trkpt>
      <trkpt lon="-3.156814" lat="52.990100"><ele>416.148254</ele><time>2021-09-01T12:19:56Z</time><extensions><speed>1.242283</speed><course>316.470520</course><hAcc>0.885963</hAcc><vAcc>0.707285</vAcc></extensions></trkpt>
      <trkpt lon="-3.156797" lat="52.990094"><ele>416.008820</ele><time>2021-09-01T12:19:57Z</time><extensions><speed>1.255494</speed><course>317.921600</course><hAcc>0.885689</hAcc><vAcc>0.706330</vAcc></extensions></trkpt>
      <trkpt lon="-3.156780" lat="52.990090"><ele>415.870453</ele><time>2021-09-01T12:19:58Z</time><extensions><speed>1.267535</speed><course>317.925903</course><hAcc>0.885402</hAcc><vAcc>0.705318</vAcc></extensions></trkpt>
      <trkpt lon="-3.156763" lat="52.990085"><ele>415.732697</ele><time>2021-09-01T12:19:59Z</time><extensions><speed>1.278337</speed><course>316.840515</course><hAcc>0.885111</hAcc><vAcc>0.704286</vAcc></extensions></trkpt>
      <trkpt lon="-3.156745" lat="52.990081"><ele>415.595215</ele><time>2021-09-01T12:20:00Z</time><extensions><speed>1.286987</speed><course>321.987762</course><hAcc>0.884825</hAcc><vAcc>0.703274</vAcc></extensions></trkpt>
      <trkpt lon="-3.156727" lat="52.990076"><ele>415.458588</ele><time>2021-09-01T12:20:01Z</time><extensions><speed>1.292167</speed><course>314.291290</course><hAcc>0.884552</hAcc><vAcc>0.702326</vAcc></extensions></trkpt>
      <trkpt lon="-3.156709" lat="52.990073"><ele>415.324493</ele><time>2021-09-01T12:20:02Z</time><extensions><speed>1.292946</speed><course>311.665222</course><hAcc>0.884301</hAcc><vAcc>0.701470</vAcc></extensions></trkpt>
      <trkpt lon="-3.156691" lat="52.990069"><ele>415.194611</ele><time>2021-09-01T12:20:03Z</time><extensions><speed>1.289542</speed><course>315.645782</course><hAcc>0.884079</hAcc><vAcc>0.700726</vAcc></extensions></trkpt>
      <trkpt lon="-3.156673" lat="52.990065"><ele>415.070099</ele><time>2021-09-01T12:20:04Z</time><extensions><speed>1.282551</speed><course>312.390594</course><hAcc>0.883889</hAcc><vAcc>0.700104</vAcc></extensions></trkpt>
      <trkpt lon="-3.156655" lat="52.990062"><ele>414.951111</ele><time>2021-09-01T12:20:05Z</time><extensions><speed>1.272392</speed><course>315.968140</course><hAcc>0.883735</hAcc><vAcc>0.699609</vAcc></extensions></trkpt>
      <trkpt lon="-3.156637" lat="52.990058"><ele>414.837036</ele><time>2021-09-01T12:20:06Z</time><extensions><speed>1.259947</speed><course>305.843231</course><hAcc>0.883618</hAcc><vAcc>0.699246</vAcc></extensions></trkpt>
      <trkpt lon="-3.156619" lat="52.990054"><ele>414.726318</ele><time>2021-09-01T12:20:07Z</time><extensions><speed>1.246185</speed><course>307.428955</course><hAcc>0.883537</hAcc><vAcc>0.699016</vAcc></extensions></trkpt>
      <trkpt lon="-3.156602" lat="52.990051"><ele>414.617035</ele><time>2021-09-01T12:20:08Z</time><extensions><speed>1.232149</speed><course>303.591888</course><hAcc>0.883491</hAcc><vAcc>0.698911</vAcc></extensions></trkpt>
      <trkpt lon="-3.156585" lat="52.990047"><ele>414.507263</ele><time>2021-09-01T12:20:09Z</time><extensions><speed>1.218857</speed><course>302.311584</course><hAcc>0.883474</hAcc><vAcc>0.698914</vAcc></extensions></trkpt>
      <trkpt lon="-3.156568" lat="52.990044"><ele>414.395386</ele><time>2021-09-01T12:20:10Z</time><extensions><speed>1.206427</speed><course>296.010498</course><hAcc>0.883481</hAcc><vAcc>0.698996</vAcc></extensions></trkpt>
      <trkpt lon="-3.156551" lat="52.990040"><ele>414.279846</ele><time>2021-09-01T12:20:11Z</time><extensions><speed>1.194499</speed><course>298.597748</course><hAcc>0.883506</hAcc><vAcc>0.699133</vAcc></extensions></trkpt>
      <trkpt lon="-3.156534" lat="52.990036"><ele>414.159119</ele><time>2021-09-01T12:20:12Z</time><extensions><speed>1.183055</speed><course>307.419373</course><hAcc>0.883542</hAcc><vAcc>0.699298</vAcc></extensions></trkpt>
      <trkpt lon="-3.156518" lat="52.990033"><ele>414.031830</ele><time>2021-09-01T12:20:13Z</time><extensions><speed>1.172539</speed><course>311.127045</course><hAcc>0.883582</hAcc><vAcc>0.699473</vAcc></extensions></trkpt>
      <trkpt lon="-3.156502" lat="52.990029"><ele>413.897430</ele><time>2021-09-01T12:20:14Z</time><extensions><speed>1.163807</speed><course>308.779785</course><hAcc>0.883621</hAcc><vAcc>0.699641</vAcc></extensions></trkpt>
      <trkpt lon="-3.156485" lat="52.990025"><ele>413.755981</ele><time>2021-09-01T12:20:15Z</time><extensions><speed>1.157884</speed><course>310.817932</course><hAcc>0.883651</hAcc><vAcc>0.699785</vAcc></extensions></trkpt>
      <trkpt lon="-3.156469" lat="52.990021"><ele>413.607819</ele><time>2021-09-01T12:20:16Z</time><extensions><speed>1.155736</speed><course>313.903961</course><hAcc>0.883670</hAcc><vAcc>0.699890</vAcc></extensions></trkpt>
      <trkpt lon="-3.156453" lat="52.990017"><ele>413.453125</ele><time>2021-09-01T12:20:17Z</time><extensions><speed>1.158293</speed><course>312.113068</course><hAcc>0.883671</hAcc><vAcc>0.699935</vAcc></extensions></trkpt>
      <trkpt lon="-3.156437" lat="52.990013"><ele>413.291718</ele><time>2021-09-01T12:20:18Z</time><extensions><speed>1.165434</speed><course>298.693726</course><hAcc>0.883653</hAcc><vAcc>0.699901</vAcc></extensions></trkpt>
      <trkpt lon="-3.156421" lat="52.990009"><ele>413.122864</ele><time>2021-09-01T12:20:19Z</time><extensions><speed>1.176132</speed><course>304.126526</course><hAcc>0.883615</hAcc><vAcc>0.699777</vAcc></extensions></trkpt>
      <trkpt lon="-3.156405" lat="52.990006"><ele>412.945374</ele><time>2021-09-01T12:20:20Z</time><extensions><speed>1.189353</speed><course>307.202972</course><hAcc>0.883555</hAcc><vAcc>0.699562</vAcc></extensions></trkpt>
      <trkpt lon="-3.156388" lat="52.990002"><ele>412.758423</ele><time>2021-09-01T12:20:21Z</time><extensions><speed>1.203870</speed><course>306.849365</course><hAcc>0.883477</hAcc><vAcc>0.699266</vAcc></extensions></trkpt>
      <trkpt lon="-3.156371" lat="52.989998"><ele>412.561737</ele><time>2021-09-01T12:20:22Z</time><extensions><speed>1.218580</speed><course>311.228149</course><hAcc>0.883383</hAcc><vAcc>0.698907</vAcc></extensions></trkpt>
      <trkpt lon="-3.156354" lat="52.989995"><ele>412.356018</ele><time>2021-09-01T12:20:23Z</time><extensions><speed>1.232921</speed><course>314.984741</course><hAcc>0.883278</hAcc><vAcc>0.698510</vAcc></extensions></trkpt>
      <trkpt lon="-3.156336" lat="52.989991"><ele>412.142303</ele><time>2021-09-01T12:20:24Z</time><extensions><speed>1.246562</speed><course>312.149628</course><hAcc>0.883164</hAcc><vAcc>0.698099</vAcc></extensions></trkpt>
      <trkpt lon="-3.156318" lat="52.989988"><ele>411.921906</ele><time>2021-09-01T12:20:25Z</time><extensions><speed>1.258863</speed><course>303.811646</course><hAcc>0.883046</hAcc><vAcc>0.697694</vAcc></extensions></trkpt>
      <trkpt lon="-3.156300" lat="52.989985"><ele>411.696716</ele><time>2021-09-01T12:20:26Z</time><extensions><speed>1.269625</speed><course>306.939087</course><hAcc>0.882927</hAcc><vAcc>0.697305</vAcc></extensions></trkpt>
      <trkpt lon="-3.156282" lat="52.989981"><ele>411.468964</ele><time>2021-09-01T12:20:27Z</time><extensions><speed>1.279584</speed><course>305.149933</course><hAcc>0.882807</hAcc><vAcc>0.696936</vAcc></extensions></trkpt>
      <trkpt lon="-3.156264" lat="52.989978"><ele>411.240875</ele><time>2021-09-01T12:20:28Z</time><extensions><speed>1.289092</speed><course>307.460999</course><hAcc>0.882688</hAcc><vAcc>0.696585</vAcc></extensions></trkpt>
      <trkpt lon="-3.156245" lat="52.989975"><ele>411.014435</ele><time>2021-09-01T12:20:29Z</time><extensions><speed>1.298112</speed><course>310.556549</course><hAcc>0.882570</hAcc><vAcc>0.696245</vAcc></extensions></trkpt>
      <trkpt lon="-3.156226" lat="52.989972"><ele>410.791565</ele><time>2021-09-01T12:20:30Z</time><extensions><speed>1.306399</speed><course>316.643463</course><hAcc>0.882452</hAcc><vAcc>0.695900</vAcc></extensions></trkpt>
      <trkpt lon="-3.156208" lat="52.989969"><ele>410.573761</ele><time>2021-09-01T12:20:31Z</time><extensions><speed>1.313156</speed><course>310.111420</course><hAcc>0.882335</hAcc><vAcc>0.695539</vAcc></extensions></trkpt>
      <trkpt lon="-3.156189" lat="52.989966"><ele>410.362030</ele><time>2021-09-01T12:20:32Z</time><extensions><speed>1.317342</speed><course>309.394775</course><hAcc>0.882219</hAcc><vAcc>0.695154</vAcc></extensions></trkpt>
      <trkpt lon="-3.156170" lat="52.989963"><ele>410.156586</ele><time>2021-09-01T12:20:33Z</time><extensions><speed>1.317724</speed><course>312.734375</course><hAcc>0.882108</hAcc><vAcc>0.694749</vAcc></extensions></trkpt>
      <trkpt lon="-3.156151" lat="52.989960"><ele>409.957245</ele><time>2021-09-01T12:20:34Z</time><extensions><speed>1.314298</speed><course>307.110260</course><hAcc>0.882005</hAcc><vAcc>0.694340</vAcc></extensions></trkpt>
      <trkpt lon="-3.156132" lat="52.989957"><ele>409.763458</ele><time>2021-09-01T12:20:36Z</time><extensions><speed>1.307706</speed><course>304.794312</course><hAcc>0.881899</hAcc><vAcc>0.693941</vAcc></extensions></trkpt>
      <trkpt lon="-3.156113" lat="52.989954"><ele>409.575317</ele><time>2021-09-01T12:20:37Z</time><extensions><speed>1.297704</speed><course>309.669006</course><hAcc>0.881794</hAcc><vAcc>0.693586</vAcc></extensions></trkpt>
      <trkpt lon="-3.156094" lat="52.989952"><ele>409.392303</ele><time>2021-09-01T12:20:38Z</time><extensions><speed>1.284319</speed><course>309.747101</course><hAcc>0.881714</hAcc><vAcc>0.693317</vAcc></extensions></trkpt>
      <trkpt lon="-3.156076" lat="52.989949"><ele>409.214172</ele><time>2021-09-01T12:20:39Z</time><extensions><speed>1.268223</speed><course>308.451904</course><hAcc>0.881662</hAcc><vAcc>0.693156</vAcc></extensions></trkpt>
      <trkpt lon="-3.156058" lat="52.989946"><ele>409.040314</ele><time>2021-09-01T12:20:40Z</time><extensions><speed>1.249453</speed><course>313.674774</course><hAcc>0.881640</hAcc><vAcc>0.693112</vAcc></extensions></trkpt>
      <trkpt lon="-3.156040" lat="52.989943"><ele>408.869873</ele><time>2021-09-01T12:20:41Z</time><extensions><speed>1.228239</speed><course>310.174561</course><hAcc>0.881645</hAcc><vAcc>0.693182</vAcc></extensions></trkpt>
      <trkpt lon="-3.156022" lat="52.989941"><ele>408.701752</ele><time>2021-09-01T12:20:41Z</time><extensions><speed>1.205336</speed><course>312.894348</course><hAcc>0.881696</hAcc><vAcc>0.693371</vAcc></extensions></trkpt>
      <trkpt lon="-3.156005" lat="52.989938"><ele>408.534119</ele><time>2021-09-01T12:20:42Z</time><extensions><speed>1.181359</speed><course>309.740997</course><hAcc>0.881789</hAcc><vAcc>0.693671</vAcc></extensions></trkpt>
      <trkpt lon="-3.155988" lat="52.989935"><ele>408.365814</ele><time>2021-09-01T12:20:43Z</time><extensions><speed>1.157013</speed><course>309.271240</course><hAcc>0.881903</hAcc><vAcc>0.694053</vAcc></extensions></trkpt>
      <trkpt lon="-3.155972" lat="52.989933"><ele>408.195557</ele><time>2021-09-01T12:20:44Z</time><extensions><speed>1.132581</speed><course>309.840485</course><hAcc>0.882033</hAcc><vAcc>0.694498</vAcc></extensions></trkpt>
      <trkpt lon="-3.155956" lat="52.989930"><ele>408.022461</ele><time>2021-09-01T12:20:45Z</time><extensions><speed>1.109088</speed><course>308.054108</course><hAcc>0.882173</hAcc><vAcc>0.694984</vAcc></extensions></trkpt>
      <trkpt lon="-3.155940" lat="52.989927"><ele>407.846069</ele><time>2021-09-01T12:20:46Z</time><extensions><speed>1.087312</speed><course>306.226685</course><hAcc>0.882317</hAcc><vAcc>0.695487</vAcc></extensions></trkpt>
      <trkpt lon="-3.155925" lat="52.989924"><ele>407.666504</ele><time>2021-09-01T12:20:47Z</time><extensions><speed>1.066854</speed><course>316.211884</course><hAcc>0.882460</hAcc><vAcc>0.695981</vAcc></extensions></trkpt>
      <trkpt lon="-3.155910" lat="52.989921"><ele>407.484314</ele><time>2021-09-01T12:20:48Z</time><extensions><speed>1.047489</speed><course>312.798523</course><hAcc>0.882596</hAcc><vAcc>0.696440</vAcc></extensions></trkpt>
      <trkpt lon="-3.155895" lat="52.989918"><ele>407.300629</ele><time>2021-09-01T12:20:49Z</time><extensions><speed>1.029457</speed><course>314.823364</course><hAcc>0.882720</hAcc><vAcc>0.696840</vAcc></extensions></trkpt>
      <trkpt lon="-3.155881" lat="52.989915"><ele>407.116913</ele><time>2021-09-01T12:20:50Z</time><extensions><speed>1.012862</speed><course>317.560303</course><hAcc>0.882828</hAcc><vAcc>0.697160</vAcc></extensions></trkpt>
      <trkpt lon="-3.155867" lat="52.989912"><ele>406.934753</ele><time>2021-09-01T12:20:52Z</time><extensions><speed>0.997640</speed><course>313.870911</course><hAcc>0.882901</hAcc><vAcc>0.697380</vAcc></extensions></trkpt>
      <trkpt lon="-3.155853" lat="52.989909"><ele>406.756134</ele><time>2021-09-01T12:20:53Z</time><extensions><speed>0.983802</speed><course>320.858917</course><hAcc>0.882938</hAcc><vAcc>0.697503</vAcc></extensions></trkpt>
      <trkpt lon="-3.155840" lat="52.989905"><ele>406.582214</ele><time>2021-09-01T12:20:54Z</time><extensions><speed>0.971337</speed><course>322.110107</course><hAcc>0.882956</hAcc><vAcc>0.697554</vAcc></extensions></trkpt>
      <trkpt lon="-3.155827" lat="52.989901"><ele>406.414185</ele><time>2021-09-01T12:20:55Z</time><extensions><speed>0.960558</speed><course>322.258118</course><hAcc>0.882956</hAcc><vAcc>0.697544</vAcc></extensions></trkpt>
      <trkpt lon="-3.155815" lat="52.989897"><ele>406.253052</ele><time>2021-09-01T12:20:56Z</time><extensions><speed>0.951879</speed><course>323.751770</course><hAcc>0.882939</hAcc><vAcc>0.697483</vAcc></extensions></trkpt>
      <trkpt lon="-3.155803" lat="52.989892"><ele>406.099518</ele><time>2021-09-01T12:20:57Z</time><extensions><speed>0.946183</speed><course>311.017761</course><hAcc>0.882908</hAcc><vAcc>0.697377</vAcc></extensions></trkpt>
      <trkpt lon="-3.155791" lat="52.989887"><ele>405.953705</ele><time>2021-09-01T12:20:58Z</time><extensions><speed>0.944459</speed><course>303.134949</course><hAcc>0.882863</hAcc><vAcc>0.697230</vAcc></extensions></trkpt>
      <trkpt lon="-3.155780" lat="52.989882"><ele>405.815369</ele><time>2021-09-01T12:20:59Z</time><extensions><speed>0.947597</speed><course>305.266266</course><hAcc>0.882808</hAcc><vAcc>0.697045</vAcc></extensions></trkpt>
      <trkpt lon="-3.155770" lat="52.989876"><ele>405.683716</ele><time>2021-09-01T12:21:00Z</time><extensions><speed>0.956267</speed><course>306.244568</course><hAcc>0.882746</hAcc><vAcc>0.696829</vAcc></extensions></trkpt>
      <trkpt lon="-3.155760" lat="52.989870"><ele>405.557434</ele><time>2021-09-01T12:21:01Z</time><extensions><speed>0.971255</speed><course>311.028961</course><hAcc>0.882678</hAcc><vAcc>0.696591</vAcc></extensions></trkpt>
      <trkpt lon="-3.155750" lat="52.989863"><ele>405.434998</ele><time>2021-09-01T12:21:02Z</time><extensions><speed>0.993391</speed><course>304.990997</course><hAcc>0.882609</hAcc><vAcc>0.696343</vAcc></extensions></trkpt>
      <trkpt lon="-3.155741" lat="52.989856"><ele>405.315186</ele><time>2021-09-01T12:21:03Z</time><extensions><speed>1.022479</speed><course>305.619354</course><hAcc>0.882541</hAcc><vAcc>0.696104</vAcc></extensions></trkpt>
      <trkpt lon="-3.155731" lat="52.989849"><ele>405.197296</ele><time>2021-09-01T12:21:04Z</time><extensions><speed>1.057763</speed><course>319.038269</course><hAcc>0.882478</hAcc><vAcc>0.695891</vAcc></extensions></trkpt>
      <trkpt lon="-3.155722" lat="52.989841"><ele>405.081146</ele><time>2021-09-01T12:21:05Z</time><extensions><speed>1.098493</speed><course>314.772644</course><hAcc>0.882420</hAcc><vAcc>0.695713</vAcc></extensions></trkpt>
      <trkpt lon="-3.155713" lat="52.989833"><ele>404.966766</ele><time>2021-09-01T12:21:06Z</time><extensions><speed>1.143500</speed><course>314.865356</course><hAcc>0.882370</hAcc><vAcc>0.695567</vAcc></extensions></trkpt>
      <trkpt lon="-3.155703" lat="52.989824"><ele>404.853790</ele><time>2021-09-01T12:21:07Z</time><extensions><speed>1.191099</speed><course>315.584076</course><hAcc>0.882327</hAcc><vAcc>0.695447</vAcc></extensions></trkpt>
      <trkpt lon="-3.155692" lat="52.989815"><ele>404.741486</ele><time>2021-09-01T12:21:08Z</time><extensions><speed>1.239779</speed><course>318.301117</course><hAcc>0.882293</hAcc><vAcc>0.695343</vAcc></extensions></trkpt>
      <trkpt lon="-3.155681" lat="52.989806"><ele>404.628876</ele><time>2021-09-01T12:21:09Z</time><extensions><speed>1.288404</speed><course>308.957520</course><hAcc>0.882268</hAcc><vAcc>0.695256</vAcc></extensions></trkpt>
      <trkpt lon="-3.155670" lat="52.989796"><ele>404.514832</ele><time>2021-09-01T12:21:10Z</time><extensions><speed>1.335901</speed><course>309.679749</course><hAcc>0.882254</hAcc><vAcc>0.695192</vAcc></extensions></trkpt>
      <trkpt lon="-3.155658" lat="52.989787"><ele>404.398193</ele><time>2021-09-01T12:21:11Z</time><extensions><speed>1.381092</speed><course>315.508118</course><hAcc>0.882254</hAcc><vAcc>0.695162</vAcc></extensions></trkpt>
      <trkpt lon="-3.155645" lat="52.989777"><ele>404.277832</ele><time>2021-09-01T12:21:12Z</time><extensions><speed>1.422947</speed><course>315.740204</course><hAcc>0.882269</hAcc><vAcc>0.695176</vAcc></extensions></trkpt>
      <trkpt lon="-3.155631" lat="52.989767"><ele>404.152924</ele><time>2021-09-01T12:21:13Z</time><extensions><speed>1.460628</speed><course>310.654785</course><hAcc>0.882302</hAcc><vAcc>0.695244</vAcc></extensions></trkpt>
      <trkpt lon="-3.155617" lat="52.989757"><ele>404.022858</ele><time>2021-09-01T12:21:14Z</time><extensions><speed>1.493127</speed><course>314.784058</course><hAcc>0.882354</hAcc><vAcc>0.695377</vAcc></extensions></trkpt>
      <trkpt lon="-3.155602" lat="52.989746"><ele>403.886902</ele><time>2021-09-01T12:21:15Z</time><extensions><speed>1.519469</speed><course>306.836517</course><hAcc>0.882428</hAcc><vAcc>0.695589</vAcc></extensions></trkpt>
      <trkpt lon="-3.155587" lat="52.989736"><ele>403.744415</ele><time>2021-09-01T12:21:16Z</time><extensions><speed>1.539204</speed><course>319.014709</course><hAcc>0.882522</hAcc><vAcc>0.695889</vAcc></extensions></trkpt>
      <trkpt lon="-3.155571" lat="52.989726"><ele>403.595093</ele><time>2021-09-01T12:21:17Z</time><extensions><speed>1.552092</speed><course>316.668060</course><hAcc>0.882636</hAcc><vAcc>0.696277</vAcc></extensions></trkpt>
      <trkpt lon="-3.155555" lat="52.989716"><ele>403.439301</ele><time>2021-09-01T12:21:18Z</time><extensions><speed>1.558334</speed><course>317.381256</course><hAcc>0.882765</hAcc><vAcc>0.696744</vAcc></extensions></trkpt>
      <trkpt lon="-3.155539" lat="52.989706"><ele>403.277679</ele><time>2021-09-01T12:21:19Z</time><extensions><speed>1.558585</speed><course>315.522644</course><hAcc>0.882904</hAcc><vAcc>0.697264</vAcc></extensions></trkpt>
      <trkpt lon="-3.155523" lat="52.989696"><ele>403.111328</ele><time>2021-09-01T12:21:20Z</time><extensions><speed>1.553020</speed><course>313.748596</course><hAcc>0.883045</hAcc><vAcc>0.697806</vAcc></extensions></trkpt>
      <trkpt lon="-3.155506" lat="52.989686"><ele>402.941498</ele><time>2021-09-01T12:21:21Z</time><extensions><speed>1.541560</speed><course>311.298676</course><hAcc>0.883182</hAcc><vAcc>0.698333</vAcc></extensions></trkpt>
      <trkpt lon="-3.155490" lat="52.989677"><ele>402.769806</ele><time>2021-09-01T12:21:22Z</time><extensions><speed>1.524472</speed><course>307.453308</course><hAcc>0.883306</hAcc><vAcc>0.698812</vAcc></extensions></trkpt>
      <trkpt lon="-3.155474" lat="52.989667"><ele>402.598114</ele><time>2021-09-01T12:21:23Z</time><extensions><speed>1.502226</speed><course>308.937561</course><hAcc>0.883413</hAcc><vAcc>0.699214</vAcc></extensions></trkpt>
      <trkpt lon="-3.155458" lat="52.989658"><ele>402.428467</ele><time>2021-09-01T12:21:24Z</time><extensions><speed>1.475434</speed><course>304.505646</course><hAcc>0.883498</hAcc><vAcc>0.699518</vAcc></extensions></trkpt>
      <trkpt lon="-3.155443" lat="52.989648"><ele>402.262878</ele><time>2021-09-01T12:21:25Z</time><extensions><speed>1.445175</speed><course>299.094574</course><hAcc>0.883560</hAcc><vAcc>0.699711</vAcc></extensions></trkpt>
      <trkpt lon="-3.155428" lat="52.989639"><ele>402.103210</ele><time>2021-09-01T12:21:26Z</time><extensions><speed>1.412990</speed><course>310.704071</course><hAcc>0.883600</hAcc><vAcc>0.699794</vAcc></extensions></trkpt>
      <trkpt lon="-3.155414" lat="52.989630"><ele>401.951141</ele><time>2021-09-01T12:21:27Z</time><extensions><speed>1.380615</speed><course>308.713898</course><hAcc>0.883623</hAcc><vAcc>0.699778</vAcc></extensions></trkpt>
      <trkpt lon="-3.155400" lat="52.989621"><ele>401.808136</ele><time>2021-09-01T12:21:28Z</time><extensions><speed>1.349380</speed><course>315.990417</course><hAcc>0.883634</hAcc><vAcc>0.699695</vAcc></extensions></trkpt>
      <trkpt lon="-3.155386" lat="52.989613"><ele>401.675293</ele><time>2021-09-01T12:21:29Z</time><extensions><speed>1.319954</speed><course>316.941956</course><hAcc>0.883643</hAcc><vAcc>0.699591</vAcc></extensions></trkpt>
      <trkpt lon="-3.155372" lat="52.989604"><ele>401.553284</ele><time>2021-09-01T12:21:30Z</time><extensions><speed>1.292658</speed><course>326.025696</course><hAcc>0.883657</hAcc><vAcc>0.699521</vAcc></extensions></trkpt>
      <trkpt lon="-3.155359" lat="52.989596"><ele>401.442322</ele><time>2021-09-01T12:21:31Z</time><extensions><speed>1.267360</speed><course>316.997101</course><hAcc>0.883685</hAcc><vAcc>0.699535</vAcc></extensions></trkpt>
      <trkpt lon="-3.155346" lat="52.989588"><ele>401.342468</ele><time>2021-09-01T12:21:32Z</time><extensions><speed>1.243372</speed><course>307.396637</course><hAcc>0.883732</hAcc><vAcc>0.699658</vAcc></extensions></trkpt>
      <trkpt lon="-3.155333" lat="52.989580"><ele>401.253662</ele><time>2021-09-01T12:21:33Z</time><extensions><speed>1.220120</speed><course>307.245117</course><hAcc>0.883799</hAcc><vAcc>0.699890</vAcc></extensions></trkpt>
      <trkpt lon="-3.155320" lat="52.989572"><ele>401.175903</ele><time>2021-09-01T12:21:34Z</time><extensions><speed>1.197056</speed><course>302.943970</course><hAcc>0.883886</hAcc><vAcc>0.700216</vAcc></extensions></trkpt>
      <trkpt lon="-3.155307" lat="52.989565"><ele>401.109039</ele><time>2021-09-01T12:21:35Z</time><extensions><speed>1.173267</speed><course>310.986115</course><hAcc>0.883990</hAcc><vAcc>0.700616</vAcc></extensions></trkpt>
      <trkpt lon="-3.155295" lat="52.989558"><ele>401.052734</ele><time>2021-09-01T12:21:36Z</time><extensions><speed>1.147442</speed><course>317.229156</course><hAcc>0.884107</hAcc><vAcc>0.701068</vAcc></extensions></trkpt>
      <trkpt lon="-3.155282" lat="52.989551"><ele>401.006470</ele><time>2021-09-01T12:21:37Z</time><extensions><speed>1.118812</speed><course>310.287506</course><hAcc>0.884229</hAcc><vAcc>0.701543</vAcc></extensions></trkpt>
      <trkpt lon="-3.155270" lat="52.989544"><ele>400.969482</ele><time>2021-09-01T12:21:38Z</time><extensions><speed>1.087332</speed><course>314.657898</course><hAcc>0.884350</hAcc><vAcc>0.702013</vAcc></extensions></trkpt>
      <trkpt lon="-3.155259" lat="52.989538"><ele>400.940674</ele><time>2021-09-01T12:21:39Z</time><extensions><speed>1.052770</speed><course>316.163879</course><hAcc>0.884464</hAcc><vAcc>0.702448</vAcc></extensions></trkpt>
      <trkpt lon="-3.155248" lat="52.989531"><ele>400.918457</ele><time>2021-09-01T12:21:40Z</time><extensions><speed>1.014972</speed><course>315.280670</course><hAcc>0.884563</hAcc><vAcc>0.702822</vAcc></extensions></trkpt>
      <trkpt lon="-3.155237" lat="52.989525"><ele>400.900482</ele><time>2021-09-01T12:21:41Z</time><extensions><speed>0.973741</speed><course>323.358459</course><hAcc>0.884644</hAcc><vAcc>0.703111</vAcc></extensions></trkpt>
      <trkpt lon="-3.155227" lat="52.989519"><ele>400.883911</ele><time>2021-09-01T12:21:42Z</time><extensions><speed>0.928886</speed><course>323.478973</course><hAcc>0.884702</hAcc><vAcc>0.703300</vAcc></extensions></trkpt>
      <trkpt lon="-3.155219" lat="52.989513"><ele>400.865997</ele><time>2021-09-01T12:21:43Z</time><extensions><speed>0.880182</speed><course>327.884216</course><hAcc>0.884737</hAcc><vAcc>0.703386</vAcc></extensions></trkpt>
      <trkpt lon="-3.155211" lat="52.989507"><ele>400.844299</ele><time>2021-09-01T12:21:44Z</time><extensions><speed>0.828132</speed><course>318.187775</course><hAcc>0.884746</hAcc><vAcc>0.703374</vAcc></extensions></trkpt>
      <trkpt lon="-3.155204" lat="52.989501"><ele>400.816650</ele><time>2021-09-01T12:21:45Z</time><extensions><speed>0.775138</speed><course>318.936035</course><hAcc>0.884733</hAcc><vAcc>0.703274</vAcc></extensions></trkpt>
      <trkpt lon="-3.155198" lat="52.989495"><ele>400.781464</ele><time>2021-09-01T12:21:46Z</time><extensions><speed>0.724422</speed><course>326.780121</course><hAcc>0.884697</hAcc><vAcc>0.703100</vAcc></extensions></trkpt>
      <trkpt lon="-3.155193" lat="52.989489"><ele>400.737885</ele><time>2021-09-01T12:21:47Z</time><extensions><speed>0.678686</speed><course>314.218445</course><hAcc>0.884639</hAcc><vAcc>0.702868</vAcc></extensions></trkpt>
      <trkpt lon="-3.155189" lat="52.989484"><ele>400.685822</ele><time>2021-09-01T12:21:48Z</time><extensions><speed>0.638778</speed><course>317.554047</course><hAcc>0.884560</hAcc><vAcc>0.702593</vAcc></extensions></trkpt>
      <trkpt lon="-3.155186" lat="52.989479"><ele>400.625427</ele><time>2021-09-01T12:21:49Z</time><extensions><speed>0.604197</speed><course>317.225586</course><hAcc>0.884458</hAcc><vAcc>0.702282</vAcc></extensions></trkpt>
      <trkpt lon="-3.155184" lat="52.989474"><ele>400.557159</ele><time>2021-09-01T12:21:50Z</time><extensions><speed>0.574536</speed><course>318.371796</course><hAcc>0.884327</hAcc><vAcc>0.701924</vAcc></extensions></trkpt>
      <trkpt lon="-3.155182" lat="52.989469"><ele>400.481567</ele><time>2021-09-01T12:21:51Z</time><extensions><speed>0.548945</speed><course>319.534454</course><hAcc>0.884163</hAcc><vAcc>0.701495</vAcc></extensions></trkpt>
      <trkpt lon="-3.155181" lat="52.989464"><ele>400.399200</ele><time>2021-09-01T12:21:52Z</time><extensions><speed>0.526409</speed><course>319.948578</course><hAcc>0.883955</hAcc><vAcc>0.700961</vAcc></extensions></trkpt>
      <trkpt lon="-3.155181" lat="52.989459"><ele>400.310760</ele><time>2021-09-01T12:21:53Z</time><extensions><speed>0.506643</speed><course>326.867279</course><hAcc>0.883693</hAcc><vAcc>0.700286</vAcc></extensions></trkpt>
      <trkpt lon="-3.155182" lat="52.989455"><ele>400.216614</ele><time>2021-09-01T12:21:54Z</time><extensions><speed>0.490161</speed><course>319.995087</course><hAcc>0.883367</hAcc><vAcc>0.699430</vAcc></extensions></trkpt>
      <trkpt lon="-3.155183" lat="52.989451"><ele>400.116791</ele><time>2021-09-01T12:21:55Z</time><extensions><speed>0.478120</speed><course>323.754486</course><hAcc>0.882967</hAcc><vAcc>0.698348</vAcc></extensions></trkpt>
      <trkpt lon="-3.155185" lat="52.989446"><ele>400.011017</ele><time>2021-09-01T12:21:56Z</time><extensions><speed>0.472028</speed><course>327.994751</course><hAcc>0.882484</hAcc><vAcc>0.696994</vAcc></extensions></trkpt>
      <trkpt lon="-3.155187" lat="52.989442"><ele>399.898926</ele><time>2021-09-01T12:21:57Z</time><extensions><speed>0.473323</speed><course>338.740143</course><hAcc>0.881914</hAcc><vAcc>0.695325</vAcc></extensions></trkpt>
      <trkpt lon="-3.155190" lat="52.989439"><ele>399.779968</ele><time>2021-09-01T12:21:58Z</time><extensions><speed>0.482409</speed><course>336.648224</course><hAcc>0.881259</hAcc><vAcc>0.693314</vAcc></extensions></trkpt>
      <trkpt lon="-3.155194" lat="52.989435"><ele>399.653687</ele><time>2021-09-01T12:21:59Z</time><extensions><speed>0.498377</speed><course>335.818359</course><hAcc>0.880527</hAcc><vAcc>0.690959</vAcc></extensions></trkpt>
      <trkpt lon="-3.155199" lat="52.989431"><ele>399.519745</ele><time>2021-09-01T12:22:00Z</time><extensions><speed>0.519602</speed><course>332.183533</course><hAcc>0.879733</hAcc><vAcc>0.688298</vAcc></extensions></trkpt>
      <trkpt lon="-3.155204" lat="52.989428"><ele>399.378021</ele><time>2021-09-01T12:22:01Z</time><extensions><speed>0.544174</speed><course>329.123840</course><hAcc>0.878900</hAcc><vAcc>0.685406</vAcc></extensions></trkpt>
      <trkpt lon="-3.155211" lat="52.989424"><ele>399.228668</ele><time>2021-09-01T12:22:02Z</time><extensions><speed>0.569986</speed><course>331.386230</course><hAcc>0.878056</hAcc><vAcc>0.682391</vAcc></extensions></trkpt>
      <trkpt lon="-3.155217" lat="52.989421"><ele>399.071899</ele><time>2021-09-01T12:22:03Z</time><extensions><speed>0.594958</speed><course>327.161377</course><hAcc>0.877232</hAcc><vAcc>0.679377</vAcc></extensions></trkpt>
      <trkpt lon="-3.155224" lat="52.989418"><ele>398.908203</ele><time>2021-09-01T12:22:04Z</time><extensions><speed>0.617537</speed><course>327.868042</course><hAcc>0.876456</hAcc><vAcc>0.676481</vAcc></extensions></trkpt>
      <trkpt lon="-3.155232" lat="52.989414"><ele>398.738068</ele><time>2021-09-01T12:22:05Z</time><extensions><speed>0.637199</speed><course>323.627838</course><hAcc>0.875750</hAcc><vAcc>0.673797</vAcc></extensions></trkpt>
      <trkpt lon="-3.155240" lat="52.989411"><ele>398.562042</ele><time>2021-09-01T12:22:06Z</time><extensions><speed>0.654494</speed><course>324.612000</course><hAcc>0.875124</hAcc><vAcc>0.671385</vAcc></extensions></trkpt>
      <trkpt lon="-3.155248" lat="52.989408"><ele>398.380829</ele><time>2021-09-01T12:22:07Z</time><extensions><speed>0.670033</speed><course>314.250275</course><hAcc>0.874573</hAcc><vAcc>0.669242</vAcc></extensions></trkpt>
      <trkpt lon="-3.155257" lat="52.989405"><ele>398.194946</ele><time>2021-09-01T12:22:08Z</time><extensions><speed>0.684146</speed><course>324.325928</course><hAcc>0.874069</hAcc><vAcc>0.667303</vAcc></extensions></trkpt>
      <trkpt lon="-3.155266" lat="52.989402"><ele>398.004852</ele><time>2021-09-01T12:22:09Z</time><extensions><speed>0.696635</speed><course>323.620239</course><hAcc>0.873572</hAcc><vAcc>0.665466</vAcc></extensions></trkpt>
      <trkpt lon="-3.155275" lat="52.989399"><ele>397.810516</ele><time>2021-09-01T12:22:10Z</time><extensions><speed>0.706518</speed><course>318.647095</course><hAcc>0.873033</hAcc><vAcc>0.663620</vAcc></extensions></trkpt>
      <trkpt lon="-3.155285" lat="52.989396"><ele>397.611938</ele><time>2021-09-01T12:22:11Z</time><extensions><speed>0.713409</speed><course>325.356964</course><hAcc>0.872407</hAcc><vAcc>0.661670</vAcc></extensions></trkpt>
      <trkpt lon="-3.155294" lat="52.989394"><ele>397.409332</ele><time>2021-09-01T12:22:12Z</time><extensions><speed>0.717830</speed><course>319.826599</course><hAcc>0.871676</hAcc><vAcc>0.659567</vAcc></extensions></trkpt>
      <trkpt lon="-3.155304" lat="52.989391"><ele>397.203491</ele><time>2021-09-01T12:22:13Z</time><extensions><speed>0.720321</speed><course>314.735016</course><hAcc>0.870865</hAcc><vAcc>0.657325</vAcc></extensions></trkpt>
      <trkpt lon="-3.155315" lat="52.989389"><ele>396.995178</ele><time>2021-09-01T12:22:14Z</time><extensions><speed>0.721456</speed><course>309.478760</course><hAcc>0.870021</hAcc><vAcc>0.655018</vAcc></extensions></trkpt>
      <trkpt lon="-3.155325" lat="52.989387"><ele>396.785278</ele><time>2021-09-01T12:22:15Z</time><extensions><speed>0.721656</speed><course>319.543488</course><hAcc>0.869197</hAcc><vAcc>0.652764</vAcc></extensions></trkpt>
      <trkpt lon="-3.155335" lat="52.989385"><ele>396.574524</ele><time>2021-09-01T12:22:16Z</time><extensions><speed>0.721152</speed><course>324.087982</course><hAcc>0.868446</hAcc><vAcc>0.650698</vAcc></extensions></trkpt>
      <trkpt lon="-3.155345" lat="52.989383"><ele>396.363464</ele><time>2021-09-01T12:22:17Z</time><extensions><speed>0.720756</speed><course>317.628326</course><hAcc>0.867809</hAcc><vAcc>0.648944</vAcc></extensions></trkpt>
      <trkpt lon="-3.155356" lat="52.989382"><ele>396.152466</ele><time>2021-09-01T12:22:18Z</time><extensions><speed>0.721537</speed><course>311.843903</course><hAcc>0.867319</hAcc><vAcc>0.647608</vAcc></extensions></trkpt>
      <trkpt lon="-3.155366" lat="52.989380"><ele>395.941620</ele><time>2021-09-01T12:22:19Z</time><extensions><speed>0.723872</speed><course>320.026215</course><hAcc>0.866995</hAcc><vAcc>0.646763</vAcc></extensions></trkpt>
      <trkpt lon="-3.155376" lat="52.989378"><ele>395.730621</ele><time>2021-09-01T12:22:20Z</time><extensions><speed>0.727491</speed><course>320.448669</course><hAcc>0.866845</hAcc><vAcc>0.646443</vAcc></extensions></trkpt>
      <trkpt lon="-3.155387" lat="52.989377"><ele>395.518616</ele><time>2021-09-01T12:22:21Z</time><extensions><speed>0.731896</speed><course>324.626526</course><hAcc>0.866862</hAcc><vAcc>0.646640</vAcc></extensions></trkpt>
      <trkpt lon="-3.155397" lat="52.989375"><ele>395.304565</ele><time>2021-09-01T12:22:22Z</time><extensions><speed>0.736302</speed><course>326.167938</course><hAcc>0.867029</hAcc><vAcc>0.647305</vAcc></extensions></trkpt>
      <trkpt lon="-3.155408" lat="52.989373"><ele>395.087494</ele><time>2021-09-01T12:22:23Z</time><extensions><speed>0.739923</speed><course>325.390656</course><hAcc>0.867317</hAcc><vAcc>0.648350</vAcc></extensions></trkpt>
      <trkpt lon="-3.155419" lat="52.989371"><ele>394.866821</ele><time>2021-09-01T12:22:24Z</time><extensions><speed>0.742056</speed><course>314.974457</course><hAcc>0.867690</hAcc><vAcc>0.649652</vAcc></extensions></trkpt>
      <trkpt lon="-3.155429" lat="52.989369"><ele>394.642609</ele><time>2021-09-01T12:22:25Z</time><extensions><speed>0.742001</speed><course>325.724579</course><hAcc>0.868102</hAcc><vAcc>0.651067</vAcc></extensions></trkpt>
      <trkpt lon="-3.155440" lat="52.989367"><ele>394.415833</ele><time>2021-09-01T12:22:26Z</time><extensions><speed>0.739561</speed><course>318.034210</course><hAcc>0.868512</hAcc><vAcc>0.652458</vAcc></extensions></trkpt>
      <trkpt lon="-3.155450" lat="52.989365"><ele>394.188110</ele><time>2021-09-01T12:22:27Z</time><extensions><speed>0.734345</speed><course>313.475250</course><hAcc>0.868884</hAcc><vAcc>0.653709</vAcc></extensions></trkpt>
      <trkpt lon="-3.155461" lat="52.989363"><ele>393.961182</ele><time>2021-09-01T12:22:28Z</time><extensions><speed>0.725748</speed><course>321.089203</course><hAcc>0.869187</hAcc><vAcc>0.654731</vAcc></extensions></trkpt>
      <trkpt lon="-3.155471" lat="52.989361"><ele>393.736755</ele><time>2021-09-01T12:22:29Z</time><extensions><speed>0.713754</speed><course>329.810181</course><hAcc>0.869397</hAcc><vAcc>0.655457</vAcc></extensions></trkpt>
      <trkpt lon="-3.155481" lat="52.989359"><ele>393.516357</ele><time>2021-09-01T12:22:30Z</time><extensions><speed>0.698788</speed><course>327.314850</course><hAcc>0.869497</hAcc><vAcc>0.655833</vAcc></extensions></trkpt>
      <trkpt lon="-3.155490" lat="52.989357"><ele>393.301056</ele><time>2021-09-01T12:22:31Z</time><extensions><speed>0.682000</speed><course>321.503876</course><hAcc>0.869469</hAcc><vAcc>0.655806</vAcc></extensions></trkpt>
      <trkpt lon="-3.155500" lat="52.989355"><ele>393.091827</ele><time>2021-09-01T12:22:32Z</time><extensions><speed>0.665024</speed><course>323.534607</course><hAcc>0.869303</hAcc><vAcc>0.655328</vAcc></extensions></trkpt>
      <trkpt lon="-3.155509" lat="52.989352"><ele>392.889496</ele><time>2021-09-01T12:22:33Z</time><extensions><speed>0.648778</speed><course>325.158722</course><hAcc>0.868992</hAcc><vAcc>0.654369</vAcc></extensions></trkpt>
      <trkpt lon="-3.155517" lat="52.989350"><ele>392.694611</ele><time>2021-09-01T12:22:34Z</time><extensions><speed>0.633785</speed><course>329.447083</course><hAcc>0.868542</hAcc><vAcc>0.652939</vAcc></extensions></trkpt>
      <trkpt lon="-3.155526" lat="52.989348"><ele>392.507263</ele><time>2021-09-01T12:22:35Z</time><extensions><speed>0.621411</speed><course>331.191650</course><hAcc>0.867970</hAcc><vAcc>0.651093</vAcc></extensions></trkpt>
      <trkpt lon="-3.155534" lat="52.989345"><ele>392.327240</ele><time>2021-09-01T12:22:36Z</time><extensions><speed>0.613569</speed><course>334.557068</course><hAcc>0.867302</hAcc><vAcc>0.648921</vAcc></extensions></trkpt>
      <trkpt lon="-3.155542" lat="52.989343"><ele>392.153870</ele><time>2021-09-01T12:22:37Z</time><extensions><speed>0.611813</speed><course>336.690918</course><hAcc>0.866572</hAcc><vAcc>0.646534</vAcc></extensions></trkpt>
      <trkpt lon="-3.155551" lat="52.989341"><ele>391.985992</ele><time>2021-09-01T12:22:38Z</time><extensions><speed>0.616700</speed><course>337.183258</course><hAcc>0.865817</hAcc><vAcc>0.644059</vAcc></extensions></trkpt>
      <trkpt lon="-3.155559" lat="52.989338"><ele>391.822174</ele><time>2021-09-01T12:22:39Z</time><extensions><speed>0.627488</speed><course>318.997711</course><hAcc>0.865078</hAcc><vAcc>0.641632</vAcc></extensions></trkpt>
      <trkpt lon="-3.155567" lat="52.989335"><ele>391.660889</ele><time>2021-09-01T12:22:40Z</time><extensions><speed>0.642481</speed><course>315.791901</course><hAcc>0.864401</hAcc><vAcc>0.639399</vAcc></extensions></trkpt>
      <trkpt lon="-3.155576" lat="52.989332"><ele>391.500427</ele><time>2021-09-01T12:22:41Z</time><extensions><speed>0.659830</speed><course>315.791901</course><hAcc>0.863826</hAcc><vAcc>0.637505</vAcc></extensions></trkpt>
      <trkpt lon="-3.155584" lat="52.989329"><ele>391.339264</ele><time>2021-09-01T12:22:42Z</time><extensions><speed>0.678318</speed><course>315.791901</course><hAcc>0.863390</hAcc><vAcc>0.636070</vAcc></extensions></trkpt>
      <trkpt lon="-3.155593" lat="52.989326"><ele>391.175964</ele><time>2021-09-01T12:22:43Z</time><extensions><speed>0.697342</speed><course>315.791901</course><hAcc>0.863118</hAcc><vAcc>0.635177</vAcc></extensions></trkpt>
      <trkpt lon="-3.155602" lat="52.989323"><ele>391.009430</ele><time>2021-09-01T12:22:44Z</time><extensions><speed>0.716510</speed><course>315.791901</course><hAcc>0.863025</hAcc><vAcc>0.634874</vAcc></extensions></trkpt>
      <trkpt lon="-3.155612" lat="52.989320"><ele>390.838715</ele><time>2021-09-01T12:22:45Z</time><extensions><speed>0.736272</speed><course>315.791901</course><hAcc>0.863115</hAcc><vAcc>0.635182</vAcc></extensions></trkpt>
      <trkpt lon="-3.155622" lat="52.989317"><ele>390.663330</ele><time>2021-09-01T12:22:46Z</time><extensions><speed>0.757374</speed><course>315.791901</course><hAcc>0.863388</hAcc><vAcc>0.636088</vAcc></extensions></trkpt>
      <trkpt lon="-3.155632" lat="52.989314"><ele>390.482971</ele><time>2021-09-01T12:22:47Z</time><extensions><speed>0.779525</speed><course>315.791901</course><hAcc>0.863826</hAcc><vAcc>0.637543</vAcc></extensions></trkpt>
      <trkpt lon="-3.155642" lat="52.989311"><ele>390.297577</ele><time>2021-09-01T12:22:48Z</time><extensions><speed>0.801323</speed><course>315.791901</course><hAcc>0.864408</hAcc><vAcc>0.639462</vAcc></extensions></trkpt>
      <trkpt lon="-3.155653" lat="52.989307"><ele>390.107056</ele><time>2021-09-01T12:22:49Z</time><extensions><speed>0.820841</speed><course>315.791901</course><hAcc>0.865099</hAcc><vAcc>0.641726</vAcc></extensions></trkpt>
      <trkpt lon="-3.155664" lat="52.989304"><ele>389.911041</ele><time>2021-09-01T12:22:50Z</time><extensions><speed>0.836453</speed><course>315.791901</course><hAcc>0.865858</hAcc><vAcc>0.644189</vAcc></extensions></trkpt>
      <trkpt lon="-3.155675" lat="52.989300"><ele>389.708862</ele><time>2021-09-01T12:22:51Z</time><extensions><speed>0.847630</speed><course>315.791901</course><hAcc>0.866642</hAcc><vAcc>0.646703</vAcc></extensions></trkpt>
      <trkpt lon="-3.155686" lat="52.989297"><ele>389.499512</ele><time>2021-09-01T12:22:52Z</time><extensions><speed>0.855428</speed><course>315.791901</course><hAcc>0.867416</hAcc><vAcc>0.649152</vAcc></extensions></trkpt>
      <trkpt lon="-3.155698" lat="52.989293"><ele>389.282623</ele><time>2021-09-01T12:22:53Z</time><extensions><speed>0.861199</speed><course>315.791901</course><hAcc>0.868158</hAcc><vAcc>0.651461</vAcc></extensions></trkpt>
      <trkpt lon="-3.155709" lat="52.989290"><ele>389.057953</ele><time>2021-09-01T12:22:54Z</time><extensions><speed>0.865566</speed><course>315.791901</course><hAcc>0.868854</hAcc><vAcc>0.653602</vAcc></extensions></trkpt>
      <trkpt lon="-3.155720" lat="52.989286"><ele>388.825134</ele><time>2021-09-01T12:22:55Z</time><extensions><speed>0.868974</speed><course>324.368835</course><hAcc>0.869502</hAcc><vAcc>0.655579</vAcc></extensions></trkpt>
      <trkpt lon="-3.155731" lat="52.989282"><ele>388.584137</ele><time>2021-09-01T12:22:56Z</time><extensions><speed>0.871627</speed><course>336.936340</course><hAcc>0.870105</hAcc><vAcc>0.657415</vAcc></extensions></trkpt>
      <trkpt lon="-3.155743" lat="52.989278"><ele>388.335480</ele><time>2021-09-01T12:22:57Z</time><extensions><speed>0.873882</speed><course>334.067902</course><hAcc>0.870668</hAcc><vAcc>0.659131</vAcc></extensions></trkpt>
      <trkpt lon="-3.155754" lat="52.989274"><ele>388.079865</ele><time>2021-09-01T12:22:58Z</time><extensions><speed>0.876872</speed><course>335.500000</course><hAcc>0.871194</hAcc><vAcc>0.660741</vAcc></extensions></trkpt>
      <trkpt lon="-3.155765" lat="52.989269"><ele>387.818207</ele><time>2021-09-01T12:22:59Z</time><extensions><speed>0.881845</speed><course>331.822205</course><hAcc>0.871687</hAcc><vAcc>0.662255</vAcc></extensions></trkpt>
      <trkpt lon="-3.155775" lat="52.989265"><ele>387.551300</ele><time>2021-09-01T12:23:00Z</time><extensions><speed>0.889606</speed><course>332.566284</course><hAcc>0.872151</hAcc><vAcc>0.663683</vAcc></extensions></trkpt>
      <trkpt lon="-3.155786" lat="52.989260"><ele>387.279846</ele><time>2021-09-01T12:23:01Z</time><extensions><speed>0.900103</speed><course>322.442413</course><hAcc>0.872591</hAcc><vAcc>0.665045</vAcc></extensions></trkpt>
      <trkpt lon="-3.155797" lat="52.989255"><ele>387.004333</ele><time>2021-09-01T12:23:02Z</time><extensions><speed>0.912451</speed><course>328.923309</course><hAcc>0.873012</hAcc><vAcc>0.666359</vAcc></extensions></trkpt>
      <trkpt lon="-3.155808" lat="52.989251"><ele>386.724731</ele><time>2021-09-01T12:23:03Z</time><extensions><speed>0.925619</speed><course>332.979462</course><hAcc>0.873419</hAcc><vAcc>0.667638</vAcc></extensions></trkpt>
      <trkpt lon="-3.155820" lat="52.989246"><ele>386.440887</ele><time>2021-09-01T12:23:04Z</time><extensions><speed>0.938841</speed><course>326.583588</course><hAcc>0.873814</hAcc><vAcc>0.668883</vAcc></extensions></trkpt>
      <trkpt lon="-3.155831" lat="52.989240"><ele>386.152802</ele><time>2021-09-01T12:23:05Z</time><extensions><speed>0.951561</speed><course>333.004852</course><hAcc>0.874196</hAcc><vAcc>0.670086</vAcc></extensions></trkpt>
      <trkpt lon="-3.155842" lat="52.989235"><ele>385.860931</ele><time>2021-09-01T12:23:06Z</time><extensions><speed>0.963253</speed><course>328.891602</course><hAcc>0.874566</hAcc><vAcc>0.671237</vAcc></extensions></trkpt>
      <trkpt lon="-3.155853" lat="52.989230"><ele>385.566071</ele><time>2021-09-01T12:23:07Z</time><extensions><speed>0.973457</speed><course>329.156494</course><hAcc>0.874923</hAcc><vAcc>0.672336</vAcc></extensions></trkpt>
      <trkpt lon="-3.155865" lat="52.989224"><ele>385.269318</ele><time>2021-09-01T12:23:08Z</time><extensions><speed>0.981876</speed><course>329.450256</course><hAcc>0.875273</hAcc><vAcc>0.673394</vAcc></extensions></trkpt>
      <trkpt lon="-3.155876" lat="52.989219"><ele>384.971893</ele><time>2021-09-01T12:23:09Z</time><extensions><speed>0.988334</speed><course>329.886902</course><hAcc>0.875618</hAcc><vAcc>0.674433</vAcc></extensions></trkpt>
      <trkpt lon="-3.155888" lat="52.989213"><ele>384.674591</ele><time>2021-09-01T12:23:10Z</time><extensions><speed>0.993189</speed><course>332.708923</course><hAcc>0.875964</hAcc><vAcc>0.675477</vAcc></extensions></trkpt>
      <trkpt lon="-3.155899" lat="52.989208"><ele>384.377838</ele><time>2021-09-01T12:23:11Z</time><extensions><speed>0.996973</speed><course>337.086456</course><hAcc>0.876315</hAcc><vAcc>0.676549</vAcc></extensions></trkpt>
      <trkpt lon="-3.155911" lat="52.989202"><ele>384.081757</ele><time>2021-09-01T12:23:12Z</time><extensions><speed>0.999647</speed><course>335.947693</course><hAcc>0.876672</hAcc><vAcc>0.677667</vAcc></extensions></trkpt>
      <trkpt lon="-3.155922" lat="52.989196"><ele>383.786346</ele><time>2021-09-01T12:23:13Z</time><extensions><speed>1.000834</speed><course>332.293579</course><hAcc>0.877035</hAcc><vAcc>0.678836</vAcc></extensions></trkpt>
      <trkpt lon="-3.155934" lat="52.989191"><ele>383.491394</ele><time>2021-09-01T12:23:14Z</time><extensions><speed>1.000305</speed><course>330.673279</course><hAcc>0.877400</hAcc><vAcc>0.680042</vAcc></extensions></trkpt>
      <trkpt lon="-3.155946" lat="52.989185"><ele>383.196991</ele><time>2021-09-01T12:23:15Z</time><extensions><speed>0.997917</speed><course>325.868774</course><hAcc>0.877756</hAcc><vAcc>0.681252</vAcc></extensions></trkpt>
      <trkpt lon="-3.155957" lat="52.989180"><ele>382.903351</ele><time>2021-09-01T12:23:16Z</time><extensions><speed>0.993698</speed><course>320.652771</course><hAcc>0.878093</hAcc><vAcc>0.682419</vAcc></extensions></trkpt>
      <trkpt lon="-3.155969" lat="52.989174"><ele>382.611023</ele><time>2021-09-01T12:23:17Z</time><extensions><speed>0.988197</speed><course>317.759430</course><hAcc>0.878395</hAcc><vAcc>0.683491</vAcc></extensions></trkpt>
      <trkpt lon="-3.155981" lat="52.989169"><ele>382.320740</ele><time>2021-09-01T12:23:18Z</time><extensions><speed>0.981368</speed><course>312.631989</course><hAcc>0.878649</hAcc><vAcc>0.684415</vAcc></extensions></trkpt>
      <trkpt lon="-3.155993" lat="52.989164"><ele>382.033020</ele><time>2021-09-01T12:23:19Z</time><extensions><speed>0.972786</speed><course>318.114197</course><hAcc>0.878841</hAcc><vAcc>0.685140</vAcc></extensions></trkpt>
      <trkpt lon="-3.156005" lat="52.989159"><ele>381.748352</ele><time>2021-09-01T12:23:20Z</time><extensions><speed>0.962883</speed><course>324.507172</course><hAcc>0.878960</hAcc><vAcc>0.685616</vAcc></extensions></trkpt>
      <trkpt lon="-3.156017" lat="52.989154"><ele>381.467285</ele><time>2021-09-01T12:23:21Z</time><extensions><speed>0.952520</speed><course>327.082703</course><hAcc>0.878997</hAcc><vAcc>0.685799</vAcc></extensions></trkpt>
      <trkpt lon="-3.156029" lat="52.989150"><ele>381.190552</ele><time>2021-09-01T12:23:22Z</time><extensions><speed>0.942339</speed><course>329.958954</course><hAcc>0.878950</hAcc><vAcc>0.685661</vAcc></extensions></trkpt>
      <trkpt lon="-3.156041" lat="52.989146"><ele>380.919098</ele><time>2021-09-01T12:23:23Z</time><extensions><speed>0.933190</speed><course>328.035645</course><hAcc>0.878820</hAcc><vAcc>0.685197</vAcc></extensions></trkpt>
      <trkpt lon="-3.156053" lat="52.989142"><ele>380.653503</ele><time>2021-09-01T12:23:24Z</time><extensions><speed>0.926406</speed><course>327.514526</course><hAcc>0.878617</hAcc><vAcc>0.684438</vAcc></extensions></trkpt>
      <trkpt lon="-3.156065" lat="52.989138"><ele>380.394318</ele><time>2021-09-01T12:23:25Z</time><extensions><speed>0.923150</speed><course>320.027710</course><hAcc>0.878356</hAcc><vAcc>0.683446</vAcc></extensions></trkpt>
      <trkpt lon="-3.156077" lat="52.989134"><ele>380.141846</ele><time>2021-09-01T12:23:26Z</time><extensions><speed>0.923791</speed><course>323.596710</course><hAcc>0.878057</hAcc><vAcc>0.682308</vAcc></extensions></trkpt>
      <trkpt lon="-3.156089" lat="52.989130"><ele>379.895599</ele><time>2021-09-01T12:23:27Z</time><extensions><speed>0.927996</speed><course>326.277405</course><hAcc>0.877742</hAcc><vAcc>0.681125</vAcc></extensions></trkpt>
      <trkpt lon="-3.156102" lat="52.989126"><ele>379.654633</ele><time>2021-09-01T12:23:28Z</time><extensions><speed>0.935149</speed><course>327.083344</course><hAcc>0.877434</hAcc><vAcc>0.679996</vAcc></extensions></trkpt>
      <trkpt lon="-3.156114" lat="52.989123"><ele>379.418518</ele><time>2021-09-01T12:23:29Z</time><extensions><speed>0.944398</speed><course>330.723541</course><hAcc>0.877151</hAcc><vAcc>0.679002</vAcc></extensions></trkpt>
      <trkpt lon="-3.156127" lat="52.989119"><ele>379.187653</ele><time>2021-09-01T12:23:30Z</time><extensions><speed>0.954682</speed><course>328.902985</course><hAcc>0.876909</hAcc><vAcc>0.678199</vAcc></extensions></trkpt>
      <trkpt lon="-3.156140" lat="52.989115"><ele>378.962769</ele><time>2021-09-01T12:23:31Z</time><extensions><speed>0.965221</speed><course>325.540680</course><hAcc>0.876713</hAcc><vAcc>0.677606</vAcc></extensions></trkpt>
      <trkpt lon="-3.156153" lat="52.989111"><ele>378.744171</ele><time>2021-09-01T12:23:32Z</time><extensions><speed>0.975671</speed><course>326.969879</course><hAcc>0.876563</hAcc><vAcc>0.677202</vAcc></extensions></trkpt>
      <trkpt lon="-3.156165" lat="52.989106"><ele>378.531464</ele><time>2021-09-01T12:23:33Z</time><extensions><speed>0.985538</speed><course>320.316467</course><hAcc>0.876451</hAcc><vAcc>0.676938</vAcc></extensions></trkpt>
      <trkpt lon="-3.156178" lat="52.989102"><ele>378.323761</ele><time>2021-09-01T12:23:34Z</time><extensions><speed>0.994048</speed><course>319.871765</course><hAcc>0.876370</hAcc><vAcc>0.676755</vAcc></extensions></trkpt>
      <trkpt lon="-3.156190" lat="52.989097"><ele>378.119598</ele><time>2021-09-01T12:23:35Z</time><extensions><speed>1.001144</speed><course>316.990692</course><hAcc>0.876310</hAcc><vAcc>0.676606</vAcc></extensions></trkpt>
      <trkpt lon="-3.156203" lat="52.989092"><ele>377.916992</ele><time>2021-09-01T12:23:36Z</time><extensions><speed>1.007866</speed><course>317.272278</course><hAcc>0.876267</hAcc><vAcc>0.676467</vAcc></extensions></trkpt>
      <trkpt lon="-3.156215" lat="52.989087"><ele>377.713715</ele><time>2021-09-01T12:23:37Z</time><extensions><speed>1.014999</speed><course>317.305878</course><hAcc>0.876244</hAcc><vAcc>0.676349</vAcc></extensions></trkpt>
      <trkpt lon="-3.156227" lat="52.989081"><ele>377.507690</ele><time>2021-09-01T12:23:38Z</time><extensions><speed>1.022880</speed><course>319.626617</course><hAcc>0.876245</hAcc><vAcc>0.676290</vAcc></extensions></trkpt>
      <trkpt lon="-3.156240" lat="52.989076"><ele>377.296967</ele><time>2021-09-01T12:23:39Z</time><extensions><speed>1.031621</speed><course>316.946777</course><hAcc>0.876276</hAcc><vAcc>0.676335</vAcc></extensions></trkpt>
      <trkpt lon="-3.156252" lat="52.989070"><ele>377.079926</ele><time>2021-09-01T12:23:40Z</time><extensions><speed>1.040624</speed><course>316.848175</course><hAcc>0.876345</hAcc><vAcc>0.676521</vAcc></extensions></trkpt>
      <trkpt lon="-3.156263" lat="52.989064"><ele>376.855408</ele><time>2021-09-01T12:23:41Z</time><extensions><speed>1.048989</speed><course>306.129730</course><hAcc>0.876453</hAcc><vAcc>0.676860</vAcc></extensions></trkpt>
      <trkpt lon="-3.156275" lat="52.989058"><ele>376.622528</ele><time>2021-09-01T12:23:42Z</time><extensions><speed>1.056117</speed><course>311.287872</course><hAcc>0.876597</hAcc><vAcc>0.677334</vAcc></extensions></trkpt>
      <trkpt lon="-3.156287" lat="52.989051"><ele>376.380463</ele><time>2021-09-01T12:23:43Z</time><extensions><speed>1.061327</speed><course>316.150696</course><hAcc>0.876770</hAcc><vAcc>0.677910</vAcc></extensions></trkpt>
      <trkpt lon="-3.156298" lat="52.989045"><ele>376.128448</ele><time>2021-09-01T12:23:44Z</time><extensions><speed>1.064055</speed><course>319.589172</course><hAcc>0.876967</hAcc><vAcc>0.678561</vAcc></extensions></trkpt>
      <trkpt lon="-3.156310" lat="52.989038"><ele>375.866058</ele><time>2021-09-01T12:23:45Z</time><extensions><speed>1.064567</speed><course>317.826752</course><hAcc>0.877182</hAcc><vAcc>0.679270</vAcc></extensions></trkpt>
      <trkpt lon="-3.156321" lat="52.989031"><ele>375.593262</ele><time>2021-09-01T12:23:46Z</time><extensions><speed>1.063443</speed><course>316.582428</course><hAcc>0.877410</hAcc><vAcc>0.680026</vAcc></extensions></trkpt>
      <trkpt lon="-3.156332" lat="52.989024"><ele>375.310455</ele><time>2021-09-01T12:23:47Z</time><extensions><speed>1.061471</speed><course>322.533203</course><hAcc>0.877644</hAcc><vAcc>0.680813</vAcc></extensions></trkpt>
      <trkpt lon="-3.156343" lat="52.989017"><ele>375.018097</ele><time>2021-09-01T12:23:48Z</time><extensions><speed>1.059372</speed><course>322.533203</course><hAcc>0.877880</hAcc><vAcc>0.681603</vAcc></extensions></trkpt>
      <trkpt lon="-3.156354" lat="52.989011"><ele>374.716827</ele><time>2021-09-01T12:23:49Z</time><extensions><speed>1.057435</speed><course>322.533203</course><hAcc>0.878107</hAcc><vAcc>0.682362</vAcc></extensions></trkpt>
      <trkpt lon="-3.156365" lat="52.989004"><ele>374.407410</ele><time>2021-09-01T12:23:50Z</time><extensions><speed>1.055962</speed><course>322.533203</course><hAcc>0.878321</hAcc><vAcc>0.683059</vAcc></extensions></trkpt>
      <trkpt lon="-3.156375" lat="52.988997"><ele>374.090485</ele><time>2021-09-01T12:23:51Z</time><extensions><speed>1.055343</speed><course>322.533203</course><hAcc>0.878516</hAcc><vAcc>0.683674</vAcc></extensions></trkpt>
      <trkpt lon="-3.156386" lat="52.988990"><ele>373.766632</ele><time>2021-09-01T12:23:52Z</time><extensions><speed>1.055517</speed><course>310.635162</course><hAcc>0.878692</hAcc><vAcc>0.684208</vAcc></extensions></trkpt>
      <trkpt lon="-3.156397" lat="52.988983"><ele>373.436676</ele><time>2021-09-01T12:23:53Z</time><extensions><speed>1.056356</speed><course>317.610291</course><hAcc>0.878850</hAcc><vAcc>0.684674</vAcc></extensions></trkpt>
      <trkpt lon="-3.156409" lat="52.988977"><ele>373.101440</ele><time>2021-09-01T12:23:54Z</time><extensions><speed>1.057950</speed><course>306.125671</course><hAcc>0.878992</hAcc><vAcc>0.685086</vAcc></extensions></trkpt>
      <trkpt lon="-3.156420" lat="52.988970"><ele>372.761841</ele><time>2021-09-01T12:23:55Z</time><extensions><speed>1.059337</speed><course>318.134308</course><hAcc>0.879121</hAcc><vAcc>0.685459</vAcc></extensions></trkpt>
      <trkpt lon="-3.156431" lat="52.988963"><ele>372.418823</ele><time>2021-09-01T12:23:56Z</time><extensions><speed>1.059107</speed><course>310.926819</course><hAcc>0.879241</hAcc><vAcc>0.685811</vAcc></extensions></trkpt>
      <trkpt lon="-3.156443" lat="52.988957"><ele>372.073578</ele><time>2021-09-01T12:23:57Z</time><extensions><speed>1.056750</speed><course>312.939606</course><hAcc>0.879358</hAcc><vAcc>0.686156</vAcc></extensions></trkpt>
      <trkpt lon="-3.156454" lat="52.988950"><ele>371.727386</ele><time>2021-09-01T12:23:58Z</time><extensions><speed>1.051804</speed><course>305.606995</course><hAcc>0.879475</hAcc><vAcc>0.686501</vAcc></extensions></trkpt>
      <trkpt lon="-3.156466" lat="52.988944"><ele>371.381500</ele><time>2021-09-01T12:23:59Z</time><extensions><speed>1.043784</speed><course>302.541321</course><hAcc>0.879596</hAcc><vAcc>0.686852</vAcc></extensions></trkpt>
      <trkpt lon="-3.156477" lat="52.988938"><ele>371.037170</ele><time>2021-09-01T12:24:00Z</time><extensions><speed>1.032609</speed><course>303.802917</course><hAcc>0.879724</hAcc><vAcc>0.687216</vAcc></extensions></trkpt>
      <trkpt lon="-3.156488" lat="52.988931"><ele>370.695740</ele><time>2021-09-01T12:24:01Z</time><extensions><speed>1.019117</speed><course>300.395538</course><hAcc>0.879864</hAcc><vAcc>0.687612</vAcc></extensions></trkpt>
      <trkpt lon="-3.156499" lat="52.988925"><ele>370.358459</ele><time>2021-09-01T12:24:02Z</time><extensions><speed>1.004957</speed><course>303.076660</course><hAcc>0.880020</hAcc><vAcc>0.688063</vAcc></extensions></trkpt>
      <trkpt lon="-3.156510" lat="52.988919"><ele>370.026459</ele><time>2021-09-01T12:24:03Z</time><extensions><speed>0.991448</speed><course>301.521118</course><hAcc>0.880192</hAcc><vAcc>0.688586</vAcc></extensions></trkpt>
      <trkpt lon="-3.156520" lat="52.988912"><ele>369.700500</ele><time>2021-09-01T12:24:04Z</time><extensions><speed>0.979143</speed><course>315.953857</course><hAcc>0.880382</hAcc><vAcc>0.689193</vAcc></extensions></trkpt>
      <trkpt lon="-3.156530" lat="52.988906"><ele>369.381134</ele><time>2021-09-01T12:24:05Z</time><extensions><speed>0.967841</speed><course>321.613922</course><hAcc>0.880584</hAcc><vAcc>0.689887</vAcc></extensions></trkpt>
      <trkpt lon="-3.156540" lat="52.988900"><ele>369.068726</ele><time>2021-09-01T12:24:06Z</time><extensions><speed>0.956993</speed><course>320.530426</course><hAcc>0.880793</hAcc><vAcc>0.690654</vAcc></extensions></trkpt>
      <trkpt lon="-3.156549" lat="52.988894"><ele>368.763763</ele><time>2021-09-01T12:24:07Z</time><extensions><speed>0.946137</speed><course>319.105469</course><hAcc>0.880997</hAcc><vAcc>0.691448</vAcc></extensions></trkpt>
      <trkpt lon="-3.156559" lat="52.988887"><ele>368.466797</ele><time>2021-09-01T12:24:08Z</time><extensions><speed>0.935275</speed><course>320.005280</course><hAcc>0.881181</hAcc><vAcc>0.692206</vAcc></extensions></trkpt>
      <trkpt lon="-3.156568" lat="52.988881"><ele>368.178406</ele><time>2021-09-01T12:24:09Z</time><extensions><speed>0.925201</speed><course>320.540527</course><hAcc>0.881330</hAcc><vAcc>0.692854</vAcc></extensions></trkpt>
      <trkpt lon="-3.156577" lat="52.988875"><ele>367.899200</ele><time>2021-09-01T12:24:10Z</time><extensions><speed>0.917710</speed><course>316.635681</course><hAcc>0.881430</hAcc><vAcc>0.693323</vAcc></extensions></trkpt>
      <trkpt lon="-3.156587" lat="52.988869"><ele>367.629822</ele><time>2021-09-01T12:24:11Z</time><extensions><speed>0.914694</speed><course>319.322998</course><hAcc>0.881468</hAcc><vAcc>0.693556</vAcc></extensions></trkpt>
      <trkpt lon="-3.156597" lat="52.988863"><ele>367.370453</ele><time>2021-09-01T12:24:12Z</time><extensions><speed>0.917062</speed><course>319.244141</course><hAcc>0.881440</hAcc><vAcc>0.693513</vAcc></extensions></trkpt>
      <trkpt lon="-3.156607" lat="52.988858"><ele>367.120941</ele><time>2021-09-01T12:24:13Z</time><extensions><speed>0.924815</speed><course>315.425568</course><hAcc>0.881343</hAcc><vAcc>0.693179</vAcc></extensions></trkpt>
      <trkpt lon="-3.156617" lat="52.988852"><ele>366.880920</ele><time>2021-09-01T12:24:14Z</time><extensions><speed>0.936987</speed><course>318.059448</course><hAcc>0.881182</hAcc><vAcc>0.692568</vAcc></extensions></trkpt>
      <trkpt lon="-3.156629" lat="52.988847"><ele>366.650330</ele><time>2021-09-01T12:24:15Z</time><extensions><speed>0.951529</speed><course>318.243683</course><hAcc>0.880968</hAcc><vAcc>0.691727</vAcc></extensions></trkpt>
      <trkpt lon="-3.156640" lat="52.988842"><ele>366.429321</ele><time>2021-09-01T12:24:16Z</time><extensions><speed>0.965987</speed><course>319.840027</course><hAcc>0.880720</hAcc><vAcc>0.690732</vAcc></extensions></trkpt>
      <trkpt lon="-3.156652" lat="52.988837"><ele>366.217590</ele><time>2021-09-01T12:24:17Z</time><extensions><speed>0.978452</speed><course>320.630524</course><hAcc>0.880455</hAcc><vAcc>0.689678</vAcc></extensions></trkpt>
      <trkpt lon="-3.156664" lat="52.988832"><ele>366.013947</ele><time>2021-09-01T12:24:18Z</time><extensions><speed>0.987144</speed><course>318.435181</course><hAcc>0.880197</hAcc><vAcc>0.688665</vAcc></extensions></trkpt>
      <trkpt lon="-3.156676" lat="52.988827"><ele>365.816803</ele><time>2021-09-01T12:24:19Z</time><extensions><speed>0.990638</speed><course>313.959320</course><hAcc>0.879966</hAcc><vAcc>0.687785</vAcc></extensions></trkpt>
      <trkpt lon="-3.156688" lat="52.988821"><ele>365.624634</ele><time>2021-09-01T12:24:20Z</time><extensions><speed>0.988781</speed><course>314.005951</course><hAcc>0.879778</hAcc><vAcc>0.687106</vAcc></extensions></trkpt>
      <trkpt lon="-3.156699" lat="52.988816"><ele>365.436218</ele><time>2021-09-01T12:24:21Z</time><extensions><speed>0.982149</speed><course>315.776367</course><hAcc>0.879645</hAcc><vAcc>0.686660</vAcc></extensions></trkpt>
      <trkpt lon="-3.156710" lat="52.988810"><ele>365.250397</ele><time>2021-09-01T12:24:22Z</time><extensions><speed>0.971841</speed><course>317.643280</course><hAcc>0.879571</hAcc><vAcc>0.686440</vAcc></extensions></trkpt>
      <trkpt lon="-3.156721" lat="52.988805"><ele>365.066284</ele><time>2021-09-01T12:24:23Z</time><extensions><speed>0.959333</speed><course>316.187012</course><hAcc>0.879555</hAcc><vAcc>0.686423</vAcc></extensions></trkpt>
      <trkpt lon="-3.156732" lat="52.988799"><ele>364.883148</ele><time>2021-09-01T12:24:24Z</time><extensions><speed>0.945681</speed><course>313.238525</course><hAcc>0.879595</hAcc><vAcc>0.686580</vAcc></extensions></trkpt>
      <trkpt lon="-3.156742" lat="52.988793"><ele>364.700134</ele><time>2021-09-01T12:24:25Z</time><extensions><speed>0.931693</speed><course>309.102142</course><hAcc>0.879684</hAcc><vAcc>0.686892</vAcc></extensions></trkpt>
      <trkpt lon="-3.156751" lat="52.988787"><ele>364.516022</ele><time>2021-09-01T12:24:26Z</time><extensions><speed>0.917700</speed><course>313.839325</course><hAcc>0.879819</hAcc><vAcc>0.687351</vAcc></extensions></trkpt>
      <trkpt lon="-3.156759" lat="52.988781"><ele>364.329315</ele><time>2021-09-01T12:24:27Z</time><extensions><speed>0.903558</speed><course>315.040405</course><hAcc>0.879992</hAcc><vAcc>0.687953</vAcc></extensions></trkpt>
      <trkpt lon="-3.156767" lat="52.988774"><ele>364.138336</ele><time>2021-09-01T12:24:28Z</time><extensions><speed>0.889126</speed><course>315.010925</course><hAcc>0.880194</hAcc><vAcc>0.688683</vAcc></extensions></trkpt>
      <trkpt lon="-3.156775" lat="52.988768"><ele>363.941650</ele><time>2021-09-01T12:24:29Z</time><extensions><speed>0.873789</speed><course>312.357758</course><hAcc>0.880412</hAcc><vAcc>0.689506</vAcc></extensions></trkpt>
      <trkpt lon="-3.156782" lat="52.988761"><ele>363.738373</ele><time>2021-09-01T12:24:30Z</time><extensions><speed>0.857374</speed><course>316.888885</course><hAcc>0.880630</hAcc><vAcc>0.690364</vAcc></extensions></trkpt>
      <trkpt lon="-3.156788" lat="52.988754"><ele>363.528473</ele><time>2021-09-01T12:24:31Z</time><extensions><speed>0.840181</speed><course>320.096283</course><hAcc>0.880832</hAcc><vAcc>0.691180</vAcc></extensions></trkpt>
      <trkpt lon="-3.156794" lat="52.988748"><ele>363.312439</ele><time>2021-09-01T12:24:32Z</time><extensions><speed>0.821747</speed><course>330.452972</course><hAcc>0.881000</hAcc><vAcc>0.691870</vAcc></extensions></trkpt>
      <trkpt lon="-3.156799" lat="52.988741"><ele>363.090912</ele><time>2021-09-01T12:24:33Z</time><extensions><speed>0.801780</speed><course>325.892334</course><hAcc>0.881120</hAcc><vAcc>0.692366</vAcc></extensions></trkpt>
      <trkpt lon="-3.156805" lat="52.988735"><ele>362.864563</ele><time>2021-09-01T12:24:34Z</time><extensions><speed>0.780458</speed><course>323.150330</course><hAcc>0.881182</hAcc><vAcc>0.692617</vAcc></extensions></trkpt>
      <trkpt lon="-3.156810" lat="52.988729"><ele>362.633881</ele><time>2021-09-01T12:24:35Z</time><extensions><speed>0.757846</speed><course>318.355499</course><hAcc>0.881182</hAcc><vAcc>0.692600</vAcc></extensions></trkpt>
      <trkpt lon="-3.156815" lat="52.988723"><ele>362.399384</ele><time>2021-09-01T12:24:36Z</time><extensions><speed>0.734082</speed><course>319.900726</course><hAcc>0.881121</hAcc><vAcc>0.692318</vAcc></extensions></trkpt>
      <trkpt lon="-3.156820" lat="52.988717"><ele>362.161835</ele><time>2021-09-01T12:24:37Z</time><extensions><speed>0.709174</speed><course>327.705719</course><hAcc>0.881004</hAcc><vAcc>0.691804</vAcc></extensions></trkpt>
      <trkpt lon="-3.156824" lat="52.988711"><ele>361.922455</ele><time>2021-09-01T12:24:38Z</time><extensions><speed>0.683569</speed><course>325.864380</course><hAcc>0.880843</hAcc><vAcc>0.691121</vAcc></extensions></trkpt>
      <trkpt lon="-3.156829" lat="52.988706"><ele>361.683350</ele><time>2021-09-01T12:24:39Z</time><extensions><speed>0.658258</speed><course>316.016541</course><hAcc>0.880651</hAcc><vAcc>0.690345</vAcc></extensions></trkpt>
      <trkpt lon="-3.156833" lat="52.988701"><ele>361.446686</ele><time>2021-09-01T12:24:40Z</time><extensions><speed>0.633724</speed><course>317.886536</course><hAcc>0.880444</hAcc><vAcc>0.689553</vAcc></extensions></trkpt>
      <trkpt lon="-3.156838" lat="52.988696"><ele>361.213928</ele><time>2021-09-01T12:24:41Z</time><extensions><speed>0.609968</speed><course>327.267029</course><hAcc>0.880233</hAcc><vAcc>0.688802</vAcc></extensions></trkpt>
      <trkpt lon="-3.156842" lat="52.988691"><ele>360.985992</ele><time>2021-09-01T12:24:42Z</time><extensions><speed>0.587276</speed><course>326.251373</course><hAcc>0.880027</hAcc><vAcc>0.688119</vAcc></extensions></trkpt>
      <trkpt lon="-3.156846" lat="52.988687"><ele>360.763000</ele><time>2021-09-01T12:24:43Z</time><extensions><speed>0.565596</speed><course>330.160339</course><hAcc>0.879831</hAcc><vAcc>0.687506</vAcc></extensions></trkpt>
      <trkpt lon="-3.156849" lat="52.988682"><ele>360.544678</ele><time>2021-09-01T12:24:44Z</time><extensions><speed>0.544495</speed><course>329.350830</course><hAcc>0.879647</hAcc><vAcc>0.686951</vAcc></extensions></trkpt>
      <trkpt lon="-3.156853" lat="52.988678"><ele>360.330383</ele><time>2021-09-01T12:24:45Z</time><extensions><speed>0.524148</speed><course>328.046906</course><hAcc>0.879474</hAcc><vAcc>0.686441</vAcc></extensions></trkpt>
      <trkpt lon="-3.156856" lat="52.988674"><ele>360.119568</ele><time>2021-09-01T12:24:46Z</time><extensions><speed>0.505093</speed><course>328.036682</course><hAcc>0.879313</hAcc><vAcc>0.685964</vAcc></extensions></trkpt>
      <trkpt lon="-3.156859" lat="52.988669"><ele>359.911469</ele><time>2021-09-01T12:24:47Z</time><extensions><speed>0.487846</speed><course>328.321899</course><hAcc>0.879162</hAcc><vAcc>0.685512</vAcc></extensions></trkpt>
      <trkpt lon="-3.156862" lat="52.988665"><ele>359.705566</ele><time>2021-09-01T12:24:48Z</time><extensions><speed>0.473055</speed><course>326.366882</course><hAcc>0.879021</hAcc><vAcc>0.685079</vAcc></extensions></trkpt>
      <trkpt lon="-3.156864" lat="52.988662"><ele>359.501495</ele><time>2021-09-01T12:24:49Z</time><extensions><speed>0.461432</speed><course>331.362152</course><hAcc>0.878886</hAcc><vAcc>0.684655</vAcc></extensions></trkpt>
      <trkpt lon="-3.156867" lat="52.988658"><ele>359.298889</ele><time>2021-09-01T12:24:50Z</time><extensions><speed>0.453333</speed><course>329.394318</course><hAcc>0.878758</hAcc><vAcc>0.684238</vAcc></extensions></trkpt>
      <trkpt lon="-3.156870" lat="52.988654"><ele>359.097076</ele><time>2021-09-01T12:24:51Z</time><extensions><speed>0.448753</speed><course>332.464355</course><hAcc>0.878636</hAcc><vAcc>0.683834</vAcc></extensions></trkpt>
      <trkpt lon="-3.156873" lat="52.988651"><ele>358.895264</ele><time>2021-09-01T12:24:52Z</time><extensions><speed>0.447769</speed><course>335.973755</course><hAcc>0.878521</hAcc><vAcc>0.683455</vAcc></extensions></trkpt>
      <trkpt lon="-3.156876" lat="52.988647"><ele>358.693054</ele><time>2021-09-01T12:24:53Z</time><extensions><speed>0.450409</speed><course>334.588074</course><hAcc>0.878411</hAcc><vAcc>0.683106</vAcc></extensions></trkpt>
      <trkpt lon="-3.156880" lat="52.988644"><ele>358.490356</ele><time>2021-09-01T12:24:54Z</time><extensions><speed>0.456260</speed><course>337.558624</course><hAcc>0.878303</hAcc><vAcc>0.682786</vAcc></extensions></trkpt>
      <trkpt lon="-3.156884" lat="52.988640"><ele>358.287567</ele><time>2021-09-01T12:24:55Z</time><extensions><speed>0.465071</speed><course>337.377197</course><hAcc>0.878194</hAcc><vAcc>0.682482</vAcc></extensions></trkpt>
      <trkpt lon="-3.156888" lat="52.988637"><ele>358.085419</ele><time>2021-09-01T12:24:56Z</time><extensions><speed>0.476363</speed><course>334.236908</course><hAcc>0.878077</hAcc><vAcc>0.682176</vAcc></extensions></trkpt>
      <trkpt lon="-3.156893" lat="52.988634"><ele>357.884674</ele><time>2021-09-01T12:24:57Z</time><extensions><speed>0.489348</speed><course>333.116516</course><hAcc>0.877945</hAcc><vAcc>0.681837</vAcc></extensions></trkpt>
      <trkpt lon="-3.156898" lat="52.988630"><ele>357.685791</ele><time>2021-09-01T12:24:58Z</time><extensions><speed>0.503696</speed><course>331.193451</course><hAcc>0.877790</hAcc><vAcc>0.681425</vAcc></extensions></trkpt>
      <trkpt lon="-3.156904" lat="52.988627"><ele>357.489044</ele><time>2021-09-01T12:24:59Z</time><extensions><speed>0.518623</speed><course>327.071960</course><hAcc>0.877603</hAcc><vAcc>0.680904</vAcc></extensions></trkpt>
      <trkpt lon="-3.156909" lat="52.988624"><ele>357.294617</ele><time>2021-09-01T12:25:00Z</time><extensions><speed>0.533522</speed><course>323.969269</course><hAcc>0.877381</hAcc><vAcc>0.680248</vAcc></extensions></trkpt>
      <trkpt lon="-3.156916" lat="52.988621"><ele>357.102600</ele><time>2021-09-01T12:25:01Z</time><extensions><speed>0.549017</speed><course>325.035614</course><hAcc>0.877121</hAcc><vAcc>0.679448</vAcc></extensions></trkpt>
      <trkpt lon="-3.156922" lat="52.988618"><ele>356.913086</ele><time>2021-09-01T12:25:02Z</time><extensions><speed>0.565702</speed><course>325.080109</course><hAcc>0.876825</hAcc><vAcc>0.678507</vAcc></extensions></trkpt>
      <trkpt lon="-3.156929" lat="52.988614"><ele>356.726013</ele><time>2021-09-01T12:25:03Z</time><extensions><speed>0.583481</speed><course>320.596710</course><hAcc>0.876499</hAcc><vAcc>0.677437</vAcc></extensions></trkpt>
      <trkpt lon="-3.156935" lat="52.988611"><ele>356.541382</ele><time>2021-09-01T12:25:04Z</time><extensions><speed>0.601625</speed><course>325.164429</course><hAcc>0.876153</hAcc><vAcc>0.676271</vAcc></extensions></trkpt>
      <trkpt lon="-3.156942" lat="52.988608"><ele>356.358978</ele><time>2021-09-01T12:25:05Z</time><extensions><speed>0.618856</speed><course>323.691345</course><hAcc>0.875801</hAcc><vAcc>0.675061</vAcc></extensions></trkpt>
      <trkpt lon="-3.156950" lat="52.988604"><ele>356.178619</ele><time>2021-09-01T12:25:06Z</time><extensions><speed>0.634072</speed><course>332.829010</course><hAcc>0.875463</hAcc><vAcc>0.673875</vAcc></extensions></trkpt>
      <trkpt lon="-3.156957" lat="52.988600"><ele>355.999847</ele><time>2021-09-01T12:25:07Z</time><extensions><speed>0.646556</speed><course>333.287506</course><hAcc>0.875157</hAcc><vAcc>0.672792</vAcc></extensions></trkpt>
      <trkpt lon="-3.156964" lat="52.988597"><ele>355.822144</ele><time>2021-09-01T12:25:08Z</time><extensions><speed>0.655873</speed><course>320.664337</course><hAcc>0.874905</hAcc><vAcc>0.671895</vAcc></extensions></trkpt>
      <trkpt lon="-3.156972" lat="52.988593"><ele>355.645172</ele><time>2021-09-01T12:25:09Z</time><extensions><speed>0.662141</speed><course>319.581818</course><hAcc>0.874724</hAcc><vAcc>0.671246</vAcc></extensions></trkpt>
      <trkpt lon="-3.156979" lat="52.988589"><ele>355.468719</ele><time>2021-09-01T12:25:10Z</time><extensions><speed>0.665830</speed><course>320.113190</course><hAcc>0.874624</hAcc><vAcc>0.670887</vAcc></extensions></trkpt>
      <trkpt lon="-3.156986" lat="52.988584"><ele>355.292725</ele><time>2021-09-01T12:25:11Z</time><extensions><speed>0.667511</speed><course>325.625488</course><hAcc>0.874612</hAcc><vAcc>0.670844</vAcc></extensions></trkpt>
      <trkpt lon="-3.156993" lat="52.988580"><ele>355.117249</ele><time>2021-09-01T12:25:12Z</time><extensions><speed>0.667798</speed><course>320.008789</course><hAcc>0.874690</hAcc><vAcc>0.671125</vAcc></extensions></trkpt>
      <trkpt lon="-3.156999" lat="52.988576"><ele>354.942291</ele><time>2021-09-01T12:25:13Z</time><extensions><speed>0.666985</speed><course>318.909088</course><hAcc>0.874853</hAcc><vAcc>0.671714</vAcc></extensions></trkpt>
      <trkpt lon="-3.157006" lat="52.988571"><ele>354.767731</ele><time>2021-09-01T12:25:14Z</time><extensions><speed>0.664496</speed><course>323.298828</course><hAcc>0.875088</hAcc><vAcc>0.672561</vAcc></extensions></trkpt>
      <trkpt lon="-3.157012" lat="52.988566"><ele>354.593262</ele><time>2021-09-01T12:25:15Z</time><extensions><speed>0.659668</speed><course>319.843567</course><hAcc>0.875376</hAcc><vAcc>0.673595</vAcc></extensions></trkpt>
      <trkpt lon="-3.157018" lat="52.988562"><ele>354.418488</ele><time>2021-09-01T12:25:16Z</time><extensions><speed>0.652752</speed><course>314.311829</course><hAcc>0.875698</hAcc><vAcc>0.674739</vAcc></extensions></trkpt>
      <trkpt lon="-3.157024" lat="52.988557"><ele>354.243317</ele><time>2021-09-01T12:25:17Z</time><extensions><speed>0.644212</speed><course>319.089264</course><hAcc>0.876032</hAcc><vAcc>0.675919</vAcc></extensions></trkpt>
      <trkpt lon="-3.157030" lat="52.988552"><ele>354.067688</ele><time>2021-09-01T12:25:18Z</time><extensions><speed>0.634002</speed><course>322.114319</course><hAcc>0.876358</hAcc><vAcc>0.677057</vAcc></extensions></trkpt>
      <trkpt lon="-3.157035" lat="52.988548"><ele>353.891632</ele><time>2021-09-01T12:25:19Z</time><extensions><speed>0.621949</speed><course>313.771057</course><hAcc>0.876654</hAcc><vAcc>0.678076</vAcc></extensions></trkpt>
      <trkpt lon="-3.157040" lat="52.988543"><ele>353.715027</ele><time>2021-09-01T12:25:20Z</time><extensions><speed>0.608329</speed><course>306.383820</course><hAcc>0.876905</hAcc><vAcc>0.678915</vAcc></extensions></trkpt>
      <trkpt lon="-3.157045" lat="52.988539"><ele>353.537842</ele><time>2021-09-01T12:25:21Z</time><extensions><speed>0.593768</speed><course>308.594727</course><hAcc>0.877099</hAcc><vAcc>0.679537</vAcc></extensions></trkpt>
      <trkpt lon="-3.157050" lat="52.988535"><ele>353.359955</ele><time>2021-09-01T12:25:22Z</time><extensions><speed>0.579258</speed><course>313.438293</course><hAcc>0.877231</hAcc><vAcc>0.679932</vAcc></extensions></trkpt>
      <trkpt lon="-3.157055" lat="52.988530"><ele>353.181274</ele><time>2021-09-01T12:25:23Z</time><extensions><speed>0.565733</speed><course>315.261749</course><hAcc>0.877297</hAcc><vAcc>0.680106</vAcc></extensions></trkpt>
      <trkpt lon="-3.157060" lat="52.988526"><ele>353.001465</ele><time>2021-09-01T12:25:24Z</time><extensions><speed>0.553729</speed><course>314.962799</course><hAcc>0.877301</hAcc><vAcc>0.680071</vAcc></extensions></trkpt>
      <trkpt lon="-3.157065" lat="52.988522"><ele>352.820129</ele><time>2021-09-01T12:25:25Z</time><extensions><speed>0.543159</speed><course>311.864380</course><hAcc>0.877243</hAcc><vAcc>0.679839</vAcc></extensions></trkpt>
      <trkpt lon="-3.157069" lat="52.988518"><ele>352.637024</ele><time>2021-09-01T12:25:26Z</time><extensions><speed>0.533676</speed><course>305.555115</course><hAcc>0.877128</hAcc><vAcc>0.679423</vAcc></extensions></trkpt>
      <trkpt lon="-3.157074" lat="52.988514"><ele>352.452057</ele><time>2021-09-01T12:25:27Z</time><extensions><speed>0.525012</speed><course>309.414368</course><hAcc>0.876961</hAcc><vAcc>0.678847</vAcc></extensions></trkpt>
      <trkpt lon="-3.157079" lat="52.988511"><ele>352.265411</ele><time>2021-09-01T12:25:28Z</time><extensions><speed>0.517228</speed><course>312.426361</course><hAcc>0.876750</hAcc><vAcc>0.678138</vAcc></extensions></trkpt>
      <trkpt lon="-3.157083" lat="52.988507"><ele>352.077484</ele><time>2021-09-01T12:25:29Z</time><extensions><speed>0.510708</speed><course>315.779877</course><hAcc>0.876500</hAcc><vAcc>0.677329</vAcc></extensions></trkpt>
      <trkpt lon="-3.157088" lat="52.988503"><ele>351.888458</ele><time>2021-09-01T12:25:30Z</time><extensions><speed>0.505642</speed><course>309.393494</course><hAcc>0.876216</hAcc><vAcc>0.676450</vAcc></extensions></trkpt>
      <trkpt lon="-3.157092" lat="52.988500"><ele>351.698303</ele><time>2021-09-01T12:25:31Z</time><extensions><speed>0.501428</speed><course>315.161163</course><hAcc>0.875904</hAcc><vAcc>0.675517</vAcc></extensions></trkpt>
      <trkpt lon="-3.157096" lat="52.988496"><ele>351.506744</ele><time>2021-09-01T12:25:32Z</time><extensions><speed>0.496869</speed><course>313.978088</course><hAcc>0.875562</hAcc><vAcc>0.674525</vAcc></extensions></trkpt>
      <trkpt lon="-3.157101" lat="52.988492"><ele>351.313416</ele><time>2021-09-01T12:25:33Z</time><extensions><speed>0.491186</speed><course>310.683502</course><hAcc>0.875191</hAcc><vAcc>0.673449</vAcc></extensions></trkpt>
      <trkpt lon="-3.157105" lat="52.988489"><ele>351.118073</ele><time>2021-09-01T12:25:34Z</time><extensions><speed>0.484259</speed><course>311.301880</course><hAcc>0.874788</hAcc><vAcc>0.672248</vAcc></extensions></trkpt>
      <trkpt lon="-3.157109" lat="52.988485"><ele>350.920776</ele><time>2021-09-01T12:25:35Z</time><extensions><speed>0.476516</speed><course>311.208435</course><hAcc>0.874356</hAcc><vAcc>0.670904</vAcc></extensions></trkpt>
      <trkpt lon="-3.157113" lat="52.988482"><ele>350.722198</ele><time>2021-09-01T12:25:36Z</time><extensions><speed>0.468353</speed><course>309.569458</course><hAcc>0.873909</hAcc><vAcc>0.669441</vAcc></extensions></trkpt>
      <trkpt lon="-3.157116" lat="52.988478"><ele>350.523102</ele><time>2021-09-01T12:25:37Z</time><extensions><speed>0.459938</speed><course>310.187012</course><hAcc>0.873470</hAcc><vAcc>0.667935</vAcc></extensions></trkpt>
      <trkpt lon="-3.157119" lat="52.988474"><ele>350.324036</ele><time>2021-09-01T12:25:38Z</time><extensions><speed>0.451748</speed><course>310.459808</course><hAcc>0.873072</hAcc><vAcc>0.666514</vAcc></extensions></trkpt>
      <trkpt lon="-3.157123" lat="52.988471"><ele>350.125336</ele><time>2021-09-01T12:25:39Z</time><extensions><speed>0.444405</speed><course>310.191071</course><hAcc>0.872755</hAcc><vAcc>0.665340</vAcc></extensions></trkpt>
      <trkpt lon="-3.157125" lat="52.988467"><ele>349.927551</ele><time>2021-09-01T12:25:40Z</time><extensions><speed>0.438336</speed><course>313.202332</course><hAcc>0.872560</hAcc><vAcc>0.664589</vAcc></extensions></trkpt>
      <trkpt lon="-3.157128" lat="52.988464"><ele>349.731171</ele><time>2021-09-01T12:25:41Z</time><extensions><speed>0.434013</speed><course>317.375305</course><hAcc>0.872521</hAcc><vAcc>0.664411</vAcc></extensions></trkpt>
      <trkpt lon="-3.157130" lat="52.988460"><ele>349.536560</ele><time>2021-09-01T12:25:42Z</time><extensions><speed>0.431467</speed><course>320.965942</course><hAcc>0.872659</hAcc><vAcc>0.664893</vAcc></extensions></trkpt>
      <trkpt lon="-3.157133" lat="52.988456"><ele>349.343781</ele><time>2021-09-01T12:25:43Z</time><extensions><speed>0.430356</speed><course>318.335114</course><hAcc>0.872970</hAcc><vAcc>0.666035</vAcc></extensions></trkpt>
      <trkpt lon="-3.157135" lat="52.988453"><ele>349.152679</ele><time>2021-09-01T12:25:44Z</time><extensions><speed>0.429827</speed><course>322.780487</course><hAcc>0.873430</hAcc><vAcc>0.667738</vAcc></extensions></trkpt>
      <trkpt lon="-3.157137" lat="52.988449"><ele>348.962494</ele><time>2021-09-01T12:25:45Z</time><extensions><speed>0.428810</speed><course>321.324005</course><hAcc>0.873994</hAcc><vAcc>0.669824</vAcc></extensions></trkpt>
      <trkpt lon="-3.157139" lat="52.988445"><ele>348.771698</ele><time>2021-09-01T12:25:46Z</time><extensions><speed>0.426661</speed><course>322.516296</course><hAcc>0.874606</hAcc><vAcc>0.672067</vAcc></extensions></trkpt>
      <trkpt lon="-3.157141" lat="52.988442"><ele>348.578766</ele><time>2021-09-01T12:25:47Z</time><extensions><speed>0.423500</speed><course>319.995483</course><hAcc>0.875209</hAcc><vAcc>0.674233</vAcc></extensions></trkpt>
      <trkpt lon="-3.157143" lat="52.988438"><ele>348.382233</ele><time>2021-09-01T12:25:48Z</time><extensions><speed>0.420543</speed><course>324.182892</course><hAcc>0.875751</hAcc><vAcc>0.676119</vAcc></extensions></trkpt>
      <trkpt lon="-3.157146" lat="52.988435"><ele>348.181091</ele><time>2021-09-01T12:25:49Z</time><extensions><speed>0.419741</speed><course>328.616821</course><hAcc>0.876190</hAcc><vAcc>0.677583</vAcc></extensions></trkpt>
      <trkpt lon="-3.157149" lat="52.988432"><ele>347.974701</ele><time>2021-09-01T12:25:50Z</time><extensions><speed>0.422658</speed><course>324.016815</course><hAcc>0.876502</hAcc><vAcc>0.678541</vAcc></extensions></trkpt>
      <trkpt lon="-3.157152" lat="52.988429"><ele>347.762756</ele><time>2021-09-01T12:25:51Z</time><extensions><speed>0.429889</speed><course>329.825897</course><hAcc>0.876672</hAcc><vAcc>0.678971</vAcc></extensions></trkpt>
      <trkpt lon="-3.157157" lat="52.988426"><ele>347.545441</ele><time>2021-09-01T12:25:52Z</time><extensions><speed>0.441800</speed><course>327.868408</course><hAcc>0.876701</hAcc><vAcc>0.678893</vAcc></extensions></trkpt>
      <trkpt lon="-3.157162" lat="52.988423"><ele>347.323578</ele><time>2021-09-01T12:25:53Z</time><extensions><speed>0.458353</speed><course>336.001526</course><hAcc>0.876598</hAcc><vAcc>0.678362</vAcc></extensions></trkpt>
      <trkpt lon="-3.157167" lat="52.988420"><ele>347.098389</ele><time>2021-09-01T12:25:54Z</time><extensions><speed>0.478188</speed><course>319.189575</course><hAcc>0.876383</hAcc><vAcc>0.677463</vAcc></extensions></trkpt>
      <trkpt lon="-3.157173" lat="52.988418"><ele>346.871399</ele><time>2021-09-01T12:25:55Z</time><extensions><speed>0.498663</speed><course>314.045624</course><hAcc>0.876081</hAcc><vAcc>0.676297</vAcc></extensions></trkpt>
      <trkpt lon="-3.157180" lat="52.988416"><ele>346.643982</ele><time>2021-09-01T12:25:56Z</time><extensions><speed>0.517631</speed><course>316.798950</course><hAcc>0.875716</hAcc><vAcc>0.674961</vAcc></extensions></trkpt>
      <trkpt lon="-3.157187" lat="52.988414"><ele>346.417297</ele><time>2021-09-01T12:25:57Z</time><extensions><speed>0.533918</speed><course>316.381958</course><hAcc>0.875317</hAcc><vAcc>0.673545</vAcc></extensions></trkpt>
      <trkpt lon="-3.157194" lat="52.988412"><ele>346.192566</ele><time>2021-09-01T12:25:58Z</time><extensions><speed>0.546766</speed><course>324.109985</course><hAcc>0.874908</hAcc><vAcc>0.672135</vAcc></extensions></trkpt>
      <trkpt lon="-3.157202" lat="52.988410"><ele>345.971069</ele><time>2021-09-01T12:25:59Z</time><extensions><speed>0.555829</speed><course>319.248718</course><hAcc>0.874511</hAcc><vAcc>0.670804</vAcc></extensions></trkpt>
      <trkpt lon="-3.157210" lat="52.988408"><ele>345.753662</ele><time>2021-09-01T12:26:00Z</time><extensions><speed>0.561233</speed><course>322.755310</course><hAcc>0.874144</hAcc><vAcc>0.669599</vAcc></extensions></trkpt>
      <trkpt lon="-3.157218" lat="52.988407"><ele>345.541077</ele><time>2021-09-01T12:26:01Z</time><extensions><speed>0.563996</speed><course>326.625031</course><hAcc>0.873818</hAcc><vAcc>0.668548</vAcc></extensions></trkpt>
      <trkpt lon="-3.157226" lat="52.988405"><ele>345.333954</ele><time>2021-09-01T12:26:02Z</time><extensions><speed>0.565294</speed><course>328.024994</course><hAcc>0.873542</hAcc><vAcc>0.667664</vAcc></extensions></trkpt>
      <trkpt lon="-3.157233" lat="52.988403"><ele>345.132965</ele><time>2021-09-01T12:26:03Z</time><extensions><speed>0.566004</speed><course>332.378082</course><hAcc>0.873323</hAcc><vAcc>0.666957</vAcc></extensions></trkpt>
      <trkpt lon="-3.157241" lat="52.988401"><ele>344.938538</ele><time>2021-09-01T12:26:04Z</time><extensions><speed>0.567002</speed><course>332.526154</course><hAcc>0.873168</hAcc><vAcc>0.666444</vAcc></extensions></trkpt>
      <trkpt lon="-3.157248" lat="52.988398"><ele>344.750763</ele><time>2021-09-01T12:26:05Z</time><extensions><speed>0.568315</speed><course>335.486633</course><hAcc>0.873084</hAcc><vAcc>0.666152</vAcc></extensions></trkpt>
      <trkpt lon="-3.157256" lat="52.988396"><ele>344.569366</ele><time>2021-09-01T12:26:06Z</time><extensions><speed>0.569900</speed><course>336.016846</course><hAcc>0.873077</hAcc><vAcc>0.666114</vAcc></extensions></trkpt>
      <trkpt lon="-3.157263" lat="52.988393"><ele>344.393463</ele><time>2021-09-01T12:26:07Z</time><extensions><speed>0.572111</speed><course>334.888000</course><hAcc>0.873152</hAcc><vAcc>0.666359</vAcc></extensions></trkpt>
      <trkpt lon="-3.157269" lat="52.988390"><ele>344.222107</ele><time>2021-09-01T12:26:08Z</time><extensions><speed>0.574956</speed><course>333.393311</course><hAcc>0.873309</hAcc><vAcc>0.666903</vAcc></extensions></trkpt>
      <trkpt lon="-3.157276" lat="52.988386"><ele>344.054413</ele><time>2021-09-01T12:26:09Z</time><extensions><speed>0.577805</speed><course>318.935883</course><hAcc>0.873541</hAcc><vAcc>0.667737</vAcc></extensions></trkpt>
      <trkpt lon="-3.157282" lat="52.988383"><ele>343.889618</ele><time>2021-09-01T12:26:10Z</time><extensions><speed>0.579031</speed><course>311.891724</course><hAcc>0.873836</hAcc><vAcc>0.668826</vAcc></extensions></trkpt>
      <trkpt lon="-3.157288" lat="52.988379"><ele>343.727142</ele><time>2021-09-01T12:26:11Z</time><extensions><speed>0.576920</speed><course>312.578461</course><hAcc>0.874172</hAcc><vAcc>0.670091</vAcc></extensions></trkpt>
      <trkpt lon="-3.157294" lat="52.988375"><ele>343.566620</ele><time>2021-09-01T12:26:12Z</time><extensions><speed>0.570829</speed><course>320.602325</course><hAcc>0.874521</hAcc><vAcc>0.671416</vAcc></extensions></trkpt>
      <trkpt lon="-3.157300" lat="52.988371"><ele>343.407959</ele><time>2021-09-01T12:26:13Z</time><extensions><speed>0.560929</speed><course>323.639648</course><hAcc>0.874850</hAcc><vAcc>0.672661</vAcc></extensions></trkpt>
      <trkpt lon="-3.157305" lat="52.988368"><ele>343.250977</ele><time>2021-09-01T12:26:14Z</time><extensions><speed>0.547848</speed><course>325.641083</course><hAcc>0.875132</hAcc><vAcc>0.673697</vAcc></extensions></trkpt>
      <trkpt lon="-3.157310" lat="52.988364"><ele>343.095367</ele><time>2021-09-01T12:26:15Z</time><extensions><speed>0.532679</speed><course>324.286163</course><hAcc>0.875346</hAcc><vAcc>0.674426</vAcc></extensions></trkpt>
      <trkpt lon="-3.157315" lat="52.988360"><ele>342.940491</ele><time>2021-09-01T12:26:16Z</time><extensions><speed>0.516777</speed><course>330.884674</course><hAcc>0.875484</hAcc><vAcc>0.674798</vAcc></extensions></trkpt>
      <trkpt lon="-3.157320" lat="52.988356"><ele>342.785339</ele><time>2021-09-01T12:26:17Z</time><extensions><speed>0.501573</speed><course>342.591980</course><hAcc>0.875553</hAcc><vAcc>0.674828</vAcc></extensions></trkpt>
      <trkpt lon="-3.157324" lat="52.988353"><ele>342.628784</ele><time>2021-09-01T12:26:18Z</time><extensions><speed>0.488414</speed><course>340.473694</course><hAcc>0.875571</hAcc><vAcc>0.674594</vAcc></extensions></trkpt>
      <trkpt lon="-3.157328" lat="52.988349"><ele>342.469971</ele><time>2021-09-01T12:26:19Z</time><extensions><speed>0.478489</speed><course>337.459930</course><hAcc>0.875570</hAcc><vAcc>0.674210</vAcc></extensions></trkpt>
      <trkpt lon="-3.157332" lat="52.988346"><ele>342.308411</ele><time>2021-09-01T12:26:20Z</time><extensions><speed>0.472709</speed><course>334.977905</course><hAcc>0.875584</hAcc><vAcc>0.673810</vAcc></extensions></trkpt>
      <trkpt lon="-3.157335" lat="52.988342"><ele>342.143799</ele><time>2021-09-01T12:26:21Z</time><extensions><speed>0.471287</speed><course>334.909821</course><hAcc>0.875650</hAcc><vAcc>0.673509</vAcc></extensions></trkpt>
      <trkpt lon="-3.157339" lat="52.988338"><ele>341.975769</ele><time>2021-09-01T12:26:22Z</time><extensions><speed>0.473508</speed><course>335.401093</course><hAcc>0.875793</hAcc><vAcc>0.673376</vAcc></extensions></trkpt>
      <trkpt lon="-3.157342" lat="52.988335"><ele>341.804169</ele><time>2021-09-01T12:26:23Z</time><extensions><speed>0.478445</speed><course>335.416534</course><hAcc>0.876029</hAcc><vAcc>0.673433</vAcc></extensions></trkpt>
      <trkpt lon="-3.157346" lat="52.988331"><ele>341.629242</ele><time>2021-09-01T12:26:24Z</time><extensions><speed>0.486189</speed><course>333.502777</course><hAcc>0.876360</hAcc><vAcc>0.673669</vAcc></extensions></trkpt>
      <trkpt lon="-3.157349" lat="52.988327"><ele>341.452057</ele><time>2021-09-01T12:26:25Z</time><extensions><speed>0.497401</speed><course>334.704010</course><hAcc>0.876776</hAcc><vAcc>0.674050</vAcc></extensions></trkpt>
      <trkpt lon="-3.157353" lat="52.988323"><ele>341.273529</ele><time>2021-09-01T12:26:26Z</time><extensions><speed>0.512195</speed><course>336.400421</course><hAcc>0.877252</hAcc><vAcc>0.674538</vAcc></extensions></trkpt>
      <trkpt lon="-3.157358" lat="52.988319"><ele>341.094177</ele><time>2021-09-01T12:26:27Z</time><extensions><speed>0.530370</speed><course>347.265839</course><hAcc>0.877745</hAcc><vAcc>0.675088</vAcc></extensions></trkpt>
      <trkpt lon="-3.157362" lat="52.988315"><ele>340.914246</ele><time>2021-09-01T12:26:28Z</time><extensions><speed>0.551667</speed><course>344.062927</course><hAcc>0.878197</hAcc><vAcc>0.675655</vAcc></extensions></trkpt>
      <trkpt lon="-3.157367" lat="52.988311"><ele>340.734039</ele><time>2021-09-01T12:26:29Z</time><extensions><speed>0.575365</speed><course>337.032654</course><hAcc>0.878533</hAcc><vAcc>0.676180</vAcc></extensions></trkpt>
      <trkpt lon="-3.157373" lat="52.988307"><ele>340.553894</ele><time>2021-09-01T12:26:30Z</time><extensions><speed>0.599999</speed><course>338.548584</course><hAcc>0.878694</hAcc><vAcc>0.676594</vAcc></extensions></trkpt>
      <trkpt lon="-3.157378" lat="52.988303"><ele>340.374054</ele><time>2021-09-01T12:26:31Z</time><extensions><speed>0.623960</speed><course>340.790558</course><hAcc>0.878674</hAcc><vAcc>0.676850</vAcc></extensions></trkpt>
      <trkpt lon="-3.157385" lat="52.988299"><ele>340.194397</ele><time>2021-09-01T12:26:32Z</time><extensions><speed>0.646287</speed><course>331.528198</course><hAcc>0.878519</hAcc><vAcc>0.676938</vAcc></extensions></trkpt>
      <trkpt lon="-3.157392" lat="52.988294"><ele>340.014404</ele><time>2021-09-01T12:26:33Z</time><extensions><speed>0.666426</speed><course>326.705475</course><hAcc>0.878299</hAcc><vAcc>0.676888</vAcc></extensions></trkpt>
      <trkpt lon="-3.157399" lat="52.988290"><ele>339.833588</ele><time>2021-09-01T12:26:34Z</time><extensions><speed>0.683893</speed><course>334.332062</course><hAcc>0.878075</hAcc><vAcc>0.676764</vAcc></extensions></trkpt>
      <trkpt lon="-3.157406" lat="52.988286"><ele>339.651825</ele><time>2021-09-01T12:26:35Z</time><extensions><speed>0.698192</speed><course>321.684448</course><hAcc>0.877889</hAcc><vAcc>0.676644</vAcc></extensions></trkpt>
      <trkpt lon="-3.157414" lat="52.988281"><ele>339.469055</ele><time>2021-09-01T12:26:36Z</time><extensions><speed>0.708864</speed><course>319.446838</course><hAcc>0.877761</hAcc><vAcc>0.676587</vAcc></extensions></trkpt>
      <trkpt lon="-3.157422" lat="52.988277"><ele>339.285248</ele><time>2021-09-01T12:26:37Z</time><extensions><speed>0.715206</speed><course>327.299927</course><hAcc>0.877687</hAcc><vAcc>0.676625</vAcc></extensions></trkpt>
      <trkpt lon="-3.157430" lat="52.988273"><ele>339.099976</ele><time>2021-09-01T12:26:38Z</time><extensions><speed>0.716333</speed><course>327.362518</course><hAcc>0.877649</hAcc><vAcc>0.676772</vAcc></extensions></trkpt>
      <trkpt lon="-3.157438" lat="52.988269"><ele>338.912506</ele><time>2021-09-01T12:26:39Z</time><extensions><speed>0.711391</speed><course>320.449799</course><hAcc>0.877633</hAcc><vAcc>0.677034</vAcc></extensions></trkpt>
      <trkpt lon="-3.157446" lat="52.988264"><ele>338.722046</ele><time>2021-09-01T12:26:40Z</time><extensions><speed>0.699405</speed><course>323.666901</course><hAcc>0.877637</hAcc><vAcc>0.677406</vAcc></extensions></trkpt>
      <trkpt lon="-3.157453" lat="52.988260"><ele>338.527802</ele><time>2021-09-01T12:26:41Z</time><extensions><speed>0.680854</speed><course>325.310486</course><hAcc>0.877662</hAcc><vAcc>0.677864</vAcc></extensions></trkpt>
      <trkpt lon="-3.157460" lat="52.988256"><ele>338.329315</ele><time>2021-09-01T12:26:42Z</time><extensions><speed>0.657758</speed><course>323.024933</course><hAcc>0.877702</hAcc><vAcc>0.678369</vAcc></extensions></trkpt>
      <trkpt lon="-3.157467" lat="52.988252"><ele>338.126770</ele><time>2021-09-01T12:26:43Z</time><extensions><speed>0.632363</speed><course>321.641022</course><hAcc>0.877757</hAcc><vAcc>0.678878</vAcc></extensions></trkpt>
      <trkpt lon="-3.157472" lat="52.988247"><ele>337.920685</ele><time>2021-09-01T12:26:44Z</time><extensions><speed>0.606941</speed><course>323.471222</course><hAcc>0.877835</hAcc><vAcc>0.679356</vAcc></extensions></trkpt>
      <trkpt lon="-3.157478" lat="52.988243"><ele>337.711670</ele><time>2021-09-01T12:26:45Z</time><extensions><speed>0.583435</speed><course>324.875793</course><hAcc>0.877958</hAcc><vAcc>0.679784</vAcc></extensions></trkpt>
      <trkpt lon="-3.157482" lat="52.988239"><ele>337.500427</ele><time>2021-09-01T12:26:46Z</time><extensions><speed>0.563144</speed><course>318.989594</course><hAcc>0.878145</hAcc><vAcc>0.680168</vAcc></extensions></trkpt>
      <trkpt lon="-3.157486" lat="52.988234"><ele>337.287415</ele><time>2021-09-01T12:26:47Z</time><extensions><speed>0.546925</speed><course>325.887390</course><hAcc>0.878419</hAcc><vAcc>0.680533</vAcc></extensions></trkpt>
      <trkpt lon="-3.157490" lat="52.988230"><ele>337.072845</ele><time>2021-09-01T12:26:48Z</time><extensions><speed>0.535512</speed><course>320.176544</course><hAcc>0.878800</hAcc><vAcc>0.680922</vAcc></extensions></trkpt>
      <trkpt lon="-3.157492" lat="52.988225"><ele>336.856598</ele><time>2021-09-01T12:26:49Z</time><extensions><speed>0.529220</speed><course>316.970215</course><hAcc>0.879299</hAcc><vAcc>0.681380</vAcc></extensions></trkpt>
      <trkpt lon="-3.157494" lat="52.988221"><ele>336.637756</ele><time>2021-09-01T12:26:50Z</time><extensions><speed>0.527669</speed><course>317.579376</course><hAcc>0.879919</hAcc><vAcc>0.681947</vAcc></extensions></trkpt>
      <trkpt lon="-3.157496" lat="52.988216"><ele>336.415039</ele><time>2021-09-01T12:26:51Z</time><extensions><speed>0.530024</speed><course>318.426422</course><hAcc>0.880643</hAcc><vAcc>0.682650</vAcc></extensions></trkpt>
      <trkpt lon="-3.157497" lat="52.988211"><ele>336.187134</ele><time>2021-09-01T12:26:52Z</time><extensions><speed>0.535370</speed><course>326.252594</course><hAcc>0.881429</hAcc><vAcc>0.683493</vAcc></extensions></trkpt>
      <trkpt lon="-3.157497" lat="52.988207"><ele>335.952881</ele><time>2021-09-01T12:26:53Z</time><extensions><speed>0.542656</speed><course>323.145020</course><hAcc>0.882209</hAcc><vAcc>0.684448</vAcc></extensions></trkpt>
      <trkpt lon="-3.157496" lat="52.988202"><ele>335.711456</ele><time>2021-09-01T12:26:54Z</time><extensions><speed>0.550684</speed><course>325.683777</course><hAcc>0.882907</hAcc><vAcc>0.685467</vAcc></extensions></trkpt>
      <trkpt lon="-3.157495" lat="52.988197"><ele>335.462341</ele><time>2021-09-01T12:26:55Z</time><extensions><speed>0.558385</speed><course>328.591705</course><hAcc>0.883467</hAcc><vAcc>0.686504</vAcc></extensions></trkpt>
      <trkpt lon="-3.157494" lat="52.988192"><ele>335.205292</ele><time>2021-09-01T12:26:56Z</time><extensions><speed>0.564838</speed><course>330.002411</course><hAcc>0.883871</hAcc><vAcc>0.687522</vAcc></extensions></trkpt>
      <trkpt lon="-3.157493" lat="52.988187"><ele>334.940582</ele><time>2021-09-01T12:26:57Z</time><extensions><speed>0.569433</speed><course>336.475830</course><hAcc>0.884132</hAcc><vAcc>0.688492</vAcc></extensions></trkpt>
      <trkpt lon="-3.157491" lat="52.988182"><ele>334.668823</ele><time>2021-09-01T12:26:58Z</time><extensions><speed>0.571731</speed><course>344.051849</course><hAcc>0.884274</hAcc><vAcc>0.689398</vAcc></extensions></trkpt>
      <trkpt lon="-3.157489" lat="52.988177"><ele>334.391205</ele><time>2021-09-01T12:26:59Z</time><extensions><speed>0.571620</speed><course>336.407532</course><hAcc>0.884314</hAcc><vAcc>0.690237</vAcc></extensions></trkpt>
      <trkpt lon="-3.157487" lat="52.988172"><ele>334.109222</ele><time>2021-09-01T12:27:00Z</time><extensions><speed>0.569573</speed><course>333.640045</course><hAcc>0.884252</hAcc><vAcc>0.691020</vAcc></extensions></trkpt>
      <trkpt lon="-3.157484" lat="52.988167"><ele>333.824860</ele><time>2021-09-01T12:27:01Z</time><extensions><speed>0.566032</speed><course>342.498993</course><hAcc>0.884089</hAcc><vAcc>0.691760</vAcc></extensions></trkpt>
      <trkpt lon="-3.157482" lat="52.988162"><ele>333.540192</ele><time>2021-09-01T12:27:02Z</time><extensions><speed>0.560962</speed><course>346.370605</course><hAcc>0.883846</hAcc><vAcc>0.692463</vAcc></extensions></trkpt>
      <trkpt lon="-3.157481" lat="52.988157"><ele>333.257019</ele><time>2021-09-01T12:27:03Z</time><extensions><speed>0.554027</speed><course>342.144836</course><hAcc>0.883560</hAcc><vAcc>0.693120</vAcc></extensions></trkpt>
      <trkpt lon="-3.157479" lat="52.988152"><ele>332.976776</ele><time>2021-09-01T12:27:04Z</time><extensions><speed>0.545657</speed><course>335.813446</course><hAcc>0.883277</hAcc><vAcc>0.693718</vAcc></extensions></trkpt>
      <trkpt lon="-3.157478" lat="52.988147"><ele>332.700653</ele><time>2021-09-01T12:27:05Z</time><extensions><speed>0.537233</speed><course>332.699371</course><hAcc>0.883025</hAcc><vAcc>0.694235</vAcc></extensions></trkpt>
      <trkpt lon="-3.157477" lat="52.988143"><ele>332.429504</ele><time>2021-09-01T12:27:06Z</time><extensions><speed>0.530285</speed><course>329.959167</course><hAcc>0.882817</hAcc><vAcc>0.694657</vAcc></extensions></trkpt>
      <trkpt lon="-3.157477" lat="52.988138"><ele>332.164062</ele><time>2021-09-01T12:27:07Z</time><extensions><speed>0.525456</speed><course>328.573547</course><hAcc>0.882655</hAcc><vAcc>0.694974</vAcc></extensions></trkpt>
      <trkpt lon="-3.157477" lat="52.988133"><ele>331.904755</ele><time>2021-09-01T12:27:08Z</time><extensions><speed>0.522247</speed><course>326.699219</course><hAcc>0.882533</hAcc><vAcc>0.695189</vAcc></extensions></trkpt>
      <trkpt lon="-3.157477" lat="52.988129"><ele>331.651489</ele><time>2021-09-01T12:27:09Z</time><extensions><speed>0.520040</speed><course>323.768890</course><hAcc>0.882440</hAcc><vAcc>0.695313</vAcc></extensions></trkpt>
      <trkpt lon="-3.157479" lat="52.988124"><ele>331.404053</ele><time>2021-09-01T12:27:10Z</time><extensions><speed>0.518369</speed><course>323.826019</course><hAcc>0.882361</hAcc><vAcc>0.695363</vAcc></extensions></trkpt>
      <trkpt lon="-3.157480" lat="52.988119"><ele>331.162109</ele><time>2021-09-01T12:27:11Z</time><extensions><speed>0.516506</speed><course>332.271057</course><hAcc>0.882284</hAcc><vAcc>0.695346</vAcc></extensions></trkpt>
      <trkpt lon="-3.157483" lat="52.988115"><ele>330.925140</ele><time>2021-09-01T12:27:12Z</time><extensions><speed>0.512798</speed><course>333.951233</course><hAcc>0.882194</hAcc><vAcc>0.695246</vAcc></extensions></trkpt>
      <trkpt lon="-3.157485" lat="52.988111"><ele>330.692780</ele><time>2021-09-01T12:27:13Z</time><extensions><speed>0.505660</speed><course>329.776917</course><hAcc>0.882075</hAcc><vAcc>0.695028</vAcc></extensions></trkpt>
      <trkpt lon="-3.157488" lat="52.988107"><ele>330.464722</ele><time>2021-09-01T12:27:14Z</time><extensions><speed>0.494690</speed><course>319.463959</course><hAcc>0.881916</hAcc><vAcc>0.694647</vAcc></extensions></trkpt>
      <trkpt lon="-3.157491" lat="52.988103"><ele>330.240540</ele><time>2021-09-01T12:27:15Z</time><extensions><speed>0.480268</speed><course>318.313507</course><hAcc>0.881705</hAcc><vAcc>0.694066</vAcc></extensions></trkpt>
      <trkpt lon="-3.157495" lat="52.988099"><ele>330.020111</ele><time>2021-09-01T12:27:16Z</time><extensions><speed>0.463539</speed><course>318.491211</course><hAcc>0.881435</hAcc><vAcc>0.693267</vAcc></extensions></trkpt>
      <trkpt lon="-3.157498" lat="52.988095"><ele>329.803711</ele><time>2021-09-01T12:27:17Z</time><extensions><speed>0.445562</speed><course>324.025574</course><hAcc>0.881101</hAcc><vAcc>0.692245</vAcc></extensions></trkpt>
      <trkpt lon="-3.157502" lat="52.988092"><ele>329.591675</ele><time>2021-09-01T12:27:18Z</time><extensions><speed>0.427556</speed><course>330.489594</course><hAcc>0.880705</hAcc><vAcc>0.690997</vAcc></extensions></trkpt>
      <trkpt lon="-3.157505" lat="52.988089"><ele>329.384247</ele><time>2021-09-01T12:27:19Z</time><extensions><speed>0.411083</speed><course>319.490967</course><hAcc>0.880247</hAcc><vAcc>0.689530</vAcc></extensions></trkpt>
      <trkpt lon="-3.157509" lat="52.988086"><ele>329.181702</ele><time>2021-09-01T12:27:20Z</time><extensions><speed>0.396983</speed><course>318.785126</course><hAcc>0.879734</hAcc><vAcc>0.687861</vAcc></extensions></trkpt>
      <trkpt lon="-3.157513" lat="52.988084"><ele>328.984222</ele><time>2021-09-01T12:27:21Z</time><extensions><speed>0.385681</speed><course>319.524078</course><hAcc>0.879175</hAcc><vAcc>0.686023</vAcc></extensions></trkpt>
      <trkpt lon="-3.157517" lat="52.988081"><ele>328.791748</ele><time>2021-09-01T12:27:22Z</time><extensions><speed>0.377322</speed><course>320.200592</course><hAcc>0.878583</hAcc><vAcc>0.684061</vAcc></extensions></trkpt>
      <trkpt lon="-3.157520" lat="52.988078"><ele>328.604340</ele><time>2021-09-01T12:27:23Z</time><extensions><speed>0.371313</speed><course>316.905914</course><hAcc>0.877972</hAcc><vAcc>0.682025</vAcc></extensions></trkpt>
      <trkpt lon="-3.157524" lat="52.988076"><ele>328.421997</ele><time>2021-09-01T12:27:24Z</time><extensions><speed>0.366407</speed><course>304.890350</course><hAcc>0.877357</hAcc><vAcc>0.679978</vAcc></extensions></trkpt>
      <trkpt lon="-3.157527" lat="52.988074"><ele>328.244415</ele><time>2021-09-01T12:27:25Z</time><extensions><speed>0.361485</speed><course>307.400696</course><hAcc>0.876754</hAcc><vAcc>0.677984</vAcc></extensions></trkpt>
      <trkpt lon="-3.157531" lat="52.988071"><ele>328.070770</ele><time>2021-09-01T12:27:26Z</time><extensions><speed>0.356554</speed><course>312.802460</course><hAcc>0.876175</hAcc><vAcc>0.676095</vAcc></extensions></trkpt>
      <trkpt lon="-3.157534" lat="52.988068"><ele>327.900146</ele><time>2021-09-01T12:27:27Z</time><extensions><speed>0.352384</speed><course>316.368164</course><hAcc>0.875625</hAcc><vAcc>0.674333</vAcc></extensions></trkpt>
      <trkpt lon="-3.157537" lat="52.988066"><ele>327.731415</ele><time>2021-09-01T12:27:28Z</time><extensions><speed>0.349460</speed><course>316.320160</course><hAcc>0.875110</hAcc><vAcc>0.672706</vAcc></extensions></trkpt>
      <trkpt lon="-3.157539" lat="52.988063"><ele>327.563507</ele><time>2021-09-01T12:27:29Z</time><extensions><speed>0.348105</speed><course>316.450867</course><hAcc>0.874629</hAcc><vAcc>0.671209</vAcc></extensions></trkpt>
      <trkpt lon="-3.157541" lat="52.988060"><ele>327.395691</ele><time>2021-09-01T12:27:30Z</time><extensions><speed>0.348844</speed><course>319.349792</course><hAcc>0.874179</hAcc><vAcc>0.669817</vAcc></extensions></trkpt>
      <trkpt lon="-3.157543" lat="52.988057"><ele>327.227386</ele><time>2021-09-01T12:27:31Z</time><extensions><speed>0.352059</speed><course>313.071381</course><hAcc>0.873756</hAcc><vAcc>0.668494</vAcc></extensions></trkpt>
      <trkpt lon="-3.157545" lat="52.988054"><ele>327.058105</ele><time>2021-09-01T12:27:32Z</time><extensions><speed>0.357374</speed><course>306.006348</course><hAcc>0.873356</hAcc><vAcc>0.667209</vAcc></extensions></trkpt>
      <trkpt lon="-3.157547" lat="52.988051"><ele>326.887421</ele><time>2021-09-01T12:27:33Z</time><extensions><speed>0.364051</speed><course>311.452911</course><hAcc>0.872979</hAcc><vAcc>0.665948</vAcc></extensions></trkpt>
      <trkpt lon="-3.157548" lat="52.988048"><ele>326.715088</ele><time>2021-09-01T12:27:34Z</time><extensions><speed>0.371871</speed><course>310.591675</course><hAcc>0.872629</hAcc><vAcc>0.664719</vAcc></extensions></trkpt>
      <trkpt lon="-3.157549" lat="52.988045"><ele>326.541016</ele><time>2021-09-01T12:27:35Z</time><extensions><speed>0.381085</speed><course>316.620819</course><hAcc>0.872316</hAcc><vAcc>0.663551</vAcc></extensions></trkpt>
      <trkpt lon="-3.157551" lat="52.988041"><ele>326.365570</ele><time>2021-09-01T12:27:36Z</time><extensions><speed>0.392078</speed><course>320.076630</course><hAcc>0.872052</hAcc><vAcc>0.662496</vAcc></extensions></trkpt>
      <trkpt lon="-3.157553" lat="52.988038"><ele>326.189209</ele><time>2021-09-01T12:27:37Z</time><extensions><speed>0.404724</speed><course>314.990906</course><hAcc>0.871847</hAcc><vAcc>0.661607</vAcc></extensions></trkpt>
      <trkpt lon="-3.157554" lat="52.988034"><ele>326.011993</ele><time>2021-09-01T12:27:38Z</time><extensions><speed>0.417970</speed><course>313.547699</course><hAcc>0.871713</hAcc><vAcc>0.660940</vAcc></extensions></trkpt>
      <trkpt lon="-3.157556" lat="52.988031"><ele>325.833832</ele><time>2021-09-01T12:27:39Z</time><extensions><speed>0.430387</speed><course>312.795837</course><hAcc>0.871658</hAcc><vAcc>0.660568</vAcc></extensions></trkpt>
      <trkpt lon="-3.157558" lat="52.988027"><ele>325.654694</ele><time>2021-09-01T12:27:40Z</time><extensions><speed>0.440636</speed><course>316.185669</course><hAcc>0.871693</hAcc><vAcc>0.660574</vAcc></extensions></trkpt>
      <trkpt lon="-3.157561" lat="52.988023"><ele>325.474487</ele><time>2021-09-01T12:27:41Z</time><extensions><speed>0.447560</speed><course>317.614319</course><hAcc>0.871826</hAcc><vAcc>0.661021</vAcc></extensions></trkpt>
      <trkpt lon="-3.157563" lat="52.988019"><ele>325.293274</ele><time>2021-09-01T12:27:42Z</time><extensions><speed>0.450868</speed><course>316.517609</course><hAcc>0.872069</hAcc><vAcc>0.661932</vAcc></extensions></trkpt>
      <trkpt lon="-3.157565" lat="52.988016"><ele>325.111359</ele><time>2021-09-01T12:27:43Z</time><extensions><speed>0.450691</speed><course>310.556824</course><hAcc>0.872430</hAcc><vAcc>0.663298</vAcc></extensions></trkpt>
      <trkpt lon="-3.157566" lat="52.988012"><ele>324.929047</ele><time>2021-09-01T12:27:44Z</time><extensions><speed>0.446682</speed><course>304.635742</course><hAcc>0.872906</hAcc><vAcc>0.665070</vAcc></extensions></trkpt>
      <trkpt lon="-3.157568" lat="52.988008"><ele>324.746765</ele><time>2021-09-01T12:27:45Z</time><extensions><speed>0.439029</speed><course>315.495270</course><hAcc>0.873480</hAcc><vAcc>0.667169</vAcc></extensions></trkpt>
      <trkpt lon="-3.157569" lat="52.988004"><ele>324.564972</ele><time>2021-09-01T12:27:46Z</time><extensions><speed>0.428348</speed><course>313.552460</course><hAcc>0.874134</hAcc><vAcc>0.669506</vAcc></extensions></trkpt>
      <trkpt lon="-3.157569" lat="52.988000"><ele>324.384369</ele><time>2021-09-01T12:27:47Z</time><extensions><speed>0.414756</speed><course>313.420563</course><hAcc>0.874844</hAcc><vAcc>0.671996</vAcc></extensions></trkpt>
      <trkpt lon="-3.157570" lat="52.987996"><ele>324.205933</ele><time>2021-09-01T12:27:48Z</time><extensions><speed>0.398145</speed><course>317.431976</course><hAcc>0.875587</hAcc><vAcc>0.674541</vAcc></extensions></trkpt>
      <trkpt lon="-3.157570" lat="52.987993"><ele>324.031036</ele><time>2021-09-01T12:27:49Z</time><extensions><speed>0.379119</speed><course>314.662933</course><hAcc>0.876337</hAcc><vAcc>0.677038</vAcc></extensions></trkpt>
      <trkpt lon="-3.157569" lat="52.987990"><ele>323.861298</ele><time>2021-09-01T12:27:50Z</time><extensions><speed>0.358504</speed><course>316.217957</course><hAcc>0.877074</hAcc><vAcc>0.679398</vAcc></extensions></trkpt>
      <trkpt lon="-3.157568" lat="52.987987"><ele>323.698181</ele><time>2021-09-01T12:27:51Z</time><extensions><speed>0.336364</speed><course>314.471741</course><hAcc>0.877790</hAcc><vAcc>0.681564</vAcc></extensions></trkpt>
      <trkpt lon="-3.157567" lat="52.987984"><ele>323.543152</ele><time>2021-09-01T12:27:52Z</time><extensions><speed>0.312441</speed><course>317.281403</course><hAcc>0.878486</hAcc><vAcc>0.683526</vAcc></extensions></trkpt>
      <trkpt lon="-3.157566" lat="52.987981"><ele>323.397461</ele><time>2021-09-01T12:27:53Z</time><extensions><speed>0.287015</speed><course>311.230988</course><hAcc>0.879175</hAcc><vAcc>0.685303</vAcc></extensions></trkpt>
      <trkpt lon="-3.157565" lat="52.987979"><ele>323.262054</ele><time>2021-09-01T12:27:54Z</time><extensions><speed>0.260991</speed><course>311.227600</course><hAcc>0.879884</hAcc><vAcc>0.686926</vAcc></extensions></trkpt>
      <trkpt lon="-3.157564" lat="52.987977"><ele>323.137299</ele><time>2021-09-01T12:27:55Z</time><extensions><speed>0.235510</speed><course>310.576416</course><hAcc>0.880645</hAcc><vAcc>0.688411</vAcc></extensions></trkpt>
      <trkpt lon="-3.157564" lat="52.987975"><ele>323.023102</ele><time>2021-09-01T12:27:56Z</time><extensions><speed>0.211778</speed><course>313.656311</course><hAcc>0.881500</hAcc><vAcc>0.689749</vAcc></extensions></trkpt>
      <trkpt lon="-3.157563" lat="52.987973"><ele>322.918915</ele><time>2021-09-01T12:27:57Z</time><extensions><speed>0.190532</speed><course>319.881683</course><hAcc>0.882492</hAcc><vAcc>0.690922</vAcc></extensions></trkpt>
      <trkpt lon="-3.157563" lat="52.987971"><ele>322.823853</ele><time>2021-09-01T12:27:58Z</time><extensions><speed>0.171780</speed><course>322.545044</course><hAcc>0.883665</hAcc><vAcc>0.691909</vAcc></extensions></trkpt>
      <trkpt lon="-3.157562" lat="52.987970"><ele>322.736725</ele><time>2021-09-01T12:27:59Z</time><extensions><speed>0.155258</speed><course>315.377472</course><hAcc>0.885060</hAcc><vAcc>0.692703</vAcc></extensions></trkpt>
      <trkpt lon="-3.157562" lat="52.987968"><ele>322.656342</ele><time>2021-09-01T12:28:00Z</time><extensions><speed>0.140562</speed><course>321.220673</course><hAcc>0.886695</hAcc><vAcc>0.693307</vAcc></extensions></trkpt>
      <trkpt lon="-3.157562" lat="52.987967"><ele>322.581482</ele><time>2021-09-01T12:28:01Z</time><extensions><speed>0.127341</speed><course>319.716766</course><hAcc>0.888562</hAcc><vAcc>0.693731</vAcc></extensions></trkpt>
      <trkpt lon="-3.157562" lat="52.987966"><ele>322.511261</ele><time>2021-09-01T12:28:02Z</time><extensions><speed>0.115317</speed><course>323.703217</course><hAcc>0.890604</hAcc><vAcc>0.693988</vAcc></extensions></trkpt>
      <trkpt lon="-3.157562" lat="52.987965"><ele>322.445068</ele><time>2021-09-01T12:28:03Z</time><extensions><speed>0.104190</speed><course>322.763458</course><hAcc>0.892727</hAcc><vAcc>0.694093</vAcc></extensions></trkpt>
      <trkpt lon="-3.157562" lat="52.987964"><ele>322.382446</ele><time>2021-09-01T12:28:04Z</time><extensions><speed>0.093556</speed><course>321.396271</course><hAcc>0.894828</hAcc><vAcc>0.694052</vAcc></extensions></trkpt>
      <trkpt lon="-3.157562" lat="52.987964"><ele>322.323059</ele><time>2021-09-01T12:28:05Z</time><extensions><speed>0.083137</speed><course>324.253845</course><hAcc>0.896839</hAcc><vAcc>0.693870</vAcc></extensions></trkpt>
      <trkpt lon="-3.157561" lat="52.987963"><ele>322.266754</ele><time>2021-09-01T12:28:06Z</time><extensions><speed>0.072523</speed><course>322.941711</course><hAcc>0.898722</hAcc><vAcc>0.693552</vAcc></extensions></trkpt>
      <trkpt lon="-3.157561" lat="52.987962"><ele>322.213501</ele><time>2021-09-01T12:28:07Z</time><extensions><speed>0.061421</speed><course>324.827728</course><hAcc>0.900454</hAcc><vAcc>0.693102</vAcc></extensions></trkpt>
      <trkpt lon="-3.157561" lat="52.987962"><ele>322.163300</ele><time>2021-09-01T12:28:08Z</time><extensions><speed>0.050465</speed><course>323.315277</course><hAcc>0.902024</hAcc><vAcc>0.692520</vAcc></extensions></trkpt>
      <trkpt lon="-3.157561" lat="52.987961"><ele>322.116241</ele><time>2021-09-01T12:28:09Z</time><extensions><speed>0.040705</speed><course>316.049652</course><hAcc>0.903418</hAcc><vAcc>0.691805</vAcc></extensions></trkpt>
      <trkpt lon="-3.157561" lat="52.987961"><ele>322.072388</ele><time>2021-09-01T12:28:10Z</time><extensions><speed>0.032872</speed><course>321.640442</course><hAcc>0.904610</hAcc><vAcc>0.690951</vAcc></extensions></trkpt>
      <trkpt lon="-3.157561" lat="52.987961"><ele>322.031708</ele><time>2021-09-01T12:28:11Z</time><extensions><speed>0.027340</speed><course>318.527374</course><hAcc>0.905548</hAcc><vAcc>0.689942</vAcc></extensions></trkpt>
      <trkpt lon="-3.157561" lat="52.987961"><ele>321.993958</ele><time>2021-09-01T12:28:12Z</time><extensions><speed>0.024396</speed><course>327.209106</course><hAcc>0.906157</hAcc><vAcc>0.688750</vAcc></extensions></trkpt>
      <trkpt lon="-3.157561" lat="52.987960"><ele>321.958923</ele><time>2021-09-01T12:28:13Z</time><extensions><speed>0.024376</speed><course>321.431091</course><hAcc>0.906363</hAcc><vAcc>0.687336</vAcc></extensions></trkpt>
      <trkpt lon="-3.157561" lat="52.987960"><ele>321.926056</ele><time>2021-09-01T12:28:14Z</time><extensions><speed>0.027530</speed><course>309.255585</course><hAcc>0.906118</hAcc><vAcc>0.685671</vAcc></extensions></trkpt>
      <trkpt lon="-3.157561" lat="52.987960"><ele>321.894653</ele><time>2021-09-01T12:28:15Z</time><extensions><speed>0.033554</speed><course>316.262177</course><hAcc>0.905400</hAcc><vAcc>0.683745</vAcc></extensions></trkpt>
      <trkpt lon="-3.157561" lat="52.987960"><ele>321.863708</ele><time>2021-09-01T12:28:16Z</time><extensions><speed>0.041507</speed><course>318.486328</course><hAcc>0.904218</hAcc><vAcc>0.681578</vAcc></extensions></trkpt>
      <trkpt lon="-3.157562" lat="52.987959"><ele>321.832123</ele><time>2021-09-01T12:28:17Z</time><extensions><speed>0.050635</speed><course>323.918549</course><hAcc>0.902627</hAcc><vAcc>0.679225</vAcc></extensions></trkpt>
      <trkpt lon="-3.157562" lat="52.987959"><ele>321.798737</ele><time>2021-09-01T12:28:18Z</time><extensions><speed>0.060909</speed><course>326.771637</course><hAcc>0.900727</hAcc><vAcc>0.676768</vAcc></extensions></trkpt>
      <trkpt lon="-3.157562" lat="52.987958"><ele>321.762482</ele><time>2021-09-01T12:28:19Z</time><extensions><speed>0.072728</speed><course>322.066162</course><hAcc>0.898637</hAcc><vAcc>0.674293</vAcc></extensions></trkpt>
      <trkpt lon="-3.157563" lat="52.987957"><ele>321.722687</ele><time>2021-09-01T12:28:20Z</time><extensions><speed>0.086587</speed><course>315.897980</course><hAcc>0.896501</hAcc><vAcc>0.671863</vAcc></extensions></trkpt>
      <trkpt lon="-3.157563" lat="52.987957"><ele>321.678711</ele><time>2021-09-01T12:28:21Z</time><extensions><speed>0.103321</speed><course>320.677979</course><hAcc>0.894489</hAcc><vAcc>0.669500</vAcc></extensions></trkpt>
      <trkpt lon="-3.157563" lat="52.987956"><ele>321.630219</ele><time>2021-09-01T12:28:22Z</time><extensions><speed>0.123828</speed><course>328.194458</course><hAcc>0.892768</hAcc><vAcc>0.667208</vAcc></extensions></trkpt>
      <trkpt lon="-3.157563" lat="52.987954"><ele>321.576965</ele><time>2021-09-01T12:28:23Z</time><extensions><speed>0.148578</speed><course>342.191681</course><hAcc>0.891459</hAcc><vAcc>0.664994</vAcc></extensions></trkpt>
      <trkpt lon="-3.157562" lat="52.987953"><ele>321.518677</ele><time>2021-09-01T12:28:24Z</time><extensions><speed>0.177682</speed><course>338.973602</course><hAcc>0.890627</hAcc><vAcc>0.662891</vAcc></extensions></trkpt>
      <trkpt lon="-3.157562" lat="52.987951"><ele>321.454956</ele><time>2021-09-01T12:28:25Z</time><extensions><speed>0.211012</speed><course>338.845032</course><hAcc>0.890265</hAcc><vAcc>0.660955</vAcc></extensions></trkpt>
      <trkpt lon="-3.157562" lat="52.987949"><ele>321.385010</ele><time>2021-09-01T12:28:26Z</time><extensions><speed>0.248286</speed><course>343.294373</course><hAcc>0.890257</hAcc><vAcc>0.659234</vAcc></extensions></trkpt>
      <trkpt lon="-3.157561" lat="52.987947"><ele>321.307678</ele><time>2021-09-01T12:28:27Z</time><extensions><speed>0.288791</speed><course>345.380096</course><hAcc>0.890368</hAcc><vAcc>0.657743</vAcc></extensions></trkpt>
      <trkpt lon="-3.157560" lat="52.987944"><ele>321.221741</ele><time>2021-09-01T12:28:28Z</time><extensions><speed>0.331539</speed><course>336.417389</course><hAcc>0.890335</hAcc><vAcc>0.656460</vAcc></extensions></trkpt>
      <trkpt lon="-3.157559" lat="52.987941"><ele>321.126160</ele><time>2021-09-01T12:28:29Z</time><extensions><speed>0.375420</speed><course>349.627289</course><hAcc>0.889987</hAcc><vAcc>0.655351</vAcc></extensions></trkpt>
      <trkpt lon="-3.157557" lat="52.987937"><ele>321.020020</ele><time>2021-09-01T12:28:30Z</time><extensions><speed>0.418917</speed><course>333.102356</course><hAcc>0.889292</hAcc><vAcc>0.654392</vAcc></extensions></trkpt>
      <trkpt lon="-3.157556" lat="52.987934"><ele>320.902344</ele><time>2021-09-01T12:28:31Z</time><extensions><speed>0.460672</speed><course>345.486877</course><hAcc>0.888294</hAcc><vAcc>0.653573</vAcc></extensions></trkpt>
      <trkpt lon="-3.157553" lat="52.987929"><ele>320.772430</ele><time>2021-09-01T12:28:32Z</time><extensions><speed>0.499309</speed><course>343.184906</course><hAcc>0.887073</hAcc><vAcc>0.652900</vAcc></extensions></trkpt>
      <trkpt lon="-3.157551" lat="52.987925"><ele>320.629883</ele><time>2021-09-01T12:28:33Z</time><extensions><speed>0.532258</speed><course>342.239624</course><hAcc>0.885779</hAcc><vAcc>0.652373</vAcc></extensions></trkpt>
      <trkpt lon="-3.157548" lat="52.987920"><ele>320.474823</ele><time>2021-09-01T12:28:34Z</time><extensions><speed>0.557242</speed><course>352.331055</course><hAcc>0.884655</hAcc><vAcc>0.651991</vAcc></extensions></trkpt>
      <trkpt lon="-3.157546" lat="52.987916"><ele>320.308167</ele><time>2021-09-01T12:28:35Z</time><extensions><speed>0.573788</speed><course>352.560638</course><hAcc>0.884001</hAcc><vAcc>0.651759</vAcc></extensions></trkpt>
      <trkpt lon="-3.157543" lat="52.987911"><ele>320.131531</ele><time>2021-09-01T12:28:36Z</time><extensions><speed>0.582261</speed><course>349.901215</course><hAcc>0.884078</hAcc><vAcc>0.651690</vAcc></extensions></trkpt>
      <trkpt lon="-3.157540" lat="52.987906"><ele>319.946777</ele><time>2021-09-01T12:28:37Z</time><extensions><speed>0.583444</speed><course>347.225525</course><hAcc>0.885053</hAcc><vAcc>0.651814</vAcc></extensions></trkpt>
      <trkpt lon="-3.157537" lat="52.987901"><ele>319.756195</ele><time>2021-09-01T12:28:38Z</time><extensions><speed>0.578298</speed><course>342.525452</course><hAcc>0.886984</hAcc><vAcc>0.652161</vAcc></extensions></trkpt>
      <trkpt lon="-3.157535" lat="52.987896"><ele>319.561920</ele><time>2021-09-01T12:28:39Z</time><extensions><speed>0.567998</speed><course>344.186432</course><hAcc>0.889809</hAcc><vAcc>0.652740</vAcc></extensions></trkpt>
      <trkpt lon="-3.157532" lat="52.987891"><ele>319.365448</ele><time>2021-09-01T12:28:40Z</time><extensions><speed>0.554187</speed><course>344.723938</course><hAcc>0.893355</hAcc><vAcc>0.653546</vAcc></extensions></trkpt>
      <trkpt lon="-3.157530" lat="52.987886"><ele>319.167908</ele><time>2021-09-01T12:28:41Z</time><extensions><speed>0.538306</speed><course>335.783966</course><hAcc>0.897361</hAcc><vAcc>0.654571</vAcc></extensions></trkpt>
      <trkpt lon="-3.157528" lat="52.987882"><ele>318.970490</ele><time>2021-09-01T12:28:42Z</time><extensions><speed>0.521121</speed><course>346.047455</course><hAcc>0.901513</hAcc><vAcc>0.655813</vAcc></extensions></trkpt>
      <trkpt lon="-3.157527" lat="52.987877"><ele>318.774719</ele><time>2021-09-01T12:28:43Z</time><extensions><speed>0.502828</speed><course>348.227631</course><hAcc>0.905494</hAcc><vAcc>0.657273</vAcc></extensions></trkpt>
      <trkpt lon="-3.157526" lat="52.987873"><ele>318.582245</ele><time>2021-09-01T12:28:44Z</time><extensions><speed>0.483534</speed><course>346.562134</course><hAcc>0.909035</hAcc><vAcc>0.658936</vAcc></extensions></trkpt>
      <trkpt lon="-3.157524" lat="52.987869"><ele>318.394653</ele><time>2021-09-01T12:28:45Z</time><extensions><speed>0.464002</speed><course>340.164734</course><hAcc>0.911967</hAcc><vAcc>0.660766</vAcc></extensions></trkpt>
      <trkpt lon="-3.157524" lat="52.987865"><ele>318.213135</ele><time>2021-09-01T12:28:46Z</time><extensions><speed>0.445137</speed><course>340.903290</course><hAcc>0.914223</hAcc><vAcc>0.662706</vAcc></extensions></trkpt>
      <trkpt lon="-3.157523" lat="52.987861"><ele>318.038452</ele><time>2021-09-01T12:28:47Z</time><extensions><speed>0.427896</speed><course>337.951172</course><hAcc>0.915790</hAcc><vAcc>0.664673</vAcc></extensions></trkpt>
      <trkpt lon="-3.157522" lat="52.987857"><ele>317.870911</ele><time>2021-09-01T12:28:48Z</time><extensions><speed>0.413148</speed><course>343.976532</course><hAcc>0.916672</hAcc><vAcc>0.666559</vAcc></extensions></trkpt>
      <trkpt lon="-3.157521" lat="52.987853"><ele>317.710419</ele><time>2021-09-01T12:28:49Z</time><extensions><speed>0.400836</speed><course>344.587616</course><hAcc>0.916872</hAcc><vAcc>0.668249</vAcc></extensions></trkpt>
      <trkpt lon="-3.157521" lat="52.987850"><ele>317.556549</ele><time>2021-09-01T12:28:50Z</time><extensions><speed>0.390529</speed><course>341.405151</course><hAcc>0.916408</hAcc><vAcc>0.669642</vAcc></extensions></trkpt>
      <trkpt lon="-3.157520" lat="52.987846"><ele>317.408630</ele><time>2021-09-01T12:28:51Z</time><extensions><speed>0.381972</speed><course>339.649231</course><hAcc>0.915329</hAcc><vAcc>0.670667</vAcc></extensions></trkpt>
      <trkpt lon="-3.157519" lat="52.987843"><ele>317.265533</ele><time>2021-09-01T12:28:52Z</time><extensions><speed>0.374689</speed><course>334.810822</course><hAcc>0.913696</hAcc><vAcc>0.671293</vAcc></extensions></trkpt>
      <trkpt lon="-3.157518" lat="52.987840"><ele>317.126099</ele><time>2021-09-01T12:28:53Z</time><extensions><speed>0.367519</speed><course>330.628723</course><hAcc>0.911581</hAcc><vAcc>0.671532</vAcc></extensions></trkpt>
      <trkpt lon="-3.157517" lat="52.987837"><ele>316.989288</ele><time>2021-09-01T12:28:54Z</time><extensions><speed>0.359600</speed><course>326.820862</course><hAcc>0.909072</hAcc><vAcc>0.671422</vAcc></extensions></trkpt>
      <trkpt lon="-3.157516" lat="52.987833"><ele>316.854034</ele><time>2021-09-01T12:28:55Z</time><extensions><speed>0.350994</speed><course>329.993256</course><hAcc>0.906273</hAcc><vAcc>0.671019</vAcc></extensions></trkpt>
      <trkpt lon="-3.157514" lat="52.987830"><ele>316.719177</ele><time>2021-09-01T12:28:56Z</time><extensions><speed>0.342347</speed><course>333.108307</course><hAcc>0.903308</hAcc><vAcc>0.670392</vAcc></extensions></trkpt>
      <trkpt lon="-3.157513" lat="52.987827"><ele>316.583344</ele><time>2021-09-01T12:28:57Z</time><extensions><speed>0.334330</speed><course>328.264221</course><hAcc>0.900304</hAcc><vAcc>0.669603</vAcc></extensions></trkpt>
      <trkpt lon="-3.157512" lat="52.987825"><ele>316.444885</ele><time>2021-09-01T12:28:58Z</time><extensions><speed>0.327248</speed><course>336.747131</course><hAcc>0.897377</hAcc><vAcc>0.668711</vAcc></extensions></trkpt>
      <trkpt lon="-3.157511" lat="52.987822"><ele>316.302155</ele><time>2021-09-01T12:28:59Z</time><extensions><speed>0.321217</speed><course>330.065033</course><hAcc>0.894643</hAcc><vAcc>0.667775</vAcc></extensions></trkpt>
      <trkpt lon="-3.157510" lat="52.987819"><ele>316.153595</ele><time>2021-09-01T12:29:00Z</time><extensions><speed>0.316498</speed><course>317.215851</course><hAcc>0.892233</hAcc><vAcc>0.666856</vAcc></extensions></trkpt>
      <trkpt lon="-3.157509" lat="52.987816"><ele>315.997894</ele><time>2021-09-01T12:29:01Z</time><extensions><speed>0.313434</speed><course>321.035828</course><hAcc>0.890276</hAcc><vAcc>0.666020</vAcc></extensions></trkpt>
      <trkpt lon="-3.157509" lat="52.987813"><ele>315.833771</ele><time>2021-09-01T12:29:02Z</time><extensions><speed>0.312128</speed><course>319.935577</course><hAcc>0.888895</hAcc><vAcc>0.665340</vAcc></extensions></trkpt>
      <trkpt lon="-3.157509" lat="52.987811"><ele>315.660278</ele><time>2021-09-01T12:29:03Z</time><extensions><speed>0.312682</speed><course>325.102844</course><hAcc>0.888201</hAcc><vAcc>0.664903</vAcc></extensions></trkpt>
      <trkpt lon="-3.157509" lat="52.987808"><ele>315.476929</ele><time>2021-09-01T12:29:04Z</time><extensions><speed>0.315242</speed><course>327.812073</course><hAcc>0.888306</hAcc><vAcc>0.664810</vAcc></extensions></trkpt>
      <trkpt lon="-3.157510" lat="52.987805"><ele>315.283691</ele><time>2021-09-01T12:29:05Z</time><extensions><speed>0.319976</speed><course>320.427582</course><hAcc>0.889300</hAcc><vAcc>0.665162</vAcc></extensions></trkpt>
      <trkpt lon="-3.157511" lat="52.987802"><ele>315.081116</ele><time>2021-09-01T12:29:06Z</time><extensions><speed>0.326930</speed><course>321.194977</course><hAcc>0.891237</hAcc><vAcc>0.666026</vAcc></extensions></trkpt>
      <trkpt lon="-3.157513" lat="52.987799"><ele>314.870331</ele><time>2021-09-01T12:29:07Z</time><extensions><speed>0.336347</speed><course>318.963165</course><hAcc>0.894116</hAcc><vAcc>0.667407</vAcc></extensions></trkpt>
      <trkpt lon="-3.157515" lat="52.987797"><ele>314.652985</ele><time>2021-09-01T12:29:08Z</time><extensions><speed>0.348983</speed><course>318.221771</course><hAcc>0.897880</hAcc><vAcc>0.669244</vAcc></extensions></trkpt>
      <trkpt lon="-3.157518" lat="52.987794"><ele>314.431000</ele><time>2021-09-01T12:29:09Z</time><extensions><speed>0.364453</speed><course>325.110291</course><hAcc>0.902398</hAcc><vAcc>0.671405</vAcc></extensions></trkpt>
      <trkpt lon="-3.157521" lat="52.987791"><ele>314.206482</ele><time>2021-09-01T12:29:10Z</time><extensions><speed>0.381005</speed><course>325.968475</course><hAcc>0.907452</hAcc><vAcc>0.673710</vAcc></extensions></trkpt>
      <trkpt lon="-3.157525" lat="52.987789"><ele>313.981506</ele><time>2021-09-01T12:29:11Z</time><extensions><speed>0.396621</speed><course>319.629425</course><hAcc>0.912771</hAcc><vAcc>0.675964</vAcc></extensions></trkpt>
      <trkpt lon="-3.157530" lat="52.987786"><ele>313.757904</ele><time>2021-09-01T12:29:12Z</time><extensions><speed>0.409378</speed><course>319.103638</course><hAcc>0.918093</hAcc><vAcc>0.677985</vAcc></extensions></trkpt>
      <trkpt lon="-3.157535" lat="52.987784"><ele>313.537445</ele><time>2021-09-01T12:29:13Z</time><extensions><speed>0.418104</speed><course>314.591980</course><hAcc>0.923205</hAcc><vAcc>0.679602</vAcc></extensions></trkpt>
      <trkpt lon="-3.157540" lat="52.987782"><ele>313.322052</ele><time>2021-09-01T12:29:14Z</time><extensions><speed>0.422740</speed><course>315.007294</course><hAcc>0.927932</hAcc><vAcc>0.680656</vAcc></extensions></trkpt>
      <trkpt lon="-3.157545" lat="52.987780"><ele>313.113708</ele><time>2021-09-01T12:29:15Z</time><extensions><speed>0.423812</speed><course>322.287598</course><hAcc>0.932143</hAcc><vAcc>0.681002</vAcc></extensions></trkpt>
      <trkpt lon="-3.157551" lat="52.987779"><ele>312.914246</ele><time>2021-09-01T12:29:16Z</time><extensions><speed>0.421634</speed><course>320.536743</course><hAcc>0.935753</hAcc><vAcc>0.680526</vAcc></extensions></trkpt>
      <trkpt lon="-3.157557" lat="52.987777"><ele>312.725250</ele><time>2021-09-01T12:29:17Z</time><extensions><speed>0.416736</speed><course>317.691437</course><hAcc>0.938737</hAcc><vAcc>0.679155</vAcc></extensions></trkpt>
      <trkpt lon="-3.157563" lat="52.987777"><ele>312.548065</ele><time>2021-09-01T12:29:18Z</time><extensions><speed>0.410488</speed><course>319.879181</course><hAcc>0.941107</hAcc><vAcc>0.676885</vAcc></extensions></trkpt>
      <trkpt lon="-3.157569" lat="52.987776"><ele>312.383575</ele><time>2021-09-01T12:29:19Z</time><extensions><speed>0.404721</speed><course>320.065887</course><hAcc>0.942888</hAcc><vAcc>0.673797</vAcc></extensions></trkpt>
      <trkpt lon="-3.157575" lat="52.987776"><ele>312.232239</ele><time>2021-09-01T12:29:20Z</time><extensions><speed>0.400914</speed><course>321.533569</course><hAcc>0.944102</hAcc><vAcc>0.670066</vAcc></extensions></trkpt>
      <trkpt lon="-3.157581" lat="52.987777"><ele>312.094391</ele><time>2021-09-01T12:29:21Z</time><extensions><speed>0.400006</speed><course>324.813110</course><hAcc>0.944767</hAcc><vAcc>0.665948</vAcc></extensions></trkpt>
      <trkpt lon="-3.157587" lat="52.987777"><ele>311.970276</ele><time>2021-09-01T12:29:22Z</time><extensions><speed>0.402268</speed><course>329.013580</course><hAcc>0.944905</hAcc><vAcc>0.661745</vAcc></extensions></trkpt>
      <trkpt lon="-3.157593" lat="52.987778"><ele>311.860046</ele><time>2021-09-01T12:29:23Z</time><extensions><speed>0.407117</speed><course>324.901581</course><hAcc>0.944565</hAcc><vAcc>0.657747</vAcc></extensions></trkpt>
      <trkpt lon="-3.157598" lat="52.987780"><ele>311.763763</ele><time>2021-09-01T12:29:24Z</time><extensions><speed>0.413322</speed><course>318.603180</course><hAcc>0.943842</hAcc><vAcc>0.654195</vAcc></extensions></trkpt>
      <trkpt lon="-3.157604" lat="52.987781"><ele>311.681183</ele><time>2021-09-01T12:29:25Z</time><extensions><speed>0.419112</speed><course>314.278656</course><hAcc>0.942884</hAcc><vAcc>0.651254</vAcc></extensions></trkpt>
      <trkpt lon="-3.157609" lat="52.987783"><ele>311.611847</ele><time>2021-09-01T12:29:26Z</time><extensions><speed>0.422689</speed><course>319.463074</course><hAcc>0.941867</hAcc><vAcc>0.649013</vAcc></extensions></trkpt>
      <trkpt lon="-3.157615" lat="52.987785"><ele>311.554810</ele><time>2021-09-01T12:29:27Z</time><extensions><speed>0.422374</speed><course>323.368469</course><hAcc>0.940979</hAcc><vAcc>0.647493</vAcc></extensions></trkpt>
      <trkpt lon="-3.157620" lat="52.987787"><ele>311.508575</ele><time>2021-09-01T12:29:28Z</time><extensions><speed>0.417067</speed><course>324.877350</course><hAcc>0.940396</hAcc><vAcc>0.646644</vAcc></extensions></trkpt>
      <trkpt lon="-3.157625" lat="52.987789"><ele>311.471436</ele><time>2021-09-01T12:29:29Z</time><extensions><speed>0.406527</speed><course>328.239716</course><hAcc>0.940275</hAcc><vAcc>0.646363</vAcc></extensions></trkpt>
      <trkpt lon="-3.157630" lat="52.987791"><ele>311.441620</ele><time>2021-09-01T12:29:30Z</time><extensions><speed>0.390747</speed><course>325.680328</course><hAcc>0.940740</hAcc><vAcc>0.646522</vAcc></extensions></trkpt>
      <trkpt lon="-3.157635" lat="52.987793"><ele>311.417297</ele><time>2021-09-01T12:29:31Z</time><extensions><speed>0.369710</speed><course>329.865967</course><hAcc>0.941872</hAcc><vAcc>0.647011</vAcc></extensions></trkpt>
      <trkpt lon="-3.157639" lat="52.987795"><ele>311.396790</ele><time>2021-09-01T12:29:32Z</time><extensions><speed>0.343871</speed><course>328.590454</course><hAcc>0.943672</hAcc><vAcc>0.647757</vAcc></extensions></trkpt>
      <trkpt lon="-3.157643" lat="52.987796"><ele>311.378876</ele><time>2021-09-01T12:29:33Z</time><extensions><speed>0.314589</speed><course>328.102966</course><hAcc>0.946042</hAcc><vAcc>0.648726</vAcc></extensions></trkpt>
      <trkpt lon="-3.157647" lat="52.987798"><ele>311.362732</ele><time>2021-09-01T12:29:34Z</time><extensions><speed>0.283684</speed><course>314.592194</course><hAcc>0.948815</hAcc><vAcc>0.649897</vAcc></extensions></trkpt>
      <trkpt lon="-3.157651" lat="52.987799"><ele>311.347992</ele><time>2021-09-01T12:29:35Z</time><extensions><speed>0.252757</speed><course>318.557648</course><hAcc>0.951808</hAcc><vAcc>0.651229</vAcc></extensions></trkpt>
      <trkpt lon="-3.157654" lat="52.987800"><ele>311.334930</ele><time>2021-09-01T12:29:36Z</time><extensions><speed>0.222938</speed><course>323.922150</course><hAcc>0.954852</hAcc><vAcc>0.652629</vAcc></extensions></trkpt>
      <trkpt lon="-3.157657" lat="52.987800"><ele>311.324310</ele><time>2021-09-01T12:29:37Z</time><extensions><speed>0.195362</speed><course>321.145691</course><hAcc>0.957804</hAcc><vAcc>0.653953</vAcc></extensions></trkpt>
      <trkpt lon="-3.157659" lat="52.987801"><ele>311.316895</ele><time>2021-09-01T12:29:38Z</time><extensions><speed>0.170869</speed><course>322.786774</course><hAcc>0.960506</hAcc><vAcc>0.655048</vAcc></extensions></trkpt>
      <trkpt lon="-3.157662" lat="52.987801"><ele>311.313232</ele><time>2021-09-01T12:29:39Z</time><extensions><speed>0.149708</speed><course>326.716736</course><hAcc>0.962767</hAcc><vAcc>0.655802</vAcc></extensions></trkpt>
      <trkpt lon="-3.157664" lat="52.987802"><ele>311.313629</ele><time>2021-09-01T12:29:40Z</time><extensions><speed>0.131998</speed><course>329.036499</course><hAcc>0.964368</hAcc><vAcc>0.656154</vAcc></extensions></trkpt>
      <trkpt lon="-3.157665" lat="52.987802"><ele>311.317719</ele><time>2021-09-01T12:29:41Z</time><extensions><speed>0.118174</speed><course>334.350830</course><hAcc>0.965125</hAcc><vAcc>0.656074</vAcc></extensions></trkpt>
      <trkpt lon="-3.157667" lat="52.987802"><ele>311.324738</ele><time>2021-09-01T12:29:42Z</time><extensions><speed>0.109094</speed><course>328.154053</course><hAcc>0.964932</hAcc><vAcc>0.655564</vAcc></extensions></trkpt>
      <trkpt lon="-3.157669" lat="52.987803"><ele>311.333801</ele><time>2021-09-01T12:29:43Z</time><extensions><speed>0.105798</speed><course>334.753510</course><hAcc>0.963782</hAcc><vAcc>0.654660</vAcc></extensions></trkpt>
      <trkpt lon="-3.157670" lat="52.987803"><ele>311.344238</ele><time>2021-09-01T12:29:44Z</time><extensions><speed>0.108742</speed><course>331.588837</course><hAcc>0.961765</hAcc><vAcc>0.653427</vAcc></extensions></trkpt>
      <trkpt lon="-3.157671" lat="52.987804"><ele>311.355225</ele><time>2021-09-01T12:29:45Z</time><extensions><speed>0.117050</speed><course>334.240753</course><hAcc>0.959071</hAcc><vAcc>0.651961</vAcc></extensions></trkpt>
      <trkpt lon="-3.157672" lat="52.987805"><ele>311.365509</ele><time>2021-09-01T12:29:46Z</time><extensions><speed>0.129043</speed><course>338.277435</course><hAcc>0.955967</hAcc><vAcc>0.650388</vAcc></extensions></trkpt>
      <trkpt lon="-3.157674" lat="52.987806"><ele>311.373566</ele><time>2021-09-01T12:29:47Z</time><extensions><speed>0.142936</speed><course>328.841278</course><hAcc>0.952760</hAcc><vAcc>0.648856</vAcc></extensions></trkpt>
      <trkpt lon="-3.157675" lat="52.987807"><ele>311.377930</ele><time>2021-09-01T12:29:48Z</time><extensions><speed>0.157180</speed><course>323.726990</course><hAcc>0.949770</hAcc><vAcc>0.647519</vAcc></extensions></trkpt>
      <trkpt lon="-3.157677" lat="52.987808"><ele>311.377563</ele><time>2021-09-01T12:29:49Z</time><extensions><speed>0.170412</speed><course>317.846680</course><hAcc>0.947307</hAcc><vAcc>0.646525</vAcc></extensions></trkpt>
      <trkpt lon="-3.157678" lat="52.987809"><ele>311.371765</ele><time>2021-09-01T12:29:50Z</time><extensions><speed>0.181557</speed><course>319.877411</course><hAcc>0.945663</hAcc><vAcc>0.646000</vAcc></extensions></trkpt>
      <trkpt lon="-3.157680" lat="52.987810"><ele>311.360382</ele><time>2021-09-01T12:29:51Z</time><extensions><speed>0.190262</speed><course>318.901947</course><hAcc>0.945105</hAcc><vAcc>0.646026</vAcc></extensions></trkpt>
      <trkpt lon="-3.157682" lat="52.987812"><ele>311.343628</ele><time>2021-09-01T12:29:52Z</time><extensions><speed>0.196784</speed><course>320.825470</course><hAcc>0.945819</hAcc><vAcc>0.646637</vAcc></extensions></trkpt>
      <trkpt lon="-3.157684" lat="52.987813"><ele>311.322205</ele><time>2021-09-01T12:29:53Z</time><extensions><speed>0.201691</speed><course>331.940704</course><hAcc>0.947848</hAcc><vAcc>0.647830</vAcc></extensions></trkpt>
      <trkpt lon="-3.157686" lat="52.987815"><ele>311.297028</ele><time>2021-09-01T12:29:54Z</time><extensions><speed>0.205355</speed><course>329.732300</course><hAcc>0.951060</hAcc><vAcc>0.649562</vAcc></extensions></trkpt>
      <trkpt lon="-3.157688" lat="52.987816"><ele>311.269470</ele><time>2021-09-01T12:29:55Z</time><extensions><speed>0.207737</speed><course>330.480469</course><hAcc>0.955181</hAcc><vAcc>0.651753</vAcc></extensions></trkpt>
      <trkpt lon="-3.157690" lat="52.987817"><ele>311.241119</ele><time>2021-09-01T12:29:56Z</time><extensions><speed>0.209022</speed><course>327.453430</course><hAcc>0.959845</hAcc><vAcc>0.654281</vAcc></extensions></trkpt>
      <trkpt lon="-3.157693" lat="52.987818"><ele>311.213623</ele><time>2021-09-01T12:29:57Z</time><extensions><speed>0.210011</speed><course>332.608093</course><hAcc>0.964692</hAcc><vAcc>0.656998</vAcc></extensions></trkpt>
      <trkpt lon="-3.157695" lat="52.987819"><ele>311.188324</ele><time>2021-09-01T12:29:58Z</time><extensions><speed>0.211799</speed><course>330.647522</course><hAcc>0.969430</hAcc><vAcc>0.659742</vAcc></extensions></trkpt>
      <trkpt lon="-3.157698" lat="52.987820"><ele>311.166443</ele><time>2021-09-01T12:29:59Z</time><extensions><speed>0.215667</speed><course>325.179230</course><hAcc>0.973816</hAcc><vAcc>0.662347</vAcc></extensions></trkpt>
      <trkpt lon="-3.157701" lat="52.987821"><ele>311.148804</ele><time>2021-09-01T12:30:00Z</time><extensions><speed>0.223331</speed><course>323.492767</course><hAcc>0.977616</hAcc><vAcc>0.664647</vAcc></extensions></trkpt>
      <trkpt lon="-3.157705" lat="52.987821"><ele>311.135559</ele><time>2021-09-01T12:30:01Z</time><extensions><speed>0.236137</speed><course>319.068512</course><hAcc>0.980612</hAcc><vAcc>0.666480</vAcc></extensions></trkpt>
      <trkpt lon="-3.157708" lat="52.987821"><ele>311.126068</ele><time>2021-09-01T12:30:02Z</time><extensions><speed>0.254363</speed><course>318.607483</course><hAcc>0.982627</hAcc><vAcc>0.667705</vAcc></extensions></trkpt>
      <trkpt lon="-3.157712" lat="52.987820"><ele>311.118744</ele><time>2021-09-01T12:30:03Z</time><extensions><speed>0.277308</speed><course>331.980591</course><hAcc>0.983556</hAcc><vAcc>0.668221</vAcc></extensions></trkpt>
      <trkpt lon="-3.157716" lat="52.987819"><ele>311.110901</ele><time>2021-09-01T12:30:04Z</time><extensions><speed>0.303636</speed><course>339.684753</course><hAcc>0.983394</hAcc><vAcc>0.668001</vAcc></extensions></trkpt>
      <trkpt lon="-3.157721" lat="52.987818"><ele>311.098938</ele><time>2021-09-01T12:30:05Z</time><extensions><speed>0.331527</speed><course>332.990814</course><hAcc>0.982272</hAcc><vAcc>0.667104</vAcc></extensions></trkpt>
      <trkpt lon="-3.157725" lat="52.987817"><ele>311.079041</ele><time>2021-09-01T12:30:06Z</time><extensions><speed>0.359100</speed><course>322.191711</course><hAcc>0.980454</hAcc><vAcc>0.665653</vAcc></extensions></trkpt>
      <trkpt lon="-3.157730" lat="52.987815"><ele>311.048065</ele><time>2021-09-01T12:30:07Z</time><extensions><speed>0.384772</speed><course>322.481537</course><hAcc>0.978300</hAcc><vAcc>0.663798</vAcc></extensions></trkpt>
      <trkpt lon="-3.157734" lat="52.987813"><ele>311.003632</ele><time>2021-09-01T12:30:08Z</time><extensions><speed>0.407544</speed><course>324.494202</course><hAcc>0.976173</hAcc><vAcc>0.661693</vAcc></extensions></trkpt>
      <trkpt lon="-3.157739" lat="52.987810"><ele>310.943939</ele><time>2021-09-01T12:30:09Z</time><extensions><speed>0.427355</speed><course>326.900543</course><hAcc>0.974355</hAcc><vAcc>0.659468</vAcc></extensions></trkpt>
      <trkpt lon="-3.157744" lat="52.987808"><ele>310.867523</ele><time>2021-09-01T12:30:10Z</time><extensions><speed>0.444983</speed><course>327.108612</course><hAcc>0.973002</hAcc><vAcc>0.657216</vAcc></extensions></trkpt>
      <trkpt lon="-3.157750" lat="52.987805"><ele>310.773590</ele><time>2021-09-01T12:30:11Z</time><extensions><speed>0.461398</speed><course>326.961395</course><hAcc>0.972161</hAcc><vAcc>0.655005</vAcc></extensions></trkpt>
      <trkpt lon="-3.157755" lat="52.987803"><ele>310.661835</ele><time>2021-09-01T12:30:12Z</time><extensions><speed>0.477110</speed><course>328.725586</course><hAcc>0.971828</hAcc><vAcc>0.652896</vAcc></extensions></trkpt>
      <trkpt lon="-3.157761" lat="52.987800"><ele>310.532318</ele><time>2021-09-01T12:30:13Z</time><extensions><speed>0.492402</speed><course>324.538879</course><hAcc>0.971982</hAcc><vAcc>0.650960</vAcc></extensions></trkpt>
      <trkpt lon="-3.157767" lat="52.987797"><ele>310.385376</ele><time>2021-09-01T12:30:14Z</time><extensions><speed>0.507623</speed><course>322.792755</course><hAcc>0.972602</hAcc><vAcc>0.649275</vAcc></extensions></trkpt>
      <trkpt lon="-3.157773" lat="52.987795"><ele>310.221802</ele><time>2021-09-01T12:30:15Z</time><extensions><speed>0.522982</speed><course>321.878906</course><hAcc>0.973664</hAcc><vAcc>0.647916</vAcc></extensions></trkpt>
      <trkpt lon="-3.157780" lat="52.987792"><ele>310.042572</ele><time>2021-09-01T12:30:16Z</time><extensions><speed>0.538445</speed><course>332.119232</course><hAcc>0.975128</hAcc><vAcc>0.646955</vAcc></extensions></trkpt>
      <trkpt lon="-3.157787" lat="52.987790"><ele>309.849060</ele><time>2021-09-01T12:30:17Z</time><extensions><speed>0.553921</speed><course>333.921204</course><hAcc>0.976896</hAcc><vAcc>0.646456</vAcc></extensions></trkpt>
      <trkpt lon="-3.157794" lat="52.987787"><ele>309.642761</ele><time>2021-09-01T12:30:18Z</time><extensions><speed>0.569128</speed><course>333.199188</course><hAcc>0.978797</hAcc><vAcc>0.646478</vAcc></extensions></trkpt>
      <trkpt lon="-3.157801" lat="52.987785"><ele>309.425598</ele><time>2021-09-01T12:30:19Z</time><extensions><speed>0.584053</speed><course>332.370575</course><hAcc>0.980632</hAcc><vAcc>0.647093</vAcc></extensions></trkpt>
      <trkpt lon="-3.157809" lat="52.987782"><ele>309.199738</ele><time>2021-09-01T12:30:20Z</time><extensions><speed>0.599249</speed><course>324.975555</course><hAcc>0.982230</hAcc><vAcc>0.648382</vAcc></extensions></trkpt>
      <trkpt lon="-3.157817" lat="52.987780"><ele>308.967590</ele><time>2021-09-01T12:30:21Z</time><extensions><speed>0.615018</speed><course>335.518433</course><hAcc>0.983487</hAcc><vAcc>0.650418</vAcc></extensions></trkpt>
      <trkpt lon="-3.157826" lat="52.987777"><ele>308.731079</ele><time>2021-09-01T12:30:22Z</time><extensions><speed>0.630839</speed><course>325.564209</course><hAcc>0.984362</hAcc><vAcc>0.653220</vAcc></extensions></trkpt>
      <trkpt lon="-3.157834" lat="52.987775"><ele>308.491394</ele><time>2021-09-01T12:30:23Z</time><extensions><speed>0.645825</speed><course>328.563263</course><hAcc>0.984855</hAcc><vAcc>0.656731</vAcc></extensions></trkpt>
      <trkpt lon="-3.157843" lat="52.987772"><ele>308.249146</ele><time>2021-09-01T12:30:24Z</time><extensions><speed>0.659246</speed><course>326.994080</course><hAcc>0.985007</hAcc><vAcc>0.660840</vAcc></extensions></trkpt>
      <trkpt lon="-3.157851" lat="52.987769"><ele>308.005096</ele><time>2021-09-01T12:30:25Z</time><extensions><speed>0.670519</speed><course>318.473267</course><hAcc>0.984901</hAcc><vAcc>0.665406</vAcc></extensions></trkpt>
      <trkpt lon="-3.157860" lat="52.987766"><ele>307.759918</ele><time>2021-09-01T12:30:26Z</time><extensions><speed>0.679011</speed><course>311.042542</course><hAcc>0.984629</hAcc><vAcc>0.670274</vAcc></extensions></trkpt>
      <trkpt lon="-3.157869" lat="52.987763"><ele>307.513672</ele><time>2021-09-01T12:30:27Z</time><extensions><speed>0.683504</speed><course>305.538330</course><hAcc>0.984254</hAcc><vAcc>0.675270</vAcc></extensions></trkpt>
      <trkpt lon="-3.157877" lat="52.987759"><ele>307.265778</ele><time>2021-09-01T12:30:28Z</time><extensions><speed>0.682225</speed><course>315.153778</course><hAcc>0.983780</hAcc><vAcc>0.680198</vAcc></extensions></trkpt>
      <trkpt lon="-3.157886" lat="52.987756"><ele>307.015900</ele><time>2021-09-01T12:30:29Z</time><extensions><speed>0.674021</speed><course>316.503418</course><hAcc>0.983141</hAcc><vAcc>0.684832</vAcc></extensions></trkpt>
      <trkpt lon="-3.157894" lat="52.987752"><ele>306.764099</ele><time>2021-09-01T12:30:30Z</time><extensions><speed>0.658962</speed><course>335.833191</course><hAcc>0.982218</hAcc><vAcc>0.688952</vAcc></extensions></trkpt>
      <trkpt lon="-3.157901" lat="52.987749"><ele>306.510925</ele><time>2021-09-01T12:30:31Z</time><extensions><speed>0.637624</speed><course>327.010254</course><hAcc>0.980888</hAcc><vAcc>0.692368</vAcc></extensions></trkpt>
      <trkpt lon="-3.157909" lat="52.987746"><ele>306.257416</ele><time>2021-09-01T12:30:32Z</time><extensions><speed>0.610994</speed><course>325.252136</course><hAcc>0.979069</hAcc><vAcc>0.694943</vAcc></extensions></trkpt>
      <trkpt lon="-3.157916" lat="52.987742"><ele>306.005066</ele><time>2021-09-01T12:30:33Z</time><extensions><speed>0.580022</speed><course>322.968475</course><hAcc>0.976751</hAcc><vAcc>0.696613</vAcc></extensions></trkpt>
      <trkpt lon="-3.157922" lat="52.987739"><ele>305.755676</ele><time>2021-09-01T12:30:34Z</time><extensions><speed>0.545544</speed><course>323.501465</course><hAcc>0.973999</hAcc><vAcc>0.697393</vAcc></extensions></trkpt>
      <trkpt lon="-3.157929" lat="52.987736"><ele>305.511292</ele><time>2021-09-01T12:30:35Z</time><extensions><speed>0.508822</speed><course>321.425781</course><hAcc>0.970940</hAcc><vAcc>0.697361</vAcc></extensions></trkpt>
      <trkpt lon="-3.157934" lat="52.987733"><ele>305.273926</ele><time>2021-09-01T12:30:36Z</time><extensions><speed>0.471429</speed><course>320.251373</course><hAcc>0.967711</hAcc><vAcc>0.696635</vAcc></extensions></trkpt>
      <trkpt lon="-3.157939" lat="52.987731"><ele>305.045258</ele><time>2021-09-01T12:30:37Z</time><extensions><speed>0.434851</speed><course>324.252075</course><hAcc>0.964411</hAcc><vAcc>0.695335</vAcc></extensions></trkpt>
      <trkpt lon="-3.157944" lat="52.987728"><ele>304.826416</ele><time>2021-09-01T12:30:38Z</time><extensions><speed>0.400071</speed><course>324.152374</course><hAcc>0.961080</hAcc><vAcc>0.693544</vAcc></extensions></trkpt>
      <trkpt lon="-3.157948" lat="52.987726"><ele>304.618134</ele><time>2021-09-01T12:30:39Z</time><extensions><speed>0.368059</speed><course>325.481750</course><hAcc>0.957709</hAcc><vAcc>0.691298</vAcc></extensions></trkpt>
      <trkpt lon="-3.157952" lat="52.987724"><ele>304.420868</ele><time>2021-09-01T12:30:40Z</time><extensions><speed>0.339643</speed><course>319.205566</course><hAcc>0.954270</hAcc><vAcc>0.688620</vAcc></extensions></trkpt>
      <trkpt lon="-3.157956" lat="52.987722"><ele>304.234924</ele><time>2021-09-01T12:30:41Z</time><extensions><speed>0.314744</speed><course>318.376190</course><hAcc>0.950743</hAcc><vAcc>0.685560</vAcc></extensions></trkpt>
      <trkpt lon="-3.157959" lat="52.987720"><ele>304.060059</ele><time>2021-09-01T12:30:42Z</time><extensions><speed>0.293084</speed><course>314.977020</course><hAcc>0.947134</hAcc><vAcc>0.682198</vAcc></extensions></trkpt>
      <trkpt lon="-3.157962" lat="52.987718"><ele>303.895264</ele><time>2021-09-01T12:30:43Z</time><extensions><speed>0.274922</speed><course>311.302399</course><hAcc>0.943492</hAcc><vAcc>0.678646</vAcc></extensions></trkpt>
      <trkpt lon="-3.157965" lat="52.987717"><ele>303.738983</ele><time>2021-09-01T12:30:44Z</time><extensions><speed>0.260507</speed><course>310.834198</course><hAcc>0.939920</hAcc><vAcc>0.675031</vAcc></extensions></trkpt>
      <trkpt lon="-3.157967" lat="52.987715"><ele>303.589355</ele><time>2021-09-01T12:30:45Z</time><extensions><speed>0.249938</speed><course>309.925598</course><hAcc>0.936576</hAcc><vAcc>0.671470</vAcc></extensions></trkpt>
      <trkpt lon="-3.157969" lat="52.987713"><ele>303.444275</ele><time>2021-09-01T12:30:46Z</time><extensions><speed>0.243606</speed><course>306.104523</course><hAcc>0.933630</hAcc><vAcc>0.668068</vAcc></extensions></trkpt>
      <trkpt lon="-3.157971" lat="52.987711"><ele>303.301758</ele><time>2021-09-01T12:30:47Z</time><extensions><speed>0.241759</speed><course>306.130798</course><hAcc>0.931212</hAcc><vAcc>0.664945</vAcc></extensions></trkpt>
      <trkpt lon="-3.157973" lat="52.987709"><ele>303.159882</ele><time>2021-09-01T12:30:48Z</time><extensions><speed>0.244117</speed><course>309.163177</course><hAcc>0.929380</hAcc><vAcc>0.662240</vAcc></extensions></trkpt>
      <trkpt lon="-3.157974" lat="52.987707"><ele>303.016815</ele><time>2021-09-01T12:30:49Z</time><extensions><speed>0.249920</speed><course>311.638824</course><hAcc>0.928110</hAcc><vAcc>0.660064</vAcc></extensions></trkpt>
      <trkpt lon="-3.157975" lat="52.987705"><ele>302.871124</ele><time>2021-09-01T12:30:50Z</time><extensions><speed>0.258023</speed><course>306.319550</course><hAcc>0.927306</hAcc><vAcc>0.658433</vAcc></extensions></trkpt>
      <trkpt lon="-3.157976" lat="52.987703"><ele>302.721863</ele><time>2021-09-01T12:30:51Z</time><extensions><speed>0.266866</speed><course>309.448608</course><hAcc>0.926827</hAcc><vAcc>0.657249</vAcc></extensions></trkpt>
      <trkpt lon="-3.157977" lat="52.987700"><ele>302.568604</ele><time>2021-09-01T12:30:52Z</time><extensions><speed>0.274805</speed><course>307.055084</course><hAcc>0.926535</hAcc><vAcc>0.656359</vAcc></extensions></trkpt>
      <trkpt lon="-3.157978" lat="52.987698"><ele>302.411224</ele><time>2021-09-01T12:30:53Z</time><extensions><speed>0.281001</speed><course>309.609528</course><hAcc>0.926330</hAcc><vAcc>0.655620</vAcc></extensions></trkpt>
      <trkpt lon="-3.157978" lat="52.987695"><ele>302.250000</ele><time>2021-09-01T12:30:54Z</time><extensions><speed>0.285456</speed><course>304.747925</course><hAcc>0.926141</hAcc><vAcc>0.654924</vAcc></extensions></trkpt>
      <trkpt lon="-3.157979" lat="52.987693"><ele>302.085236</ele><time>2021-09-01T12:30:55Z</time><extensions><speed>0.288353</speed><course>298.413086</course><hAcc>0.925884</hAcc><vAcc>0.654196</vAcc></extensions></trkpt>
      <trkpt lon="-3.157980" lat="52.987690"><ele>301.917511</ele><time>2021-09-01T12:30:56Z</time><extensions><speed>0.289213</speed><course>304.495026</course><hAcc>0.925467</hAcc><vAcc>0.653407</vAcc></extensions></trkpt>
      <trkpt lon="-3.157981" lat="52.987688"><ele>301.747589</ele><time>2021-09-01T12:30:57Z</time><extensions><speed>0.287138</speed><course>308.805939</course><hAcc>0.924825</hAcc><vAcc>0.652559</vAcc></extensions></trkpt>
      <trkpt lon="-3.157982" lat="52.987685"><ele>301.576538</ele><time>2021-09-01T12:30:58Z</time><extensions><speed>0.281502</speed><course>311.789917</course><hAcc>0.923970</hAcc><vAcc>0.651654</vAcc></extensions></trkpt>
      <trkpt lon="-3.157982" lat="52.987683"><ele>301.405579</ele><time>2021-09-01T12:30:59Z</time><extensions><speed>0.272478</speed><course>310.886353</course><hAcc>0.923026</hAcc><vAcc>0.650659</vAcc></extensions></trkpt>
      <trkpt lon="-3.157984" lat="52.987680"><ele>301.236053</ele><time>2021-09-01T12:31:00Z</time><extensions><speed>0.260708</speed><course>314.533539</course><hAcc>0.922191</hAcc><vAcc>0.649507</vAcc></extensions></trkpt>
      <trkpt lon="-3.157985" lat="52.987678"><ele>301.069519</ele><time>2021-09-01T12:31:01Z</time><extensions><speed>0.246980</speed><course>315.680542</course><hAcc>0.921646</hAcc><vAcc>0.648112</vAcc></extensions></trkpt>
      <trkpt lon="-3.157986" lat="52.987676"><ele>300.907471</ele><time>2021-09-01T12:31:02Z</time><extensions><speed>0.232498</speed><course>318.090881</course><hAcc>0.921508</hAcc><vAcc>0.646396</vAcc></extensions></trkpt>
      <trkpt lon="-3.157988" lat="52.987675"><ele>300.751312</ele><time>2021-09-01T12:31:03Z</time><extensions><speed>0.218894</speed><course>322.434174</course><hAcc>0.921846</hAcc><vAcc>0.644323</vAcc></extensions></trkpt>
      <trkpt lon="-3.157990" lat="52.987673"><ele>300.602020</ele><time>2021-09-01T12:31:04Z</time><extensions><speed>0.208097</speed><course>326.481506</course><hAcc>0.922729</hAcc><vAcc>0.641933</vAcc></extensions></trkpt>
      <trkpt lon="-3.157992" lat="52.987672"><ele>300.459991</ele><time>2021-09-01T12:31:05Z</time><extensions><speed>0.202016</speed><course>309.522247</course><hAcc>0.924217</hAcc><vAcc>0.639341</vAcc></extensions></trkpt>
      <trkpt lon="-3.157994" lat="52.987670"><ele>300.325409</ele><time>2021-09-01T12:31:06Z</time><extensions><speed>0.202237</speed><course>317.105560</course><hAcc>0.926326</hAcc><vAcc>0.636710</vAcc></extensions></trkpt>
      <trkpt lon="-3.157997" lat="52.987669"><ele>300.197845</ele><time>2021-09-01T12:31:07Z</time><extensions><speed>0.209557</speed><course>325.631348</course><hAcc>0.928980</hAcc><vAcc>0.634208</vAcc></extensions></trkpt>
      <trkpt lon="-3.158000" lat="52.987669"><ele>300.076447</ele><time>2021-09-01T12:31:08Z</time><extensions><speed>0.223292</speed><course>323.961853</course><hAcc>0.931995</hAcc><vAcc>0.632002</vAcc></extensions></trkpt>
      <trkpt lon="-3.158003" lat="52.987668"><ele>299.959961</ele><time>2021-09-01T12:31:09Z</time><extensions><speed>0.241677</speed><course>321.394775</course><hAcc>0.935105</hAcc><vAcc>0.630251</vAcc></extensions></trkpt>
      <trkpt lon="-3.158006" lat="52.987667"><ele>299.846741</ele><time>2021-09-01T12:31:10Z</time><extensions><speed>0.262853</speed><course>321.108948</course><hAcc>0.938030</hAcc><vAcc>0.629085</vAcc></extensions></trkpt>
      <trkpt lon="-3.158010" lat="52.987666"><ele>299.734802</ele><time>2021-09-01T12:31:11Z</time><extensions><speed>0.285592</speed><course>321.170013</course><hAcc>0.940534</hAcc><vAcc>0.628588</vAcc></extensions></trkpt>
      <trkpt lon="-3.158014" lat="52.987665"><ele>299.622070</ele><time>2021-09-01T12:31:12Z</time><extensions><speed>0.309153</speed><course>306.176178</course><hAcc>0.942442</hAcc><vAcc>0.628778</vAcc></extensions></trkpt>
      <trkpt lon="-3.158019" lat="52.987664"><ele>299.506805</ele><time>2021-09-01T12:31:13Z</time><extensions><speed>0.332615</speed><course>315.376495</course><hAcc>0.943685</hAcc><vAcc>0.629621</vAcc></extensions></trkpt>
      <trkpt lon="-3.158023" lat="52.987662"><ele>299.387604</ele><time>2021-09-01T12:31:14Z</time><extensions><speed>0.354810</speed><course>318.757812</course><hAcc>0.944376</hAcc><vAcc>0.631053</vAcc></extensions></trkpt>
      <trkpt lon="-3.158028" lat="52.987661"><ele>299.263458</ele><time>2021-09-01T12:31:15Z</time><extensions><speed>0.374082</speed><course>302.990356</course><hAcc>0.944824</hAcc><vAcc>0.632985</vAcc></extensions></trkpt>
      <trkpt lon="-3.158033" lat="52.987660"><ele>299.133331</ele><time>2021-09-01T12:31:16Z</time><extensions><speed>0.389487</speed><course>313.317535</course><hAcc>0.945452</hAcc><vAcc>0.635301</vAcc></extensions></trkpt>
      <trkpt lon="-3.158038" lat="52.987658"><ele>298.996429</ele><time>2021-09-01T12:31:17Z</time><extensions><speed>0.401052</speed><course>312.441528</course><hAcc>0.946667</hAcc><vAcc>0.637860</vAcc></extensions></trkpt>
      <trkpt lon="-3.158044" lat="52.987656"><ele>298.852386</ele><time>2021-09-01T12:31:18Z</time><extensions><speed>0.408915</speed><course>316.780334</course><hAcc>0.948747</hAcc><vAcc>0.640506</vAcc></extensions></trkpt>
      <trkpt lon="-3.158049" lat="52.987654"><ele>298.701416</ele><time>2021-09-01T12:31:19Z</time><extensions><speed>0.413578</speed><course>316.095612</course><hAcc>0.951801</hAcc><vAcc>0.643089</vAcc></extensions></trkpt>
      <trkpt lon="-3.158054" lat="52.987652"><ele>298.544006</ele><time>2021-09-01T12:31:20Z</time><extensions><speed>0.416092</speed><course>314.234863</course><hAcc>0.955768</hAcc><vAcc>0.645468</vAcc></extensions></trkpt>
      <trkpt lon="-3.158059" lat="52.987649"><ele>298.381104</ele><time>2021-09-01T12:31:21Z</time><extensions><speed>0.417688</speed><course>308.545959</course><hAcc>0.960433</hAcc><vAcc>0.647519</vAcc></extensions></trkpt>
      <trkpt lon="-3.158063" lat="52.987647"><ele>298.213928</ele><time>2021-09-01T12:31:22Z</time><extensions><speed>0.419326</speed><course>317.115723</course><hAcc>0.965444</hAcc><vAcc>0.649141</vAcc></extensions></trkpt>
      <trkpt lon="-3.158068" lat="52.987644"><ele>298.043427</ele><time>2021-09-01T12:31:23Z</time><extensions><speed>0.422023</speed><course>324.999634</course><hAcc>0.970380</hAcc><vAcc>0.650281</vAcc></extensions></trkpt>
      <trkpt lon="-3.158072" lat="52.987641"><ele>297.870361</ele><time>2021-09-01T12:31:24Z</time><extensions><speed>0.426802</speed><course>317.924194</course><hAcc>0.974831</hAcc><vAcc>0.650963</vAcc></extensions></trkpt>
      <trkpt lon="-3.158075" lat="52.987638"><ele>297.695435</ele><time>2021-09-01T12:31:25Z</time><extensions><speed>0.434031</speed><course>315.987152</course><hAcc>0.978446</hAcc><vAcc>0.651270</vAcc></extensions></trkpt>
      <trkpt lon="-3.158079" lat="52.987635"><ele>297.519104</ele><time>2021-09-01T12:31:26Z</time><extensions><speed>0.443269</speed><course>314.734009</course><hAcc>0.980939</hAcc><vAcc>0.651303</vAcc></extensions></trkpt>
      <trkpt lon="-3.158082" lat="52.987631"><ele>297.341522</ele><time>2021-09-01T12:31:27Z</time><extensions><speed>0.453451</speed><course>317.632782</course><hAcc>0.982088</hAcc><vAcc>0.651161</vAcc></extensions></trkpt>
      <trkpt lon="-3.158086" lat="52.987628"><ele>297.162720</ele><time>2021-09-01T12:31:28Z</time><extensions><speed>0.463217</speed><course>301.352448</course><hAcc>0.981762</hAcc><vAcc>0.650941</vAcc></extensions></trkpt>
      <trkpt lon="-3.158089" lat="52.987624"><ele>296.982697</ele><time>2021-09-01T12:31:29Z</time><extensions><speed>0.471637</speed><course>311.835449</course><hAcc>0.979950</hAcc><vAcc>0.650731</vAcc></extensions></trkpt>
      <trkpt lon="-3.158092" lat="52.987620"><ele>296.801575</ele><time>2021-09-01T12:31:30Z</time><extensions><speed>0.478408</speed><course>314.400024</course><hAcc>0.976775</hAcc><vAcc>0.650623</vAcc></extensions></trkpt>
      <trkpt lon="-3.158096" lat="52.987616"><ele>296.619446</ele><time>2021-09-01T12:31:31Z</time><extensions><speed>0.483728</speed><course>314.080444</course><hAcc>0.972487</hAcc><vAcc>0.650721</vAcc></extensions></trkpt>
      <trkpt lon="-3.158099" lat="52.987613"><ele>296.436554</ele><time>2021-09-01T12:31:32Z</time><extensions><speed>0.487819</speed><course>307.602600</course><hAcc>0.967445</hAcc><vAcc>0.651138</vAcc></extensions></trkpt>
      <trkpt lon="-3.158103" lat="52.987609"><ele>296.252899</ele><time>2021-09-01T12:31:33Z</time><extensions><speed>0.490831</speed><course>311.268951</course><hAcc>0.962105</hAcc><vAcc>0.651977</vAcc></extensions></trkpt>
      <trkpt lon="-3.158107" lat="52.987605"><ele>296.068451</ele><time>2021-09-01T12:31:34Z</time><extensions><speed>0.492882</speed><course>316.568695</course><hAcc>0.956996</hAcc><vAcc>0.653321</vAcc></extensions></trkpt>
      <trkpt lon="-3.158111" lat="52.987602"><ele>295.882874</ele><time>2021-09-01T12:31:35Z</time><extensions><speed>0.494093</speed><course>324.849396</course><hAcc>0.952651</hAcc><vAcc>0.655204</vAcc></extensions></trkpt>
      <trkpt lon="-3.158116" lat="52.987598"><ele>295.695587</ele><time>2021-09-01T12:31:36Z</time><extensions><speed>0.494503</speed><course>318.929504</course><hAcc>0.949523</hAcc><vAcc>0.657611</vAcc></extensions></trkpt>
      <trkpt lon="-3.158120" lat="52.987595"><ele>295.506104</ele><time>2021-09-01T12:31:37Z</time><extensions><speed>0.493401</speed><course>315.514008</course><hAcc>0.947908</hAcc><vAcc>0.660495</vAcc></extensions></trkpt>
      <trkpt lon="-3.158126" lat="52.987592"><ele>295.313690</ele><time>2021-09-01T12:31:38Z</time><extensions><speed>0.489751</speed><course>309.432922</course><hAcc>0.947922</hAcc><vAcc>0.663781</vAcc></extensions></trkpt>
      <trkpt lon="-3.158131" lat="52.987588"><ele>295.117432</ele><time>2021-09-01T12:31:39Z</time><extensions><speed>0.483408</speed><course>306.068817</course><hAcc>0.949519</hAcc><vAcc>0.667384</vAcc></extensions></trkpt>
      <trkpt lon="-3.158136" lat="52.987586"><ele>294.916016</ele><time>2021-09-01T12:31:40Z</time><extensions><speed>0.474719</speed><course>319.983490</course><hAcc>0.952518</hAcc><vAcc>0.671218</vAcc></extensions></trkpt>
      <trkpt lon="-3.158141" lat="52.987583"><ele>294.708038</ele><time>2021-09-01T12:31:41Z</time><extensions><speed>0.463971</speed><course>315.606720</course><hAcc>0.956641</hAcc><vAcc>0.675207</vAcc></extensions></trkpt>
      <trkpt lon="-3.158147" lat="52.987580"><ele>294.492126</ele><time>2021-09-01T12:31:42Z</time><extensions><speed>0.452053</speed><course>317.784515</course><hAcc>0.961558</hAcc><vAcc>0.679277</vAcc></extensions></trkpt>
      <trkpt lon="-3.158152" lat="52.987578"><ele>294.267273</ele><time>2021-09-01T12:31:43Z</time><extensions><speed>0.440205</speed><course>313.524780</course><hAcc>0.966926</hAcc><vAcc>0.683358</vAcc></extensions></trkpt>
      <trkpt lon="-3.158157" lat="52.987575"><ele>294.032898</ele><time>2021-09-01T12:31:44Z</time><extensions><speed>0.429690</speed><course>310.903687</course><hAcc>0.972425</hAcc><vAcc>0.687391</vAcc></extensions></trkpt>
      <trkpt lon="-3.158162" lat="52.987573"><ele>293.788727</ele><time>2021-09-01T12:31:45Z</time><extensions><speed>0.421408</speed><course>315.823334</course><hAcc>0.977780</hAcc><vAcc>0.691319</vAcc></extensions></trkpt>
      <trkpt lon="-3.158167" lat="52.987571"><ele>293.534882</ele><time>2021-09-01T12:31:46Z</time><extensions><speed>0.415819</speed><course>318.320831</course><hAcc>0.982747</hAcc><vAcc>0.695069</vAcc></extensions></trkpt>
      <trkpt lon="-3.158172" lat="52.987569"><ele>293.272156</ele><time>2021-09-01T12:31:47Z</time><extensions><speed>0.412841</speed><course>306.579529</course><hAcc>0.987113</hAcc><vAcc>0.698544</vAcc></extensions></trkpt>
      <trkpt lon="-3.158177" lat="52.987567"><ele>293.001678</ele><time>2021-09-01T12:31:48Z</time><extensions><speed>0.411875</speed><course>308.750916</course><hAcc>0.990700</hAcc><vAcc>0.701630</vAcc></extensions></trkpt>
      <trkpt lon="-3.158183" lat="52.987565"><ele>292.725006</ele><time>2021-09-01T12:31:49Z</time><extensions><speed>0.412384</speed><course>310.705475</course><hAcc>0.993369</hAcc><vAcc>0.704204</vAcc></extensions></trkpt>
      <trkpt lon="-3.158188" lat="52.987563"><ele>292.443634</ele><time>2021-09-01T12:31:50Z</time><extensions><speed>0.414453</speed><course>309.681793</course><hAcc>0.995006</hAcc><vAcc>0.706137</vAcc></extensions></trkpt>
      <trkpt lon="-3.158193" lat="52.987561"><ele>292.158936</ele><time>2021-09-01T12:31:51Z</time><extensions><speed>0.418509</speed><course>322.348389</course><hAcc>0.995508</hAcc><vAcc>0.707293</vAcc></extensions></trkpt>
      <trkpt lon="-3.158199" lat="52.987559"><ele>291.871704</ele><time>2021-09-01T12:31:52Z</time><extensions><speed>0.424568</speed><course>326.702148</course><hAcc>0.994778</hAcc><vAcc>0.707543</vAcc></extensions></trkpt>
      <trkpt lon="-3.158204" lat="52.987557"><ele>291.582489</ele><time>2021-09-01T12:31:53Z</time><extensions><speed>0.431989</speed><course>331.813965</course><hAcc>0.992724</hAcc><vAcc>0.706793</vAcc></extensions></trkpt>
      <trkpt lon="-3.158210" lat="52.987556"><ele>291.291565</ele><time>2021-09-01T12:31:54Z</time><extensions><speed>0.439912</speed><course>329.095581</course><hAcc>0.989282</hAcc><vAcc>0.705025</vAcc></extensions></trkpt>
      <trkpt lon="-3.158216" lat="52.987554"><ele>290.998932</ele><time>2021-09-01T12:31:55Z</time><extensions><speed>0.448182</speed><course>317.013092</course><hAcc>0.984463</hAcc><vAcc>0.702308</vAcc></extensions></trkpt>
      <trkpt lon="-3.158223" lat="52.987553"><ele>290.704742</ele><time>2021-09-01T12:31:56Z</time><extensions><speed>0.457260</speed><course>304.237976</course><hAcc>0.978401</hAcc><vAcc>0.698810</vAcc></extensions></trkpt>
      <trkpt lon="-3.158229" lat="52.987551"><ele>290.409210</ele><time>2021-09-01T12:31:57Z</time><extensions><speed>0.467253</speed><course>306.732727</course><hAcc>0.971354</hAcc><vAcc>0.694802</vAcc></extensions></trkpt>
      <trkpt lon="-3.158235" lat="52.987549"><ele>290.112701</ele><time>2021-09-01T12:31:58Z</time><extensions><speed>0.478081</speed><course>314.620697</course><hAcc>0.963668</hAcc><vAcc>0.690628</vAcc></extensions></trkpt>
      <trkpt lon="-3.158242" lat="52.987548"><ele>289.815338</ele><time>2021-09-01T12:31:59Z</time><extensions><speed>0.489504</speed><course>308.721527</course><hAcc>0.955694</hAcc><vAcc>0.686614</vAcc></extensions></trkpt>
      <trkpt lon="-3.158249" lat="52.987546"><ele>289.516724</ele><time>2021-09-01T12:32:00Z</time><extensions><speed>0.500680</speed><course>324.142334</course><hAcc>0.947709</hAcc><vAcc>0.682975</vAcc></extensions></trkpt>
      <trkpt lon="-3.158256" lat="52.987544"><ele>289.214752</ele><time>2021-09-01T12:32:01Z</time><extensions><speed>0.509113</speed><course>-1.000000</course><hAcc>0.939894</hAcc><vAcc>0.679784</vAcc></extensions></trkpt>
      <trkpt lon="-3.158263" lat="52.987543"><ele>288.909180</ele><time>2021-09-01T12:32:02Z</time><extensions><speed>0.518080</speed><course>-1.000000</course><hAcc>0.932408</hAcc><vAcc>0.677059</vAcc></extensions></trkpt>
      <trkpt lon="-3.158270" lat="52.987541"><ele>288.598694</ele><time>2021-09-01T12:32:03Z</time><extensions><speed>0.526074</speed><course>-1.000000</course><hAcc>0.925385</hAcc><vAcc>0.674729</vAcc></extensions></trkpt>
      <trkpt lon="-3.158277" lat="52.987539"><ele>288.282654</ele><time>2021-09-01T12:32:04Z</time><extensions><speed>0.533470</speed><course>-1.000000</course><hAcc>0.918958</hAcc><vAcc>0.672683</vAcc></extensions></trkpt>
      <trkpt lon="-3.158285" lat="52.987537"><ele>287.960388</ele><time>2021-09-01T12:32:05Z</time><extensions><speed>0.540411</speed><course>-1.000000</course><hAcc>0.913269</hAcc><vAcc>0.670806</vAcc></extensions></trkpt>
      <trkpt lon="-3.158292" lat="52.987534"><ele>287.630951</ele><time>2021-09-01T12:32:06Z</time><extensions><speed>0.547055</speed><course>-1.000000</course><hAcc>0.908447</hAcc><vAcc>0.669006</vAcc></extensions></trkpt>
      <trkpt lon="-3.158299" lat="52.987532"><ele>287.293274</ele><time>2021-09-01T12:32:07Z</time><extensions><speed>0.553612</speed><course>-1.000000</course><hAcc>0.904568</hAcc><vAcc>0.667232</vAcc></extensions></trkpt>
      <trkpt lon="-3.158306" lat="52.987529"><ele>286.946533</ele><time>2021-09-01T12:32:08Z</time><extensions><speed>0.560348</speed><course>-1.000000</course><hAcc>0.901632</hAcc><vAcc>0.665489</vAcc></extensions></trkpt>
      <trkpt lon="-3.158313" lat="52.987526"><ele>286.590698</ele><time>2021-09-01T12:32:09Z</time><extensions><speed>0.567438</speed><course>-1.000000</course><hAcc>0.899558</hAcc><vAcc>0.663853</vAcc></extensions></trkpt>
      <trkpt lon="-3.158319" lat="52.987523"><ele>286.226349</ele><time>2021-09-01T12:32:10Z</time><extensions><speed>0.574611</speed><course>-1.000000</course><hAcc>0.898199</hAcc><vAcc>0.662449</vAcc></extensions></trkpt>
      <trkpt lon="-3.158325" lat="52.987519"><ele>285.854828</ele><time>2021-09-01T12:32:11Z</time><extensions><speed>0.581514</speed><course>-1.000000</course><hAcc>0.897373</hAcc><vAcc>0.661380</vAcc></extensions></trkpt>
      <trkpt lon="-3.158331" lat="52.987516"><ele>285.477936</ele><time>2021-09-01T12:32:12Z</time><extensions><speed>0.587568</speed><course>-1.000000</course><hAcc>0.896889</hAcc><vAcc>0.660689</vAcc></extensions></trkpt>
      <trkpt lon="-3.158337" lat="52.987512"><ele>285.097961</ele><time>2021-09-01T12:32:13Z</time><extensions><speed>0.591643</speed><course>-1.000000</course><hAcc>0.896588</hAcc><vAcc>0.660361</vAcc></extensions></trkpt>
      <trkpt lon="-3.158342" lat="52.987507"><ele>284.717407</ele><time>2021-09-01T12:32:14Z</time><extensions><speed>0.592992</speed><course>116.725777</course><hAcc>0.896351</hAcc><vAcc>0.660332</vAcc></extensions></trkpt>
      <trkpt lon="-3.158347" lat="52.987503"><ele>284.338593</ele><time>2021-09-01T12:32:15Z</time><extensions><speed>0.591208</speed><course>116.725777</course><hAcc>0.896081</hAcc><vAcc>0.660507</vAcc></extensions></trkpt>
      <trkpt lon="-3.158351" lat="52.987498"><ele>283.963654</ele><time>2021-09-01T12:32:16Z</time><extensions><speed>0.585826</speed><course>116.725777</course><hAcc>0.895676</hAcc><vAcc>0.660769</vAcc></extensions></trkpt>
      <trkpt lon="-3.158355" lat="52.987494"><ele>283.594849</ele><time>2021-09-01T12:32:17Z</time><extensions><speed>0.576523</speed><course>116.725777</course><hAcc>0.895008</hAcc><vAcc>0.660980</vAcc></extensions></trkpt>
      <trkpt lon="-3.158359" lat="52.987489"><ele>283.234741</ele><time>2021-09-01T12:32:18Z</time><extensions><speed>0.563693</speed><course>116.725777</course><hAcc>0.893948</hAcc><vAcc>0.660993</vAcc></extensions></trkpt>
      <trkpt lon="-3.158363" lat="52.987484"><ele>282.886169</ele><time>2021-09-01T12:32:19Z</time><extensions><speed>0.548331</speed><course>116.725784</course><hAcc>0.892415</hAcc><vAcc>0.660682</vAcc></extensions></trkpt>
      <trkpt lon="-3.158366" lat="52.987480"><ele>282.551514</ele><time>2021-09-01T12:32:20Z</time><extensions><speed>0.531363</speed><course>116.725784</course><hAcc>0.890398</hAcc><vAcc>0.659975</vAcc></extensions></trkpt>
      <trkpt lon="-3.158369" lat="52.987476"><ele>282.232269</ele><time>2021-09-01T12:32:21Z</time><extensions><speed>0.514136</speed><course>116.725784</course><hAcc>0.887964</hAcc><vAcc>0.658873</vAcc></extensions></trkpt>
      <trkpt lon="-3.158373" lat="52.987472"><ele>281.929077</ele><time>2021-09-01T12:32:22Z</time><extensions><speed>0.498638</speed><course>116.725784</course><hAcc>0.885255</hAcc><vAcc>0.657468</vAcc></extensions></trkpt>
      <trkpt lon="-3.158376" lat="52.987468"><ele>281.641479</ele><time>2021-09-01T12:32:23Z</time><extensions><speed>0.486679</speed><course>116.725784</course><hAcc>0.882458</hAcc><vAcc>0.655928</vAcc></extensions></trkpt>
      <trkpt lon="-3.158379" lat="52.987464"><ele>281.368439</ele><time>2021-09-01T12:32:24Z</time><extensions><speed>0.479614</speed><course>116.725784</course><hAcc>0.879759</hAcc><vAcc>0.654467</vAcc></extensions></trkpt>
      <trkpt lon="-3.158383" lat="52.987460"><ele>281.108856</ele><time>2021-09-01T12:32:25Z</time><extensions><speed>0.477799</speed><course>116.725784</course><hAcc>0.877305</hAcc><vAcc>0.653303</vAcc></extensions></trkpt>
      <trkpt lon="-3.158387" lat="52.987457"><ele>280.861389</ele><time>2021-09-01T12:32:26Z</time><extensions><speed>0.480383</speed><course>116.725784</course><hAcc>0.875201</hAcc><vAcc>0.652609</vAcc></extensions></trkpt>
      <trkpt lon="-3.158391" lat="52.987453"><ele>280.624573</ele><time>2021-09-01T12:32:27Z</time><extensions><speed>0.486333</speed><course>116.725784</course><hAcc>0.873503</hAcc><vAcc>0.652455</vAcc></extensions></trkpt>
      <trkpt lon="-3.158396" lat="52.987450"><ele>280.396484</ele><time>2021-09-01T12:32:28Z</time><extensions><speed>0.494673</speed><course>116.725784</course><hAcc>0.872223</hAcc><vAcc>0.652788</vAcc></extensions></trkpt>
      <trkpt lon="-3.158400" lat="52.987446"><ele>280.175110</ele><time>2021-09-01T12:32:29Z</time><extensions><speed>0.504140</speed><course>116.725784</course><hAcc>0.871318</hAcc><vAcc>0.653447</vAcc></extensions></trkpt>
      <trkpt lon="-3.158405" lat="52.987443"><ele>279.958496</ele><time>2021-09-01T12:32:30Z</time><extensions><speed>0.514338</speed><course>116.725784</course><hAcc>0.870714</hAcc><vAcc>0.654219</vAcc></extensions></trkpt>
      <trkpt lon="-3.158411" lat="52.987439"><ele>279.744629</ele><time>2021-09-01T12:32:31Z</time><extensions><speed>0.526043</speed><course>116.725784</course><hAcc>0.870323</hAcc><vAcc>0.654909</vAcc></extensions></trkpt>
      <trkpt lon="-3.158416" lat="52.987436"><ele>279.531891</ele><time>2021-09-01T12:32:32Z</time><extensions><speed>0.539435</speed><course>116.725784</course><hAcc>0.870070</hAcc><vAcc>0.655397</vAcc></extensions></trkpt>
      <trkpt lon="-3.158422" lat="52.987433"><ele>279.319153</ele><time>2021-09-01T12:32:33Z</time><extensions><speed>0.554097</speed><course>116.725784</course><hAcc>0.869898</hAcc><vAcc>0.655649</vAcc></extensions></trkpt>
      <trkpt lon="-3.158428" lat="52.987429"><ele>279.105316</ele><time>2021-09-01T12:32:34Z</time><extensions><speed>0.569524</speed><course>116.725784</course><hAcc>0.869771</hAcc><vAcc>0.655694</vAcc></extensions></trkpt>
      <trkpt lon="-3.158435" lat="52.987426"><ele>278.888947</ele><time>2021-09-01T12:32:35Z</time><extensions><speed>0.585060</speed><course>116.725784</course><hAcc>0.869670</hAcc><vAcc>0.655590</vAcc></extensions></trkpt>
      <trkpt lon="-3.158442" lat="52.987423"><ele>278.668823</ele><time>2021-09-01T12:32:36Z</time><extensions><speed>0.599727</speed><course>116.725777</course><hAcc>0.869583</hAcc><vAcc>0.655400</vAcc></extensions></trkpt>
      <trkpt lon="-3.158449" lat="52.987419"><ele>278.444061</ele><time>2021-09-01T12:32:37Z</time><extensions><speed>0.612263</speed><course>116.725769</course><hAcc>0.869509</hAcc><vAcc>0.655183</vAcc></extensions></trkpt>
      <trkpt lon="-3.158457" lat="52.987416"><ele>278.213989</ele><time>2021-09-01T12:32:38Z</time><extensions><speed>0.620971</speed><course>116.725769</course><hAcc>0.869452</hAcc><vAcc>0.655000</vAcc></extensions></trkpt>
      <trkpt lon="-3.158464" lat="52.987413"><ele>277.978607</ele><time>2021-09-01T12:32:39Z</time><extensions><speed>0.623419</speed><course>116.725761</course><hAcc>0.869419</hAcc><vAcc>0.654901</vAcc></extensions></trkpt>
      <trkpt lon="-3.158471" lat="52.987409"><ele>277.738495</ele><time>2021-09-01T12:32:40Z</time><extensions><speed>0.617936</speed><course>116.725754</course><hAcc>0.869411</hAcc><vAcc>0.654909</vAcc></extensions></trkpt>
      <trkpt lon="-3.158479" lat="52.987406"><ele>277.494598</ele><time>2021-09-01T12:32:41Z</time><extensions><speed>0.605185</speed><course>116.725746</course><hAcc>0.869425</hAcc><vAcc>0.654999</vAcc></extensions></trkpt>
      <trkpt lon="-3.158485" lat="52.987403"><ele>277.248108</ele><time>2021-09-01T12:32:42Z</time><extensions><speed>0.587867</speed><course>116.725746</course><hAcc>0.869446</hAcc><vAcc>0.655107</vAcc></extensions></trkpt>
      <trkpt lon="-3.158492" lat="52.987399"><ele>277.000397</ele><time>2021-09-01T12:32:43Z</time><extensions><speed>0.569278</speed><course>116.725731</course><hAcc>0.869464</hAcc><vAcc>0.655179</vAcc></extensions></trkpt>
      <trkpt lon="-3.158498" lat="52.987396"><ele>276.752655</ele><time>2021-09-01T12:32:44Z</time><extensions><speed>0.551399</speed><course>116.725723</course><hAcc>0.869473</hAcc><vAcc>0.655202</vAcc></extensions></trkpt>
      <trkpt lon="-3.158504" lat="52.987393"><ele>276.505646</ele><time>2021-09-01T12:32:45Z</time><extensions><speed>0.534987</speed><course>116.725723</course><hAcc>0.869481</hAcc><vAcc>0.655204</vAcc></extensions></trkpt>
      <trkpt lon="-3.158510" lat="52.987389"><ele>276.259369</ele><time>2021-09-01T12:32:46Z</time><extensions><speed>0.521308</speed><course>116.725708</course><hAcc>0.869496</hAcc><vAcc>0.655229</vAcc></extensions></trkpt>
      <trkpt lon="-3.158515" lat="52.987386"><ele>276.013763</ele><time>2021-09-01T12:32:47Z</time><extensions><speed>0.512067</speed><course>116.725700</course><hAcc>0.869524</hAcc><vAcc>0.655305</vAcc></extensions></trkpt>
      <trkpt lon="-3.158520" lat="52.987382"><ele>275.769287</ele><time>2021-09-01T12:32:48Z</time><extensions><speed>0.508415</speed><course>116.725693</course><hAcc>0.869564</hAcc><vAcc>0.655430</vAcc></extensions></trkpt>
      <trkpt lon="-3.158524" lat="52.987378"><ele>275.526245</ele><time>2021-09-01T12:32:49Z</time><extensions><speed>0.510256</speed><course>116.725685</course><hAcc>0.869610</hAcc><vAcc>0.655569</vAcc></extensions></trkpt>
      <trkpt lon="-3.158528" lat="52.987375"><ele>275.285034</ele><time>2021-09-01T12:32:50Z</time><extensions><speed>0.516647</speed><course>116.725670</course><hAcc>0.869653</hAcc><vAcc>0.655681</vAcc></extensions></trkpt>
      <trkpt lon="-3.158532" lat="52.987371"><ele>275.046234</ele><time>2021-09-01T12:32:51Z</time><extensions><speed>0.526787</speed><course>116.725670</course><hAcc>0.869691</hAcc><vAcc>0.655742</vAcc></extensions></trkpt>
      <trkpt lon="-3.158536" lat="52.987366"><ele>274.810059</ele><time>2021-09-01T12:32:52Z</time><extensions><speed>0.540325</speed><course>116.725662</course><hAcc>0.869729</hAcc><vAcc>0.655767</vAcc></extensions></trkpt>
      <trkpt lon="-3.158540" lat="52.987362"><ele>274.576050</ele><time>2021-09-01T12:32:53Z</time><extensions><speed>0.556750</speed><course>316.510925</course><hAcc>0.869780</hAcc><vAcc>0.655809</vAcc></extensions></trkpt>
      <trkpt lon="-3.158543" lat="52.987357"><ele>274.343323</ele><time>2021-09-01T12:32:54Z</time><extensions><speed>0.575528</speed><course>325.771881</course><hAcc>0.869866</hAcc><vAcc>0.655949</vAcc></extensions></trkpt>
      <trkpt lon="-3.158546" lat="52.987352"><ele>274.111328</ele><time>2021-09-01T12:32:55Z</time><extensions><speed>0.596240</speed><course>329.412018</course><hAcc>0.870011</hAcc><vAcc>0.656275</vAcc></extensions></trkpt>
      <trkpt lon="-3.158549" lat="52.987347"><ele>273.879578</ele><time>2021-09-01T12:32:56Z</time><extensions><speed>0.618013</speed><course>328.807678</course><hAcc>0.870235</hAcc><vAcc>0.656843</vAcc></extensions></trkpt>
      <trkpt lon="-3.158551" lat="52.987342"><ele>273.647705</ele><time>2021-09-01T12:32:57Z</time><extensions><speed>0.639345</speed><course>328.238739</course><hAcc>0.870550</hAcc><vAcc>0.657668</vAcc></extensions></trkpt>
      <trkpt lon="-3.158554" lat="52.987336"><ele>273.415466</ele><time>2021-09-01T12:32:58Z</time><extensions><speed>0.658054</speed><course>328.754333</course><hAcc>0.870968</hAcc><vAcc>0.658720</vAcc></extensions></trkpt>
      <trkpt lon="-3.158556" lat="52.987330"><ele>273.182526</ele><time>2021-09-01T12:32:59Z</time><extensions><speed>0.672193</speed><course>321.291412</course><hAcc>0.871498</hAcc><vAcc>0.659944</vAcc></extensions></trkpt>
      <trkpt lon="-3.158557" lat="52.987324"><ele>272.948303</ele><time>2021-09-01T12:33:00Z</time><extensions><speed>0.680987</speed><course>315.163422</course><hAcc>0.872162</hAcc><vAcc>0.661273</vAcc></extensions></trkpt>
      <trkpt lon="-3.158559" lat="52.987318"><ele>272.712219</ele><time>2021-09-01T12:33:01Z</time><extensions><speed>0.684427</speed><course>320.356079</course><hAcc>0.872991</hAcc><vAcc>0.662636</vAcc></extensions></trkpt>
      <trkpt lon="-3.158561" lat="52.987312"><ele>272.473816</ele><time>2021-09-01T12:33:02Z</time><extensions><speed>0.682345</speed><course>314.759003</course><hAcc>0.874030</hAcc><vAcc>0.663955</vAcc></extensions></trkpt>
      <trkpt lon="-3.158562" lat="52.987306"><ele>272.232849</ele><time>2021-09-01T12:33:03Z</time><extensions><speed>0.674649</speed><course>306.430359</course><hAcc>0.875345</hAcc><vAcc>0.665161</vAcc></extensions></trkpt>
      <trkpt lon="-3.158564" lat="52.987300"><ele>271.989594</ele><time>2021-09-01T12:33:04Z</time><extensions><speed>0.662111</speed><course>312.642456</course><hAcc>0.877023</hAcc><vAcc>0.666198</vAcc></extensions></trkpt>
      <trkpt lon="-3.158567" lat="52.987294"><ele>271.744904</ele><time>2021-09-01T12:33:05Z</time><extensions><speed>0.645648</speed><course>309.329712</course><hAcc>0.879162</hAcc><vAcc>0.667035</vAcc></extensions></trkpt>
      <trkpt lon="-3.158569" lat="52.987289"><ele>271.500244</ele><time>2021-09-01T12:33:06Z</time><extensions><speed>0.625814</speed><course>306.517120</course><hAcc>0.881844</hAcc><vAcc>0.667651</vAcc></extensions></trkpt>
      <trkpt lon="-3.158572" lat="52.987284"><ele>271.257111</ele><time>2021-09-01T12:33:07Z</time><extensions><speed>0.603254</speed><course>302.169647</course><hAcc>0.885111</hAcc><vAcc>0.668021</vAcc></extensions></trkpt>
      <trkpt lon="-3.158575" lat="52.987279"><ele>271.016876</ele><time>2021-09-01T12:33:08Z</time><extensions><speed>0.578573</speed><course>299.953156</course><hAcc>0.888934</hAcc><vAcc>0.668111</vAcc></extensions></trkpt>
      <trkpt lon="-3.158579" lat="52.987274"><ele>270.780914</ele><time>2021-09-01T12:33:09Z</time><extensions><speed>0.552500</speed><course>299.473511</course><hAcc>0.893194</hAcc><vAcc>0.667897</vAcc></extensions></trkpt>
      <trkpt lon="-3.158582" lat="52.987270"><ele>270.550812</ele><time>2021-09-01T12:33:10Z</time><extensions><speed>0.526342</speed><course>298.103729</course><hAcc>0.897695</hAcc><vAcc>0.667377</vAcc></extensions></trkpt>
      <trkpt lon="-3.158587" lat="52.987266"><ele>270.328094</ele><time>2021-09-01T12:33:11Z</time><extensions><speed>0.502262</speed><course>294.101929</course><hAcc>0.902193</hAcc><vAcc>0.666574</vAcc></extensions></trkpt>
      <trkpt lon="-3.158591" lat="52.987263"><ele>270.113525</ele><time>2021-09-01T12:33:12Z</time><extensions><speed>0.482588</speed><course>298.669067</course><hAcc>0.906440</hAcc><vAcc>0.665541</vAcc></extensions></trkpt>
      <trkpt lon="-3.158596" lat="52.987260"><ele>269.906982</ele><time>2021-09-01T12:33:13Z</time><extensions><speed>0.468723</speed><course>297.460327</course><hAcc>0.910223</hAcc><vAcc>0.664351</vAcc></extensions></trkpt>
      <trkpt lon="-3.158601" lat="52.987257"><ele>269.707825</ele><time>2021-09-01T12:33:14Z</time><extensions><speed>0.460866</speed><course>300.643127</course><hAcc>0.913402</hAcc><vAcc>0.663102</vAcc></extensions></trkpt>
      <trkpt lon="-3.158607" lat="52.987254"><ele>269.515289</ele><time>2021-09-01T12:33:15Z</time><extensions><speed>0.458535</speed><course>300.762909</course><hAcc>0.915947</hAcc><vAcc>0.661913</vAcc></extensions></trkpt>
      <trkpt lon="-3.158613" lat="52.987252"><ele>269.328583</ele><time>2021-09-01T12:33:16Z</time><extensions><speed>0.461028</speed><course>306.221161</course><hAcc>0.917939</hAcc><vAcc>0.660912</vAcc></extensions></trkpt>
      <trkpt lon="-3.158619" lat="52.987250"><ele>269.146851</ele><time>2021-09-01T12:33:17Z</time><extensions><speed>0.467013</speed><course>311.753571</course><hAcc>0.919545</hAcc><vAcc>0.660197</vAcc></extensions></trkpt>
      <trkpt lon="-3.158625" lat="52.987248"><ele>268.968994</ele><time>2021-09-01T12:33:18Z</time><extensions><speed>0.474667</speed><course>314.039551</course><hAcc>0.920973</hAcc><vAcc>0.659827</vAcc></extensions></trkpt>
      <trkpt lon="-3.158632" lat="52.987247"><ele>268.793640</ele><time>2021-09-01T12:33:19Z</time><extensions><speed>0.482457</speed><course>316.125336</course><hAcc>0.922423</hAcc><vAcc>0.659827</vAcc></extensions></trkpt>
      <trkpt lon="-3.158638" lat="52.987245"><ele>268.619049</ele><time>2021-09-01T12:33:20Z</time><extensions><speed>0.489474</speed><course>313.054962</course><hAcc>0.924057</hAcc><vAcc>0.660200</vAcc></extensions></trkpt>
      <trkpt lon="-3.158645" lat="52.987243"><ele>268.443451</ele><time>2021-09-01T12:33:21Z</time><extensions><speed>0.494940</speed><course>309.718231</course><hAcc>0.925979</hAcc><vAcc>0.660941</vAcc></extensions></trkpt>
      <trkpt lon="-3.158652" lat="52.987241"><ele>268.265259</ele><time>2021-09-01T12:33:22Z</time><extensions><speed>0.497787</speed><course>315.993652</course><hAcc>0.928221</hAcc><vAcc>0.662023</vAcc></extensions></trkpt>
      <trkpt lon="-3.158658" lat="52.987239"><ele>268.083191</ele><time>2021-09-01T12:33:23Z</time><extensions><speed>0.497115</speed><course>314.639465</course><hAcc>0.930746</hAcc><vAcc>0.663373</vAcc></extensions></trkpt>
      <trkpt lon="-3.158665" lat="52.987237"><ele>267.896118</ele><time>2021-09-01T12:33:24Z</time><extensions><speed>0.492009</speed><course>314.699524</course><hAcc>0.933433</hAcc><vAcc>0.664843</vAcc></extensions></trkpt>
      <trkpt lon="-3.158671" lat="52.987234"><ele>267.703247</ele><time>2021-09-01T12:33:25Z</time><extensions><speed>0.482356</speed><course>315.537170</course><hAcc>0.936088</hAcc><vAcc>0.666191</vAcc></extensions></trkpt>
      <trkpt lon="-3.158676" lat="52.987232"><ele>267.504547</ele><time>2021-09-01T12:33:26Z</time><extensions><speed>0.469242</speed><course>315.384186</course><hAcc>0.938468</hAcc><vAcc>0.667136</vAcc></extensions></trkpt>
      <trkpt lon="-3.158682" lat="52.987229"><ele>267.300659</ele><time>2021-09-01T12:33:27Z</time><extensions><speed>0.454352</speed><course>316.068207</course><hAcc>0.940346</hAcc><vAcc>0.667445</vAcc></extensions></trkpt>
      <trkpt lon="-3.158687" lat="52.987227"><ele>267.092712</ele><time>2021-09-01T12:33:28Z</time><extensions><speed>0.439470</speed><course>319.526184</course><hAcc>0.941571</hAcc><vAcc>0.667007</vAcc></extensions></trkpt>
      <trkpt lon="-3.158691" lat="52.987224"><ele>266.882233</ele><time>2021-09-01T12:33:29Z</time><extensions><speed>0.426600</speed><course>322.032959</course><hAcc>0.942078</hAcc><vAcc>0.665851</vAcc></extensions></trkpt>
      <trkpt lon="-3.158695" lat="52.987221"><ele>266.670868</ele><time>2021-09-01T12:33:30Z</time><extensions><speed>0.418943</speed><course>326.209290</course><hAcc>0.941883</hAcc><vAcc>0.664135</vAcc></extensions></trkpt>
      <trkpt lon="-3.158698" lat="52.987218"><ele>266.459961</ele><time>2021-09-01T12:33:31Z</time><extensions><speed>0.420031</speed><course>324.142303</course><hAcc>0.941064</hAcc><vAcc>0.662101</vAcc></extensions></trkpt>
      <trkpt lon="-3.158701" lat="52.987214"><ele>266.250122</ele><time>2021-09-01T12:33:32Z</time><extensions><speed>0.432015</speed><course>332.193542</course><hAcc>0.939726</hAcc><vAcc>0.660028</vAcc></extensions></trkpt>
      <trkpt lon="-3.158704" lat="52.987211"><ele>266.041656</ele><time>2021-09-01T12:33:33Z</time><extensions><speed>0.454541</speed><course>329.558014</course><hAcc>0.937978</hAcc><vAcc>0.658186</vAcc></extensions></trkpt>
      <trkpt lon="-3.158707" lat="52.987207"><ele>265.834900</ele><time>2021-09-01T12:33:34Z</time><extensions><speed>0.485711</speed><course>323.309692</course><hAcc>0.935929</hAcc><vAcc>0.656798</vAcc></extensions></trkpt>
      <trkpt lon="-3.158709" lat="52.987202"><ele>265.630157</ele><time>2021-09-01T12:33:35Z</time><extensions><speed>0.523938</speed><course>319.992767</course><hAcc>0.933697</hAcc><vAcc>0.656026</vAcc></extensions></trkpt>
      <trkpt lon="-3.158712" lat="52.987198"><ele>265.427521</ele><time>2021-09-01T12:33:36Z</time><extensions><speed>0.567999</speed><course>322.539886</course><hAcc>0.931410</hAcc><vAcc>0.655976</vAcc></extensions></trkpt>
      <trkpt lon="-3.158714" lat="52.987193"><ele>265.227051</ele><time>2021-09-01T12:33:37Z</time><extensions><speed>0.615802</speed><course>317.532928</course><hAcc>0.929188</hAcc><vAcc>0.656688</vAcc></extensions></trkpt>
      <trkpt lon="-3.158717" lat="52.987187"><ele>265.028412</ele><time>2021-09-01T12:33:38Z</time><extensions><speed>0.664072</speed><course>314.725220</course><hAcc>0.927115</hAcc><vAcc>0.658126</vAcc></extensions></trkpt>
      <trkpt lon="-3.158720" lat="52.987181"><ele>264.830933</ele><time>2021-09-01T12:33:39Z</time><extensions><speed>0.708994</speed><course>325.463684</course><hAcc>0.925246</hAcc><vAcc>0.660162</vAcc></extensions></trkpt>
      <trkpt lon="-3.158724" lat="52.987175"><ele>264.633484</ele><time>2021-09-01T12:33:40Z</time><extensions><speed>0.746664</speed><course>326.490570</course><hAcc>0.923630</hAcc><vAcc>0.662588</vAcc></extensions></trkpt>
      <trkpt lon="-3.158728" lat="52.987169"><ele>264.434570</ele><time>2021-09-01T12:33:41Z</time><extensions><speed>0.774814</speed><course>316.111328</course><hAcc>0.922318</hAcc><vAcc>0.665149</vAcc></extensions></trkpt>
      <trkpt lon="-3.158733" lat="52.987162"><ele>264.232574</ele><time>2021-09-01T12:33:42Z</time><extensions><speed>0.793407</speed><course>316.470520</course><hAcc>0.921335</hAcc><vAcc>0.667603</vAcc></extensions></trkpt>
      <trkpt lon="-3.158738" lat="52.987156"><ele>264.026062</ele><time>2021-09-01T12:33:43Z</time><extensions><speed>0.803533</speed><course>317.921600</course><hAcc>0.920659</hAcc><vAcc>0.669756</vAcc></extensions></trkpt>
      <trkpt lon="-3.158743" lat="52.987149"><ele>263.814392</ele><time>2021-09-01T12:33:44Z</time><extensions><speed>0.806989</speed><course>317.925903</course><hAcc>0.920226</hAcc><vAcc>0.671476</vAcc></extensions></trkpt>
      <trkpt lon="-3.158749" lat="52.987143"><ele>263.597412</ele><time>2021-09-01T12:33:45Z</time><extensions><speed>0.805742</speed><course>316.840515</course><hAcc>0.919940</hAcc><vAcc>0.672687</vAcc></extensions></trkpt>
      <trkpt lon="-3.158756" lat="52.987137"><ele>263.375061</ele><time>2021-09-01T12:33:46Z</time><extensions><speed>0.801469</speed><course>321.987762</course><hAcc>0.919704</hAcc><vAcc>0.673357</vAcc></extensions></trkpt>
      <trkpt lon="-3.158763" lat="52.987132"><ele>263.147278</ele><time>2021-09-01T12:33:47Z</time><extensions><speed>0.795975</speed><course>314.291290</course><hAcc>0.919450</hAcc><vAcc>0.673493</vAcc></extensions></trkpt>
      <trkpt lon="-3.158771" lat="52.987126"><ele>262.914185</ele><time>2021-09-01T12:33:48Z</time><extensions><speed>0.790947</speed><course>311.665222</course><hAcc>0.919159</hAcc><vAcc>0.673148</vAcc></extensions></trkpt>
      <trkpt lon="-3.158780" lat="52.987121"><ele>262.675995</ele><time>2021-09-01T12:33:49Z</time><extensions><speed>0.787181</speed><course>315.645782</course><hAcc>0.918857</hAcc><vAcc>0.672418</vAcc></extensions></trkpt>
      <trkpt lon="-3.158788" lat="52.987117"><ele>262.433228</ele><time>2021-09-01T12:33:50Z</time><extensions><speed>0.784539</speed><course>312.390594</course><hAcc>0.918602</hAcc><vAcc>0.671422</vAcc></extensions></trkpt>
      <trkpt lon="-3.158797" lat="52.987112"><ele>262.186493</ele><time>2021-09-01T12:33:51Z</time><extensions><speed>0.782409</speed><course>315.968140</course><hAcc>0.918466</hAcc><vAcc>0.670275</vAcc></extensions></trkpt>
      <trkpt lon="-3.158807" lat="52.987108"><ele>261.936401</ele><time>2021-09-01T12:33:52Z</time><extensions><speed>0.780280</speed><course>305.843231</course><hAcc>0.918509</hAcc><vAcc>0.669057</vAcc></extensions></trkpt>
      <trkpt lon="-3.158817" lat="52.987104"><ele>261.683685</ele><time>2021-09-01T12:33:53Z</time><extensions><speed>0.777686</speed><course>307.428955</course><hAcc>0.918753</hAcc><vAcc>0.667796</vAcc></extensions></trkpt>
      <trkpt lon="-3.158827" lat="52.987101"><ele>261.429413</ele><time>2021-09-01T12:33:54Z</time><extensions><speed>0.774266</speed><course>303.591888</course><hAcc>0.919175</hAcc><vAcc>0.666464</vAcc></extensions></trkpt>
      <trkpt lon="-3.158837" lat="52.987097"><ele>261.175079</ele><time>2021-09-01T12:33:55Z</time><extensions><speed>0.770322</speed><course>302.311584</course><hAcc>0.919712</hAcc><vAcc>0.664983</vAcc></extensions></trkpt>
      <trkpt lon="-3.158847" lat="52.987094"><ele>260.922119</ele><time>2021-09-01T12:33:56Z</time><extensions><speed>0.766276</speed><course>296.010498</course><hAcc>0.920291</hAcc><vAcc>0.663254</vAcc></extensions></trkpt>
      <trkpt lon="-3.158857" lat="52.987091"><ele>260.671265</ele><time>2021-09-01T12:33:57Z</time><extensions><speed>0.761995</speed><course>298.597748</course><hAcc>0.920833</hAcc><vAcc>0.661185</vAcc></extensions></trkpt>
      <trkpt lon="-3.158867" lat="52.987088"><ele>260.422729</ele><time>2021-09-01T12:33:58Z</time><extensions><speed>0.756909</speed><course>307.419373</course><hAcc>0.921272</hAcc><vAcc>0.658721</vAcc></extensions></trkpt>
      <trkpt lon="-3.158877" lat="52.987085"><ele>260.176666</ele><time>2021-09-01T12:33:59Z</time><extensions><speed>0.750182</speed><course>311.127045</course><hAcc>0.921575</hAcc><vAcc>0.655886</vAcc></extensions></trkpt>
      <trkpt lon="-3.158887" lat="52.987083"><ele>259.933563</ele><time>2021-09-01T12:34:00Z</time><extensions><speed>0.741373</speed><course>308.779785</course><hAcc>0.921779</hAcc><vAcc>0.652787</vAcc></extensions></trkpt>
      <trkpt lon="-3.158897" lat="52.987080"><ele>259.693481</ele><time>2021-09-01T12:34:01Z</time><extensions><speed>0.731466</speed><course>310.817932</course><hAcc>0.922008</hAcc><vAcc>0.649610</vAcc></extensions></trkpt>
      <trkpt lon="-3.158907" lat="52.987077"><ele>259.455994</ele><time>2021-09-01T12:34:01Z</time><extensions><speed>0.722438</speed><course>313.903961</course><hAcc>0.922492</hAcc><vAcc>0.646603</vAcc></extensions></trkpt>
      <trkpt lon="-3.158916" lat="52.987073"><ele>259.219604</ele><time>2021-09-01T12:34:02Z</time><extensions><speed>0.716186</speed><course>312.113068</course><hAcc>0.923507</hAcc><vAcc>0.644008</vAcc></extensions></trkpt>
      <trkpt lon="-3.158925" lat="52.987070"><ele>258.983612</ele><time>2021-09-01T12:34:03Z</time><extensions><speed>0.714178</speed><course>298.693726</course><hAcc>0.925304</hAcc><vAcc>0.642055</vAcc></extensions></trkpt>
      <trkpt lon="-3.158933" lat="52.987066"><ele>258.747437</ele><time>2021-09-01T12:34:04Z</time><extensions><speed>0.717073</speed><course>304.126526</course><hAcc>0.928089</hAcc><vAcc>0.640950</vAcc></extensions></trkpt>
      <trkpt lon="-3.158941" lat="52.987061"><ele>258.510742</ele><time>2021-09-01T12:34:05Z</time><extensions><speed>0.724574</speed><course>307.202972</course><hAcc>0.931987</hAcc><vAcc>0.640841</vAcc></extensions></trkpt>
      <trkpt lon="-3.158948" lat="52.987056"><ele>258.273376</ele><time>2021-09-01T12:34:06Z</time><extensions><speed>0.735614</speed><course>306.849365</course><hAcc>0.937007</hAcc><vAcc>0.641797</vAcc></extensions></trkpt>
      <trkpt lon="-3.158955" lat="52.987051"><ele>258.035309</ele><time>2021-09-01T12:34:07Z</time><extensions><speed>0.747630</speed><course>311.228149</course><hAcc>0.943017</hAcc><vAcc>0.643767</vAcc></extensions></trkpt>
      <trkpt lon="-3.158961" lat="52.987045"><ele>257.796478</ele><time>2021-09-01T12:34:08Z</time><extensions><speed>0.756609</speed><course>314.984741</course><hAcc>0.949743</hAcc><vAcc>0.646548</vAcc></extensions></trkpt>
      <trkpt lon="-3.158967" lat="52.987040"><ele>257.556885</ele><time>2021-09-01T12:34:09Z</time><extensions><speed>0.759302</speed><course>312.149628</course><hAcc>0.956804</hAcc><vAcc>0.649826</vAcc></extensions></trkpt>
      <trkpt lon="-3.158972" lat="52.987033"><ele>257.316986</ele><time>2021-09-01T12:34:10Z</time><extensions><speed>0.754397</speed><course>303.811646</course><hAcc>0.963780</hAcc><vAcc>0.653270</vAcc></extensions></trkpt>
      <trkpt lon="-3.158976" lat="52.987027"><ele>257.077728</ele><time>2021-09-01T12:34:11Z</time><extensions><speed>0.742664</speed><course>306.939087</course><hAcc>0.970275</hAcc><vAcc>0.656611</vAcc></extensions></trkpt>
      <trkpt lon="-3.158980" lat="52.987021"><ele>256.840302</ele><time>2021-09-01T12:34:12Z</time><extensions><speed>0.725967</speed><course>305.149933</course><hAcc>0.975979</hAcc><vAcc>0.659683</vAcc></extensions></trkpt>
      <trkpt lon="-3.158983" lat="52.987015"><ele>256.606293</ele><time>2021-09-01T12:34:13Z</time><extensions><speed>0.705728</speed><course>307.460999</course><hAcc>0.980690</hAcc><vAcc>0.662433</vAcc></extensions></trkpt>
      <trkpt lon="-3.158985" lat="52.987009"><ele>256.377533</ele><time>2021-09-01T12:34:14Z</time><extensions><speed>0.682601</speed><course>310.556549</course><hAcc>0.984341</hAcc><vAcc>0.664908</vAcc></extensions></trkpt>
      <trkpt lon="-3.158987" lat="52.987003"><ele>256.156097</ele><time>2021-09-01T12:34:15Z</time><extensions><speed>0.656494</speed><course>316.643463</course><hAcc>0.987016</hAcc><vAcc>0.667218</vAcc></extensions></trkpt>
      <trkpt lon="-3.158989" lat="52.986997"><ele>255.943909</ele><time>2021-09-01T12:34:16Z</time><extensions><speed>0.627502</speed><course>310.111420</course><hAcc>0.988931</hAcc><vAcc>0.669506</vAcc></extensions></trkpt>
      <trkpt lon="-3.158990" lat="52.986992"><ele>255.742615</ele><time>2021-09-01T12:34:17Z</time><extensions><speed>0.596168</speed><course>309.394775</course><hAcc>0.990363</hAcc><vAcc>0.671919</vAcc></extensions></trkpt>
      <trkpt lon="-3.158991" lat="52.986987"><ele>255.552979</ele><time>2021-09-01T12:34:18Z</time><extensions><speed>0.562901</speed><course>312.734375</course><hAcc>0.991550</hAcc><vAcc>0.674548</vAcc></extensions></trkpt>
      <trkpt lon="-3.158992" lat="52.986982"><ele>255.374802</ele><time>2021-09-01T12:34:19Z</time><extensions><speed>0.528400</speed><course>307.110260</course><hAcc>0.992618</hAcc><vAcc>0.677381</vAcc></extensions></trkpt>
      <trkpt lon="-3.158993" lat="52.986977"><ele>255.207443</ele><time>2021-09-01T12:34:20Z</time><extensions><speed>0.493705</speed><course>304.794312</course><hAcc>0.993578</hAcc><vAcc>0.680297</vAcc></extensions></trkpt>
      <trkpt lon="-3.158995" lat="52.986973"><ele>255.049759</ele><time>2021-09-01T12:34:21Z</time><extensions><speed>0.459727</speed><course>309.669006</course><hAcc>0.994350</hAcc><vAcc>0.683076</vAcc></extensions></trkpt>
      <trkpt lon="-3.158996" lat="52.986969"><ele>254.899933</ele><time>2021-09-01T12:34:22Z</time><extensions><speed>0.427416</speed><course>309.747101</course><hAcc>0.994785</hAcc><vAcc>0.685443</vAcc></extensions></trkpt>
      <trkpt lon="-3.158998" lat="52.986966"><ele>254.755615</ele><time>2021-09-01T12:34:23Z</time><extensions><speed>0.398398</speed><course>308.451904</course><hAcc>0.994715</hAcc><vAcc>0.687106</vAcc></extensions></trkpt>
      <trkpt lon="-3.159001" lat="52.986962"><ele>254.614532</ele><time>2021-09-01T12:34:24Z</time><extensions><speed>0.374525</speed><course>313.674774</course><hAcc>0.994004</hAcc><vAcc>0.687826</vAcc></extensions></trkpt>
      <trkpt lon="-3.159004" lat="52.986960"><ele>254.474792</ele><time>2021-09-01T12:34:25Z</time><extensions><speed>0.357051</speed><course>310.174561</course><hAcc>0.992563</hAcc><vAcc>0.687461</vAcc></extensions></trkpt>
      <trkpt lon="-3.159007" lat="52.986957"><ele>254.334885</ele><time>2021-09-01T12:34:26Z</time><extensions><speed>0.346266</speed><course>312.894348</course><hAcc>0.990348</hAcc><vAcc>0.685982</vAcc></extensions></trkpt>
      <trkpt lon="-3.159010" lat="52.986955"><ele>254.193893</ele><time>2021-09-01T12:34:27Z</time><extensions><speed>0.341294</speed><course>309.740997</course><hAcc>0.987362</hAcc><vAcc>0.683474</vAcc></extensions></trkpt>
      <trkpt lon="-3.159014" lat="52.986953"><ele>254.051605</ele><time>2021-09-01T12:34:28Z</time><extensions><speed>0.340096</speed><course>309.271240</course><hAcc>0.983660</hAcc><vAcc>0.680121</vAcc></extensions></trkpt>
      <trkpt lon="-3.159019" lat="52.986952"><ele>253.908371</ele><time>2021-09-01T12:34:29Z</time><extensions><speed>0.339704</speed><course>309.840485</course><hAcc>0.979360</hAcc><vAcc>0.676168</vAcc></extensions></trkpt>
      <trkpt lon="-3.159023" lat="52.986950"><ele>253.764938</ele><time>2021-09-01T12:34:30Z</time><extensions><speed>0.337968</speed><course>308.054108</course><hAcc>0.974663</hAcc><vAcc>0.671891</vAcc></extensions></trkpt>
      <trkpt lon="-3.159028" lat="52.986949"><ele>253.622208</ele><time>2021-09-01T12:34:31Z</time><extensions><speed>0.334225</speed><course>306.226685</course><hAcc>0.969881</hAcc><vAcc>0.667589</vAcc></extensions></trkpt>
      <trkpt lon="-3.159033" lat="52.986948"><ele>253.480972</ele><time>2021-09-01T12:34:32Z</time><extensions><speed>0.328208</speed><course>316.211884</course><hAcc>0.965419</hAcc><vAcc>0.663580</vAcc></extensions></trkpt>
      <trkpt lon="-3.159037" lat="52.986947"><ele>253.341980</ele><time>2021-09-01T12:34:33Z</time><extensions><speed>0.319581</speed><course>312.798523</course><hAcc>0.961711</hAcc><vAcc>0.660179</vAcc></extensions></trkpt>
      <trkpt lon="-3.159042" lat="52.986946"><ele>253.206146</ele><time>2021-09-01T12:34:34Z</time><extensions><speed>0.308354</speed><course>314.823364</course><hAcc>0.959105</hAcc><vAcc>0.657648</vAcc></extensions></trkpt>
      <trkpt lon="-3.159046" lat="52.986946"><ele>253.074478</ele><time>2021-09-01T12:34:35Z</time><extensions><speed>0.295124</speed><course>317.560303</course><hAcc>0.957744</hAcc><vAcc>0.656155</vAcc></extensions></trkpt>
      <trkpt lon="-3.159050" lat="52.986945"><ele>252.947662</ele><time>2021-09-01T12:34:36Z</time><extensions><speed>0.279994</speed><course>313.870911</course><hAcc>0.957531</hAcc><vAcc>0.655786</vAcc></extensions></trkpt>
      <trkpt lon="-3.159054" lat="52.986945"><ele>252.826172</ele><time>2021-09-01T12:34:37Z</time><extensions><speed>0.263060</speed><course>320.858917</course><hAcc>0.958202</hAcc><vAcc>0.656582</vAcc></extensions></trkpt>
      <trkpt lon="-3.159058" lat="52.986944"><ele>252.710358</ele><time>2021-09-01T12:34:38Z</time><extensions><speed>0.244894</speed><course>322.110107</course><hAcc>0.959406</hAcc><vAcc>0.658543</vAcc></extensions></trkpt>
      <trkpt lon="-3.159061" lat="52.986944"><ele>252.600449</ele><time>2021-09-01T12:34:39Z</time><extensions><speed>0.225884</speed><course>322.258118</course><hAcc>0.960788</hAcc><vAcc>0.661599</vAcc></extensions></trkpt>
      <trkpt lon="-3.159065" lat="52.986944"><ele>252.496658</ele><time>2021-09-01T12:34:40Z</time><extensions><speed>0.206433</speed><course>323.751770</course><hAcc>0.962028</hAcc><vAcc>0.665595</vAcc></extensions></trkpt>
      <trkpt lon="-3.159067" lat="52.986943"><ele>252.399353</ele><time>2021-09-01T12:34:41Z</time><extensions><speed>0.187183</speed><course>311.017761</course><hAcc>0.962900</hAcc><vAcc>0.670302</vAcc></extensions></trkpt>
      <trkpt lon="-3.159070" lat="52.986943"><ele>252.308914</ele><time>2021-09-01T12:34:42Z</time><extensions><speed>0.168749</speed><course>303.134949</course><hAcc>0.963306</hAcc><vAcc>0.675467</vAcc></extensions></trkpt>
      <trkpt lon="-3.159072" lat="52.986943"><ele>252.225449</ele><time>2021-09-01T12:34:43Z</time><extensions><speed>0.151988</speed><course>305.266266</course><hAcc>0.963292</hAcc><vAcc>0.680862</vAcc></extensions></trkpt>
      <trkpt lon="-3.159074" lat="52.986943"><ele>252.148911</ele><time>2021-09-01T12:34:44Z</time><extensions><speed>0.137792</speed><course>306.244568</course><hAcc>0.963022</hAcc><vAcc>0.686289</vAcc></extensions></trkpt>
      <trkpt lon="-3.159076" lat="52.986942"><ele>252.079041</ele><time>2021-09-01T12:34:45Z</time><extensions><speed>0.126597</speed><course>311.028961</course><hAcc>0.962754</hAcc><vAcc>0.691568</vAcc></extensions></trkpt>
      <trkpt lon="-3.159078" lat="52.986942"><ele>252.015427</ele><time>2021-09-01T12:34:46Z</time><extensions><speed>0.118690</speed><course>304.990997</course><hAcc>0.962781</hAcc><vAcc>0.696551</vAcc></extensions></trkpt>
      <trkpt lon="-3.159080" lat="52.986942"><ele>251.957626</ele><time>2021-09-01T12:34:47Z</time><extensions><speed>0.113937</speed><course>305.619354</course><hAcc>0.963338</hAcc><vAcc>0.701128</vAcc></extensions></trkpt>
      <trkpt lon="-3.159081" lat="52.986941"><ele>251.905136</ele><time>2021-09-01T12:34:48Z</time><extensions><speed>0.111624</speed><course>319.038269</course><hAcc>0.964503</hAcc><vAcc>0.705220</vAcc></extensions></trkpt>
      <trkpt lon="-3.159083" lat="52.986941"><ele>251.857346</ele><time>2021-09-01T12:34:49Z</time><extensions><speed>0.110697</speed><course>314.772644</course><hAcc>0.966151</hAcc><vAcc>0.708762</vAcc></extensions></trkpt>
      <trkpt lon="-3.159084" lat="52.986940"><ele>251.813583</ele><time>2021-09-01T12:34:50Z</time><extensions><speed>0.109445</speed><course>314.865356</course><hAcc>0.967969</hAcc><vAcc>0.711690</vAcc></extensions></trkpt>
      <trkpt lon="-3.159086" lat="52.986940"><ele>251.773254</ele><time>2021-09-01T12:34:51Z</time><extensions><speed>0.106163</speed><course>315.584076</course><hAcc>0.969553</hAcc><vAcc>0.713940</vAcc></extensions></trkpt>
      <trkpt lon="-3.159087" lat="52.986939"><ele>251.735809</ele><time>2021-09-01T12:34:52Z</time><extensions><speed>0.099925</speed><course>318.301117</course><hAcc>0.970547</hAcc><vAcc>0.715459</vAcc></extensions></trkpt>
      <trkpt lon="-3.159088" lat="52.986939"><ele>251.700912</ele><time>2021-09-01T12:34:53Z</time><extensions><speed>0.090343</speed><course>308.957520</course><hAcc>0.970754</hAcc><vAcc>0.716227</vAcc></extensions></trkpt>
      <trkpt lon="-3.159089" lat="52.986939"><ele>251.668533</ele><time>2021-09-01T12:34:54Z</time><extensions><speed>0.077308</speed><course>309.679749</course><hAcc>0.970166</hAcc><vAcc>0.716253</vAcc></extensions></trkpt>
      <trkpt lon="-3.159090" lat="52.986938"><ele>251.638885</ele><time>2021-09-01T12:34:55Z</time><extensions><speed>0.060749</speed><course>315.508118</course><hAcc>0.968908</hAcc><vAcc>0.715562</vAcc></extensions></trkpt>
      <trkpt lon="-3.159091" lat="52.986938"><ele>251.612335</ele><time>2021-09-01T12:34:56Z</time><extensions><speed>0.040313</speed><course>315.740204</course><hAcc>0.967154</hAcc><vAcc>0.714176</vAcc></extensions></trkpt>
      <trkpt lon="-3.159091" lat="52.986938"><ele>251.589462</ele><time>2021-09-01T12:34:57Z</time><extensions><speed>0.015671</speed><course>310.654785</course><hAcc>0.965068</hAcc><vAcc>0.712095</vAcc></extensions></trkpt>
      <trkpt lon="-3.159091" lat="52.986938"><ele>251.571136</ele><time>2021-09-01T12:34:58Z</time><extensions><speed>0.013814</speed><course>314.784058</course><hAcc>0.962743</hAcc><vAcc>0.709297</vAcc></extensions></trkpt>
      <trkpt lon="-3.159091" lat="52.986938"><ele>251.558273</ele><time>2021-09-01T12:34:59Z</time><extensions><speed>0.046014</speed><course>306.836517</course><hAcc>0.960160</hAcc><vAcc>0.705734</vAcc></extensions></trkpt>
      <trkpt lon="-3.159090" lat="52.986938"><ele>251.552002</ele><time>2021-09-01T12:35:00Z</time><extensions><speed>0.080098</speed><course>319.014709</course><hAcc>0.957187</hAcc><vAcc>0.701351</vAcc></extensions></trkpt>
      <trkpt lon="-3.159089" lat="52.986939"><ele>251.553497</ele><time>2021-09-01T12:35:01Z</time><extensions><speed>0.113532</speed><course>316.668060</course><hAcc>0.953632</hAcc><vAcc>0.696107</vAcc></extensions></trkpt>
      <trkpt lon="-3.159087" lat="52.986939"><ele>251.563858</ele><time>2021-09-01T12:35:02Z</time><extensions><speed>0.143785</speed><course>317.381256</course><hAcc>0.949322</hAcc><vAcc>0.690009</vAcc></extensions></trkpt>
      <trkpt lon="-3.159085" lat="52.986940"><ele>251.583954</ele><time>2021-09-01T12:35:03Z</time><extensions><speed>0.168635</speed><course>315.522644</course><hAcc>0.944177</hAcc><vAcc>0.683150</vAcc></extensions></trkpt>
      <trkpt lon="-3.159082" lat="52.986940"><ele>251.614334</ele><time>2021-09-01T12:35:04Z</time><extensions><speed>0.186403</speed><course>313.748596</course><hAcc>0.938275</hAcc><vAcc>0.675728</vAcc></extensions></trkpt>
      <trkpt lon="-3.159080" lat="52.986941"><ele>251.654938</ele><time>2021-09-01T12:35:05Z</time><extensions><speed>0.196435</speed><course>311.298676</course><hAcc>0.931888</hAcc><vAcc>0.668043</vAcc></extensions></trkpt>
      <trkpt lon="-3.159077" lat="52.986942"><ele>251.705185</ele><time>2021-09-01T12:35:06Z</time><extensions><speed>0.198785</speed><course>307.453308</course><hAcc>0.925411</hAcc><vAcc>0.660454</vAcc></extensions></trkpt>
      <trkpt lon="-3.159075" lat="52.986943"><ele>251.764023</ele><time>2021-09-01T12:35:07Z</time><extensions><speed>0.194313</speed><course>308.937561</course><hAcc>0.919192</hAcc><vAcc>0.653333</vAcc></extensions></trkpt>
      <trkpt lon="-3.159072" lat="52.986943"><ele>251.830048</ele><time>2021-09-01T12:35:08Z</time><extensions><speed>0.184686</speed><course>304.505646</course><hAcc>0.913423</hAcc><vAcc>0.647027</vAcc></extensions></trkpt>
      <trkpt lon="-3.159070" lat="52.986944"><ele>251.901413</ele><time>2021-09-01T12:35:09Z</time><extensions><speed>0.171613</speed><course>299.094574</course><hAcc>0.908173</hAcc><vAcc>0.641809</vAcc></extensions></trkpt>
      <trkpt lon="-3.159067" lat="52.986944"><ele>251.976120</ele><time>2021-09-01T12:35:10Z</time><extensions><speed>0.156956</speed><course>310.704071</course><hAcc>0.903536</hAcc><vAcc>0.637821</vAcc></extensions></trkpt>
      <trkpt lon="-3.159065" lat="52.986945"><ele>252.052017</ele><time>2021-09-01T12:35:11Z</time><extensions><speed>0.143159</speed><course>308.713898</course><hAcc>0.899749</hAcc><vAcc>0.635054</vAcc></extensions></trkpt>
      <trkpt lon="-3.159063" lat="52.986944"><ele>252.126709</ele><time>2021-09-01T12:35:12Z</time><extensions><speed>0.133211</speed><course>315.990417</course><hAcc>0.897118</hAcc><vAcc>0.633364</vAcc></extensions></trkpt>
      <trkpt lon="-3.159061" lat="52.986944"><ele>252.197495</ele><time>2021-09-01T12:35:13Z</time><extensions><speed>0.129410</speed><course>316.941956</course><hAcc>0.895889</hAcc><vAcc>0.632523</vAcc></extensions></trkpt>
      <trkpt lon="-3.159059" lat="52.986944"><ele>252.262054</ele><time>2021-09-01T12:35:14Z</time><extensions><speed>0.132302</speed><course>326.025696</course><hAcc>0.896166</hAcc><vAcc>0.632290</vAcc></extensions></trkpt>
      <trkpt lon="-3.159058" lat="52.986943"><ele>252.318710</ele><time>2021-09-01T12:35:15Z</time><extensions><speed>0.139933</speed><course>316.997101</course><hAcc>0.897883</hAcc><vAcc>0.632460</vAcc></extensions></trkpt>
      <trkpt lon="-3.159056" lat="52.986942"><ele>252.366455</ele><time>2021-09-01T12:35:16Z</time><extensions><speed>0.149112</speed><course>307.396637</course><hAcc>0.900837</hAcc><vAcc>0.632875</vAcc></extensions></trkpt>
      <trkpt lon="-3.159055" lat="52.986941"><ele>252.404877</ele><time>2021-09-01T12:35:18Z</time><extensions><speed>0.156985</speed><course>307.245117</course><hAcc>0.904749</hAcc><vAcc>0.633409</vAcc></extensions></trkpt>
      <trkpt lon="-3.159054" lat="52.986939"><ele>252.433868</ele><time>2021-09-01T12:35:19Z</time><extensions><speed>0.162105</speed><course>302.943970</course><hAcc>0.909348</hAcc><vAcc>0.634000</vAcc></extensions></trkpt>
      <trkpt lon="-3.159054" lat="52.986938"><ele>252.453583</ele><time>2021-09-01T12:35:20Z</time><extensions><speed>0.164598</speed><course>310.986115</course><hAcc>0.914428</hAcc><vAcc>0.634646</vAcc></extensions></trkpt>
      <trkpt lon="-3.159053" lat="52.986937"><ele>252.464157</ele><time>2021-09-01T12:35:21Z</time><extensions><speed>0.165389</speed><course>317.229156</course><hAcc>0.919783</hAcc><vAcc>0.635356</vAcc></extensions></trkpt>
      <trkpt lon="-3.159053" lat="52.986935"><ele>252.465500</ele><time>2021-09-01T12:35:22Z</time><extensions><speed>0.166134</speed><course>310.287506</course><hAcc>0.925223</hAcc><vAcc>0.636160</vAcc></extensions></trkpt>
      <trkpt lon="-3.159054" lat="52.986934"><ele>252.457275</ele><time>2021-09-01T12:35:23Z</time><extensions><speed>0.168633</speed><course>314.657898</course><hAcc>0.930565</hAcc><vAcc>0.637094</vAcc></extensions></trkpt>
      <trkpt lon="-3.159054" lat="52.986932"><ele>252.438782</ele><time>2021-09-01T12:35:24Z</time><extensions><speed>0.174938</speed><course>316.163879</course><hAcc>0.935643</hAcc><vAcc>0.638179</vAcc></extensions></trkpt>
      <trkpt lon="-3.159056" lat="52.986931"><ele>252.409119</ele><time>2021-09-01T12:35:25Z</time><extensions><speed>0.187478</speed><course>315.280670</course><hAcc>0.940304</hAcc><vAcc>0.639406</vAcc></extensions></trkpt>
      <trkpt lon="-3.159058" lat="52.986929"><ele>252.367371</ele><time>2021-09-01T12:35:26Z</time><extensions><speed>0.207873</speed><course>323.358459</course><hAcc>0.944421</hAcc><vAcc>0.640748</vAcc></extensions></trkpt>
      <trkpt lon="-3.159060" lat="52.986928"><ele>252.312546</ele><time>2021-09-01T12:35:27Z</time><extensions><speed>0.236166</speed><course>323.478973</course><hAcc>0.947897</hAcc><vAcc>0.642157</vAcc></extensions></trkpt>
      <trkpt lon="-3.159064" lat="52.986927"><ele>252.243591</ele><time>2021-09-01T12:35:28Z</time><extensions><speed>0.271440</speed><course>327.884216</course><hAcc>0.950647</hAcc><vAcc>0.643578</vAcc></extensions></trkpt>
      <trkpt lon="-3.159068" lat="52.986926"><ele>252.159454</ele><time>2021-09-01T12:35:29Z</time><extensions><speed>0.312189</speed><course>318.187775</course><hAcc>0.952575</hAcc><vAcc>0.644965</vAcc></extensions></trkpt>
      <trkpt lon="-3.159073" lat="52.986926"><ele>252.059235</ele><time>2021-09-01T12:35:29Z</time><extensions><speed>0.356840</speed><course>318.936035</course><hAcc>0.953576</hAcc><vAcc>0.646313</vAcc></extensions></trkpt>
      <trkpt lon="-3.159078" lat="52.986925"><ele>251.941849</ele><time>2021-09-01T12:35:30Z</time><extensions><speed>0.404817</speed><course>326.780121</course><hAcc>0.953511</hAcc><vAcc>0.647634</vAcc></extensions></trkpt>
      <trkpt lon="-3.159085" lat="52.986925"><ele>251.806656</ele><time>2021-09-01T12:35:31Z</time><extensions><speed>0.455700</speed><course>314.218445</course><hAcc>0.952214</hAcc><vAcc>0.648948</vAcc></extensions></trkpt>
      <trkpt lon="-3.159092" lat="52.986924"><ele>251.653030</ele><time>2021-09-01T12:35:32Z</time><extensions><speed>0.509082</speed><course>317.554047</course><hAcc>0.949562</hAcc><vAcc>0.650288</vAcc></extensions></trkpt>
      <trkpt lon="-3.159100" lat="52.986924"><ele>251.480392</ele><time>2021-09-01T12:35:33Z</time><extensions><speed>0.563877</speed><course>317.225586</course><hAcc>0.945491</hAcc><vAcc>0.651689</vAcc></extensions></trkpt>
      <trkpt lon="-3.159109" lat="52.986924"><ele>251.288559</ele><time>2021-09-01T12:35:34Z</time><extensions><speed>0.618250</speed><course>318.371796</course><hAcc>0.940034</hAcc><vAcc>0.653189</vAcc></extensions></trkpt>
      <trkpt lon="-3.159118" lat="52.986924"><ele>251.077942</ele><time>2021-09-01T12:35:35Z</time><extensions><speed>0.670278</speed><course>319.534454</course><hAcc>0.933351</hAcc><vAcc>0.654837</vAcc></extensions></trkpt>
      <trkpt lon="-3.159129" lat="52.986924"><ele>250.849686</ele><time>2021-09-01T12:35:36Z</time><extensions><speed>0.718084</speed><course>319.948578</course><hAcc>0.925747</hAcc><vAcc>0.656685</vAcc></extensions></trkpt>
      <trkpt lon="-3.159140" lat="52.986924"><ele>250.605743</ele><time>2021-09-01T12:35:37Z</time><extensions><speed>0.759830</speed><course>326.867279</course><hAcc>0.917658</hAcc><vAcc>0.658790</vAcc></extensions></trkpt>
      <trkpt lon="-3.159151" lat="52.986924"><ele>250.348816</ele><time>2021-09-01T12:35:38Z</time><extensions><speed>0.794095</speed><course>319.995087</course><hAcc>0.909620</hAcc><vAcc>0.661214</vAcc></extensions></trkpt>
      <trkpt lon="-3.159163" lat="52.986924"><ele>250.082199</ele><time>2021-09-01T12:35:39Z</time><extensions><speed>0.820294</speed><course>323.754486</course><hAcc>0.902180</hAcc><vAcc>0.664015</vAcc></extensions></trkpt>
      <trkpt lon="-3.159176" lat="52.986924"><ele>249.809402</ele><time>2021-09-01T12:35:40Z</time><extensions><speed>0.838628</speed><course>327.994751</course><hAcc>0.895764</hAcc><vAcc>0.667203</vAcc></extensions></trkpt>
      <trkpt lon="-3.159188" lat="52.986924"><ele>249.533829</ele><time>2021-09-01T12:35:41Z</time><extensions><speed>0.849811</speed><course>338.740143</course><hAcc>0.890604</hAcc><vAcc>0.670710</vAcc></extensions></trkpt>
      <trkpt lon="-3.159201" lat="52.986924"><ele>249.258682</ele><time>2021-09-01T12:35:42Z</time><extensions><speed>0.854486</speed><course>336.648224</course><hAcc>0.886750</hAcc><vAcc>0.674413</vAcc></extensions></trkpt>
      <trkpt lon="-3.159214" lat="52.986924"><ele>248.986526</ele><time>2021-09-01T12:35:43Z</time><extensions><speed>0.853990</speed><course>335.818359</course><hAcc>0.884106</hAcc><vAcc>0.678167</vAcc></extensions></trkpt>
      <trkpt lon="-3.159226" lat="52.986924"><ele>248.718887</ele><time>2021-09-01T12:35:44Z</time><extensions><speed>0.849911</speed><course>332.183533</course><hAcc>0.882485</hAcc><vAcc>0.681833</vAcc></extensions></trkpt>
      <trkpt lon="-3.159239" lat="52.986924"><ele>248.456284</ele><time>2021-09-01T12:35:45Z</time><extensions><speed>0.843842</speed><course>329.123840</course><hAcc>0.881661</hAcc><vAcc>0.685284</vAcc></extensions></trkpt>
      <trkpt lon="-3.159251" lat="52.986923"><ele>248.198517</ele><time>2021-09-01T12:35:46Z</time><extensions><speed>0.837727</speed><course>331.386230</course><hAcc>0.881410</hAcc><vAcc>0.688419</vAcc></extensions></trkpt>
      <trkpt lon="-3.159264" lat="52.986923"><ele>247.945251</ele><time>2021-09-01T12:35:47Z</time><extensions><speed>0.832744</speed><course>327.161377</course><hAcc>0.881533</hAcc><vAcc>0.691174</vAcc></extensions></trkpt>
      <trkpt lon="-3.159276" lat="52.986922"><ele>247.696167</ele><time>2021-09-01T12:35:48Z</time><extensions><speed>0.829125</speed><course>327.868042</course><hAcc>0.881869</hAcc><vAcc>0.693522</vAcc></extensions></trkpt>
      <trkpt lon="-3.159288" lat="52.986922"><ele>247.450775</ele><time>2021-09-01T12:35:49Z</time><extensions><speed>0.826268</speed><course>323.627838</course><hAcc>0.882301</hAcc><vAcc>0.695472</vAcc></extensions></trkpt>
      <trkpt lon="-3.159301" lat="52.986921"><ele>247.208313</ele><time>2021-09-01T12:35:50Z</time><extensions><speed>0.823526</speed><course>324.612000</course><hAcc>0.882747</hAcc><vAcc>0.697057</vAcc></extensions></trkpt>
      <trkpt lon="-3.159313" lat="52.986921"><ele>246.967896</ele><time>2021-09-01T12:35:51Z</time><extensions><speed>0.820933</speed><course>314.250275</course><hAcc>0.883159</hAcc><vAcc>0.698324</vAcc></extensions></trkpt>
      <trkpt lon="-3.159325" lat="52.986920"><ele>246.729111</ele><time>2021-09-01T12:35:52Z</time><extensions><speed>0.819416</speed><course>324.325928</course><hAcc>0.883513</hAcc><vAcc>0.699323</vAcc></extensions></trkpt>
      <trkpt lon="-3.159337" lat="52.986919"><ele>246.491974</ele><time>2021-09-01T12:35:53Z</time><extensions><speed>0.819327</speed><course>323.620239</course><hAcc>0.883800</hAcc><vAcc>0.700105</vAcc></extensions></trkpt>
      <trkpt lon="-3.159349" lat="52.986919"><ele>246.256622</ele><time>2021-09-01T12:35:54Z</time><extensions><speed>0.819774</speed><course>318.647095</course><hAcc>0.884024</hAcc><vAcc>0.700715</vAcc></extensions></trkpt>
      <trkpt lon="-3.159361" lat="52.986918"><ele>246.023422</ele><time>2021-09-01T12:35:55Z</time><extensions><speed>0.819776</speed><course>325.356964</course><hAcc>0.884193</hAcc><vAcc>0.701191</vAcc></extensions></trkpt>
      <trkpt lon="-3.159374" lat="52.986917"><ele>245.793091</ele><time>2021-09-01T12:35:56Z</time><extensions><speed>0.818513</speed><course>319.826599</course><hAcc>0.884317</hAcc><vAcc>0.701564</vAcc></extensions></trkpt>
      <trkpt lon="-3.159386" lat="52.986916"><ele>245.566330</ele><time>2021-09-01T12:35:57Z</time><extensions><speed>0.815144</speed><course>314.735016</course><hAcc>0.884407</hAcc><vAcc>0.701858</vAcc></extensions></trkpt>
      <trkpt lon="-3.159398" lat="52.986915"><ele>245.343582</ele><time>2021-09-01T12:35:58Z</time><extensions><speed>0.809286</speed><course>309.478760</course><hAcc>0.884469</hAcc><vAcc>0.702093</vAcc></extensions></trkpt>
      <trkpt lon="-3.159409" lat="52.986914"><ele>245.125031</ele><time>2021-09-01T12:35:59Z</time><extensions><speed>0.800807</speed><course>319.543488</course><hAcc>0.884513</hAcc><vAcc>0.702283</vAcc></extensions></trkpt>
      <trkpt lon="-3.159421" lat="52.986913"><ele>244.910553</ele><time>2021-09-01T12:36:00Z</time><extensions><speed>0.789860</speed><course>324.087982</course><hAcc>0.884542</hAcc><vAcc>0.702432</vAcc></extensions></trkpt>
      <trkpt lon="-3.159433" lat="52.986912"><ele>244.699783</ele><time>2021-09-01T12:36:01Z</time><extensions><speed>0.776828</speed><course>317.628326</course><hAcc>0.884559</hAcc><vAcc>0.702538</vAcc></extensions></trkpt>
      <trkpt lon="-3.159444" lat="52.986911"><ele>244.492569</ele><time>2021-09-01T12:36:02Z</time><extensions><speed>0.761805</speed><course>311.843903</course><hAcc>0.884567</hAcc><vAcc>0.702598</vAcc></extensions></trkpt>
      <trkpt lon="-3.159455" lat="52.986910"><ele>244.289490</ele><time>2021-09-01T12:36:03Z</time><extensions><speed>0.744705</speed><course>320.026215</course><hAcc>0.884569</hAcc><vAcc>0.702610</vAcc></extensions></trkpt>
      <trkpt lon="-3.159466" lat="52.986909"><ele>244.091675</ele><time>2021-09-01T12:36:04Z</time><extensions><speed>0.726166</speed><course>320.448669</course><hAcc>0.884565</hAcc><vAcc>0.702582</vAcc></extensions></trkpt>
      <trkpt lon="-3.159476" lat="52.986907"><ele>243.899796</ele><time>2021-09-01T12:36:05Z</time><extensions><speed>0.707961</speed><course>324.626526</course><hAcc>0.884559</hAcc><vAcc>0.702529</vAcc></extensions></trkpt>
      <trkpt lon="-3.159486" lat="52.986905"><ele>243.713623</ele><time>2021-09-01T12:36:06Z</time><extensions><speed>0.692114</speed><course>326.167938</course><hAcc>0.884552</hAcc><vAcc>0.702469</vAcc></extensions></trkpt>
      <trkpt lon="-3.159496" lat="52.986903"><ele>243.532349</ele><time>2021-09-01T12:36:07Z</time><extensions><speed>0.680094</speed><course>325.390656</course><hAcc>0.884548</hAcc><vAcc>0.702420</vAcc></extensions></trkpt>
      <trkpt lon="-3.159505" lat="52.986901"><ele>243.354813</ele><time>2021-09-01T12:36:08Z</time><extensions><speed>0.672335</speed><course>314.974457</course><hAcc>0.884550</hAcc><vAcc>0.702398</vAcc></extensions></trkpt>
      <trkpt lon="-3.159514" lat="52.986899"><ele>243.179474</ele><time>2021-09-01T12:36:09Z</time><extensions><speed>0.669074</speed><course>325.724579</course><hAcc>0.884559</hAcc><vAcc>0.702410</vAcc></extensions></trkpt>
      <trkpt lon="-3.159523" lat="52.986896"><ele>243.004578</ele><time>2021-09-01T12:36:10Z</time><extensions><speed>0.670176</speed><course>318.034210</course><hAcc>0.884577</hAcc><vAcc>0.702460</vAcc></extensions></trkpt>
      <trkpt lon="-3.159532" lat="52.986894"><ele>242.828461</ele><time>2021-09-01T12:36:11Z</time><extensions><speed>0.675199</speed><course>313.475250</course><hAcc>0.884607</hAcc><vAcc>0.702548</vAcc></extensions></trkpt>
      <trkpt lon="-3.159541" lat="52.986891"><ele>242.650116</ele><time>2021-09-01T12:36:12Z</time><extensions><speed>0.683849</speed><course>321.089203</course><hAcc>0.884649</hAcc><vAcc>0.702673</vAcc></extensions></trkpt>
      <trkpt lon="-3.159550" lat="52.986887"><ele>242.469406</ele><time>2021-09-01T12:36:13Z</time><extensions><speed>0.695660</speed><course>329.810181</course><hAcc>0.884703</hAcc><vAcc>0.702839</vAcc></extensions></trkpt>
      <trkpt lon="-3.159559" lat="52.986884"><ele>242.286575</ele><time>2021-09-01T12:36:14Z</time><extensions><speed>0.710063</speed><course>327.314850</course><hAcc>0.884769</hAcc><vAcc>0.703050</vAcc></extensions></trkpt>
      <trkpt lon="-3.159568" lat="52.986880"><ele>242.101791</ele><time>2021-09-01T12:36:15Z</time><extensions><speed>0.725631</speed><course>321.503876</course><hAcc>0.884846</hAcc><vAcc>0.703309</vAcc></extensions></trkpt>
      <trkpt lon="-3.159577" lat="52.986877"><ele>241.915100</ele><time>2021-09-01T12:36:16Z</time><extensions><speed>0.741087</speed><course>323.534607</course><hAcc>0.884933</hAcc><vAcc>0.703614</vAcc></extensions></trkpt>
      <trkpt lon="-3.159586" lat="52.986873"><ele>241.726379</ele><time>2021-09-01T12:36:17Z</time><extensions><speed>0.755901</speed><course>325.158722</course><hAcc>0.885028</hAcc><vAcc>0.703951</vAcc></extensions></trkpt>
      <trkpt lon="-3.159596" lat="52.986869"><ele>241.535355</ele><time>2021-09-01T12:36:18Z</time><extensions><speed>0.769358</speed><course>329.447083</course><hAcc>0.885127</hAcc><vAcc>0.704305</vAcc></extensions></trkpt>
      <trkpt lon="-3.159605" lat="52.986866"><ele>241.342026</ele><time>2021-09-01T12:36:19Z</time><extensions><speed>0.780067</speed><course>331.191650</course><hAcc>0.885230</hAcc><vAcc>0.704660</vAcc></extensions></trkpt>
      <trkpt lon="-3.159615" lat="52.986862"><ele>241.146927</ele><time>2021-09-01T12:36:20Z</time><extensions><speed>0.786780</speed><course>334.557068</course><hAcc>0.885332</hAcc><vAcc>0.705005</vAcc></extensions></trkpt>
      <trkpt lon="-3.159625" lat="52.986858"><ele>240.951218</ele><time>2021-09-01T12:36:21Z</time><extensions><speed>0.789197</speed><course>336.690918</course><hAcc>0.885433</hAcc><vAcc>0.705333</vAcc></extensions></trkpt>
      <trkpt lon="-3.159634" lat="52.986853"><ele>240.756195</ele><time>2021-09-01T12:36:22Z</time><extensions><speed>0.787432</speed><course>337.183258</course><hAcc>0.885530</hAcc><vAcc>0.705640</vAcc></extensions></trkpt>
      <trkpt lon="-3.159643" lat="52.986849"><ele>240.563324</ele><time>2021-09-01T12:36:23Z</time><extensions><speed>0.782549</speed><course>318.997711</course><hAcc>0.885623</hAcc><vAcc>0.705925</vAcc></extensions></trkpt>
      <trkpt lon="-3.159652" lat="52.986844"><ele>240.374191</ele><time>2021-09-01T12:36:24Z</time><extensions><speed>0.777174</speed><course>315.791901</course><hAcc>0.885711</hAcc><vAcc>0.706189</vAcc></extensions></trkpt>
      <trkpt lon="-3.159660" lat="52.986839"><ele>240.190460</ele><time>2021-09-01T12:36:25Z</time><extensions><speed>0.775140</speed><course>315.791901</course><hAcc>0.885793</hAcc><vAcc>0.706435</vAcc></extensions></trkpt>
      <trkpt lon="-3.159667" lat="52.986834"><ele>240.013672</ele><time>2021-09-01T12:36:26Z</time><extensions><speed>0.780509</speed><course>315.791901</course><hAcc>0.885870</hAcc><vAcc>0.706671</vAcc></extensions></trkpt>
      <trkpt lon="-3.159673" lat="52.986828"><ele>239.844894</ele><time>2021-09-01T12:36:27Z</time><extensions><speed>0.796586</speed><course>315.791901</course><hAcc>0.885941</hAcc><vAcc>0.706897</vAcc></extensions></trkpt>
      <trkpt lon="-3.159679" lat="52.986821"><ele>239.684906</ele><time>2021-09-01T12:36:28Z</time><extensions><speed>0.824805</speed><course>315.791901</course><hAcc>0.886006</hAcc><vAcc>0.707115</vAcc></extensions></trkpt>
      <trkpt lon="-3.159684" lat="52.986814"><ele>239.534317</ele><time>2021-09-01T12:36:29Z</time><extensions><speed>0.864793</speed><course>315.791901</course><hAcc>0.886065</hAcc><vAcc>0.707319</vAcc></extensions></trkpt>
      <trkpt lon="-3.159687" lat="52.986807"><ele>239.393555</ele><time>2021-09-01T12:36:30Z</time><extensions><speed>0.914596</speed><course>315.791901</course><hAcc>0.886117</hAcc><vAcc>0.707501</vAcc></extensions></trkpt>
      <trkpt lon="-3.159690" lat="52.986798"><ele>239.262619</ele><time>2021-09-01T12:36:31Z</time><extensions><speed>0.970710</speed><course>315.791901</course><hAcc>0.886162</hAcc><vAcc>0.707658</vAcc></extensions></trkpt>
      <trkpt lon="-3.159692" lat="52.986789"><ele>239.140930</ele><time>2021-09-01T12:36:32Z</time><extensions><speed>1.028744</speed><course>315.791901</course><hAcc>0.886198</hAcc><vAcc>0.707787</vAcc></extensions></trkpt>
      <trkpt lon="-3.159694" lat="52.986780"><ele>239.027420</ele><time>2021-09-01T12:36:33Z</time><extensions><speed>1.084511</speed><course>315.791901</course><hAcc>0.886227</hAcc><vAcc>0.707887</vAcc></extensions></trkpt>
      <trkpt lon="-3.159695" lat="52.986770"><ele>238.920547</ele><time>2021-09-01T12:36:34Z</time><extensions><speed>1.135105</speed><course>315.791901</course><hAcc>0.886249</hAcc><vAcc>0.707957</vAcc></extensions></trkpt>
      <trkpt lon="-3.159696" lat="52.986760"><ele>238.818222</ele><time>2021-09-01T12:36:35Z</time><extensions><speed>1.179012</speed><course>315.791901</course><hAcc>0.886264</hAcc><vAcc>0.707993</vAcc></extensions></trkpt>
      <trkpt lon="-3.159696" lat="52.986749"><ele>238.717957</ele><time>2021-09-01T12:36:36Z</time><extensions><speed>1.215798</speed><course>315.791901</course><hAcc>0.886273</hAcc><vAcc>0.707996</vAcc></extensions></trkpt>
      <trkpt lon="-3.159696" lat="52.986738"><ele>238.617050</ele><time>2021-09-01T12:36:37Z</time><extensions><speed>1.245920</speed><course>315.791901</course><hAcc>0.886278</hAcc><vAcc>0.707974</vAcc></extensions></trkpt>
      <trkpt lon="-3.159695" lat="52.986727"><ele>238.512939</ele><time>2021-09-01T12:36:38Z</time><extensions><speed>1.270174</speed><course>315.791901</course><hAcc>0.886280</hAcc><vAcc>0.707940</vAcc></extensions></trkpt>
      <trkpt lon="-3.159694" lat="52.986715"><ele>238.403732</ele><time>2021-09-01T12:36:39Z</time><extensions><speed>1.289420</speed><course>324.368835</course><hAcc>0.886281</hAcc><vAcc>0.707910</vAcc></extensions></trkpt>
      <trkpt lon="-3.159694" lat="52.986703"><ele>238.288757</ele><time>2021-09-01T12:36:40Z</time><extensions><speed>1.304385</speed><course>336.936340</course><hAcc>0.886280</hAcc><vAcc>0.707894</vAcc></extensions></trkpt>
      <trkpt lon="-3.159692" lat="52.986692"><ele>238.167923</ele><time>2021-09-01T12:36:41Z</time><extensions><speed>1.315546</speed><course>334.067902</course><hAcc>0.886278</hAcc><vAcc>0.707896</vAcc></extensions></trkpt>
      <trkpt lon="-3.159691" lat="52.986680"><ele>238.041229</ele><time>2021-09-01T12:36:42Z</time><extensions><speed>1.323530</speed><course>335.500000</course><hAcc>0.886273</hAcc><vAcc>0.707911</vAcc></extensions></trkpt>
      <trkpt lon="-3.159689" lat="52.986668"><ele>237.908890</ele><time>2021-09-01T12:36:43Z</time><extensions><speed>1.329333</speed><course>331.822205</course><hAcc>0.886264</hAcc><vAcc>0.707928</vAcc></extensions></trkpt>
      <trkpt lon="-3.159687" lat="52.986656"><ele>237.771805</ele><time>2021-09-01T12:36:44Z</time><extensions><speed>1.333853</speed><course>332.566284</course><hAcc>0.886247</hAcc><vAcc>0.707931</vAcc></extensions></trkpt>
      <trkpt lon="-3.159685" lat="52.986644"><ele>237.631546</ele><time>2021-09-01T12:36:45Z</time><extensions><speed>1.337328</speed><course>322.442413</course><hAcc>0.886218</hAcc><vAcc>0.707902</vAcc></extensions></trkpt>
      <trkpt lon="-3.159682" lat="52.986632"><ele>237.489929</ele><time>2021-09-01T12:36:46Z</time><extensions><speed>1.339530</speed><course>328.923309</course><hAcc>0.886175</hAcc><vAcc>0.707823</vAcc></extensions></trkpt>
      <trkpt lon="-3.159679" lat="52.986620"><ele>237.348877</ele><time>2021-09-01T12:36:47Z</time><extensions><speed>1.340659</speed><course>332.979462</course><hAcc>0.886113</hAcc><vAcc>0.707673</vAcc></extensions></trkpt>
      <trkpt lon="-3.159675" lat="52.986609"><ele>237.210678</ele><time>2021-09-01T12:36:48Z</time><extensions><speed>1.340863</speed><course>326.583588</course><hAcc>0.886028</hAcc><vAcc>0.707436</vAcc></extensions></trkpt>
      <trkpt lon="-3.159670" lat="52.986597"><ele>237.077652</ele><time>2021-09-01T12:36:49Z</time><extensions><speed>1.339725</speed><course>333.004852</course><hAcc>0.885918</hAcc><vAcc>0.707102</vAcc></extensions></trkpt>
      <trkpt lon="-3.159665" lat="52.986585"><ele>236.951874</ele><time>2021-09-01T12:36:50Z</time><extensions><speed>1.337286</speed><course>328.891602</course><hAcc>0.885780</hAcc><vAcc>0.706665</vAcc></extensions></trkpt>
      <trkpt lon="-3.159660" lat="52.986574"><ele>236.835403</ele><time>2021-09-01T12:36:51Z</time><extensions><speed>1.334038</speed><course>329.156494</course><hAcc>0.885612</hAcc><vAcc>0.706126</vAcc></extensions></trkpt>
      <trkpt lon="-3.159653" lat="52.986562"><ele>236.730179</ele><time>2021-09-01T12:36:52Z</time><extensions><speed>1.330682</speed><course>329.450256</course><hAcc>0.885412</hAcc><vAcc>0.705486</vAcc></extensions></trkpt>
      <trkpt lon="-3.159646" lat="52.986551"><ele>236.637085</ele><time>2021-09-01T12:36:53Z</time><extensions><speed>1.327458</speed><course>329.886902</course><hAcc>0.885178</hAcc><vAcc>0.704746</vAcc></extensions></trkpt>
      <trkpt lon="-3.159638" lat="52.986540"><ele>236.555450</ele><time>2021-09-01T12:36:54Z</time><extensions><speed>1.324346</speed><course>332.708923</course><hAcc>0.884910</hAcc><vAcc>0.703908</vAcc></extensions></trkpt>
      <trkpt lon="-3.159630" lat="52.986530"><ele>236.484177</ele><time>2021-09-01T12:36:55Z</time><extensions><speed>1.321734</speed><course>337.086456</course><hAcc>0.884607</hAcc><vAcc>0.702972</vAcc></extensions></trkpt>
      <trkpt lon="-3.159621" lat="52.986519"><ele>236.422394</ele><time>2021-09-01T12:36:56Z</time><extensions><speed>1.320050</speed><course>335.947693</course><hAcc>0.884267</hAcc><vAcc>0.701932</vAcc></extensions></trkpt>
      <trkpt lon="-3.159611" lat="52.986509"><ele>236.369537</ele><time>2021-09-01T12:36:57Z</time><extensions><speed>1.319381</speed><course>332.293579</course><hAcc>0.883890</hAcc><vAcc>0.700778</vAcc></extensions></trkpt>
      <trkpt lon="-3.159602" lat="52.986498"><ele>236.325195</ele><time>2021-09-01T12:36:58Z</time><extensions><speed>1.319657</speed><course>330.673279</course><hAcc>0.883476</hAcc><vAcc>0.699501</vAcc></extensions></trkpt>
      <trkpt lon="-3.159591" lat="52.986488"><ele>236.288544</ele><time>2021-09-01T12:36:59Z</time><extensions><speed>1.321197</speed><course>325.868774</course><hAcc>0.883028</hAcc><vAcc>0.698093</vAcc></extensions></trkpt>
      <trkpt lon="-3.159580" lat="52.986478"><ele>236.258148</ele><time>2021-09-01T12:37:00Z</time><extensions><speed>1.324066</speed><course>320.652771</course><hAcc>0.882547</hAcc><vAcc>0.696556</vAcc></extensions></trkpt>
      <trkpt lon="-3.159569" lat="52.986469"><ele>236.232452</ele><time>2021-09-01T12:37:01Z</time><extensions><speed>1.327399</speed><course>317.759430</course><hAcc>0.882041</hAcc><vAcc>0.694908</vAcc></extensions></trkpt>
      <trkpt lon="-3.159558" lat="52.986459"><ele>236.209976</ele><time>2021-09-01T12:37:02Z</time><extensions><speed>1.330453</speed><course>312.631989</course><hAcc>0.881514</hAcc><vAcc>0.693176</vAcc></extensions></trkpt>
      <trkpt lon="-3.159546" lat="52.986449"><ele>236.189163</ele><time>2021-09-01T12:37:03Z</time><extensions><speed>1.332966</speed><course>318.114197</course><hAcc>0.880976</hAcc><vAcc>0.691394</vAcc></extensions></trkpt>
      <trkpt lon="-3.159534" lat="52.986440"><ele>236.168442</ele><time>2021-09-01T12:37:04Z</time><extensions><speed>1.334847</speed><course>324.507172</course><hAcc>0.880435</hAcc><vAcc>0.689603</vAcc></extensions></trkpt>
      <trkpt lon="-3.159522" lat="52.986430"><ele>236.146561</ele><time>2021-09-01T12:37:05Z</time><extensions><speed>1.336184</speed><course>327.082703</course><hAcc>0.879898</hAcc><vAcc>0.687841</vAcc></extensions></trkpt>
      <trkpt lon="-3.159510" lat="52.986420"><ele>236.122940</ele><time>2021-09-01T12:37:06Z</time><extensions><speed>1.337111</speed><course>329.958954</course><hAcc>0.879375</hAcc><vAcc>0.686140</vAcc></extensions></trkpt>
      <trkpt lon="-3.159498" lat="52.986411"><ele>236.097595</ele><time>2021-09-01T12:37:07Z</time><extensions><speed>1.337609</speed><course>328.035645</course><hAcc>0.878869</hAcc><vAcc>0.684518</vAcc></extensions></trkpt>
      <trkpt lon="-3.159485" lat="52.986402"><ele>236.070587</ele><time>2021-09-01T12:37:08Z</time><extensions><speed>1.337411</speed><course>327.514526</course><hAcc>0.878385</hAcc><vAcc>0.682984</vAcc></extensions></trkpt>
      <trkpt lon="-3.159473" lat="52.986392"><ele>236.041794</ele><time>2021-09-01T12:37:09Z</time><extensions><speed>1.336669</speed><course>320.027710</course><hAcc>0.877926</hAcc><vAcc>0.681537</vAcc></extensions></trkpt>
      <trkpt lon="-3.159460" lat="52.986383"><ele>236.011215</ele><time>2021-09-01T12:37:10Z</time><extensions><speed>1.335639</speed><course>323.596710</course><hAcc>0.877491</hAcc><vAcc>0.680173</vAcc></extensions></trkpt>
      <trkpt lon="-3.159448" lat="52.986374"><ele>235.978989</ele><time>2021-09-01T12:37:11Z</time><extensions><speed>1.334530</speed><course>326.277405</course><hAcc>0.877080</hAcc><vAcc>0.678885</vAcc></extensions></trkpt>
      <trkpt lon="-3.159435" lat="52.986364"><ele>235.945282</ele><time>2021-09-01T12:37:12Z</time><extensions><speed>1.333668</speed><course>327.083344</course><hAcc>0.876694</hAcc><vAcc>0.677673</vAcc></extensions></trkpt>
      <trkpt lon="-3.159423" lat="52.986355"><ele>235.910355</ele><time>2021-09-01T12:37:13Z</time><extensions><speed>1.333190</speed><course>330.723541</course><hAcc>0.876333</hAcc><vAcc>0.676541</vAcc></extensions></trkpt>
      <trkpt lon="-3.159410" lat="52.986346"><ele>235.874619</ele><time>2021-09-01T12:37:14Z</time><extensions><speed>1.332915</speed><course>328.902985</course><hAcc>0.875997</hAcc><vAcc>0.675496</vAcc></extensions></trkpt>
      <trkpt lon="-3.159398" lat="52.986336"><ele>235.838531</ele><time>2021-09-01T12:37:15Z</time><extensions><speed>1.332627</speed><course>325.540680</course><hAcc>0.875683</hAcc><vAcc>0.674531</vAcc></extensions></trkpt>
      <trkpt lon="-3.159385" lat="52.986327"><ele>235.802460</ele><time>2021-09-01T12:37:16Z</time><extensions><speed>1.332237</speed><course>326.969879</course><hAcc>0.875389</hAcc><vAcc>0.673630</vAcc></extensions></trkpt>
      <trkpt lon="-3.159373" lat="52.986318"><ele>235.766785</ele><time>2021-09-01T12:37:17Z</time><extensions><speed>1.332249</speed><course>320.316467</course><hAcc>0.875110</hAcc><vAcc>0.672770</vAcc></extensions></trkpt>
      <trkpt lon="-3.159360" lat="52.986308"><ele>235.732056</ele><time>2021-09-01T12:37:18Z</time><extensions><speed>1.333356</speed><course>319.871765</course><hAcc>0.874844</hAcc><vAcc>0.671936</vAcc></extensions></trkpt>
      <trkpt lon="-3.159348" lat="52.986299"><ele>235.698837</ele><time>2021-09-01T12:37:19Z</time><extensions><speed>1.335446</speed><course>316.990692</course><hAcc>0.874590</hAcc><vAcc>0.671119</vAcc></extensions></trkpt>
      <trkpt lon="-3.159336" lat="52.986290"><ele>235.667618</ele><time>2021-09-01T12:37:20Z</time><extensions><speed>1.337846</speed><course>317.272278</course><hAcc>0.874348</hAcc><vAcc>0.670322</vAcc></extensions></trkpt>
      <trkpt lon="-3.159323" lat="52.986280"><ele>235.638657</ele><time>2021-09-01T12:37:21Z</time><extensions><speed>1.340047</speed><course>317.305878</course><hAcc>0.874124</hAcc><vAcc>0.669561</vAcc></extensions></trkpt>
      <trkpt lon="-3.159311" lat="52.986271"><ele>235.611969</ele><time>2021-09-01T12:37:22Z</time><extensions><speed>1.341968</speed><course>319.626617</course><hAcc>0.873921</hAcc><vAcc>0.668860</vAcc></extensions></trkpt>
      <trkpt lon="-3.159299" lat="52.986261"><ele>235.587402</ele><time>2021-09-01T12:37:24Z</time><extensions><speed>1.343306</speed><course>316.946777</course><hAcc>0.873726</hAcc><vAcc>0.668226</vAcc></extensions></trkpt>
      <trkpt lon="-3.159287" lat="52.986252"><ele>235.564667</ele><time>2021-09-01T12:37:25Z</time><extensions><speed>1.343694</speed><course>316.848175</course><hAcc>0.873541</hAcc><vAcc>0.667678</vAcc></extensions></trkpt>
      <trkpt lon="-3.159274" lat="52.986242"><ele>235.542984</ele><time>2021-09-01T12:37:26Z</time><extensions><speed>1.342826</speed><course>306.129730</course><hAcc>0.873384</hAcc><vAcc>0.667235</vAcc></extensions></trkpt>
      <trkpt lon="-3.159262" lat="52.986232"><ele>235.521362</ele><time>2021-09-01T12:37:27Z</time><extensions><speed>1.340436</speed><course>311.287872</course><hAcc>0.873249</hAcc><vAcc>0.666891</vAcc></extensions></trkpt>
      <trkpt lon="-3.159250" lat="52.986223"><ele>235.498917</ele><time>2021-09-01T12:37:28Z</time><extensions><speed>1.336629</speed><course>316.150696</course><hAcc>0.873129</hAcc><vAcc>0.666620</vAcc></extensions></trkpt>
      <trkpt lon="-3.159238" lat="52.986214"><ele>235.474747</ele><time>2021-09-01T12:37:29Z</time><extensions><speed>1.332019</speed><course>319.589172</course><hAcc>0.873010</hAcc><vAcc>0.666380</vAcc></extensions></trkpt>
      <trkpt lon="-3.159225" lat="52.986204"><ele>235.448486</ele><time>2021-09-01T12:37:29Z</time><extensions><speed>1.327541</speed><course>317.826752</course><hAcc>0.872896</hAcc><vAcc>0.666124</vAcc></extensions></trkpt>
      <trkpt lon="-3.159213" lat="52.986195"><ele>235.420471</ele><time>2021-09-01T12:37:30Z</time><extensions><speed>1.324088</speed><course>316.582428</course><hAcc>0.872771</hAcc><vAcc>0.665788</vAcc></extensions></trkpt>
      <trkpt lon="-3.159200" lat="52.986186"><ele>235.391357</ele><time>2021-09-01T12:37:31Z</time><extensions><speed>1.322306</speed><course>322.533203</course><hAcc>0.872606</hAcc><vAcc>0.665305</vAcc></extensions></trkpt>
      <trkpt lon="-3.159187" lat="52.986177"><ele>235.361603</ele><time>2021-09-01T12:37:32Z</time><extensions><speed>1.322405</speed><course>322.533203</course><hAcc>0.872394</hAcc><vAcc>0.664642</vAcc></extensions></trkpt>
      <trkpt lon="-3.159174" lat="52.986168"><ele>235.331741</ele><time>2021-09-01T12:37:33Z</time><extensions><speed>1.324054</speed><course>322.533203</course><hAcc>0.872136</hAcc><vAcc>0.663795</vAcc></extensions></trkpt>
      <trkpt lon="-3.159161" lat="52.986159"><ele>235.302444</ele><time>2021-09-01T12:37:34Z</time><extensions><speed>1.326940</speed><course>322.533203</course><hAcc>0.871841</hAcc><vAcc>0.662794</vAcc></extensions></trkpt>
      <trkpt lon="-3.159148" lat="52.986150"><ele>235.274490</ele><time>2021-09-01T12:37:35Z</time><extensions><speed>1.330332</speed><course>322.533203</course><hAcc>0.871525</hAcc><vAcc>0.661698</vAcc></extensions></trkpt>
      <trkpt lon="-3.159134" lat="52.986141"><ele>235.248444</ele><time>2021-09-01T12:37:36Z</time><extensions><speed>1.332913</speed><course>310.635162</course><hAcc>0.871207</hAcc><vAcc>0.660585</vAcc></extensions></trkpt>
      <trkpt lon="-3.159121" lat="52.986133"><ele>235.224670</ele><time>2021-09-01T12:37:37Z</time><extensions><speed>1.334224</speed><course>317.610291</course><hAcc>0.870911</hAcc><vAcc>0.659541</vAcc></extensions></trkpt>
      <trkpt lon="-3.159107" lat="52.986124"><ele>235.203384</ele><time>2021-09-01T12:37:38Z</time><extensions><speed>1.334882</speed><course>306.125671</course><hAcc>0.870657</hAcc><vAcc>0.658643</vAcc></extensions></trkpt>
      <trkpt lon="-3.159093" lat="52.986116"><ele>235.184845</ele><time>2021-09-01T12:37:39Z</time><extensions><speed>1.335964</speed><course>318.134308</course><hAcc>0.870464</hAcc><vAcc>0.657951</vAcc></extensions></trkpt>
      <trkpt lon="-3.159079" lat="52.986107"><ele>235.169220</ele><time>2021-09-01T12:37:40Z</time><extensions><speed>1.337745</speed><course>310.926819</course><hAcc>0.870344</hAcc><vAcc>0.657505</vAcc></extensions></trkpt>
      <trkpt lon="-3.159064" lat="52.986099"><ele>235.156326</ele><time>2021-09-01T12:37:42Z</time><extensions><speed>1.340010</speed><course>312.939606</course><hAcc>0.870286</hAcc><vAcc>0.657311</vAcc></extensions></trkpt>
      <trkpt lon="-3.159050" lat="52.986091"><ele>235.145493</ele><time>2021-09-01T12:37:43Z</time><extensions><speed>1.342989</speed><course>305.606995</course><hAcc>0.870291</hAcc><vAcc>0.657368</vAcc></extensions></trkpt>
      <trkpt lon="-3.159035" lat="52.986082"><ele>235.135849</ele><time>2021-09-01T12:37:44Z</time><extensions><speed>1.346841</speed><course>302.541321</course><hAcc>0.870376</hAcc><vAcc>0.657681</vAcc></extensions></trkpt>
      <trkpt lon="-3.159020" lat="52.986074"><ele>235.126465</ele><time>2021-09-01T12:37:45Z</time><extensions><speed>1.351220</speed><course>303.802917</course><hAcc>0.870538</hAcc><vAcc>0.658241</vAcc></extensions></trkpt>
      <trkpt lon="-3.159005" lat="52.986066"><ele>235.116562</ele><time>2021-09-01T12:37:46Z</time><extensions><speed>1.355567</speed><course>300.395538</course><hAcc>0.870771</hAcc><vAcc>0.659035</vAcc></extensions></trkpt>
      <trkpt lon="-3.158990" lat="52.986058"><ele>235.105789</ele><time>2021-09-01T12:37:47Z</time><extensions><speed>1.359396</speed><course>303.076660</course><hAcc>0.871066</hAcc><vAcc>0.660030</vAcc></extensions></trkpt>
      <trkpt lon="-3.158975" lat="52.986050"><ele>235.094070</ele><time>2021-09-01T12:37:48Z</time><extensions><speed>1.362069</speed><course>301.521118</course><hAcc>0.871408</hAcc><vAcc>0.661173</vAcc></extensions></trkpt>
      <trkpt lon="-3.158960" lat="52.986041"><ele>235.081329</ele><time>2021-09-01T12:37:49Z</time><extensions><speed>1.363122</speed><course>315.953857</course><hAcc>0.871781</hAcc><vAcc>0.662404</vAcc></extensions></trkpt>
      <trkpt lon="-3.158945" lat="52.986033"><ele>235.067108</ele><time>2021-09-01T12:37:50Z</time><extensions><speed>1.362556</speed><course>321.613922</course><hAcc>0.872170</hAcc><vAcc>0.663669</vAcc></extensions></trkpt>
      <trkpt lon="-3.158930" lat="52.986025"><ele>235.050583</ele><time>2021-09-01T12:37:51Z</time><extensions><speed>1.360979</speed><course>320.530426</course><hAcc>0.872562</hAcc><vAcc>0.664928</vAcc></extensions></trkpt>
      <trkpt lon="-3.158915" lat="52.986017"><ele>235.030884</ele><time>2021-09-01T12:37:52Z</time><extensions><speed>1.359160</speed><course>319.105469</course><hAcc>0.872946</hAcc><vAcc>0.666149</vAcc></extensions></trkpt>
      <trkpt lon="-3.158901" lat="52.986008"><ele>235.007187</ele><time>2021-09-01T12:37:53Z</time><extensions><speed>1.357295</speed><course>320.005280</course><hAcc>0.873316</hAcc><vAcc>0.667312</vAcc></extensions></trkpt>
      <trkpt lon="-3.158886" lat="52.986000"><ele>234.978500</ele><time>2021-09-01T12:37:54Z</time><extensions><speed>1.355504</speed><course>320.540527</course><hAcc>0.873666</hAcc><vAcc>0.668411</vAcc></extensions></trkpt>
      <trkpt lon="-3.158872" lat="52.985991"><ele>234.944031</ele><time>2021-09-01T12:37:55Z</time><extensions><speed>1.354335</speed><course>316.635681</course><hAcc>0.873995</hAcc><vAcc>0.669448</vAcc></extensions></trkpt>
      <trkpt lon="-3.158858" lat="52.985982"><ele>234.903778</ele><time>2021-09-01T12:37:56Z</time><extensions><speed>1.354246</speed><course>319.322998</course><hAcc>0.874299</hAcc><vAcc>0.670430</vAcc></extensions></trkpt>
      <trkpt lon="-3.158845" lat="52.985973"><ele>234.858261</ele><time>2021-09-01T12:37:57Z</time><extensions><speed>1.355481</speed><course>319.244141</course><hAcc>0.874575</hAcc><vAcc>0.671349</vAcc></extensions></trkpt>
      <trkpt lon="-3.158832" lat="52.985964"><ele>234.808151</ele><time>2021-09-01T12:37:58Z</time><extensions><speed>1.357786</speed><course>315.425568</course><hAcc>0.874817</hAcc><vAcc>0.672176</vAcc></extensions></trkpt>
      <trkpt lon="-3.158819" lat="52.985955"><ele>234.753845</ele><time>2021-09-01T12:37:59Z</time><extensions><speed>1.360331</speed><course>318.059448</course><hAcc>0.875016</hAcc><vAcc>0.672866</vAcc></extensions></trkpt>
      <trkpt lon="-3.158806" lat="52.985945"><ele>234.695389</ele><time>2021-09-01T12:38:00Z</time><extensions><speed>1.362067</speed><course>318.243683</course><hAcc>0.875162</hAcc><vAcc>0.673372</vAcc></extensions></trkpt>
      <trkpt lon="-3.158793" lat="52.985935"><ele>234.632599</ele><time>2021-09-01T12:38:01Z</time><extensions><speed>1.362069</speed><course>319.840027</course><hAcc>0.875251</hAcc><vAcc>0.673659</vAcc></extensions></trkpt>
      <trkpt lon="-3.158781" lat="52.985926"><ele>234.564957</ele><time>2021-09-01T12:38:02Z</time><extensions><speed>1.360412</speed><course>320.630524</course><hAcc>0.875281</hAcc><vAcc>0.673714</vAcc></extensions></trkpt>
      <trkpt lon="-3.158769" lat="52.985916"><ele>234.491409</ele><time>2021-09-01T12:38:03Z</time><extensions><speed>1.357399</speed><course>318.435181</course><hAcc>0.875257</hAcc><vAcc>0.673560</vAcc></extensions></trkpt>
      <trkpt lon="-3.158758" lat="52.985906"><ele>234.410828</ele><time>2021-09-01T12:38:04Z</time><extensions><speed>1.353262</speed><course>313.959320</course><hAcc>0.875187</hAcc><vAcc>0.673245</vAcc></extensions></trkpt>
      <trkpt lon="-3.158747" lat="52.985896"><ele>234.322678</ele><time>2021-09-01T12:38:05Z</time><extensions><speed>1.348175</speed><course>314.005951</course><hAcc>0.875085</hAcc><vAcc>0.672837</vAcc></extensions></trkpt>
      <trkpt lon="-3.158736" lat="52.985885"><ele>234.227249</ele><time>2021-09-01T12:38:06Z</time><extensions><speed>1.342138</speed><course>315.776367</course><hAcc>0.874962</hAcc><vAcc>0.672402</vAcc></extensions></trkpt>
      <trkpt lon="-3.158725" lat="52.985875"><ele>234.125458</ele><time>2021-09-01T12:38:07Z</time><extensions><speed>1.335499</speed><course>317.643280</course><hAcc>0.874826</hAcc><vAcc>0.671977</vAcc></extensions></trkpt>
      <trkpt lon="-3.158715" lat="52.985865"><ele>234.018463</ele><time>2021-09-01T12:38:08Z</time><extensions><speed>1.328889</speed><course>316.187012</course><hAcc>0.874678</hAcc><vAcc>0.671562</vAcc></extensions></trkpt>
      <trkpt lon="-3.158705" lat="52.985855"><ele>233.907242</ele><time>2021-09-01T12:38:09Z</time><extensions><speed>1.322401</speed><course>313.238525</course><hAcc>0.874513</hAcc><vAcc>0.671118</vAcc></extensions></trkpt>
      <trkpt lon="-3.158695" lat="52.985844"><ele>233.792557</ele><time>2021-09-01T12:38:10Z</time><extensions><speed>1.315637</speed><course>309.102142</course><hAcc>0.874325</hAcc><vAcc>0.670587</vAcc></extensions></trkpt>
      <trkpt lon="-3.158686" lat="52.985834"><ele>233.675247</ele><time>2021-09-01T12:38:11Z</time><extensions><speed>1.308290</speed><course>313.839325</course><hAcc>0.874108</hAcc><vAcc>0.669918</vAcc></extensions></trkpt>
      <trkpt lon="-3.158677" lat="52.985824"><ele>233.556030</ele><time>2021-09-01T12:38:12Z</time><extensions><speed>1.300512</speed><course>315.040405</course><hAcc>0.873867</hAcc><vAcc>0.669088</vAcc></extensions></trkpt>
      <trkpt lon="-3.158668" lat="52.985813"><ele>233.435440</ele><time>2021-09-01T12:38:13Z</time><extensions><speed>1.292952</speed><course>315.010925</course><hAcc>0.873615</hAcc><vAcc>0.668117</vAcc></extensions></trkpt>
      <trkpt lon="-3.158660" lat="52.985803"><ele>233.313919</ele><time>2021-09-01T12:38:14Z</time><extensions><speed>1.285947</speed><course>312.357758</course><hAcc>0.873373</hAcc><vAcc>0.667057</vAcc></extensions></trkpt>
      <trkpt lon="-3.158652" lat="52.985793"><ele>233.191986</ele><time>2021-09-01T12:38:15Z</time><extensions><speed>1.279650</speed><course>316.888885</course><hAcc>0.873173</hAcc><vAcc>0.665990</vAcc></extensions></trkpt>
      <trkpt lon="-3.158643" lat="52.985782"><ele>233.070496</ele><time>2021-09-01T12:38:16Z</time><extensions><speed>1.273856</speed><course>320.096283</course><hAcc>0.873047</hAcc><vAcc>0.665008</vAcc></extensions></trkpt>
      <trkpt lon="-3.158635" lat="52.985772"><ele>232.950272</ele><time>2021-09-01T12:38:17Z</time><extensions><speed>1.268617</speed><course>330.452972</course><hAcc>0.873030</hAcc><vAcc>0.664197</vAcc></extensions></trkpt>
      <trkpt lon="-3.158627" lat="52.985762"><ele>232.832016</ele><time>2021-09-01T12:38:18Z</time><extensions><speed>1.264483</speed><course>325.892334</course><hAcc>0.873149</hAcc><vAcc>0.663617</vAcc></extensions></trkpt>
      <trkpt lon="-3.158619" lat="52.985751"><ele>232.716248</ele><time>2021-09-01T12:38:19Z</time><extensions><speed>1.262292</speed><course>323.150330</course><hAcc>0.873418</hAcc><vAcc>0.663285</vAcc></extensions></trkpt>
      <trkpt lon="-3.158611" lat="52.985741"><ele>232.603088</ele><time>2021-09-01T12:38:20Z</time><extensions><speed>1.262723</speed><course>318.355499</course><hAcc>0.873831</hAcc><vAcc>0.663169</vAcc></extensions></trkpt>
      <trkpt lon="-3.158602" lat="52.985731"><ele>232.492279</ele><time>2021-09-01T12:38:21Z</time><extensions><speed>1.265881</speed><course>319.900726</course><hAcc>0.874369</hAcc><vAcc>0.663204</vAcc></extensions></trkpt>
      <trkpt lon="-3.158594" lat="52.985721"><ele>232.383087</ele><time>2021-09-01T12:38:22Z</time><extensions><speed>1.272088</speed><course>327.705719</course><hAcc>0.874997</hAcc><vAcc>0.663305</vAcc></extensions></trkpt>
      <trkpt lon="-3.158585" lat="52.985711"><ele>232.274689</ele><time>2021-09-01T12:38:23Z</time><extensions><speed>1.280918</speed><course>325.864380</course><hAcc>0.875662</hAcc><vAcc>0.663391</vAcc></extensions></trkpt>
      <trkpt lon="-3.158575" lat="52.985701"><ele>232.166275</ele><time>2021-09-01T12:38:24Z</time><extensions><speed>1.290989</speed><course>316.016541</course><hAcc>0.876286</hAcc><vAcc>0.663395</vAcc></extensions></trkpt>
      <trkpt lon="-3.158566" lat="52.985691"><ele>232.056915</ele><time>2021-09-01T12:38:25Z</time><extensions><speed>1.300792</speed><course>317.886536</course><hAcc>0.876779</hAcc><vAcc>0.663272</vAcc></extensions></trkpt>
      <trkpt lon="-3.158556" lat="52.985680"><ele>231.945602</ele><time>2021-09-01T12:38:26Z</time><extensions><speed>1.308840</speed><course>327.267029</course><hAcc>0.877056</hAcc><vAcc>0.662996</vAcc></extensions></trkpt>
      <trkpt lon="-3.158546" lat="52.985670"><ele>231.831482</ele><time>2021-09-01T12:38:27Z</time><extensions><speed>1.313923</speed><course>326.251373</course><hAcc>0.877050</hAcc><vAcc>0.662566</vAcc></extensions></trkpt>
      <trkpt lon="-3.158535" lat="52.985660"><ele>231.713943</ele><time>2021-09-01T12:38:28Z</time><extensions><speed>1.315380</speed><course>330.160339</course><hAcc>0.876733</hAcc><vAcc>0.662011</vAcc></extensions></trkpt>
      <trkpt lon="-3.158525" lat="52.985650"><ele>231.592850</ele><time>2021-09-01T12:38:29Z</time><extensions><speed>1.313351</speed><course>329.350830</course><hAcc>0.876131</hAcc><vAcc>0.661377</vAcc></extensions></trkpt>
      <trkpt lon="-3.158515" lat="52.985640"><ele>231.468933</ele><time>2021-09-01T12:38:30Z</time><extensions><speed>1.308666</speed><course>328.046906</course><hAcc>0.875330</hAcc><vAcc>0.660721</vAcc></extensions></trkpt>
      <trkpt lon="-3.158505" lat="52.985630"><ele>231.343094</ele><time>2021-09-01T12:38:31Z</time><extensions><speed>1.302367</speed><course>328.036682</course><hAcc>0.874444</hAcc><vAcc>0.660098</vAcc></extensions></trkpt>
      <trkpt lon="-3.158495" lat="52.985620"><ele>231.215912</ele><time>2021-09-01T12:38:32Z</time><extensions><speed>1.295169</speed><course>328.321899</course><hAcc>0.873577</hAcc><vAcc>0.659556</vAcc></extensions></trkpt>
      <trkpt lon="-3.158485" lat="52.985610"><ele>231.087921</ele><time>2021-09-01T12:38:33Z</time><extensions><speed>1.287610</speed><course>326.366882</course><hAcc>0.872810</hAcc><vAcc>0.659135</vAcc></extensions></trkpt>
      <trkpt lon="-3.158476" lat="52.985600"><ele>230.959778</ele><time>2021-09-01T12:38:34Z</time><extensions><speed>1.280262</speed><course>331.362152</course><hAcc>0.872190</hAcc><vAcc>0.658862</vAcc></extensions></trkpt>
      <trkpt lon="-3.158467" lat="52.985590"><ele>230.832214</ele><time>2021-09-01T12:38:35Z</time><extensions><speed>1.273746</speed><course>329.394318</course><hAcc>0.871740</hAcc><vAcc>0.658756</vAcc></extensions></trkpt>
      <trkpt lon="-3.158458" lat="52.985580"><ele>230.705734</ele><time>2021-09-01T12:38:36Z</time><extensions><speed>1.268489</speed><course>332.464355</course><hAcc>0.871466</hAcc><vAcc>0.658819</vAcc></extensions></trkpt>
      <trkpt lon="-3.158449" lat="52.985570"><ele>230.580643</ele><time>2021-09-01T12:38:37Z</time><extensions><speed>1.264343</speed><course>335.973755</course><hAcc>0.871357</hAcc><vAcc>0.659038</vAcc></extensions></trkpt>
      <trkpt lon="-3.158441" lat="52.985560"><ele>230.457138</ele><time>2021-09-01T12:38:38Z</time><extensions><speed>1.261167</speed><course>334.588074</course><hAcc>0.871399</hAcc><vAcc>0.659382</vAcc></extensions></trkpt>
      <trkpt lon="-3.158433" lat="52.985549"><ele>230.335281</ele><time>2021-09-01T12:38:39Z</time><extensions><speed>1.258885</speed><course>337.558624</course><hAcc>0.871576</hAcc><vAcc>0.659826</vAcc></extensions></trkpt>
      <trkpt lon="-3.158425" lat="52.985539"><ele>230.215118</ele><time>2021-09-01T12:38:40Z</time><extensions><speed>1.257399</speed><course>337.377197</course><hAcc>0.871875</hAcc><vAcc>0.660354</vAcc></extensions></trkpt>
      <trkpt lon="-3.158418" lat="52.985529"><ele>230.096405</ele><time>2021-09-01T12:38:41Z</time><extensions><speed>1.256580</speed><course>334.236908</course><hAcc>0.872288</hAcc><vAcc>0.660963</vAcc></extensions></trkpt>
      <trkpt lon="-3.158411" lat="52.985518"><ele>229.978577</ele><time>2021-09-01T12:38:42Z</time><extensions><speed>1.256402</speed><course>333.116516</course><hAcc>0.872806</hAcc><vAcc>0.661659</vAcc></extensions></trkpt>
      <trkpt lon="-3.158405" lat="52.985508"><ele>229.860779</ele><time>2021-09-01T12:38:43Z</time><extensions><speed>1.257484</speed><course>331.193451</course><hAcc>0.873420</hAcc><vAcc>0.662451</vAcc></extensions></trkpt>
      <trkpt lon="-3.158398" lat="52.985497"><ele>229.742249</ele><time>2021-09-01T12:38:44Z</time><extensions><speed>1.260638</speed><course>327.071960</course><hAcc>0.874113</hAcc><vAcc>0.663339</vAcc></extensions></trkpt>
      <trkpt lon="-3.158392" lat="52.985486"><ele>229.622711</ele><time>2021-09-01T12:38:45Z</time><extensions><speed>1.266231</speed><course>323.969269</course><hAcc>0.874864</hAcc><vAcc>0.664311</vAcc></extensions></trkpt>
      <trkpt lon="-3.158387" lat="52.985475"><ele>229.502213</ele><time>2021-09-01T12:38:46Z</time><extensions><speed>1.274450</speed><course>325.035614</course><hAcc>0.875656</hAcc><vAcc>0.665346</vAcc></extensions></trkpt>
      <trkpt lon="-3.158381" lat="52.985464"><ele>229.380814</ele><time>2021-09-01T12:38:47Z</time><extensions><speed>1.285224</speed><course>325.080109</course><hAcc>0.876497</hAcc><vAcc>0.666417</vAcc></extensions></trkpt>
      <trkpt lon="-3.158376" lat="52.985453"><ele>229.258316</ele><time>2021-09-01T12:38:48Z</time><extensions><speed>1.297662</speed><course>320.596710</course><hAcc>0.877418</hAcc><vAcc>0.667498</vAcc></extensions></trkpt>
      <trkpt lon="-3.158371" lat="52.985442"><ele>229.134567</ele><time>2021-09-01T12:38:49Z</time><extensions><speed>1.310235</speed><course>325.164429</course><hAcc>0.878461</hAcc><vAcc>0.668562</vAcc></extensions></trkpt>
      <trkpt lon="-3.158366" lat="52.985430"><ele>229.009399</ele><time>2021-09-01T12:38:50Z</time><extensions><speed>1.321903</speed><course>323.691345</course><hAcc>0.879659</hAcc><vAcc>0.669581</vAcc></extensions></trkpt>
      <trkpt lon="-3.158361" lat="52.985419"><ele>228.882614</ele><time>2021-09-01T12:38:51Z</time><extensions><speed>1.332376</speed><course>332.829010</course><hAcc>0.881029</hAcc><vAcc>0.670540</vAcc></extensions></trkpt>
      <trkpt lon="-3.158356" lat="52.985407"><ele>228.754257</ele><time>2021-09-01T12:38:52Z</time><extensions><speed>1.342156</speed><course>333.287506</course><hAcc>0.882568</hAcc><vAcc>0.671448</vAcc></extensions></trkpt>
      <trkpt lon="-3.158351" lat="52.985396"><ele>228.624969</ele><time>2021-09-01T12:38:53Z</time><extensions><speed>1.352127</speed><course>320.664337</course><hAcc>0.884235</hAcc><vAcc>0.672334</vAcc></extensions></trkpt>
      <trkpt lon="-3.158345" lat="52.985384"><ele>228.495239</ele><time>2021-09-01T12:38:54Z</time><extensions><speed>1.362577</speed><course>319.581818</course><hAcc>0.885960</hAcc><vAcc>0.673224</vAcc></extensions></trkpt>
      <trkpt lon="-3.158339" lat="52.985372"><ele>228.365219</ele><time>2021-09-01T12:38:55Z</time><extensions><speed>1.373477</speed><course>320.113190</course><hAcc>0.887671</hAcc><vAcc>0.674128</vAcc></extensions></trkpt>
      <trkpt lon="-3.158332" lat="52.985360"><ele>228.235199</ele><time>2021-09-01T12:38:56Z</time><extensions><speed>1.384664</speed><course>325.625488</course><hAcc>0.889312</hAcc><vAcc>0.675017</vAcc></extensions></trkpt>
      <trkpt lon="-3.158325" lat="52.985349"><ele>228.105774</ele><time>2021-09-01T12:38:57Z</time><extensions><speed>1.395912</speed><course>320.008789</course><hAcc>0.890845</hAcc><vAcc>0.675836</vAcc></extensions></trkpt>
      <trkpt lon="-3.158317" lat="52.985337"><ele>227.977875</ele><time>2021-09-01T12:38:58Z</time><extensions><speed>1.407362</speed><course>318.909088</course><hAcc>0.892263</hAcc><vAcc>0.676517</vAcc></extensions></trkpt>
      <trkpt lon="-3.158309" lat="52.985325"><ele>227.852386</ele><time>2021-09-01T12:38:59Z</time><extensions><speed>1.419082</speed><course>323.298828</course><hAcc>0.893597</hAcc><vAcc>0.677000</vAcc></extensions></trkpt>
      <trkpt lon="-3.158300" lat="52.985314"><ele>227.730392</ele><time>2021-09-01T12:39:00Z</time><extensions><speed>1.430401</speed><course>319.843567</course><hAcc>0.894908</hAcc><vAcc>0.677238</vAcc></extensions></trkpt>
      <trkpt lon="-3.158291" lat="52.985302"><ele>227.613052</ele><time>2021-09-01T12:39:01Z</time><extensions><speed>1.440229</speed><course>314.311829</course><hAcc>0.896259</hAcc><vAcc>0.677197</vAcc></extensions></trkpt>
      <trkpt lon="-3.158282" lat="52.985290"><ele>227.501068</ele><time>2021-09-01T12:39:02Z</time><extensions><speed>1.447279</speed><course>319.089264</course><hAcc>0.897700</hAcc><vAcc>0.676858</vAcc></extensions></trkpt>
      <trkpt lon="-3.158272" lat="52.985279"><ele>227.394485</ele><time>2021-09-01T12:39:03Z</time><extensions><speed>1.450766</speed><course>322.114319</course><hAcc>0.899239</hAcc><vAcc>0.676217</vAcc></extensions></trkpt>
      <trkpt lon="-3.158262" lat="52.985267"><ele>227.292938</ele><time>2021-09-01T12:39:04Z</time><extensions><speed>1.450807</speed><course>313.771057</course><hAcc>0.900827</hAcc><vAcc>0.675292</vAcc></extensions></trkpt>
      <trkpt lon="-3.158252" lat="52.985256"><ele>227.195923</ele><time>2021-09-01T12:39:05Z</time><extensions><speed>1.447827</speed><course>306.383820</course><hAcc>0.902348</hAcc><vAcc>0.674133</vAcc></extensions></trkpt>
      <trkpt lon="-3.158242" lat="52.985244"><ele>227.102875</ele><time>2021-09-01T12:39:06Z</time><extensions><speed>1.442382</speed><course>308.594727</course><hAcc>0.903636</hAcc><vAcc>0.672822</vAcc></extensions></trkpt>
      <trkpt lon="-3.158231" lat="52.985233"><ele>227.013275</ele><time>2021-09-01T12:39:07Z</time><extensions><speed>1.434996</speed><course>313.438293</course><hAcc>0.904503</hAcc><vAcc>0.671471</vAcc></extensions></trkpt>
      <trkpt lon="-3.158221" lat="52.985222"><ele>226.926971</ele><time>2021-09-01T12:39:08Z</time><extensions><speed>1.426032</speed><course>315.261749</course><hAcc>0.904786</hAcc><vAcc>0.670211</vAcc></extensions></trkpt>
      <trkpt lon="-3.158211" lat="52.985210"><ele>226.844025</ele><time>2021-09-01T12:39:09Z</time><extensions><speed>1.415712</speed><course>314.962799</course><hAcc>0.904383</hAcc><vAcc>0.669174</vAcc></extensions></trkpt>
      <trkpt lon="-3.158201" lat="52.985199"><ele>226.764053</ele><time>2021-09-01T12:39:10Z</time><extensions><speed>1.404206</speed><course>311.864380</course><hAcc>0.903274</hAcc><vAcc>0.668467</vAcc></extensions></trkpt>
      <trkpt lon="-3.158191" lat="52.985188"><ele>226.686356</ele><time>2021-09-01T12:39:11Z</time><extensions><speed>1.391699</speed><course>305.555115</course><hAcc>0.901523</hAcc><vAcc>0.668161</vAcc></extensions></trkpt>
      <trkpt lon="-3.158181" lat="52.985177"><ele>226.610077</ele><time>2021-09-01T12:39:12Z</time><extensions><speed>1.378513</speed><course>309.414368</course><hAcc>0.899256</hAcc><vAcc>0.668289</vAcc></extensions></trkpt>
      <trkpt lon="-3.158171" lat="52.985167"><ele>226.534225</ele><time>2021-09-01T12:39:13Z</time><extensions><speed>1.365113</speed><course>312.426361</course><hAcc>0.896634</hAcc><vAcc>0.668848</vAcc></extensions></trkpt>
      <trkpt lon="-3.158162" lat="52.985156"><ele>226.457748</ele><time>2021-09-01T12:39:14Z</time><extensions><speed>1.352211</speed><course>315.779877</course><hAcc>0.893837</hAcc><vAcc>0.669806</vAcc></extensions></trkpt>
      <trkpt lon="-3.158153" lat="52.985145"><ele>226.379730</ele><time>2021-09-01T12:39:15Z</time><extensions><speed>1.340742</speed><course>309.393494</course><hAcc>0.891042</hAcc><vAcc>0.671108</vAcc></extensions></trkpt>
      <trkpt lon="-3.158144" lat="52.985134"><ele>226.299408</ele><time>2021-09-01T12:39:16Z</time><extensions><speed>1.331669</speed><course>315.161163</course><hAcc>0.888410</hAcc><vAcc>0.672688</vAcc></extensions></trkpt>
      <trkpt lon="-3.158135" lat="52.985123"><ele>226.216385</ele><time>2021-09-01T12:39:17Z</time><extensions><speed>1.325413</speed><course>313.978088</course><hAcc>0.886070</hAcc><vAcc>0.674474</vAcc></extensions></trkpt>
      <trkpt lon="-3.158126" lat="52.985113"><ele>226.130737</ele><time>2021-09-01T12:39:18Z</time><extensions><speed>1.321951</speed><course>310.683502</course><hAcc>0.884115</hAcc><vAcc>0.676397</vAcc></extensions></trkpt>
      <trkpt lon="-3.158117" lat="52.985102"><ele>226.043091</ele><time>2021-09-01T12:39:19Z</time><extensions><speed>1.321115</speed><course>311.301880</course><hAcc>0.882591</hAcc><vAcc>0.678395</vAcc></extensions></trkpt>
      <trkpt lon="-3.158107" lat="52.985092"><ele>225.954544</ele><time>2021-09-01T12:39:20Z</time><extensions><speed>1.322171</speed><course>311.208435</course><hAcc>0.881501</hAcc><vAcc>0.680412</vAcc></extensions></trkpt>
      <trkpt lon="-3.158097" lat="52.985082"><ele>225.866623</ele><time>2021-09-01T12:39:21Z</time><extensions><speed>1.324584</speed><course>309.569458</course><hAcc>0.880807</hAcc><vAcc>0.682397</vAcc></extensions></trkpt>
      <trkpt lon="-3.158087" lat="52.985072"><ele>225.780899</ele><time>2021-09-01T12:39:22Z</time><extensions><speed>1.328272</speed><course>310.187012</course><hAcc>0.880445</hAcc><vAcc>0.684302</vAcc></extensions></trkpt>
      <trkpt lon="-3.158076" lat="52.985062"><ele>225.698761</ele><time>2021-09-01T12:39:23Z</time><extensions><speed>1.333047</speed><course>310.459808</course><hAcc>0.880339</hAcc><vAcc>0.686089</vAcc></extensions></trkpt>
      <trkpt lon="-3.158065" lat="52.985052"><ele>225.621307</ele><time>2021-09-01T12:39:24Z</time><extensions><speed>1.338641</speed><course>310.191071</course><hAcc>0.880417</hAcc><vAcc>0.687727</vAcc></extensions></trkpt>
      <trkpt lon="-3.158054" lat="52.985042"><ele>225.549255</ele><time>2021-09-01T12:39:25Z</time><extensions><speed>1.345096</speed><course>313.202332</course><hAcc>0.880613</hAcc><vAcc>0.689206</vAcc></extensions></trkpt>
      <trkpt lon="-3.158042" lat="52.985032"><ele>225.482986</ele><time>2021-09-01T12:39:26Z</time><extensions><speed>1.352055</speed><course>317.375305</course><hAcc>0.880878</hAcc><vAcc>0.690527</vAcc></extensions></trkpt>
      <trkpt lon="-3.158030" lat="52.985022"><ele>225.422607</ele><time>2021-09-01T12:39:27Z</time><extensions><speed>1.358578</speed><course>320.965942</course><hAcc>0.881171</hAcc><vAcc>0.691703</vAcc></extensions></trkpt>
      <trkpt lon="-3.158017" lat="52.985013"><ele>225.368103</ele><time>2021-09-01T12:39:28Z</time><extensions><speed>1.363838</speed><course>318.335114</course><hAcc>0.881467</hAcc><vAcc>0.692747</vAcc></extensions></trkpt>
      <trkpt lon="-3.158005" lat="52.985003"><ele>225.319290</ele><time>2021-09-01T12:39:29Z</time><extensions><speed>1.366923</speed><course>322.780487</course><hAcc>0.881747</hAcc><vAcc>0.693671</vAcc></extensions></trkpt>
      <trkpt lon="-3.157992" lat="52.984993"><ele>225.275864</ele><time>2021-09-01T12:39:30Z</time><extensions><speed>1.366892</speed><course>321.324005</course><hAcc>0.882003</hAcc><vAcc>0.694485</vAcc></extensions></trkpt>
      <trkpt lon="-3.157979" lat="52.984984"><ele>225.237381</ele><time>2021-09-01T12:39:31Z</time><extensions><speed>1.363261</speed><course>322.516296</course><hAcc>0.882229</hAcc><vAcc>0.695196</vAcc></extensions></trkpt>
      <trkpt lon="-3.157966" lat="52.984975"><ele>225.203400</ele><time>2021-09-01T12:39:32Z</time><extensions><speed>1.356492</speed><course>319.995483</course><hAcc>0.882421</hAcc><vAcc>0.695813</vAcc></extensions></trkpt>
      <trkpt lon="-3.157952" lat="52.984966"><ele>225.173523</ele><time>2021-09-01T12:39:33Z</time><extensions><speed>1.347591</speed><course>324.182892</course><hAcc>0.882580</hAcc><vAcc>0.696337</vAcc></extensions></trkpt>
      <trkpt lon="-3.157939" lat="52.984957"><ele>225.147430</ele><time>2021-09-01T12:39:34Z</time><extensions><speed>1.337482</speed><course>328.616821</course><hAcc>0.882705</hAcc><vAcc>0.696766</vAcc></extensions></trkpt>
      <trkpt lon="-3.157926" lat="52.984948"><ele>225.125061</ele><time>2021-09-01T12:39:35Z</time><extensions><speed>1.326820</speed><course>324.016815</course><hAcc>0.882796</hAcc><vAcc>0.697091</vAcc></extensions></trkpt>
      <trkpt lon="-3.157913" lat="52.984939"><ele>225.106735</ele><time>2021-09-01T12:39:36Z</time><extensions><speed>1.316337</speed><course>329.825897</course><hAcc>0.882853</hAcc><vAcc>0.697304</vAcc></extensions></trkpt>
      <trkpt lon="-3.157899" lat="52.984930"><ele>225.093277</ele><time>2021-09-01T12:39:37Z</time><extensions><speed>1.307286</speed><course>327.868408</course><hAcc>0.882877</hAcc><vAcc>0.697403</vAcc></extensions></trkpt>
      <trkpt lon="-3.157886" lat="52.984922"><ele>225.085556</ele><time>2021-09-01T12:39:38Z</time><extensions><speed>1.300951</speed><course>336.001526</course><hAcc>0.882868</hAcc><vAcc>0.697389</vAcc></extensions></trkpt>
      <trkpt lon="-3.157873" lat="52.984913"><ele>225.083817</ele><time>2021-09-01T12:39:39Z</time><extensions><speed>1.297905</speed><course>319.189575</course><hAcc>0.882828</hAcc><vAcc>0.697266</vAcc></extensions></trkpt>
      <trkpt lon="-3.157859" lat="52.984905"><ele>225.087753</ele><time>2021-09-01T12:39:40Z</time><extensions><speed>1.298222</speed><course>314.045624</course><hAcc>0.882760</hAcc><vAcc>0.697039</vAcc></extensions></trkpt>
      <trkpt lon="-3.157845" lat="52.984897"><ele>225.096573</ele><time>2021-09-01T12:39:41Z</time><extensions><speed>1.301987</speed><course>316.798950</course><hAcc>0.882668</hAcc><vAcc>0.696721</vAcc></extensions></trkpt>
      <trkpt lon="-3.157831" lat="52.984889"><ele>225.109100</ele><time>2021-09-01T12:39:42Z</time><extensions><speed>1.309340</speed><course>316.381958</course><hAcc>0.882557</hAcc><vAcc>0.696327</vAcc></extensions></trkpt>
      <trkpt lon="-3.157817" lat="52.984881"><ele>225.124252</ele><time>2021-09-01T12:39:43Z</time><extensions><speed>1.319796</speed><course>324.109985</course><hAcc>0.882433</hAcc><vAcc>0.695876</vAcc></extensions></trkpt>
      <trkpt lon="-3.157802" lat="52.984873"><ele>225.141296</ele><time>2021-09-01T12:39:44Z</time><extensions><speed>1.331859</speed><course>319.248718</course><hAcc>0.882304</hAcc><vAcc>0.695394</vAcc></extensions></trkpt>
      <trkpt lon="-3.157787" lat="52.984865"><ele>225.159836</ele><time>2021-09-01T12:39:45Z</time><extensions><speed>1.343778</speed><course>322.755310</course><hAcc>0.882179</hAcc><vAcc>0.694911</vAcc></extensions></trkpt>
      <trkpt lon="-3.157771" lat="52.984857"><ele>225.179596</ele><time>2021-09-01T12:39:46Z</time><extensions><speed>1.353746</speed><course>326.625031</course><hAcc>0.882065</hAcc><vAcc>0.694465</vAcc></extensions></trkpt>
      <trkpt lon="-3.157755" lat="52.984850"><ele>225.200333</ele><time>2021-09-01T12:39:47Z</time><extensions><speed>1.360214</speed><course>328.024994</course><hAcc>0.881972</hAcc><vAcc>0.694095</vAcc></extensions></trkpt>
      <trkpt lon="-3.157739" lat="52.984842"><ele>225.221924</ele><time>2021-09-01T12:39:48Z</time><extensions><speed>1.362728</speed><course>332.378082</course><hAcc>0.881904</hAcc><vAcc>0.693833</vAcc></extensions></trkpt>
      <trkpt lon="-3.157723" lat="52.984835"><ele>225.244400</ele><time>2021-09-01T12:39:49Z</time><extensions><speed>1.361926</speed><course>332.526154</course><hAcc>0.881867</hAcc><vAcc>0.693701</vAcc></extensions></trkpt>
      <trkpt lon="-3.157707" lat="52.984827"><ele>225.267746</ele><time>2021-09-01T12:39:50Z</time><extensions><speed>1.358363</speed><course>335.486633</course><hAcc>0.881862</hAcc><vAcc>0.693706</vAcc></extensions></trkpt>
      <trkpt lon="-3.157692" lat="52.984820"><ele>225.291977</ele><time>2021-09-01T12:39:51Z</time><extensions><speed>1.352667</speed><course>336.016846</course><hAcc>0.881888</hAcc><vAcc>0.693841</vAcc></extensions></trkpt>
      <trkpt lon="-3.157676" lat="52.984812"><ele>225.317352</ele><time>2021-09-01T12:39:52Z</time><extensions><speed>1.346116</speed><course>334.888000</course><hAcc>0.881941</hAcc><vAcc>0.694083</vAcc></extensions></trkpt>
      <trkpt lon="-3.157660" lat="52.984805"><ele>225.344559</ele><time>2021-09-01T12:39:53Z</time><extensions><speed>1.339252</speed><course>333.393311</course><hAcc>0.882015</hAcc><vAcc>0.694399</vAcc></extensions></trkpt>
      <trkpt lon="-3.157645" lat="52.984797"><ele>225.374329</ele><time>2021-09-01T12:39:54Z</time><extensions><speed>1.331399</speed><course>318.935883</course><hAcc>0.882104</hAcc><vAcc>0.694754</vAcc></extensions></trkpt>
      <trkpt lon="-3.157629" lat="52.984790"><ele>225.407166</ele><time>2021-09-01T12:39:55Z</time><extensions><speed>1.321666</speed><course>311.891724</course><hAcc>0.882200</hAcc><vAcc>0.695117</vAcc></extensions></trkpt>
      <trkpt lon="-3.157614" lat="52.984782"><ele>225.443161</ele><time>2021-09-01T12:39:56Z</time><extensions><speed>1.309541</speed><course>312.578461</course><hAcc>0.882300</hAcc><vAcc>0.695464</vAcc></extensions></trkpt>
      <trkpt lon="-3.157600" lat="52.984774"><ele>225.482010</ele><time>2021-09-01T12:39:57Z</time><extensions><speed>1.295189</speed><course>320.602325</course><hAcc>0.882398</hAcc><vAcc>0.695782</vAcc></extensions></trkpt>
      <trkpt lon="-3.157585" lat="52.984767"><ele>225.522888</ele><time>2021-09-01T12:39:58Z</time><extensions><speed>1.279134</speed><course>323.639648</course><hAcc>0.882494</hAcc><vAcc>0.696066</vAcc></extensions></trkpt>
      <trkpt lon="-3.157572" lat="52.984759"><ele>225.564575</ele><time>2021-09-01T12:39:59Z</time><extensions><speed>1.261455</speed><course>325.641083</course><hAcc>0.882586</hAcc><vAcc>0.696322</vAcc></extensions></trkpt>
      <trkpt lon="-3.157558" lat="52.984751"><ele>225.605652</ele><time>2021-09-01T12:40:00Z</time><extensions><speed>1.242365</speed><course>324.286163</course><hAcc>0.882676</hAcc><vAcc>0.696561</vAcc></extensions></trkpt>
      <trkpt lon="-3.157546" lat="52.984743"><ele>225.644791</ele><time>2021-09-01T12:40:01Z</time><extensions><speed>1.222138</speed><course>330.884674</course><hAcc>0.882766</hAcc><vAcc>0.696797</vAcc></extensions></trkpt>
      <trkpt lon="-3.157534" lat="52.984735"><ele>225.681000</ele><time>2021-09-01T12:40:02Z</time><extensions><speed>1.200824</speed><course>342.591980</course><hAcc>0.882858</hAcc><vAcc>0.697046</vAcc></extensions></trkpt>
      <trkpt lon="-3.157522" lat="52.984727"><ele>225.713440</ele><time>2021-09-01T12:40:03Z</time><extensions><speed>1.178385</speed><course>340.473694</course><hAcc>0.882955</hAcc><vAcc>0.697324</vAcc></extensions></trkpt>
      <trkpt lon="-3.157511" lat="52.984719"><ele>225.741287</ele><time>2021-09-01T12:40:04Z</time><extensions><speed>1.154722</speed><course>337.459930</course><hAcc>0.883058</hAcc><vAcc>0.697639</vAcc></extensions></trkpt>
      <trkpt lon="-3.157501" lat="52.984710"><ele>225.763947</ele><time>2021-09-01T12:40:05Z</time><extensions><speed>1.129830</speed><course>334.977905</course><hAcc>0.883168</hAcc><vAcc>0.697997</vAcc></extensions></trkpt>
      <trkpt lon="-3.157492" lat="52.984702"><ele>225.781128</ele><time>2021-09-01T12:40:06Z</time><extensions><speed>1.103976</speed><course>334.909821</course><hAcc>0.883283</hAcc><vAcc>0.698393</vAcc></extensions></trkpt>
      <trkpt lon="-3.157482" lat="52.984694"><ele>225.793030</ele><time>2021-09-01T12:40:07Z</time><extensions><speed>1.077389</speed><course>335.401093</course><hAcc>0.883402</hAcc><vAcc>0.698817</vAcc></extensions></trkpt>
      <trkpt lon="-3.157474" lat="52.984686"><ele>225.800262</ele><time>2021-09-01T12:40:08Z</time><extensions><speed>1.050933</speed><course>335.416534</course><hAcc>0.883520</hAcc><vAcc>0.699255</vAcc></extensions></trkpt>
      <trkpt lon="-3.157466" lat="52.984678"><ele>225.803635</ele><time>2021-09-01T12:40:09Z</time><extensions><speed>1.026102</speed><course>333.502777</course><hAcc>0.883634</hAcc><vAcc>0.699684</vAcc></extensions></trkpt>
      <trkpt lon="-3.157458" lat="52.984670"><ele>225.803986</ele><time>2021-09-01T12:40:10Z</time><extensions><speed>1.003678</speed><course>334.704010</course><hAcc>0.883739</hAcc><vAcc>0.700078</vAcc></extensions></trkpt>
      <trkpt lon="-3.157450" lat="52.984663"><ele>225.802017</ele><time>2021-09-01T12:40:11Z</time><extensions><speed>0.983801</speed><course>336.400421</course><hAcc>0.883829</hAcc><vAcc>0.700410</vAcc></extensions></trkpt>
      <trkpt lon="-3.157443" lat="52.984655"><ele>225.798279</ele><time>2021-09-01T12:40:12Z</time><extensions><speed>0.965901</speed><course>347.265839</course><hAcc>0.883900</hAcc><vAcc>0.700656</vAcc></extensions></trkpt>
      <trkpt lon="-3.157435" lat="52.984648"><ele>225.793259</ele><time>2021-09-01T12:40:13Z</time><extensions><speed>0.949129</speed><course>344.062927</course><hAcc>0.883949</hAcc><vAcc>0.700803</vAcc></extensions></trkpt>
      <trkpt lon="-3.157427" lat="52.984641"><ele>225.787598</ele><time>2021-09-01T12:40:14Z</time><extensions><speed>0.932716</speed><course>337.032654</course><hAcc>0.883972</hAcc><vAcc>0.700852</vAcc></extensions></trkpt>
      <trkpt lon="-3.157419" lat="52.984634"><ele>225.782074</ele><time>2021-09-01T12:40:15Z</time><extensions><speed>0.916359</speed><course>338.548584</course><hAcc>0.883968</hAcc><vAcc>0.700810</vAcc></extensions></trkpt>
      <trkpt lon="-3.157411" lat="52.984628"><ele>225.777390</ele><time>2021-09-01T12:40:16Z</time><extensions><speed>0.899539</speed><course>340.790558</course><hAcc>0.883934</hAcc><vAcc>0.700684</vAcc></extensions></trkpt>
      <trkpt lon="-3.157403" lat="52.984621"><ele>225.773865</ele><time>2021-09-01T12:40:17Z</time><extensions><speed>0.880738</speed><course>331.528198</course><hAcc>0.883866</hAcc><vAcc>0.700476</vAcc></extensions></trkpt>
      <trkpt lon="-3.157395" lat="52.984615"><ele>225.771103</ele><time>2021-09-01T12:40:18Z</time><extensions><speed>0.858383</speed><course>326.705475</course><hAcc>0.883762</hAcc><vAcc>0.700183</vAcc></extensions></trkpt>
      <trkpt lon="-3.157386" lat="52.984610"><ele>225.768204</ele><time>2021-09-01T12:40:19Z</time><extensions><speed>0.830800</speed><course>334.332062</course><hAcc>0.883617</hAcc><vAcc>0.699794</vAcc></extensions></trkpt>
      <trkpt lon="-3.157378" lat="52.984604"><ele>225.764191</ele><time>2021-09-01T12:40:20Z</time><extensions><speed>0.796751</speed><course>321.684448</course><hAcc>0.883428</hAcc><vAcc>0.699287</vAcc></extensions></trkpt>
      <trkpt lon="-3.157370" lat="52.984599"><ele>225.758240</ele><time>2021-09-01T12:40:21Z</time><extensions><speed>0.756317</speed><course>319.446838</course><hAcc>0.883188</hAcc><vAcc>0.698640</vAcc></extensions></trkpt>
      <trkpt lon="-3.157363" lat="52.984594"><ele>225.749878</ele><time>2021-09-01T12:40:22Z</time><extensions><speed>0.709998</speed><course>327.299927</course><hAcc>0.882897</hAcc><vAcc>0.697830</vAcc></extensions></trkpt>
      <trkpt lon="-3.157356" lat="52.984590"><ele>225.738708</ele><time>2021-09-01T12:40:23Z</time><extensions><speed>0.658683</speed><course>327.362518</course><hAcc>0.882555</hAcc><vAcc>0.696847</vAcc></extensions></trkpt>
      <trkpt lon="-3.157350" lat="52.984585"><ele>225.724274</ele><time>2021-09-01T12:40:24Z</time><extensions><speed>0.604593</speed><course>320.449799</course><hAcc>0.882164</hAcc><vAcc>0.695683</vAcc></extensions></trkpt>
      <trkpt lon="-3.157344" lat="52.984581"><ele>225.706375</ele><time>2021-09-01T12:40:25Z</time><extensions><speed>0.551432</speed><course>323.666901</course><hAcc>0.881735</hAcc><vAcc>0.694342</vAcc></extensions></trkpt>
      <trkpt lon="-3.157339" lat="52.984578"><ele>225.685364</ele><time>2021-09-01T12:40:26Z</time><extensions><speed>0.503057</speed><course>325.310486</course><hAcc>0.881284</hAcc><vAcc>0.692845</vAcc></extensions></trkpt>
      <trkpt lon="-3.157335" lat="52.984574"><ele>225.661621</ele><time>2021-09-01T12:40:27Z</time><extensions><speed>0.462529</speed><course>323.024933</course><hAcc>0.880831</hAcc><vAcc>0.691247</vAcc></extensions></trkpt>
      <trkpt lon="-3.157331" lat="52.984571"><ele>225.635452</ele><time>2021-09-01T12:40:28Z</time><extensions><speed>0.432439</speed><course>321.641022</course><hAcc>0.880407</hAcc><vAcc>0.689653</vAcc></extensions></trkpt>
      <trkpt lon="-3.157327" lat="52.984568"><ele>225.607056</ele><time>2021-09-01T12:40:29Z</time><extensions><speed>0.414759</speed><course>323.471222</course><hAcc>0.880044</hAcc><vAcc>0.688217</vAcc></extensions></trkpt>
      <trkpt lon="-3.157324" lat="52.984565"><ele>225.576447</ele><time>2021-09-01T12:40:30Z</time><extensions><speed>0.410672</speed><course>324.875793</course><hAcc>0.879778</hAcc><vAcc>0.687125</vAcc></extensions></trkpt>
      <trkpt lon="-3.157321" lat="52.984562"><ele>225.543564</ele><time>2021-09-01T12:40:31Z</time><extensions><speed>0.420515</speed><course>318.989594</course><hAcc>0.879639</hAcc><vAcc>0.686548</vAcc></extensions></trkpt>
      <trkpt lon="-3.157318" lat="52.984558"><ele>225.508377</ele><time>2021-09-01T12:40:32Z</time><extensions><speed>0.443720</speed><course>325.887390</course><hAcc>0.879642</hAcc><vAcc>0.686581</vAcc></extensions></trkpt>
      <trkpt lon="-3.157314" lat="52.984555"><ele>225.470932</ele><time>2021-09-01T12:40:33Z</time><extensions><speed>0.479399</speed><course>320.176544</course><hAcc>0.879781</hAcc><vAcc>0.687190</vAcc></extensions></trkpt>
      <trkpt lon="-3.157311" lat="52.984551"><ele>225.431396</ele><time>2021-09-01T12:40:34Z</time><extensions><speed>0.526738</speed><course>316.970215</course><hAcc>0.880030</hAcc><vAcc>0.688225</vAcc></extensions></trkpt>
      <trkpt lon="-3.157307" lat="52.984546"><ele>225.389999</ele><time>2021-09-01T12:40:35Z</time><extensions><speed>0.584187</speed><course>317.579376</course><hAcc>0.880356</hAcc><vAcc>0.689501</vAcc></extensions></trkpt>
      <trkpt lon="-3.157302" lat="52.984541"><ele>225.346786</ele><time>2021-09-01T12:40:36Z</time><extensions><speed>0.648767</speed><course>318.426422</course><hAcc>0.880728</hAcc><vAcc>0.690859</vAcc></extensions></trkpt>
      <trkpt lon="-3.157297" lat="52.984536"><ele>225.301559</ele><time>2021-09-01T12:40:37Z</time><extensions><speed>0.716433</speed><course>326.252594</course><hAcc>0.881117</hAcc><vAcc>0.692187</vAcc></extensions></trkpt>
      <trkpt lon="-3.157292" lat="52.984530"><ele>225.254059</ele><time>2021-09-01T12:40:38Z</time><extensions><speed>0.783429</speed><course>323.145020</course><hAcc>0.881502</hAcc><vAcc>0.693419</vAcc></extensions></trkpt>
      <trkpt lon="-3.157286" lat="52.984524"><ele>225.204193</ele><time>2021-09-01T12:40:39Z</time><extensions><speed>0.846862</speed><course>325.683777</course><hAcc>0.881866</hAcc><vAcc>0.694523</vAcc></extensions></trkpt>
      <trkpt lon="-3.157279" lat="52.984517"><ele>225.151825</ele><time>2021-09-01T12:40:40Z</time><extensions><speed>0.904793</speed><course>328.591705</course><hAcc>0.882198</hAcc><vAcc>0.695488</vAcc></extensions></trkpt>
      <trkpt lon="-3.157272" lat="52.984510"><ele>225.096664</ele><time>2021-09-01T12:40:41Z</time><extensions><speed>0.956633</speed><course>330.002411</course><hAcc>0.882493</hAcc><vAcc>0.696323</vAcc></extensions></trkpt>
      <trkpt lon="-3.157265" lat="52.984502"><ele>225.038589</ele><time>2021-09-01T12:40:42Z</time><extensions><speed>1.002280</speed><course>336.475830</course><hAcc>0.882749</hAcc><vAcc>0.697049</vAcc></extensions></trkpt>
      <trkpt lon="-3.157258" lat="52.984494"><ele>224.977814</ele><time>2021-09-01T12:40:43Z</time><extensions><speed>1.041282</speed><course>344.051849</course><hAcc>0.882969</hAcc><vAcc>0.697683</vAcc></extensions></trkpt>
      <trkpt lon="-3.157250" lat="52.984486"><ele>224.914810</ele><time>2021-09-01T12:40:44Z</time><extensions><speed>1.073102</speed><course>336.407532</course><hAcc>0.883152</hAcc><vAcc>0.698234</vAcc></extensions></trkpt>
      <trkpt lon="-3.157243" lat="52.984477"><ele>224.850082</ele><time>2021-09-01T12:40:45Z</time><extensions><speed>1.097437</speed><course>333.640045</course><hAcc>0.883302</hAcc><vAcc>0.698704</vAcc></extensions></trkpt>
      <trkpt lon="-3.157236" lat="52.984468"><ele>224.783875</ele><time>2021-09-01T12:40:46Z</time><extensions><speed>1.114855</speed><course>342.498993</course><hAcc>0.883422</hAcc><vAcc>0.699090</vAcc></extensions></trkpt>
      <trkpt lon="-3.157229" lat="52.984459"><ele>224.716339</ele><time>2021-09-01T12:40:47Z</time><extensions><speed>1.126487</speed><course>346.370605</course><hAcc>0.883513</hAcc><vAcc>0.699388</vAcc></extensions></trkpt>
      <trkpt lon="-3.157222" lat="52.984450"><ele>224.647461</ele><time>2021-09-01T12:40:48Z</time><extensions><speed>1.133337</speed><course>342.144836</course><hAcc>0.883578</hAcc><vAcc>0.699593</vAcc></extensions></trkpt>
      <trkpt lon="-3.157215" lat="52.984441"><ele>224.577286</ele><time>2021-09-01T12:40:49Z</time><extensions><speed>1.136765</speed><course>335.813446</course><hAcc>0.883620</hAcc><vAcc>0.699708</vAcc></extensions></trkpt>
      <trkpt lon="-3.157208" lat="52.984431"><ele>224.506210</ele><time>2021-09-01T12:40:50Z</time><extensions><speed>1.138268</speed><course>332.699371</course><hAcc>0.883643</hAcc><vAcc>0.699748</vAcc></extensions></trkpt>
      <trkpt lon="-3.157201" lat="52.984422"><ele>224.434830</ele><time>2021-09-01T12:40:51Z</time><extensions><speed>1.138961</speed><course>329.959167</course><hAcc>0.883651</hAcc><vAcc>0.699728</vAcc></extensions></trkpt>
      <trkpt lon="-3.157194" lat="52.984413"><ele>224.363586</ele><time>2021-09-01T12:40:52Z</time><extensions><speed>1.139631</speed><course>328.573547</course><hAcc>0.883648</hAcc><vAcc>0.699667</vAcc></extensions></trkpt>
      <trkpt lon="-3.157187" lat="52.984403"><ele>224.292740</ele><time>2021-09-01T12:40:53Z</time><extensions><speed>1.140630</speed><course>326.699219</course><hAcc>0.883640</hAcc><vAcc>0.699584</vAcc></extensions></trkpt>
      <trkpt lon="-3.157180" lat="52.984394"><ele>224.222305</ele><time>2021-09-01T12:40:54Z</time><extensions><speed>1.142134</speed><course>323.768890</course><hAcc>0.883632</hAcc><vAcc>0.699501</vAcc></extensions></trkpt>
      <trkpt lon="-3.157173" lat="52.984385"><ele>224.152115</ele><time>2021-09-01T12:40:55Z</time><extensions><speed>1.144809</speed><course>323.826019</course><hAcc>0.883626</hAcc><vAcc>0.699443</vAcc></extensions></trkpt>
      <trkpt lon="-3.157165" lat="52.984375"><ele>224.081970</ele><time>2021-09-01T12:40:56Z</time><extensions><speed>1.149494</speed><course>332.271057</course><hAcc>0.883629</hAcc><vAcc>0.699426</vAcc></extensions></trkpt>
      <trkpt lon="-3.157158" lat="52.984366"><ele>224.011490</ele><time>2021-09-01T12:40:57Z</time><extensions><speed>1.156587</speed><course>333.951233</course><hAcc>0.883640</hAcc><vAcc>0.699461</vAcc></extensions></trkpt>
      <trkpt lon="-3.157150" lat="52.984357"><ele>223.940201</ele><time>2021-09-01T12:40:58Z</time><extensions><speed>1.166127</speed><course>329.776917</course><hAcc>0.883663</hAcc><vAcc>0.699547</vAcc></extensions></trkpt>
      <trkpt lon="-3.157142" lat="52.984347"><ele>223.867752</ele><time>2021-09-01T12:40:59Z</time><extensions><speed>1.177794</speed><course>319.463959</course><hAcc>0.883696</hAcc><vAcc>0.699676</vAcc></extensions></trkpt>
      <trkpt lon="-3.157134" lat="52.984338"><ele>223.793884</ele><time>2021-09-01T12:41:00Z</time><extensions><speed>1.191383</speed><course>318.313507</course><hAcc>0.883739</hAcc><vAcc>0.699837</vAcc></extensions></trkpt>
      <trkpt lon="-3.157125" lat="52.984328"><ele>223.718552</ele><time>2021-09-01T12:41:01Z</time><extensions><speed>1.206766</speed><course>318.491211</course><hAcc>0.883788</hAcc><vAcc>0.700020</vAcc></extensions></trkpt>
      <trkpt lon="-3.157117" lat="52.984319"><ele>223.641693</ele><time>2021-09-01T12:41:02Z</time><extensions><speed>1.222962</speed><course>324.025574</course><hAcc>0.883844</hAcc><vAcc>0.700216</vAcc></extensions></trkpt>
      <trkpt lon="-3.157108" lat="52.984309"><ele>223.563202</ele><time>2021-09-01T12:41:03Z</time><extensions><speed>1.238365</speed><course>330.489594</course><hAcc>0.883902</hAcc><vAcc>0.700418</vAcc></extensions></trkpt>
      <trkpt lon="-3.157098" lat="52.984300"><ele>223.483475</ele><time>2021-09-01T12:41:04Z</time><extensions><speed>1.251692</speed><course>319.490967</course><hAcc>0.883960</hAcc><vAcc>0.700617</vAcc></extensions></trkpt>
      <trkpt lon="-3.157088" lat="52.984290"><ele>223.403275</ele><time>2021-09-01T12:41:05Z</time><extensions><speed>1.262434</speed><course>318.785126</course><hAcc>0.884017</hAcc><vAcc>0.700805</vAcc></extensions></trkpt>
      <trkpt lon="-3.157078" lat="52.984281"><ele>223.323624</ele><time>2021-09-01T12:41:06Z</time><extensions><speed>1.270905</speed><course>319.524078</course><hAcc>0.884069</hAcc><vAcc>0.700979</vAcc></extensions></trkpt>
      <trkpt lon="-3.157067" lat="52.984271"><ele>223.245895</ele><time>2021-09-01T12:41:07Z</time><extensions><speed>1.277730</speed><course>320.200592</course><hAcc>0.884114</hAcc><vAcc>0.701135</vAcc></extensions></trkpt>
      <trkpt lon="-3.157056" lat="52.984262"><ele>223.171509</ele><time>2021-09-01T12:41:08Z</time><extensions><speed>1.283201</speed><course>316.905914</course><hAcc>0.884150</hAcc><vAcc>0.701267</vAcc></extensions></trkpt>
      <trkpt lon="-3.157044" lat="52.984253"><ele>223.101730</ele><time>2021-09-01T12:41:09Z</time><extensions><speed>1.287724</speed><course>304.890350</course><hAcc>0.884176</hAcc><vAcc>0.701370</vAcc></extensions></trkpt>
      <trkpt lon="-3.157032" lat="52.984244"><ele>223.037918</ele><time>2021-09-01T12:41:10Z</time><extensions><speed>1.291347</speed><course>307.400696</course><hAcc>0.884189</hAcc><vAcc>0.701434</vAcc></extensions></trkpt>
      <trkpt lon="-3.157020" lat="52.984235"><ele>222.981461</ele><time>2021-09-01T12:41:11Z</time><extensions><speed>1.293757</speed><course>312.802460</course><hAcc>0.884189</hAcc><vAcc>0.701451</vAcc></extensions></trkpt>
      <trkpt lon="-3.157007" lat="52.984226"><ele>222.933517</ele><time>2021-09-01T12:41:12Z</time><extensions><speed>1.294631</speed><course>316.368164</course><hAcc>0.884174</hAcc><vAcc>0.701412</vAcc></extensions></trkpt>
      <trkpt lon="-3.156994" lat="52.984217"><ele>222.894806</ele><time>2021-09-01T12:41:13Z</time><extensions><speed>1.293626</speed><course>316.320160</course><hAcc>0.884144</hAcc><vAcc>0.701316</vAcc></extensions></trkpt>
      <trkpt lon="-3.156981" lat="52.984209"><ele>222.865555</ele><time>2021-09-01T12:41:14Z</time><extensions><speed>1.290699</speed><course>316.450867</course><hAcc>0.884102</hAcc><vAcc>0.701168</vAcc></extensions></trkpt>
      <trkpt lon="-3.156968" lat="52.984200"><ele>222.845703</ele><time>2021-09-01T12:41:15Z</time><extensions><speed>1.285452</speed><course>319.349792</course><hAcc>0.884048</hAcc><vAcc>0.700973</vAcc></extensions></trkpt>
      <trkpt lon="-3.156954" lat="52.984192"><ele>222.834671</ele><time>2021-09-01T12:41:16Z</time><extensions><speed>1.277389</speed><course>313.071381</course><hAcc>0.883987</hAcc><vAcc>0.700742</vAcc></extensions></trkpt>
      <trkpt lon="-3.156941" lat="52.984184"><ele>222.831070</ele><time>2021-09-01T12:41:17Z</time><extensions><speed>1.266611</speed><course>306.006348</course><hAcc>0.883921</hAcc><vAcc>0.700489</vAcc></extensions></trkpt>
      <trkpt lon="-3.156928" lat="52.984176"><ele>222.832932</ele><time>2021-09-01T12:41:18Z</time><extensions><speed>1.253679</speed><course>311.452911</course><hAcc>0.883855</hAcc><vAcc>0.700229</vAcc></extensions></trkpt>
      <trkpt lon="-3.156915" lat="52.984168"><ele>222.838120</ele><time>2021-09-01T12:41:19Z</time><extensions><speed>1.238783</speed><course>310.591675</course><hAcc>0.883795</hAcc><vAcc>0.699984</vAcc></extensions></trkpt>
      <trkpt lon="-3.156902" lat="52.984160"><ele>222.844559</ele><time>2021-09-01T12:41:20Z</time><extensions><speed>1.221889</speed><course>316.620819</course><hAcc>0.883745</hAcc><vAcc>0.699776</vAcc></extensions></trkpt>
      <trkpt lon="-3.156890" lat="52.984152"><ele>222.850418</ele><time>2021-09-01T12:41:21Z</time><extensions><speed>1.203738</speed><course>320.076630</course><hAcc>0.883710</hAcc><vAcc>0.699627</vAcc></extensions></trkpt>
      <trkpt lon="-3.156877" lat="52.984144"><ele>222.854095</ele><time>2021-09-01T12:41:22Z</time><extensions><speed>1.186165</speed><course>314.990906</course><hAcc>0.883694</hAcc><vAcc>0.699550</vAcc></extensions></trkpt>
      <trkpt lon="-3.156865" lat="52.984137"><ele>222.854431</ele><time>2021-09-01T12:41:23Z</time><extensions><speed>1.171549</speed><course>313.547699</course><hAcc>0.883698</hAcc><vAcc>0.699555</vAcc></extensions></trkpt>
      <trkpt lon="-3.156854" lat="52.984129"><ele>222.850937</ele><time>2021-09-01T12:41:24Z</time><extensions><speed>1.161517</speed><course>312.795837</course><hAcc>0.883725</hAcc><vAcc>0.699643</vAcc></extensions></trkpt>
      <trkpt lon="-3.156842" lat="52.984121"><ele>222.843399</ele><time>2021-09-01T12:41:25Z</time><extensions><speed>1.156286</speed><course>316.185669</course><hAcc>0.883774</hAcc><vAcc>0.699813</vAcc></extensions></trkpt>
      <trkpt lon="-3.156831" lat="52.984113"><ele>222.831451</ele><time>2021-09-01T12:41:26Z</time><extensions><speed>1.155561</speed><course>317.614319</course><hAcc>0.883844</hAcc><vAcc>0.700061</vAcc></extensions></trkpt>
      <trkpt lon="-3.156819" lat="52.984106"><ele>222.814758</ele><time>2021-09-01T12:41:27Z</time><extensions><speed>1.158615</speed><course>316.517609</course><hAcc>0.883933</hAcc><vAcc>0.700379</vAcc></extensions></trkpt>
      <trkpt lon="-3.156808" lat="52.984098"><ele>222.793213</ele><time>2021-09-01T12:41:28Z</time><extensions><speed>1.164502</speed><course>310.556824</course><hAcc>0.884037</hAcc><vAcc>0.700751</vAcc></extensions></trkpt>
      <trkpt lon="-3.156797" lat="52.984090"><ele>222.766754</ele><time>2021-09-01T12:41:29Z</time><extensions><speed>1.172271</speed><course>304.635742</course><hAcc>0.884152</hAcc><vAcc>0.701162</vAcc></extensions></trkpt>
      <trkpt lon="-3.156786" lat="52.984082"><ele>222.735031</ele><time>2021-09-01T12:41:30Z</time><extensions><speed>1.180828</speed><course>315.495270</course><hAcc>0.884274</hAcc><vAcc>0.701592</vAcc></extensions></trkpt>
      <trkpt lon="-3.156774" lat="52.984073"><ele>222.697571</ele><time>2021-09-01T12:41:31Z</time><extensions><speed>1.189809</speed><course>313.552460</course><hAcc>0.884397</hAcc><vAcc>0.702027</vAcc></extensions></trkpt>
      <trkpt lon="-3.156763" lat="52.984065"><ele>222.653946</ele><time>2021-09-01T12:41:32Z</time><extensions><speed>1.199498</speed><course>313.420563</course><hAcc>0.884517</hAcc><vAcc>0.702449</vAcc></extensions></trkpt>
      <trkpt lon="-3.156752" lat="52.984057"><ele>222.603912</ele><time>2021-09-01T12:41:33Z</time><extensions><speed>1.210202</speed><course>317.431976</course><hAcc>0.884628</hAcc><vAcc>0.702841</vAcc></extensions></trkpt>
      <trkpt lon="-3.156741" lat="52.984048"><ele>222.547394</ele><time>2021-09-01T12:41:34Z</time><extensions><speed>1.221947</speed><course>314.662933</course><hAcc>0.884727</hAcc><vAcc>0.703188</vAcc></extensions></trkpt>
      <trkpt lon="-3.156729" lat="52.984039"><ele>222.484711</ele><time>2021-09-01T12:41:35Z</time><extensions><speed>1.234578</speed><course>316.217957</course><hAcc>0.884810</hAcc><vAcc>0.703477</vAcc></extensions></trkpt>
      <trkpt lon="-3.156717" lat="52.984031"><ele>222.416870</ele><time>2021-09-01T12:41:36Z</time><extensions><speed>1.247413</speed><course>314.471741</course><hAcc>0.884873</hAcc><vAcc>0.703696</vAcc></extensions></trkpt>
      <trkpt lon="-3.156705" lat="52.984022"><ele>222.345627</ele><time>2021-09-01T12:41:37Z</time><extensions><speed>1.259752</speed><course>317.281403</course><hAcc>0.884915</hAcc><vAcc>0.703838</vAcc></extensions></trkpt>
      <trkpt lon="-3.156693" lat="52.984013"><ele>222.272903</ele><time>2021-09-01T12:41:38Z</time><extensions><speed>1.270811</speed><course>311.230988</course><hAcc>0.884931</hAcc><vAcc>0.703894</vAcc></extensions></trkpt>
      <trkpt lon="-3.156681" lat="52.984005"><ele>222.200623</ele><time>2021-09-01T12:41:39Z</time><extensions><speed>1.279125</speed><course>311.227600</course><hAcc>0.884922</hAcc><vAcc>0.703861</vAcc></extensions></trkpt>
      <trkpt lon="-3.156669" lat="52.983996"><ele>222.130493</ele><time>2021-09-01T12:41:40Z</time><extensions><speed>1.283633</speed><course>310.576416</course><hAcc>0.884886</hAcc><vAcc>0.703739</vAcc></extensions></trkpt>
      <trkpt lon="-3.156656" lat="52.983987"><ele>222.063522</ele><time>2021-09-01T12:41:41Z</time><extensions><speed>1.284242</speed><course>313.656311</course><hAcc>0.884821</hAcc><vAcc>0.703529</vAcc></extensions></trkpt>
      <trkpt lon="-3.156644" lat="52.983979"><ele>221.999954</ele><time>2021-09-01T12:41:42Z</time><extensions><speed>1.281385</speed><course>319.881683</course><hAcc>0.884726</hAcc><vAcc>0.703229</vAcc></extensions></trkpt>
      <trkpt lon="-3.156631" lat="52.983970"><ele>221.939758</ele><time>2021-09-01T12:41:43Z</time><extensions><speed>1.275823</speed><course>322.545044</course><hAcc>0.884599</hAcc><vAcc>0.702834</vAcc></extensions></trkpt>
      <trkpt lon="-3.156619" lat="52.983961"><ele>221.882965</ele><time>2021-09-01T12:41:44Z</time><extensions><speed>1.268528</speed><course>315.377472</course><hAcc>0.884438</hAcc><vAcc>0.702336</vAcc></extensions></trkpt>
      <trkpt lon="-3.156606" lat="52.983953"><ele>221.829803</ele><time>2021-09-01T12:41:45Z</time><extensions><speed>1.260231</speed><course>321.220673</course><hAcc>0.884240</hAcc><vAcc>0.701726</vAcc></extensions></trkpt>
      <trkpt lon="-3.156594" lat="52.983944"><ele>221.780731</ele><time>2021-09-01T12:41:46Z</time><extensions><speed>1.251407</speed><course>319.716766</course><hAcc>0.884004</hAcc><vAcc>0.700994</vAcc></extensions></trkpt>
      <trkpt lon="-3.156581" lat="52.983936"><ele>221.736374</ele><time>2021-09-01T12:41:47Z</time><extensions><speed>1.241983</speed><course>323.703217</course><hAcc>0.883724</hAcc><vAcc>0.700129</vAcc></extensions></trkpt>
      <trkpt lon="-3.156569" lat="52.983928"><ele>221.697113</ele><time>2021-09-01T12:41:48Z</time><extensions><speed>1.231320</speed><course>322.763458</course><hAcc>0.883399</hAcc><vAcc>0.699119</vAcc></extensions></trkpt>
      <trkpt lon="-3.156556" lat="52.983920"><ele>221.662933</ele><time>2021-09-01T12:41:49Z</time><extensions><speed>1.219178</speed><course>321.396271</course><hAcc>0.883024</hAcc><vAcc>0.697951</vAcc></extensions></trkpt>
      <trkpt lon="-3.156544" lat="52.983912"><ele>221.633652</ele><time>2021-09-01T12:41:50Z</time><extensions><speed>1.205946</speed><course>324.253845</course><hAcc>0.882598</hAcc><vAcc>0.696614</vAcc></extensions></trkpt>
      <trkpt lon="-3.156531" lat="52.983904"><ele>221.609131</ele><time>2021-09-01T12:41:51Z</time><extensions><speed>1.192742</speed><course>322.941711</course><hAcc>0.882118</hAcc><vAcc>0.695102</vAcc></extensions></trkpt>
      <trkpt lon="-3.156519" lat="52.983897"><ele>221.589432</ele><time>2021-09-01T12:41:52Z</time><extensions><speed>1.181192</speed><course>324.827728</course><hAcc>0.881586</hAcc><vAcc>0.693415</vAcc></extensions></trkpt>
      <trkpt lon="-3.156506" lat="52.983889"><ele>221.574860</ele><time>2021-09-01T12:41:53Z</time><extensions><speed>1.172401</speed><course>323.315277</course><hAcc>0.881007</hAcc><vAcc>0.691560</vAcc></extensions></trkpt>
      <trkpt lon="-3.156494" lat="52.983882"><ele>221.565674</ele><time>2021-09-01T12:41:54Z</time><extensions><speed>1.167639</speed><course>316.049652</course><hAcc>0.880388</hAcc><vAcc>0.689546</vAcc></extensions></trkpt>
      <trkpt lon="-3.156481" lat="52.983875"><ele>221.561722</ele><time>2021-09-01T12:41:55Z</time><extensions><speed>1.168099</speed><course>321.640442</course><hAcc>0.879746</hAcc><vAcc>0.687386</vAcc></extensions></trkpt>
      <trkpt lon="-3.156469" lat="52.983868"><ele>221.562576</ele><time>2021-09-01T12:41:56Z</time><extensions><speed>1.173589</speed><course>318.527374</course><hAcc>0.879106</hAcc><vAcc>0.685091</vAcc></extensions></trkpt>
      <trkpt lon="-3.156456" lat="52.983860"><ele>221.567581</ele><time>2021-09-01T12:41:57Z</time><extensions><speed>1.183061</speed><course>327.209106</course><hAcc>0.878505</hAcc><vAcc>0.682684</vAcc></extensions></trkpt>
      <trkpt lon="-3.156443" lat="52.983853"><ele>221.575806</ele><time>2021-09-01T12:41:58Z</time><extensions><speed>1.195323</speed><course>321.431091</course><hAcc>0.877996</hAcc><vAcc>0.680192</vAcc></extensions></trkpt>
      <trkpt lon="-3.156429" lat="52.983846"><ele>221.586395</ele><time>2021-09-01T12:41:59Z</time><extensions><speed>1.209309</speed><course>309.255585</course><hAcc>0.877647</hAcc><vAcc>0.677643</vAcc></extensions></trkpt>
      <trkpt lon="-3.156416" lat="52.983838"><ele>221.598663</ele><time>2021-09-01T12:42:00Z</time><extensions><speed>1.224507</speed><course>316.262177</course><hAcc>0.877542</hAcc><vAcc>0.675060</vAcc></extensions></trkpt>
      <trkpt lon="-3.156403" lat="52.983831"><ele>221.611877</ele><time>2021-09-01T12:42:01Z</time><extensions><speed>1.240225</speed><course>318.486328</course><hAcc>0.877783</hAcc><vAcc>0.672462</vAcc></extensions></trkpt>
      <trkpt lon="-3.156390" lat="52.983823"><ele>221.625305</ele><time>2021-09-01T12:42:02Z</time><extensions><speed>1.255541</speed><course>323.918549</course><hAcc>0.878474</hAcc><vAcc>0.669865</vAcc></extensions></trkpt>
      <trkpt lon="-3.156377" lat="52.983815"><ele>221.637711</ele><time>2021-09-01T12:42:03Z</time><extensions><speed>1.269762</speed><course>326.771637</course><hAcc>0.879720</hAcc><vAcc>0.667285</vAcc></extensions></trkpt>
      <trkpt lon="-3.156364" lat="52.983806"><ele>221.647446</ele><time>2021-09-01T12:42:04Z</time><extensions><speed>1.282446</speed><course>322.066162</course><hAcc>0.881603</hAcc><vAcc>0.664740</vAcc></extensions></trkpt>
      <trkpt lon="-3.156352" lat="52.983797"><ele>221.652603</ele><time>2021-09-01T12:42:05Z</time><extensions><speed>1.293963</speed><course>315.897980</course><hAcc>0.884162</hAcc><vAcc>0.662248</vAcc></extensions></trkpt>
      <trkpt lon="-3.156340" lat="52.983788"><ele>221.651520</ele><time>2021-09-01T12:42:06Z</time><extensions><speed>1.305215</speed><course>320.677979</course><hAcc>0.887370</hAcc><vAcc>0.659817</vAcc></extensions></trkpt>
      <trkpt lon="-3.156329" lat="52.983778"><ele>221.642807</ele><time>2021-09-01T12:42:07Z</time><extensions><speed>1.317310</speed><course>328.194458</course><hAcc>0.891116</hAcc><vAcc>0.657448</vAcc></extensions></trkpt>
      <trkpt lon="-3.156318" lat="52.983768"><ele>221.625000</ele><time>2021-09-01T12:42:08Z</time><extensions><speed>1.330911</speed><course>342.191681</course><hAcc>0.895206</hAcc><vAcc>0.655135</vAcc></extensions></trkpt>
      <trkpt lon="-3.156307" lat="52.983758"><ele>221.596512</ele><time>2021-09-01T12:42:09Z</time><extensions><speed>1.346264</speed><course>338.973602</course><hAcc>0.899378</hAcc><vAcc>0.652870</vAcc></extensions></trkpt>
      <trkpt lon="-3.156297" lat="52.983748"><ele>221.556076</ele><time>2021-09-01T12:42:10Z</time><extensions><speed>1.363246</speed><course>338.845032</course><hAcc>0.903326</hAcc><vAcc>0.650651</vAcc></extensions></trkpt>
      <trkpt lon="-3.156287" lat="52.983737"><ele>221.502853</ele><time>2021-09-01T12:42:11Z</time><extensions><speed>1.381092</speed><course>343.294373</course><hAcc>0.906731</hAcc><vAcc>0.648472</vAcc></extensions></trkpt>
      <trkpt lon="-3.156278" lat="52.983726"><ele>221.436432</ele><time>2021-09-01T12:42:12Z</time><extensions><speed>1.399166</speed><course>345.380096</course><hAcc>0.909285</hAcc><vAcc>0.646335</vAcc></extensions></trkpt>
      <trkpt lon="-3.156269" lat="52.983714"><ele>221.356873</ele><time>2021-09-01T12:42:13Z</time><extensions><speed>1.416900</speed><course>336.417389</course><hAcc>0.910723</hAcc><vAcc>0.644249</vAcc></extensions></trkpt>
      <trkpt lon="-3.156259" lat="52.983703"><ele>221.264526</ele><time>2021-09-01T12:42:14Z</time><extensions><speed>1.433744</speed><course>349.627289</course><hAcc>0.910858</hAcc><vAcc>0.642231</vAcc></extensions></trkpt>
      <trkpt lon="-3.156250" lat="52.983691"><ele>221.160172</ele><time>2021-09-01T12:42:15Z</time><extensions><speed>1.449579</speed><course>333.102356</course><hAcc>0.909613</hAcc><vAcc>0.640286</vAcc></extensions></trkpt>
      <trkpt lon="-3.156241" lat="52.983679"><ele>221.044937</ele><time>2021-09-01T12:42:16Z</time><extensions><speed>1.464733</speed><course>345.486877</course><hAcc>0.907029</hAcc><vAcc>0.638409</vAcc></extensions></trkpt>
      <trkpt lon="-3.156232" lat="52.983667"><ele>220.920425</ele><time>2021-09-01T12:42:17Z</time><extensions><speed>1.479608</speed><course>343.184906</course><hAcc>0.903263</hAcc><vAcc>0.636600</vAcc></extensions></trkpt>
      <trkpt lon="-3.156222" lat="52.983655"><ele>220.788742</ele><time>2021-09-01T12:42:18Z</time><extensions><speed>1.494555</speed><course>342.239624</course><hAcc>0.898577</hAcc><vAcc>0.634892</vAcc></extensions></trkpt>
      <trkpt lon="-3.156212" lat="52.983643"><ele>220.652512</ele><time>2021-09-01T12:42:19Z</time><extensions><speed>1.509396</speed><course>352.331055</course><hAcc>0.893304</hAcc><vAcc>0.633367</vAcc></extensions></trkpt>
      <trkpt lon="-3.156201" lat="52.983631"><ele>220.514374</ele><time>2021-09-01T12:42:20Z</time><extensions><speed>1.523334</speed><course>352.560638</course><hAcc>0.887820</hAcc><vAcc>0.632147</vAcc></extensions></trkpt>
      <trkpt lon="-3.156190" lat="52.983619"><ele>220.377014</ele><time>2021-09-01T12:42:21Z</time><extensions><speed>1.535969</speed><course>349.901215</course><hAcc>0.882509</hAcc><vAcc>0.631350</vAcc></extensions></trkpt>
      <trkpt lon="-3.156179" lat="52.983607"><ele>220.243286</ele><time>2021-09-01T12:42:22Z</time><extensions><speed>1.546669</speed><course>347.225525</course><hAcc>0.877715</hAcc><vAcc>0.631055</vAcc></extensions></trkpt>
      <trkpt lon="-3.156167" lat="52.983595"><ele>220.116043</ele><time>2021-09-01T12:42:23Z</time><extensions><speed>1.554754</speed><course>342.525452</course><hAcc>0.873688</hAcc><vAcc>0.631304</vAcc></extensions></trkpt>
      <trkpt lon="-3.156154" lat="52.983584"><ele>219.997833</ele><time>2021-09-01T12:42:24Z</time><extensions><speed>1.560171</speed><course>344.186432</course><hAcc>0.870558</hAcc><vAcc>0.632132</vAcc></extensions></trkpt>
      <trkpt lon="-3.156141" lat="52.983572"><ele>219.890396</ele><time>2021-09-01T12:42:25Z</time><extensions><speed>1.562419</speed><course>344.723938</course><hAcc>0.868346</hAcc><vAcc>0.633566</vAcc></extensions></trkpt>
      <trkpt lon="-3.156128" lat="52.983560"><ele>219.794785</ele><time>2021-09-01T12:42:26Z</time><extensions><speed>1.560733</speed><course>335.783966</course><hAcc>0.866990</hAcc><vAcc>0.635602</vAcc></extensions></trkpt>
      <trkpt lon="-3.156115" lat="52.983549"><ele>219.711884</ele><time>2021-09-01T12:42:27Z</time><extensions><speed>1.554706</speed><course>346.047455</course><hAcc>0.866373</hAcc><vAcc>0.638180</vAcc></extensions></trkpt>
      <trkpt lon="-3.156101" lat="52.983538"><ele>219.642258</ele><time>2021-09-01T12:42:28Z</time><extensions><speed>1.543928</speed><course>348.227631</course><hAcc>0.866346</hAcc><vAcc>0.641182</vAcc></extensions></trkpt>
      <trkpt lon="-3.156087" lat="52.983527"><ele>219.585831</ele><time>2021-09-01T12:42:29Z</time><extensions><speed>1.528054</speed><course>346.562134</course><hAcc>0.866759</hAcc><vAcc>0.644481</vAcc></extensions></trkpt>
      <trkpt lon="-3.156074" lat="52.983516"><ele>219.541855</ele><time>2021-09-01T12:42:30Z</time><extensions><speed>1.507450</speed><course>340.164734</course><hAcc>0.867479</hAcc><vAcc>0.647963</vAcc></extensions></trkpt>
      <trkpt lon="-3.156060" lat="52.983505"><ele>219.508804</ele><time>2021-09-01T12:42:31Z</time><extensions><speed>1.482905</speed><course>340.903290</course><hAcc>0.868397</hAcc><vAcc>0.651537</vAcc></extensions></trkpt>
      <trkpt lon="-3.156047" lat="52.983494"><ele>219.484482</ele><time>2021-09-01T12:42:32Z</time><extensions><speed>1.455548</speed><course>337.951172</course><hAcc>0.869427</hAcc><vAcc>0.655130</vAcc></extensions></trkpt>
      <trkpt lon="-3.156035" lat="52.983484"><ele>219.466507</ele><time>2021-09-01T12:42:33Z</time><extensions><speed>1.427212</speed><course>343.976532</course><hAcc>0.870508</hAcc><vAcc>0.658685</vAcc></extensions></trkpt>
      <trkpt lon="-3.156022" lat="52.983474"><ele>219.452942</ele><time>2021-09-01T12:42:34Z</time><extensions><speed>1.399651</speed><course>344.587616</course><hAcc>0.871595</hAcc><vAcc>0.662159</vAcc></extensions></trkpt>
      <trkpt lon="-3.156010" lat="52.983464"><ele>219.442169</ele><time>2021-09-01T12:42:35Z</time><extensions><speed>1.373812</speed><course>341.405151</course><hAcc>0.872657</hAcc><vAcc>0.665513</vAcc></extensions></trkpt>
      <trkpt lon="-3.155999" lat="52.983453"><ele>219.432434</ele><time>2021-09-01T12:42:36Z</time><extensions><speed>1.349912</speed><course>339.649231</course><hAcc>0.873675</hAcc><vAcc>0.668716</vAcc></extensions></trkpt>
      <trkpt lon="-3.155988" lat="52.983443"><ele>219.421661</ele><time>2021-09-01T12:42:37Z</time><extensions><speed>1.327818</speed><course>334.810822</course><hAcc>0.874636</hAcc><vAcc>0.671744</vAcc></extensions></trkpt>
      <trkpt lon="-3.155978" lat="52.983433"><ele>219.407593</ele><time>2021-09-01T12:42:38Z</time><extensions><speed>1.307005</speed><course>330.628723</course><hAcc>0.875533</hAcc><vAcc>0.674576</vAcc></extensions></trkpt>
      <trkpt lon="-3.155968" lat="52.983423"><ele>219.388062</ele><time>2021-09-01T12:42:39Z</time><extensions><speed>1.286976</speed><course>326.820862</course><hAcc>0.876359</hAcc><vAcc>0.677189</vAcc></extensions></trkpt>
      <trkpt lon="-3.155958" lat="52.983413"><ele>219.361237</ele><time>2021-09-01T12:42:40Z</time><extensions><speed>1.267876</speed><course>329.993256</course><hAcc>0.877112</hAcc><vAcc>0.679561</vAcc></extensions></trkpt>
      <trkpt lon="-3.155949" lat="52.983404"><ele>219.326096</ele><time>2021-09-01T12:42:41Z</time><extensions><speed>1.250223</speed><course>333.108307</course><hAcc>0.877791</hAcc><vAcc>0.681684</vAcc></extensions></trkpt>
      <trkpt lon="-3.155940" lat="52.983394"><ele>219.282074</ele><time>2021-09-01T12:42:42Z</time><extensions><speed>1.234437</speed><course>328.264221</course><hAcc>0.878397</hAcc><vAcc>0.683564</vAcc></extensions></trkpt>
      <trkpt lon="-3.155931" lat="52.983384"><ele>219.229126</ele><time>2021-09-01T12:42:43Z</time><extensions><speed>1.220896</speed><course>336.747131</course><hAcc>0.878936</hAcc><vAcc>0.685224</vAcc></extensions></trkpt>
      <trkpt lon="-3.155923" lat="52.983374"><ele>219.168091</ele><time>2021-09-01T12:42:44Z</time><extensions><speed>1.210256</speed><course>330.065033</course><hAcc>0.879410</hAcc><vAcc>0.686685</vAcc></extensions></trkpt>
      <trkpt lon="-3.155914" lat="52.983365"><ele>219.100235</ele><time>2021-09-01T12:42:45Z</time><extensions><speed>1.202724</speed><course>317.215851</course><hAcc>0.879826</hAcc><vAcc>0.687964</vAcc></extensions></trkpt>
      <trkpt lon="-3.155905" lat="52.983356"><ele>219.027039</ele><time>2021-09-01T12:42:46Z</time><extensions><speed>1.197853</speed><course>321.035828</course><hAcc>0.880187</hAcc><vAcc>0.689071</vAcc></extensions></trkpt>
      <trkpt lon="-3.155896" lat="52.983346"><ele>218.950302</ele><time>2021-09-01T12:42:47Z</time><extensions><speed>1.195485</speed><course>319.935577</course><hAcc>0.880499</hAcc><vAcc>0.690019</vAcc></extensions></trkpt>
      <trkpt lon="-3.155887" lat="52.983337"><ele>218.872147</ele><time>2021-09-01T12:42:48Z</time><extensions><speed>1.195231</speed><course>325.102844</course><hAcc>0.880764</hAcc><vAcc>0.690826</vAcc></extensions></trkpt>
      <trkpt lon="-3.155878" lat="52.983328"><ele>218.794510</ele><time>2021-09-01T12:42:49Z</time><extensions><speed>1.196973</speed><course>327.812073</course><hAcc>0.880989</hAcc><vAcc>0.691506</vAcc></extensions></trkpt>
      <trkpt lon="-3.155868" lat="52.983319"><ele>218.719223</ele><time>2021-09-01T12:42:50Z</time><extensions><speed>1.201226</speed><course>320.427582</course><hAcc>0.881177</hAcc><vAcc>0.692077</vAcc></extensions></trkpt>
      <trkpt lon="-3.155857" lat="52.983310"><ele>218.648331</ele><time>2021-09-01T12:42:51Z</time><extensions><speed>1.208293</speed><course>321.194977</course><hAcc>0.881332</hAcc><vAcc>0.692547</vAcc></extensions></trkpt>
      <trkpt lon="-3.155847" lat="52.983301"><ele>218.583740</ele><time>2021-09-01T12:42:52Z</time><extensions><speed>1.218404</speed><course>318.963165</course><hAcc>0.881457</hAcc><vAcc>0.692925</vAcc></extensions></trkpt>
      <trkpt lon="-3.155835" lat="52.983293"><ele>218.526688</ele><time>2021-09-01T12:42:53Z</time><extensions><speed>1.230976</speed><course>318.221771</course><hAcc>0.881553</hAcc><vAcc>0.693211</vAcc></extensions></trkpt>
      <trkpt lon="-3.155824" lat="52.983284"><ele>218.478012</ele><time>2021-09-01T12:42:54Z</time><extensions><speed>1.244663</speed><course>325.110291</course><hAcc>0.881622</hAcc><vAcc>0.693408</vAcc></extensions></trkpt>
      <trkpt lon="-3.155811" lat="52.983276"><ele>218.438843</ele><time>2021-09-01T12:42:55Z</time><extensions><speed>1.258495</speed><course>325.968475</course><hAcc>0.881664</hAcc><vAcc>0.693520</vAcc></extensions></trkpt>
      <trkpt lon="-3.155799" lat="52.983267"><ele>218.410492</ele><time>2021-09-01T12:42:56Z</time><extensions><speed>1.272008</speed><course>319.629425</course><hAcc>0.881680</hAcc><vAcc>0.693556</vAcc></extensions></trkpt>
      <trkpt lon="-3.155786" lat="52.983259"><ele>218.393631</ele><time>2021-09-01T12:42:57Z</time><extensions><speed>1.284630</speed><course>319.103638</course><hAcc>0.881666</hAcc><vAcc>0.693518</vAcc></extensions></trkpt>
      <trkpt lon="-3.155773" lat="52.983250"><ele>218.388077</ele><time>2021-09-01T12:42:58Z</time><extensions><speed>1.295741</speed><course>314.591980</course><hAcc>0.881618</hAcc><vAcc>0.693398</vAcc></extensions></trkpt>
      <trkpt lon="-3.155760" lat="52.983242"><ele>218.393433</ele><time>2021-09-01T12:42:59Z</time><extensions><speed>1.304715</speed><course>315.007294</course><hAcc>0.881529</hAcc><vAcc>0.693179</vAcc></extensions></trkpt>
      <trkpt lon="-3.155747" lat="52.983233"><ele>218.409180</ele><time>2021-09-01T12:43:00Z</time><extensions><speed>1.310727</speed><course>322.287598</course><hAcc>0.881390</hAcc><vAcc>0.692837</vAcc></extensions></trkpt>
      <trkpt lon="-3.155734" lat="52.983224"><ele>218.434723</ele><time>2021-09-01T12:43:01Z</time><extensions><speed>1.313697</speed><course>320.536743</course><hAcc>0.881190</hAcc><vAcc>0.692333</vAcc></extensions></trkpt>
      <trkpt lon="-3.155720" lat="52.983215"><ele>218.469345</ele><time>2021-09-01T12:43:02Z</time><extensions><speed>1.314532</speed><course>317.691437</course><hAcc>0.880917</hAcc><vAcc>0.691622</vAcc></extensions></trkpt>
      <trkpt lon="-3.155707" lat="52.983207"><ele>218.512253</ele><time>2021-09-01T12:43:03Z</time><extensions><speed>1.313980</speed><course>319.879181</course><hAcc>0.880556</hAcc><vAcc>0.690655</vAcc></extensions></trkpt>
      <trkpt lon="-3.155694" lat="52.983198"><ele>218.562408</ele><time>2021-09-01T12:43:04Z</time><extensions><speed>1.312621</speed><course>320.065887</course><hAcc>0.880097</hAcc><vAcc>0.689375</vAcc></extensions></trkpt>
      <trkpt lon="-3.155681" lat="52.983189"><ele>218.618530</ele><time>2021-09-01T12:43:05Z</time><extensions><speed>1.310944</speed><course>321.533569</course><hAcc>0.879529</hAcc><vAcc>0.687735</vAcc></extensions></trkpt>
      <trkpt lon="-3.155669" lat="52.983180"><ele>218.679092</ele><time>2021-09-01T12:43:06Z</time><extensions><speed>1.309294</speed><course>324.813110</course><hAcc>0.878849</hAcc><vAcc>0.685698</vAcc></extensions></trkpt>
      <trkpt lon="-3.155656" lat="52.983171"><ele>218.742569</ele><time>2021-09-01T12:43:07Z</time><extensions><speed>1.307709</speed><course>329.013580</course><hAcc>0.878058</hAcc><vAcc>0.683251</vAcc></extensions></trkpt>
      <trkpt lon="-3.155643" lat="52.983163"><ele>218.807495</ele><time>2021-09-01T12:43:08Z</time><extensions><speed>1.305830</speed><course>324.901581</course><hAcc>0.877165</hAcc><vAcc>0.680415</vAcc></extensions></trkpt>
      <trkpt lon="-3.155630" lat="52.983154"><ele>218.872894</ele><time>2021-09-01T12:43:09Z</time><extensions><speed>1.303419</speed><course>318.603180</course><hAcc>0.876188</hAcc><vAcc>0.677247</vAcc></extensions></trkpt>
      <trkpt lon="-3.155617" lat="52.983145"><ele>218.938385</ele><time>2021-09-01T12:43:10Z</time><extensions><speed>1.300291</speed><course>314.278656</course><hAcc>0.875152</hAcc><vAcc>0.673841</vAcc></extensions></trkpt>
      <trkpt lon="-3.155604" lat="52.983136"><ele>219.003845</ele><time>2021-09-01T12:43:11Z</time><extensions><speed>1.296987</speed><course>319.463074</course><hAcc>0.874089</hAcc><vAcc>0.670313</vAcc></extensions></trkpt>
      <trkpt lon="-3.155591" lat="52.983128"><ele>219.069366</ele><time>2021-09-01T12:43:12Z</time><extensions><speed>1.294297</speed><course>323.368469</course><hAcc>0.873035</hAcc><vAcc>0.666796</vAcc></extensions></trkpt>
      <trkpt lon="-3.155578" lat="52.983119"><ele>219.135391</ele><time>2021-09-01T12:43:13Z</time><extensions><speed>1.292459</speed><course>324.877350</course><hAcc>0.872031</hAcc><vAcc>0.663431</vAcc></extensions></trkpt>
      <trkpt lon="-3.155565" lat="52.983111"><ele>219.202515</ele><time>2021-09-01T12:43:14Z</time><extensions><speed>1.291563</speed><course>328.239716</course><hAcc>0.871112</hAcc><vAcc>0.660356</vAcc></extensions></trkpt>
      <trkpt lon="-3.155552" lat="52.983102"><ele>219.271545</ele><time>2021-09-01T12:43:15Z</time><extensions><speed>1.291467</speed><course>325.680328</course><hAcc>0.870313</hAcc><vAcc>0.657693</vAcc></extensions></trkpt>
      <trkpt lon="-3.155538" lat="52.983094"><ele>219.343155</ele><time>2021-09-01T12:43:16Z</time><extensions><speed>1.291748</speed><course>329.865967</course><hAcc>0.869660</hAcc><vAcc>0.655541</vAcc></extensions></trkpt>
      <trkpt lon="-3.155525" lat="52.983086"><ele>219.417633</ele><time>2021-09-01T12:43:17Z</time><extensions><speed>1.291658</speed><course>328.590454</course><hAcc>0.869171</hAcc><vAcc>0.653965</vAcc></extensions></trkpt>
      <trkpt lon="-3.155512" lat="52.983077"><ele>219.494919</ele><time>2021-09-01T12:43:18Z</time><extensions><speed>1.290633</speed><course>328.102966</course><hAcc>0.868848</hAcc><vAcc>0.652986</vAcc></extensions></trkpt>
      <trkpt lon="-3.155499" lat="52.983069"><ele>219.574753</ele><time>2021-09-01T12:43:19Z</time><extensions><speed>1.288422</speed><course>314.592194</course><hAcc>0.868681</hAcc><vAcc>0.652564</vAcc></extensions></trkpt>
      <trkpt lon="-3.155486" lat="52.983060"><ele>219.656769</ele><time>2021-09-01T12:43:20Z</time><extensions><speed>1.284834</speed><course>318.557648</course><hAcc>0.868644</hAcc><vAcc>0.652608</vAcc></extensions></trkpt>
      <trkpt lon="-3.155473" lat="52.983052"><ele>219.740356</ele><time>2021-09-01T12:43:21Z</time><extensions><speed>1.279974</speed><course>323.922150</course><hAcc>0.868699</hAcc><vAcc>0.652982</vAcc></extensions></trkpt>
      <trkpt lon="-3.155461" lat="52.983043"><ele>219.824524</ele><time>2021-09-01T12:43:22Z</time><extensions><speed>1.274175</speed><course>321.145691</course><hAcc>0.868797</hAcc><vAcc>0.653502</vAcc></extensions></trkpt>
      <trkpt lon="-3.155448" lat="52.983034"><ele>219.907715</ele><time>2021-09-01T12:43:23Z</time><extensions><speed>1.268115</speed><course>322.786774</course><hAcc>0.868886</hAcc><vAcc>0.653957</vAcc></extensions></trkpt>
      <trkpt lon="-3.155436" lat="52.983025"><ele>219.988174</ele><time>2021-09-01T12:43:24Z</time><extensions><speed>1.262545</speed><course>326.716736</course><hAcc>0.868915</hAcc><vAcc>0.654160</vAcc></extensions></trkpt>
      <trkpt lon="-3.155425" lat="52.983017"><ele>220.064423</ele><time>2021-09-01T12:43:25Z</time><extensions><speed>1.257645</speed><course>329.036499</course><hAcc>0.868855</hAcc><vAcc>0.653995</vAcc></extensions></trkpt>
      <trkpt lon="-3.155414" lat="52.983008"><ele>220.135193</ele><time>2021-09-01T12:43:26Z</time><extensions><speed>1.253334</speed><course>334.350830</course><hAcc>0.868696</hAcc><vAcc>0.653433</vAcc></extensions></trkpt>
      <trkpt lon="-3.155403" lat="52.982998"><ele>220.199341</ele><time>2021-09-01T12:43:27Z</time><extensions><speed>1.248853</speed><course>328.154053</course><hAcc>0.868447</hAcc><vAcc>0.652526</vAcc></extensions></trkpt>
      <trkpt lon="-3.155392" lat="52.982989"><ele>220.255905</ele><time>2021-09-01T12:43:28Z</time><extensions><speed>1.243180</speed><course>334.753510</course><hAcc>0.868135</hAcc><vAcc>0.651386</vAcc></extensions></trkpt>
      <trkpt lon="-3.155381" lat="52.982980"><ele>220.304337</ele><time>2021-09-01T12:43:29Z</time><extensions><speed>1.235829</speed><course>331.588837</course><hAcc>0.867791</hAcc><vAcc>0.650152</vAcc></extensions></trkpt>
      <trkpt lon="-3.155371" lat="52.982971"><ele>220.344727</ele><time>2021-09-01T12:43:30Z</time><extensions><speed>1.227007</speed><course>334.240753</course><hAcc>0.867447</hAcc><vAcc>0.648943</vAcc></extensions></trkpt>
      <trkpt lon="-3.155360" lat="52.982962"><ele>220.377609</ele><time>2021-09-01T12:43:31Z</time><extensions><speed>1.217457</speed><course>338.277435</course><hAcc>0.867125</hAcc><vAcc>0.647844</vAcc></extensions></trkpt>
      <trkpt lon="-3.155350" lat="52.982953"><ele>220.403748</ele><time>2021-09-01T12:43:32Z</time><extensions><speed>1.207328</speed><course>328.841278</course><hAcc>0.866837</hAcc><vAcc>0.646896</vAcc></extensions></trkpt>
      <trkpt lon="-3.155339" lat="52.982945"><ele>220.424026</ele><time>2021-09-01T12:43:33Z</time><extensions><speed>1.196156</speed><course>323.726990</course><hAcc>0.866586</hAcc><vAcc>0.646101</vAcc></extensions></trkpt>
      <trkpt lon="-3.155328" lat="52.982936"><ele>220.439865</ele><time>2021-09-01T12:43:34Z</time><extensions><speed>1.184328</speed><course>317.846680</course><hAcc>0.866365</hAcc><vAcc>0.645419</vAcc></extensions></trkpt>
      <trkpt lon="-3.155317" lat="52.982928"><ele>220.453003</ele><time>2021-09-01T12:43:35Z</time><extensions><speed>1.173025</speed><course>319.877411</course><hAcc>0.866164</hAcc><vAcc>0.644806</vAcc></extensions></trkpt>
      <trkpt lon="-3.155306" lat="52.982920"><ele>220.464706</ele><time>2021-09-01T12:43:36Z</time><extensions><speed>1.163231</speed><course>318.901947</course><hAcc>0.865977</hAcc><vAcc>0.644232</vAcc></extensions></trkpt>
      <trkpt lon="-3.155295" lat="52.982912"><ele>220.475891</ele><time>2021-09-01T12:43:37Z</time><extensions><speed>1.155278</speed><course>320.825470</course><hAcc>0.865803</hAcc><vAcc>0.643687</vAcc></extensions></trkpt>
      <trkpt lon="-3.155284" lat="52.982904"><ele>220.487473</ele><time>2021-09-01T12:43:38Z</time><extensions><speed>1.149091</speed><course>331.940704</course><hAcc>0.865644</hAcc><vAcc>0.643175</vAcc></extensions></trkpt>
      <trkpt lon="-3.155272" lat="52.982897"><ele>220.500763</ele><time>2021-09-01T12:43:39Z</time><extensions><speed>1.144943</speed><course>329.732300</course><hAcc>0.865510</hAcc><vAcc>0.642726</vAcc></extensions></trkpt>
      <trkpt lon="-3.155261" lat="52.982889"><ele>220.517319</ele><time>2021-09-01T12:43:40Z</time><extensions><speed>1.142419</speed><course>330.480469</course><hAcc>0.865415</hAcc><vAcc>0.642391</vAcc></extensions></trkpt>
      <trkpt lon="-3.155249" lat="52.982882"><ele>220.538498</ele><time>2021-09-01T12:43:41Z</time><extensions><speed>1.140658</speed><course>327.453430</course><hAcc>0.865375</hAcc><vAcc>0.642231</vAcc></extensions></trkpt>
      <trkpt lon="-3.155237" lat="52.982874"><ele>220.565353</ele><time>2021-09-01T12:43:42Z</time><extensions><speed>1.139383</speed><course>332.608093</course><hAcc>0.865405</hAcc><vAcc>0.642298</vAcc></extensions></trkpt>
      <trkpt lon="-3.155225" lat="52.982867"><ele>220.598892</ele><time>2021-09-01T12:43:43Z</time><extensions><speed>1.138537</speed><course>330.647522</course><hAcc>0.865516</hAcc><vAcc>0.642635</vAcc></extensions></trkpt>
      <trkpt lon="-3.155213" lat="52.982860"><ele>220.640045</ele><time>2021-09-01T12:43:44Z</time><extensions><speed>1.138004</speed><course>325.179230</course><hAcc>0.865715</hAcc><vAcc>0.643269</vAcc></extensions></trkpt>
      <trkpt lon="-3.155201" lat="52.982853"><ele>220.689178</ele><time>2021-09-01T12:43:45Z</time><extensions><speed>1.137017</speed><course>323.492767</course><hAcc>0.865999</hAcc><vAcc>0.644187</vAcc></extensions></trkpt>
      <trkpt lon="-3.155188" lat="52.982846"><ele>220.746017</ele><time>2021-09-01T12:43:46Z</time><extensions><speed>1.134274</speed><course>319.068512</course><hAcc>0.866357</hAcc><vAcc>0.645351</vAcc></extensions></trkpt>
      <trkpt lon="-3.155176" lat="52.982839"><ele>220.810211</ele><time>2021-09-01T12:43:47Z</time><extensions><speed>1.129092</speed><course>318.607483</course><hAcc>0.866772</hAcc><vAcc>0.646704</vAcc></extensions></trkpt>
      <trkpt lon="-3.155163" lat="52.982832"><ele>220.881210</ele><time>2021-09-01T12:43:48Z</time><extensions><speed>1.120670</speed><course>331.980591</course><hAcc>0.867228</hAcc><vAcc>0.648186</vAcc></extensions></trkpt>
      <trkpt lon="-3.155151" lat="52.982826"><ele>220.957581</ele><time>2021-09-01T12:43:49Z</time><extensions><speed>1.108618</speed><course>339.684753</course><hAcc>0.867703</hAcc><vAcc>0.649726</vAcc></extensions></trkpt>
      <trkpt lon="-3.155139" lat="52.982819"><ele>221.037338</ele><time>2021-09-01T12:43:50Z</time><extensions><speed>1.093832</speed><course>332.990814</course><hAcc>0.868178</hAcc><vAcc>0.651257</vAcc></extensions></trkpt>
      <trkpt lon="-3.155126" lat="52.982813"><ele>221.118988</ele><time>2021-09-01T12:43:51Z</time><extensions><speed>1.078612</speed><course>322.191711</course><hAcc>0.868635</hAcc><vAcc>0.652723</vAcc></extensions></trkpt>
      <trkpt lon="-3.155114" lat="52.982806"><ele>221.201981</ele><time>2021-09-01T12:43:52Z</time><extensions><speed>1.065455</speed><course>322.481537</course><hAcc>0.869062</hAcc><vAcc>0.654084</vAcc></extensions></trkpt>
      <trkpt lon="-3.155102" lat="52.982800"><ele>221.286346</ele><time>2021-09-01T12:43:53Z</time><extensions><speed>1.055217</speed><course>324.494202</course><hAcc>0.869448</hAcc><vAcc>0.655319</vAcc></extensions></trkpt>
      <trkpt lon="-3.155090" lat="52.982794"><ele>221.372345</ele><time>2021-09-01T12:43:54Z</time><extensions><speed>1.047811</speed><course>326.900543</course><hAcc>0.869790</hAcc><vAcc>0.656412</vAcc></extensions></trkpt>
      <trkpt lon="-3.155078" lat="52.982789"><ele>221.460388</ele><time>2021-09-01T12:43:55Z</time><extensions><speed>1.042652</speed><course>327.108612</course><hAcc>0.870081</hAcc><vAcc>0.657348</vAcc></extensions></trkpt>
      <trkpt lon="-3.155066" lat="52.982783"><ele>221.550369</ele><time>2021-09-01T12:43:56Z</time><extensions><speed>1.038790</speed><course>326.961395</course><hAcc>0.870317</hAcc><vAcc>0.658104</vAcc></extensions></trkpt>
      <trkpt lon="-3.155053" lat="52.982777"><ele>221.641800</ele><time>2021-09-01T12:43:57Z</time><extensions><speed>1.035871</speed><course>328.725586</course><hAcc>0.870495</hAcc><vAcc>0.658659</vAcc></extensions></trkpt>
      <trkpt lon="-3.155041" lat="52.982771"><ele>221.734238</ele><time>2021-09-01T12:43:58Z</time><extensions><speed>1.034027</speed><course>324.538879</course><hAcc>0.870618</hAcc><vAcc>0.659011</vAcc></extensions></trkpt>
      <trkpt lon="-3.155029" lat="52.982766"><ele>221.827789</ele><time>2021-09-01T12:43:59Z</time><extensions><speed>1.033542</speed><course>322.792755</course><hAcc>0.870695</hAcc><vAcc>0.659186</vAcc></extensions></trkpt>
      <trkpt lon="-3.155017" lat="52.982760"><ele>221.923126</ele><time>2021-09-01T12:44:00Z</time><extensions><speed>1.034793</speed><course>321.878906</course><hAcc>0.870745</hAcc><vAcc>0.659240</vAcc></extensions></trkpt>
      <trkpt lon="-3.155004" lat="52.982755"><ele>222.021194</ele><time>2021-09-01T12:44:01Z</time><extensions><speed>1.037770</speed><course>332.119232</course><hAcc>0.870794</hAcc><vAcc>0.659270</vAcc></extensions></trkpt>
      <trkpt lon="-3.154992" lat="52.982749"><ele>222.122772</ele><time>2021-09-01T12:44:02Z</time><extensions><speed>1.043013</speed><course>333.921204</course><hAcc>0.870872</hAcc><vAcc>0.659398</vAcc></extensions></trkpt>
      <trkpt lon="-3.154979" lat="52.982743"><ele>222.228683</ele><time>2021-09-01T12:44:03Z</time><extensions><speed>1.051109</speed><course>333.199188</course><hAcc>0.871012</hAcc><vAcc>0.659748</vAcc></extensions></trkpt>
      <trkpt lon="-3.154967" lat="52.982738"><ele>222.339630</ele><time>2021-09-01T12:44:04Z</time><extensions><speed>1.060899</speed><course>332.370575</course><hAcc>0.871241</hAcc><vAcc>0.660428</vAcc></extensions></trkpt>
      <trkpt lon="-3.154954" lat="52.982732"><ele>222.456085</ele><time>2021-09-01T12:44:05Z</time><extensions><speed>1.070432</speed><course>324.975555</course><hAcc>0.871578</hAcc><vAcc>0.661512</vAcc></extensions></trkpt>
      <trkpt lon="-3.154942" lat="52.982726"><ele>222.577972</ele><time>2021-09-01T12:44:06Z</time><extensions><speed>1.078644</speed><course>335.518433</course><hAcc>0.872028</hAcc><vAcc>0.663020</vAcc></extensions></trkpt>
      <trkpt lon="-3.154929" lat="52.982720"><ele>222.704773</ele><time>2021-09-01T12:44:07Z</time><extensions><speed>1.085348</speed><course>325.564209</course><hAcc>0.872582</hAcc><vAcc>0.664914</vAcc></extensions></trkpt>
      <trkpt lon="-3.154917" lat="52.982713"><ele>222.835297</ele><time>2021-09-01T12:44:08Z</time><extensions><speed>1.090524</speed><course>328.563263</course><hAcc>0.873217</hAcc><vAcc>0.667097</vAcc></extensions></trkpt>
      <trkpt lon="-3.154905" lat="52.982707"><ele>222.967667</ele><time>2021-09-01T12:44:09Z</time><extensions><speed>1.094228</speed><course>326.994080</course><hAcc>0.873902</hAcc><vAcc>0.669435</vAcc></extensions></trkpt>
      <trkpt lon="-3.154893" lat="52.982700"><ele>223.099503</ele><time>2021-09-01T12:44:10Z</time><extensions><speed>1.096442</speed><course>318.473267</course><hAcc>0.874601</hAcc><vAcc>0.671781</vAcc></extensions></trkpt>
      <trkpt lon="-3.154881" lat="52.982693"><ele>223.228134</ele><time>2021-09-01T12:44:11Z</time><extensions><speed>1.097223</speed><course>311.042542</course><hAcc>0.875281</hAcc><vAcc>0.674010</vAcc></extensions></trkpt>
      <trkpt lon="-3.154869" lat="52.982686"><ele>223.351120</ele><time>2021-09-01T12:44:12Z</time><extensions><speed>1.097212</speed><course>305.538330</course><hAcc>0.875917</hAcc><vAcc>0.676031</vAcc></extensions></trkpt>
      <trkpt lon="-3.154857" lat="52.982680"><ele>223.466705</ele><time>2021-09-01T12:44:13Z</time><extensions><speed>1.097118</speed><course>315.153778</course><hAcc>0.876495</hAcc><vAcc>0.677801</vAcc></extensions></trkpt>
      <trkpt lon="-3.154846" lat="52.982673"><ele>223.573792</ele><time>2021-09-01T12:44:14Z</time><extensions><speed>1.097439</speed><course>316.503418</course><hAcc>0.877005</hAcc><vAcc>0.679315</vAcc></extensions></trkpt>
      <trkpt lon="-3.154834" lat="52.982666"><ele>223.671814</ele><time>2021-09-01T12:44:15Z</time><extensions><speed>1.098613</speed><course>335.833191</course><hAcc>0.877447</hAcc><vAcc>0.680591</vAcc></extensions></trkpt>
      <trkpt lon="-3.154823" lat="52.982658"><ele>223.761047</ele><time>2021-09-01T12:44:16Z</time><extensions><speed>1.100639</speed><course>327.010254</course><hAcc>0.877826</hAcc><vAcc>0.681666</vAcc></extensions></trkpt>
      <trkpt lon="-3.154812" lat="52.982651"><ele>223.842468</ele><time>2021-09-01T12:44:17Z</time><extensions><speed>1.103337</speed><course>325.252136</course><hAcc>0.878150</hAcc><vAcc>0.682581</vAcc></extensions></trkpt>
      <trkpt lon="-3.154800" lat="52.982644"><ele>223.917099</ele><time>2021-09-01T12:44:18Z</time><extensions><speed>1.107074</speed><course>322.968475</course><hAcc>0.878427</hAcc><vAcc>0.683369</vAcc></extensions></trkpt>
      <trkpt lon="-3.154788" lat="52.982637"><ele>223.985718</ele><time>2021-09-01T12:44:19Z</time><extensions><speed>1.112628</speed><course>323.501465</course><hAcc>0.878666</hAcc><vAcc>0.684062</vAcc></extensions></trkpt>
      <trkpt lon="-3.154776" lat="52.982630"><ele>224.048798</ele><time>2021-09-01T12:44:20Z</time><extensions><speed>1.120445</speed><course>321.425781</course><hAcc>0.878874</hAcc><vAcc>0.684681</vAcc></extensions></trkpt>
      <trkpt lon="-3.154764" lat="52.982623"><ele>224.106522</ele><time>2021-09-01T12:44:21Z</time><extensions><speed>1.130315</speed><course>320.251373</course><hAcc>0.879059</hAcc><vAcc>0.685240</vAcc></extensions></trkpt>
      <trkpt lon="-3.154752" lat="52.982616"><ele>224.158829</ele><time>2021-09-01T12:44:22Z</time><extensions><speed>1.141577</speed><course>324.252075</course><hAcc>0.879225</hAcc><vAcc>0.685744</vAcc></extensions></trkpt>
      <trkpt lon="-3.154740" lat="52.982609"><ele>224.205643</ele><time>2021-09-01T12:44:23Z</time><extensions><speed>1.153405</speed><course>324.152374</course><hAcc>0.879378</hAcc><vAcc>0.686204</vAcc></extensions></trkpt>
      <trkpt lon="-3.154727" lat="52.982602"><ele>224.246811</ele><time>2021-09-01T12:44:24Z</time><extensions><speed>1.165316</speed><course>325.481750</course><hAcc>0.879521</hAcc><vAcc>0.686632</vAcc></extensions></trkpt>
      <trkpt lon="-3.154714" lat="52.982595"><ele>224.282196</ele><time>2021-09-01T12:44:25Z</time><extensions><speed>1.177316</speed><course>319.205566</course><hAcc>0.879658</hAcc><vAcc>0.687047</vAcc></extensions></trkpt>
      <trkpt lon="-3.154701" lat="52.982588"><ele>224.312225</ele><time>2021-09-01T12:44:26Z</time><extensions><speed>1.189587</speed><course>318.376190</course><hAcc>0.879792</hAcc><vAcc>0.687463</vAcc></extensions></trkpt>
      <trkpt lon="-3.154688" lat="52.982580"><ele>224.337631</ele><time>2021-09-01T12:44:27Z</time><extensions><speed>1.201880</speed><course>314.977020</course><hAcc>0.879925</hAcc><vAcc>0.687886</vAcc></extensions></trkpt>
      <trkpt lon="-3.154675" lat="52.982573"><ele>224.359421</ele><time>2021-09-01T12:44:28Z</time><extensions><speed>1.213478</speed><course>311.302399</course><hAcc>0.880057</hAcc><vAcc>0.688312</vAcc></extensions></trkpt>
      <trkpt lon="-3.154661" lat="52.982566"><ele>224.378494</ele><time>2021-09-01T12:44:29Z</time><extensions><speed>1.223698</speed><course>310.834198</course><hAcc>0.880187</hAcc><vAcc>0.688734</vAcc></extensions></trkpt>
      <trkpt lon="-3.154647" lat="52.982559"><ele>224.395813</ele><time>2021-09-01T12:44:30Z</time><extensions><speed>1.232230</speed><course>309.925598</course><hAcc>0.880313</hAcc><vAcc>0.689144</vAcc></extensions></trkpt>
      <trkpt lon="-3.154633" lat="52.982552"><ele>224.412384</ele><time>2021-09-01T12:44:31Z</time><extensions><speed>1.239087</speed><course>306.104523</course><hAcc>0.880433</hAcc><vAcc>0.689533</vAcc></extensions></trkpt>
      <trkpt lon="-3.154619" lat="52.982544"><ele>224.429077</ele><time>2021-09-01T12:44:32Z</time><extensions><speed>1.244676</speed><course>306.130798</course><hAcc>0.880548</hAcc><vAcc>0.689899</vAcc></extensions></trkpt>
      <trkpt lon="-3.154605" lat="52.982537"><ele>224.446320</ele><time>2021-09-01T12:44:33Z</time><extensions><speed>1.249281</speed><course>309.163177</course><hAcc>0.880655</hAcc><vAcc>0.690237</vAcc></extensions></trkpt>
      <trkpt lon="-3.154590" lat="52.982530"><ele>224.464508</ele><time>2021-09-01T12:44:34Z</time><extensions><speed>1.252883</speed><course>311.638824</course><hAcc>0.880754</hAcc><vAcc>0.690551</vAcc></extensions></trkpt>
      <trkpt lon="-3.154576" lat="52.982523"><ele>224.484283</ele><time>2021-09-01T12:44:35Z</time><extensions><speed>1.255631</speed><course>306.319550</course><hAcc>0.880844</hAcc><vAcc>0.690840</vAcc></extensions></trkpt>
      <trkpt lon="-3.154562" lat="52.982516"><ele>224.506516</ele><time>2021-09-01T12:44:36Z</time><extensions><speed>1.257534</speed><course>309.448608</course><hAcc>0.880924</hAcc><vAcc>0.691100</vAcc></extensions></trkpt>
      <trkpt lon="-3.154547" lat="52.982509"><ele>224.532013</ele><time>2021-09-01T12:44:37Z</time><extensions><speed>1.258410</speed><course>307.055084</course><hAcc>0.880994</hAcc><vAcc>0.691326</vAcc></extensions></trkpt>
      <trkpt lon="-3.154533" lat="52.982501"><ele>224.561295</ele><time>2021-09-01T12:44:38Z</time><extensions><speed>1.258062</speed><course>309.609528</course><hAcc>0.881053</hAcc><vAcc>0.691510</vAcc></extensions></trkpt>
      <trkpt lon="-3.154518" lat="52.982494"><ele>224.594620</ele><time>2021-09-01T12:44:39Z</time><extensions><speed>1.256482</speed><course>304.747925</course><hAcc>0.881099</hAcc><vAcc>0.691650</vAcc></extensions></trkpt>
      <trkpt lon="-3.154504" lat="52.982487"><ele>224.632141</ele><time>2021-09-01T12:44:40Z</time><extensions><speed>1.253834</speed><course>298.413086</course><hAcc>0.881134</hAcc><vAcc>0.691746</vAcc></extensions></trkpt>
      <trkpt lon="-3.154489" lat="52.982480"><ele>224.673996</ele><time>2021-09-01T12:44:41Z</time><extensions><speed>1.250174</speed><course>304.495026</course><hAcc>0.881158</hAcc><vAcc>0.691805</vAcc></extensions></trkpt>
      <trkpt lon="-3.154475" lat="52.982473"><ele>224.719986</ele><time>2021-09-01T12:44:42Z</time><extensions><speed>1.245667</speed><course>308.805939</course><hAcc>0.881170</hAcc><vAcc>0.691837</vAcc></extensions></trkpt>
      <trkpt lon="-3.154461" lat="52.982465"><ele>224.769562</ele><time>2021-09-01T12:44:43Z</time><extensions><speed>1.240811</speed><course>311.789917</course><hAcc>0.881172</hAcc><vAcc>0.691849</vAcc></extensions></trkpt>
      <trkpt lon="-3.154447" lat="52.982458"><ele>224.822296</ele><time>2021-09-01T12:44:44Z</time><extensions><speed>1.235373</speed><course>310.886353</course><hAcc>0.881162</hAcc><vAcc>0.691840</vAcc></extensions></trkpt>
      <trkpt lon="-3.154434" lat="52.982451"><ele>224.877899</ele><time>2021-09-01T12:44:45Z</time><extensions><speed>1.228915</speed><course>314.533539</course><hAcc>0.881139</hAcc><vAcc>0.691802</vAcc></extensions></trkpt>
      <trkpt lon="-3.154420" lat="52.982443"><ele>224.936050</ele><time>2021-09-01T12:44:46Z</time><extensions><speed>1.221902</speed><course>315.680542</course><hAcc>0.881102</hAcc><vAcc>0.691717</vAcc></extensions></trkpt>
      <trkpt lon="-3.154407" lat="52.982436"><ele>224.996445</ele><time>2021-09-01T12:44:47Z</time><extensions><speed>1.215149</speed><course>318.090881</course><hAcc>0.881048</hAcc><vAcc>0.691569</vAcc></extensions></trkpt>
      <trkpt lon="-3.154394" lat="52.982428"><ele>225.058685</ele><time>2021-09-01T12:44:48Z</time><extensions><speed>1.209079</speed><course>322.434174</course><hAcc>0.880978</hAcc><vAcc>0.691347</vAcc></extensions></trkpt>
      <trkpt lon="-3.154381" lat="52.982421"><ele>225.122253</ele><time>2021-09-01T12:44:49Z</time><extensions><speed>1.203658</speed><course>326.481506</course><hAcc>0.880891</hAcc><vAcc>0.691052</vAcc></extensions></trkpt>
      <trkpt lon="-3.154368" lat="52.982413"><ele>225.186401</ele><time>2021-09-01T12:44:50Z</time><extensions><speed>1.198990</speed><course>309.522247</course><hAcc>0.880791</hAcc><vAcc>0.690696</vAcc></extensions></trkpt>
      <trkpt lon="-3.154356" lat="52.982406"><ele>225.250168</ele><time>2021-09-01T12:44:51Z</time><extensions><speed>1.195592</speed><course>317.105560</course><hAcc>0.880681</hAcc><vAcc>0.690299</vAcc></extensions></trkpt>
      <trkpt lon="-3.154343" lat="52.982398"><ele>225.312454</ele><time>2021-09-01T12:44:52Z</time><extensions><speed>1.193454</speed><course>325.631348</course><hAcc>0.880564</hAcc><vAcc>0.689886</vAcc></extensions></trkpt>
      <trkpt lon="-3.154331" lat="52.982390"><ele>225.372131</ele><time>2021-09-01T12:44:53Z</time><extensions><speed>1.191522</speed><course>323.961853</course><hAcc>0.880445</hAcc><vAcc>0.689478</vAcc></extensions></trkpt>
      <trkpt lon="-3.154319" lat="52.982382"><ele>225.428329</ele><time>2021-09-01T12:44:54Z</time><extensions><speed>1.188997</speed><course>321.394775</course><hAcc>0.880327</hAcc><vAcc>0.689089</vAcc></extensions></trkpt>
      <trkpt lon="-3.154307" lat="52.982375"><ele>225.480362</ele><time>2021-09-01T12:44:55Z</time><extensions><speed>1.185796</speed><course>321.108948</course><hAcc>0.880213</hAcc><vAcc>0.688729</vAcc></extensions></trkpt>
      <trkpt lon="-3.154294" lat="52.982367"><ele>225.527847</ele><time>2021-09-01T12:44:56Z</time><extensions><speed>1.182322</speed><course>321.170013</course><hAcc>0.880104</hAcc><vAcc>0.688397</vAcc></extensions></trkpt>
      <trkpt lon="-3.154282" lat="52.982359"><ele>225.570877</ele><time>2021-09-01T12:44:57Z</time><extensions><speed>1.179567</speed><course>306.176178</course><hAcc>0.880000</hAcc><vAcc>0.688086</vAcc></extensions></trkpt>
      <trkpt lon="-3.154270" lat="52.982352"><ele>225.609695</ele><time>2021-09-01T12:44:58Z</time><extensions><speed>1.178518</speed><course>315.376495</course><hAcc>0.879902</hAcc><vAcc>0.687789</vAcc></extensions></trkpt>
      <trkpt lon="-3.154258" lat="52.982344"><ele>225.644348</ele><time>2021-09-01T12:44:59Z</time><extensions><speed>1.179477</speed><course>318.757812</course><hAcc>0.879811</hAcc><vAcc>0.687502</vAcc></extensions></trkpt>
      <trkpt lon="-3.154246" lat="52.982336"><ele>225.674911</ele><time>2021-09-01T12:45:00Z</time><extensions><speed>1.182780</speed><course>302.990356</course><hAcc>0.879729</hAcc><vAcc>0.687225</vAcc></extensions></trkpt>
      <trkpt lon="-3.154233" lat="52.982329"><ele>225.701614</ele><time>2021-09-01T12:45:01Z</time><extensions><speed>1.188366</speed><course>313.317535</course><hAcc>0.879659</hAcc><vAcc>0.686969</vAcc></extensions></trkpt>
      <trkpt lon="-3.154220" lat="52.982322"><ele>225.724854</ele><time>2021-09-01T12:45:02Z</time><extensions><speed>1.195498</speed><course>312.441528</course><hAcc>0.879603</hAcc><vAcc>0.686753</vAcc></extensions></trkpt>
      <trkpt lon="-3.154207" lat="52.982314"><ele>225.745041</ele><time>2021-09-01T12:45:03Z</time><extensions><speed>1.203815</speed><course>316.780334</course><hAcc>0.879565</hAcc><vAcc>0.686598</vAcc></extensions></trkpt>
      <trkpt lon="-3.154193" lat="52.982307"><ele>225.762741</ele><time>2021-09-01T12:45:04Z</time><extensions><speed>1.213498</speed><course>316.095612</course><hAcc>0.879550</hAcc><vAcc>0.686521</vAcc></extensions></trkpt>
      <trkpt lon="-3.154179" lat="52.982300"><ele>225.779343</ele><time>2021-09-01T12:45:05Z</time><extensions><speed>1.224474</speed><course>314.234863</course><hAcc>0.879557</hAcc><vAcc>0.686537</vAcc></extensions></trkpt>
      <trkpt lon="-3.154165" lat="52.982293"><ele>225.796692</ele><time>2021-09-01T12:45:06Z</time><extensions><speed>1.235922</speed><course>308.545959</course><hAcc>0.879589</hAcc><vAcc>0.686651</vAcc></extensions></trkpt>
      <trkpt lon="-3.154151" lat="52.982286"><ele>225.816452</ele><time>2021-09-01T12:45:07Z</time><extensions><speed>1.247207</speed><course>317.115723</course><hAcc>0.879642</hAcc><vAcc>0.686857</vAcc></extensions></trkpt>
      <trkpt lon="-3.154136" lat="52.982279"><ele>225.840485</ele><time>2021-09-01T12:45:08Z</time><extensions><speed>1.257649</speed><course>324.999634</course><hAcc>0.879714</hAcc><vAcc>0.687136</vAcc></extensions></trkpt>
      <trkpt lon="-3.154121" lat="52.982272"><ele>225.870667</ele><time>2021-09-01T12:45:09Z</time><extensions><speed>1.266288</speed><course>317.924194</course><hAcc>0.879798</hAcc><vAcc>0.687457</vAcc></extensions></trkpt>
      <trkpt lon="-3.154106" lat="52.982265"><ele>225.908112</ele><time>2021-09-01T12:45:10Z</time><extensions><speed>1.273219</speed><course>315.987152</course><hAcc>0.879888</hAcc><vAcc>0.687786</vAcc></extensions></trkpt>
      <trkpt lon="-3.154091" lat="52.982259"><ele>225.953217</ele><time>2021-09-01T12:45:11Z</time><extensions><speed>1.279471</speed><course>314.734009</course><hAcc>0.879978</hAcc><vAcc>0.688099</vAcc></extensions></trkpt>
      <trkpt lon="-3.154075" lat="52.982252"><ele>226.006256</ele><time>2021-09-01T12:45:12Z</time><extensions><speed>1.285831</speed><course>317.632782</course><hAcc>0.880063</hAcc><vAcc>0.688382</vAcc></extensions></trkpt>
      <trkpt lon="-3.154060" lat="52.982245"><ele>226.068146</ele><time>2021-09-01T12:45:13Z</time><extensions><speed>1.292693</speed><course>301.352448</course><hAcc>0.880139</hAcc><vAcc>0.688633</vAcc></extensions></trkpt>
      <trkpt lon="-3.154044" lat="52.982238"><ele>226.139526</ele><time>2021-09-01T12:45:14Z</time><extensions><speed>1.300121</speed><course>311.835449</course><hAcc>0.880204</hAcc><vAcc>0.688851</vAcc></extensions></trkpt>
      <trkpt lon="-3.154028" lat="52.982232"><ele>226.220291</ele><time>2021-09-01T12:45:15Z</time><extensions><speed>1.307579</speed><course>314.400024</course><hAcc>0.880254</hAcc><vAcc>0.689031</vAcc></extensions></trkpt>
      <trkpt lon="-3.154012" lat="52.982225"><ele>226.310349</ele><time>2021-09-01T12:45:16Z</time><extensions><speed>1.314384</speed><course>314.080444</course><hAcc>0.880287</hAcc><vAcc>0.689162</vAcc></extensions></trkpt>
      <trkpt lon="-3.153996" lat="52.982218"><ele>226.409760</ele><time>2021-09-01T12:45:17Z</time><extensions><speed>1.319499</speed><course>307.602600</course><hAcc>0.880302</hAcc><vAcc>0.689229</vAcc></extensions></trkpt>
      <trkpt lon="-3.153980" lat="52.982211"><ele>226.518265</ele><time>2021-09-01T12:45:18Z</time><extensions><speed>1.322319</speed><course>311.268951</course><hAcc>0.880296</hAcc><vAcc>0.689222</vAcc></extensions></trkpt>
      <trkpt lon="-3.153964" lat="52.982204"><ele>226.634903</ele><time>2021-09-01T12:45:19Z</time><extensions><speed>1.322916</speed><course>316.568695</course><hAcc>0.880272</hAcc><vAcc>0.689135</vAcc></extensions></trkpt>
      <trkpt lon="-3.153948" lat="52.982197"><ele>226.758560</ele><time>2021-09-01T12:45:20Z</time><extensions><speed>1.320994</speed><course>324.849396</course><hAcc>0.880232</hAcc><vAcc>0.688970</vAcc></extensions></trkpt>
      <trkpt lon="-3.153932" lat="52.982190"><ele>226.888290</ele><time>2021-09-01T12:45:21Z</time><extensions><speed>1.316159</speed><course>318.929504</course><hAcc>0.880180</hAcc><vAcc>0.688747</vAcc></extensions></trkpt>
      <trkpt lon="-3.153917" lat="52.982183"><ele>227.023102</ele><time>2021-09-01T12:45:22Z</time><extensions><speed>1.308227</speed><course>315.514008</course><hAcc>0.880123</hAcc><vAcc>0.688498</vAcc></extensions></trkpt>
      <trkpt lon="-3.153902" lat="52.982176"><ele>227.161804</ele><time>2021-09-01T12:45:23Z</time><extensions><speed>1.297819</speed><course>309.432922</course><hAcc>0.880069</hAcc><vAcc>0.688259</vAcc></extensions></trkpt>
      <trkpt lon="-3.153887" lat="52.982168"><ele>227.303162</ele><time>2021-09-01T12:45:24Z</time><extensions><speed>1.286533</speed><course>306.068817</course><hAcc>0.880026</hAcc><vAcc>0.688063</vAcc></extensions></trkpt>
      <trkpt lon="-3.153873" lat="52.982161"><ele>227.445648</ele><time>2021-09-01T12:45:25Z</time><extensions><speed>1.275593</speed><course>319.983490</course><hAcc>0.879999</hAcc><vAcc>0.687930</vAcc></extensions></trkpt>
      <trkpt lon="-3.153859" lat="52.982153"><ele>227.587418</ele><time>2021-09-01T12:45:26Z</time><extensions><speed>1.265484</speed><course>315.606720</course><hAcc>0.879994</hAcc><vAcc>0.687882</vAcc></extensions></trkpt>
      <trkpt lon="-3.153846" lat="52.982145"><ele>227.726593</ele><time>2021-09-01T12:45:27Z</time><extensions><speed>1.256727</speed><course>317.784515</course><hAcc>0.880015</hAcc><vAcc>0.687934</vAcc></extensions></trkpt>
      <trkpt lon="-3.153832" lat="52.982137"><ele>227.861496</ele><time>2021-09-01T12:45:28Z</time><extensions><speed>1.249387</speed><course>313.524780</course><hAcc>0.880064</hAcc><vAcc>0.688097</vAcc></extensions></trkpt>
      <trkpt lon="-3.153820" lat="52.982129"><ele>227.990662</ele><time>2021-09-01T12:45:29Z</time><extensions><speed>1.243385</speed><course>310.903687</course><hAcc>0.880140</hAcc><vAcc>0.688365</vAcc></extensions></trkpt>
      <trkpt lon="-3.153807" lat="52.982120"><ele>228.113037</ele><time>2021-09-01T12:45:30Z</time><extensions><speed>1.238775</speed><course>315.823334</course><hAcc>0.880241</hAcc><vAcc>0.688727</vAcc></extensions></trkpt>
      <trkpt lon="-3.153795" lat="52.982112"><ele>228.227982</ele><time>2021-09-01T12:45:31Z</time><extensions><speed>1.234990</speed><course>318.320831</course><hAcc>0.880363</hAcc><vAcc>0.689164</vAcc></extensions></trkpt>
      <trkpt lon="-3.153783" lat="52.982104"><ele>228.335144</ele><time>2021-09-01T12:45:32Z</time><extensions><speed>1.231139</speed><course>306.579529</course><hAcc>0.880503</hAcc><vAcc>0.689653</vAcc></extensions></trkpt>
      <trkpt lon="-3.153771" lat="52.982095"><ele>228.434357</ele><time>2021-09-01T12:45:33Z</time><extensions><speed>1.226882</speed><course>308.750916</course><hAcc>0.880655</hAcc><vAcc>0.690168</vAcc></extensions></trkpt>
      <trkpt lon="-3.153760" lat="52.982087"><ele>228.525696</ele><time>2021-09-01T12:45:34Z</time><extensions><speed>1.222466</speed><course>310.705475</course><hAcc>0.880814</hAcc><vAcc>0.690689</vAcc></extensions></trkpt>
      <trkpt lon="-3.153748" lat="52.982078"><ele>228.609863</ele><time>2021-09-01T12:45:35Z</time><extensions><speed>1.218168</speed><course>309.681793</course><hAcc>0.880979</hAcc><vAcc>0.691201</vAcc></extensions></trkpt>
      <trkpt lon="-3.153736" lat="52.982070"><ele>228.688095</ele><time>2021-09-01T12:45:36Z</time><extensions><speed>1.214029</speed><course>322.348389</course><hAcc>0.881147</hAcc><vAcc>0.691706</vAcc></extensions></trkpt>
      <trkpt lon="-3.153724" lat="52.982062"><ele>228.761520</ele><time>2021-09-01T12:45:37Z</time><extensions><speed>1.210561</speed><course>326.702148</course><hAcc>0.881318</hAcc><vAcc>0.692211</vAcc></extensions></trkpt>
      <trkpt lon="-3.153713" lat="52.982054"><ele>228.830704</ele><time>2021-09-01T12:45:38Z</time><extensions><speed>1.208457</speed><course>331.813965</course><hAcc>0.881493</hAcc><vAcc>0.692727</vAcc></extensions></trkpt>
      <trkpt lon="-3.153701" lat="52.982046"><ele>228.896027</ele><time>2021-09-01T12:45:39Z</time><extensions><speed>1.207500</speed><course>329.095581</course><hAcc>0.881672</hAcc><vAcc>0.693261</vAcc></extensions></trkpt>
      <trkpt lon="-3.153689" lat="52.982038"><ele>228.958298</ele><time>2021-09-01T12:45:40Z</time><extensions><speed>1.206982</speed><course>317.013092</course><hAcc>0.881855</hAcc><vAcc>0.693819</vAcc></extensions></trkpt>
      <trkpt lon="-3.153676" lat="52.982030"><ele>229.018890</ele><time>2021-09-01T12:45:41Z</time><extensions><speed>1.206371</speed><course>304.237976</course><hAcc>0.882043</hAcc><vAcc>0.694407</vAcc></extensions></trkpt>
      <trkpt lon="-3.153664" lat="52.982022"><ele>229.079330</ele><time>2021-09-01T12:45:42Z</time><extensions><speed>1.205635</speed><course>306.732727</course><hAcc>0.882235</hAcc><vAcc>0.695024</vAcc></extensions></trkpt>
      <trkpt lon="-3.153651" lat="52.982014"><ele>229.140976</ele><time>2021-09-01T12:45:43Z</time><extensions><speed>1.204994</speed><course>314.620697</course><hAcc>0.882431</hAcc><vAcc>0.695664</vAcc></extensions></trkpt>
      <trkpt lon="-3.153638" lat="52.982007"><ele>229.205017</ele><time>2021-09-01T12:45:44Z</time><extensions><speed>1.204885</speed><course>308.721527</course><hAcc>0.882629</hAcc><vAcc>0.696317</vAcc></extensions></trkpt>
      <trkpt lon="-3.153625" lat="52.981999"><ele>229.272690</ele><time>2021-09-01T12:45:45Z</time><extensions><speed>1.205533</speed><course>324.142334</course><hAcc>0.882831</hAcc><vAcc>0.696974</vAcc></extensions></trkpt>
      <trkpt lon="-3.153612" lat="52.981992"><ele>229.345184</ele><time>2021-09-01T12:45:46Z</time><extensions><speed>1.206604</speed><course>320.497589</course><hAcc>0.883039</hAcc><vAcc>0.697628</vAcc></extensions></trkpt>
      <trkpt lon="-3.153599" lat="52.981984"><ele>229.423706</ele><time>2021-09-01T12:45:47Z</time><extensions><speed>1.207844</speed><course>317.760712</course><hAcc>0.883258</hAcc><vAcc>0.698278</vAcc></extensions></trkpt>
      <trkpt lon="-3.153585" lat="52.981977"><ele>229.509308</ele><time>2021-09-01T12:45:48Z</time><extensions><speed>1.208682</speed><course>320.404846</course><hAcc>0.883499</hAcc><vAcc>0.698935</vAcc></extensions></trkpt>
      <trkpt lon="-3.153572" lat="52.981970"><ele>229.602707</ele><time>2021-09-01T12:45:49Z</time><extensions><speed>1.208232</speed><course>325.015778</course><hAcc>0.883778</hAcc><vAcc>0.699615</vAcc></extensions></trkpt>
      <trkpt lon="-3.153558" lat="52.981963"><ele>229.704193</ele><time>2021-09-01T12:45:50Z</time><extensions><speed>1.205519</speed><course>317.077057</course><hAcc>0.884116</hAcc><vAcc>0.700337</vAcc></extensions></trkpt>
      <trkpt lon="-3.153544" lat="52.981956"><ele>229.813431</ele><time>2021-09-01T12:45:51Z</time><extensions><speed>1.200286</speed><course>311.682465</course><hAcc>0.884542</hAcc><vAcc>0.701123</vAcc></extensions></trkpt>
      <trkpt lon="-3.153530" lat="52.981950"><ele>229.929489</ele><time>2021-09-01T12:45:52Z</time><extensions><speed>1.193206</speed><course>306.448975</course><hAcc>0.885093</hAcc><vAcc>0.702002</vAcc></extensions></trkpt>
      <trkpt lon="-3.153516" lat="52.981943"><ele>230.051163</ele><time>2021-09-01T12:45:53Z</time><extensions><speed>1.185001</speed><course>313.316711</course><hAcc>0.885808</hAcc><vAcc>0.703003</vAcc></extensions></trkpt>
      <trkpt lon="-3.153503" lat="52.981936"><ele>230.177078</ele><time>2021-09-01T12:45:54Z</time><extensions><speed>1.176597</speed><course>315.373596</course><hAcc>0.886732</hAcc><vAcc>0.704153</vAcc></extensions></trkpt>
      <trkpt lon="-3.153489" lat="52.981930"><ele>230.305634</ele><time>2021-09-01T12:45:55Z</time><extensions><speed>1.168563</speed><course>312.668671</course><hAcc>0.887903</hAcc><vAcc>0.705469</vAcc></extensions></trkpt>
      <trkpt lon="-3.153475" lat="52.981924"><ele>230.435501</ele><time>2021-09-01T12:45:56Z</time><extensions><speed>1.161752</speed><course>309.354675</course><hAcc>0.889348</hAcc><vAcc>0.706953</vAcc></extensions></trkpt>
      <trkpt lon="-3.153461" lat="52.981917"><ele>230.565689</ele><time>2021-09-01T12:45:57Z</time><extensions><speed>1.156899</speed><course>313.043518</course><hAcc>0.891074</hAcc><vAcc>0.708582</vAcc></extensions></trkpt>
      <trkpt lon="-3.153448" lat="52.981911"><ele>230.695511</ele><time>2021-09-01T12:45:58Z</time><extensions><speed>1.153473</speed><course>317.199493</course><hAcc>0.893050</hAcc><vAcc>0.710300</vAcc></extensions></trkpt>
      <trkpt lon="-3.153434" lat="52.981905"><ele>230.824753</ele><time>2021-09-01T12:45:59Z</time><extensions><speed>1.151022</speed><course>310.331177</course><hAcc>0.895201</hAcc><vAcc>0.712012</vAcc></extensions></trkpt>
      <trkpt lon="-3.153420" lat="52.981899"><ele>230.953766</ele><time>2021-09-01T12:46:00Z</time><extensions><speed>1.149668</speed><course>317.756012</course><hAcc>0.897398</hAcc><vAcc>0.713588</vAcc></extensions></trkpt>
      <trkpt lon="-3.153406" lat="52.981893"><ele>231.083008</ele><time>2021-09-01T12:46:01Z</time><extensions><speed>1.149855</speed><course>318.781036</course><hAcc>0.899458</hAcc><vAcc>0.714877</vAcc></extensions></trkpt>
      <trkpt lon="-3.153392" lat="52.981886"><ele>231.212814</ele><time>2021-09-01T12:46:02Z</time><extensions><speed>1.152416</speed><course>314.656464</course><hAcc>0.901169</hAcc><vAcc>0.715744</vAcc></extensions></trkpt>
      <trkpt lon="-3.153378" lat="52.981880"><ele>231.343231</ele><time>2021-09-01T12:46:03Z</time><extensions><speed>1.157319</speed><course>319.512268</course><hAcc>0.902341</hAcc><vAcc>0.716123</vAcc></extensions></trkpt>
      <trkpt lon="-3.153364" lat="52.981874"><ele>231.474106</ele><time>2021-09-01T12:46:04Z</time><extensions><speed>1.163669</speed><course>322.101624</course><hAcc>0.902905</hAcc><vAcc>0.716109</vAcc></extensions></trkpt>
      <trkpt lon="-3.153350" lat="52.981868"><ele>231.605118</ele><time>2021-09-01T12:46:05Z</time><extensions><speed>1.170811</speed><course>318.612640</course><hAcc>0.903086</hAcc><vAcc>0.716093</vAcc></extensions></trkpt>
      <trkpt lon="-3.153336" lat="52.981863"><ele>231.735886</ele><time>2021-09-01T12:46:06Z</time><extensions><speed>1.178377</speed><course>318.709808</course><hAcc>0.903655</hAcc><vAcc>0.716965</vAcc></extensions></trkpt>
      <trkpt lon="-3.153321" lat="52.981857"><ele>231.866135</ele><time>2021-09-01T12:46:07Z</time><extensions><speed>1.185948</speed><course>309.168610</course><hAcc>0.906301</hAcc><vAcc>0.720358</vAcc></extensions></trkpt>
      <trkpt lon="-3.153306" lat="52.981851"><ele>231.995758</ele><time>2021-09-01T12:46:08Z</time><extensions><speed>1.193789</speed><course>318.520874</course><hAcc>0.914073</hAcc><vAcc>0.728918</vAcc></extensions></trkpt>
      <trkpt lon="-3.153291" lat="52.981845"><ele>232.124802</ele><time>2021-09-01T12:46:09Z</time><extensions><speed>1.202071</speed><course>322.226654</course><hAcc>0.931809</hAcc><vAcc>0.746471</vAcc></extensions></trkpt>
      <trkpt lon="-3.153276" lat="52.981839"><ele>232.253448</ele><time>2021-09-01T12:46:10Z</time><extensions><speed>1.209730</speed><course>319.023285</course><hAcc>0.966274</hAcc><vAcc>0.777928</vAcc></extensions></trkpt>
      <trkpt lon="-3.153261" lat="52.981833"><ele>232.382004</ele><time>2021-09-01T12:46:11Z</time><extensions><speed>1.215781</speed><course>325.928833</course><hAcc>1.025656</hAcc><vAcc>0.828763</vAcc></extensions></trkpt>
      <trkpt lon="-3.153246" lat="52.981827"><ele>232.510666</ele><time>2021-09-01T12:46:12Z</time><extensions><speed>1.219801</speed><course>330.973969</course><hAcc>1.118224</hAcc><vAcc>0.904074</vAcc></extensions></trkpt>
      <trkpt lon="-3.153231" lat="52.981821"><ele>232.639389</ele><time>2021-09-01T12:46:13Z</time><extensions><speed>1.222009</speed><course>325.462158</course><hAcc>1.250548</hAcc><vAcc>1.007597</vAcc></extensions></trkpt>
      <trkpt lon="-3.153215" lat="52.981815"><ele>232.767960</ele><time>2021-09-01T12:46:14Z</time><extensions><speed>1.222830</speed><course>319.000732</course><hAcc>1.426178</hAcc><vAcc>1.141105</vAcc></extensions></trkpt>
      <trkpt lon="-3.153200" lat="52.981809"><ele>232.896317</ele><time>2021-09-01T12:46:15Z</time><extensions><speed>1.222937</speed><course>324.049713</course><hAcc>1.645279</hAcc><vAcc>1.304338</vAcc></extensions></trkpt>
    </trkseg>
  </trk>
</gpx>